<?xml version='1.0' encoding='UTF-8'?><gpx version="1.1" creator="JPX - https://github.com/jenetics/jpx" xmlns="http://www.topografix.com/GPX/1/1"><trk><trkseg><trkpt lat="42.1499883" lon="14.5852383"><ele>205.0</ele><time>2026-04-04T07:06:55.824Z</time></trkpt><trkpt lat="42.149931" lon="14.5853155"><ele>205.0</ele><time>2026-04-04T07:08:29.828Z</time></trkpt><trkpt lat="42.1498857" lon="14.5852475"><ele>205.0</ele><time>2026-04-04T07:09:51.829Z</time></trkpt><trkpt lat="42.1498196" lon="14.5852304"><ele>205.0</ele><time>2026-04-04T07:09:53.828Z</time></trkpt><trkpt lat="42.1497552" lon="14.5852303"><ele>205.0</ele><time>2026-04-04T07:09:55.828Z</time></trkpt><trkpt lat="42.1496813" lon="14.5852053"><ele>205.0</ele><time>2026-04-04T07:09:57.828Z</time></trkpt><trkpt lat="42.1496001" lon="14.5851895"><ele>205.0</ele><time>2026-04-04T07:09:59.828Z</time></trkpt><trkpt lat="42.1495095" lon="14.5851821"><ele>203.85714285714286</ele><time>2026-04-04T07:10:01.828Z</time></trkpt><trkpt lat="42.1494123" lon="14.5851423"><ele>202.7142857142857</ele><time>2026-04-04T07:10:03.828Z</time></trkpt><trkpt lat="42.1493392" lon="14.5851277"><ele>201.57142857142856</ele><time>2026-04-04T07:10:05.829Z</time></trkpt><trkpt lat="42.1492777" lon="14.585192"><ele>200.42857142857144</ele><time>2026-04-04T07:10:09.828Z</time></trkpt><trkpt lat="42.149244" lon="14.5852682"><ele>199.28571428571428</ele><time>2026-04-04T07:10:12.828Z</time></trkpt><trkpt lat="42.1492141" lon="14.5853456"><ele>198.14285714285714</ele><time>2026-04-04T07:10:15.828Z</time></trkpt><trkpt lat="42.1492275" lon="14.5854304"><ele>197.0</ele><time>2026-04-04T07:10:18.828Z</time></trkpt><trkpt lat="42.1492606" lon="14.5855378"><ele>196.33333333333334</ele><time>2026-04-04T07:10:22.828Z</time></trkpt><trkpt lat="42.1493416" lon="14.5856161"><ele>195.66666666666669</ele><time>2026-04-04T07:10:25.829Z</time></trkpt><trkpt lat="42.1494096" lon="14.5856844"><ele>195.0</ele><time>2026-04-04T07:10:27.828Z</time></trkpt><trkpt lat="42.1494689" lon="14.5857339"><ele>194.33333333333331</ele><time>2026-04-04T07:10:29.828Z</time></trkpt><trkpt lat="42.1495469" lon="14.5857828"><ele>193.66666666666666</ele><time>2026-04-04T07:10:31.828Z</time></trkpt><trkpt lat="42.1496454" lon="14.5858444"><ele>193.0</ele><time>2026-04-04T07:10:33.828Z</time></trkpt><trkpt lat="42.1497384" lon="14.5859024"><ele>192.99999999999997</ele><time>2026-04-04T07:10:35.829Z</time></trkpt><trkpt lat="42.1498387" lon="14.5859565"><ele>193.0</ele><time>2026-04-04T07:10:37.828Z</time></trkpt><trkpt lat="42.1499007" lon="14.5860194"><ele>193.0</ele><time>2026-04-04T07:10:38.828Z</time></trkpt><trkpt lat="42.1499633" lon="14.5860517"><ele>193.0</ele><time>2026-04-04T07:10:39.828Z</time></trkpt><trkpt lat="42.1500233" lon="14.58608"><ele>192.99999999999997</ele><time>2026-04-04T07:10:40.828Z</time></trkpt><trkpt lat="42.1500833" lon="14.5861117"><ele>193.0</ele><time>2026-04-04T07:10:41.828Z</time></trkpt><trkpt lat="42.1501567" lon="14.5861367"><ele>193.33333333333331</ele><time>2026-04-04T07:10:42.828Z</time></trkpt><trkpt lat="42.1502317" lon="14.58615"><ele>193.66666666666666</ele><time>2026-04-04T07:10:43.828Z</time></trkpt><trkpt lat="42.150305" lon="14.58617"><ele>194.0</ele><time>2026-04-04T07:10:44.829Z</time></trkpt><trkpt lat="42.1503733" lon="14.5861833"><ele>194.33333333333331</ele><time>2026-04-04T07:10:45.828Z</time></trkpt><trkpt lat="42.15045" lon="14.5862067"><ele>194.66666666666666</ele><time>2026-04-04T07:10:46.828Z</time></trkpt><trkpt lat="42.1505233" lon="14.58626"><ele>195.0</ele><time>2026-04-04T07:10:47.828Z</time></trkpt><trkpt lat="42.1506067" lon="14.5863317"><ele>193.4</ele><time>2026-04-04T07:10:48.828Z</time></trkpt><trkpt lat="42.1506733" lon="14.5864267"><ele>191.8</ele><time>2026-04-04T07:10:49.828Z</time></trkpt><trkpt lat="42.1507333" lon="14.5865233"><ele>190.2</ele><time>2026-04-04T07:10:50.828Z</time></trkpt><trkpt lat="42.1507917" lon="14.5866217"><ele>188.6</ele><time>2026-04-04T07:10:51.828Z</time></trkpt><trkpt lat="42.15083" lon="14.5867317"><ele>187.0</ele><time>2026-04-04T07:10:52.828Z</time></trkpt><trkpt lat="42.1508633" lon="14.58683"><ele>186.39999999999998</ele><time>2026-04-04T07:10:53.828Z</time></trkpt><trkpt lat="42.1508817" lon="14.5869433"><ele>185.79999999999998</ele><time>2026-04-04T07:10:54.829Z</time></trkpt><trkpt lat="42.15091" lon="14.587055"><ele>185.2</ele><time>2026-04-04T07:10:55.829Z</time></trkpt><trkpt lat="42.1509433" lon="14.5871717"><ele>184.6</ele><time>2026-04-04T07:10:56.828Z</time></trkpt><trkpt lat="42.1509817" lon="14.5872833"><ele>184.0</ele><time>2026-04-04T07:10:57.828Z</time></trkpt><trkpt lat="42.1510167" lon="14.58741"><ele>183.5</ele><time>2026-04-04T07:10:58.828Z</time></trkpt><trkpt lat="42.1510517" lon="14.5875283"><ele>183.0</ele><time>2026-04-04T07:10:59.828Z</time></trkpt><trkpt lat="42.1510833" lon="14.58764"><ele>182.5</ele><time>2026-04-04T07:11:00.828Z</time></trkpt><trkpt lat="42.1511167" lon="14.5877583"><ele>182.0</ele><time>2026-04-04T07:11:01.828Z</time></trkpt><trkpt lat="42.1511383" lon="14.58787"><ele>181.5</ele><time>2026-04-04T07:11:02.828Z</time></trkpt><trkpt lat="42.151155" lon="14.5879733"><ele>181.0</ele><time>2026-04-04T07:11:03.828Z</time></trkpt><trkpt lat="42.1511733" lon="14.5880783"><ele>180.42857142857142</ele><time>2026-04-04T07:11:04.828Z</time></trkpt><trkpt lat="42.151195" lon="14.5881767"><ele>179.85714285714283</ele><time>2026-04-04T07:11:05.829Z</time></trkpt><trkpt lat="42.1512183" lon="14.5882733"><ele>179.28571428571428</ele><time>2026-04-04T07:11:06.828Z</time></trkpt><trkpt lat="42.15125" lon="14.5883733"><ele>178.71428571428572</ele><time>2026-04-04T07:11:07.828Z</time></trkpt><trkpt lat="42.1512767" lon="14.588465"><ele>178.14285714285714</ele><time>2026-04-04T07:11:08.828Z</time></trkpt><trkpt lat="42.151305" lon="14.588555"><ele>177.57142857142858</ele><time>2026-04-04T07:11:09.828Z</time></trkpt><trkpt lat="42.15133" lon="14.5886433"><ele>177.0</ele><time>2026-04-04T07:11:10.828Z</time></trkpt><trkpt lat="42.1513517" lon="14.5887267"><ele>176.2</ele><time>2026-04-04T07:11:11.828Z</time></trkpt><trkpt lat="42.151375" lon="14.5888067"><ele>175.39999999999998</ele><time>2026-04-04T07:11:12.829Z</time></trkpt><trkpt lat="42.1514033" lon="14.5888883"><ele>174.60000000000002</ele><time>2026-04-04T07:11:13.828Z</time></trkpt><trkpt lat="42.1514617" lon="14.5890383"><ele>173.8</ele><time>2026-04-04T07:11:15.828Z</time></trkpt><trkpt lat="42.1515033" lon="14.5891783"><ele>173.0</ele><time>2026-04-04T07:11:17.828Z</time></trkpt><trkpt lat="42.1515383" lon="14.5893067"><ele>172.8</ele><time>2026-04-04T07:11:19.828Z</time></trkpt><trkpt lat="42.1515733" lon="14.58944"><ele>172.60000000000002</ele><time>2026-04-04T07:11:21.828Z</time></trkpt><trkpt lat="42.151615" lon="14.5895617"><ele>172.39999999999998</ele><time>2026-04-04T07:11:23.828Z</time></trkpt><trkpt lat="42.1516433" lon="14.5897033"><ele>172.2</ele><time>2026-04-04T07:11:25.828Z</time></trkpt><trkpt lat="42.1516867" lon="14.5898517"><ele>172.0</ele><time>2026-04-04T07:11:27.829Z</time></trkpt><trkpt lat="42.15173" lon="14.59001"><ele>171.71428571428572</ele><time>2026-04-04T07:11:29.829Z</time></trkpt><trkpt lat="42.1517767" lon="14.5901633"><ele>171.42857142857144</ele><time>2026-04-04T07:11:31.828Z</time></trkpt><trkpt lat="42.1518017" lon="14.5902433"><ele>171.14285714285717</ele><time>2026-04-04T07:11:32.828Z</time></trkpt><trkpt lat="42.151825" lon="14.590325"><ele>170.85714285714286</ele><time>2026-04-04T07:11:33.828Z</time></trkpt><trkpt lat="42.1518467" lon="14.590405"><ele>170.57142857142856</ele><time>2026-04-04T07:11:34.828Z</time></trkpt><trkpt lat="42.15187" lon="14.590485"><ele>170.2857142857143</ele><time>2026-04-04T07:11:35.828Z</time></trkpt><trkpt lat="42.1518983" lon="14.5905667"><ele>170.0</ele><time>2026-04-04T07:11:36.828Z</time></trkpt><trkpt lat="42.151925" lon="14.5906533"><ele>169.57142857142858</ele><time>2026-04-04T07:11:37.829Z</time></trkpt><trkpt lat="42.1519483" lon="14.5907383"><ele>169.14285714285714</ele><time>2026-04-04T07:11:38.828Z</time></trkpt><trkpt lat="42.1519733" lon="14.5908217"><ele>168.71428571428572</ele><time>2026-04-04T07:11:39.828Z</time></trkpt><trkpt lat="42.151995" lon="14.5909067"><ele>168.28571428571428</ele><time>2026-04-04T07:11:40.828Z</time></trkpt><trkpt lat="42.15202" lon="14.590995"><ele>167.85714285714286</ele><time>2026-04-04T07:11:41.828Z</time></trkpt><trkpt lat="42.15204" lon="14.591085"><ele>167.42857142857142</ele><time>2026-04-04T07:11:42.828Z</time></trkpt><trkpt lat="42.1520483" lon="14.591175"><ele>167.0</ele><time>2026-04-04T07:11:43.828Z</time></trkpt><trkpt lat="42.1520483" lon="14.591265"><ele>166.57142857142856</ele><time>2026-04-04T07:11:44.829Z</time></trkpt><trkpt lat="42.1520583" lon="14.5913533"><ele>166.14285714285714</ele><time>2026-04-04T07:11:45.828Z</time></trkpt><trkpt lat="42.1520767" lon="14.5914367"><ele>165.71428571428572</ele><time>2026-04-04T07:11:46.828Z</time></trkpt><trkpt lat="42.1521117" lon="14.591515"><ele>165.28571428571428</ele><time>2026-04-04T07:11:47.829Z</time></trkpt><trkpt lat="42.1521467" lon="14.5915933"><ele>164.85714285714286</ele><time>2026-04-04T07:11:48.829Z</time></trkpt><trkpt lat="42.1521783" lon="14.5916783"><ele>164.42857142857142</ele><time>2026-04-04T07:11:49.828Z</time></trkpt><trkpt lat="42.1522033" lon="14.5917667"><ele>164.0</ele><time>2026-04-04T07:11:50.828Z</time></trkpt><trkpt lat="42.152225" lon="14.5918517"><ele>163.99999999999997</ele><time>2026-04-04T07:11:51.828Z</time></trkpt><trkpt lat="42.152245" lon="14.5919417"><ele>164.0</ele><time>2026-04-04T07:11:52.829Z</time></trkpt><trkpt lat="42.1522717" lon="14.59204"><ele>164.0</ele><time>2026-04-04T07:11:53.828Z</time></trkpt><trkpt lat="42.15229" lon="14.5921367"><ele>164.0</ele><time>2026-04-04T07:11:54.828Z</time></trkpt><trkpt lat="42.1523083" lon="14.5922267"><ele>164.0</ele><time>2026-04-04T07:11:55.829Z</time></trkpt><trkpt lat="42.1523317" lon="14.5923233"><ele>163.99999999999997</ele><time>2026-04-04T07:11:56.829Z</time></trkpt><trkpt lat="42.1523533" lon="14.59242"><ele>164.0</ele><time>2026-04-04T07:11:57.828Z</time></trkpt><trkpt lat="42.152375" lon="14.5925167"><ele>164.16666666666666</ele><time>2026-04-04T07:11:58.828Z</time></trkpt><trkpt lat="42.1523967" lon="14.5926117"><ele>164.33333333333331</ele><time>2026-04-04T07:11:59.828Z</time></trkpt><trkpt lat="42.15241" lon="14.5927067"><ele>164.5</ele><time>2026-04-04T07:12:00.829Z</time></trkpt><trkpt lat="42.1524333" lon="14.5928033"><ele>164.66666666666666</ele><time>2026-04-04T07:12:01.828Z</time></trkpt><trkpt lat="42.15246" lon="14.5929033"><ele>164.83333333333334</ele><time>2026-04-04T07:12:02.828Z</time></trkpt><trkpt lat="42.152485" lon="14.593005"><ele>165.0</ele><time>2026-04-04T07:12:03.828Z</time></trkpt><trkpt lat="42.1525067" lon="14.5931017"><ele>164.5</ele><time>2026-04-04T07:12:04.828Z</time></trkpt><trkpt lat="42.1525267" lon="14.5932033"><ele>164.0</ele><time>2026-04-04T07:12:05.828Z</time></trkpt><trkpt lat="42.1525483" lon="14.593305"><ele>163.5</ele><time>2026-04-04T07:12:06.828Z</time></trkpt><trkpt lat="42.1525733" lon="14.5934083"><ele>163.0</ele><time>2026-04-04T07:12:07.828Z</time></trkpt><trkpt lat="42.1526033" lon="14.5935033"><ele>162.5</ele><time>2026-04-04T07:12:08.828Z</time></trkpt><trkpt lat="42.1526283" lon="14.5936017"><ele>162.0</ele><time>2026-04-04T07:12:09.828Z</time></trkpt><trkpt lat="42.1526567" lon="14.5937033"><ele>161.33333333333334</ele><time>2026-04-04T07:12:10.828Z</time></trkpt><trkpt lat="42.1526833" lon="14.5938083"><ele>160.66666666666666</ele><time>2026-04-04T07:12:11.828Z</time></trkpt><trkpt lat="42.152705" lon="14.59391"><ele>160.0</ele><time>2026-04-04T07:12:12.828Z</time></trkpt><trkpt lat="42.15273" lon="14.5940167"><ele>159.33333333333331</ele><time>2026-04-04T07:12:13.828Z</time></trkpt><trkpt lat="42.15275" lon="14.5941217"><ele>158.66666666666666</ele><time>2026-04-04T07:12:14.828Z</time></trkpt><trkpt lat="42.1527733" lon="14.5942283"><ele>158.0</ele><time>2026-04-04T07:12:15.828Z</time></trkpt><trkpt lat="42.152795" lon="14.5943333"><ele>158.0</ele><time>2026-04-04T07:12:16.828Z</time></trkpt><trkpt lat="42.1528183" lon="14.5944417"><ele>158.0</ele><time>2026-04-04T07:12:17.828Z</time></trkpt><trkpt lat="42.15284" lon="14.5945467"><ele>158.0</ele><time>2026-04-04T07:12:18.828Z</time></trkpt><trkpt lat="42.1528633" lon="14.5946517"><ele>158.0</ele><time>2026-04-04T07:12:19.828Z</time></trkpt><trkpt lat="42.152885" lon="14.5947583"><ele>158.0</ele><time>2026-04-04T07:12:20.829Z</time></trkpt><trkpt lat="42.15291" lon="14.5948617"><ele>158.0</ele><time>2026-04-04T07:12:21.828Z</time></trkpt><trkpt lat="42.1529333" lon="14.5949617"><ele>157.83333333333331</ele><time>2026-04-04T07:12:22.828Z</time></trkpt><trkpt lat="42.15295" lon="14.59506"><ele>157.66666666666666</ele><time>2026-04-04T07:12:23.828Z</time></trkpt><trkpt lat="42.1529667" lon="14.5951633"><ele>157.5</ele><time>2026-04-04T07:12:24.828Z</time></trkpt><trkpt lat="42.1529883" lon="14.5952683"><ele>157.33333333333334</ele><time>2026-04-04T07:12:25.829Z</time></trkpt><trkpt lat="42.153015" lon="14.595385"><ele>157.16666666666669</ele><time>2026-04-04T07:12:26.828Z</time></trkpt><trkpt lat="42.1530417" lon="14.5955"><ele>157.0</ele><time>2026-04-04T07:12:27.828Z</time></trkpt><trkpt lat="42.1530683" lon="14.5956083"><ele>156.66666666666669</ele><time>2026-04-04T07:12:28.828Z</time></trkpt><trkpt lat="42.1530917" lon="14.5957183"><ele>156.33333333333334</ele><time>2026-04-04T07:12:29.828Z</time></trkpt><trkpt lat="42.1531117" lon="14.5958233"><ele>156.0</ele><time>2026-04-04T07:12:30.828Z</time></trkpt><trkpt lat="42.1531333" lon="14.5959233"><ele>155.66666666666666</ele><time>2026-04-04T07:12:31.828Z</time></trkpt><trkpt lat="42.1531517" lon="14.5960233"><ele>155.33333333333331</ele><time>2026-04-04T07:12:32.828Z</time></trkpt><trkpt lat="42.153175" lon="14.5961167"><ele>155.0</ele><time>2026-04-04T07:12:33.829Z</time></trkpt><trkpt lat="42.1531967" lon="14.5962083"><ele>154.83333333333331</ele><time>2026-04-04T07:12:34.828Z</time></trkpt><trkpt lat="42.1532233" lon="14.5963"><ele>154.66666666666666</ele><time>2026-04-04T07:12:35.828Z</time></trkpt><trkpt lat="42.1532433" lon="14.5963867"><ele>154.5</ele><time>2026-04-04T07:12:36.828Z</time></trkpt><trkpt lat="42.1532617" lon="14.5964733"><ele>154.33333333333334</ele><time>2026-04-04T07:12:37.828Z</time></trkpt><trkpt lat="42.1532783" lon="14.5965567"><ele>154.16666666666669</ele><time>2026-04-04T07:12:38.829Z</time></trkpt><trkpt lat="42.153315" lon="14.5967117"><ele>154.0</ele><time>2026-04-04T07:12:40.828Z</time></trkpt><trkpt lat="42.1533467" lon="14.5968633"><ele>154.0</ele><time>2026-04-04T07:12:42.828Z</time></trkpt><trkpt lat="42.1533717" lon="14.5970083"><ele>154.0</ele><time>2026-04-04T07:12:44.829Z</time></trkpt><trkpt lat="42.153405" lon="14.5971517"><ele>154.0</ele><time>2026-04-04T07:12:46.828Z</time></trkpt><trkpt lat="42.1534383" lon="14.5972917"><ele>154.0</ele><time>2026-04-04T07:12:48.828Z</time></trkpt><trkpt lat="42.1534717" lon="14.59744"><ele>154.0</ele><time>2026-04-04T07:12:50.828Z</time></trkpt><trkpt lat="42.153505" lon="14.59758"><ele>154.0</ele><time>2026-04-04T07:12:52.829Z</time></trkpt><trkpt lat="42.1535383" lon="14.5977217"><ele>154.0</ele><time>2026-04-04T07:12:54.828Z</time></trkpt><trkpt lat="42.1535683" lon="14.59787"><ele>154.0</ele><time>2026-04-04T07:12:56.828Z</time></trkpt><trkpt lat="42.1536033" lon="14.5980117"><ele>154.0</ele><time>2026-04-04T07:12:58.828Z</time></trkpt><trkpt lat="42.153645" lon="14.598155"><ele>154.0</ele><time>2026-04-04T07:13:00.828Z</time></trkpt><trkpt lat="42.153675" lon="14.5983167"><ele>154.0</ele><time>2026-04-04T07:13:02.828Z</time></trkpt><trkpt lat="42.1536933" lon="14.5984"><ele>154.0</ele><time>2026-04-04T07:13:03.828Z</time></trkpt><trkpt lat="42.15373" lon="14.5985467"><ele>154.0</ele><time>2026-04-04T07:13:05.828Z</time></trkpt><trkpt lat="42.153765" lon="14.5987167"><ele>154.0</ele><time>2026-04-04T07:13:07.829Z</time></trkpt><trkpt lat="42.1537867" lon="14.5988017"><ele>154.0</ele><time>2026-04-04T07:13:08.829Z</time></trkpt><trkpt lat="42.1538083" lon="14.5988933"><ele>154.0</ele><time>2026-04-04T07:13:09.829Z</time></trkpt><trkpt lat="42.1538533" lon="14.5990517"><ele>153.71428571428572</ele><time>2026-04-04T07:13:11.828Z</time></trkpt><trkpt lat="42.1538717" lon="14.5991367"><ele>153.42857142857144</ele><time>2026-04-04T07:13:12.828Z</time></trkpt><trkpt lat="42.15389" lon="14.599225"><ele>153.14285714285714</ele><time>2026-04-04T07:13:13.828Z</time></trkpt><trkpt lat="42.1539117" lon="14.5993167"><ele>152.85714285714286</ele><time>2026-04-04T07:13:14.829Z</time></trkpt><trkpt lat="42.15393" lon="14.5994033"><ele>152.57142857142858</ele><time>2026-04-04T07:13:15.828Z</time></trkpt><trkpt lat="42.1539467" lon="14.599495"><ele>152.28571428571428</ele><time>2026-04-04T07:13:16.828Z</time></trkpt><trkpt lat="42.1539617" lon="14.5996"><ele>152.0</ele><time>2026-04-04T07:13:17.828Z</time></trkpt><trkpt lat="42.1539817" lon="14.5997033"><ele>151.7142857142857</ele><time>2026-04-04T07:13:18.828Z</time></trkpt><trkpt lat="42.1540067" lon="14.5998"><ele>151.42857142857144</ele><time>2026-04-04T07:13:19.829Z</time></trkpt><trkpt lat="42.1540283" lon="14.599895"><ele>151.14285714285714</ele><time>2026-04-04T07:13:20.828Z</time></trkpt><trkpt lat="42.15405" lon="14.5999883"><ele>150.85714285714283</ele><time>2026-04-04T07:13:21.828Z</time></trkpt><trkpt lat="42.1540717" lon="14.600085"><ele>150.57142857142856</ele><time>2026-04-04T07:13:22.828Z</time></trkpt><trkpt lat="42.15409" lon="14.6001817"><ele>150.28571428571428</ele><time>2026-04-04T07:13:23.829Z</time></trkpt><trkpt lat="42.1541083" lon="14.60028"><ele>150.0</ele><time>2026-04-04T07:13:24.828Z</time></trkpt><trkpt lat="42.1541267" lon="14.6003783"><ele>149.7142857142857</ele><time>2026-04-04T07:13:25.828Z</time></trkpt><trkpt lat="42.1541483" lon="14.6004733"><ele>149.42857142857142</ele><time>2026-04-04T07:13:26.828Z</time></trkpt><trkpt lat="42.15417" lon="14.60057"><ele>149.14285714285714</ele><time>2026-04-04T07:13:27.828Z</time></trkpt><trkpt lat="42.1541933" lon="14.6006683"><ele>148.85714285714283</ele><time>2026-04-04T07:13:28.828Z</time></trkpt><trkpt lat="42.154215" lon="14.600765"><ele>148.57142857142856</ele><time>2026-04-04T07:13:29.828Z</time></trkpt><trkpt lat="42.154235" lon="14.6008617"><ele>148.28571428571428</ele><time>2026-04-04T07:13:30.828Z</time></trkpt><trkpt lat="42.1542533" lon="14.6009517"><ele>148.0</ele><time>2026-04-04T07:13:31.828Z</time></trkpt><trkpt lat="42.1542717" lon="14.6010483"><ele>148.0</ele><time>2026-04-04T07:13:32.828Z</time></trkpt><trkpt lat="42.1542917" lon="14.601145"><ele>148.0</ele><time>2026-04-04T07:13:33.828Z</time></trkpt><trkpt lat="42.1543133" lon="14.6012367"><ele>148.0</ele><time>2026-04-04T07:13:34.828Z</time></trkpt><trkpt lat="42.154335" lon="14.6013283"><ele>148.0</ele><time>2026-04-04T07:13:35.828Z</time></trkpt><trkpt lat="42.154355" lon="14.6014167"><ele>148.0</ele><time>2026-04-04T07:13:36.828Z</time></trkpt><trkpt lat="42.154375" lon="14.6015"><ele>148.0</ele><time>2026-04-04T07:13:37.828Z</time></trkpt><trkpt lat="42.1543967" lon="14.6015867"><ele>148.0</ele><time>2026-04-04T07:13:38.829Z</time></trkpt><trkpt lat="42.1544133" lon="14.6016717"><ele>147.85714285714286</ele><time>2026-04-04T07:13:39.828Z</time></trkpt><trkpt lat="42.1544333" lon="14.6017583"><ele>147.71428571428572</ele><time>2026-04-04T07:13:40.829Z</time></trkpt><trkpt lat="42.154455" lon="14.6018433"><ele>147.57142857142856</ele><time>2026-04-04T07:13:41.828Z</time></trkpt><trkpt lat="42.15448" lon="14.601925"><ele>147.42857142857144</ele><time>2026-04-04T07:13:42.828Z</time></trkpt><trkpt lat="42.1545033" lon="14.602015"><ele>147.28571428571428</ele><time>2026-04-04T07:13:43.828Z</time></trkpt><trkpt lat="42.1545217" lon="14.602105"><ele>147.14285714285714</ele><time>2026-04-04T07:13:44.828Z</time></trkpt><trkpt lat="42.1545417" lon="14.6021983"><ele>147.0</ele><time>2026-04-04T07:13:45.828Z</time></trkpt><trkpt lat="42.15457" lon="14.602365"><ele>146.85714285714286</ele><time>2026-04-04T07:13:47.828Z</time></trkpt><trkpt lat="42.1545883" lon="14.6024567"><ele>146.71428571428572</ele><time>2026-04-04T07:13:48.828Z</time></trkpt><trkpt lat="42.15461" lon="14.602545"><ele>146.57142857142856</ele><time>2026-04-04T07:13:49.828Z</time></trkpt><trkpt lat="42.1546267" lon="14.6026317"><ele>146.42857142857144</ele><time>2026-04-04T07:13:50.828Z</time></trkpt><trkpt lat="42.1546467" lon="14.6027217"><ele>146.28571428571428</ele><time>2026-04-04T07:13:51.828Z</time></trkpt><trkpt lat="42.1546683" lon="14.6028133"><ele>146.14285714285714</ele><time>2026-04-04T07:13:52.828Z</time></trkpt><trkpt lat="42.1546867" lon="14.6028983"><ele>146.0</ele><time>2026-04-04T07:13:53.828Z</time></trkpt><trkpt lat="42.1547067" lon="14.602985"><ele>146.0</ele><time>2026-04-04T07:13:54.828Z</time></trkpt><trkpt lat="42.1547283" lon="14.6030767"><ele>146.0</ele><time>2026-04-04T07:13:55.829Z</time></trkpt><trkpt lat="42.1547483" lon="14.6031717"><ele>146.0</ele><time>2026-04-04T07:13:56.829Z</time></trkpt><trkpt lat="42.1547683" lon="14.6032667"><ele>146.0</ele><time>2026-04-04T07:13:57.829Z</time></trkpt><trkpt lat="42.15479" lon="14.6033583"><ele>146.0</ele><time>2026-04-04T07:13:58.828Z</time></trkpt><trkpt lat="42.1548083" lon="14.603455"><ele>146.0</ele><time>2026-04-04T07:13:59.828Z</time></trkpt><trkpt lat="42.1548283" lon="14.6035517"><ele>146.0</ele><time>2026-04-04T07:14:00.828Z</time></trkpt><trkpt lat="42.1548483" lon="14.6036433"><ele>145.42857142857142</ele><time>2026-04-04T07:14:01.828Z</time></trkpt><trkpt lat="42.1548683" lon="14.6037383"><ele>144.85714285714286</ele><time>2026-04-04T07:14:02.828Z</time></trkpt><trkpt lat="42.1548883" lon="14.6038333"><ele>144.28571428571428</ele><time>2026-04-04T07:14:03.828Z</time></trkpt><trkpt lat="42.1549083" lon="14.6039283"><ele>143.71428571428572</ele><time>2026-04-04T07:14:04.828Z</time></trkpt><trkpt lat="42.1549317" lon="14.6040183"><ele>143.14285714285714</ele><time>2026-04-04T07:14:05.828Z</time></trkpt><trkpt lat="42.1549517" lon="14.60411"><ele>142.57142857142856</ele><time>2026-04-04T07:14:06.828Z</time></trkpt><trkpt lat="42.1549717" lon="14.604205"><ele>142.0</ele><time>2026-04-04T07:14:07.828Z</time></trkpt><trkpt lat="42.1549933" lon="14.6042967"><ele>142.0</ele><time>2026-04-04T07:14:08.829Z</time></trkpt><trkpt lat="42.1550133" lon="14.6043833"><ele>142.0</ele><time>2026-04-04T07:14:09.828Z</time></trkpt><trkpt lat="42.1550333" lon="14.60447"><ele>142.0</ele><time>2026-04-04T07:14:10.829Z</time></trkpt><trkpt lat="42.155055" lon="14.60456"><ele>142.0</ele><time>2026-04-04T07:14:11.828Z</time></trkpt><trkpt lat="42.1550733" lon="14.604655"><ele>142.0</ele><time>2026-04-04T07:14:12.829Z</time></trkpt><trkpt lat="42.1550933" lon="14.6047467"><ele>142.0</ele><time>2026-04-04T07:14:13.828Z</time></trkpt><trkpt lat="42.1551133" lon="14.604835"><ele>142.0</ele><time>2026-04-04T07:14:14.828Z</time></trkpt><trkpt lat="42.155135" lon="14.604925"><ele>141.85714285714286</ele><time>2026-04-04T07:14:15.828Z</time></trkpt><trkpt lat="42.155155" lon="14.6050167"><ele>141.7142857142857</ele><time>2026-04-04T07:14:16.828Z</time></trkpt><trkpt lat="42.15518" lon="14.6051133"><ele>141.57142857142856</ele><time>2026-04-04T07:14:17.828Z</time></trkpt><trkpt lat="42.1552" lon="14.6052033"><ele>141.42857142857142</ele><time>2026-04-04T07:14:18.829Z</time></trkpt><trkpt lat="42.1552167" lon="14.605295"><ele>141.28571428571428</ele><time>2026-04-04T07:14:19.828Z</time></trkpt><trkpt lat="42.1552283" lon="14.60539"><ele>141.14285714285714</ele><time>2026-04-04T07:14:20.828Z</time></trkpt><trkpt lat="42.1552517" lon="14.605485"><ele>141.0</ele><time>2026-04-04T07:14:21.828Z</time></trkpt><trkpt lat="42.15527" lon="14.605575"><ele>140.85714285714286</ele><time>2026-04-04T07:14:22.828Z</time></trkpt><trkpt lat="42.155295" lon="14.6056733"><ele>140.71428571428572</ele><time>2026-04-04T07:14:23.828Z</time></trkpt><trkpt lat="42.15532" lon="14.6057667"><ele>140.57142857142856</ele><time>2026-04-04T07:14:24.828Z</time></trkpt><trkpt lat="42.15534" lon="14.60586"><ele>140.42857142857144</ele><time>2026-04-04T07:14:25.828Z</time></trkpt><trkpt lat="42.1553633" lon="14.6059467"><ele>140.28571428571428</ele><time>2026-04-04T07:14:26.828Z</time></trkpt><trkpt lat="42.15539" lon="14.6060383"><ele>140.14285714285714</ele><time>2026-04-04T07:14:27.828Z</time></trkpt><trkpt lat="42.1554083" lon="14.6061267"><ele>140.0</ele><time>2026-04-04T07:14:28.828Z</time></trkpt><trkpt lat="42.1554267" lon="14.6062167"><ele>139.85714285714286</ele><time>2026-04-04T07:14:29.828Z</time></trkpt><trkpt lat="42.1554467" lon="14.60631"><ele>139.71428571428572</ele><time>2026-04-04T07:14:30.829Z</time></trkpt><trkpt lat="42.1554667" lon="14.6064033"><ele>139.57142857142856</ele><time>2026-04-04T07:14:31.828Z</time></trkpt><trkpt lat="42.1554867" lon="14.6064917"><ele>139.42857142857144</ele><time>2026-04-04T07:14:32.828Z</time></trkpt><trkpt lat="42.1555067" lon="14.60658"><ele>139.28571428571428</ele><time>2026-04-04T07:14:33.829Z</time></trkpt><trkpt lat="42.1555267" lon="14.6066617"><ele>139.14285714285714</ele><time>2026-04-04T07:14:34.828Z</time></trkpt><trkpt lat="42.1555483" lon="14.6067417"><ele>139.0</ele><time>2026-04-04T07:14:35.828Z</time></trkpt><trkpt lat="42.15557" lon="14.6068233"><ele>139.0</ele><time>2026-04-04T07:14:36.829Z</time></trkpt><trkpt lat="42.155595" lon="14.6069017"><ele>139.0</ele><time>2026-04-04T07:14:37.828Z</time></trkpt><trkpt lat="42.15562" lon="14.6069917"><ele>139.0</ele><time>2026-04-04T07:14:38.828Z</time></trkpt><trkpt lat="42.1556333" lon="14.607085"><ele>139.0</ele><time>2026-04-04T07:14:39.828Z</time></trkpt><trkpt lat="42.1556467" lon="14.6071783"><ele>139.0</ele><time>2026-04-04T07:14:40.829Z</time></trkpt><trkpt lat="42.1556633" lon="14.6072633"><ele>139.0</ele><time>2026-04-04T07:14:41.828Z</time></trkpt><trkpt lat="42.155685" lon="14.6073517"><ele>139.0</ele><time>2026-04-04T07:14:42.828Z</time></trkpt><trkpt lat="42.1557033" lon="14.6074417"><ele>138.71428571428572</ele><time>2026-04-04T07:14:43.828Z</time></trkpt><trkpt lat="42.1557233" lon="14.6075317"><ele>138.42857142857144</ele><time>2026-04-04T07:14:44.828Z</time></trkpt><trkpt lat="42.1557433" lon="14.6076167"><ele>138.14285714285717</ele><time>2026-04-04T07:14:45.828Z</time></trkpt><trkpt lat="42.1557633" lon="14.6077117"><ele>137.85714285714286</ele><time>2026-04-04T07:14:46.829Z</time></trkpt><trkpt lat="42.1557833" lon="14.6078067"><ele>137.57142857142858</ele><time>2026-04-04T07:14:47.829Z</time></trkpt><trkpt lat="42.1558067" lon="14.6078983"><ele>137.2857142857143</ele><time>2026-04-04T07:14:48.828Z</time></trkpt><trkpt lat="42.1558283" lon="14.607985"><ele>137.0</ele><time>2026-04-04T07:14:49.828Z</time></trkpt><trkpt lat="42.1558483" lon="14.608075"><ele>137.0</ele><time>2026-04-04T07:14:50.829Z</time></trkpt><trkpt lat="42.155865" lon="14.6081617"><ele>137.0</ele><time>2026-04-04T07:14:51.828Z</time></trkpt><trkpt lat="42.1558933" lon="14.608325"><ele>137.0</ele><time>2026-04-04T07:14:53.828Z</time></trkpt><trkpt lat="42.1559317" lon="14.6084833"><ele>137.0</ele><time>2026-04-04T07:14:55.828Z</time></trkpt><trkpt lat="42.1559567" lon="14.6086233"><ele>137.0</ele><time>2026-04-04T07:14:57.828Z</time></trkpt><trkpt lat="42.1559767" lon="14.60876"><ele>137.0</ele><time>2026-04-04T07:14:59.828Z</time></trkpt><trkpt lat="42.1560067" lon="14.608885"><ele>137.0</ele><time>2026-04-04T07:15:01.828Z</time></trkpt><trkpt lat="42.15604" lon="14.609025"><ele>137.0</ele><time>2026-04-04T07:15:03.828Z</time></trkpt><trkpt lat="42.156075" lon="14.6091717"><ele>137.0</ele><time>2026-04-04T07:15:05.828Z</time></trkpt><trkpt lat="42.1561133" lon="14.609315"><ele>137.0</ele><time>2026-04-04T07:15:07.828Z</time></trkpt><trkpt lat="42.1561517" lon="14.609455"><ele>136.66666666666666</ele><time>2026-04-04T07:15:09.829Z</time></trkpt><trkpt lat="42.1561817" lon="14.6096"><ele>136.33333333333331</ele><time>2026-04-04T07:15:11.828Z</time></trkpt><trkpt lat="42.156215" lon="14.6097217"><ele>136.0</ele><time>2026-04-04T07:15:13.828Z</time></trkpt><trkpt lat="42.15624" lon="14.6098217"><ele>135.66666666666666</ele><time>2026-04-04T07:15:15.828Z</time></trkpt><trkpt lat="42.1562667" lon="14.609935"><ele>135.33333333333334</ele><time>2026-04-04T07:15:18.828Z</time></trkpt><trkpt lat="42.1562833" lon="14.6100183"><ele>135.0</ele><time>2026-04-04T07:15:20.828Z</time></trkpt><trkpt lat="42.15631" lon="14.6101117"><ele>135.0</ele><time>2026-04-04T07:15:23.828Z</time></trkpt><trkpt lat="42.1563383" lon="14.610205"><ele>135.0</ele><time>2026-04-04T07:15:26.828Z</time></trkpt><trkpt lat="42.1563583" lon="14.6103367"><ele>135.0</ele><time>2026-04-04T07:15:29.828Z</time></trkpt><trkpt lat="42.1563733" lon="14.6104533"><ele>135.0</ele><time>2026-04-04T07:15:31.828Z</time></trkpt><trkpt lat="42.1563933" lon="14.6105783"><ele>135.0</ele><time>2026-04-04T07:15:33.828Z</time></trkpt><trkpt lat="42.15642" lon="14.6106967"><ele>135.0</ele><time>2026-04-04T07:15:35.828Z</time></trkpt><trkpt lat="42.1564483" lon="14.610825"><ele>135.0</ele><time>2026-04-04T07:15:37.829Z</time></trkpt><trkpt lat="42.1564683" lon="14.6109617"><ele>135.0</ele><time>2026-04-04T07:15:39.828Z</time></trkpt><trkpt lat="42.1564983" lon="14.6110967"><ele>135.0</ele><time>2026-04-04T07:15:41.828Z</time></trkpt><trkpt lat="42.1565267" lon="14.6112283"><ele>135.0</ele><time>2026-04-04T07:15:43.828Z</time></trkpt><trkpt lat="42.1565583" lon="14.6113583"><ele>135.0</ele><time>2026-04-04T07:15:45.829Z</time></trkpt><trkpt lat="42.1565883" lon="14.6114983"><ele>135.0</ele><time>2026-04-04T07:15:47.829Z</time></trkpt><trkpt lat="42.1566233" lon="14.6116417"><ele>135.0</ele><time>2026-04-04T07:15:49.829Z</time></trkpt><trkpt lat="42.1566667" lon="14.6117833"><ele>135.0</ele><time>2026-04-04T07:15:51.829Z</time></trkpt><trkpt lat="42.1566917" lon="14.6119133"><ele>135.0</ele><time>2026-04-04T07:15:53.829Z</time></trkpt><trkpt lat="42.1567183" lon="14.61205"><ele>135.0</ele><time>2026-04-04T07:15:55.829Z</time></trkpt><trkpt lat="42.1567483" lon="14.6121633"><ele>134.8</ele><time>2026-04-04T07:15:57.829Z</time></trkpt><trkpt lat="42.156775" lon="14.6122883"><ele>134.6</ele><time>2026-04-04T07:15:59.829Z</time></trkpt><trkpt lat="42.1568" lon="14.612425"><ele>134.4</ele><time>2026-04-04T07:16:01.829Z</time></trkpt><trkpt lat="42.15683" lon="14.612565"><ele>134.2</ele><time>2026-04-04T07:16:03.829Z</time></trkpt><trkpt lat="42.15686" lon="14.6127167"><ele>134.0</ele><time>2026-04-04T07:16:05.829Z</time></trkpt><trkpt lat="42.1568983" lon="14.612855"><ele>134.0</ele><time>2026-04-04T07:16:07.829Z</time></trkpt><trkpt lat="42.1569333" lon="14.6129933"><ele>134.0</ele><time>2026-04-04T07:16:09.829Z</time></trkpt><trkpt lat="42.1569783" lon="14.61313"><ele>134.0</ele><time>2026-04-04T07:16:11.829Z</time></trkpt><trkpt lat="42.15703" lon="14.6132567"><ele>134.0</ele><time>2026-04-04T07:16:13.829Z</time></trkpt><trkpt lat="42.157085" lon="14.6133733"><ele>134.0</ele><time>2026-04-04T07:16:15.829Z</time></trkpt><trkpt lat="42.157145" lon="14.613485"><ele>134.0</ele><time>2026-04-04T07:16:17.829Z</time></trkpt><trkpt lat="42.1572033" lon="14.613595"><ele>134.0</ele><time>2026-04-04T07:16:19.829Z</time></trkpt><trkpt lat="42.1572633" lon="14.6137017"><ele>134.0</ele><time>2026-04-04T07:16:21.829Z</time></trkpt><trkpt lat="42.1573217" lon="14.6138233"><ele>134.0</ele><time>2026-04-04T07:16:23.829Z</time></trkpt><trkpt lat="42.1573783" lon="14.6139467"><ele>134.0</ele><time>2026-04-04T07:16:25.83Z</time></trkpt><trkpt lat="42.157435" lon="14.6140667"><ele>134.0</ele><time>2026-04-04T07:16:27.829Z</time></trkpt><trkpt lat="42.15749" lon="14.6141867"><ele>134.0</ele><time>2026-04-04T07:16:29.829Z</time></trkpt><trkpt lat="42.157555" lon="14.614305"><ele>134.0</ele><time>2026-04-04T07:16:31.829Z</time></trkpt><trkpt lat="42.157615" lon="14.6144233"><ele>134.0</ele><time>2026-04-04T07:16:33.83Z</time></trkpt><trkpt lat="42.1576733" lon="14.6145433"><ele>134.0</ele><time>2026-04-04T07:16:35.829Z</time></trkpt><trkpt lat="42.15773" lon="14.61466"><ele>134.0</ele><time>2026-04-04T07:16:37.829Z</time></trkpt><trkpt lat="42.1577867" lon="14.6147767"><ele>134.0</ele><time>2026-04-04T07:16:39.83Z</time></trkpt><trkpt lat="42.1578533" lon="14.6148833"><ele>134.0</ele><time>2026-04-04T07:16:41.829Z</time></trkpt><trkpt lat="42.1579283" lon="14.615"><ele>134.0</ele><time>2026-04-04T07:16:43.829Z</time></trkpt><trkpt lat="42.1579983" lon="14.6151233"><ele>134.0</ele><time>2026-04-04T07:16:45.829Z</time></trkpt><trkpt lat="42.1580383" lon="14.6152683"><ele>133.5</ele><time>2026-04-04T07:16:47.829Z</time></trkpt><trkpt lat="42.1581083" lon="14.6153883"><ele>133.0</ele><time>2026-04-04T07:16:49.829Z</time></trkpt><trkpt lat="42.1581767" lon="14.6155233"><ele>132.5</ele><time>2026-04-04T07:16:51.829Z</time></trkpt><trkpt lat="42.1582267" lon="14.61565"><ele>132.0</ele><time>2026-04-04T07:16:53.829Z</time></trkpt><trkpt lat="42.1582867" lon="14.61578"><ele>132.0</ele><time>2026-04-04T07:16:55.829Z</time></trkpt><trkpt lat="42.1583517" lon="14.6159133"><ele>132.0</ele><time>2026-04-04T07:16:57.829Z</time></trkpt><trkpt lat="42.1584167" lon="14.6160467"><ele>132.0</ele><time>2026-04-04T07:16:59.829Z</time></trkpt><trkpt lat="42.15848" lon="14.6161767"><ele>132.0</ele><time>2026-04-04T07:17:01.829Z</time></trkpt><trkpt lat="42.1585467" lon="14.6163117"><ele>131.85714285714286</ele><time>2026-04-04T07:17:03.829Z</time></trkpt><trkpt lat="42.15858" lon="14.6163883"><ele>131.71428571428572</ele><time>2026-04-04T07:17:04.829Z</time></trkpt><trkpt lat="42.1586133" lon="14.6164617"><ele>131.57142857142858</ele><time>2026-04-04T07:17:05.829Z</time></trkpt><trkpt lat="42.1586483" lon="14.6165367"><ele>131.42857142857144</ele><time>2026-04-04T07:17:06.829Z</time></trkpt><trkpt lat="42.158685" lon="14.6166083"><ele>131.2857142857143</ele><time>2026-04-04T07:17:07.829Z</time></trkpt><trkpt lat="42.158755" lon="14.6167467"><ele>131.14285714285714</ele><time>2026-04-04T07:17:09.829Z</time></trkpt><trkpt lat="42.1587933" lon="14.6168183"><ele>131.0</ele><time>2026-04-04T07:17:10.829Z</time></trkpt><trkpt lat="42.15883" lon="14.61689"><ele>131.0</ele><time>2026-04-04T07:17:11.829Z</time></trkpt><trkpt lat="42.15887" lon="14.6169633"><ele>131.0</ele><time>2026-04-04T07:17:12.829Z</time></trkpt><trkpt lat="42.1589117" lon="14.6170383"><ele>131.0</ele><time>2026-04-04T07:17:13.829Z</time></trkpt><trkpt lat="42.1589483" lon="14.6171167"><ele>131.0</ele><time>2026-04-04T07:17:14.83Z</time></trkpt><trkpt lat="42.15899" lon="14.6171967"><ele>131.0</ele><time>2026-04-04T07:17:15.829Z</time></trkpt><trkpt lat="42.1590283" lon="14.6172783"><ele>131.0</ele><time>2026-04-04T07:17:16.829Z</time></trkpt><trkpt lat="42.15907" lon="14.6173617"><ele>131.0</ele><time>2026-04-04T07:17:17.829Z</time></trkpt><trkpt lat="42.1591133" lon="14.61744"><ele>130.42857142857144</ele><time>2026-04-04T07:17:18.83Z</time></trkpt><trkpt lat="42.1591533" lon="14.617525"><ele>129.85714285714286</ele><time>2026-04-04T07:17:19.829Z</time></trkpt><trkpt lat="42.1591933" lon="14.617605"><ele>129.28571428571428</ele><time>2026-04-04T07:17:20.829Z</time></trkpt><trkpt lat="42.1592317" lon="14.617685"><ele>128.71428571428572</ele><time>2026-04-04T07:17:21.829Z</time></trkpt><trkpt lat="42.1592717" lon="14.6177617"><ele>128.14285714285714</ele><time>2026-04-04T07:17:22.829Z</time></trkpt><trkpt lat="42.1593117" lon="14.6178433"><ele>127.57142857142858</ele><time>2026-04-04T07:17:23.829Z</time></trkpt><trkpt lat="42.1593483" lon="14.617925"><ele>127.0</ele><time>2026-04-04T07:17:24.829Z</time></trkpt><trkpt lat="42.15939" lon="14.6180083"><ele>126.66666666666667</ele><time>2026-04-04T07:17:25.83Z</time></trkpt><trkpt lat="42.15943" lon="14.61809"><ele>126.33333333333334</ele><time>2026-04-04T07:17:26.829Z</time></trkpt><trkpt lat="42.1594717" lon="14.6181717"><ele>126.0</ele><time>2026-04-04T07:17:27.829Z</time></trkpt><trkpt lat="42.15951" lon="14.6182517"><ele>125.66666666666666</ele><time>2026-04-04T07:17:28.829Z</time></trkpt><trkpt lat="42.15955" lon="14.6183383"><ele>125.33333333333333</ele><time>2026-04-04T07:17:29.829Z</time></trkpt><trkpt lat="42.159595" lon="14.618425"><ele>125.0</ele><time>2026-04-04T07:17:30.83Z</time></trkpt><trkpt lat="42.1596433" lon="14.61851"><ele>124.99999999999999</ele><time>2026-04-04T07:17:31.829Z</time></trkpt><trkpt lat="42.1596883" lon="14.618595"><ele>125.0</ele><time>2026-04-04T07:17:32.829Z</time></trkpt><trkpt lat="42.1597367" lon="14.6186817"><ele>125.0</ele><time>2026-04-04T07:17:33.829Z</time></trkpt><trkpt lat="42.15979" lon="14.6187633"><ele>125.0</ele><time>2026-04-04T07:17:34.829Z</time></trkpt><trkpt lat="42.15983" lon="14.618855"><ele>124.99999999999999</ele><time>2026-04-04T07:17:35.83Z</time></trkpt><trkpt lat="42.1598717" lon="14.618955"><ele>125.0</ele><time>2026-04-04T07:17:36.83Z</time></trkpt><trkpt lat="42.1599167" lon="14.6190483"><ele>124.49999999999999</ele><time>2026-04-04T07:17:37.829Z</time></trkpt><trkpt lat="42.1599583" lon="14.6191417"><ele>124.0</ele><time>2026-04-04T07:17:38.829Z</time></trkpt><trkpt lat="42.16" lon="14.6192333"><ele>123.5</ele><time>2026-04-04T07:17:39.829Z</time></trkpt><trkpt lat="42.1600417" lon="14.61932"><ele>123.0</ele><time>2026-04-04T07:17:40.829Z</time></trkpt><trkpt lat="42.16008" lon="14.6194083"><ele>122.49999999999999</ele><time>2026-04-04T07:17:41.829Z</time></trkpt><trkpt lat="42.1601283" lon="14.6195067"><ele>122.0</ele><time>2026-04-04T07:17:42.829Z</time></trkpt><trkpt lat="42.1601767" lon="14.6196"><ele>121.66666666666666</ele><time>2026-04-04T07:17:43.83Z</time></trkpt><trkpt lat="42.1602283" lon="14.619695"><ele>121.33333333333333</ele><time>2026-04-04T07:17:44.829Z</time></trkpt><trkpt lat="42.1602783" lon="14.6197917"><ele>121.0</ele><time>2026-04-04T07:17:45.829Z</time></trkpt><trkpt lat="42.1603217" lon="14.6198833"><ele>120.66666666666666</ele><time>2026-04-04T07:17:46.829Z</time></trkpt><trkpt lat="42.1603667" lon="14.6199733"><ele>120.33333333333333</ele><time>2026-04-04T07:17:47.829Z</time></trkpt><trkpt lat="42.1604133" lon="14.6200633"><ele>120.0</ele><time>2026-04-04T07:17:48.83Z</time></trkpt><trkpt lat="42.1604567" lon="14.6201533"><ele>120.0</ele><time>2026-04-04T07:17:49.829Z</time></trkpt><trkpt lat="42.1604983" lon="14.6202417"><ele>120.0</ele><time>2026-04-04T07:17:50.829Z</time></trkpt><trkpt lat="42.1605417" lon="14.6203333"><ele>120.0</ele><time>2026-04-04T07:17:51.829Z</time></trkpt><trkpt lat="42.16059" lon="14.6204283"><ele>120.0</ele><time>2026-04-04T07:17:52.829Z</time></trkpt><trkpt lat="42.160635" lon="14.6205183"><ele>120.0</ele><time>2026-04-04T07:17:53.829Z</time></trkpt><trkpt lat="42.16068" lon="14.6206033"><ele>120.0</ele><time>2026-04-04T07:17:54.829Z</time></trkpt><trkpt lat="42.16072" lon="14.62069"><ele>119.66666666666667</ele><time>2026-04-04T07:17:55.829Z</time></trkpt><trkpt lat="42.1607633" lon="14.6207783"><ele>119.33333333333334</ele><time>2026-04-04T07:17:56.829Z</time></trkpt><trkpt lat="42.16081" lon="14.6208733"><ele>119.0</ele><time>2026-04-04T07:17:57.829Z</time></trkpt><trkpt lat="42.1608533" lon="14.6209583"><ele>118.66666666666667</ele><time>2026-04-04T07:17:58.829Z</time></trkpt><trkpt lat="42.160895" lon="14.6210417"><ele>118.33333333333334</ele><time>2026-04-04T07:17:59.829Z</time></trkpt><trkpt lat="42.1609317" lon="14.621125"><ele>118.0</ele><time>2026-04-04T07:18:00.83Z</time></trkpt><trkpt lat="42.1609783" lon="14.6212167"><ele>117.33333333333334</ele><time>2026-04-04T07:18:01.829Z</time></trkpt><trkpt lat="42.161025" lon="14.6213"><ele>116.66666666666667</ele><time>2026-04-04T07:18:02.829Z</time></trkpt><trkpt lat="42.1610667" lon="14.6213817"><ele>116.0</ele><time>2026-04-04T07:18:03.83Z</time></trkpt><trkpt lat="42.1611083" lon="14.6214683"><ele>115.33333333333334</ele><time>2026-04-04T07:18:04.829Z</time></trkpt><trkpt lat="42.1611567" lon="14.6215517"><ele>114.66666666666667</ele><time>2026-04-04T07:18:05.83Z</time></trkpt><trkpt lat="42.1612" lon="14.6216333"><ele>114.0</ele><time>2026-04-04T07:18:06.829Z</time></trkpt><trkpt lat="42.1612517" lon="14.6217217"><ele>114.0</ele><time>2026-04-04T07:18:07.829Z</time></trkpt><trkpt lat="42.16129" lon="14.6218067"><ele>114.0</ele><time>2026-04-04T07:18:08.829Z</time></trkpt><trkpt lat="42.16133" lon="14.62189"><ele>114.0</ele><time>2026-04-04T07:18:09.829Z</time></trkpt><trkpt lat="42.1613717" lon="14.62198"><ele>114.0</ele><time>2026-04-04T07:18:10.829Z</time></trkpt><trkpt lat="42.1614133" lon="14.6220633"><ele>114.0</ele><time>2026-04-04T07:18:11.829Z</time></trkpt><trkpt lat="42.16146" lon="14.6221517"><ele>114.0</ele><time>2026-04-04T07:18:12.83Z</time></trkpt><trkpt lat="42.161505" lon="14.62224"><ele>113.66666666666667</ele><time>2026-04-04T07:18:13.829Z</time></trkpt><trkpt lat="42.16155" lon="14.6223267"><ele>113.33333333333334</ele><time>2026-04-04T07:18:14.829Z</time></trkpt><trkpt lat="42.1615917" lon="14.6224133"><ele>113.0</ele><time>2026-04-04T07:18:15.83Z</time></trkpt><trkpt lat="42.1616367" lon="14.6225067"><ele>112.66666666666667</ele><time>2026-04-04T07:18:16.829Z</time></trkpt><trkpt lat="42.1616783" lon="14.6225983"><ele>112.33333333333334</ele><time>2026-04-04T07:18:17.83Z</time></trkpt><trkpt lat="42.1617233" lon="14.6226817"><ele>112.0</ele><time>2026-04-04T07:18:18.829Z</time></trkpt><trkpt lat="42.1617667" lon="14.6227733"><ele>111.66666666666667</ele><time>2026-04-04T07:18:19.829Z</time></trkpt><trkpt lat="42.1618083" lon="14.622855"><ele>111.33333333333334</ele><time>2026-04-04T07:18:20.829Z</time></trkpt><trkpt lat="42.16185" lon="14.6229417"><ele>111.0</ele><time>2026-04-04T07:18:21.829Z</time></trkpt><trkpt lat="42.16189" lon="14.62303"><ele>110.66666666666666</ele><time>2026-04-04T07:18:22.829Z</time></trkpt><trkpt lat="42.16193" lon="14.623125"><ele>110.33333333333333</ele><time>2026-04-04T07:18:23.829Z</time></trkpt><trkpt lat="42.1619717" lon="14.62322"><ele>110.0</ele><time>2026-04-04T07:18:24.83Z</time></trkpt><trkpt lat="42.162015" lon="14.623305"><ele>109.99999999999999</ele><time>2026-04-04T07:18:25.829Z</time></trkpt><trkpt lat="42.1620517" lon="14.6233967"><ele>110.0</ele><time>2026-04-04T07:18:26.829Z</time></trkpt><trkpt lat="42.1620833" lon="14.6235033"><ele>110.0</ele><time>2026-04-04T07:18:27.829Z</time></trkpt><trkpt lat="42.1621133" lon="14.62361"><ele>110.0</ele><time>2026-04-04T07:18:28.829Z</time></trkpt><trkpt lat="42.1621233" lon="14.6237233"><ele>109.99999999999999</ele><time>2026-04-04T07:18:29.829Z</time></trkpt><trkpt lat="42.16211" lon="14.623845"><ele>110.0</ele><time>2026-04-04T07:18:30.829Z</time></trkpt><trkpt lat="42.1620833" lon="14.623965"><ele>109.2</ele><time>2026-04-04T07:18:31.829Z</time></trkpt><trkpt lat="42.16205" lon="14.62408"><ele>108.4</ele><time>2026-04-04T07:18:32.829Z</time></trkpt><trkpt lat="42.1620167" lon="14.6241933"><ele>107.6</ele><time>2026-04-04T07:18:33.829Z</time></trkpt><trkpt lat="42.1619867" lon="14.624315"><ele>106.8</ele><time>2026-04-04T07:18:34.829Z</time></trkpt><trkpt lat="42.1619567" lon="14.6244367"><ele>106.0</ele><time>2026-04-04T07:18:35.83Z</time></trkpt><trkpt lat="42.16193" lon="14.6245583"><ele>105.0</ele><time>2026-04-04T07:18:36.829Z</time></trkpt><trkpt lat="42.1619" lon="14.6246767"><ele>104.0</ele><time>2026-04-04T07:18:37.829Z</time></trkpt><trkpt lat="42.1618617" lon="14.624795"><ele>103.0</ele><time>2026-04-04T07:18:38.829Z</time></trkpt><trkpt lat="42.161815" lon="14.6249133"><ele>102.0</ele><time>2026-04-04T07:18:39.829Z</time></trkpt><trkpt lat="42.16176" lon="14.6250317"><ele>101.0</ele><time>2026-04-04T07:18:40.829Z</time></trkpt><trkpt lat="42.1616967" lon="14.6251417"><ele>101.0</ele><time>2026-04-04T07:18:41.83Z</time></trkpt><trkpt lat="42.1616267" lon="14.6252467"><ele>101.0</ele><time>2026-04-04T07:18:42.829Z</time></trkpt><trkpt lat="42.1615483" lon="14.62534"><ele>101.0</ele><time>2026-04-04T07:18:43.829Z</time></trkpt><trkpt lat="42.161465" lon="14.6254267"><ele>101.0</ele><time>2026-04-04T07:18:44.829Z</time></trkpt><trkpt lat="42.1613817" lon="14.6255083"><ele>101.0</ele><time>2026-04-04T07:18:45.829Z</time></trkpt><trkpt lat="42.1613" lon="14.6255917"><ele>99.8</ele><time>2026-04-04T07:18:46.829Z</time></trkpt><trkpt lat="42.16122" lon="14.62567"><ele>98.6</ele><time>2026-04-04T07:18:47.83Z</time></trkpt><trkpt lat="42.1611317" lon="14.6257467"><ele>97.4</ele><time>2026-04-04T07:18:48.829Z</time></trkpt><trkpt lat="42.1610533" lon="14.6258217"><ele>96.2</ele><time>2026-04-04T07:18:49.829Z</time></trkpt><trkpt lat="42.1609883" lon="14.62588"><ele>95.0</ele><time>2026-04-04T07:18:50.829Z</time></trkpt><trkpt lat="42.1609233" lon="14.62594"><ele>95.0</ele><time>2026-04-04T07:18:51.829Z</time></trkpt><trkpt lat="42.1608367" lon="14.6260333"><ele>95.0</ele><time>2026-04-04T07:18:53.829Z</time></trkpt><trkpt lat="42.1607617" lon="14.62617"><ele>95.0</ele><time>2026-04-04T07:18:55.829Z</time></trkpt><trkpt lat="42.1607317" lon="14.6262483"><ele>95.0</ele><time>2026-04-04T07:18:56.829Z</time></trkpt><trkpt lat="42.1607" lon="14.6263267"><ele>95.0</ele><time>2026-04-04T07:18:57.83Z</time></trkpt><trkpt lat="42.1606667" lon="14.62641"><ele>95.0</ele><time>2026-04-04T07:18:58.829Z</time></trkpt><trkpt lat="42.1606417" lon="14.6265083"><ele>93.83333333333334</ele><time>2026-04-04T07:18:59.829Z</time></trkpt><trkpt lat="42.16062" lon="14.62662"><ele>92.66666666666667</ele><time>2026-04-04T07:19:00.829Z</time></trkpt><trkpt lat="42.1605967" lon="14.6267383"><ele>91.5</ele><time>2026-04-04T07:19:01.829Z</time></trkpt><trkpt lat="42.1605783" lon="14.6268567"><ele>90.33333333333333</ele><time>2026-04-04T07:19:02.829Z</time></trkpt><trkpt lat="42.1605633" lon="14.626965"><ele>89.16666666666666</ele><time>2026-04-04T07:19:03.83Z</time></trkpt><trkpt lat="42.1605467" lon="14.627075"><ele>88.0</ele><time>2026-04-04T07:19:04.829Z</time></trkpt><trkpt lat="42.1605317" lon="14.6271833"><ele>87.83333333333333</ele><time>2026-04-04T07:19:05.83Z</time></trkpt><trkpt lat="42.1605167" lon="14.6272917"><ele>87.66666666666666</ele><time>2026-04-04T07:19:06.829Z</time></trkpt><trkpt lat="42.1605017" lon="14.627405"><ele>87.5</ele><time>2026-04-04T07:19:07.829Z</time></trkpt><trkpt lat="42.1604867" lon="14.6275183"><ele>87.33333333333333</ele><time>2026-04-04T07:19:08.83Z</time></trkpt><trkpt lat="42.16047" lon="14.627625"><ele>87.16666666666667</ele><time>2026-04-04T07:19:09.83Z</time></trkpt><trkpt lat="42.1604583" lon="14.627735"><ele>87.0</ele><time>2026-04-04T07:19:10.829Z</time></trkpt><trkpt lat="42.1604433" lon="14.6278467"><ele>86.5</ele><time>2026-04-04T07:19:11.829Z</time></trkpt><trkpt lat="42.1604267" lon="14.62796"><ele>86.0</ele><time>2026-04-04T07:19:12.829Z</time></trkpt><trkpt lat="42.16041" lon="14.6280733"><ele>85.5</ele><time>2026-04-04T07:19:13.829Z</time></trkpt><trkpt lat="42.1603967" lon="14.62819"><ele>85.0</ele><time>2026-04-04T07:19:14.829Z</time></trkpt><trkpt lat="42.16038" lon="14.6283067"><ele>84.5</ele><time>2026-04-04T07:19:15.83Z</time></trkpt><trkpt lat="42.1603633" lon="14.6284217"><ele>84.0</ele><time>2026-04-04T07:19:16.829Z</time></trkpt><trkpt lat="42.160345" lon="14.6285333"><ele>83.83333333333333</ele><time>2026-04-04T07:19:17.829Z</time></trkpt><trkpt lat="42.160325" lon="14.6286483"><ele>83.66666666666667</ele><time>2026-04-04T07:19:18.83Z</time></trkpt><trkpt lat="42.1603117" lon="14.6287633"><ele>83.5</ele><time>2026-04-04T07:19:19.829Z</time></trkpt><trkpt lat="42.1602967" lon="14.6288783"><ele>83.33333333333334</ele><time>2026-04-04T07:19:20.829Z</time></trkpt><trkpt lat="42.160285" lon="14.6289917"><ele>83.16666666666667</ele><time>2026-04-04T07:19:21.83Z</time></trkpt><trkpt lat="42.1602717" lon="14.6291033"><ele>83.0</ele><time>2026-04-04T07:19:22.829Z</time></trkpt><trkpt lat="42.16026" lon="14.6292167"><ele>83.0</ele><time>2026-04-04T07:19:23.829Z</time></trkpt><trkpt lat="42.160245" lon="14.6293283"><ele>83.0</ele><time>2026-04-04T07:19:24.829Z</time></trkpt><trkpt lat="42.1602233" lon="14.6294367"><ele>83.0</ele><time>2026-04-04T07:19:25.829Z</time></trkpt><trkpt lat="42.1602083" lon="14.629545"><ele>83.0</ele><time>2026-04-04T07:19:26.829Z</time></trkpt><trkpt lat="42.1602017" lon="14.62965"><ele>83.0</ele><time>2026-04-04T07:19:27.829Z</time></trkpt><trkpt lat="42.16019" lon="14.6297517"><ele>83.0</ele><time>2026-04-04T07:19:28.829Z</time></trkpt><trkpt lat="42.1601717" lon="14.629855"><ele>82.66666666666667</ele><time>2026-04-04T07:19:29.829Z</time></trkpt><trkpt lat="42.1601567" lon="14.6299683"><ele>82.33333333333334</ele><time>2026-04-04T07:19:30.829Z</time></trkpt><trkpt lat="42.160145" lon="14.630085"><ele>82.0</ele><time>2026-04-04T07:19:31.829Z</time></trkpt><trkpt lat="42.1601467" lon="14.6302067"><ele>81.66666666666667</ele><time>2026-04-04T07:19:32.829Z</time></trkpt><trkpt lat="42.1601433" lon="14.6303283"><ele>81.33333333333333</ele><time>2026-04-04T07:19:33.829Z</time></trkpt><trkpt lat="42.1601383" lon="14.6304467"><ele>81.0</ele><time>2026-04-04T07:19:34.829Z</time></trkpt><trkpt lat="42.1601383" lon="14.63056"><ele>80.16666666666667</ele><time>2026-04-04T07:19:35.829Z</time></trkpt><trkpt lat="42.160135" lon="14.6306817"><ele>79.33333333333333</ele><time>2026-04-04T07:19:36.829Z</time></trkpt><trkpt lat="42.1601383" lon="14.6308033"><ele>78.5</ele><time>2026-04-04T07:19:37.829Z</time></trkpt><trkpt lat="42.160145" lon="14.6309217"><ele>77.66666666666666</ele><time>2026-04-04T07:19:38.83Z</time></trkpt><trkpt lat="42.1601517" lon="14.6310333"><ele>76.83333333333333</ele><time>2026-04-04T07:19:39.829Z</time></trkpt><trkpt lat="42.1601617" lon="14.6311433"><ele>76.0</ele><time>2026-04-04T07:19:40.829Z</time></trkpt><trkpt lat="42.1601833" lon="14.6312533"><ele>75.0</ele><time>2026-04-04T07:19:41.829Z</time></trkpt><trkpt lat="42.1602183" lon="14.6313633"><ele>74.0</ele><time>2026-04-04T07:19:42.829Z</time></trkpt><trkpt lat="42.16025" lon="14.6314733"><ele>73.0</ele><time>2026-04-04T07:19:43.829Z</time></trkpt><trkpt lat="42.160285" lon="14.631585"><ele>72.0</ele><time>2026-04-04T07:19:44.829Z</time></trkpt><trkpt lat="42.1603117" lon="14.6317067"><ele>71.0</ele><time>2026-04-04T07:19:45.829Z</time></trkpt><trkpt lat="42.1603333" lon="14.6318233"><ele>70.0</ele><time>2026-04-04T07:19:46.829Z</time></trkpt><trkpt lat="42.1603483" lon="14.6319483"><ele>68.4</ele><time>2026-04-04T07:19:47.829Z</time></trkpt><trkpt lat="42.1603683" lon="14.6320833"><ele>66.8</ele><time>2026-04-04T07:19:48.83Z</time></trkpt><trkpt lat="42.16038" lon="14.6321983"><ele>65.2</ele><time>2026-04-04T07:19:49.829Z</time></trkpt><trkpt lat="42.160395" lon="14.6323217"><ele>63.6</ele><time>2026-04-04T07:19:50.829Z</time></trkpt><trkpt lat="42.1604117" lon="14.6324417"><ele>62.0</ele><time>2026-04-04T07:19:51.829Z</time></trkpt><trkpt lat="42.1604317" lon="14.6325617"><ele>62.0</ele><time>2026-04-04T07:19:52.829Z</time></trkpt><trkpt lat="42.160465" lon="14.6326833"><ele>62.0</ele><time>2026-04-04T07:19:53.829Z</time></trkpt><trkpt lat="42.1605067" lon="14.6328"><ele>62.0</ele><time>2026-04-04T07:19:54.829Z</time></trkpt><trkpt lat="42.160575" lon="14.6329117"><ele>62.0</ele><time>2026-04-04T07:19:55.829Z</time></trkpt><trkpt lat="42.16066" lon="14.6329933"><ele>62.0</ele><time>2026-04-04T07:19:56.829Z</time></trkpt><trkpt lat="42.1607483" lon="14.6330283"><ele>62.0</ele><time>2026-04-04T07:19:57.829Z</time></trkpt><trkpt lat="42.1608383" lon="14.6330167"><ele>62.0</ele><time>2026-04-04T07:19:58.829Z</time></trkpt><trkpt lat="42.1609317" lon="14.6329767"><ele>62.0</ele><time>2026-04-04T07:19:59.83Z</time></trkpt><trkpt lat="42.1610217" lon="14.632925"><ele>62.0</ele><time>2026-04-04T07:20:00.829Z</time></trkpt><trkpt lat="42.1611133" lon="14.63286"><ele>62.0</ele><time>2026-04-04T07:20:01.83Z</time></trkpt><trkpt lat="42.1611967" lon="14.632805"><ele>62.8</ele><time>2026-04-04T07:20:02.829Z</time></trkpt><trkpt lat="42.1612833" lon="14.6327533"><ele>63.6</ele><time>2026-04-04T07:20:03.83Z</time></trkpt><trkpt lat="42.1613683" lon="14.6326933"><ele>64.39999999999999</ele><time>2026-04-04T07:20:04.83Z</time></trkpt><trkpt lat="42.1614533" lon="14.6326433"><ele>65.2</ele><time>2026-04-04T07:20:05.829Z</time></trkpt><trkpt lat="42.1615417" lon="14.63259"><ele>66.0</ele><time>2026-04-04T07:20:06.829Z</time></trkpt><trkpt lat="42.1616317" lon="14.632525"><ele>66.0</ele><time>2026-04-04T07:20:07.829Z</time></trkpt><trkpt lat="42.161715" lon="14.6324683"><ele>66.0</ele><time>2026-04-04T07:20:08.829Z</time></trkpt><trkpt lat="42.16179" lon="14.63241"><ele>66.0</ele><time>2026-04-04T07:20:09.829Z</time></trkpt><trkpt lat="42.1618683" lon="14.6323517"><ele>66.0</ele><time>2026-04-04T07:20:10.829Z</time></trkpt><trkpt lat="42.16195" lon="14.63229"><ele>66.0</ele><time>2026-04-04T07:20:11.829Z</time></trkpt><trkpt lat="42.1620283" lon="14.6322283"><ele>66.0</ele><time>2026-04-04T07:20:12.829Z</time></trkpt><trkpt lat="42.1621033" lon="14.6321617"><ele>66.0</ele><time>2026-04-04T07:20:13.829Z</time></trkpt><trkpt lat="42.16218" lon="14.6320967"><ele>66.0</ele><time>2026-04-04T07:20:14.829Z</time></trkpt><trkpt lat="42.16225" lon="14.6320333"><ele>66.0</ele><time>2026-04-04T07:20:15.83Z</time></trkpt><trkpt lat="42.1623267" lon="14.6319717"><ele>66.0</ele><time>2026-04-04T07:20:16.829Z</time></trkpt><trkpt lat="42.1624017" lon="14.6319067"><ele>66.0</ele><time>2026-04-04T07:20:17.829Z</time></trkpt><trkpt lat="42.162475" lon="14.63185"><ele>65.66666666666667</ele><time>2026-04-04T07:20:18.829Z</time></trkpt><trkpt lat="42.1625517" lon="14.6318033"><ele>65.33333333333333</ele><time>2026-04-04T07:20:19.829Z</time></trkpt><trkpt lat="42.162635" lon="14.63177"><ele>65.0</ele><time>2026-04-04T07:20:20.829Z</time></trkpt><trkpt lat="42.16272" lon="14.631755"><ele>64.66666666666666</ele><time>2026-04-04T07:20:21.829Z</time></trkpt><trkpt lat="42.1627917" lon="14.6317833"><ele>64.33333333333333</ele><time>2026-04-04T07:20:22.83Z</time></trkpt><trkpt lat="42.1628467" lon="14.6318367"><ele>64.0</ele><time>2026-04-04T07:20:23.829Z</time></trkpt><trkpt lat="42.1628867" lon="14.6319067"><ele>62.666666666666664</ele><time>2026-04-04T07:20:24.829Z</time></trkpt><trkpt lat="42.16291" lon="14.6319883"><ele>61.33333333333333</ele><time>2026-04-04T07:20:25.829Z</time></trkpt><trkpt lat="42.1629033" lon="14.6320817"><ele>60.0</ele><time>2026-04-04T07:20:26.829Z</time></trkpt><trkpt lat="42.1628633" lon="14.6321683"><ele>58.66666666666667</ele><time>2026-04-04T07:20:27.83Z</time></trkpt><trkpt lat="42.162795" lon="14.6322467"><ele>57.333333333333336</ele><time>2026-04-04T07:20:28.829Z</time></trkpt><trkpt lat="42.1627233" lon="14.6323133"><ele>56.0</ele><time>2026-04-04T07:20:29.829Z</time></trkpt><trkpt lat="42.1626483" lon="14.6323817"><ele>56.00000000000001</ele><time>2026-04-04T07:20:30.83Z</time></trkpt><trkpt lat="42.16258" lon="14.632455"><ele>56.0</ele><time>2026-04-04T07:20:31.83Z</time></trkpt><trkpt lat="42.16252" lon="14.6325333"><ele>56.0</ele><time>2026-04-04T07:20:32.829Z</time></trkpt><trkpt lat="42.16246" lon="14.6326167"><ele>56.0</ele><time>2026-04-04T07:20:33.829Z</time></trkpt><trkpt lat="42.1624" lon="14.632705"><ele>56.00000000000001</ele><time>2026-04-04T07:20:34.829Z</time></trkpt><trkpt lat="42.1623383" lon="14.632795"><ele>56.0</ele><time>2026-04-04T07:20:35.829Z</time></trkpt><trkpt lat="42.16228" lon="14.6328833"><ele>56.16666666666667</ele><time>2026-04-04T07:20:36.829Z</time></trkpt><trkpt lat="42.1622217" lon="14.6329717"><ele>56.333333333333336</ele><time>2026-04-04T07:20:37.829Z</time></trkpt><trkpt lat="42.1621667" lon="14.633065"><ele>56.5</ele><time>2026-04-04T07:20:38.829Z</time></trkpt><trkpt lat="42.1621083" lon="14.633155"><ele>56.66666666666667</ele><time>2026-04-04T07:20:39.829Z</time></trkpt><trkpt lat="42.162045" lon="14.6332483"><ele>56.833333333333336</ele><time>2026-04-04T07:20:40.829Z</time></trkpt><trkpt lat="42.1619867" lon="14.6333417"><ele>57.0</ele><time>2026-04-04T07:20:41.829Z</time></trkpt><trkpt lat="42.16192" lon="14.6334417"><ele>57.0</ele><time>2026-04-04T07:20:42.829Z</time></trkpt><trkpt lat="42.1618567" lon="14.6335433"><ele>57.0</ele><time>2026-04-04T07:20:43.829Z</time></trkpt><trkpt lat="42.161805" lon="14.6336383"><ele>57.0</ele><time>2026-04-04T07:20:44.829Z</time></trkpt><trkpt lat="42.1617383" lon="14.633735"><ele>57.0</ele><time>2026-04-04T07:20:45.829Z</time></trkpt><trkpt lat="42.161675" lon="14.633835"><ele>57.0</ele><time>2026-04-04T07:20:46.829Z</time></trkpt><trkpt lat="42.1616167" lon="14.6339417"><ele>55.833333333333336</ele><time>2026-04-04T07:20:47.829Z</time></trkpt><trkpt lat="42.1615717" lon="14.6340583"><ele>54.66666666666667</ele><time>2026-04-04T07:20:48.829Z</time></trkpt><trkpt lat="42.161545" lon="14.6341733"><ele>53.5</ele><time>2026-04-04T07:20:49.829Z</time></trkpt><trkpt lat="42.1615333" lon="14.6342883"><ele>52.333333333333336</ele><time>2026-04-04T07:20:50.83Z</time></trkpt><trkpt lat="42.1615467" lon="14.6344017"><ele>51.16666666666667</ele><time>2026-04-04T07:20:51.829Z</time></trkpt><trkpt lat="42.161575" lon="14.6345167"><ele>50.0</ele><time>2026-04-04T07:20:52.829Z</time></trkpt><trkpt lat="42.161625" lon="14.634625"><ele>49.50000000000001</ele><time>2026-04-04T07:20:53.829Z</time></trkpt><trkpt lat="42.1616783" lon="14.63472"><ele>49.0</ele><time>2026-04-04T07:20:54.83Z</time></trkpt><trkpt lat="42.16173" lon="14.6348033"><ele>48.5</ele><time>2026-04-04T07:20:55.829Z</time></trkpt><trkpt lat="42.16178" lon="14.634885"><ele>48.0</ele><time>2026-04-04T07:20:56.829Z</time></trkpt><trkpt lat="42.1618283" lon="14.6349717"><ele>47.5</ele><time>2026-04-04T07:20:57.829Z</time></trkpt><trkpt lat="42.16193" lon="14.6350033"><ele>47.0</ele><time>2026-04-04T07:20:58.829Z</time></trkpt><trkpt lat="42.1619983" lon="14.6350533"><ele>47.0</ele><time>2026-04-04T07:20:59.829Z</time></trkpt><trkpt lat="42.1620617" lon="14.6351083"><ele>47.0</ele><time>2026-04-04T07:21:00.829Z</time></trkpt><trkpt lat="42.1621233" lon="14.6351583"><ele>47.0</ele><time>2026-04-04T07:21:01.829Z</time></trkpt><trkpt lat="42.1621933" lon="14.6352083"><ele>47.0</ele><time>2026-04-04T07:21:02.829Z</time></trkpt><trkpt lat="42.162275" lon="14.6352583"><ele>47.0</ele><time>2026-04-04T07:21:03.829Z</time></trkpt><trkpt lat="42.1623533" lon="14.6352983"><ele>47.0</ele><time>2026-04-04T07:21:04.829Z</time></trkpt><trkpt lat="42.1624367" lon="14.6353333"><ele>45.33333333333333</ele><time>2026-04-04T07:21:05.829Z</time></trkpt><trkpt lat="42.1625183" lon="14.6353633"><ele>43.666666666666664</ele><time>2026-04-04T07:21:06.829Z</time></trkpt><trkpt lat="42.1625967" lon="14.6353933"><ele>42.0</ele><time>2026-04-04T07:21:07.829Z</time></trkpt><trkpt lat="42.1626767" lon="14.6354317"><ele>40.333333333333336</ele><time>2026-04-04T07:21:08.829Z</time></trkpt><trkpt lat="42.16275" lon="14.6354833"><ele>38.66666666666667</ele><time>2026-04-04T07:21:09.829Z</time></trkpt><trkpt lat="42.1628233" lon="14.63554"><ele>37.0</ele><time>2026-04-04T07:21:10.829Z</time></trkpt><trkpt lat="42.1628933" lon="14.6356083"><ele>37.0</ele><time>2026-04-04T07:21:11.829Z</time></trkpt><trkpt lat="42.1629583" lon="14.635685"><ele>37.0</ele><time>2026-04-04T07:21:12.829Z</time></trkpt><trkpt lat="42.1630167" lon="14.6357717"><ele>37.0</ele><time>2026-04-04T07:21:13.829Z</time></trkpt><trkpt lat="42.1630667" lon="14.6358633"><ele>37.0</ele><time>2026-04-04T07:21:14.83Z</time></trkpt><trkpt lat="42.16312" lon="14.635955"><ele>37.0</ele><time>2026-04-04T07:21:15.829Z</time></trkpt><trkpt lat="42.163175" lon="14.6360517"><ele>37.0</ele><time>2026-04-04T07:21:16.829Z</time></trkpt><trkpt lat="42.163225" lon="14.6361517"><ele>36.4</ele><time>2026-04-04T07:21:17.829Z</time></trkpt><trkpt lat="42.1632767" lon="14.6362517"><ele>35.800000000000004</ele><time>2026-04-04T07:21:18.829Z</time></trkpt><trkpt lat="42.1633283" lon="14.6363483"><ele>35.2</ele><time>2026-04-04T07:21:19.829Z</time></trkpt><trkpt lat="42.16338" lon="14.6364433"><ele>34.6</ele><time>2026-04-04T07:21:20.83Z</time></trkpt><trkpt lat="42.163435" lon="14.636545"><ele>34.0</ele><time>2026-04-04T07:21:21.829Z</time></trkpt><trkpt lat="42.1634917" lon="14.6366433"><ele>34.0</ele><time>2026-04-04T07:21:22.829Z</time></trkpt><trkpt lat="42.163545" lon="14.6367467"><ele>34.0</ele><time>2026-04-04T07:21:23.829Z</time></trkpt><trkpt lat="42.16359" lon="14.636845"><ele>34.0</ele><time>2026-04-04T07:21:24.829Z</time></trkpt><trkpt lat="42.16363" lon="14.6369467"><ele>34.0</ele><time>2026-04-04T07:21:25.83Z</time></trkpt><trkpt lat="42.1636517" lon="14.6370517"><ele>34.0</ele><time>2026-04-04T07:21:26.829Z</time></trkpt><trkpt lat="42.163645" lon="14.63716"><ele>34.0</ele><time>2026-04-04T07:21:27.829Z</time></trkpt><trkpt lat="42.16363" lon="14.6372633"><ele>33.16666666666667</ele><time>2026-04-04T07:21:28.829Z</time></trkpt><trkpt lat="42.1635917" lon="14.6373633"><ele>32.333333333333336</ele><time>2026-04-04T07:21:29.829Z</time></trkpt><trkpt lat="42.1635467" lon="14.6374583"><ele>31.5</ele><time>2026-04-04T07:21:30.829Z</time></trkpt><trkpt lat="42.1634883" lon="14.6375533"><ele>30.666666666666664</ele><time>2026-04-04T07:21:31.829Z</time></trkpt><trkpt lat="42.1634283" lon="14.6376467"><ele>29.833333333333332</ele><time>2026-04-04T07:21:32.829Z</time></trkpt><trkpt lat="42.1633617" lon="14.637745"><ele>29.0</ele><time>2026-04-04T07:21:33.829Z</time></trkpt><trkpt lat="42.1632933" lon="14.6378317"><ele>28.4</ele><time>2026-04-04T07:21:34.829Z</time></trkpt><trkpt lat="42.1632183" lon="14.6379083"><ele>27.799999999999997</ele><time>2026-04-04T07:21:35.829Z</time></trkpt><trkpt lat="42.163135" lon="14.637965"><ele>27.200000000000003</ele><time>2026-04-04T07:21:36.829Z</time></trkpt><trkpt lat="42.1630417" lon="14.6380233"><ele>26.6</ele><time>2026-04-04T07:21:37.83Z</time></trkpt><trkpt lat="42.1629383" lon="14.6380767"><ele>26.0</ele><time>2026-04-04T07:21:38.83Z</time></trkpt><trkpt lat="42.1628317" lon="14.63813"><ele>26.0</ele><time>2026-04-04T07:21:39.829Z</time></trkpt><trkpt lat="42.1627417" lon="14.6381983"><ele>26.0</ele><time>2026-04-04T07:21:40.829Z</time></trkpt><trkpt lat="42.16266" lon="14.6382667"><ele>26.0</ele><time>2026-04-04T07:21:41.829Z</time></trkpt><trkpt lat="42.1625733" lon="14.638345"><ele>26.0</ele><time>2026-04-04T07:21:42.829Z</time></trkpt><trkpt lat="42.1625017" lon="14.6384383"><ele>26.0</ele><time>2026-04-04T07:21:43.829Z</time></trkpt><trkpt lat="42.1624367" lon="14.6385367"><ele>25.200000000000003</ele><time>2026-04-04T07:21:44.829Z</time></trkpt><trkpt lat="42.1624033" lon="14.6386483"><ele>24.400000000000002</ele><time>2026-04-04T07:21:45.829Z</time></trkpt><trkpt lat="42.1623883" lon="14.63877"><ele>23.6</ele><time>2026-04-04T07:21:46.829Z</time></trkpt><trkpt lat="42.16239" lon="14.6389"><ele>22.8</ele><time>2026-04-04T07:21:47.83Z</time></trkpt><trkpt lat="42.1624117" lon="14.63903"><ele>22.0</ele><time>2026-04-04T07:21:48.829Z</time></trkpt><trkpt lat="42.16245" lon="14.6391433"><ele>22.0</ele><time>2026-04-04T07:21:49.829Z</time></trkpt><trkpt lat="42.1625033" lon="14.63924"><ele>22.0</ele><time>2026-04-04T07:21:50.829Z</time></trkpt><trkpt lat="42.1625633" lon="14.6393233"><ele>22.0</ele><time>2026-04-04T07:21:51.829Z</time></trkpt><trkpt lat="42.1626233" lon="14.6393983"><ele>22.0</ele><time>2026-04-04T07:21:52.829Z</time></trkpt><trkpt lat="42.162685" lon="14.63946"><ele>22.0</ele><time>2026-04-04T07:21:53.829Z</time></trkpt><trkpt lat="42.1627483" lon="14.6395083"><ele>22.0</ele><time>2026-04-04T07:21:54.829Z</time></trkpt><trkpt lat="42.162815" lon="14.6395483"><ele>21.833333333333332</ele><time>2026-04-04T07:21:55.829Z</time></trkpt><trkpt lat="42.1628833" lon="14.6395733"><ele>21.666666666666664</ele><time>2026-04-04T07:21:56.829Z</time></trkpt><trkpt lat="42.162955" lon="14.6395967"><ele>21.5</ele><time>2026-04-04T07:21:57.83Z</time></trkpt><trkpt lat="42.1630217" lon="14.639625"><ele>21.333333333333332</ele><time>2026-04-04T07:21:58.83Z</time></trkpt><trkpt lat="42.1630817" lon="14.6396633"><ele>21.166666666666668</ele><time>2026-04-04T07:21:59.829Z</time></trkpt><trkpt lat="42.16317" lon="14.6397717"><ele>21.0</ele><time>2026-04-04T07:22:01.829Z</time></trkpt><trkpt lat="42.163225" lon="14.6399083"><ele>20.8</ele><time>2026-04-04T07:22:03.829Z</time></trkpt><trkpt lat="42.1632533" lon="14.6400517"><ele>20.6</ele><time>2026-04-04T07:22:05.829Z</time></trkpt><trkpt lat="42.1632433" lon="14.6401933"><ele>20.4</ele><time>2026-04-04T07:22:07.83Z</time></trkpt><trkpt lat="42.16322" lon="14.6403"><ele>20.2</ele><time>2026-04-04T07:22:09.829Z</time></trkpt><trkpt lat="42.1632167" lon="14.6403917"><ele>20.0</ele><time>2026-04-04T07:22:11.829Z</time></trkpt><trkpt lat="42.16323" lon="14.6405067"><ele>19.666666666666668</ele><time>2026-04-04T07:22:13.829Z</time></trkpt><trkpt lat="42.1632883" lon="14.6406033"><ele>19.333333333333336</ele><time>2026-04-04T07:22:15.829Z</time></trkpt><trkpt lat="42.1633633" lon="14.64066"><ele>19.0</ele><time>2026-04-04T07:22:17.829Z</time></trkpt><trkpt lat="42.163455" lon="14.64066"><ele>18.666666666666668</ele><time>2026-04-04T07:22:19.829Z</time></trkpt><trkpt lat="42.1635417" lon="14.64064"><ele>18.333333333333332</ele><time>2026-04-04T07:22:21.829Z</time></trkpt><trkpt lat="42.1636283" lon="14.6406467"><ele>18.0</ele><time>2026-04-04T07:22:23.829Z</time></trkpt><trkpt lat="42.1637133" lon="14.6407017"><ele>18.0</ele><time>2026-04-04T07:22:25.829Z</time></trkpt><trkpt lat="42.163765" lon="14.6407783"><ele>18.0</ele><time>2026-04-04T07:22:27.829Z</time></trkpt><trkpt lat="42.163785" lon="14.64088"><ele>18.0</ele><time>2026-04-04T07:22:29.829Z</time></trkpt><trkpt lat="42.1637917" lon="14.64099"><ele>18.0</ele><time>2026-04-04T07:22:31.829Z</time></trkpt><trkpt lat="42.1638233" lon="14.6410917"><ele>18.0</ele><time>2026-04-04T07:22:34.83Z</time></trkpt><trkpt lat="42.1638417" lon="14.641175"><ele>18.0</ele><time>2026-04-04T07:24:27.825Z</time></trkpt><trkpt lat="42.1638883" lon="14.6412633"><ele>18.166666666666668</ele><time>2026-04-04T07:24:30.826Z</time></trkpt><trkpt lat="42.1639033" lon="14.6413867"><ele>18.333333333333332</ele><time>2026-04-04T07:24:33.825Z</time></trkpt><trkpt lat="42.163895" lon="14.6414717"><ele>18.5</ele><time>2026-04-04T07:24:35.826Z</time></trkpt><trkpt lat="42.1638783" lon="14.641595"><ele>18.666666666666664</ele><time>2026-04-04T07:24:38.825Z</time></trkpt><trkpt lat="42.163865" lon="14.6416817"><ele>18.833333333333332</ele><time>2026-04-04T07:24:40.826Z</time></trkpt><trkpt lat="42.163855" lon="14.641775"><ele>19.0</ele><time>2026-04-04T07:24:42.825Z</time></trkpt><trkpt lat="42.1638483" lon="14.6418717"><ele>19.142857142857142</ele><time>2026-04-04T07:24:44.825Z</time></trkpt><trkpt lat="42.1638433" lon="14.64197"><ele>19.28571428571429</ele><time>2026-04-04T07:24:46.825Z</time></trkpt><trkpt lat="42.1638383" lon="14.6420683"><ele>19.42857142857143</ele><time>2026-04-04T07:24:48.825Z</time></trkpt><trkpt lat="42.163835" lon="14.6421617"><ele>19.57142857142857</ele><time>2026-04-04T07:24:50.825Z</time></trkpt><trkpt lat="42.1638367" lon="14.642255"><ele>19.714285714285715</ele><time>2026-04-04T07:24:52.825Z</time></trkpt><trkpt lat="42.1638367" lon="14.6423583"><ele>19.857142857142858</ele><time>2026-04-04T07:24:54.825Z</time></trkpt><trkpt lat="42.1638417" lon="14.642465"><ele>20.0</ele><time>2026-04-04T07:24:56.826Z</time></trkpt><trkpt lat="42.1638433" lon="14.642575"><ele>20.0</ele><time>2026-04-04T07:24:58.826Z</time></trkpt><trkpt lat="42.1638467" lon="14.6426867"><ele>20.0</ele><time>2026-04-04T07:25:00.826Z</time></trkpt><trkpt lat="42.163855" lon="14.6427917"><ele>20.0</ele><time>2026-04-04T07:25:02.825Z</time></trkpt><trkpt lat="42.16386" lon="14.642905"><ele>20.0</ele><time>2026-04-04T07:25:04.825Z</time></trkpt><trkpt lat="42.1638633" lon="14.64301"><ele>20.0</ele><time>2026-04-04T07:25:06.826Z</time></trkpt><trkpt lat="42.1638717" lon="14.64313"><ele>20.0</ele><time>2026-04-04T07:25:08.825Z</time></trkpt><trkpt lat="42.1638767" lon="14.6432517"><ele>20.0</ele><time>2026-04-04T07:25:10.826Z</time></trkpt><trkpt lat="42.1638767" lon="14.643365"><ele>20.0</ele><time>2026-04-04T07:25:12.826Z</time></trkpt><trkpt lat="42.16388" lon="14.6434733"><ele>20.0</ele><time>2026-04-04T07:25:14.825Z</time></trkpt><trkpt lat="42.1638817" lon="14.6435717"><ele>20.0</ele><time>2026-04-04T07:25:16.825Z</time></trkpt><trkpt lat="42.163885" lon="14.643665"><ele>20.0</ele><time>2026-04-04T07:25:18.825Z</time></trkpt><trkpt lat="42.1638883" lon="14.64379"><ele>20.0</ele><time>2026-04-04T07:25:21.826Z</time></trkpt><trkpt lat="42.1638917" lon="14.6439167"><ele>19.57142857142857</ele><time>2026-04-04T07:25:24.826Z</time></trkpt><trkpt lat="42.163895" lon="14.6440033"><ele>19.142857142857142</ele><time>2026-04-04T07:25:26.825Z</time></trkpt><trkpt lat="42.1638983" lon="14.64409"><ele>18.714285714285715</ele><time>2026-04-04T07:25:28.825Z</time></trkpt><trkpt lat="42.1639067" lon="14.6442117"><ele>18.285714285714285</ele><time>2026-04-04T07:25:31.825Z</time></trkpt><trkpt lat="42.1639117" lon="14.6443017"><ele>17.857142857142858</ele><time>2026-04-04T07:25:33.825Z</time></trkpt><trkpt lat="42.1639167" lon="14.64439"><ele>17.428571428571427</ele><time>2026-04-04T07:25:35.825Z</time></trkpt><trkpt lat="42.163915" lon="14.6445133"><ele>17.0</ele><time>2026-04-04T07:25:38.826Z</time></trkpt><trkpt lat="42.1639083" lon="14.6445983"><ele>17.0</ele><time>2026-04-04T07:25:40.825Z</time></trkpt><trkpt lat="42.1638467" lon="14.644685"><ele>17.0</ele><time>2026-04-04T07:25:43.825Z</time></trkpt><trkpt lat="42.163765" lon="14.64474"><ele>17.0</ele><time>2026-04-04T07:25:46.825Z</time></trkpt><trkpt lat="42.16371" lon="14.6447867"><ele>17.0</ele><time>2026-04-04T07:25:48.825Z</time></trkpt><trkpt lat="42.16363" lon="14.644855"><ele>17.0</ele><time>2026-04-04T07:25:51.826Z</time></trkpt><trkpt lat="42.1635767" lon="14.644905"><ele>17.0</ele><time>2026-04-04T07:25:53.825Z</time></trkpt><trkpt lat="42.1635167" lon="14.6449517"><ele>17.0</ele><time>2026-04-04T07:25:55.825Z</time></trkpt><trkpt lat="42.16346" lon="14.6449933"><ele>17.0</ele><time>2026-04-04T07:25:57.825Z</time></trkpt><trkpt lat="42.163385" lon="14.645055"><ele>17.0</ele><time>2026-04-04T07:26:00.825Z</time></trkpt><trkpt lat="42.16331" lon="14.6451033"><ele>17.0</ele><time>2026-04-04T07:26:03.825Z</time></trkpt><trkpt lat="42.1632383" lon="14.6451367"><ele>17.0</ele><time>2026-04-04T07:26:07.826Z</time></trkpt><trkpt lat="42.1631583" lon="14.64517"><ele>17.0</ele><time>2026-04-04T07:26:11.825Z</time></trkpt><trkpt lat="42.1631133" lon="14.645235"><ele>16.999999999999996</ele><time>2026-04-04T07:26:15.825Z</time></trkpt><trkpt lat="42.163165" lon="14.6452933"><ele>17.0</ele><time>2026-04-04T07:26:21.825Z</time></trkpt><trkpt lat="42.163245" lon="14.6453167"><ele>17.0</ele><time>2026-04-04T07:26:26.825Z</time></trkpt><trkpt lat="42.163315" lon="14.64532"><ele>17.0</ele><time>2026-04-04T07:26:29.825Z</time></trkpt><trkpt lat="42.1633883" lon="14.6452983"><ele>17.0</ele><time>2026-04-04T07:26:33.825Z</time></trkpt><trkpt lat="42.1634517" lon="14.6452783"><ele>16.999999999999996</ele><time>2026-04-04T07:26:36.825Z</time></trkpt><trkpt lat="42.1635167" lon="14.645255"><ele>17.0</ele><time>2026-04-04T07:26:39.826Z</time></trkpt><trkpt lat="42.1635867" lon="14.6452417"><ele>16.999999999999996</ele><time>2026-04-04T07:26:42.825Z</time></trkpt><trkpt lat="42.1636567" lon="14.645245"><ele>17.0</ele><time>2026-04-04T07:26:45.825Z</time></trkpt><trkpt lat="42.1637217" lon="14.6452867"><ele>17.0</ele><time>2026-04-04T07:26:49.826Z</time></trkpt><trkpt lat="42.163755" lon="14.6453767"><ele>17.0</ele><time>2026-04-04T07:26:54.825Z</time></trkpt><trkpt lat="42.1637383" lon="14.6454817"><ele>17.0</ele><time>2026-04-04T07:26:58.826Z</time></trkpt><trkpt lat="42.16373" lon="14.6455717"><ele>16.999999999999996</ele><time>2026-04-04T07:27:01.825Z</time></trkpt><trkpt lat="42.1637183" lon="14.6456567"><ele>17.0</ele><time>2026-04-04T07:27:04.826Z</time></trkpt><trkpt lat="42.1637" lon="14.6457467"><ele>17.142857142857142</ele><time>2026-04-04T07:27:09.825Z</time></trkpt><trkpt lat="42.1636783" lon="14.6458383"><ele>17.285714285714285</ele><time>2026-04-04T07:27:12.825Z</time></trkpt><trkpt lat="42.1636883" lon="14.6459517"><ele>17.42857142857143</ele><time>2026-04-04T07:27:15.825Z</time></trkpt><trkpt lat="42.1637233" lon="14.646035"><ele>17.57142857142857</ele><time>2026-04-04T07:27:18.825Z</time></trkpt><trkpt lat="42.1637683" lon="14.6461067"><ele>17.714285714285715</ele><time>2026-04-04T07:27:21.825Z</time></trkpt><trkpt lat="42.1637983" lon="14.6461933"><ele>17.857142857142858</ele><time>2026-04-04T07:27:25.825Z</time></trkpt><trkpt lat="42.1638533" lon="14.6462583"><ele>18.0</ele><time>2026-04-04T07:27:30.826Z</time></trkpt><trkpt lat="42.1639433" lon="14.64626"><ele>18.0</ele><time>2026-04-04T07:32:15.827Z</time></trkpt><trkpt lat="42.1639883" lon="14.6461467"><ele>18.0</ele><time>2026-04-04T07:32:18.827Z</time></trkpt><trkpt lat="42.1639983" lon="14.64605"><ele>18.0</ele><time>2026-04-04T07:32:20.828Z</time></trkpt><trkpt lat="42.1640083" lon="14.6459483"><ele>18.0</ele><time>2026-04-04T07:32:22.828Z</time></trkpt><trkpt lat="42.1640133" lon="14.645845"><ele>18.0</ele><time>2026-04-04T07:32:24.827Z</time></trkpt><trkpt lat="42.1640167" lon="14.6457333"><ele>18.0</ele><time>2026-04-04T07:32:26.827Z</time></trkpt><trkpt lat="42.1640183" lon="14.6456033"><ele>18.0</ele><time>2026-04-04T07:32:28.828Z</time></trkpt><trkpt lat="42.16402" lon="14.6454667"><ele>18.0</ele><time>2026-04-04T07:32:30.827Z</time></trkpt><trkpt lat="42.16402" lon="14.6453167"><ele>18.0</ele><time>2026-04-04T07:32:32.827Z</time></trkpt><trkpt lat="42.1640167" lon="14.64516"><ele>18.0</ele><time>2026-04-04T07:32:34.827Z</time></trkpt><trkpt lat="42.16401" lon="14.6449933"><ele>17.8</ele><time>2026-04-04T07:32:36.828Z</time></trkpt><trkpt lat="42.1639983" lon="14.6448333"><ele>17.6</ele><time>2026-04-04T07:32:38.827Z</time></trkpt><trkpt lat="42.1639917" lon="14.64467"><ele>17.4</ele><time>2026-04-04T07:32:40.827Z</time></trkpt><trkpt lat="42.1639883" lon="14.64451"><ele>17.2</ele><time>2026-04-04T07:32:42.827Z</time></trkpt><trkpt lat="42.1639833" lon="14.6444217"><ele>17.0</ele><time>2026-04-04T07:32:43.828Z</time></trkpt><trkpt lat="42.163975" lon="14.6442633"><ele>17.0</ele><time>2026-04-04T07:32:45.827Z</time></trkpt><trkpt lat="42.1639717" lon="14.6441"><ele>17.0</ele><time>2026-04-04T07:32:47.827Z</time></trkpt><trkpt lat="42.1639683" lon="14.6439383"><ele>17.0</ele><time>2026-04-04T07:32:49.828Z</time></trkpt><trkpt lat="42.1639617" lon="14.6437783"><ele>17.0</ele><time>2026-04-04T07:32:51.827Z</time></trkpt><trkpt lat="42.16396" lon="14.6436217"><ele>17.75</ele><time>2026-04-04T07:32:53.828Z</time></trkpt><trkpt lat="42.163955" lon="14.643465"><ele>18.5</ele><time>2026-04-04T07:32:55.827Z</time></trkpt><trkpt lat="42.1639517" lon="14.64328"><ele>19.25</ele><time>2026-04-04T07:32:57.827Z</time></trkpt><trkpt lat="42.1639533" lon="14.643115"><ele>20.0</ele><time>2026-04-04T07:32:59.827Z</time></trkpt><trkpt lat="42.1639417" lon="14.6429567"><ele>20.0</ele><time>2026-04-04T07:33:01.828Z</time></trkpt><trkpt lat="42.16394" lon="14.6427933"><ele>20.0</ele><time>2026-04-04T07:33:03.827Z</time></trkpt><trkpt lat="42.1639367" lon="14.6427067"><ele>20.0</ele><time>2026-04-04T07:33:04.827Z</time></trkpt><trkpt lat="42.1639317" lon="14.6426183"><ele>20.0</ele><time>2026-04-04T07:33:05.828Z</time></trkpt><trkpt lat="42.1639317" lon="14.6425333"><ele>20.0</ele><time>2026-04-04T07:33:06.827Z</time></trkpt><trkpt lat="42.1639283" lon="14.6423633"><ele>20.0</ele><time>2026-04-04T07:33:08.827Z</time></trkpt><trkpt lat="42.1639367" lon="14.6422767"><ele>20.0</ele><time>2026-04-04T07:33:09.827Z</time></trkpt><trkpt lat="42.1639433" lon="14.6421133"><ele>20.0</ele><time>2026-04-04T07:33:11.827Z</time></trkpt><trkpt lat="42.1639517" lon="14.64196"><ele>20.0</ele><time>2026-04-04T07:33:13.828Z</time></trkpt><trkpt lat="42.16396" lon="14.6418033"><ele>20.0</ele><time>2026-04-04T07:33:15.827Z</time></trkpt><trkpt lat="42.1639733" lon="14.6416483"><ele>20.0</ele><time>2026-04-04T07:33:17.828Z</time></trkpt><trkpt lat="42.1640133" lon="14.6414883"><ele>20.0</ele><time>2026-04-04T07:33:19.828Z</time></trkpt><trkpt lat="42.16407" lon="14.6413433"><ele>20.0</ele><time>2026-04-04T07:33:21.827Z</time></trkpt><trkpt lat="42.1641533" lon="14.641235"><ele>20.0</ele><time>2026-04-04T07:33:23.827Z</time></trkpt><trkpt lat="42.1642417" lon="14.6411183"><ele>20.0</ele><time>2026-04-04T07:33:25.828Z</time></trkpt><trkpt lat="42.1642817" lon="14.64105"><ele>20.0</ele><time>2026-04-04T07:33:26.827Z</time></trkpt><trkpt lat="42.164315" lon="14.6409767"><ele>20.0</ele><time>2026-04-04T07:33:27.827Z</time></trkpt><trkpt lat="42.1643517" lon="14.6408983"><ele>20.0</ele><time>2026-04-04T07:33:28.827Z</time></trkpt><trkpt lat="42.16444" lon="14.6407817"><ele>20.0</ele><time>2026-04-04T07:33:30.827Z</time></trkpt><trkpt lat="42.1644967" lon="14.6407417"><ele>20.0</ele><time>2026-04-04T07:33:31.827Z</time></trkpt><trkpt lat="42.1646083" lon="14.640685"><ele>20.0</ele><time>2026-04-04T07:33:33.827Z</time></trkpt><trkpt lat="42.16472" lon="14.640635"><ele>20.0</ele><time>2026-04-04T07:33:35.828Z</time></trkpt><trkpt lat="42.1648367" lon="14.640565"><ele>20.0</ele><time>2026-04-04T07:33:37.827Z</time></trkpt><trkpt lat="42.1648983" lon="14.6405417"><ele>20.0</ele><time>2026-04-04T07:33:38.827Z</time></trkpt><trkpt lat="42.16501" lon="14.6405033"><ele>20.0</ele><time>2026-04-04T07:33:40.827Z</time></trkpt><trkpt lat="42.1650717" lon="14.640485"><ele>19.833333333333336</ele><time>2026-04-04T07:33:41.827Z</time></trkpt><trkpt lat="42.1651367" lon="14.6404683"><ele>19.666666666666668</ele><time>2026-04-04T07:33:42.827Z</time></trkpt><trkpt lat="42.1652" lon="14.64045"><ele>19.5</ele><time>2026-04-04T07:33:43.827Z</time></trkpt><trkpt lat="42.1652667" lon="14.64043"><ele>19.333333333333332</ele><time>2026-04-04T07:33:44.827Z</time></trkpt><trkpt lat="42.1653867" lon="14.6404067"><ele>19.166666666666664</ele><time>2026-04-04T07:33:46.827Z</time></trkpt><trkpt lat="42.1654533" lon="14.6403933"><ele>19.0</ele><time>2026-04-04T07:33:47.827Z</time></trkpt><trkpt lat="42.1655767" lon="14.6403633"><ele>18.8</ele><time>2026-04-04T07:33:49.827Z</time></trkpt><trkpt lat="42.1656983" lon="14.6403483"><ele>18.599999999999998</ele><time>2026-04-04T07:33:51.827Z</time></trkpt><trkpt lat="42.16582" lon="14.6403283"><ele>18.4</ele><time>2026-04-04T07:33:53.827Z</time></trkpt><trkpt lat="42.1658833" lon="14.6403167"><ele>18.2</ele><time>2026-04-04T07:33:54.827Z</time></trkpt><trkpt lat="42.16601" lon="14.6402967"><ele>18.0</ele><time>2026-04-04T07:33:56.827Z</time></trkpt><trkpt lat="42.1660733" lon="14.6402867"><ele>18.000000000000004</ele><time>2026-04-04T07:33:57.827Z</time></trkpt><trkpt lat="42.16614" lon="14.6402717"><ele>18.0</ele><time>2026-04-04T07:33:58.827Z</time></trkpt><trkpt lat="42.1662033" lon="14.6402617"><ele>18.0</ele><time>2026-04-04T07:33:59.827Z</time></trkpt><trkpt lat="42.1662683" lon="14.6402533"><ele>18.0</ele><time>2026-04-04T07:34:00.827Z</time></trkpt><trkpt lat="42.166335" lon="14.64024"><ele>18.0</ele><time>2026-04-04T07:34:01.827Z</time></trkpt><trkpt lat="42.1663983" lon="14.6402317"><ele>18.000000000000004</ele><time>2026-04-04T07:34:02.827Z</time></trkpt><trkpt lat="42.1664617" lon="14.640225"><ele>18.0</ele><time>2026-04-04T07:34:03.827Z</time></trkpt><trkpt lat="42.1665267" lon="14.640215"><ele>17.857142857142858</ele><time>2026-04-04T07:34:04.828Z</time></trkpt><trkpt lat="42.1665933" lon="14.6402067"><ele>17.714285714285715</ele><time>2026-04-04T07:34:05.827Z</time></trkpt><trkpt lat="42.1666583" lon="14.6401967"><ele>17.57142857142857</ele><time>2026-04-04T07:34:06.827Z</time></trkpt><trkpt lat="42.1667217" lon="14.6401833"><ele>17.42857142857143</ele><time>2026-04-04T07:34:07.827Z</time></trkpt><trkpt lat="42.1667883" lon="14.6401767"><ele>17.285714285714285</ele><time>2026-04-04T07:34:08.827Z</time></trkpt><trkpt lat="42.1668533" lon="14.640165"><ele>17.142857142857142</ele><time>2026-04-04T07:34:09.827Z</time></trkpt><trkpt lat="42.1669167" lon="14.6401533"><ele>17.0</ele><time>2026-04-04T07:34:10.827Z</time></trkpt><trkpt lat="42.16698" lon="14.6401383"><ele>17.0</ele><time>2026-04-04T07:34:11.827Z</time></trkpt><trkpt lat="42.1671033" lon="14.64012"><ele>17.0</ele><time>2026-04-04T07:34:13.827Z</time></trkpt><trkpt lat="42.1672283" lon="14.6401067"><ele>17.0</ele><time>2026-04-04T07:34:15.827Z</time></trkpt><trkpt lat="42.1672917" lon="14.6400983"><ele>17.0</ele><time>2026-04-04T07:34:16.827Z</time></trkpt><trkpt lat="42.1674167" lon="14.640075"><ele>17.0</ele><time>2026-04-04T07:34:18.827Z</time></trkpt><trkpt lat="42.1675417" lon="14.6400517"><ele>17.0</ele><time>2026-04-04T07:34:20.827Z</time></trkpt><trkpt lat="42.1676067" lon="14.640045"><ele>17.0</ele><time>2026-04-04T07:34:21.827Z</time></trkpt><trkpt lat="42.167675" lon="14.6400333"><ele>17.0</ele><time>2026-04-04T07:34:22.827Z</time></trkpt><trkpt lat="42.167795" lon="14.6400083"><ele>17.0</ele><time>2026-04-04T07:34:24.827Z</time></trkpt><trkpt lat="42.1679183" lon="14.6399917"><ele>17.0</ele><time>2026-04-04T07:34:26.828Z</time></trkpt><trkpt lat="42.1679833" lon="14.6399783"><ele>17.0</ele><time>2026-04-04T07:34:27.828Z</time></trkpt><trkpt lat="42.1680517" lon="14.6399667"><ele>16.999999999999996</ele><time>2026-04-04T07:34:28.827Z</time></trkpt><trkpt lat="42.1681167" lon="14.6399533"><ele>17.0</ele><time>2026-04-04T07:34:29.827Z</time></trkpt><trkpt lat="42.1681833" lon="14.63994"><ele>17.0</ele><time>2026-04-04T07:34:30.828Z</time></trkpt><trkpt lat="42.16825" lon="14.63993"><ele>17.0</ele><time>2026-04-04T07:34:31.827Z</time></trkpt><trkpt lat="42.1683183" lon="14.63992"><ele>17.0</ele><time>2026-04-04T07:34:32.827Z</time></trkpt><trkpt lat="42.16839" lon="14.63991"><ele>16.999999999999996</ele><time>2026-04-04T07:34:33.827Z</time></trkpt><trkpt lat="42.16846" lon="14.6399"><ele>17.0</ele><time>2026-04-04T07:34:34.827Z</time></trkpt><trkpt lat="42.1685283" lon="14.6398883"><ele>17.142857142857142</ele><time>2026-04-04T07:34:35.827Z</time></trkpt><trkpt lat="42.1685967" lon="14.6398767"><ele>17.285714285714285</ele><time>2026-04-04T07:34:36.827Z</time></trkpt><trkpt lat="42.1686633" lon="14.6398667"><ele>17.42857142857143</ele><time>2026-04-04T07:34:37.827Z</time></trkpt><trkpt lat="42.16873" lon="14.6398567"><ele>17.57142857142857</ele><time>2026-04-04T07:34:38.827Z</time></trkpt><trkpt lat="42.168795" lon="14.6398433"><ele>17.714285714285715</ele><time>2026-04-04T07:34:39.828Z</time></trkpt><trkpt lat="42.16886" lon="14.639835"><ele>17.857142857142858</ele><time>2026-04-04T07:34:40.827Z</time></trkpt><trkpt lat="42.1689267" lon="14.639825"><ele>18.0</ele><time>2026-04-04T07:34:41.827Z</time></trkpt><trkpt lat="42.168995" lon="14.639815"><ele>18.0</ele><time>2026-04-04T07:34:42.827Z</time></trkpt><trkpt lat="42.169065" lon="14.6398017"><ele>18.0</ele><time>2026-04-04T07:34:43.827Z</time></trkpt><trkpt lat="42.16913" lon="14.6397917"><ele>18.0</ele><time>2026-04-04T07:34:44.828Z</time></trkpt><trkpt lat="42.1692583" lon="14.6397683"><ele>18.0</ele><time>2026-04-04T07:34:46.827Z</time></trkpt><trkpt lat="42.1693267" lon="14.639755"><ele>18.0</ele><time>2026-04-04T07:34:47.827Z</time></trkpt><trkpt lat="42.16939" lon="14.639745"><ele>18.0</ele><time>2026-04-04T07:34:48.827Z</time></trkpt><trkpt lat="42.1694567" lon="14.6397333"><ele>18.000000000000004</ele><time>2026-04-04T07:34:49.827Z</time></trkpt><trkpt lat="42.1695217" lon="14.63972"><ele>18.0</ele><time>2026-04-04T07:34:50.828Z</time></trkpt><trkpt lat="42.1695867" lon="14.63971"><ele>18.0</ele><time>2026-04-04T07:34:51.827Z</time></trkpt><trkpt lat="42.1696533" lon="14.6397"><ele>18.0</ele><time>2026-04-04T07:34:52.827Z</time></trkpt><trkpt lat="42.1697217" lon="14.6396883"><ele>18.0</ele><time>2026-04-04T07:34:53.827Z</time></trkpt><trkpt lat="42.1697883" lon="14.639675"><ele>18.000000000000004</ele><time>2026-04-04T07:34:54.827Z</time></trkpt><trkpt lat="42.1698517" lon="14.639665"><ele>18.0</ele><time>2026-04-04T07:34:55.828Z</time></trkpt><trkpt lat="42.1699183" lon="14.639655"><ele>17.714285714285715</ele><time>2026-04-04T07:34:56.827Z</time></trkpt><trkpt lat="42.1699817" lon="14.6396483"><ele>17.42857142857143</ele><time>2026-04-04T07:34:57.827Z</time></trkpt><trkpt lat="42.170045" lon="14.6396383"><ele>17.142857142857142</ele><time>2026-04-04T07:34:58.828Z</time></trkpt><trkpt lat="42.17011" lon="14.6396317"><ele>16.857142857142858</ele><time>2026-04-04T07:34:59.828Z</time></trkpt><trkpt lat="42.1701733" lon="14.639625"><ele>16.57142857142857</ele><time>2026-04-04T07:35:00.828Z</time></trkpt><trkpt lat="42.1703" lon="14.6396"><ele>16.285714285714285</ele><time>2026-04-04T07:35:02.827Z</time></trkpt><trkpt lat="42.170365" lon="14.639595"><ele>16.0</ele><time>2026-04-04T07:35:03.827Z</time></trkpt><trkpt lat="42.1704317" lon="14.639585"><ele>15.999999999999998</ele><time>2026-04-04T07:35:04.827Z</time></trkpt><trkpt lat="42.1705567" lon="14.639565"><ele>16.0</ele><time>2026-04-04T07:35:06.827Z</time></trkpt><trkpt lat="42.17062" lon="14.6395567"><ele>16.0</ele><time>2026-04-04T07:35:07.827Z</time></trkpt><trkpt lat="42.1706833" lon="14.6395467"><ele>16.0</ele><time>2026-04-04T07:35:08.827Z</time></trkpt><trkpt lat="42.17081" lon="14.6395233"><ele>15.999999999999998</ele><time>2026-04-04T07:35:10.827Z</time></trkpt><trkpt lat="42.1708733" lon="14.6395083"><ele>16.0</ele><time>2026-04-04T07:35:11.827Z</time></trkpt><trkpt lat="42.170995" lon="14.63949"><ele>15.999999999999998</ele><time>2026-04-04T07:35:13.827Z</time></trkpt><trkpt lat="42.1710583" lon="14.6394817"><ele>16.0</ele><time>2026-04-04T07:35:14.827Z</time></trkpt><trkpt lat="42.1711217" lon="14.6394733"><ele>16.0</ele><time>2026-04-04T07:35:15.828Z</time></trkpt><trkpt lat="42.171185" lon="14.6394617"><ele>16.0</ele><time>2026-04-04T07:35:16.827Z</time></trkpt><trkpt lat="42.1713067" lon="14.63944"><ele>15.999999999999998</ele><time>2026-04-04T07:35:18.828Z</time></trkpt><trkpt lat="42.1714283" lon="14.6394267"><ele>16.0</ele><time>2026-04-04T07:35:20.828Z</time></trkpt><trkpt lat="42.1715533" lon="14.6394017"><ele>15.833333333333332</ele><time>2026-04-04T07:35:22.827Z</time></trkpt><trkpt lat="42.17168" lon="14.6393783"><ele>15.666666666666666</ele><time>2026-04-04T07:35:24.827Z</time></trkpt><trkpt lat="42.1717433" lon="14.6393683"><ele>15.5</ele><time>2026-04-04T07:35:25.828Z</time></trkpt><trkpt lat="42.1718083" lon="14.6393583"><ele>15.333333333333332</ele><time>2026-04-04T07:35:26.827Z</time></trkpt><trkpt lat="42.1718733" lon="14.6393467"><ele>15.166666666666666</ele><time>2026-04-04T07:35:27.827Z</time></trkpt><trkpt lat="42.171995" lon="14.6393283"><ele>15.0</ele><time>2026-04-04T07:35:29.827Z</time></trkpt><trkpt lat="42.1720617" lon="14.6393183"><ele>15.0</ele><time>2026-04-04T07:35:30.828Z</time></trkpt><trkpt lat="42.1721267" lon="14.6393083"><ele>15.0</ele><time>2026-04-04T07:35:31.827Z</time></trkpt><trkpt lat="42.1721917" lon="14.639295"><ele>15.0</ele><time>2026-04-04T07:35:32.827Z</time></trkpt><trkpt lat="42.1723133" lon="14.63927"><ele>15.0</ele><time>2026-04-04T07:35:34.827Z</time></trkpt><trkpt lat="42.1724367" lon="14.6392567"><ele>15.0</ele><time>2026-04-04T07:35:36.827Z</time></trkpt><trkpt lat="42.1725" lon="14.6392483"><ele>15.0</ele><time>2026-04-04T07:35:37.828Z</time></trkpt><trkpt lat="42.172565" lon="14.63924"><ele>14.833333333333334</ele><time>2026-04-04T07:35:38.827Z</time></trkpt><trkpt lat="42.1726933" lon="14.6392117"><ele>14.666666666666668</ele><time>2026-04-04T07:35:40.827Z</time></trkpt><trkpt lat="42.17276" lon="14.6392017"><ele>14.5</ele><time>2026-04-04T07:35:41.827Z</time></trkpt><trkpt lat="42.172825" lon="14.6391917"><ele>14.333333333333334</ele><time>2026-04-04T07:35:42.827Z</time></trkpt><trkpt lat="42.1728917" lon="14.6391817"><ele>14.166666666666668</ele><time>2026-04-04T07:35:43.827Z</time></trkpt><trkpt lat="42.17296" lon="14.6391667"><ele>14.0</ele><time>2026-04-04T07:35:44.827Z</time></trkpt><trkpt lat="42.1730233" lon="14.63916"><ele>14.0</ele><time>2026-04-04T07:35:45.827Z</time></trkpt><trkpt lat="42.17309" lon="14.6391467"><ele>14.0</ele><time>2026-04-04T07:35:46.827Z</time></trkpt><trkpt lat="42.1731533" lon="14.639135"><ele>14.0</ele><time>2026-04-04T07:35:47.827Z</time></trkpt><trkpt lat="42.1732183" lon="14.6391283"><ele>14.0</ele><time>2026-04-04T07:35:48.828Z</time></trkpt><trkpt lat="42.173285" lon="14.6391167"><ele>14.0</ele><time>2026-04-04T07:35:49.827Z</time></trkpt><trkpt lat="42.1733483" lon="14.6391033"><ele>14.0</ele><time>2026-04-04T07:35:50.828Z</time></trkpt><trkpt lat="42.1734133" lon="14.6390933"><ele>14.0</ele><time>2026-04-04T07:35:51.827Z</time></trkpt><trkpt lat="42.1734767" lon="14.6390867"><ele>14.000000000000002</ele><time>2026-04-04T07:35:52.828Z</time></trkpt><trkpt lat="42.1736" lon="14.6390633"><ele>14.0</ele><time>2026-04-04T07:35:54.828Z</time></trkpt><trkpt lat="42.1736633" lon="14.6390567"><ele>14.0</ele><time>2026-04-04T07:35:55.827Z</time></trkpt><trkpt lat="42.1737267" lon="14.6390483"><ele>14.0</ele><time>2026-04-04T07:35:56.827Z</time></trkpt><trkpt lat="42.1738533" lon="14.6390217"><ele>14.000000000000002</ele><time>2026-04-04T07:35:58.827Z</time></trkpt><trkpt lat="42.17392" lon="14.6390083"><ele>14.0</ele><time>2026-04-04T07:35:59.827Z</time></trkpt><trkpt lat="42.1740417" lon="14.6389833"><ele>14.0</ele><time>2026-04-04T07:36:01.828Z</time></trkpt><trkpt lat="42.174105" lon="14.6389767"><ele>13.999999999999998</ele><time>2026-04-04T07:36:02.827Z</time></trkpt><trkpt lat="42.17417" lon="14.638965"><ele>13.999999999999998</ele><time>2026-04-04T07:36:03.827Z</time></trkpt><trkpt lat="42.17429" lon="14.6389517"><ele>14.0</ele><time>2026-04-04T07:36:05.827Z</time></trkpt><trkpt lat="42.1744033" lon="14.6389417"><ele>14.0</ele><time>2026-04-04T07:36:07.827Z</time></trkpt><trkpt lat="42.1745217" lon="14.638925"><ele>14.000000000000002</ele><time>2026-04-04T07:36:09.827Z</time></trkpt><trkpt lat="42.1745867" lon="14.6389167"><ele>14.0</ele><time>2026-04-04T07:36:10.828Z</time></trkpt><trkpt lat="42.1747117" lon="14.63889"><ele>14.0</ele><time>2026-04-04T07:36:12.827Z</time></trkpt><trkpt lat="42.174775" lon="14.638875"><ele>14.0</ele><time>2026-04-04T07:36:13.827Z</time></trkpt><trkpt lat="42.1748433" lon="14.6388633"><ele>14.000000000000002</ele><time>2026-04-04T07:36:14.827Z</time></trkpt><trkpt lat="42.1749083" lon="14.6388533"><ele>14.0</ele><time>2026-04-04T07:36:15.827Z</time></trkpt><trkpt lat="42.174975" lon="14.63884"><ele>14.2</ele><time>2026-04-04T07:36:16.827Z</time></trkpt><trkpt lat="42.17504" lon="14.6388283"><ele>14.399999999999999</ele><time>2026-04-04T07:36:17.828Z</time></trkpt><trkpt lat="42.1751633" lon="14.6388117"><ele>14.6</ele><time>2026-04-04T07:36:19.827Z</time></trkpt><trkpt lat="42.17529" lon="14.6387933"><ele>14.8</ele><time>2026-04-04T07:36:21.827Z</time></trkpt><trkpt lat="42.1754117" lon="14.6387767"><ele>15.0</ele><time>2026-04-04T07:36:23.827Z</time></trkpt><trkpt lat="42.1754767" lon="14.6387717"><ele>15.0</ele><time>2026-04-04T07:36:24.827Z</time></trkpt><trkpt lat="42.1755983" lon="14.6387483"><ele>15.0</ele><time>2026-04-04T07:36:26.827Z</time></trkpt><trkpt lat="42.1757217" lon="14.6387167"><ele>15.0</ele><time>2026-04-04T07:36:28.827Z</time></trkpt><trkpt lat="42.1758383" lon="14.6386917"><ele>15.0</ele><time>2026-04-04T07:36:30.828Z</time></trkpt><trkpt lat="42.1759583" lon="14.638675"><ele>14.6</ele><time>2026-04-04T07:36:32.827Z</time></trkpt><trkpt lat="42.1760783" lon="14.6386517"><ele>14.2</ele><time>2026-04-04T07:36:34.828Z</time></trkpt><trkpt lat="42.1761883" lon="14.6386383"><ele>13.8</ele><time>2026-04-04T07:36:36.827Z</time></trkpt><trkpt lat="42.1762783" lon="14.6386167"><ele>13.4</ele><time>2026-04-04T07:36:38.827Z</time></trkpt><trkpt lat="42.1763633" lon="14.638615"><ele>13.0</ele><time>2026-04-04T07:36:40.827Z</time></trkpt><trkpt lat="42.176445" lon="14.6386267"><ele>13.0</ele><time>2026-04-04T07:36:42.827Z</time></trkpt><trkpt lat="42.1765167" lon="14.6386467"><ele>13.0</ele><time>2026-04-04T07:36:44.827Z</time></trkpt><trkpt lat="42.17658" lon="14.63867"><ele>13.0</ele><time>2026-04-04T07:36:46.827Z</time></trkpt><trkpt lat="42.1766467" lon="14.6387233"><ele>13.0</ele><time>2026-04-04T07:36:48.827Z</time></trkpt><trkpt lat="42.17671" lon="14.638785"><ele>13.0</ele><time>2026-04-04T07:36:50.827Z</time></trkpt><trkpt lat="42.176765" lon="14.6388417"><ele>13.0</ele><time>2026-04-04T07:36:52.827Z</time></trkpt><trkpt lat="42.1768167" lon="14.6389067"><ele>13.0</ele><time>2026-04-04T07:36:55.828Z</time></trkpt><trkpt lat="42.1768683" lon="14.63898"><ele>12.714285714285714</ele><time>2026-04-04T07:36:59.827Z</time></trkpt><trkpt lat="42.1769133" lon="14.6390517"><ele>12.428571428571429</ele><time>2026-04-04T07:37:03.827Z</time></trkpt><trkpt lat="42.1769" lon="14.638965"><ele>12.142857142857142</ele><time>2026-04-04T07:39:43.827Z</time></trkpt><trkpt lat="42.176855" lon="14.6388817"><ele>11.857142857142858</ele><time>2026-04-04T07:39:46.827Z</time></trkpt><trkpt lat="42.1768167" lon="14.638805"><ele>11.571428571428571</ele><time>2026-04-04T07:39:49.827Z</time></trkpt><trkpt lat="42.1767517" lon="14.6387283"><ele>11.285714285714286</ele><time>2026-04-04T07:39:52.827Z</time></trkpt><trkpt lat="42.176685" lon="14.6386617"><ele>11.0</ele><time>2026-04-04T07:39:55.827Z</time></trkpt><trkpt lat="42.1766633" lon="14.638575"><ele>11.833333333333332</ele><time>2026-04-04T07:39:59.828Z</time></trkpt><trkpt lat="42.1767467" lon="14.6385567"><ele>12.666666666666666</ele><time>2026-04-04T07:40:02.828Z</time></trkpt><trkpt lat="42.1768233" lon="14.638545"><ele>13.5</ele><time>2026-04-04T07:40:04.828Z</time></trkpt><trkpt lat="42.17691" lon="14.6385367"><ele>14.333333333333332</ele><time>2026-04-04T07:40:06.827Z</time></trkpt><trkpt lat="42.1769983" lon="14.638525"><ele>15.166666666666666</ele><time>2026-04-04T07:40:08.827Z</time></trkpt><trkpt lat="42.1770917" lon="14.63851"><ele>16.0</ele><time>2026-04-04T07:40:10.828Z</time></trkpt><trkpt lat="42.1771933" lon="14.6384917"><ele>16.0</ele><time>2026-04-04T07:40:12.827Z</time></trkpt><trkpt lat="42.177295" lon="14.638475"><ele>16.0</ele><time>2026-04-04T07:40:14.827Z</time></trkpt><trkpt lat="42.1773967" lon="14.6384583"><ele>16.0</ele><time>2026-04-04T07:40:16.827Z</time></trkpt><trkpt lat="42.177505" lon="14.6384417"><ele>16.0</ele><time>2026-04-04T07:40:18.827Z</time></trkpt><trkpt lat="42.17761" lon="14.63842"><ele>16.0</ele><time>2026-04-04T07:40:20.827Z</time></trkpt><trkpt lat="42.1777167" lon="14.6384017"><ele>15.600000000000001</ele><time>2026-04-04T07:40:22.827Z</time></trkpt><trkpt lat="42.1778217" lon="14.638385"><ele>15.200000000000001</ele><time>2026-04-04T07:40:24.827Z</time></trkpt><trkpt lat="42.17793" lon="14.638365"><ele>14.799999999999999</ele><time>2026-04-04T07:40:26.827Z</time></trkpt><trkpt lat="42.1780417" lon="14.63835"><ele>14.399999999999999</ele><time>2026-04-04T07:40:28.828Z</time></trkpt><trkpt lat="42.1781517" lon="14.638325"><ele>14.0</ele><time>2026-04-04T07:40:30.827Z</time></trkpt><trkpt lat="42.1782617" lon="14.638295"><ele>13.799999999999999</ele><time>2026-04-04T07:40:32.827Z</time></trkpt><trkpt lat="42.1783667" lon="14.6382667"><ele>13.599999999999998</ele><time>2026-04-04T07:40:34.827Z</time></trkpt><trkpt lat="42.1784667" lon="14.63823"><ele>13.4</ele><time>2026-04-04T07:40:36.827Z</time></trkpt><trkpt lat="42.178565" lon="14.6381867"><ele>13.2</ele><time>2026-04-04T07:40:38.827Z</time></trkpt><trkpt lat="42.178665" lon="14.6381417"><ele>13.0</ele><time>2026-04-04T07:40:40.827Z</time></trkpt><trkpt lat="42.1787583" lon="14.6380967"><ele>13.0</ele><time>2026-04-04T07:40:42.828Z</time></trkpt><trkpt lat="42.1788533" lon="14.638045"><ele>13.0</ele><time>2026-04-04T07:40:44.828Z</time></trkpt><trkpt lat="42.17895" lon="14.6379783"><ele>13.0</ele><time>2026-04-04T07:40:46.828Z</time></trkpt><trkpt lat="42.1790467" lon="14.63791"><ele>13.0</ele><time>2026-04-04T07:40:48.827Z</time></trkpt><trkpt lat="42.17914" lon="14.6378433"><ele>13.0</ele><time>2026-04-04T07:40:50.827Z</time></trkpt><trkpt lat="42.1792333" lon="14.6377733"><ele>13.8</ele><time>2026-04-04T07:40:52.827Z</time></trkpt><trkpt lat="42.179325" lon="14.6377067"><ele>14.600000000000001</ele><time>2026-04-04T07:40:54.827Z</time></trkpt><trkpt lat="42.1794183" lon="14.6376483"><ele>15.399999999999999</ele><time>2026-04-04T07:40:56.827Z</time></trkpt><trkpt lat="42.17952" lon="14.637585"><ele>16.2</ele><time>2026-04-04T07:40:58.827Z</time></trkpt><trkpt lat="42.1796167" lon="14.63752"><ele>17.0</ele><time>2026-04-04T07:41:00.827Z</time></trkpt><trkpt lat="42.179705" lon="14.6374617"><ele>17.0</ele><time>2026-04-04T07:41:02.827Z</time></trkpt><trkpt lat="42.179795" lon="14.6374"><ele>17.0</ele><time>2026-04-04T07:41:04.827Z</time></trkpt><trkpt lat="42.1798883" lon="14.6373383"><ele>17.0</ele><time>2026-04-04T07:41:06.827Z</time></trkpt><trkpt lat="42.1799817" lon="14.6372733"><ele>17.0</ele><time>2026-04-04T07:41:08.827Z</time></trkpt><trkpt lat="42.1800733" lon="14.63721"><ele>17.0</ele><time>2026-04-04T07:41:10.827Z</time></trkpt><trkpt lat="42.1801667" lon="14.6371517"><ele>16.6</ele><time>2026-04-04T07:41:12.827Z</time></trkpt><trkpt lat="42.180265" lon="14.6370833"><ele>16.2</ele><time>2026-04-04T07:41:14.827Z</time></trkpt><trkpt lat="42.1803667" lon="14.6370133"><ele>15.8</ele><time>2026-04-04T07:41:16.827Z</time></trkpt><trkpt lat="42.18046" lon="14.636955"><ele>15.4</ele><time>2026-04-04T07:41:18.827Z</time></trkpt><trkpt lat="42.1805533" lon="14.636895"><ele>15.0</ele><time>2026-04-04T07:41:20.827Z</time></trkpt><trkpt lat="42.180655" lon="14.63683"><ele>15.0</ele><time>2026-04-04T07:41:22.827Z</time></trkpt><trkpt lat="42.180755" lon="14.6367683"><ele>15.0</ele><time>2026-04-04T07:41:24.827Z</time></trkpt><trkpt lat="42.1808517" lon="14.6367"><ele>15.0</ele><time>2026-04-04T07:41:26.828Z</time></trkpt><trkpt lat="42.18094" lon="14.636635"><ele>15.0</ele><time>2026-04-04T07:41:28.828Z</time></trkpt><trkpt lat="42.18104" lon="14.6365667"><ele>15.0</ele><time>2026-04-04T07:41:30.827Z</time></trkpt><trkpt lat="42.1811417" lon="14.636505"><ele>15.0</ele><time>2026-04-04T07:41:32.827Z</time></trkpt><trkpt lat="42.181245" lon="14.63643"><ele>15.0</ele><time>2026-04-04T07:41:34.828Z</time></trkpt><trkpt lat="42.1813483" lon="14.6363583"><ele>15.0</ele><time>2026-04-04T07:41:36.827Z</time></trkpt><trkpt lat="42.18145" lon="14.6362833"><ele>15.0</ele><time>2026-04-04T07:41:38.827Z</time></trkpt><trkpt lat="42.1815533" lon="14.6362167"><ele>15.2</ele><time>2026-04-04T07:41:40.827Z</time></trkpt><trkpt lat="42.1816517" lon="14.6361533"><ele>15.4</ele><time>2026-04-04T07:41:42.827Z</time></trkpt><trkpt lat="42.1817533" lon="14.6360917"><ele>15.600000000000001</ele><time>2026-04-04T07:41:44.827Z</time></trkpt><trkpt lat="42.1818483" lon="14.6360317"><ele>15.8</ele><time>2026-04-04T07:41:46.827Z</time></trkpt><trkpt lat="42.181945" lon="14.6359633"><ele>16.0</ele><time>2026-04-04T07:41:48.827Z</time></trkpt><trkpt lat="42.1820483" lon="14.635895"><ele>16.0</ele><time>2026-04-04T07:41:50.827Z</time></trkpt><trkpt lat="42.1821067" lon="14.6358583"><ele>16.0</ele><time>2026-04-04T07:41:51.827Z</time></trkpt><trkpt lat="42.1822167" lon="14.6357833"><ele>16.0</ele><time>2026-04-04T07:41:53.827Z</time></trkpt><trkpt lat="42.1823233" lon="14.6357133"><ele>16.0</ele><time>2026-04-04T07:41:55.828Z</time></trkpt><trkpt lat="42.182425" lon="14.6356483"><ele>16.0</ele><time>2026-04-04T07:41:57.827Z</time></trkpt><trkpt lat="42.182525" lon="14.63558"><ele>15.600000000000001</ele><time>2026-04-04T07:41:59.828Z</time></trkpt><trkpt lat="42.1826233" lon="14.6355167"><ele>15.200000000000001</ele><time>2026-04-04T07:42:01.827Z</time></trkpt><trkpt lat="42.182725" lon="14.6354483"><ele>14.799999999999999</ele><time>2026-04-04T07:42:03.828Z</time></trkpt><trkpt lat="42.182825" lon="14.6353817"><ele>14.399999999999999</ele><time>2026-04-04T07:42:05.827Z</time></trkpt><trkpt lat="42.182925" lon="14.6353133"><ele>14.0</ele><time>2026-04-04T07:42:07.827Z</time></trkpt><trkpt lat="42.1830267" lon="14.635245"><ele>14.0</ele><time>2026-04-04T07:42:09.827Z</time></trkpt><trkpt lat="42.1831217" lon="14.6351833"><ele>13.999999999999998</ele><time>2026-04-04T07:42:11.828Z</time></trkpt><trkpt lat="42.18321" lon="14.6351217"><ele>13.999999999999998</ele><time>2026-04-04T07:42:13.827Z</time></trkpt><trkpt lat="42.1833017" lon="14.635065"><ele>14.0</ele><time>2026-04-04T07:42:15.827Z</time></trkpt><trkpt lat="42.1833917" lon="14.635005"><ele>14.0</ele><time>2026-04-04T07:42:17.828Z</time></trkpt><trkpt lat="42.1834817" lon="14.634945"><ele>13.6</ele><time>2026-04-04T07:42:19.827Z</time></trkpt><trkpt lat="42.183575" lon="14.63489"><ele>13.2</ele><time>2026-04-04T07:42:21.827Z</time></trkpt><trkpt lat="42.1836733" lon="14.6348283"><ele>12.799999999999999</ele><time>2026-04-04T07:42:23.827Z</time></trkpt><trkpt lat="42.1837667" lon="14.6347717"><ele>12.399999999999999</ele><time>2026-04-04T07:42:25.827Z</time></trkpt><trkpt lat="42.183865" lon="14.6347283"><ele>12.0</ele><time>2026-04-04T07:42:27.827Z</time></trkpt><trkpt lat="42.18396" lon="14.634685"><ele>11.6</ele><time>2026-04-04T07:42:29.827Z</time></trkpt><trkpt lat="42.1840533" lon="14.6346417"><ele>11.2</ele><time>2026-04-04T07:42:31.827Z</time></trkpt><trkpt lat="42.184145" lon="14.6346"><ele>10.8</ele><time>2026-04-04T07:42:33.827Z</time></trkpt><trkpt lat="42.1842383" lon="14.6345617"><ele>10.4</ele><time>2026-04-04T07:42:35.827Z</time></trkpt><trkpt lat="42.1843283" lon="14.6345183"><ele>10.0</ele><time>2026-04-04T07:42:37.827Z</time></trkpt><trkpt lat="42.1844233" lon="14.6344833"><ele>10.8</ele><time>2026-04-04T07:42:39.827Z</time></trkpt><trkpt lat="42.1845283" lon="14.63445"><ele>11.6</ele><time>2026-04-04T07:42:41.827Z</time></trkpt><trkpt lat="42.1846367" lon="14.6344167"><ele>12.399999999999999</ele><time>2026-04-04T07:42:43.827Z</time></trkpt><trkpt lat="42.1847433" lon="14.63439"><ele>13.2</ele><time>2026-04-04T07:42:45.828Z</time></trkpt><trkpt lat="42.1848517" lon="14.6343717"><ele>14.0</ele><time>2026-04-04T07:42:47.828Z</time></trkpt><trkpt lat="42.184955" lon="14.634355"><ele>14.0</ele><time>2026-04-04T07:42:49.827Z</time></trkpt><trkpt lat="42.18506" lon="14.6343417"><ele>13.999999999999998</ele><time>2026-04-04T07:42:51.828Z</time></trkpt><trkpt lat="42.185165" lon="14.6343267"><ele>13.999999999999998</ele><time>2026-04-04T07:42:53.828Z</time></trkpt><trkpt lat="42.1852717" lon="14.6343133"><ele>14.0</ele><time>2026-04-04T07:42:55.828Z</time></trkpt><trkpt lat="42.185385" lon="14.634295"><ele>14.0</ele><time>2026-04-04T07:42:57.828Z</time></trkpt><trkpt lat="42.1854967" lon="14.63428"><ele>14.0</ele><time>2026-04-04T07:42:59.827Z</time></trkpt><trkpt lat="42.1856083" lon="14.6342583"><ele>14.0</ele><time>2026-04-04T07:43:01.828Z</time></trkpt><trkpt lat="42.1857233" lon="14.63424"><ele>14.0</ele><time>2026-04-04T07:43:03.827Z</time></trkpt><trkpt lat="42.185835" lon="14.6342183"><ele>14.0</ele><time>2026-04-04T07:43:05.827Z</time></trkpt><trkpt lat="42.18595" lon="14.6342"><ele>13.75</ele><time>2026-04-04T07:43:07.827Z</time></trkpt><trkpt lat="42.18606" lon="14.634175"><ele>13.5</ele><time>2026-04-04T07:43:09.827Z</time></trkpt><trkpt lat="42.1861733" lon="14.6341567"><ele>13.25</ele><time>2026-04-04T07:43:11.827Z</time></trkpt><trkpt lat="42.1862867" lon="14.63413"><ele>13.0</ele><time>2026-04-04T07:43:13.827Z</time></trkpt><trkpt lat="42.1863967" lon="14.6341067"><ele>13.0</ele><time>2026-04-04T07:43:15.827Z</time></trkpt><trkpt lat="42.18651" lon="14.634085"><ele>13.0</ele><time>2026-04-04T07:43:17.827Z</time></trkpt><trkpt lat="42.186625" lon="14.6340683"><ele>13.0</ele><time>2026-04-04T07:43:19.827Z</time></trkpt><trkpt lat="42.1867383" lon="14.6340483"><ele>13.0</ele><time>2026-04-04T07:43:21.828Z</time></trkpt><trkpt lat="42.1868533" lon="14.63403"><ele>12.75</ele><time>2026-04-04T07:43:23.827Z</time></trkpt><trkpt lat="42.1869617" lon="14.6340117"><ele>12.5</ele><time>2026-04-04T07:43:25.827Z</time></trkpt><trkpt lat="42.1870733" lon="14.6339967"><ele>12.25</ele><time>2026-04-04T07:43:27.827Z</time></trkpt><trkpt lat="42.1871883" lon="14.6339717"><ele>12.0</ele><time>2026-04-04T07:43:29.827Z</time></trkpt><trkpt lat="42.1873133" lon="14.63394"><ele>12.0</ele><time>2026-04-04T07:43:31.827Z</time></trkpt><trkpt lat="42.18743" lon="14.63392"><ele>12.0</ele><time>2026-04-04T07:43:33.828Z</time></trkpt><trkpt lat="42.1875383" lon="14.6339"><ele>12.0</ele><time>2026-04-04T07:43:35.828Z</time></trkpt><trkpt lat="42.1876483" lon="14.6338783"><ele>12.0</ele><time>2026-04-04T07:43:37.828Z</time></trkpt><trkpt lat="42.1877617" lon="14.6338633"><ele>12.0</ele><time>2026-04-04T07:43:39.828Z</time></trkpt><trkpt lat="42.1878767" lon="14.6338417"><ele>12.0</ele><time>2026-04-04T07:43:41.827Z</time></trkpt><trkpt lat="42.1879933" lon="14.6338217"><ele>12.0</ele><time>2026-04-04T07:43:43.827Z</time></trkpt><trkpt lat="42.18811" lon="14.633805"><ele>12.0</ele><time>2026-04-04T07:43:45.827Z</time></trkpt><trkpt lat="42.1882233" lon="14.6337867"><ele>12.0</ele><time>2026-04-04T07:43:47.827Z</time></trkpt><trkpt lat="42.1883317" lon="14.6337717"><ele>12.0</ele><time>2026-04-04T07:43:49.827Z</time></trkpt><trkpt lat="42.1884417" lon="14.6337467"><ele>12.0</ele><time>2026-04-04T07:43:51.828Z</time></trkpt><trkpt lat="42.1885583" lon="14.6337267"><ele>12.0</ele><time>2026-04-04T07:43:53.827Z</time></trkpt><trkpt lat="42.18867" lon="14.6337017"><ele>12.0</ele><time>2026-04-04T07:43:55.827Z</time></trkpt><trkpt lat="42.1887817" lon="14.6336833"><ele>12.0</ele><time>2026-04-04T07:43:57.827Z</time></trkpt><trkpt lat="42.1888917" lon="14.6336667"><ele>12.0</ele><time>2026-04-04T07:43:59.827Z</time></trkpt><trkpt lat="42.189005" lon="14.633645"><ele>12.0</ele><time>2026-04-04T07:44:01.828Z</time></trkpt><trkpt lat="42.189115" lon="14.633625"><ele>12.0</ele><time>2026-04-04T07:44:03.827Z</time></trkpt><trkpt lat="42.189225" lon="14.6336083"><ele>13.399999999999999</ele><time>2026-04-04T07:44:05.828Z</time></trkpt><trkpt lat="42.18933" lon="14.63359"><ele>14.799999999999999</ele><time>2026-04-04T07:44:07.828Z</time></trkpt><trkpt lat="42.1894367" lon="14.63357"><ele>16.2</ele><time>2026-04-04T07:44:09.828Z</time></trkpt><trkpt lat="42.1895467" lon="14.6335483"><ele>17.599999999999998</ele><time>2026-04-04T07:44:11.827Z</time></trkpt><trkpt lat="42.18966" lon="14.63353"><ele>19.0</ele><time>2026-04-04T07:44:13.827Z</time></trkpt><trkpt lat="42.1897767" lon="14.633505"><ele>19.0</ele><time>2026-04-04T07:44:15.827Z</time></trkpt><trkpt lat="42.1898883" lon="14.633485"><ele>19.0</ele><time>2026-04-04T07:44:17.827Z</time></trkpt><trkpt lat="42.189995" lon="14.6334667"><ele>19.0</ele><time>2026-04-04T07:44:19.828Z</time></trkpt><trkpt lat="42.1901" lon="14.6334533"><ele>19.0</ele><time>2026-04-04T07:44:21.827Z</time></trkpt><trkpt lat="42.190205" lon="14.6334417"><ele>19.0</ele><time>2026-04-04T07:44:23.827Z</time></trkpt><trkpt lat="42.1903133" lon="14.6334233"><ele>19.0</ele><time>2026-04-04T07:44:25.827Z</time></trkpt><trkpt lat="42.1904233" lon="14.6334033"><ele>19.0</ele><time>2026-04-04T07:44:27.827Z</time></trkpt><trkpt lat="42.1905283" lon="14.6333867"><ele>19.0</ele><time>2026-04-04T07:44:29.827Z</time></trkpt><trkpt lat="42.1906317" lon="14.6333667"><ele>19.0</ele><time>2026-04-04T07:44:31.827Z</time></trkpt><trkpt lat="42.1907383" lon="14.6333467"><ele>19.0</ele><time>2026-04-04T07:44:33.827Z</time></trkpt><trkpt lat="42.1908467" lon="14.6333283"><ele>17.75</ele><time>2026-04-04T07:44:35.827Z</time></trkpt><trkpt lat="42.190955" lon="14.6333133"><ele>16.5</ele><time>2026-04-04T07:44:37.827Z</time></trkpt><trkpt lat="42.19106" lon="14.6332967"><ele>15.25</ele><time>2026-04-04T07:44:39.828Z</time></trkpt><trkpt lat="42.1911717" lon="14.6332733"><ele>14.0</ele><time>2026-04-04T07:44:41.827Z</time></trkpt><trkpt lat="42.1912933" lon="14.63325"><ele>14.000000000000002</ele><time>2026-04-04T07:44:43.827Z</time></trkpt><trkpt lat="42.1913567" lon="14.63324"><ele>14.0</ele><time>2026-04-04T07:44:44.827Z</time></trkpt><trkpt lat="42.1914817" lon="14.6332167"><ele>14.0</ele><time>2026-04-04T07:44:46.828Z</time></trkpt><trkpt lat="42.191605" lon="14.633195"><ele>14.0</ele><time>2026-04-04T07:44:48.827Z</time></trkpt><trkpt lat="42.1916683" lon="14.6331833"><ele>14.000000000000002</ele><time>2026-04-04T07:44:49.827Z</time></trkpt><trkpt lat="42.1917333" lon="14.6331733"><ele>14.0</ele><time>2026-04-04T07:44:50.827Z</time></trkpt><trkpt lat="42.1918" lon="14.6331633"><ele>13.571428571428571</ele><time>2026-04-04T07:44:51.827Z</time></trkpt><trkpt lat="42.1918667" lon="14.6331533"><ele>13.142857142857142</ele><time>2026-04-04T07:44:52.827Z</time></trkpt><trkpt lat="42.1919333" lon="14.6331433"><ele>12.714285714285715</ele><time>2026-04-04T07:44:53.828Z</time></trkpt><trkpt lat="42.192" lon="14.6331317"><ele>12.285714285714285</ele><time>2026-04-04T07:44:54.827Z</time></trkpt><trkpt lat="42.19207" lon="14.6331233"><ele>11.857142857142858</ele><time>2026-04-04T07:44:55.827Z</time></trkpt><trkpt lat="42.1921383" lon="14.6331117"><ele>11.428571428571429</ele><time>2026-04-04T07:44:56.827Z</time></trkpt><trkpt lat="42.1922033" lon="14.6331"><ele>11.0</ele><time>2026-04-04T07:44:57.827Z</time></trkpt><trkpt lat="42.1922667" lon="14.633085"><ele>11.0</ele><time>2026-04-04T07:44:58.827Z</time></trkpt><trkpt lat="42.19233" lon="14.6330717"><ele>11.0</ele><time>2026-04-04T07:44:59.827Z</time></trkpt><trkpt lat="42.192455" lon="14.6330533"><ele>11.0</ele><time>2026-04-04T07:45:01.827Z</time></trkpt><trkpt lat="42.1925783" lon="14.6330167"><ele>11.0</ele><time>2026-04-04T07:45:03.827Z</time></trkpt><trkpt lat="42.1927017" lon="14.6329783"><ele>11.0</ele><time>2026-04-04T07:45:05.827Z</time></trkpt><trkpt lat="42.1927617" lon="14.6329483"><ele>10.833333333333332</ele><time>2026-04-04T07:45:06.828Z</time></trkpt><trkpt lat="42.19282" lon="14.6329117"><ele>10.666666666666666</ele><time>2026-04-04T07:45:07.827Z</time></trkpt><trkpt lat="42.19288" lon="14.6328633"><ele>10.5</ele><time>2026-04-04T07:45:08.827Z</time></trkpt><trkpt lat="42.192935" lon="14.632815"><ele>10.333333333333334</ele><time>2026-04-04T07:45:09.828Z</time></trkpt><trkpt lat="42.1930283" lon="14.6327167"><ele>10.166666666666668</ele><time>2026-04-04T07:45:11.828Z</time></trkpt><trkpt lat="42.1931167" lon="14.6326017"><ele>10.0</ele><time>2026-04-04T07:45:13.827Z</time></trkpt><trkpt lat="42.1931967" lon="14.6324783"><ele>10.0</ele><time>2026-04-04T07:45:15.827Z</time></trkpt><trkpt lat="42.193255" lon="14.632335"><ele>10.0</ele><time>2026-04-04T07:45:17.827Z</time></trkpt><trkpt lat="42.19331" lon="14.6321833"><ele>10.0</ele><time>2026-04-04T07:45:19.827Z</time></trkpt><trkpt lat="42.193355" lon="14.6320283"><ele>10.0</ele><time>2026-04-04T07:45:21.827Z</time></trkpt><trkpt lat="42.1933967" lon="14.63187"><ele>10.166666666666668</ele><time>2026-04-04T07:45:23.827Z</time></trkpt><trkpt lat="42.193435" lon="14.63171"><ele>10.333333333333334</ele><time>2026-04-04T07:45:25.827Z</time></trkpt><trkpt lat="42.1934467" lon="14.631625"><ele>10.5</ele><time>2026-04-04T07:45:26.827Z</time></trkpt><trkpt lat="42.1934583" lon="14.6315317"><ele>10.666666666666666</ele><time>2026-04-04T07:45:27.827Z</time></trkpt><trkpt lat="42.1934817" lon="14.6314517"><ele>10.833333333333332</ele><time>2026-04-04T07:45:28.828Z</time></trkpt><trkpt lat="42.1935033" lon="14.6313683"><ele>11.0</ele><time>2026-04-04T07:45:29.827Z</time></trkpt><trkpt lat="42.1935267" lon="14.6312867"><ele>11.0</ele><time>2026-04-04T07:45:30.828Z</time></trkpt><trkpt lat="42.19355" lon="14.631205"><ele>11.0</ele><time>2026-04-04T07:45:31.827Z</time></trkpt><trkpt lat="42.1935717" lon="14.6311233"><ele>11.0</ele><time>2026-04-04T07:45:32.827Z</time></trkpt><trkpt lat="42.1935917" lon="14.6310383"><ele>11.0</ele><time>2026-04-04T07:45:33.828Z</time></trkpt><trkpt lat="42.19363" lon="14.63088"><ele>11.0</ele><time>2026-04-04T07:45:35.828Z</time></trkpt><trkpt lat="42.1936617" lon="14.630715"><ele>11.0</ele><time>2026-04-04T07:45:37.827Z</time></trkpt><trkpt lat="42.1936767" lon="14.6306317"><ele>11.75</ele><time>2026-04-04T07:45:38.827Z</time></trkpt><trkpt lat="42.193705" lon="14.6304767"><ele>12.5</ele><time>2026-04-04T07:45:40.827Z</time></trkpt><trkpt lat="42.1937383" lon="14.6303283"><ele>13.25</ele><time>2026-04-04T07:45:42.827Z</time></trkpt><trkpt lat="42.1937717" lon="14.6301917"><ele>14.0</ele><time>2026-04-04T07:45:44.828Z</time></trkpt><trkpt lat="42.1937967" lon="14.630035"><ele>16.2</ele><time>2026-04-04T07:45:46.827Z</time></trkpt><trkpt lat="42.19383" lon="14.6298883"><ele>18.4</ele><time>2026-04-04T07:45:48.827Z</time></trkpt><trkpt lat="42.193865" lon="14.62975"><ele>20.6</ele><time>2026-04-04T07:45:50.827Z</time></trkpt><trkpt lat="42.1939" lon="14.6296133"><ele>22.8</ele><time>2026-04-04T07:45:52.827Z</time></trkpt><trkpt lat="42.1939383" lon="14.6294683"><ele>25.0</ele><time>2026-04-04T07:45:54.827Z</time></trkpt><trkpt lat="42.19397" lon="14.62933"><ele>26.2</ele><time>2026-04-04T07:45:56.827Z</time></trkpt><trkpt lat="42.1940017" lon="14.6292017"><ele>27.4</ele><time>2026-04-04T07:45:58.827Z</time></trkpt><trkpt lat="42.19403" lon="14.6290717"><ele>28.6</ele><time>2026-04-04T07:46:00.827Z</time></trkpt><trkpt lat="42.1940633" lon="14.6289333"><ele>29.8</ele><time>2026-04-04T07:46:02.827Z</time></trkpt><trkpt lat="42.1940917" lon="14.6287867"><ele>31.0</ele><time>2026-04-04T07:46:04.828Z</time></trkpt><trkpt lat="42.1941267" lon="14.6286517"><ele>27.0</ele><time>2026-04-04T07:46:06.827Z</time></trkpt><trkpt lat="42.1941633" lon="14.62851"><ele>23.0</ele><time>2026-04-04T07:46:08.827Z</time></trkpt><trkpt lat="42.1941983" lon="14.628375"><ele>19.0</ele><time>2026-04-04T07:46:10.827Z</time></trkpt><trkpt lat="42.194225" lon="14.6282433"><ele>15.0</ele><time>2026-04-04T07:46:12.827Z</time></trkpt><trkpt lat="42.194255" lon="14.62811"><ele>11.0</ele><time>2026-04-04T07:46:14.827Z</time></trkpt><trkpt lat="42.1942883" lon="14.6279767"><ele>11.0</ele><time>2026-04-04T07:46:16.827Z</time></trkpt><trkpt lat="42.1943183" lon="14.6278417"><ele>11.0</ele><time>2026-04-04T07:46:18.827Z</time></trkpt><trkpt lat="42.1943617" lon="14.6277233"><ele>11.0</ele><time>2026-04-04T07:46:20.827Z</time></trkpt><trkpt lat="42.1944283" lon="14.6276233"><ele>11.0</ele><time>2026-04-04T07:46:22.828Z</time></trkpt><trkpt lat="42.1945" lon="14.6275017"><ele>11.0</ele><time>2026-04-04T07:46:24.827Z</time></trkpt><trkpt lat="42.19454" lon="14.62736"><ele>10.8</ele><time>2026-04-04T07:46:26.827Z</time></trkpt><trkpt lat="42.19454" lon="14.627215"><ele>10.600000000000001</ele><time>2026-04-04T07:46:28.827Z</time></trkpt><trkpt lat="42.19454" lon="14.6270733"><ele>10.4</ele><time>2026-04-04T07:46:30.827Z</time></trkpt><trkpt lat="42.194545" lon="14.6269383"><ele>10.2</ele><time>2026-04-04T07:46:32.827Z</time></trkpt><trkpt lat="42.1945717" lon="14.6268033"><ele>10.0</ele><time>2026-04-04T07:46:34.827Z</time></trkpt><trkpt lat="42.1945983" lon="14.626665"><ele>10.2</ele><time>2026-04-04T07:46:36.827Z</time></trkpt><trkpt lat="42.1946233" lon="14.6265267"><ele>10.4</ele><time>2026-04-04T07:46:38.828Z</time></trkpt><trkpt lat="42.1946583" lon="14.6263917"><ele>10.600000000000001</ele><time>2026-04-04T07:46:40.827Z</time></trkpt><trkpt lat="42.19469" lon="14.6262533"><ele>10.8</ele><time>2026-04-04T07:46:42.827Z</time></trkpt><trkpt lat="42.19472" lon="14.6261017"><ele>11.0</ele><time>2026-04-04T07:46:44.828Z</time></trkpt><trkpt lat="42.1947483" lon="14.62596"><ele>11.0</ele><time>2026-04-04T07:46:46.827Z</time></trkpt><trkpt lat="42.1947767" lon="14.6258233"><ele>11.0</ele><time>2026-04-04T07:46:48.827Z</time></trkpt><trkpt lat="42.19481" lon="14.625685"><ele>11.0</ele><time>2026-04-04T07:46:50.827Z</time></trkpt><trkpt lat="42.19484" lon="14.6255467"><ele>11.0</ele><time>2026-04-04T07:46:52.828Z</time></trkpt><trkpt lat="42.1948717" lon="14.6253983"><ele>11.0</ele><time>2026-04-04T07:46:54.828Z</time></trkpt><trkpt lat="42.1949033" lon="14.6252617"><ele>10.8</ele><time>2026-04-04T07:46:56.828Z</time></trkpt><trkpt lat="42.1949367" lon="14.6251267"><ele>10.600000000000001</ele><time>2026-04-04T07:46:58.827Z</time></trkpt><trkpt lat="42.1949683" lon="14.6250033"><ele>10.4</ele><time>2026-04-04T07:47:00.827Z</time></trkpt><trkpt lat="42.1950083" lon="14.624885"><ele>10.2</ele><time>2026-04-04T07:47:02.827Z</time></trkpt><trkpt lat="42.195055" lon="14.624755"><ele>10.0</ele><time>2026-04-04T07:47:04.827Z</time></trkpt><trkpt lat="42.1951183" lon="14.6246383"><ele>10.0</ele><time>2026-04-04T07:47:06.827Z</time></trkpt><trkpt lat="42.1951917" lon="14.6245333"><ele>10.0</ele><time>2026-04-04T07:47:08.827Z</time></trkpt><trkpt lat="42.1952683" lon="14.624445"><ele>10.0</ele><time>2026-04-04T07:47:10.828Z</time></trkpt><trkpt lat="42.1953467" lon="14.62437"><ele>10.0</ele><time>2026-04-04T07:47:12.827Z</time></trkpt><trkpt lat="42.1954333" lon="14.6243117"><ele>10.0</ele><time>2026-04-04T07:47:14.827Z</time></trkpt><trkpt lat="42.195525" lon="14.6242517"><ele>10.2</ele><time>2026-04-04T07:47:16.827Z</time></trkpt><trkpt lat="42.1956183" lon="14.6241967"><ele>10.4</ele><time>2026-04-04T07:47:18.827Z</time></trkpt><trkpt lat="42.1957083" lon="14.624145"><ele>10.600000000000001</ele><time>2026-04-04T07:47:20.827Z</time></trkpt><trkpt lat="42.1957983" lon="14.6240867"><ele>10.8</ele><time>2026-04-04T07:47:22.828Z</time></trkpt><trkpt lat="42.1958883" lon="14.62402"><ele>11.0</ele><time>2026-04-04T07:47:24.827Z</time></trkpt><trkpt lat="42.19597" lon="14.6239633"><ele>11.0</ele><time>2026-04-04T07:47:26.827Z</time></trkpt><trkpt lat="42.196045" lon="14.6239083"><ele>11.0</ele><time>2026-04-04T07:47:28.827Z</time></trkpt><trkpt lat="42.1961217" lon="14.6238483"><ele>11.0</ele><time>2026-04-04T07:47:30.827Z</time></trkpt><trkpt lat="42.1961983" lon="14.6237833"><ele>11.0</ele><time>2026-04-04T07:47:32.828Z</time></trkpt><trkpt lat="42.1962733" lon="14.623715"><ele>11.0</ele><time>2026-04-04T07:47:34.827Z</time></trkpt><trkpt lat="42.1963367" lon="14.6236417"><ele>11.0</ele><time>2026-04-04T07:47:36.827Z</time></trkpt><trkpt lat="42.196395" lon="14.6235683"><ele>11.333333333333332</ele><time>2026-04-04T07:47:38.827Z</time></trkpt><trkpt lat="42.1964517" lon="14.623495"><ele>11.666666666666666</ele><time>2026-04-04T07:47:40.828Z</time></trkpt><trkpt lat="42.1965067" lon="14.623415"><ele>12.0</ele><time>2026-04-04T07:47:42.827Z</time></trkpt><trkpt lat="42.1965633" lon="14.623335"><ele>12.333333333333332</ele><time>2026-04-04T07:47:44.827Z</time></trkpt><trkpt lat="42.1966233" lon="14.623245"><ele>12.666666666666666</ele><time>2026-04-04T07:47:46.828Z</time></trkpt><trkpt lat="42.1966783" lon="14.6231517"><ele>13.0</ele><time>2026-04-04T07:47:48.828Z</time></trkpt><trkpt lat="42.1967283" lon="14.6230583"><ele>13.333333333333332</ele><time>2026-04-04T07:47:50.828Z</time></trkpt><trkpt lat="42.1967667" lon="14.62297"><ele>13.666666666666666</ele><time>2026-04-04T07:47:52.827Z</time></trkpt><trkpt lat="42.1968017" lon="14.6228767"><ele>14.0</ele><time>2026-04-04T07:47:54.827Z</time></trkpt><trkpt lat="42.1968383" lon="14.6227767"><ele>14.333333333333332</ele><time>2026-04-04T07:47:56.827Z</time></trkpt><trkpt lat="42.1968733" lon="14.6226767"><ele>14.666666666666666</ele><time>2026-04-04T07:47:58.828Z</time></trkpt><trkpt lat="42.1969017" lon="14.6225783"><ele>15.0</ele><time>2026-04-04T07:48:00.828Z</time></trkpt><trkpt lat="42.19693" lon="14.6224767"><ele>15.5</ele><time>2026-04-04T07:48:02.828Z</time></trkpt><trkpt lat="42.1969583" lon="14.6223733"><ele>16.0</ele><time>2026-04-04T07:48:04.827Z</time></trkpt><trkpt lat="42.1969783" lon="14.6222617"><ele>16.5</ele><time>2026-04-04T07:48:06.827Z</time></trkpt><trkpt lat="42.1970067" lon="14.622155"><ele>17.0</ele><time>2026-04-04T07:48:08.827Z</time></trkpt><trkpt lat="42.1970333" lon="14.6220433"><ele>17.5</ele><time>2026-04-04T07:48:10.827Z</time></trkpt><trkpt lat="42.19705" lon="14.6219333"><ele>18.0</ele><time>2026-04-04T07:48:12.828Z</time></trkpt><trkpt lat="42.19707" lon="14.6218283"><ele>18.4</ele><time>2026-04-04T07:48:14.827Z</time></trkpt><trkpt lat="42.1970833" lon="14.6217167"><ele>18.8</ele><time>2026-04-04T07:48:16.827Z</time></trkpt><trkpt lat="42.1971" lon="14.6216033"><ele>19.2</ele><time>2026-04-04T07:48:18.828Z</time></trkpt><trkpt lat="42.1971167" lon="14.6214833"><ele>19.6</ele><time>2026-04-04T07:48:20.828Z</time></trkpt><trkpt lat="42.1971383" lon="14.6213583"><ele>20.0</ele><time>2026-04-04T07:48:22.827Z</time></trkpt><trkpt lat="42.1971633" lon="14.6212283"><ele>20.8</ele><time>2026-04-04T07:48:24.827Z</time></trkpt><trkpt lat="42.197185" lon="14.6210883"><ele>21.6</ele><time>2026-04-04T07:48:26.828Z</time></trkpt><trkpt lat="42.1972033" lon="14.6209583"><ele>22.4</ele><time>2026-04-04T07:48:28.827Z</time></trkpt><trkpt lat="42.1972233" lon="14.620835"><ele>23.2</ele><time>2026-04-04T07:48:30.828Z</time></trkpt><trkpt lat="42.1972433" lon="14.620705"><ele>24.0</ele><time>2026-04-04T07:48:32.827Z</time></trkpt><trkpt lat="42.1972633" lon="14.6205733"><ele>24.0</ele><time>2026-04-04T07:48:34.827Z</time></trkpt><trkpt lat="42.1972833" lon="14.6204467"><ele>24.0</ele><time>2026-04-04T07:48:36.827Z</time></trkpt><trkpt lat="42.1973" lon="14.6203217"><ele>24.0</ele><time>2026-04-04T07:48:38.827Z</time></trkpt><trkpt lat="42.1973183" lon="14.620195"><ele>24.0</ele><time>2026-04-04T07:48:40.828Z</time></trkpt><trkpt lat="42.1973367" lon="14.62007"><ele>24.0</ele><time>2026-04-04T07:48:42.827Z</time></trkpt><trkpt lat="42.1973533" lon="14.6199367"><ele>23.4</ele><time>2026-04-04T07:48:44.827Z</time></trkpt><trkpt lat="42.1973767" lon="14.619815"><ele>22.799999999999997</ele><time>2026-04-04T07:48:46.828Z</time></trkpt><trkpt lat="42.1973983" lon="14.6196933"><ele>22.200000000000003</ele><time>2026-04-04T07:48:48.827Z</time></trkpt><trkpt lat="42.1974167" lon="14.61957"><ele>21.6</ele><time>2026-04-04T07:48:50.827Z</time></trkpt><trkpt lat="42.197435" lon="14.6194467"><ele>21.0</ele><time>2026-04-04T07:48:52.827Z</time></trkpt><trkpt lat="42.1974617" lon="14.6193183"><ele>21.0</ele><time>2026-04-04T07:48:54.828Z</time></trkpt><trkpt lat="42.1974833" lon="14.6191883"><ele>21.0</ele><time>2026-04-04T07:48:56.827Z</time></trkpt><trkpt lat="42.197505" lon="14.619055"><ele>21.0</ele><time>2026-04-04T07:48:58.827Z</time></trkpt><trkpt lat="42.1975217" lon="14.6189267"><ele>21.0</ele><time>2026-04-04T07:49:00.828Z</time></trkpt><trkpt lat="42.1975433" lon="14.6187933"><ele>21.0</ele><time>2026-04-04T07:49:02.827Z</time></trkpt><trkpt lat="42.1975617" lon="14.6186683"><ele>21.8</ele><time>2026-04-04T07:49:04.829Z</time></trkpt><trkpt lat="42.197585" lon="14.6185333"><ele>22.6</ele><time>2026-04-04T07:49:06.828Z</time></trkpt><trkpt lat="42.1976117" lon="14.6184033"><ele>23.4</ele><time>2026-04-04T07:49:08.828Z</time></trkpt><trkpt lat="42.19764" lon="14.61827"><ele>24.2</ele><time>2026-04-04T07:49:10.828Z</time></trkpt><trkpt lat="42.1976733" lon="14.61813"><ele>25.0</ele><time>2026-04-04T07:49:12.828Z</time></trkpt><trkpt lat="42.1977133" lon="14.6180033"><ele>25.0</ele><time>2026-04-04T07:49:14.828Z</time></trkpt><trkpt lat="42.1977517" lon="14.617865"><ele>25.0</ele><time>2026-04-04T07:49:16.828Z</time></trkpt><trkpt lat="42.1977967" lon="14.6177233"><ele>25.0</ele><time>2026-04-04T07:49:18.829Z</time></trkpt><trkpt lat="42.19785" lon="14.617585"><ele>25.0</ele><time>2026-04-04T07:49:20.828Z</time></trkpt><trkpt lat="42.19788" lon="14.61751"><ele>25.0</ele><time>2026-04-04T07:49:21.828Z</time></trkpt><trkpt lat="42.197945" lon="14.6173717"><ele>23.8</ele><time>2026-04-04T07:49:23.828Z</time></trkpt><trkpt lat="42.19801" lon="14.6172383"><ele>22.6</ele><time>2026-04-04T07:49:25.828Z</time></trkpt><trkpt lat="42.1980467" lon="14.6171567"><ele>21.4</ele><time>2026-04-04T07:49:26.828Z</time></trkpt><trkpt lat="42.1981133" lon="14.6170367"><ele>20.2</ele><time>2026-04-04T07:49:28.828Z</time></trkpt><trkpt lat="42.1981767" lon="14.6168983"><ele>19.0</ele><time>2026-04-04T07:49:30.828Z</time></trkpt><trkpt lat="42.1982417" lon="14.61677"><ele>19.0</ele><time>2026-04-04T07:49:32.828Z</time></trkpt><trkpt lat="42.1983183" lon="14.616645"><ele>19.0</ele><time>2026-04-04T07:49:34.828Z</time></trkpt><trkpt lat="42.19839" lon="14.616515"><ele>19.0</ele><time>2026-04-04T07:49:36.829Z</time></trkpt><trkpt lat="42.198465" lon="14.6163833"><ele>19.0</ele><time>2026-04-04T07:49:38.828Z</time></trkpt><trkpt lat="42.1985333" lon="14.6162617"><ele>21.75</ele><time>2026-04-04T07:49:40.828Z</time></trkpt><trkpt lat="42.1986017" lon="14.616135"><ele>24.5</ele><time>2026-04-04T07:49:42.828Z</time></trkpt><trkpt lat="42.1986833" lon="14.6160067"><ele>27.25</ele><time>2026-04-04T07:49:44.828Z</time></trkpt><trkpt lat="42.1987533" lon="14.6158717"><ele>30.0</ele><time>2026-04-04T07:49:46.828Z</time></trkpt><trkpt lat="42.1988267" lon="14.61574"><ele>30.0</ele><time>2026-04-04T07:49:48.828Z</time></trkpt><trkpt lat="42.1988983" lon="14.6156083"><ele>30.0</ele><time>2026-04-04T07:49:50.828Z</time></trkpt><trkpt lat="42.1989683" lon="14.61549"><ele>30.0</ele><time>2026-04-04T07:49:52.828Z</time></trkpt><trkpt lat="42.1990333" lon="14.6153667"><ele>30.0</ele><time>2026-04-04T07:49:54.828Z</time></trkpt><trkpt lat="42.1991033" lon="14.6152383"><ele>27.75</ele><time>2026-04-04T07:49:56.828Z</time></trkpt><trkpt lat="42.19917" lon="14.61511"><ele>25.5</ele><time>2026-04-04T07:49:58.828Z</time></trkpt><trkpt lat="42.1992433" lon="14.614975"><ele>23.25</ele><time>2026-04-04T07:50:00.828Z</time></trkpt><trkpt lat="42.1993133" lon="14.6148383"><ele>21.0</ele><time>2026-04-04T07:50:02.828Z</time></trkpt><trkpt lat="42.199385" lon="14.6147033"><ele>21.0</ele><time>2026-04-04T07:50:04.828Z</time></trkpt><trkpt lat="42.1994583" lon="14.61457"><ele>21.0</ele><time>2026-04-04T07:50:06.829Z</time></trkpt><trkpt lat="42.1995283" lon="14.614455"><ele>21.0</ele><time>2026-04-04T07:50:08.828Z</time></trkpt><trkpt lat="42.1995933" lon="14.6143233"><ele>21.0</ele><time>2026-04-04T07:50:10.828Z</time></trkpt><trkpt lat="42.1996533" lon="14.6141933"><ele>19.6</ele><time>2026-04-04T07:50:12.828Z</time></trkpt><trkpt lat="42.1997117" lon="14.6140617"><ele>18.200000000000003</ele><time>2026-04-04T07:50:14.828Z</time></trkpt><trkpt lat="42.19977" lon="14.6139283"><ele>16.799999999999997</ele><time>2026-04-04T07:50:16.828Z</time></trkpt><trkpt lat="42.1998233" lon="14.6137817"><ele>15.399999999999999</ele><time>2026-04-04T07:50:18.828Z</time></trkpt><trkpt lat="42.19985" lon="14.6137033"><ele>14.0</ele><time>2026-04-04T07:50:19.828Z</time></trkpt><trkpt lat="42.1998967" lon="14.6135533"><ele>14.000000000000002</ele><time>2026-04-04T07:50:21.828Z</time></trkpt><trkpt lat="42.1999183" lon="14.6134717"><ele>14.0</ele><time>2026-04-04T07:50:22.828Z</time></trkpt><trkpt lat="42.199935" lon="14.6133833"><ele>14.0</ele><time>2026-04-04T07:50:23.829Z</time></trkpt><trkpt lat="42.1999683" lon="14.6132167"><ele>14.0</ele><time>2026-04-04T07:50:25.828Z</time></trkpt><trkpt lat="42.199985" lon="14.6131333"><ele>14.000000000000002</ele><time>2026-04-04T07:50:26.828Z</time></trkpt><trkpt lat="42.2000067" lon="14.61297"><ele>14.0</ele><time>2026-04-04T07:50:28.828Z</time></trkpt><trkpt lat="42.2000267" lon="14.6128017"><ele>13.833333333333334</ele><time>2026-04-04T07:50:30.828Z</time></trkpt><trkpt lat="42.2000333" lon="14.6127167"><ele>13.666666666666668</ele><time>2026-04-04T07:50:31.828Z</time></trkpt><trkpt lat="42.2000467" lon="14.6125517"><ele>13.5</ele><time>2026-04-04T07:50:33.828Z</time></trkpt><trkpt lat="42.2000467" lon="14.6124667"><ele>13.333333333333332</ele><time>2026-04-04T07:50:34.828Z</time></trkpt><trkpt lat="42.20005" lon="14.6123717"><ele>13.166666666666666</ele><time>2026-04-04T07:50:35.828Z</time></trkpt><trkpt lat="42.2000517" lon="14.6122817"><ele>13.0</ele><time>2026-04-04T07:50:36.828Z</time></trkpt><trkpt lat="42.2000517" lon="14.612195"><ele>13.0</ele><time>2026-04-04T07:50:37.828Z</time></trkpt><trkpt lat="42.20005" lon="14.6121083"><ele>13.0</ele><time>2026-04-04T07:50:38.829Z</time></trkpt><trkpt lat="42.2000417" lon="14.61202"><ele>13.0</ele><time>2026-04-04T07:50:39.828Z</time></trkpt><trkpt lat="42.2000317" lon="14.6119283"><ele>13.0</ele><time>2026-04-04T07:50:40.828Z</time></trkpt><trkpt lat="42.20002" lon="14.6118367"><ele>13.0</ele><time>2026-04-04T07:50:41.828Z</time></trkpt><trkpt lat="42.20001" lon="14.61175"><ele>13.0</ele><time>2026-04-04T07:50:42.828Z</time></trkpt><trkpt lat="42.2" lon="14.6116617"><ele>13.0</ele><time>2026-04-04T07:50:43.828Z</time></trkpt><trkpt lat="42.1999917" lon="14.611575"><ele>12.833333333333332</ele><time>2026-04-04T07:50:44.828Z</time></trkpt><trkpt lat="42.1999833" lon="14.6114867"><ele>12.666666666666666</ele><time>2026-04-04T07:50:45.828Z</time></trkpt><trkpt lat="42.19997" lon="14.6114"><ele>12.5</ele><time>2026-04-04T07:50:46.829Z</time></trkpt><trkpt lat="42.1999367" lon="14.6112333"><ele>12.333333333333332</ele><time>2026-04-04T07:50:48.828Z</time></trkpt><trkpt lat="42.1999183" lon="14.6111467"><ele>12.166666666666666</ele><time>2026-04-04T07:50:49.829Z</time></trkpt><trkpt lat="42.1999017" lon="14.6110633"><ele>12.0</ele><time>2026-04-04T07:50:50.828Z</time></trkpt><trkpt lat="42.1998817" lon="14.610975"><ele>11.999999999999998</ele><time>2026-04-04T07:50:51.828Z</time></trkpt><trkpt lat="42.1998633" lon="14.610885"><ele>12.0</ele><time>2026-04-04T07:50:52.828Z</time></trkpt><trkpt lat="42.199845" lon="14.6108"><ele>12.0</ele><time>2026-04-04T07:50:53.828Z</time></trkpt><trkpt lat="42.199825" lon="14.6107133"><ele>12.0</ele><time>2026-04-04T07:50:54.828Z</time></trkpt><trkpt lat="42.1998033" lon="14.610625"><ele>12.0</ele><time>2026-04-04T07:50:55.828Z</time></trkpt><trkpt lat="42.19978" lon="14.6105383"><ele>11.999999999999998</ele><time>2026-04-04T07:50:56.828Z</time></trkpt><trkpt lat="42.1997633" lon="14.6104533"><ele>12.0</ele><time>2026-04-04T07:50:57.828Z</time></trkpt><trkpt lat="42.1997467" lon="14.61037"><ele>13.8</ele><time>2026-04-04T07:50:58.828Z</time></trkpt><trkpt lat="42.1997233" lon="14.6102867"><ele>15.6</ele><time>2026-04-04T07:50:59.828Z</time></trkpt><trkpt lat="42.199705" lon="14.6102"><ele>17.400000000000002</ele><time>2026-04-04T07:51:00.829Z</time></trkpt><trkpt lat="42.1996667" lon="14.610035"><ele>19.2</ele><time>2026-04-04T07:51:02.828Z</time></trkpt><trkpt lat="42.1996433" lon="14.60995"><ele>21.0</ele><time>2026-04-04T07:51:03.828Z</time></trkpt><trkpt lat="42.199605" lon="14.60979"><ele>21.0</ele><time>2026-04-04T07:51:05.829Z</time></trkpt><trkpt lat="42.1995717" lon="14.609625"><ele>21.0</ele><time>2026-04-04T07:51:07.828Z</time></trkpt><trkpt lat="42.199555" lon="14.6095417"><ele>21.0</ele><time>2026-04-04T07:51:08.828Z</time></trkpt><trkpt lat="42.1995367" lon="14.6094567"><ele>21.0</ele><time>2026-04-04T07:51:09.828Z</time></trkpt><trkpt lat="42.199515" lon="14.6093717"><ele>21.0</ele><time>2026-04-04T07:51:10.829Z</time></trkpt><trkpt lat="42.1994967" lon="14.6092883"><ele>21.0</ele><time>2026-04-04T07:51:11.829Z</time></trkpt><trkpt lat="42.1994733" lon="14.609205"><ele>20.714285714285715</ele><time>2026-04-04T07:51:12.828Z</time></trkpt><trkpt lat="42.1994517" lon="14.6091183"><ele>20.42857142857143</ele><time>2026-04-04T07:51:13.828Z</time></trkpt><trkpt lat="42.1994333" lon="14.609035"><ele>20.142857142857142</ele><time>2026-04-04T07:51:14.828Z</time></trkpt><trkpt lat="42.1994133" lon="14.6089467"><ele>19.857142857142858</ele><time>2026-04-04T07:51:15.828Z</time></trkpt><trkpt lat="42.199395" lon="14.608865"><ele>19.571428571428573</ele><time>2026-04-04T07:51:16.829Z</time></trkpt><trkpt lat="42.1993767" lon="14.6087833"><ele>19.285714285714285</ele><time>2026-04-04T07:51:17.828Z</time></trkpt><trkpt lat="42.19935" lon="14.6087"><ele>19.0</ele><time>2026-04-04T07:51:18.829Z</time></trkpt><trkpt lat="42.1993283" lon="14.6086167"><ele>18.0</ele><time>2026-04-04T07:51:19.828Z</time></trkpt><trkpt lat="42.1992933" lon="14.6084517"><ele>17.0</ele><time>2026-04-04T07:51:21.829Z</time></trkpt><trkpt lat="42.1992667" lon="14.60829"><ele>15.999999999999998</ele><time>2026-04-04T07:51:23.828Z</time></trkpt><trkpt lat="42.1992317" lon="14.60813"><ele>15.0</ele><time>2026-04-04T07:51:25.829Z</time></trkpt><trkpt lat="42.1992117" lon="14.6080483"><ele>14.0</ele><time>2026-04-04T07:51:26.829Z</time></trkpt><trkpt lat="42.199195" lon="14.6079617"><ele>14.000000000000002</ele><time>2026-04-04T07:51:27.828Z</time></trkpt><trkpt lat="42.1991717" lon="14.607875"><ele>14.0</ele><time>2026-04-04T07:51:28.828Z</time></trkpt><trkpt lat="42.1991533" lon="14.6077933"><ele>14.0</ele><time>2026-04-04T07:51:29.828Z</time></trkpt><trkpt lat="42.1991167" lon="14.6076333"><ele>14.0</ele><time>2026-04-04T07:51:31.828Z</time></trkpt><trkpt lat="42.1990783" lon="14.6074717"><ele>14.000000000000002</ele><time>2026-04-04T07:51:33.828Z</time></trkpt><trkpt lat="42.1990617" lon="14.6073883"><ele>14.0</ele><time>2026-04-04T07:51:34.829Z</time></trkpt><trkpt lat="42.1990417" lon="14.607305"><ele>13.833333333333334</ele><time>2026-04-04T07:51:35.828Z</time></trkpt><trkpt lat="42.1990117" lon="14.60714"><ele>13.666666666666668</ele><time>2026-04-04T07:51:37.828Z</time></trkpt><trkpt lat="42.19899" lon="14.607055"><ele>13.5</ele><time>2026-04-04T07:51:38.829Z</time></trkpt><trkpt lat="42.19896" lon="14.6068967"><ele>13.333333333333332</ele><time>2026-04-04T07:51:40.828Z</time></trkpt><trkpt lat="42.1989383" lon="14.6068133"><ele>13.166666666666666</ele><time>2026-04-04T07:51:41.828Z</time></trkpt><trkpt lat="42.1989133" lon="14.6067267"><ele>13.0</ele><time>2026-04-04T07:51:42.828Z</time></trkpt><trkpt lat="42.19889" lon="14.6066433"><ele>13.999999999999998</ele><time>2026-04-04T07:51:43.828Z</time></trkpt><trkpt lat="42.1988717" lon="14.60656"><ele>15.0</ele><time>2026-04-04T07:51:44.829Z</time></trkpt><trkpt lat="42.1988333" lon="14.606405"><ele>16.0</ele><time>2026-04-04T07:51:46.829Z</time></trkpt><trkpt lat="42.1988017" lon="14.6062467"><ele>17.0</ele><time>2026-04-04T07:51:48.828Z</time></trkpt><trkpt lat="42.19878" lon="14.6061633"><ele>18.0</ele><time>2026-04-04T07:51:49.828Z</time></trkpt><trkpt lat="42.19876" lon="14.6060783"><ele>19.0</ele><time>2026-04-04T07:51:50.828Z</time></trkpt><trkpt lat="42.1987367" lon="14.6059983"><ele>19.166666666666664</ele><time>2026-04-04T07:51:51.829Z</time></trkpt><trkpt lat="42.198715" lon="14.6059167"><ele>19.333333333333332</ele><time>2026-04-04T07:51:52.828Z</time></trkpt><trkpt lat="42.19869" lon="14.6057533"><ele>19.5</ele><time>2026-04-04T07:51:54.829Z</time></trkpt><trkpt lat="42.1986617" lon="14.60559"><ele>19.666666666666668</ele><time>2026-04-04T07:51:56.828Z</time></trkpt><trkpt lat="42.19865" lon="14.605505"><ele>19.833333333333336</ele><time>2026-04-04T07:51:57.828Z</time></trkpt><trkpt lat="42.1986367" lon="14.6054183"><ele>20.0</ele><time>2026-04-04T07:51:58.829Z</time></trkpt><trkpt lat="42.1986267" lon="14.6053333"><ele>19.8</ele><time>2026-04-04T07:51:59.828Z</time></trkpt><trkpt lat="42.1986083" lon="14.6051667"><ele>19.6</ele><time>2026-04-04T07:52:01.828Z</time></trkpt><trkpt lat="42.1985967" lon="14.604995"><ele>19.4</ele><time>2026-04-04T07:52:03.828Z</time></trkpt><trkpt lat="42.19859" lon="14.6049067"><ele>19.2</ele><time>2026-04-04T07:52:04.828Z</time></trkpt><trkpt lat="42.198585" lon="14.6048183"><ele>19.0</ele><time>2026-04-04T07:52:05.828Z</time></trkpt><trkpt lat="42.1985817" lon="14.6047267"><ele>19.0</ele><time>2026-04-04T07:52:06.828Z</time></trkpt><trkpt lat="42.1985933" lon="14.604565"><ele>19.0</ele><time>2026-04-04T07:52:08.828Z</time></trkpt><trkpt lat="42.1985983" lon="14.6044783"><ele>19.0</ele><time>2026-04-04T07:52:09.828Z</time></trkpt><trkpt lat="42.1986017" lon="14.6043933"><ele>19.0</ele><time>2026-04-04T07:52:10.828Z</time></trkpt><trkpt lat="42.1986083" lon="14.6043067"><ele>19.0</ele><time>2026-04-04T07:52:11.828Z</time></trkpt><trkpt lat="42.1986133" lon="14.604215"><ele>19.0</ele><time>2026-04-04T07:52:12.828Z</time></trkpt><trkpt lat="42.1986183" lon="14.6041233"><ele>19.0</ele><time>2026-04-04T07:52:13.828Z</time></trkpt><trkpt lat="42.198635" lon="14.6039517"><ele>18.71428571428571</ele><time>2026-04-04T07:52:15.829Z</time></trkpt><trkpt lat="42.198645" lon="14.6038633"><ele>18.42857142857143</ele><time>2026-04-04T07:52:16.829Z</time></trkpt><trkpt lat="42.198655" lon="14.603775"><ele>18.142857142857142</ele><time>2026-04-04T07:52:17.828Z</time></trkpt><trkpt lat="42.1986683" lon="14.6036833"><ele>17.857142857142854</ele><time>2026-04-04T07:52:18.829Z</time></trkpt><trkpt lat="42.1986833" lon="14.6035967"><ele>17.57142857142857</ele><time>2026-04-04T07:52:19.828Z</time></trkpt><trkpt lat="42.1986983" lon="14.603505"><ele>17.285714285714285</ele><time>2026-04-04T07:52:20.829Z</time></trkpt><trkpt lat="42.1987117" lon="14.6034133"><ele>17.0</ele><time>2026-04-04T07:52:21.828Z</time></trkpt><trkpt lat="42.1987267" lon="14.603325"><ele>16.999999999999996</ele><time>2026-04-04T07:52:22.828Z</time></trkpt><trkpt lat="42.19874" lon="14.6032333"><ele>17.0</ele><time>2026-04-04T07:52:23.828Z</time></trkpt><trkpt lat="42.198755" lon="14.603145"><ele>17.0</ele><time>2026-04-04T07:52:24.829Z</time></trkpt><trkpt lat="42.19877" lon="14.6030533"><ele>17.0</ele><time>2026-04-04T07:52:25.828Z</time></trkpt><trkpt lat="42.1987833" lon="14.6029567"><ele>17.0</ele><time>2026-04-04T07:52:26.828Z</time></trkpt><trkpt lat="42.1987933" lon="14.6028633"><ele>16.999999999999996</ele><time>2026-04-04T07:52:27.828Z</time></trkpt><trkpt lat="42.1988033" lon="14.60277"><ele>17.0</ele><time>2026-04-04T07:52:28.828Z</time></trkpt><trkpt lat="42.1988167" lon="14.6026817"><ele>16.666666666666668</ele><time>2026-04-04T07:52:29.828Z</time></trkpt><trkpt lat="42.19883" lon="14.6025917"><ele>16.333333333333336</ele><time>2026-04-04T07:52:30.828Z</time></trkpt><trkpt lat="42.1988433" lon="14.602505"><ele>16.0</ele><time>2026-04-04T07:52:31.828Z</time></trkpt><trkpt lat="42.1988567" lon="14.6024167"><ele>15.666666666666668</ele><time>2026-04-04T07:52:32.828Z</time></trkpt><trkpt lat="42.198865" lon="14.6023267"><ele>15.333333333333334</ele><time>2026-04-04T07:52:33.828Z</time></trkpt><trkpt lat="42.1988733" lon="14.6022367"><ele>15.0</ele><time>2026-04-04T07:52:34.828Z</time></trkpt><trkpt lat="42.1988983" lon="14.6020683"><ele>15.285714285714286</ele><time>2026-04-04T07:52:36.828Z</time></trkpt><trkpt lat="42.198915" lon="14.601985"><ele>15.57142857142857</ele><time>2026-04-04T07:52:37.829Z</time></trkpt><trkpt lat="42.1989333" lon="14.60189"><ele>15.857142857142856</ele><time>2026-04-04T07:52:38.828Z</time></trkpt><trkpt lat="42.19895" lon="14.6018"><ele>16.142857142857142</ele><time>2026-04-04T07:52:39.828Z</time></trkpt><trkpt lat="42.1989633" lon="14.6017117"><ele>16.428571428571427</ele><time>2026-04-04T07:52:40.828Z</time></trkpt><trkpt lat="42.19898" lon="14.6016183"><ele>16.71428571428571</ele><time>2026-04-04T07:52:41.828Z</time></trkpt><trkpt lat="42.1989967" lon="14.6015333"><ele>17.0</ele><time>2026-04-04T07:52:42.828Z</time></trkpt><trkpt lat="42.199015" lon="14.6014467"><ele>16.142857142857142</ele><time>2026-04-04T07:52:43.828Z</time></trkpt><trkpt lat="42.19904" lon="14.6013633"><ele>15.285714285714285</ele><time>2026-04-04T07:52:44.828Z</time></trkpt><trkpt lat="42.1990617" lon="14.6012833"><ele>14.428571428571427</ele><time>2026-04-04T07:52:45.828Z</time></trkpt><trkpt lat="42.1990867" lon="14.6011983"><ele>13.57142857142857</ele><time>2026-04-04T07:52:46.828Z</time></trkpt><trkpt lat="42.1991183" lon="14.6011183"><ele>12.714285714285714</ele><time>2026-04-04T07:52:47.828Z</time></trkpt><trkpt lat="42.19915" lon="14.601035"><ele>11.857142857142858</ele><time>2026-04-04T07:52:48.828Z</time></trkpt><trkpt lat="42.199185" lon="14.6009583"><ele>11.0</ele><time>2026-04-04T07:52:49.828Z</time></trkpt><trkpt lat="42.1992217" lon="14.60088"><ele>11.0</ele><time>2026-04-04T07:52:50.828Z</time></trkpt><trkpt lat="42.1992567" lon="14.600805"><ele>11.0</ele><time>2026-04-04T07:52:51.828Z</time></trkpt><trkpt lat="42.1992933" lon="14.60073"><ele>11.0</ele><time>2026-04-04T07:52:52.828Z</time></trkpt><trkpt lat="42.1993333" lon="14.60066"><ele>11.0</ele><time>2026-04-04T07:52:53.828Z</time></trkpt><trkpt lat="42.19938" lon="14.6005917"><ele>11.0</ele><time>2026-04-04T07:52:54.828Z</time></trkpt><trkpt lat="42.199425" lon="14.6005233"><ele>11.0</ele><time>2026-04-04T07:52:55.828Z</time></trkpt><trkpt lat="42.1994733" lon="14.6004583"><ele>11.0</ele><time>2026-04-04T07:52:56.828Z</time></trkpt><trkpt lat="42.1995233" lon="14.6003967"><ele>11.0</ele><time>2026-04-04T07:52:57.828Z</time></trkpt><trkpt lat="42.199575" lon="14.6003333"><ele>11.0</ele><time>2026-04-04T07:52:58.828Z</time></trkpt><trkpt lat="42.1996267" lon="14.6002783"><ele>11.0</ele><time>2026-04-04T07:52:59.828Z</time></trkpt><trkpt lat="42.1996783" lon="14.6002267"><ele>11.0</ele><time>2026-04-04T07:53:00.828Z</time></trkpt><trkpt lat="42.1997333" lon="14.60017"><ele>11.0</ele><time>2026-04-04T07:53:01.828Z</time></trkpt><trkpt lat="42.19979" lon="14.60011"><ele>11.0</ele><time>2026-04-04T07:53:02.828Z</time></trkpt><trkpt lat="42.1998433" lon="14.60006"><ele>11.0</ele><time>2026-04-04T07:53:03.828Z</time></trkpt><trkpt lat="42.1999567" lon="14.59996"><ele>10.5</ele><time>2026-04-04T07:53:05.828Z</time></trkpt><trkpt lat="42.20001" lon="14.5999067"><ele>10.0</ele><time>2026-04-04T07:53:06.828Z</time></trkpt><trkpt lat="42.2000667" lon="14.5998583"><ele>9.5</ele><time>2026-04-04T07:53:07.828Z</time></trkpt><trkpt lat="42.2001233" lon="14.5998117"><ele>9.0</ele><time>2026-04-04T07:53:08.828Z</time></trkpt><trkpt lat="42.2001783" lon="14.59976"><ele>8.5</ele><time>2026-04-04T07:53:09.829Z</time></trkpt><trkpt lat="42.2002367" lon="14.5997133"><ele>8.0</ele><time>2026-04-04T07:53:10.828Z</time></trkpt><trkpt lat="42.2003383" lon="14.5996267"><ele>8.0</ele><time>2026-04-04T07:53:12.828Z</time></trkpt><trkpt lat="42.2004383" lon="14.5995317"><ele>8.0</ele><time>2026-04-04T07:53:14.829Z</time></trkpt><trkpt lat="42.20053" lon="14.5994467"><ele>8.0</ele><time>2026-04-04T07:53:16.828Z</time></trkpt><trkpt lat="42.2006233" lon="14.5993583"><ele>8.0</ele><time>2026-04-04T07:53:18.828Z</time></trkpt><trkpt lat="42.2007233" lon="14.5992717"><ele>7.25</ele><time>2026-04-04T07:53:20.829Z</time></trkpt><trkpt lat="42.200825" lon="14.59918"><ele>6.5</ele><time>2026-04-04T07:53:22.828Z</time></trkpt><trkpt lat="42.200925" lon="14.59909"><ele>5.75</ele><time>2026-04-04T07:53:24.828Z</time></trkpt><trkpt lat="42.20102" lon="14.5990133"><ele>5.0</ele><time>2026-04-04T07:53:26.828Z</time></trkpt><trkpt lat="42.2011117" lon="14.5989333"><ele>5.0</ele><time>2026-04-04T07:53:28.828Z</time></trkpt><trkpt lat="42.201205" lon="14.5988517"><ele>5.0</ele><time>2026-04-04T07:53:30.829Z</time></trkpt><trkpt lat="42.2012983" lon="14.598765"><ele>5.0</ele><time>2026-04-04T07:53:32.828Z</time></trkpt><trkpt lat="42.2013967" lon="14.59869"><ele>5.0</ele><time>2026-04-04T07:53:34.829Z</time></trkpt><trkpt lat="42.2014933" lon="14.5986183"><ele>5.0</ele><time>2026-04-04T07:53:36.829Z</time></trkpt><trkpt lat="42.201595" lon="14.5985433"><ele>5.2</ele><time>2026-04-04T07:53:38.829Z</time></trkpt><trkpt lat="42.2016883" lon="14.598465"><ele>5.4</ele><time>2026-04-04T07:53:40.828Z</time></trkpt><trkpt lat="42.2017833" lon="14.59839"><ele>5.6</ele><time>2026-04-04T07:53:42.828Z</time></trkpt><trkpt lat="42.2018767" lon="14.5983267"><ele>5.8</ele><time>2026-04-04T07:53:44.828Z</time></trkpt><trkpt lat="42.20197" lon="14.59827"><ele>6.0</ele><time>2026-04-04T07:53:46.828Z</time></trkpt><trkpt lat="42.20206" lon="14.5982083"><ele>6.0</ele><time>2026-04-04T07:53:48.828Z</time></trkpt><trkpt lat="42.202145" lon="14.5981533"><ele>6.0</ele><time>2026-04-04T07:53:50.828Z</time></trkpt><trkpt lat="42.2022333" lon="14.5980967"><ele>6.0</ele><time>2026-04-04T07:53:52.828Z</time></trkpt><trkpt lat="42.2023267" lon="14.59802"><ele>6.0</ele><time>2026-04-04T07:53:54.828Z</time></trkpt><trkpt lat="42.20242" lon="14.5979583"><ele>6.0</ele><time>2026-04-04T07:53:56.828Z</time></trkpt><trkpt lat="42.2025167" lon="14.5978967"><ele>5.6</ele><time>2026-04-04T07:53:58.828Z</time></trkpt><trkpt lat="42.202615" lon="14.5978333"><ele>5.199999999999999</ele><time>2026-04-04T07:54:00.828Z</time></trkpt><trkpt lat="42.2027117" lon="14.597765"><ele>4.800000000000001</ele><time>2026-04-04T07:54:02.828Z</time></trkpt><trkpt lat="42.2028133" lon="14.597705"><ele>4.4</ele><time>2026-04-04T07:54:04.828Z</time></trkpt><trkpt lat="42.2028717" lon="14.59767"><ele>4.0</ele><time>2026-04-04T07:54:05.828Z</time></trkpt><trkpt lat="42.20293" lon="14.59763"><ele>4.0</ele><time>2026-04-04T07:54:06.828Z</time></trkpt><trkpt lat="42.2030383" lon="14.59756"><ele>4.0</ele><time>2026-04-04T07:54:08.828Z</time></trkpt><trkpt lat="42.20315" lon="14.59749"><ele>4.0</ele><time>2026-04-04T07:54:10.828Z</time></trkpt><trkpt lat="42.2032583" lon="14.5974067"><ele>4.0</ele><time>2026-04-04T07:54:12.828Z</time></trkpt><trkpt lat="42.2033733" lon="14.5973267"><ele>4.333333333333333</ele><time>2026-04-04T07:54:14.828Z</time></trkpt><trkpt lat="42.2034383" lon="14.59729"><ele>4.666666666666666</ele><time>2026-04-04T07:54:15.828Z</time></trkpt><trkpt lat="42.2034983" lon="14.59725"><ele>5.0</ele><time>2026-04-04T07:54:16.828Z</time></trkpt><trkpt lat="42.2036133" lon="14.59718"><ele>5.333333333333333</ele><time>2026-04-04T07:54:18.828Z</time></trkpt><trkpt lat="42.2036733" lon="14.597135"><ele>5.666666666666667</ele><time>2026-04-04T07:54:19.828Z</time></trkpt><trkpt lat="42.203735" lon="14.5970933"><ele>6.0</ele><time>2026-04-04T07:54:20.829Z</time></trkpt><trkpt lat="42.203795" lon="14.597055"><ele>5.75</ele><time>2026-04-04T07:54:21.828Z</time></trkpt><trkpt lat="42.2039083" lon="14.5969783"><ele>5.5</ele><time>2026-04-04T07:54:23.828Z</time></trkpt><trkpt lat="42.2040183" lon="14.59691"><ele>5.25</ele><time>2026-04-04T07:54:25.828Z</time></trkpt><trkpt lat="42.2041167" lon="14.5968433"><ele>5.0</ele><time>2026-04-04T07:54:27.829Z</time></trkpt><trkpt lat="42.2042183" lon="14.596795"><ele>5.4</ele><time>2026-04-04T07:54:29.828Z</time></trkpt><trkpt lat="42.2043267" lon="14.59677"><ele>5.8</ele><time>2026-04-04T07:54:31.828Z</time></trkpt><trkpt lat="42.2044417" lon="14.5967367"><ele>6.199999999999999</ele><time>2026-04-04T07:54:33.828Z</time></trkpt><trkpt lat="42.2045333" lon="14.5966533"><ele>6.6</ele><time>2026-04-04T07:54:35.828Z</time></trkpt><trkpt lat="42.2046" lon="14.5965617"><ele>7.0</ele><time>2026-04-04T07:54:37.828Z</time></trkpt><trkpt lat="42.2046733" lon="14.596485"><ele>7.0</ele><time>2026-04-04T07:54:39.828Z</time></trkpt><trkpt lat="42.2047567" lon="14.5964167"><ele>6.999999999999999</ele><time>2026-04-04T07:54:41.828Z</time></trkpt><trkpt lat="42.2048467" lon="14.5963433"><ele>6.999999999999999</ele><time>2026-04-04T07:54:43.828Z</time></trkpt><trkpt lat="42.2049367" lon="14.59628"><ele>7.0</ele><time>2026-04-04T07:54:45.829Z</time></trkpt><trkpt lat="42.2050217" lon="14.5962233"><ele>7.0</ele><time>2026-04-04T07:54:47.828Z</time></trkpt><trkpt lat="42.2051067" lon="14.5961667"><ele>7.833333333333334</ele><time>2026-04-04T07:54:49.828Z</time></trkpt><trkpt lat="42.2051883" lon="14.5961133"><ele>8.666666666666668</ele><time>2026-04-04T07:54:51.828Z</time></trkpt><trkpt lat="42.2052633" lon="14.5960633"><ele>9.5</ele><time>2026-04-04T07:54:53.828Z</time></trkpt><trkpt lat="42.2053267" lon="14.5960133"><ele>10.333333333333334</ele><time>2026-04-04T07:54:55.828Z</time></trkpt><trkpt lat="42.2053967" lon="14.5959633"><ele>11.166666666666666</ele><time>2026-04-04T07:54:57.828Z</time></trkpt><trkpt lat="42.2054667" lon="14.5959167"><ele>12.0</ele><time>2026-04-04T07:54:59.828Z</time></trkpt><trkpt lat="42.2055333" lon="14.5958733"><ele>12.0</ele><time>2026-04-04T07:55:01.828Z</time></trkpt><trkpt lat="42.205595" lon="14.595835"><ele>12.0</ele><time>2026-04-04T07:55:03.829Z</time></trkpt><trkpt lat="42.2056617" lon="14.5957917"><ele>12.0</ele><time>2026-04-04T07:55:05.828Z</time></trkpt><trkpt lat="42.2057267" lon="14.59575"><ele>12.0</ele><time>2026-04-04T07:55:07.828Z</time></trkpt><trkpt lat="42.2057917" lon="14.5957067"><ele>12.0</ele><time>2026-04-04T07:55:09.828Z</time></trkpt><trkpt lat="42.2058667" lon="14.5956583"><ele>12.0</ele><time>2026-04-04T07:55:11.828Z</time></trkpt><trkpt lat="42.2059433" lon="14.595615"><ele>12.0</ele><time>2026-04-04T07:55:13.828Z</time></trkpt><trkpt lat="42.20601" lon="14.5955633"><ele>12.0</ele><time>2026-04-04T07:55:15.828Z</time></trkpt><trkpt lat="42.2060833" lon="14.595515"><ele>12.0</ele><time>2026-04-04T07:55:17.828Z</time></trkpt><trkpt lat="42.206155" lon="14.5954717"><ele>12.0</ele><time>2026-04-04T07:55:19.828Z</time></trkpt><trkpt lat="42.20623" lon="14.595415"><ele>12.0</ele><time>2026-04-04T07:55:21.828Z</time></trkpt><trkpt lat="42.206305" lon="14.595365"><ele>12.0</ele><time>2026-04-04T07:55:23.828Z</time></trkpt><trkpt lat="42.206365" lon="14.5953183"><ele>12.833333333333334</ele><time>2026-04-04T07:55:25.828Z</time></trkpt><trkpt lat="42.2064233" lon="14.595275"><ele>13.666666666666668</ele><time>2026-04-04T07:55:27.828Z</time></trkpt><trkpt lat="42.2064933" lon="14.5952417"><ele>14.5</ele><time>2026-04-04T07:55:29.828Z</time></trkpt><trkpt lat="42.2065583" lon="14.5951967"><ele>15.333333333333334</ele><time>2026-04-04T07:55:31.828Z</time></trkpt><trkpt lat="42.2066283" lon="14.5951433"><ele>16.166666666666668</ele><time>2026-04-04T07:55:33.828Z</time></trkpt><trkpt lat="42.2066967" lon="14.59509"><ele>17.0</ele><time>2026-04-04T07:55:35.829Z</time></trkpt><trkpt lat="42.2067717" lon="14.5950317"><ele>17.0</ele><time>2026-04-04T07:55:37.828Z</time></trkpt><trkpt lat="42.20685" lon="14.5949817"><ele>17.0</ele><time>2026-04-04T07:55:39.829Z</time></trkpt><trkpt lat="42.2069217" lon="14.5949383"><ele>17.0</ele><time>2026-04-04T07:55:41.829Z</time></trkpt><trkpt lat="42.20699" lon="14.5948933"><ele>17.0</ele><time>2026-04-04T07:55:43.828Z</time></trkpt><trkpt lat="42.20706" lon="14.5948483"><ele>17.0</ele><time>2026-04-04T07:55:45.828Z</time></trkpt><trkpt lat="42.2071217" lon="14.5947933"><ele>17.0</ele><time>2026-04-04T07:55:47.828Z</time></trkpt><trkpt lat="42.2071833" lon="14.5947467"><ele>17.0</ele><time>2026-04-04T07:55:49.828Z</time></trkpt><trkpt lat="42.2072567" lon="14.5946933"><ele>17.0</ele><time>2026-04-04T07:55:51.828Z</time></trkpt><trkpt lat="42.2073283" lon="14.5946283"><ele>17.0</ele><time>2026-04-04T07:55:53.828Z</time></trkpt><trkpt lat="42.2074017" lon="14.5945667"><ele>17.0</ele><time>2026-04-04T07:55:55.828Z</time></trkpt><trkpt lat="42.207455" lon="14.59452"><ele>17.0</ele><time>2026-04-04T07:55:57.828Z</time></trkpt><trkpt lat="42.2075217" lon="14.5944467"><ele>17.0</ele><time>2026-04-04T07:55:59.828Z</time></trkpt><trkpt lat="42.20759" lon="14.5943733"><ele>17.666666666666668</ele><time>2026-04-04T07:56:01.828Z</time></trkpt><trkpt lat="42.20765" lon="14.5943033"><ele>18.333333333333336</ele><time>2026-04-04T07:56:03.828Z</time></trkpt><trkpt lat="42.2077067" lon="14.594235"><ele>19.0</ele><time>2026-04-04T07:56:05.828Z</time></trkpt><trkpt lat="42.207775" lon="14.5941583"><ele>19.666666666666668</ele><time>2026-04-04T07:56:07.829Z</time></trkpt><trkpt lat="42.2078383" lon="14.5940867"><ele>20.333333333333332</ele><time>2026-04-04T07:56:09.829Z</time></trkpt><trkpt lat="42.2078933" lon="14.5940183"><ele>21.0</ele><time>2026-04-04T07:56:11.829Z</time></trkpt><trkpt lat="42.207955" lon="14.5939467"><ele>21.0</ele><time>2026-04-04T07:56:13.828Z</time></trkpt><trkpt lat="42.2080133" lon="14.5938783"><ele>21.0</ele><time>2026-04-04T07:56:15.828Z</time></trkpt><trkpt lat="42.2080783" lon="14.593815"><ele>21.0</ele><time>2026-04-04T07:56:17.828Z</time></trkpt><trkpt lat="42.2081417" lon="14.5937467"><ele>21.0</ele><time>2026-04-04T07:56:19.828Z</time></trkpt><trkpt lat="42.2082033" lon="14.593685"><ele>21.0</ele><time>2026-04-04T07:56:21.829Z</time></trkpt><trkpt lat="42.2082733" lon="14.5936183"><ele>21.0</ele><time>2026-04-04T07:56:23.828Z</time></trkpt><trkpt lat="42.20834" lon="14.593555"><ele>20.666666666666668</ele><time>2026-04-04T07:56:25.828Z</time></trkpt><trkpt lat="42.2084083" lon="14.5934717"><ele>20.333333333333332</ele><time>2026-04-04T07:56:27.828Z</time></trkpt><trkpt lat="42.2084833" lon="14.5933967"><ele>20.0</ele><time>2026-04-04T07:56:29.828Z</time></trkpt><trkpt lat="42.2085483" lon="14.5933317"><ele>19.666666666666664</ele><time>2026-04-04T07:56:31.829Z</time></trkpt><trkpt lat="42.2086083" lon="14.59327"><ele>19.333333333333332</ele><time>2026-04-04T07:56:33.828Z</time></trkpt><trkpt lat="42.208675" lon="14.593195"><ele>19.0</ele><time>2026-04-04T07:56:35.828Z</time></trkpt><trkpt lat="42.2087367" lon="14.593115"><ele>19.0</ele><time>2026-04-04T07:56:37.828Z</time></trkpt><trkpt lat="42.2087967" lon="14.5930467"><ele>19.0</ele><time>2026-04-04T07:56:39.828Z</time></trkpt><trkpt lat="42.20887" lon="14.592975"><ele>19.0</ele><time>2026-04-04T07:56:41.829Z</time></trkpt><trkpt lat="42.2089383" lon="14.5929083"><ele>19.0</ele><time>2026-04-04T07:56:43.828Z</time></trkpt><trkpt lat="42.20901" lon="14.5928317"><ele>19.0</ele><time>2026-04-04T07:56:45.829Z</time></trkpt><trkpt lat="42.2090767" lon="14.59275"><ele>19.0</ele><time>2026-04-04T07:56:47.828Z</time></trkpt><trkpt lat="42.2091417" lon="14.5926617"><ele>20.0</ele><time>2026-04-04T07:56:49.828Z</time></trkpt><trkpt lat="42.2092117" lon="14.5925733"><ele>21.0</ele><time>2026-04-04T07:56:51.828Z</time></trkpt><trkpt lat="42.2092783" lon="14.5924817"><ele>22.0</ele><time>2026-04-04T07:56:53.828Z</time></trkpt><trkpt lat="42.2093433" lon="14.592385"><ele>23.0</ele><time>2026-04-04T07:56:55.828Z</time></trkpt><trkpt lat="42.2094083" lon="14.592275"><ele>24.0</ele><time>2026-04-04T07:56:57.828Z</time></trkpt><trkpt lat="42.2094767" lon="14.592155"><ele>24.0</ele><time>2026-04-04T07:56:59.828Z</time></trkpt><trkpt lat="42.2095433" lon="14.5920267"><ele>24.0</ele><time>2026-04-04T07:57:01.828Z</time></trkpt><trkpt lat="42.2096033" lon="14.59191"><ele>24.0</ele><time>2026-04-04T07:57:03.828Z</time></trkpt><trkpt lat="42.2096683" lon="14.5917933"><ele>24.0</ele><time>2026-04-04T07:57:05.828Z</time></trkpt><trkpt lat="42.2097283" lon="14.5916733"><ele>24.0</ele><time>2026-04-04T07:57:07.828Z</time></trkpt><trkpt lat="42.2097867" lon="14.5915517"><ele>23.799999999999997</ele><time>2026-04-04T07:57:09.828Z</time></trkpt><trkpt lat="42.2098433" lon="14.5914317"><ele>23.599999999999998</ele><time>2026-04-04T07:57:11.828Z</time></trkpt><trkpt lat="42.2099067" lon="14.59132"><ele>23.4</ele><time>2026-04-04T07:57:13.828Z</time></trkpt><trkpt lat="42.2099733" lon="14.5912067"><ele>23.2</ele><time>2026-04-04T07:57:15.828Z</time></trkpt><trkpt lat="42.2100383" lon="14.5910867"><ele>23.0</ele><time>2026-04-04T07:57:17.828Z</time></trkpt><trkpt lat="42.2101067" lon="14.590955"><ele>23.0</ele><time>2026-04-04T07:57:19.828Z</time></trkpt><trkpt lat="42.2101783" lon="14.5908267"><ele>23.0</ele><time>2026-04-04T07:57:21.828Z</time></trkpt><trkpt lat="42.2102483" lon="14.5906967"><ele>23.0</ele><time>2026-04-04T07:57:23.828Z</time></trkpt><trkpt lat="42.21032" lon="14.5905667"><ele>23.0</ele><time>2026-04-04T07:57:25.828Z</time></trkpt><trkpt lat="42.2103917" lon="14.5904317"><ele>24.599999999999998</ele><time>2026-04-04T07:57:27.828Z</time></trkpt><trkpt lat="42.2104683" lon="14.5902967"><ele>26.2</ele><time>2026-04-04T07:57:29.828Z</time></trkpt><trkpt lat="42.2105367" lon="14.5901633"><ele>27.8</ele><time>2026-04-04T07:57:31.828Z</time></trkpt><trkpt lat="42.2105733" lon="14.5900867"><ele>29.4</ele><time>2026-04-04T07:57:32.828Z</time></trkpt><trkpt lat="42.2106067" lon="14.5900133"><ele>31.0</ele><time>2026-04-04T07:57:33.829Z</time></trkpt><trkpt lat="42.2106867" lon="14.5898717"><ele>29.833333333333336</ele><time>2026-04-04T07:57:35.829Z</time></trkpt><trkpt lat="42.2107267" lon="14.589805"><ele>28.666666666666668</ele><time>2026-04-04T07:57:36.828Z</time></trkpt><trkpt lat="42.210805" lon="14.5896667"><ele>27.5</ele><time>2026-04-04T07:57:38.828Z</time></trkpt><trkpt lat="42.2108467" lon="14.5895983"><ele>26.333333333333336</ele><time>2026-04-04T07:57:39.829Z</time></trkpt><trkpt lat="42.2108833" lon="14.5895233"><ele>25.166666666666668</ele><time>2026-04-04T07:57:40.828Z</time></trkpt><trkpt lat="42.2109183" lon="14.5894433"><ele>24.0</ele><time>2026-04-04T07:57:41.829Z</time></trkpt><trkpt lat="42.2109567" lon="14.5893717"><ele>24.0</ele><time>2026-04-04T07:57:42.828Z</time></trkpt><trkpt lat="42.2110017" lon="14.589295"><ele>24.0</ele><time>2026-04-04T07:57:43.828Z</time></trkpt><trkpt lat="42.2110417" lon="14.5892183"><ele>24.0</ele><time>2026-04-04T07:57:44.828Z</time></trkpt><trkpt lat="42.2110833" lon="14.5891483"><ele>24.0</ele><time>2026-04-04T07:57:45.828Z</time></trkpt><trkpt lat="42.2111183" lon="14.589075"><ele>24.0</ele><time>2026-04-04T07:57:46.828Z</time></trkpt><trkpt lat="42.2111933" lon="14.58893"><ele>24.0</ele><time>2026-04-04T07:57:48.829Z</time></trkpt><trkpt lat="42.2112333" lon="14.5888533"><ele>24.0</ele><time>2026-04-04T07:57:49.829Z</time></trkpt><trkpt lat="42.2113033" lon="14.588715"><ele>24.0</ele><time>2026-04-04T07:57:51.828Z</time></trkpt><trkpt lat="42.2113583" lon="14.5885833"><ele>24.0</ele><time>2026-04-04T07:57:53.828Z</time></trkpt><trkpt lat="42.2113917" lon="14.588505"><ele>24.0</ele><time>2026-04-04T07:57:54.828Z</time></trkpt><trkpt lat="42.211455" lon="14.5883667"><ele>24.0</ele><time>2026-04-04T07:57:56.829Z</time></trkpt><trkpt lat="42.211515" lon="14.58822"><ele>23.428571428571427</ele><time>2026-04-04T07:57:58.828Z</time></trkpt><trkpt lat="42.2115483" lon="14.5881333"><ele>22.857142857142858</ele><time>2026-04-04T07:57:59.828Z</time></trkpt><trkpt lat="42.21159" lon="14.5880433"><ele>22.285714285714285</ele><time>2026-04-04T07:58:00.828Z</time></trkpt><trkpt lat="42.211625" lon="14.5879567"><ele>21.714285714285715</ele><time>2026-04-04T07:58:01.828Z</time></trkpt><trkpt lat="42.21166" lon="14.5878717"><ele>21.142857142857142</ele><time>2026-04-04T07:58:02.828Z</time></trkpt><trkpt lat="42.2116967" lon="14.5877783"><ele>20.57142857142857</ele><time>2026-04-04T07:58:03.828Z</time></trkpt><trkpt lat="42.21173" lon="14.5876933"><ele>20.0</ele><time>2026-04-04T07:58:04.828Z</time></trkpt><trkpt lat="42.2117633" lon="14.587605"><ele>20.0</ele><time>2026-04-04T07:58:05.829Z</time></trkpt><trkpt lat="42.2117933" lon="14.5875233"><ele>20.0</ele><time>2026-04-04T07:58:06.828Z</time></trkpt><trkpt lat="42.2118533" lon="14.5873617"><ele>20.0</ele><time>2026-04-04T07:58:08.829Z</time></trkpt><trkpt lat="42.2118917" lon="14.58727"><ele>20.0</ele><time>2026-04-04T07:58:09.828Z</time></trkpt><trkpt lat="42.2119317" lon="14.58719"><ele>20.0</ele><time>2026-04-04T07:58:10.828Z</time></trkpt><trkpt lat="42.2119733" lon="14.587115"><ele>20.0</ele><time>2026-04-04T07:58:11.829Z</time></trkpt><trkpt lat="42.21201" lon="14.5870417"><ele>20.714285714285715</ele><time>2026-04-04T07:58:12.828Z</time></trkpt><trkpt lat="42.2120467" lon="14.5869667"><ele>21.42857142857143</ele><time>2026-04-04T07:58:13.829Z</time></trkpt><trkpt lat="42.2120867" lon="14.5868917"><ele>22.142857142857146</ele><time>2026-04-04T07:58:14.828Z</time></trkpt><trkpt lat="42.2121317" lon="14.5868117"><ele>22.857142857142858</ele><time>2026-04-04T07:58:15.829Z</time></trkpt><trkpt lat="42.2121767" lon="14.5867283"><ele>23.571428571428573</ele><time>2026-04-04T07:58:16.828Z</time></trkpt><trkpt lat="42.2122267" lon="14.58664"><ele>24.28571428571429</ele><time>2026-04-04T07:58:17.828Z</time></trkpt><trkpt lat="42.21227" lon="14.5865567"><ele>25.0</ele><time>2026-04-04T07:58:18.828Z</time></trkpt><trkpt lat="42.212315" lon="14.5864783"><ele>23.714285714285715</ele><time>2026-04-04T07:58:19.828Z</time></trkpt><trkpt lat="42.2123567" lon="14.586395"><ele>22.42857142857143</ele><time>2026-04-04T07:58:20.828Z</time></trkpt><trkpt lat="42.2123967" lon="14.586315"><ele>21.142857142857142</ele><time>2026-04-04T07:58:21.828Z</time></trkpt><trkpt lat="42.2124417" lon="14.58624"><ele>19.857142857142858</ele><time>2026-04-04T07:58:22.828Z</time></trkpt><trkpt lat="42.2124867" lon="14.5861617"><ele>18.57142857142857</ele><time>2026-04-04T07:58:23.828Z</time></trkpt><trkpt lat="42.2125267" lon="14.5860917"><ele>17.285714285714285</ele><time>2026-04-04T07:58:24.829Z</time></trkpt><trkpt lat="42.2125733" lon="14.5860267"><ele>16.0</ele><time>2026-04-04T07:58:25.828Z</time></trkpt><trkpt lat="42.2126117" lon="14.585945"><ele>15.999999999999998</ele><time>2026-04-04T07:58:26.828Z</time></trkpt><trkpt lat="42.21265" lon="14.5858683"><ele>16.0</ele><time>2026-04-04T07:58:27.828Z</time></trkpt><trkpt lat="42.2126867" lon="14.585795"><ele>16.0</ele><time>2026-04-04T07:58:28.828Z</time></trkpt><trkpt lat="42.2127267" lon="14.585725"><ele>16.0</ele><time>2026-04-04T07:58:29.828Z</time></trkpt><trkpt lat="42.2127667" lon="14.585655"><ele>15.999999999999998</ele><time>2026-04-04T07:58:30.829Z</time></trkpt><trkpt lat="42.2128017" lon="14.5855833"><ele>16.0</ele><time>2026-04-04T07:58:31.828Z</time></trkpt><trkpt lat="42.21287" lon="14.5854433"><ele>15.999999999999998</ele><time>2026-04-04T07:58:33.828Z</time></trkpt><trkpt lat="42.2129033" lon="14.58537"><ele>16.0</ele><time>2026-04-04T07:58:34.828Z</time></trkpt><trkpt lat="42.2129567" lon="14.5852233"><ele>16.0</ele><time>2026-04-04T07:58:36.828Z</time></trkpt><trkpt lat="42.2129867" lon="14.5851483"><ele>16.0</ele><time>2026-04-04T07:58:37.829Z</time></trkpt><trkpt lat="42.2130433" lon="14.5849967"><ele>15.999999999999998</ele><time>2026-04-04T07:58:39.828Z</time></trkpt><trkpt lat="42.2130733" lon="14.5849167"><ele>16.0</ele><time>2026-04-04T07:58:40.828Z</time></trkpt><trkpt lat="42.213105" lon="14.5848417"><ele>15.200000000000001</ele><time>2026-04-04T07:58:41.828Z</time></trkpt><trkpt lat="42.213155" lon="14.5846883"><ele>14.400000000000002</ele><time>2026-04-04T07:58:43.828Z</time></trkpt><trkpt lat="42.2132083" lon="14.5845383"><ele>13.6</ele><time>2026-04-04T07:58:45.828Z</time></trkpt><trkpt lat="42.2132383" lon="14.58446"><ele>12.8</ele><time>2026-04-04T07:58:46.828Z</time></trkpt><trkpt lat="42.213295" lon="14.58431"><ele>12.0</ele><time>2026-04-04T07:58:48.828Z</time></trkpt><trkpt lat="42.2133417" lon="14.5841667"><ele>14.0</ele><time>2026-04-04T07:58:50.828Z</time></trkpt><trkpt lat="42.21339" lon="14.5840333"><ele>16.0</ele><time>2026-04-04T07:58:52.828Z</time></trkpt><trkpt lat="42.2134367" lon="14.5839033"><ele>18.0</ele><time>2026-04-04T07:58:54.828Z</time></trkpt><trkpt lat="42.2134933" lon="14.5837717"><ele>20.0</ele><time>2026-04-04T07:58:56.828Z</time></trkpt><trkpt lat="42.213545" lon="14.5836467"><ele>22.0</ele><time>2026-04-04T07:58:58.828Z</time></trkpt><trkpt lat="42.2135917" lon="14.5835217"><ele>22.6</ele><time>2026-04-04T07:59:00.829Z</time></trkpt><trkpt lat="42.21364" lon="14.5833933"><ele>23.200000000000003</ele><time>2026-04-04T07:59:02.828Z</time></trkpt><trkpt lat="42.2136933" lon="14.5832617"><ele>23.8</ele><time>2026-04-04T07:59:04.829Z</time></trkpt><trkpt lat="42.2137483" lon="14.583145"><ele>24.4</ele><time>2026-04-04T07:59:06.828Z</time></trkpt><trkpt lat="42.213805" lon="14.5830317"><ele>25.0</ele><time>2026-04-04T07:59:08.829Z</time></trkpt><trkpt lat="42.2138633" lon="14.5829233"><ele>25.6</ele><time>2026-04-04T07:59:10.828Z</time></trkpt><trkpt lat="42.21393" lon="14.5828017"><ele>26.2</ele><time>2026-04-04T07:59:12.828Z</time></trkpt><trkpt lat="42.2139883" lon="14.5826867"><ele>26.799999999999997</ele><time>2026-04-04T07:59:14.828Z</time></trkpt><trkpt lat="42.2140367" lon="14.5825733"><ele>27.4</ele><time>2026-04-04T07:59:16.828Z</time></trkpt><trkpt lat="42.2141117" lon="14.5824483"><ele>28.0</ele><time>2026-04-04T07:59:18.828Z</time></trkpt><trkpt lat="42.2141783" lon="14.582325"><ele>27.4</ele><time>2026-04-04T07:59:20.828Z</time></trkpt><trkpt lat="42.214235" lon="14.582205"><ele>26.799999999999997</ele><time>2026-04-04T07:59:22.829Z</time></trkpt><trkpt lat="42.214295" lon="14.5820933"><ele>26.2</ele><time>2026-04-04T07:59:24.828Z</time></trkpt><trkpt lat="42.2143467" lon="14.5819867"><ele>25.6</ele><time>2026-04-04T07:59:26.828Z</time></trkpt><trkpt lat="42.2144183" lon="14.5818683"><ele>25.0</ele><time>2026-04-04T07:59:28.828Z</time></trkpt><trkpt lat="42.2144733" lon="14.5817417"><ele>25.0</ele><time>2026-04-04T07:59:30.828Z</time></trkpt><trkpt lat="42.214535" lon="14.5816117"><ele>25.0</ele><time>2026-04-04T07:59:32.828Z</time></trkpt><trkpt lat="42.2145933" lon="14.5814933"><ele>25.0</ele><time>2026-04-04T07:59:34.829Z</time></trkpt><trkpt lat="42.2146583" lon="14.5813767"><ele>25.0</ele><time>2026-04-04T07:59:36.829Z</time></trkpt><trkpt lat="42.21472" lon="14.5812633"><ele>25.0</ele><time>2026-04-04T07:59:38.828Z</time></trkpt><trkpt lat="42.2147833" lon="14.5811567"><ele>23.8</ele><time>2026-04-04T07:59:40.828Z</time></trkpt><trkpt lat="42.2148433" lon="14.5810333"><ele>22.6</ele><time>2026-04-04T07:59:42.829Z</time></trkpt><trkpt lat="42.2149017" lon="14.580925"><ele>21.4</ele><time>2026-04-04T07:59:44.828Z</time></trkpt><trkpt lat="42.2149617" lon="14.5808017"><ele>20.2</ele><time>2026-04-04T07:59:46.829Z</time></trkpt><trkpt lat="42.21502" lon="14.5806983"><ele>19.0</ele><time>2026-04-04T07:59:48.829Z</time></trkpt><trkpt lat="42.2150767" lon="14.5805917"><ele>19.0</ele><time>2026-04-04T07:59:50.828Z</time></trkpt><trkpt lat="42.21513" lon="14.58049"><ele>19.0</ele><time>2026-04-04T07:59:52.828Z</time></trkpt><trkpt lat="42.2151817" lon="14.580385"><ele>19.0</ele><time>2026-04-04T07:59:54.828Z</time></trkpt><trkpt lat="42.2152267" lon="14.5802783"><ele>19.0</ele><time>2026-04-04T07:59:56.828Z</time></trkpt><trkpt lat="42.2152833" lon="14.5801533"><ele>19.0</ele><time>2026-04-04T07:59:58.828Z</time></trkpt><trkpt lat="42.215345" lon="14.5800367"><ele>19.799999999999997</ele><time>2026-04-04T08:00:00.828Z</time></trkpt><trkpt lat="42.2153983" lon="14.5799283"><ele>20.599999999999998</ele><time>2026-04-04T08:00:02.828Z</time></trkpt><trkpt lat="42.2154633" lon="14.5798033"><ele>21.4</ele><time>2026-04-04T08:00:04.828Z</time></trkpt><trkpt lat="42.2155217" lon="14.5796833"><ele>22.2</ele><time>2026-04-04T08:00:06.829Z</time></trkpt><trkpt lat="42.2155783" lon="14.5795717"><ele>23.0</ele><time>2026-04-04T08:00:08.828Z</time></trkpt><trkpt lat="42.2156367" lon="14.5794667"><ele>22.4</ele><time>2026-04-04T08:00:10.828Z</time></trkpt><trkpt lat="42.2156933" lon="14.5793583"><ele>21.799999999999997</ele><time>2026-04-04T08:00:12.828Z</time></trkpt><trkpt lat="42.2157583" lon="14.5792433"><ele>21.2</ele><time>2026-04-04T08:00:14.828Z</time></trkpt><trkpt lat="42.2158167" lon="14.579135"><ele>20.6</ele><time>2026-04-04T08:00:16.829Z</time></trkpt><trkpt lat="42.2158717" lon="14.5790317"><ele>20.0</ele><time>2026-04-04T08:00:18.828Z</time></trkpt><trkpt lat="42.215925" lon="14.578915"><ele>20.0</ele><time>2026-04-04T08:00:20.828Z</time></trkpt><trkpt lat="42.21598" lon="14.5788033"><ele>20.0</ele><time>2026-04-04T08:00:22.828Z</time></trkpt><trkpt lat="42.216035" lon="14.57869"><ele>20.0</ele><time>2026-04-04T08:00:24.828Z</time></trkpt><trkpt lat="42.2160933" lon="14.5785767"><ele>20.0</ele><time>2026-04-04T08:00:26.828Z</time></trkpt><trkpt lat="42.21615" lon="14.5784683"><ele>20.0</ele><time>2026-04-04T08:00:28.829Z</time></trkpt><trkpt lat="42.2162067" lon="14.5783617"><ele>20.0</ele><time>2026-04-04T08:00:30.828Z</time></trkpt><trkpt lat="42.2162617" lon="14.578245"><ele>20.0</ele><time>2026-04-04T08:00:32.828Z</time></trkpt><trkpt lat="42.216315" lon="14.5781333"><ele>20.0</ele><time>2026-04-04T08:00:34.828Z</time></trkpt><trkpt lat="42.2163783" lon="14.5780217"><ele>20.0</ele><time>2026-04-04T08:00:36.828Z</time></trkpt><trkpt lat="42.2164383" lon="14.57791"><ele>20.0</ele><time>2026-04-04T08:00:38.828Z</time></trkpt><trkpt lat="42.2165" lon="14.577785"><ele>20.0</ele><time>2026-04-04T08:00:40.828Z</time></trkpt><trkpt lat="42.2165567" lon="14.5776667"><ele>20.0</ele><time>2026-04-04T08:00:42.828Z</time></trkpt><trkpt lat="42.2166183" lon="14.5775633"><ele>20.0</ele><time>2026-04-04T08:00:44.828Z</time></trkpt><trkpt lat="42.2166717" lon="14.5774533"><ele>20.0</ele><time>2026-04-04T08:00:46.829Z</time></trkpt><trkpt lat="42.2167283" lon="14.5773417"><ele>20.0</ele><time>2026-04-04T08:00:48.828Z</time></trkpt><trkpt lat="42.2167767" lon="14.5772317"><ele>20.0</ele><time>2026-04-04T08:00:50.828Z</time></trkpt><trkpt lat="42.21683" lon="14.5771167"><ele>20.0</ele><time>2026-04-04T08:00:52.828Z</time></trkpt><trkpt lat="42.2168667" lon="14.5769883"><ele>20.0</ele><time>2026-04-04T08:00:54.828Z</time></trkpt><trkpt lat="42.216895" lon="14.57685"><ele>20.0</ele><time>2026-04-04T08:00:56.828Z</time></trkpt><trkpt lat="42.2169167" lon="14.5767017"><ele>20.0</ele><time>2026-04-04T08:00:58.828Z</time></trkpt><trkpt lat="42.2169417" lon="14.5765583"><ele>21.666666666666668</ele><time>2026-04-04T08:01:00.828Z</time></trkpt><trkpt lat="42.21695" lon="14.5764483"><ele>23.333333333333336</ele><time>2026-04-04T08:01:02.828Z</time></trkpt><trkpt lat="42.2169617" lon="14.57633"><ele>25.0</ele><time>2026-04-04T08:01:05.828Z</time></trkpt><trkpt lat="42.2169583" lon="14.57624"><ele>26.666666666666668</ele><time>2026-04-04T08:01:08.828Z</time></trkpt><trkpt lat="42.21696" lon="14.576155"><ele>28.333333333333332</ele><time>2026-04-04T08:01:11.828Z</time></trkpt><trkpt lat="42.2169317" lon="14.5762367"><ele>30.0</ele><time>2026-04-04T08:01:15.828Z</time></trkpt><trkpt lat="42.216915" lon="14.5763517"><ele>30.0</ele><time>2026-04-04T08:01:17.828Z</time></trkpt><trkpt lat="42.2169" lon="14.5764817"><ele>30.0</ele><time>2026-04-04T08:01:19.828Z</time></trkpt><trkpt lat="42.2168817" lon="14.5766417"><ele>30.0</ele><time>2026-04-04T08:01:21.828Z</time></trkpt><trkpt lat="42.2168533" lon="14.5768017"><ele>30.0</ele><time>2026-04-04T08:01:23.828Z</time></trkpt><trkpt lat="42.2168333" lon="14.576885"><ele>30.0</ele><time>2026-04-04T08:01:24.828Z</time></trkpt><trkpt lat="42.21681" lon="14.57697"><ele>28.571428571428573</ele><time>2026-04-04T08:01:25.828Z</time></trkpt><trkpt lat="42.2167833" lon="14.5770567"><ele>27.142857142857142</ele><time>2026-04-04T08:01:26.828Z</time></trkpt><trkpt lat="42.2167467" lon="14.5771383"><ele>25.714285714285715</ele><time>2026-04-04T08:01:27.829Z</time></trkpt><trkpt lat="42.2167083" lon="14.5772167"><ele>24.285714285714285</ele><time>2026-04-04T08:01:28.829Z</time></trkpt><trkpt lat="42.216675" lon="14.5772933"><ele>22.857142857142858</ele><time>2026-04-04T08:01:29.828Z</time></trkpt><trkpt lat="42.216635" lon="14.5773783"><ele>21.428571428571427</ele><time>2026-04-04T08:01:30.829Z</time></trkpt><trkpt lat="42.216595" lon="14.577465"><ele>20.0</ele><time>2026-04-04T08:01:31.828Z</time></trkpt><trkpt lat="42.2165533" lon="14.5775517"><ele>20.0</ele><time>2026-04-04T08:01:32.828Z</time></trkpt><trkpt lat="42.2165133" lon="14.5776367"><ele>20.0</ele><time>2026-04-04T08:01:33.829Z</time></trkpt><trkpt lat="42.2164617" lon="14.5777233"><ele>20.0</ele><time>2026-04-04T08:01:34.828Z</time></trkpt><trkpt lat="42.2164133" lon="14.5778117"><ele>20.0</ele><time>2026-04-04T08:01:35.829Z</time></trkpt><trkpt lat="42.2163717" lon="14.577895"><ele>20.0</ele><time>2026-04-04T08:01:36.828Z</time></trkpt><trkpt lat="42.21633" lon="14.5779817"><ele>20.0</ele><time>2026-04-04T08:01:37.828Z</time></trkpt><trkpt lat="42.2162767" lon="14.5780633"><ele>20.285714285714285</ele><time>2026-04-04T08:01:38.829Z</time></trkpt><trkpt lat="42.2162283" lon="14.5781367"><ele>20.571428571428573</ele><time>2026-04-04T08:01:39.828Z</time></trkpt><trkpt lat="42.216195" lon="14.578215"><ele>20.857142857142858</ele><time>2026-04-04T08:01:40.828Z</time></trkpt><trkpt lat="42.216155" lon="14.5782967"><ele>21.142857142857142</ele><time>2026-04-04T08:01:41.828Z</time></trkpt><trkpt lat="42.2161167" lon="14.5783783"><ele>21.428571428571427</ele><time>2026-04-04T08:01:42.828Z</time></trkpt><trkpt lat="42.2160817" lon="14.5784583"><ele>21.714285714285715</ele><time>2026-04-04T08:01:43.828Z</time></trkpt><trkpt lat="42.2160433" lon="14.5785417"><ele>22.0</ele><time>2026-04-04T08:01:44.828Z</time></trkpt><trkpt lat="42.216005" lon="14.5786283"><ele>21.714285714285715</ele><time>2026-04-04T08:01:45.828Z</time></trkpt><trkpt lat="42.215965" lon="14.5787083"><ele>21.428571428571427</ele><time>2026-04-04T08:01:46.828Z</time></trkpt><trkpt lat="42.2159233" lon="14.5787867"><ele>21.142857142857142</ele><time>2026-04-04T08:01:47.829Z</time></trkpt><trkpt lat="42.215885" lon="14.5788583"><ele>20.857142857142858</ele><time>2026-04-04T08:01:48.828Z</time></trkpt><trkpt lat="42.2158483" lon="14.5789333"><ele>20.571428571428573</ele><time>2026-04-04T08:01:49.828Z</time></trkpt><trkpt lat="42.21581" lon="14.5790067"><ele>20.285714285714285</ele><time>2026-04-04T08:01:50.828Z</time></trkpt><trkpt lat="42.215775" lon="14.5790867"><ele>20.0</ele><time>2026-04-04T08:01:51.828Z</time></trkpt><trkpt lat="42.2157317" lon="14.579165"><ele>20.0</ele><time>2026-04-04T08:01:52.828Z</time></trkpt><trkpt lat="42.2156883" lon="14.5792483"><ele>20.0</ele><time>2026-04-04T08:01:53.828Z</time></trkpt><trkpt lat="42.2156417" lon="14.57933"><ele>20.0</ele><time>2026-04-04T08:01:54.828Z</time></trkpt><trkpt lat="42.2156017" lon="14.5794117"><ele>20.0</ele><time>2026-04-04T08:01:55.828Z</time></trkpt><trkpt lat="42.2155583" lon="14.579495"><ele>20.0</ele><time>2026-04-04T08:01:56.828Z</time></trkpt><trkpt lat="42.215515" lon="14.57958"><ele>20.0</ele><time>2026-04-04T08:01:57.828Z</time></trkpt><trkpt lat="42.2154667" lon="14.5796667"><ele>20.5</ele><time>2026-04-04T08:01:58.828Z</time></trkpt><trkpt lat="42.215415" lon="14.5797533"><ele>21.0</ele><time>2026-04-04T08:01:59.828Z</time></trkpt><trkpt lat="42.21537" lon="14.579845"><ele>21.5</ele><time>2026-04-04T08:02:00.828Z</time></trkpt><trkpt lat="42.2153267" lon="14.5799433"><ele>22.0</ele><time>2026-04-04T08:02:01.829Z</time></trkpt><trkpt lat="42.2152783" lon="14.5800433"><ele>22.5</ele><time>2026-04-04T08:02:02.828Z</time></trkpt><trkpt lat="42.2152267" lon="14.5801433"><ele>23.0</ele><time>2026-04-04T08:02:03.829Z</time></trkpt><trkpt lat="42.2151683" lon="14.5802517"><ele>22.2</ele><time>2026-04-04T08:02:04.829Z</time></trkpt><trkpt lat="42.215115" lon="14.5803667"><ele>21.4</ele><time>2026-04-04T08:02:05.829Z</time></trkpt><trkpt lat="42.2150633" lon="14.5804767"><ele>20.599999999999998</ele><time>2026-04-04T08:02:06.828Z</time></trkpt><trkpt lat="42.21501" lon="14.58058"><ele>19.799999999999997</ele><time>2026-04-04T08:02:07.828Z</time></trkpt><trkpt lat="42.21496" lon="14.5806833"><ele>19.0</ele><time>2026-04-04T08:02:08.828Z</time></trkpt><trkpt lat="42.21491" lon="14.5807833"><ele>19.0</ele><time>2026-04-04T08:02:09.828Z</time></trkpt><trkpt lat="42.21486" lon="14.5808783"><ele>19.0</ele><time>2026-04-04T08:02:10.829Z</time></trkpt><trkpt lat="42.2148117" lon="14.580975"><ele>19.0</ele><time>2026-04-04T08:02:11.828Z</time></trkpt><trkpt lat="42.2147567" lon="14.5810733"><ele>19.0</ele><time>2026-04-04T08:02:12.829Z</time></trkpt><trkpt lat="42.2147067" lon="14.581165"><ele>19.0</ele><time>2026-04-04T08:02:13.828Z</time></trkpt><trkpt lat="42.2146633" lon="14.581255"><ele>19.0</ele><time>2026-04-04T08:02:14.828Z</time></trkpt><trkpt lat="42.2146083" lon="14.5813433"><ele>19.857142857142858</ele><time>2026-04-04T08:02:15.828Z</time></trkpt><trkpt lat="42.2145617" lon="14.581425"><ele>20.714285714285715</ele><time>2026-04-04T08:02:16.828Z</time></trkpt><trkpt lat="42.2145217" lon="14.5815117"><ele>21.571428571428573</ele><time>2026-04-04T08:02:17.829Z</time></trkpt><trkpt lat="42.2144867" lon="14.5815983"><ele>22.42857142857143</ele><time>2026-04-04T08:02:18.828Z</time></trkpt><trkpt lat="42.2144533" lon="14.5816867"><ele>23.285714285714285</ele><time>2026-04-04T08:02:19.829Z</time></trkpt><trkpt lat="42.21442" lon="14.5817683"><ele>24.142857142857146</ele><time>2026-04-04T08:02:20.828Z</time></trkpt><trkpt lat="42.2143867" lon="14.58185"><ele>25.0</ele><time>2026-04-04T08:02:21.828Z</time></trkpt><trkpt lat="42.2143517" lon="14.5819317"><ele>25.000000000000004</ele><time>2026-04-04T08:02:22.828Z</time></trkpt><trkpt lat="42.2143167" lon="14.58201"><ele>25.0</ele><time>2026-04-04T08:02:23.828Z</time></trkpt><trkpt lat="42.2142783" lon="14.5820867"><ele>25.0</ele><time>2026-04-04T08:02:24.828Z</time></trkpt><trkpt lat="42.2142117" lon="14.5822333"><ele>25.0</ele><time>2026-04-04T08:02:26.829Z</time></trkpt><trkpt lat="42.2141567" lon="14.5823683"><ele>25.000000000000004</ele><time>2026-04-04T08:02:28.828Z</time></trkpt><trkpt lat="42.2141283" lon="14.5824483"><ele>25.0</ele><time>2026-04-04T08:02:30.828Z</time></trkpt><trkpt lat="42.2141967" lon="14.5824667"><ele>24.000000000000004</ele><time>2026-04-04T08:02:33.828Z</time></trkpt><trkpt lat="42.214265" lon="14.5823633"><ele>23.0</ele><time>2026-04-04T08:02:35.828Z</time></trkpt><trkpt lat="42.2143733" lon="14.5823483"><ele>22.0</ele><time>2026-04-04T08:02:37.829Z</time></trkpt><trkpt lat="42.2144367" lon="14.5823783"><ele>21.0</ele><time>2026-04-04T08:02:38.829Z</time></trkpt><trkpt lat="42.2145" lon="14.5824333"><ele>20.0</ele><time>2026-04-04T08:02:39.829Z</time></trkpt><trkpt lat="42.2145633" lon="14.5825"><ele>19.0</ele><time>2026-04-04T08:02:40.828Z</time></trkpt><trkpt lat="42.2146233" lon="14.58254"><ele>19.0</ele><time>2026-04-04T08:02:41.828Z</time></trkpt><trkpt lat="42.2147183" lon="14.5825533"><ele>19.0</ele><time>2026-04-04T08:02:43.828Z</time></trkpt><trkpt lat="42.21479" lon="14.5825283"><ele>19.0</ele><time>2026-04-04T08:02:45.828Z</time></trkpt><trkpt lat="42.21474" lon="14.5826517"><ele>19.0</ele><time>2026-04-04T08:02:53.828Z</time></trkpt><trkpt lat="42.214665" lon="14.58277"><ele>19.0</ele><time>2026-04-04T08:02:55.828Z</time></trkpt><trkpt lat="42.21463" lon="14.582845"><ele>18.2</ele><time>2026-04-04T08:02:56.828Z</time></trkpt><trkpt lat="42.214595" lon="14.58292"><ele>17.4</ele><time>2026-04-04T08:02:57.828Z</time></trkpt><trkpt lat="42.21456" lon="14.5829917"><ele>16.6</ele><time>2026-04-04T08:02:58.828Z</time></trkpt><trkpt lat="42.2144883" lon="14.5831317"><ele>15.8</ele><time>2026-04-04T08:03:00.828Z</time></trkpt><trkpt lat="42.2144117" lon="14.5832583"><ele>15.0</ele><time>2026-04-04T08:03:02.828Z</time></trkpt><trkpt lat="42.2143383" lon="14.5833783"><ele>15.0</ele><time>2026-04-04T08:03:04.828Z</time></trkpt><trkpt lat="42.2142683" lon="14.583505"><ele>15.0</ele><time>2026-04-04T08:03:06.828Z</time></trkpt><trkpt lat="42.2141967" lon="14.5836267"><ele>15.0</ele><time>2026-04-04T08:03:08.828Z</time></trkpt><trkpt lat="42.2141217" lon="14.5837333"><ele>15.0</ele><time>2026-04-04T08:03:10.828Z</time></trkpt><trkpt lat="42.2140483" lon="14.583845"><ele>16.4</ele><time>2026-04-04T08:03:12.828Z</time></trkpt><trkpt lat="42.2139767" lon="14.5839617"><ele>17.8</ele><time>2026-04-04T08:03:14.828Z</time></trkpt><trkpt lat="42.213905" lon="14.5840917"><ele>19.200000000000003</ele><time>2026-04-04T08:03:16.829Z</time></trkpt><trkpt lat="42.2138267" lon="14.58421"><ele>20.6</ele><time>2026-04-04T08:03:18.828Z</time></trkpt><trkpt lat="42.213785" lon="14.5842767"><ele>22.0</ele><time>2026-04-04T08:03:19.828Z</time></trkpt><trkpt lat="42.2137033" lon="14.5843983"><ele>19.5</ele><time>2026-04-04T08:03:21.828Z</time></trkpt><trkpt lat="42.213635" lon="14.5845217"><ele>17.0</ele><time>2026-04-04T08:03:23.828Z</time></trkpt><trkpt lat="42.2135667" lon="14.5846467"><ele>14.5</ele><time>2026-04-04T08:03:25.828Z</time></trkpt><trkpt lat="42.2134933" lon="14.5847633"><ele>12.0</ele><time>2026-04-04T08:03:27.828Z</time></trkpt><trkpt lat="42.2134233" lon="14.5848867"><ele>12.0</ele><time>2026-04-04T08:03:29.828Z</time></trkpt><trkpt lat="42.2133633" lon="14.5850117"><ele>12.0</ele><time>2026-04-04T08:03:31.828Z</time></trkpt><trkpt lat="42.2132967" lon="14.58513"><ele>12.0</ele><time>2026-04-04T08:03:33.828Z</time></trkpt><trkpt lat="42.2132267" lon="14.5852483"><ele>12.0</ele><time>2026-04-04T08:03:35.829Z</time></trkpt><trkpt lat="42.2131717" lon="14.5853683"><ele>12.0</ele><time>2026-04-04T08:03:37.828Z</time></trkpt><trkpt lat="42.2131033" lon="14.5854983"><ele>12.8</ele><time>2026-04-04T08:03:39.828Z</time></trkpt><trkpt lat="42.21304" lon="14.5856383"><ele>13.6</ele><time>2026-04-04T08:03:41.828Z</time></trkpt><trkpt lat="42.2129733" lon="14.5857767"><ele>14.400000000000002</ele><time>2026-04-04T08:03:43.828Z</time></trkpt><trkpt lat="42.212935" lon="14.585845"><ele>15.200000000000001</ele><time>2026-04-04T08:03:44.828Z</time></trkpt><trkpt lat="42.2128683" lon="14.5859733"><ele>16.0</ele><time>2026-04-04T08:03:46.828Z</time></trkpt><trkpt lat="42.2127983" lon="14.5861117"><ele>14.600000000000001</ele><time>2026-04-04T08:03:48.828Z</time></trkpt><trkpt lat="42.2127317" lon="14.5862533"><ele>13.200000000000001</ele><time>2026-04-04T08:03:50.828Z</time></trkpt><trkpt lat="42.212695" lon="14.586325"><ele>11.8</ele><time>2026-04-04T08:03:51.828Z</time></trkpt><trkpt lat="42.21266" lon="14.5863967"><ele>10.4</ele><time>2026-04-04T08:03:52.828Z</time></trkpt><trkpt lat="42.2125883" lon="14.586535"><ele>9.0</ele><time>2026-04-04T08:03:54.828Z</time></trkpt><trkpt lat="42.2125233" lon="14.5866683"><ele>9.0</ele><time>2026-04-04T08:03:56.828Z</time></trkpt><trkpt lat="42.2124583" lon="14.5868017"><ele>9.0</ele><time>2026-04-04T08:03:58.828Z</time></trkpt><trkpt lat="42.2124217" lon="14.5868717"><ele>9.0</ele><time>2026-04-04T08:03:59.828Z</time></trkpt><trkpt lat="42.2123617" lon="14.5870033"><ele>9.0</ele><time>2026-04-04T08:04:01.828Z</time></trkpt><trkpt lat="42.2123" lon="14.5871417"><ele>9.0</ele><time>2026-04-04T08:04:03.828Z</time></trkpt><trkpt lat="42.21223" lon="14.5872817"><ele>11.75</ele><time>2026-04-04T08:04:05.829Z</time></trkpt><trkpt lat="42.21216" lon="14.5874167"><ele>14.5</ele><time>2026-04-04T08:04:07.828Z</time></trkpt><trkpt lat="42.212095" lon="14.5875483"><ele>17.25</ele><time>2026-04-04T08:04:09.828Z</time></trkpt><trkpt lat="42.2120283" lon="14.58768"><ele>20.0</ele><time>2026-04-04T08:04:11.828Z</time></trkpt><trkpt lat="42.2119633" lon="14.587815"><ele>18.75</ele><time>2026-04-04T08:04:13.828Z</time></trkpt><trkpt lat="42.2118967" lon="14.58795"><ele>17.5</ele><time>2026-04-04T08:04:15.828Z</time></trkpt><trkpt lat="42.2118333" lon="14.5880917"><ele>16.25</ele><time>2026-04-04T08:04:17.829Z</time></trkpt><trkpt lat="42.21177" lon="14.5882233"><ele>15.0</ele><time>2026-04-04T08:04:19.828Z</time></trkpt><trkpt lat="42.2117033" lon="14.5883533"><ele>15.0</ele><time>2026-04-04T08:04:21.828Z</time></trkpt><trkpt lat="42.2116317" lon="14.5884817"><ele>15.0</ele><time>2026-04-04T08:04:23.828Z</time></trkpt><trkpt lat="42.2115633" lon="14.5886167"><ele>15.0</ele><time>2026-04-04T08:04:25.829Z</time></trkpt><trkpt lat="42.2115017" lon="14.5887533"><ele>15.0</ele><time>2026-04-04T08:04:27.828Z</time></trkpt><trkpt lat="42.2114367" lon="14.588895"><ele>16.5</ele><time>2026-04-04T08:04:29.828Z</time></trkpt><trkpt lat="42.211405" lon="14.58897"><ele>18.0</ele><time>2026-04-04T08:04:30.828Z</time></trkpt><trkpt lat="42.2113683" lon="14.589045"><ele>19.5</ele><time>2026-04-04T08:04:31.828Z</time></trkpt><trkpt lat="42.2113333" lon="14.5891217"><ele>21.0</ele><time>2026-04-04T08:04:32.828Z</time></trkpt><trkpt lat="42.2113017" lon="14.5892"><ele>22.5</ele><time>2026-04-04T08:04:33.828Z</time></trkpt><trkpt lat="42.2112717" lon="14.5892783"><ele>24.0</ele><time>2026-04-04T08:04:34.828Z</time></trkpt><trkpt lat="42.211215" lon="14.5894317"><ele>22.57142857142857</ele><time>2026-04-04T08:04:36.829Z</time></trkpt><trkpt lat="42.211185" lon="14.58951"><ele>21.142857142857142</ele><time>2026-04-04T08:04:37.828Z</time></trkpt><trkpt lat="42.2111567" lon="14.5895867"><ele>19.714285714285715</ele><time>2026-04-04T08:04:38.828Z</time></trkpt><trkpt lat="42.2111283" lon="14.5896683"><ele>18.285714285714285</ele><time>2026-04-04T08:04:39.828Z</time></trkpt><trkpt lat="42.2110967" lon="14.5897467"><ele>16.857142857142858</ele><time>2026-04-04T08:04:40.828Z</time></trkpt><trkpt lat="42.2110667" lon="14.5898267"><ele>15.428571428571429</ele><time>2026-04-04T08:04:41.828Z</time></trkpt><trkpt lat="42.2110383" lon="14.5899083"><ele>14.0</ele><time>2026-04-04T08:04:42.829Z</time></trkpt><trkpt lat="42.21101" lon="14.5899867"><ele>14.000000000000002</ele><time>2026-04-04T08:04:43.828Z</time></trkpt><trkpt lat="42.21098" lon="14.590065"><ele>14.0</ele><time>2026-04-04T08:04:44.828Z</time></trkpt><trkpt lat="42.2109483" lon="14.5901417"><ele>14.0</ele><time>2026-04-04T08:04:45.828Z</time></trkpt><trkpt lat="42.210915" lon="14.5902217"><ele>14.0</ele><time>2026-04-04T08:04:46.828Z</time></trkpt><trkpt lat="42.210885" lon="14.5903"><ele>14.000000000000002</ele><time>2026-04-04T08:04:47.828Z</time></trkpt><trkpt lat="42.2108533" lon="14.5903833"><ele>14.0</ele><time>2026-04-04T08:04:48.828Z</time></trkpt><trkpt lat="42.2107933" lon="14.590535"><ele>12.714285714285714</ele><time>2026-04-04T08:04:50.828Z</time></trkpt><trkpt lat="42.2107633" lon="14.5906183"><ele>11.428571428571429</ele><time>2026-04-04T08:04:51.828Z</time></trkpt><trkpt lat="42.21073" lon="14.5907"><ele>10.142857142857142</ele><time>2026-04-04T08:04:52.828Z</time></trkpt><trkpt lat="42.2106967" lon="14.590785"><ele>8.857142857142858</ele><time>2026-04-04T08:04:53.828Z</time></trkpt><trkpt lat="42.21066" lon="14.5908683"><ele>7.571428571428571</ele><time>2026-04-04T08:04:54.829Z</time></trkpt><trkpt lat="42.21063" lon="14.5909517"><ele>6.285714285714286</ele><time>2026-04-04T08:04:55.828Z</time></trkpt><trkpt lat="42.2105967" lon="14.5910317"><ele>5.0</ele><time>2026-04-04T08:04:56.828Z</time></trkpt><trkpt lat="42.210565" lon="14.5911133"><ele>6.666666666666667</ele><time>2026-04-04T08:04:57.828Z</time></trkpt><trkpt lat="42.2104983" lon="14.59127"><ele>8.333333333333334</ele><time>2026-04-04T08:04:59.828Z</time></trkpt><trkpt lat="42.2104683" lon="14.59135"><ele>10.0</ele><time>2026-04-04T08:05:00.828Z</time></trkpt><trkpt lat="42.2104317" lon="14.5914317"><ele>11.666666666666666</ele><time>2026-04-04T08:05:01.828Z</time></trkpt><trkpt lat="42.2103967" lon="14.5915117"><ele>13.333333333333334</ele><time>2026-04-04T08:05:02.829Z</time></trkpt><trkpt lat="42.210365" lon="14.591595"><ele>15.0</ele><time>2026-04-04T08:05:03.828Z</time></trkpt><trkpt lat="42.2103333" lon="14.5916733"><ele>15.0</ele><time>2026-04-04T08:05:04.828Z</time></trkpt><trkpt lat="42.2102983" lon="14.5917517"><ele>15.0</ele><time>2026-04-04T08:05:05.828Z</time></trkpt><trkpt lat="42.2102317" lon="14.5918917"><ele>15.0</ele><time>2026-04-04T08:05:07.828Z</time></trkpt><trkpt lat="42.2101683" lon="14.592035"><ele>15.0</ele><time>2026-04-04T08:05:09.828Z</time></trkpt><trkpt lat="42.2100967" lon="14.592175"><ele>15.0</ele><time>2026-04-04T08:05:11.829Z</time></trkpt><trkpt lat="42.210065" lon="14.5922517"><ele>13.857142857142858</ele><time>2026-04-04T08:05:12.828Z</time></trkpt><trkpt lat="42.2100283" lon="14.5923233"><ele>12.714285714285714</ele><time>2026-04-04T08:05:13.828Z</time></trkpt><trkpt lat="42.2099883" lon="14.5923933"><ele>11.571428571428571</ele><time>2026-04-04T08:05:14.828Z</time></trkpt><trkpt lat="42.2099483" lon="14.592465"><ele>10.428571428571429</ele><time>2026-04-04T08:05:15.829Z</time></trkpt><trkpt lat="42.2099067" lon="14.5925333"><ele>9.285714285714285</ele><time>2026-04-04T08:05:16.828Z</time></trkpt><trkpt lat="42.209865" lon="14.5926083"><ele>8.142857142857142</ele><time>2026-04-04T08:05:17.828Z</time></trkpt><trkpt lat="42.2098267" lon="14.5926833"><ele>7.0</ele><time>2026-04-04T08:05:18.828Z</time></trkpt><trkpt lat="42.2097867" lon="14.5927567"><ele>8.0</ele><time>2026-04-04T08:05:19.828Z</time></trkpt><trkpt lat="42.2097483" lon="14.5928267"><ele>9.0</ele><time>2026-04-04T08:05:20.828Z</time></trkpt><trkpt lat="42.20967" lon="14.5929583"><ele>10.0</ele><time>2026-04-04T08:05:22.828Z</time></trkpt><trkpt lat="42.2095917" lon="14.59309"><ele>11.0</ele><time>2026-04-04T08:05:24.828Z</time></trkpt><trkpt lat="42.2095533" lon="14.5931583"><ele>11.999999999999998</ele><time>2026-04-04T08:05:25.828Z</time></trkpt><trkpt lat="42.2095083" lon="14.5932233"><ele>13.0</ele><time>2026-04-04T08:05:26.828Z</time></trkpt><trkpt lat="42.2094667" lon="14.5932883"><ele>13.0</ele><time>2026-04-04T08:05:27.828Z</time></trkpt><trkpt lat="42.2094117" lon="14.5933617"><ele>13.0</ele><time>2026-04-04T08:05:28.828Z</time></trkpt><trkpt lat="42.209365" lon="14.59344"><ele>13.0</ele><time>2026-04-04T08:05:29.828Z</time></trkpt><trkpt lat="42.2093217" lon="14.5935167"><ele>13.0</ele><time>2026-04-04T08:05:30.829Z</time></trkpt><trkpt lat="42.20928" lon="14.5935933"><ele>13.0</ele><time>2026-04-04T08:05:31.828Z</time></trkpt><trkpt lat="42.2092367" lon="14.5936667"><ele>13.0</ele><time>2026-04-04T08:05:32.828Z</time></trkpt><trkpt lat="42.2091967" lon="14.5937417"><ele>13.0</ele><time>2026-04-04T08:05:33.828Z</time></trkpt><trkpt lat="42.2091517" lon="14.593815"><ele>13.833333333333332</ele><time>2026-04-04T08:05:34.828Z</time></trkpt><trkpt lat="42.2091083" lon="14.5938883"><ele>14.666666666666666</ele><time>2026-04-04T08:05:35.828Z</time></trkpt><trkpt lat="42.2090617" lon="14.5939583"><ele>15.5</ele><time>2026-04-04T08:05:36.828Z</time></trkpt><trkpt lat="42.2090167" lon="14.5940267"><ele>16.333333333333332</ele><time>2026-04-04T08:05:37.829Z</time></trkpt><trkpt lat="42.2089733" lon="14.594095"><ele>17.166666666666668</ele><time>2026-04-04T08:05:38.828Z</time></trkpt><trkpt lat="42.2089233" lon="14.5941533"><ele>18.0</ele><time>2026-04-04T08:05:39.828Z</time></trkpt><trkpt lat="42.2088667" lon="14.5943017"><ele>18.000000000000004</ele><time>2026-04-04T08:05:41.828Z</time></trkpt><trkpt lat="42.2088317" lon="14.59438"><ele>18.0</ele><time>2026-04-04T08:05:42.828Z</time></trkpt><trkpt lat="42.2087917" lon="14.5944533"><ele>18.0</ele><time>2026-04-04T08:05:43.828Z</time></trkpt><trkpt lat="42.2087483" lon="14.594525"><ele>18.0</ele><time>2026-04-04T08:05:44.829Z</time></trkpt><trkpt lat="42.2087083" lon="14.5945983"><ele>18.0</ele><time>2026-04-04T08:05:45.828Z</time></trkpt><trkpt lat="42.2086667" lon="14.594675"><ele>18.000000000000004</ele><time>2026-04-04T08:05:46.829Z</time></trkpt><trkpt lat="42.2086283" lon="14.594745"><ele>18.0</ele><time>2026-04-04T08:05:47.828Z</time></trkpt><trkpt lat="42.2085533" lon="14.5948817"><ele>17.333333333333332</ele><time>2026-04-04T08:05:49.828Z</time></trkpt><trkpt lat="42.2084767" lon="14.5950217"><ele>16.666666666666668</ele><time>2026-04-04T08:05:51.828Z</time></trkpt><trkpt lat="42.2084317" lon="14.5950933"><ele>16.0</ele><time>2026-04-04T08:05:52.828Z</time></trkpt><trkpt lat="42.2083883" lon="14.5951667"><ele>15.333333333333334</ele><time>2026-04-04T08:05:53.828Z</time></trkpt><trkpt lat="42.20835" lon="14.595235"><ele>14.666666666666668</ele><time>2026-04-04T08:05:54.828Z</time></trkpt><trkpt lat="42.20831" lon="14.5953133"><ele>14.0</ele><time>2026-04-04T08:05:55.829Z</time></trkpt><trkpt lat="42.2082733" lon="14.5953833"><ele>14.666666666666668</ele><time>2026-04-04T08:05:56.828Z</time></trkpt><trkpt lat="42.2082033" lon="14.5955233"><ele>15.333333333333334</ele><time>2026-04-04T08:05:58.829Z</time></trkpt><trkpt lat="42.2081683" lon="14.5955967"><ele>16.0</ele><time>2026-04-04T08:05:59.829Z</time></trkpt><trkpt lat="42.2081317" lon="14.595675"><ele>16.666666666666668</ele><time>2026-04-04T08:06:00.828Z</time></trkpt><trkpt lat="42.2080633" lon="14.5958133"><ele>17.333333333333332</ele><time>2026-04-04T08:06:02.828Z</time></trkpt><trkpt lat="42.2080267" lon="14.5958867"><ele>18.0</ele><time>2026-04-04T08:06:03.828Z</time></trkpt><trkpt lat="42.2079883" lon="14.5959583"><ele>18.0</ele><time>2026-04-04T08:06:04.829Z</time></trkpt><trkpt lat="42.207955" lon="14.5960317"><ele>18.0</ele><time>2026-04-04T08:06:05.828Z</time></trkpt><trkpt lat="42.20792" lon="14.596105"><ele>18.0</ele><time>2026-04-04T08:06:06.828Z</time></trkpt><trkpt lat="42.2078533" lon="14.5962517"><ele>18.0</ele><time>2026-04-04T08:06:08.828Z</time></trkpt><trkpt lat="42.2078183" lon="14.5963267"><ele>18.0</ele><time>2026-04-04T08:06:09.828Z</time></trkpt><trkpt lat="42.2077883" lon="14.5964033"><ele>18.0</ele><time>2026-04-04T08:06:10.828Z</time></trkpt><trkpt lat="42.20775" lon="14.5964783"><ele>17.333333333333332</ele><time>2026-04-04T08:06:11.828Z</time></trkpt><trkpt lat="42.2077133" lon="14.5965517"><ele>16.666666666666668</ele><time>2026-04-04T08:06:12.829Z</time></trkpt><trkpt lat="42.207655" lon="14.59669"><ele>16.0</ele><time>2026-04-04T08:06:14.829Z</time></trkpt><trkpt lat="42.2076233" lon="14.5967733"><ele>15.333333333333334</ele><time>2026-04-04T08:06:15.828Z</time></trkpt><trkpt lat="42.2075917" lon="14.5968517"><ele>14.666666666666668</ele><time>2026-04-04T08:06:16.828Z</time></trkpt><trkpt lat="42.2075517" lon="14.5970083"><ele>14.0</ele><time>2026-04-04T08:06:18.829Z</time></trkpt><trkpt lat="42.2074933" lon="14.5971467"><ele>14.833333333333334</ele><time>2026-04-04T08:06:20.828Z</time></trkpt><trkpt lat="42.207435" lon="14.59731"><ele>15.666666666666668</ele><time>2026-04-04T08:06:22.829Z</time></trkpt><trkpt lat="42.2074033" lon="14.5973883"><ele>16.5</ele><time>2026-04-04T08:06:23.828Z</time></trkpt><trkpt lat="42.2073717" lon="14.597465"><ele>17.333333333333332</ele><time>2026-04-04T08:06:24.828Z</time></trkpt><trkpt lat="42.207335" lon="14.5975367"><ele>18.166666666666664</ele><time>2026-04-04T08:06:25.828Z</time></trkpt><trkpt lat="42.2072967" lon="14.5976117"><ele>19.0</ele><time>2026-04-04T08:06:26.829Z</time></trkpt><trkpt lat="42.20726" lon="14.5976833"><ele>19.0</ele><time>2026-04-04T08:06:27.829Z</time></trkpt><trkpt lat="42.2072233" lon="14.5977583"><ele>19.0</ele><time>2026-04-04T08:06:28.828Z</time></trkpt><trkpt lat="42.2071867" lon="14.5978283"><ele>19.0</ele><time>2026-04-04T08:06:29.828Z</time></trkpt><trkpt lat="42.2071533" lon="14.5979017"><ele>19.0</ele><time>2026-04-04T08:06:30.828Z</time></trkpt><trkpt lat="42.20709" lon="14.5980433"><ele>19.0</ele><time>2026-04-04T08:06:32.828Z</time></trkpt><trkpt lat="42.2070317" lon="14.598185"><ele>19.0</ele><time>2026-04-04T08:06:34.828Z</time></trkpt><trkpt lat="42.2070033" lon="14.5982617"><ele>18.333333333333332</ele><time>2026-04-04T08:06:35.828Z</time></trkpt><trkpt lat="42.2069683" lon="14.59834"><ele>17.666666666666664</ele><time>2026-04-04T08:06:36.828Z</time></trkpt><trkpt lat="42.2069367" lon="14.5984167"><ele>17.0</ele><time>2026-04-04T08:06:37.828Z</time></trkpt><trkpt lat="42.2069017" lon="14.5984933"><ele>16.333333333333332</ele><time>2026-04-04T08:06:38.828Z</time></trkpt><trkpt lat="42.2068383" lon="14.5986367"><ele>15.666666666666666</ele><time>2026-04-04T08:06:40.828Z</time></trkpt><trkpt lat="42.20678" lon="14.5987767"><ele>15.0</ele><time>2026-04-04T08:06:42.828Z</time></trkpt><trkpt lat="42.2067217" lon="14.5989133"><ele>14.75</ele><time>2026-04-04T08:06:44.828Z</time></trkpt><trkpt lat="42.2066583" lon="14.5990583"><ele>14.5</ele><time>2026-04-04T08:06:46.828Z</time></trkpt><trkpt lat="42.2065983" lon="14.5991983"><ele>14.25</ele><time>2026-04-04T08:06:48.829Z</time></trkpt><trkpt lat="42.2065417" lon="14.59934"><ele>14.0</ele><time>2026-04-04T08:06:50.828Z</time></trkpt><trkpt lat="42.2064883" lon="14.5994833"><ele>13.25</ele><time>2026-04-04T08:06:52.828Z</time></trkpt><trkpt lat="42.2064317" lon="14.5996133"><ele>12.5</ele><time>2026-04-04T08:06:54.828Z</time></trkpt><trkpt lat="42.2063717" lon="14.59974"><ele>11.75</ele><time>2026-04-04T08:06:56.828Z</time></trkpt><trkpt lat="42.20631" lon="14.5998667"><ele>11.0</ele><time>2026-04-04T08:06:58.829Z</time></trkpt><trkpt lat="42.20625" lon="14.6"><ele>11.0</ele><time>2026-04-04T08:07:00.829Z</time></trkpt><trkpt lat="42.20619" lon="14.6001333"><ele>11.0</ele><time>2026-04-04T08:07:02.828Z</time></trkpt><trkpt lat="42.206135" lon="14.600285"><ele>11.0</ele><time>2026-04-04T08:07:04.828Z</time></trkpt><trkpt lat="42.2060717" lon="14.600425"><ele>11.0</ele><time>2026-04-04T08:07:06.828Z</time></trkpt><trkpt lat="42.2060067" lon="14.6005583"><ele>10.25</ele><time>2026-04-04T08:07:08.828Z</time></trkpt><trkpt lat="42.205945" lon="14.6007"><ele>9.5</ele><time>2026-04-04T08:07:10.828Z</time></trkpt><trkpt lat="42.205885" lon="14.6008367"><ele>8.75</ele><time>2026-04-04T08:07:12.828Z</time></trkpt><trkpt lat="42.2058217" lon="14.6009617"><ele>8.0</ele><time>2026-04-04T08:07:14.828Z</time></trkpt><trkpt lat="42.2057617" lon="14.6010933"><ele>8.75</ele><time>2026-04-04T08:07:16.828Z</time></trkpt><trkpt lat="42.205705" lon="14.6012317"><ele>9.5</ele><time>2026-04-04T08:07:18.828Z</time></trkpt><trkpt lat="42.2056417" lon="14.6013683"><ele>10.25</ele><time>2026-04-04T08:07:20.828Z</time></trkpt><trkpt lat="42.205575" lon="14.6015067"><ele>11.0</ele><time>2026-04-04T08:07:22.828Z</time></trkpt><trkpt lat="42.205515" lon="14.6016467"><ele>11.0</ele><time>2026-04-04T08:07:24.828Z</time></trkpt><trkpt lat="42.2054567" lon="14.6017867"><ele>11.0</ele><time>2026-04-04T08:07:26.829Z</time></trkpt><trkpt lat="42.2053967" lon="14.6019317"><ele>11.0</ele><time>2026-04-04T08:07:28.828Z</time></trkpt><trkpt lat="42.2053383" lon="14.6020733"><ele>11.0</ele><time>2026-04-04T08:07:30.828Z</time></trkpt><trkpt lat="42.20528" lon="14.6022167"><ele>10.0</ele><time>2026-04-04T08:07:32.828Z</time></trkpt><trkpt lat="42.2052067" lon="14.60235"><ele>9.0</ele><time>2026-04-04T08:07:34.828Z</time></trkpt><trkpt lat="42.20514" lon="14.6024883"><ele>8.0</ele><time>2026-04-04T08:07:36.828Z</time></trkpt><trkpt lat="42.2050783" lon="14.6026283"><ele>7.0</ele><time>2026-04-04T08:07:38.828Z</time></trkpt><trkpt lat="42.2050133" lon="14.60277"><ele>6.3999999999999995</ele><time>2026-04-04T08:07:40.829Z</time></trkpt><trkpt lat="42.2049517" lon="14.6029183"><ele>5.799999999999999</ele><time>2026-04-04T08:07:42.828Z</time></trkpt><trkpt lat="42.2048933" lon="14.6030667"><ele>5.2</ele><time>2026-04-04T08:07:44.828Z</time></trkpt><trkpt lat="42.2048633" lon="14.6031433"><ele>4.6</ele><time>2026-04-04T08:07:45.829Z</time></trkpt><trkpt lat="42.2048017" lon="14.60329"><ele>4.0</ele><time>2026-04-04T08:07:47.828Z</time></trkpt><trkpt lat="42.2047367" lon="14.6034283"><ele>3.25</ele><time>2026-04-04T08:07:49.828Z</time></trkpt><trkpt lat="42.2046767" lon="14.603555"><ele>2.5</ele><time>2026-04-04T08:07:51.828Z</time></trkpt><trkpt lat="42.2046067" lon="14.603675"><ele>1.75</ele><time>2026-04-04T08:07:53.828Z</time></trkpt><trkpt lat="42.204535" lon="14.6037983"><ele>1.0</ele><time>2026-04-04T08:07:55.829Z</time></trkpt><trkpt lat="42.204475" lon="14.60394"><ele>1.0</ele><time>2026-04-04T08:07:57.828Z</time></trkpt><trkpt lat="42.2044117" lon="14.60408"><ele>1.0</ele><time>2026-04-04T08:07:59.828Z</time></trkpt><trkpt lat="42.2043517" lon="14.6042217"><ele>1.0</ele><time>2026-04-04T08:08:01.828Z</time></trkpt><trkpt lat="42.204295" lon="14.6043583"><ele>1.0</ele><time>2026-04-04T08:08:03.828Z</time></trkpt><trkpt lat="42.2042317" lon="14.6045"><ele>1.0</ele><time>2026-04-04T08:08:05.829Z</time></trkpt><trkpt lat="42.2041667" lon="14.60464"><ele>1.0</ele><time>2026-04-04T08:08:07.828Z</time></trkpt><trkpt lat="42.2040983" lon="14.6047833"><ele>1.0</ele><time>2026-04-04T08:08:09.828Z</time></trkpt><trkpt lat="42.2040633" lon="14.6048567"><ele>1.0</ele><time>2026-04-04T08:08:10.828Z</time></trkpt><trkpt lat="42.2040067" lon="14.6050017"><ele>1.0</ele><time>2026-04-04T08:08:12.828Z</time></trkpt><trkpt lat="42.2039483" lon="14.6051417"><ele>1.0</ele><time>2026-04-04T08:08:14.828Z</time></trkpt><trkpt lat="42.2039167" lon="14.6052167"><ele>1.0</ele><time>2026-04-04T08:08:15.828Z</time></trkpt><trkpt lat="42.2038533" lon="14.6053533"><ele>1.0</ele><time>2026-04-04T08:08:17.828Z</time></trkpt><trkpt lat="42.2037967" lon="14.6054983"><ele>1.0</ele><time>2026-04-04T08:08:19.828Z</time></trkpt><trkpt lat="42.2037417" lon="14.605645"><ele>1.0</ele><time>2026-04-04T08:08:21.828Z</time></trkpt><trkpt lat="42.203675" lon="14.605785"><ele>1.0</ele><time>2026-04-04T08:08:23.828Z</time></trkpt><trkpt lat="42.2036217" lon="14.60592"><ele>1.0</ele><time>2026-04-04T08:08:25.828Z</time></trkpt><trkpt lat="42.2035617" lon="14.606055"><ele>1.0</ele><time>2026-04-04T08:08:27.828Z</time></trkpt><trkpt lat="42.2035" lon="14.6062"><ele>1.0</ele><time>2026-04-04T08:08:29.829Z</time></trkpt><trkpt lat="42.203435" lon="14.606345"><ele>0.9999999999999999</ele><time>2026-04-04T08:08:31.828Z</time></trkpt><trkpt lat="42.2034" lon="14.6064183"><ele>1.0</ele><time>2026-04-04T08:08:32.828Z</time></trkpt><trkpt lat="42.2033667" lon="14.6064967"><ele>1.0</ele><time>2026-04-04T08:08:33.828Z</time></trkpt><trkpt lat="42.2033017" lon="14.6066417"><ele>1.0</ele><time>2026-04-04T08:08:35.828Z</time></trkpt><trkpt lat="42.2032683" lon="14.6067167"><ele>0.9999999999999999</ele><time>2026-04-04T08:08:36.829Z</time></trkpt><trkpt lat="42.2032367" lon="14.6067917"><ele>1.0</ele><time>2026-04-04T08:08:37.828Z</time></trkpt><trkpt lat="42.2031783" lon="14.606935"><ele>1.4</ele><time>2026-04-04T08:08:39.828Z</time></trkpt><trkpt lat="42.2031167" lon="14.6070817"><ele>1.8</ele><time>2026-04-04T08:08:41.829Z</time></trkpt><trkpt lat="42.2030817" lon="14.6071533"><ele>2.1999999999999997</ele><time>2026-04-04T08:08:42.828Z</time></trkpt><trkpt lat="42.20302" lon="14.6072883"><ele>2.6</ele><time>2026-04-04T08:08:44.828Z</time></trkpt><trkpt lat="42.20296" lon="14.60743"><ele>3.0</ele><time>2026-04-04T08:08:46.828Z</time></trkpt><trkpt lat="42.2028967" lon="14.607565"><ele>3.0</ele><time>2026-04-04T08:08:48.828Z</time></trkpt><trkpt lat="42.2028367" lon="14.60771"><ele>3.0</ele><time>2026-04-04T08:08:50.828Z</time></trkpt><trkpt lat="42.2027783" lon="14.607855"><ele>3.0</ele><time>2026-04-04T08:08:52.829Z</time></trkpt><trkpt lat="42.2027133" lon="14.607995"><ele>3.0</ele><time>2026-04-04T08:08:54.828Z</time></trkpt><trkpt lat="42.2026517" lon="14.6081333"><ele>3.25</ele><time>2026-04-04T08:08:56.828Z</time></trkpt><trkpt lat="42.2025983" lon="14.608275"><ele>3.5</ele><time>2026-04-04T08:08:58.829Z</time></trkpt><trkpt lat="42.2025383" lon="14.608425"><ele>3.75</ele><time>2026-04-04T08:09:00.828Z</time></trkpt><trkpt lat="42.2024833" lon="14.60857"><ele>4.0</ele><time>2026-04-04T08:09:02.828Z</time></trkpt><trkpt lat="42.2024267" lon="14.6087117"><ele>4.2</ele><time>2026-04-04T08:09:04.828Z</time></trkpt><trkpt lat="42.2023983" lon="14.60879"><ele>4.4</ele><time>2026-04-04T08:09:05.828Z</time></trkpt><trkpt lat="42.2023683" lon="14.608865"><ele>4.6</ele><time>2026-04-04T08:09:06.828Z</time></trkpt><trkpt lat="42.2023083" lon="14.6090083"><ele>4.8</ele><time>2026-04-04T08:09:08.828Z</time></trkpt><trkpt lat="42.2022483" lon="14.6091383"><ele>5.0</ele><time>2026-04-04T08:09:10.828Z</time></trkpt><trkpt lat="42.20219" lon="14.6092667"><ele>4.6</ele><time>2026-04-04T08:09:12.828Z</time></trkpt><trkpt lat="42.2021367" lon="14.6094017"><ele>4.2</ele><time>2026-04-04T08:09:14.828Z</time></trkpt><trkpt lat="42.2020833" lon="14.6095417"><ele>3.8</ele><time>2026-04-04T08:09:16.828Z</time></trkpt><trkpt lat="42.2020317" lon="14.6096617"><ele>3.4</ele><time>2026-04-04T08:09:18.828Z</time></trkpt><trkpt lat="42.2019867" lon="14.6097783"><ele>3.0</ele><time>2026-04-04T08:09:20.828Z</time></trkpt><trkpt lat="42.2019517" lon="14.60991"><ele>3.0</ele><time>2026-04-04T08:09:22.828Z</time></trkpt><trkpt lat="42.201945" lon="14.6100617"><ele>3.0</ele><time>2026-04-04T08:09:24.828Z</time></trkpt><trkpt lat="42.2019433" lon="14.6101517"><ele>3.0</ele><time>2026-04-04T08:09:25.828Z</time></trkpt><trkpt lat="42.2019483" lon="14.6103083"><ele>3.0</ele><time>2026-04-04T08:09:27.828Z</time></trkpt><trkpt lat="42.2019417" lon="14.61046"><ele>3.0</ele><time>2026-04-04T08:09:29.828Z</time></trkpt><trkpt lat="42.201905" lon="14.6105867"><ele>3.3333333333333335</ele><time>2026-04-04T08:09:31.828Z</time></trkpt><trkpt lat="42.20186" lon="14.6106817"><ele>3.666666666666667</ele><time>2026-04-04T08:09:33.828Z</time></trkpt><trkpt lat="42.20183" lon="14.6107683"><ele>4.0</ele><time>2026-04-04T08:09:35.828Z</time></trkpt><trkpt lat="42.2018117" lon="14.61087"><ele>4.333333333333334</ele><time>2026-04-04T08:09:37.829Z</time></trkpt><trkpt lat="42.2017883" lon="14.61098"><ele>4.666666666666667</ele><time>2026-04-04T08:09:39.828Z</time></trkpt><trkpt lat="42.201745" lon="14.6110783"><ele>5.0</ele><time>2026-04-04T08:09:42.829Z</time></trkpt><trkpt lat="42.201695" lon="14.6111433"><ele>5.0</ele><time>2026-04-04T08:09:44.828Z</time></trkpt><trkpt lat="42.201655" lon="14.611235"><ele>5.0</ele><time>2026-04-04T08:09:46.828Z</time></trkpt><trkpt lat="42.2016233" lon="14.6113283"><ele>5.0</ele><time>2026-04-04T08:09:48.828Z</time></trkpt><trkpt lat="42.2016133" lon="14.6114183"><ele>5.0</ele><time>2026-04-04T08:09:51.828Z</time></trkpt><trkpt lat="42.2015833" lon="14.6115"><ele>5.0</ele><time>2026-04-04T08:09:55.828Z</time></trkpt><trkpt lat="42.2015483" lon="14.61158"><ele>5.0</ele><time>2026-04-04T08:09:59.828Z</time></trkpt><trkpt lat="42.2015183" lon="14.6116567"><ele>5.0</ele><time>2026-04-04T08:10:03.828Z</time></trkpt><trkpt lat="42.2014817" lon="14.611745"><ele>5.0</ele><time>2026-04-04T08:10:08.828Z</time></trkpt><trkpt lat="42.201455" lon="14.61185"><ele>5.0</ele><time>2026-04-04T08:10:12.828Z</time></trkpt><trkpt lat="42.201435" lon="14.6119367"><ele>5.0</ele><time>2026-04-04T08:10:15.828Z</time></trkpt><trkpt lat="42.2014067" lon="14.6120433"><ele>5.0</ele><time>2026-04-04T08:10:18.828Z</time></trkpt><trkpt lat="42.20138" lon="14.6121383"><ele>5.0</ele><time>2026-04-04T08:10:20.828Z</time></trkpt><trkpt lat="42.20135" lon="14.6122517"><ele>5.0</ele><time>2026-04-04T08:10:22.828Z</time></trkpt><trkpt lat="42.2013167" lon="14.6123717"><ele>5.2</ele><time>2026-04-04T08:10:24.829Z</time></trkpt><trkpt lat="42.2012817" lon="14.6124917"><ele>5.4</ele><time>2026-04-04T08:10:26.829Z</time></trkpt><trkpt lat="42.2012467" lon="14.6126"><ele>5.6</ele><time>2026-04-04T08:10:28.828Z</time></trkpt><trkpt lat="42.2012167" lon="14.6126933"><ele>5.8</ele><time>2026-04-04T08:10:30.828Z</time></trkpt><trkpt lat="42.2011767" lon="14.6128117"><ele>6.0</ele><time>2026-04-04T08:10:32.828Z</time></trkpt><trkpt lat="42.2011483" lon="14.6129417"><ele>6.199999999999999</ele><time>2026-04-04T08:10:34.829Z</time></trkpt><trkpt lat="42.2011067" lon="14.61308"><ele>6.3999999999999995</ele><time>2026-04-04T08:10:36.828Z</time></trkpt><trkpt lat="42.20106" lon="14.6132233"><ele>6.6</ele><time>2026-04-04T08:10:38.828Z</time></trkpt><trkpt lat="42.2010333" lon="14.6133017"><ele>6.8</ele><time>2026-04-04T08:10:39.828Z</time></trkpt><trkpt lat="42.2009917" lon="14.613445"><ele>7.0</ele><time>2026-04-04T08:10:41.828Z</time></trkpt><trkpt lat="42.200945" lon="14.61359"><ele>6.6</ele><time>2026-04-04T08:10:43.828Z</time></trkpt><trkpt lat="42.2009067" lon="14.6137267"><ele>6.199999999999999</ele><time>2026-04-04T08:10:45.828Z</time></trkpt><trkpt lat="42.2008667" lon="14.6138533"><ele>5.8</ele><time>2026-04-04T08:10:47.828Z</time></trkpt><trkpt lat="42.2008333" lon="14.6139633"><ele>5.4</ele><time>2026-04-04T08:10:49.828Z</time></trkpt><trkpt lat="42.200805" lon="14.6140667"><ele>5.0</ele><time>2026-04-04T08:10:51.829Z</time></trkpt><trkpt lat="42.2007733" lon="14.6141617"><ele>5.0</ele><time>2026-04-04T08:10:53.829Z</time></trkpt><trkpt lat="42.2007483" lon="14.61425"><ele>5.0</ele><time>2026-04-04T08:10:55.828Z</time></trkpt><trkpt lat="42.2007183" lon="14.6143417"><ele>5.0</ele><time>2026-04-04T08:10:57.828Z</time></trkpt><trkpt lat="42.2006833" lon="14.6144417"><ele>5.0</ele><time>2026-04-04T08:10:59.828Z</time></trkpt><trkpt lat="42.20066" lon="14.6145567"><ele>5.0</ele><time>2026-04-04T08:11:01.828Z</time></trkpt><trkpt lat="42.2006483" lon="14.6146833"><ele>5.0</ele><time>2026-04-04T08:11:03.828Z</time></trkpt><trkpt lat="42.2006617" lon="14.6148383"><ele>4.8</ele><time>2026-04-04T08:11:05.828Z</time></trkpt><trkpt lat="42.2006567" lon="14.6149233"><ele>4.6</ele><time>2026-04-04T08:11:06.828Z</time></trkpt><trkpt lat="42.2006183" lon="14.6150667"><ele>4.4</ele><time>2026-04-04T08:11:08.828Z</time></trkpt><trkpt lat="42.2005517" lon="14.6151733"><ele>4.2</ele><time>2026-04-04T08:11:10.828Z</time></trkpt><trkpt lat="42.2004883" lon="14.615265"><ele>4.0</ele><time>2026-04-04T08:11:12.828Z</time></trkpt><trkpt lat="42.2004367" lon="14.6153583"><ele>4.0</ele><time>2026-04-04T08:11:14.828Z</time></trkpt><trkpt lat="42.2003833" lon="14.615465"><ele>4.0</ele><time>2026-04-04T08:11:16.828Z</time></trkpt><trkpt lat="42.200325" lon="14.6155783"><ele>4.0</ele><time>2026-04-04T08:11:18.828Z</time></trkpt><trkpt lat="42.2002733" lon="14.6157033"><ele>4.0</ele><time>2026-04-04T08:11:20.828Z</time></trkpt><trkpt lat="42.2002283" lon="14.6158367"><ele>4.0</ele><time>2026-04-04T08:11:22.828Z</time></trkpt><trkpt lat="42.2001867" lon="14.6159667"><ele>4.0</ele><time>2026-04-04T08:11:24.828Z</time></trkpt><trkpt lat="42.2001433" lon="14.616095"><ele>4.0</ele><time>2026-04-04T08:11:26.828Z</time></trkpt><trkpt lat="42.200095" lon="14.6162433"><ele>4.0</ele><time>2026-04-04T08:11:28.828Z</time></trkpt><trkpt lat="42.2000683" lon="14.6163217"><ele>4.0</ele><time>2026-04-04T08:11:29.828Z</time></trkpt><trkpt lat="42.2000183" lon="14.616465"><ele>4.0</ele><time>2026-04-04T08:11:31.829Z</time></trkpt><trkpt lat="42.1999683" lon="14.6165917"><ele>4.4</ele><time>2026-04-04T08:11:33.828Z</time></trkpt><trkpt lat="42.1999217" lon="14.6167233"><ele>4.800000000000001</ele><time>2026-04-04T08:11:35.828Z</time></trkpt><trkpt lat="42.1998817" lon="14.6168567"><ele>5.199999999999999</ele><time>2026-04-04T08:11:37.828Z</time></trkpt><trkpt lat="42.1998433" lon="14.6169933"><ele>5.6</ele><time>2026-04-04T08:11:39.829Z</time></trkpt><trkpt lat="42.1997933" lon="14.617125"><ele>6.0</ele><time>2026-04-04T08:11:41.828Z</time></trkpt><trkpt lat="42.1997483" lon="14.617255"><ele>6.0</ele><time>2026-04-04T08:11:43.828Z</time></trkpt><trkpt lat="42.1996983" lon="14.61739"><ele>6.0</ele><time>2026-04-04T08:11:45.829Z</time></trkpt><trkpt lat="42.1996517" lon="14.6175367"><ele>6.0</ele><time>2026-04-04T08:11:47.829Z</time></trkpt><trkpt lat="42.1996017" lon="14.61768"><ele>6.0</ele><time>2026-04-04T08:11:49.828Z</time></trkpt><trkpt lat="42.1995583" lon="14.6178133"><ele>5.3999999999999995</ele><time>2026-04-04T08:11:51.828Z</time></trkpt><trkpt lat="42.1995183" lon="14.617945"><ele>4.8</ele><time>2026-04-04T08:11:53.829Z</time></trkpt><trkpt lat="42.199465" lon="14.6180883"><ele>4.199999999999999</ele><time>2026-04-04T08:11:55.828Z</time></trkpt><trkpt lat="42.1994167" lon="14.6182167"><ele>3.5999999999999996</ele><time>2026-04-04T08:11:57.828Z</time></trkpt><trkpt lat="42.1993783" lon="14.6183433"><ele>3.0</ele><time>2026-04-04T08:11:59.829Z</time></trkpt><trkpt lat="42.1993367" lon="14.6184667"><ele>3.0</ele><time>2026-04-04T08:12:01.828Z</time></trkpt><trkpt lat="42.1992983" lon="14.61859"><ele>3.0</ele><time>2026-04-04T08:12:03.828Z</time></trkpt><trkpt lat="42.1992617" lon="14.6187033"><ele>3.0</ele><time>2026-04-04T08:12:05.828Z</time></trkpt><trkpt lat="42.1992267" lon="14.6188017"><ele>3.0</ele><time>2026-04-04T08:12:07.828Z</time></trkpt><trkpt lat="42.199185" lon="14.6189083"><ele>3.0</ele><time>2026-04-04T08:12:09.828Z</time></trkpt><trkpt lat="42.1991483" lon="14.6190117"><ele>3.0</ele><time>2026-04-04T08:12:11.828Z</time></trkpt><trkpt lat="42.199115" lon="14.61912"><ele>2.8</ele><time>2026-04-04T08:12:13.829Z</time></trkpt><trkpt lat="42.19908" lon="14.6192317"><ele>2.5999999999999996</ele><time>2026-04-04T08:12:15.828Z</time></trkpt><trkpt lat="42.199045" lon="14.6193467"><ele>2.4000000000000004</ele><time>2026-04-04T08:12:17.828Z</time></trkpt><trkpt lat="42.1990117" lon="14.6194667"><ele>2.2</ele><time>2026-04-04T08:12:19.828Z</time></trkpt><trkpt lat="42.1989717" lon="14.6195833"><ele>2.0</ele><time>2026-04-04T08:12:21.828Z</time></trkpt><trkpt lat="42.1989283" lon="14.61971"><ele>3.4000000000000004</ele><time>2026-04-04T08:12:23.828Z</time></trkpt><trkpt lat="42.1988917" lon="14.6198417"><ele>4.800000000000001</ele><time>2026-04-04T08:12:25.829Z</time></trkpt><trkpt lat="42.1988517" lon="14.6199667"><ele>6.2</ele><time>2026-04-04T08:12:27.828Z</time></trkpt><trkpt lat="42.1988133" lon="14.6200917"><ele>7.6000000000000005</ele><time>2026-04-04T08:12:29.828Z</time></trkpt><trkpt lat="42.1987717" lon="14.620225"><ele>9.0</ele><time>2026-04-04T08:12:31.828Z</time></trkpt><trkpt lat="42.19873" lon="14.6203583"><ele>9.0</ele><time>2026-04-04T08:12:33.828Z</time></trkpt><trkpt lat="42.1986933" lon="14.6204883"><ele>9.0</ele><time>2026-04-04T08:12:35.828Z</time></trkpt><trkpt lat="42.1986633" lon="14.6206117"><ele>9.0</ele><time>2026-04-04T08:12:37.828Z</time></trkpt><trkpt lat="42.1986267" lon="14.620735"><ele>9.0</ele><time>2026-04-04T08:12:39.828Z</time></trkpt><trkpt lat="42.1985867" lon="14.6208783"><ele>9.0</ele><time>2026-04-04T08:12:41.828Z</time></trkpt><trkpt lat="42.19855" lon="14.6210167"><ele>8.8</ele><time>2026-04-04T08:12:43.828Z</time></trkpt><trkpt lat="42.1985133" lon="14.6211517"><ele>8.600000000000001</ele><time>2026-04-04T08:12:45.828Z</time></trkpt><trkpt lat="42.19847" lon="14.6212817"><ele>8.4</ele><time>2026-04-04T08:12:47.828Z</time></trkpt><trkpt lat="42.19843" lon="14.6214183"><ele>8.200000000000001</ele><time>2026-04-04T08:12:49.828Z</time></trkpt><trkpt lat="42.1983933" lon="14.6215633"><ele>8.0</ele><time>2026-04-04T08:12:51.828Z</time></trkpt><trkpt lat="42.19835" lon="14.6216967"><ele>8.0</ele><time>2026-04-04T08:12:53.828Z</time></trkpt><trkpt lat="42.1983133" lon="14.6218283"><ele>8.0</ele><time>2026-04-04T08:12:55.828Z</time></trkpt><trkpt lat="42.198275" lon="14.6219517"><ele>8.0</ele><time>2026-04-04T08:12:57.829Z</time></trkpt><trkpt lat="42.1982367" lon="14.6220817"><ele>8.0</ele><time>2026-04-04T08:12:59.828Z</time></trkpt><trkpt lat="42.1982017" lon="14.6222217"><ele>8.0</ele><time>2026-04-04T08:13:01.829Z</time></trkpt><trkpt lat="42.1981717" lon="14.6223533"><ele>8.600000000000001</ele><time>2026-04-04T08:13:03.829Z</time></trkpt><trkpt lat="42.1981367" lon="14.62247"><ele>9.200000000000001</ele><time>2026-04-04T08:13:05.828Z</time></trkpt><trkpt lat="42.1980983" lon="14.622605"><ele>9.8</ele><time>2026-04-04T08:13:07.829Z</time></trkpt><trkpt lat="42.1980583" lon="14.6227467"><ele>10.4</ele><time>2026-04-04T08:13:09.828Z</time></trkpt><trkpt lat="42.1980183" lon="14.62288"><ele>11.0</ele><time>2026-04-04T08:13:11.828Z</time></trkpt><trkpt lat="42.1979733" lon="14.623015"><ele>11.0</ele><time>2026-04-04T08:13:13.828Z</time></trkpt><trkpt lat="42.197925" lon="14.6231533"><ele>11.0</ele><time>2026-04-04T08:13:15.828Z</time></trkpt><trkpt lat="42.197885" lon="14.6233"><ele>11.0</ele><time>2026-04-04T08:13:17.828Z</time></trkpt><trkpt lat="42.1978467" lon="14.6234567"><ele>11.0</ele><time>2026-04-04T08:13:19.828Z</time></trkpt><trkpt lat="42.1978117" lon="14.623605"><ele>10.600000000000001</ele><time>2026-04-04T08:13:21.828Z</time></trkpt><trkpt lat="42.19779" lon="14.62369"><ele>10.200000000000001</ele><time>2026-04-04T08:13:22.828Z</time></trkpt><trkpt lat="42.19774" lon="14.62383"><ele>9.8</ele><time>2026-04-04T08:13:24.828Z</time></trkpt><trkpt lat="42.1976967" lon="14.6239583"><ele>9.4</ele><time>2026-04-04T08:13:26.828Z</time></trkpt><trkpt lat="42.1976533" lon="14.6241033"><ele>9.0</ele><time>2026-04-04T08:13:28.828Z</time></trkpt><trkpt lat="42.1976133" lon="14.6242433"><ele>9.0</ele><time>2026-04-04T08:13:30.828Z</time></trkpt><trkpt lat="42.1975683" lon="14.624375"><ele>9.0</ele><time>2026-04-04T08:13:32.829Z</time></trkpt><trkpt lat="42.1975167" lon="14.62451"><ele>9.0</ele><time>2026-04-04T08:13:34.828Z</time></trkpt><trkpt lat="42.1974683" lon="14.6246467"><ele>9.0</ele><time>2026-04-04T08:13:36.828Z</time></trkpt><trkpt lat="42.1974183" lon="14.6247783"><ele>9.0</ele><time>2026-04-04T08:13:38.828Z</time></trkpt><trkpt lat="42.1973717" lon="14.6249217"><ele>8.5</ele><time>2026-04-04T08:13:40.829Z</time></trkpt><trkpt lat="42.1973233" lon="14.62506"><ele>8.0</ele><time>2026-04-04T08:13:42.828Z</time></trkpt><trkpt lat="42.1972783" lon="14.62519"><ele>7.5</ele><time>2026-04-04T08:13:44.828Z</time></trkpt><trkpt lat="42.1972267" lon="14.6253267"><ele>7.0</ele><time>2026-04-04T08:13:46.828Z</time></trkpt><trkpt lat="42.1971767" lon="14.6254717"><ele>7.0</ele><time>2026-04-04T08:13:48.828Z</time></trkpt><trkpt lat="42.1971283" lon="14.62562"><ele>7.0</ele><time>2026-04-04T08:13:50.828Z</time></trkpt><trkpt lat="42.1970717" lon="14.62576"><ele>7.0</ele><time>2026-04-04T08:13:52.828Z</time></trkpt><trkpt lat="42.1970267" lon="14.6259"><ele>7.0</ele><time>2026-04-04T08:13:54.828Z</time></trkpt><trkpt lat="42.1969767" lon="14.6260433"><ele>5.25</ele><time>2026-04-04T08:13:56.828Z</time></trkpt><trkpt lat="42.1969267" lon="14.6261817"><ele>3.5</ele><time>2026-04-04T08:13:58.828Z</time></trkpt><trkpt lat="42.1968783" lon="14.6263233"><ele>1.75</ele><time>2026-04-04T08:14:00.828Z</time></trkpt><trkpt lat="42.19683" lon="14.6264567"><ele>0.0</ele><time>2026-04-04T08:14:02.828Z</time></trkpt><trkpt lat="42.1967733" lon="14.62659"><ele>0.0</ele><time>2026-04-04T08:14:04.828Z</time></trkpt><trkpt lat="42.1967283" lon="14.6267283"><ele>0.0</ele><time>2026-04-04T08:14:06.828Z</time></trkpt><trkpt lat="42.1966867" lon="14.6268633"><ele>0.0</ele><time>2026-04-04T08:14:08.829Z</time></trkpt><trkpt lat="42.1966333" lon="14.62699"><ele>0.0</ele><time>2026-04-04T08:14:10.829Z</time></trkpt><trkpt lat="42.196595" lon="14.627125"><ele>0.0</ele><time>2026-04-04T08:14:12.829Z</time></trkpt><trkpt lat="42.1965417" lon="14.62726"><ele>0.8</ele><time>2026-04-04T08:14:14.828Z</time></trkpt><trkpt lat="42.1964883" lon="14.627395"><ele>1.6</ele><time>2026-04-04T08:14:16.829Z</time></trkpt><trkpt lat="42.19644" lon="14.6275333"><ele>2.4000000000000004</ele><time>2026-04-04T08:14:18.828Z</time></trkpt><trkpt lat="42.1963983" lon="14.6276667"><ele>3.2</ele><time>2026-04-04T08:14:20.828Z</time></trkpt><trkpt lat="42.196355" lon="14.6277917"><ele>4.0</ele><time>2026-04-04T08:14:22.828Z</time></trkpt><trkpt lat="42.1963083" lon="14.6279283"><ele>4.0</ele><time>2026-04-04T08:14:24.828Z</time></trkpt><trkpt lat="42.1962633" lon="14.6280583"><ele>4.0</ele><time>2026-04-04T08:14:26.828Z</time></trkpt><trkpt lat="42.1962183" lon="14.6281767"><ele>4.0</ele><time>2026-04-04T08:14:28.828Z</time></trkpt><trkpt lat="42.196185" lon="14.6282883"><ele>4.0</ele><time>2026-04-04T08:14:30.829Z</time></trkpt><trkpt lat="42.196155" lon="14.628385"><ele>4.0</ele><time>2026-04-04T08:14:32.828Z</time></trkpt><trkpt lat="42.1961117" lon="14.6284933"><ele>3.9999999999999996</ele><time>2026-04-04T08:14:34.828Z</time></trkpt><trkpt lat="42.19607" lon="14.6286067"><ele>4.0</ele><time>2026-04-04T08:14:36.828Z</time></trkpt><trkpt lat="42.19603" lon="14.6287283"><ele>4.0</ele><time>2026-04-04T08:14:38.828Z</time></trkpt><trkpt lat="42.195995" lon="14.6288083"><ele>4.0</ele><time>2026-04-04T08:14:40.828Z</time></trkpt><trkpt lat="42.1959567" lon="14.628905"><ele>3.9999999999999996</ele><time>2026-04-04T08:14:43.828Z</time></trkpt><trkpt lat="42.1959167" lon="14.6289933"><ele>4.0</ele><time>2026-04-04T08:14:45.828Z</time></trkpt><trkpt lat="42.19588" lon="14.6291083"><ele>4.0</ele><time>2026-04-04T08:14:47.828Z</time></trkpt><trkpt lat="42.1958633" lon="14.629235"><ele>4.0</ele><time>2026-04-04T08:14:49.828Z</time></trkpt><trkpt lat="42.195855" lon="14.6293567"><ele>4.0</ele><time>2026-04-04T08:14:51.829Z</time></trkpt><trkpt lat="42.1958467" lon="14.629495"><ele>4.0</ele><time>2026-04-04T08:14:53.828Z</time></trkpt><trkpt lat="42.1958333" lon="14.629625"><ele>4.0</ele><time>2026-04-04T08:14:55.828Z</time></trkpt><trkpt lat="42.1958083" lon="14.6297617"><ele>4.0</ele><time>2026-04-04T08:14:57.828Z</time></trkpt><trkpt lat="42.1957783" lon="14.6298917"><ele>4.0</ele><time>2026-04-04T08:14:59.829Z</time></trkpt><trkpt lat="42.1957367" lon="14.6300083"><ele>4.0</ele><time>2026-04-04T08:15:01.828Z</time></trkpt><trkpt lat="42.195695" lon="14.6301383"><ele>4.0</ele><time>2026-04-04T08:15:03.828Z</time></trkpt><trkpt lat="42.1956567" lon="14.630275"><ele>4.0</ele><time>2026-04-04T08:15:05.828Z</time></trkpt><trkpt lat="42.1956167" lon="14.6303967"><ele>4.0</ele><time>2026-04-04T08:15:07.828Z</time></trkpt><trkpt lat="42.1955817" lon="14.630525"><ele>4.0</ele><time>2026-04-04T08:15:09.829Z</time></trkpt><trkpt lat="42.1955417" lon="14.63067"><ele>4.0</ele><time>2026-04-04T08:15:11.828Z</time></trkpt><trkpt lat="42.1954983" lon="14.63081"><ele>4.0</ele><time>2026-04-04T08:15:13.829Z</time></trkpt><trkpt lat="42.1954583" lon="14.63094"><ele>4.0</ele><time>2026-04-04T08:15:15.828Z</time></trkpt><trkpt lat="42.1954233" lon="14.63107"><ele>4.0</ele><time>2026-04-04T08:15:17.828Z</time></trkpt><trkpt lat="42.1953867" lon="14.63119"><ele>4.0</ele><time>2026-04-04T08:15:19.828Z</time></trkpt><trkpt lat="42.1953517" lon="14.6313267"><ele>4.0</ele><time>2026-04-04T08:15:21.828Z</time></trkpt><trkpt lat="42.19532" lon="14.6314617"><ele>4.0</ele><time>2026-04-04T08:15:23.828Z</time></trkpt><trkpt lat="42.1952767" lon="14.6315967"><ele>4.0</ele><time>2026-04-04T08:15:25.828Z</time></trkpt><trkpt lat="42.1952383" lon="14.6317317"><ele>4.0</ele><time>2026-04-04T08:15:27.828Z</time></trkpt><trkpt lat="42.195195" lon="14.6318683"><ele>4.0</ele><time>2026-04-04T08:15:29.828Z</time></trkpt><trkpt lat="42.1951517" lon="14.6320167"><ele>4.0</ele><time>2026-04-04T08:15:31.828Z</time></trkpt><trkpt lat="42.1951133" lon="14.6321733"><ele>4.0</ele><time>2026-04-04T08:15:33.828Z</time></trkpt><trkpt lat="42.1950933" lon="14.6322583"><ele>4.0</ele><time>2026-04-04T08:15:34.828Z</time></trkpt><trkpt lat="42.1950483" lon="14.6324067"><ele>4.25</ele><time>2026-04-04T08:15:36.828Z</time></trkpt><trkpt lat="42.1950067" lon="14.6325583"><ele>4.5</ele><time>2026-04-04T08:15:38.828Z</time></trkpt><trkpt lat="42.19496" lon="14.6327083"><ele>4.75</ele><time>2026-04-04T08:15:40.829Z</time></trkpt><trkpt lat="42.19492" lon="14.632855"><ele>5.0</ele><time>2026-04-04T08:15:42.829Z</time></trkpt><trkpt lat="42.1948817" lon="14.6329933"><ele>5.166666666666667</ele><time>2026-04-04T08:15:44.828Z</time></trkpt><trkpt lat="42.1948483" lon="14.6331083"><ele>5.333333333333334</ele><time>2026-04-04T08:15:46.828Z</time></trkpt><trkpt lat="42.1948133" lon="14.6332017"><ele>5.5</ele><time>2026-04-04T08:15:48.828Z</time></trkpt><trkpt lat="42.1947833" lon="14.6332783"><ele>5.666666666666667</ele><time>2026-04-04T08:15:50.828Z</time></trkpt><trkpt lat="42.1947617" lon="14.6333733"><ele>5.833333333333333</ele><time>2026-04-04T08:15:54.829Z</time></trkpt><trkpt lat="42.1947267" lon="14.6334683"><ele>6.0</ele><time>2026-04-04T08:15:59.828Z</time></trkpt><trkpt lat="42.1947933" lon="14.6334733"><ele>6.0</ele><time>2026-04-04T08:16:56.829Z</time></trkpt><trkpt lat="42.1947483" lon="14.63355"><ele>6.0</ele><time>2026-04-04T08:17:00.828Z</time></trkpt><trkpt lat="42.1947067" lon="14.633665"><ele>6.0</ele><time>2026-04-04T08:17:03.828Z</time></trkpt><trkpt lat="42.19467" lon="14.6337833"><ele>6.0</ele><time>2026-04-04T08:17:05.828Z</time></trkpt><trkpt lat="42.1946267" lon="14.63391"><ele>6.0</ele><time>2026-04-04T08:17:07.828Z</time></trkpt><trkpt lat="42.194595" lon="14.6340383"><ele>5.6</ele><time>2026-04-04T08:17:09.828Z</time></trkpt><trkpt lat="42.19456" lon="14.63416"><ele>5.199999999999999</ele><time>2026-04-04T08:17:11.828Z</time></trkpt><trkpt lat="42.19452" lon="14.634295"><ele>4.800000000000001</ele><time>2026-04-04T08:17:13.828Z</time></trkpt><trkpt lat="42.194475" lon="14.6344283"><ele>4.4</ele><time>2026-04-04T08:17:15.828Z</time></trkpt><trkpt lat="42.1944483" lon="14.6345717"><ele>4.0</ele><time>2026-04-04T08:17:17.828Z</time></trkpt><trkpt lat="42.1944117" lon="14.6347133"><ele>3.5</ele><time>2026-04-04T08:17:19.829Z</time></trkpt><trkpt lat="42.1943683" lon="14.634855"><ele>3.0</ele><time>2026-04-04T08:17:21.828Z</time></trkpt><trkpt lat="42.1943233" lon="14.6349917"><ele>2.5</ele><time>2026-04-04T08:17:23.828Z</time></trkpt><trkpt lat="42.1942933" lon="14.6351467"><ele>2.0</ele><time>2026-04-04T08:17:25.828Z</time></trkpt><trkpt lat="42.19425" lon="14.6353033"><ele>1.8</ele><time>2026-04-04T08:17:27.828Z</time></trkpt><trkpt lat="42.1942" lon="14.6354517"><ele>1.6</ele><time>2026-04-04T08:17:29.828Z</time></trkpt><trkpt lat="42.1941567" lon="14.6356017"><ele>1.4000000000000001</ele><time>2026-04-04T08:17:31.828Z</time></trkpt><trkpt lat="42.1941317" lon="14.63568"><ele>1.2000000000000002</ele><time>2026-04-04T08:17:32.829Z</time></trkpt><trkpt lat="42.194085" lon="14.6358283"><ele>1.0</ele><time>2026-04-04T08:17:34.828Z</time></trkpt><trkpt lat="42.194045" lon="14.6359767"><ele>0.9999999999999999</ele><time>2026-04-04T08:17:36.828Z</time></trkpt><trkpt lat="42.19402" lon="14.6360633"><ele>1.0</ele><time>2026-04-04T08:17:37.828Z</time></trkpt><trkpt lat="42.194" lon="14.636145"><ele>1.0</ele><time>2026-04-04T08:17:38.828Z</time></trkpt><trkpt lat="42.1939767" lon="14.63623"><ele>1.0</ele><time>2026-04-04T08:17:39.828Z</time></trkpt><trkpt lat="42.1939333" lon="14.6363817"><ele>0.9999999999999999</ele><time>2026-04-04T08:17:41.828Z</time></trkpt><trkpt lat="42.1938917" lon="14.636515"><ele>1.0</ele><time>2026-04-04T08:17:43.828Z</time></trkpt><trkpt lat="42.19384" lon="14.636655"><ele>1.0</ele><time>2026-04-04T08:17:45.828Z</time></trkpt><trkpt lat="42.1938183" lon="14.6367417"><ele>1.0</ele><time>2026-04-04T08:17:46.828Z</time></trkpt><trkpt lat="42.193795" lon="14.6368217"><ele>1.0</ele><time>2026-04-04T08:17:47.828Z</time></trkpt><trkpt lat="42.193755" lon="14.6369717"><ele>1.0</ele><time>2026-04-04T08:17:49.828Z</time></trkpt><trkpt lat="42.1937167" lon="14.6371117"><ele>1.0</ele><time>2026-04-04T08:17:51.829Z</time></trkpt><trkpt lat="42.1936817" lon="14.6372467"><ele>1.0</ele><time>2026-04-04T08:17:53.828Z</time></trkpt><trkpt lat="42.1936483" lon="14.6373767"><ele>1.0</ele><time>2026-04-04T08:17:55.829Z</time></trkpt><trkpt lat="42.193605" lon="14.6375083"><ele>1.0</ele><time>2026-04-04T08:17:57.828Z</time></trkpt><trkpt lat="42.1935717" lon="14.6376483"><ele>1.0</ele><time>2026-04-04T08:17:59.828Z</time></trkpt><trkpt lat="42.19353" lon="14.6377817"><ele>1.0</ele><time>2026-04-04T08:18:01.828Z</time></trkpt><trkpt lat="42.193495" lon="14.6379167"><ele>1.0</ele><time>2026-04-04T08:18:03.828Z</time></trkpt><trkpt lat="42.1934533" lon="14.6380517"><ele>1.0</ele><time>2026-04-04T08:18:05.828Z</time></trkpt><trkpt lat="42.1934133" lon="14.6381867"><ele>1.0</ele><time>2026-04-04T08:18:07.828Z</time></trkpt><trkpt lat="42.19338" lon="14.6383167"><ele>1.0</ele><time>2026-04-04T08:18:09.828Z</time></trkpt><trkpt lat="42.1933383" lon="14.6384533"><ele>1.0</ele><time>2026-04-04T08:18:11.828Z</time></trkpt><trkpt lat="42.193315" lon="14.6385367"><ele>1.0</ele><time>2026-04-04T08:18:12.828Z</time></trkpt><trkpt lat="42.1932717" lon="14.6386717"><ele>1.0</ele><time>2026-04-04T08:18:14.828Z</time></trkpt><trkpt lat="42.1932283" lon="14.6388067"><ele>1.0</ele><time>2026-04-04T08:18:16.829Z</time></trkpt><trkpt lat="42.1931817" lon="14.6389467"><ele>1.0</ele><time>2026-04-04T08:18:18.828Z</time></trkpt><trkpt lat="42.1931467" lon="14.6391017"><ele>1.0</ele><time>2026-04-04T08:18:20.828Z</time></trkpt><trkpt lat="42.1931233" lon="14.6392567"><ele>1.0</ele><time>2026-04-04T08:18:22.828Z</time></trkpt><trkpt lat="42.1930933" lon="14.63941"><ele>1.0</ele><time>2026-04-04T08:18:24.829Z</time></trkpt><trkpt lat="42.193055" lon="14.6395617"><ele>1.0</ele><time>2026-04-04T08:18:26.828Z</time></trkpt><trkpt lat="42.1930083" lon="14.6397"><ele>0.5</ele><time>2026-04-04T08:18:28.828Z</time></trkpt><trkpt lat="42.1929717" lon="14.6398517"><ele>0.0</ele><time>2026-04-04T08:18:30.828Z</time></trkpt><trkpt lat="42.192935" lon="14.6399983"><ele>-0.5</ele><time>2026-04-04T08:18:32.828Z</time></trkpt><trkpt lat="42.1928967" lon="14.64014"><ele>-1.0</ele><time>2026-04-04T08:18:34.828Z</time></trkpt><trkpt lat="42.19286" lon="14.64029"><ele>-0.8</ele><time>2026-04-04T08:18:36.828Z</time></trkpt><trkpt lat="42.1928283" lon="14.64044"><ele>-0.6000000000000001</ele><time>2026-04-04T08:18:38.828Z</time></trkpt><trkpt lat="42.1927933" lon="14.640595"><ele>-0.4</ele><time>2026-04-04T08:18:40.828Z</time></trkpt><trkpt lat="42.19276" lon="14.6407417"><ele>-0.2</ele><time>2026-04-04T08:18:42.829Z</time></trkpt><trkpt lat="42.192745" lon="14.640825"><ele>0.0</ele><time>2026-04-04T08:18:43.828Z</time></trkpt><trkpt lat="42.192715" lon="14.6409667"><ele>0.0</ele><time>2026-04-04T08:18:45.829Z</time></trkpt><trkpt lat="42.19268" lon="14.64111"><ele>0.0</ele><time>2026-04-04T08:18:47.828Z</time></trkpt><trkpt lat="42.19265" lon="14.641245"><ele>0.0</ele><time>2026-04-04T08:18:49.828Z</time></trkpt><trkpt lat="42.1926183" lon="14.6413867"><ele>0.0</ele><time>2026-04-04T08:18:51.828Z</time></trkpt><trkpt lat="42.1925833" lon="14.64152"><ele>0.0</ele><time>2026-04-04T08:18:53.829Z</time></trkpt><trkpt lat="42.1925533" lon="14.6416367"><ele>0.0</ele><time>2026-04-04T08:18:55.828Z</time></trkpt><trkpt lat="42.1925233" lon="14.641755"><ele>0.0</ele><time>2026-04-04T08:18:57.829Z</time></trkpt><trkpt lat="42.1924867" lon="14.6418833"><ele>0.0</ele><time>2026-04-04T08:18:59.828Z</time></trkpt><trkpt lat="42.1924583" lon="14.64201"><ele>0.0</ele><time>2026-04-04T08:19:01.828Z</time></trkpt><trkpt lat="42.192425" lon="14.6421317"><ele>0.0</ele><time>2026-04-04T08:19:03.828Z</time></trkpt><trkpt lat="42.1923883" lon="14.6422583"><ele>0.0</ele><time>2026-04-04T08:19:05.828Z</time></trkpt><trkpt lat="42.1923517" lon="14.6423783"><ele>0.0</ele><time>2026-04-04T08:19:07.828Z</time></trkpt><trkpt lat="42.1923033" lon="14.642475"><ele>0.0</ele><time>2026-04-04T08:19:09.828Z</time></trkpt><trkpt lat="42.192235" lon="14.642555"><ele>0.0</ele><time>2026-04-04T08:19:11.829Z</time></trkpt><trkpt lat="42.1921633" lon="14.64263"><ele>0.0</ele><time>2026-04-04T08:19:13.828Z</time></trkpt><trkpt lat="42.1921" lon="14.6427233"><ele>0.0</ele><time>2026-04-04T08:19:15.828Z</time></trkpt><trkpt lat="42.1920317" lon="14.6428167"><ele>0.0</ele><time>2026-04-04T08:19:17.828Z</time></trkpt><trkpt lat="42.1919717" lon="14.6429167"><ele>0.0</ele><time>2026-04-04T08:19:19.829Z</time></trkpt><trkpt lat="42.1919083" lon="14.6430067"><ele>0.0</ele><time>2026-04-04T08:19:21.829Z</time></trkpt><trkpt lat="42.1918433" lon="14.6430783"><ele>0.0</ele><time>2026-04-04T08:19:23.828Z</time></trkpt><trkpt lat="42.191785" lon="14.6431317"><ele>0.0</ele><time>2026-04-04T08:19:25.829Z</time></trkpt><trkpt lat="42.191705" lon="14.6431917"><ele>0.0</ele><time>2026-04-04T08:19:28.828Z</time></trkpt><trkpt lat="42.191645" lon="14.643225"><ele>0.0</ele><time>2026-04-04T08:19:31.828Z</time></trkpt><trkpt lat="42.1915967" lon="14.6432917"><ele>0.0</ele><time>2026-04-04T08:19:36.828Z</time></trkpt><trkpt lat="42.1916733" lon="14.643285"><ele>0.0</ele><time>2026-04-04T08:19:41.829Z</time></trkpt><trkpt lat="42.1917367" lon="14.6432333"><ele>0.0</ele><time>2026-04-04T08:19:43.828Z</time></trkpt><trkpt lat="42.191805" lon="14.64316"><ele>0.0</ele><time>2026-04-04T08:19:45.829Z</time></trkpt><trkpt lat="42.1918783" lon="14.643065"><ele>0.0</ele><time>2026-04-04T08:19:47.828Z</time></trkpt><trkpt lat="42.1919417" lon="14.6429683"><ele>0.0</ele><time>2026-04-04T08:19:49.828Z</time></trkpt><trkpt lat="42.1920033" lon="14.642895"><ele>0.0</ele><time>2026-04-04T08:19:51.828Z</time></trkpt><trkpt lat="42.1920883" lon="14.6428833"><ele>0.0</ele><time>2026-04-04T08:19:54.828Z</time></trkpt><trkpt lat="42.1921317" lon="14.642965"><ele>0.0</ele><time>2026-04-04T08:19:56.828Z</time></trkpt><trkpt lat="42.1921133" lon="14.6430733"><ele>0.0</ele><time>2026-04-04T08:19:58.828Z</time></trkpt><trkpt lat="42.1920867" lon="14.643195"><ele>0.0</ele><time>2026-04-04T08:20:00.829Z</time></trkpt><trkpt lat="42.192065" lon="14.6433117"><ele>0.0</ele><time>2026-04-04T08:20:02.828Z</time></trkpt><trkpt lat="42.1920467" lon="14.64341"><ele>0.0</ele><time>2026-04-04T08:20:04.828Z</time></trkpt><trkpt lat="42.1920267" lon="14.6434933"><ele>0.0</ele><time>2026-04-04T08:20:06.828Z</time></trkpt><trkpt lat="42.1920083" lon="14.6435867"><ele>0.0</ele><time>2026-04-04T08:20:09.828Z</time></trkpt><trkpt lat="42.1919833" lon="14.6436767"><ele>0.0</ele><time>2026-04-04T08:20:12.828Z</time></trkpt><trkpt lat="42.1919667" lon="14.64376"><ele>0.0</ele><time>2026-04-04T08:20:14.829Z</time></trkpt><trkpt lat="42.1919483" lon="14.643855"><ele>0.0</ele><time>2026-04-04T08:20:16.828Z</time></trkpt><trkpt lat="42.1919267" lon="14.6439767"><ele>0.0</ele><time>2026-04-04T08:20:18.828Z</time></trkpt><trkpt lat="42.191905" lon="14.6441183"><ele>0.0</ele><time>2026-04-04T08:20:20.828Z</time></trkpt><trkpt lat="42.191885" lon="14.6442883"><ele>0.0</ele><time>2026-04-04T08:20:22.828Z</time></trkpt><trkpt lat="42.1918683" lon="14.6444483"><ele>0.0</ele><time>2026-04-04T08:20:24.828Z</time></trkpt><trkpt lat="42.19184" lon="14.6445983"><ele>0.4</ele><time>2026-04-04T08:20:26.828Z</time></trkpt><trkpt lat="42.1918133" lon="14.6446967"><ele>0.8</ele><time>2026-04-04T08:20:28.828Z</time></trkpt><trkpt lat="42.1917083" lon="14.6447017"><ele>1.2000000000000002</ele><time>2026-04-04T08:20:31.829Z</time></trkpt><trkpt lat="42.19161" lon="14.6446367"><ele>1.6</ele><time>2026-04-04T08:20:33.828Z</time></trkpt><trkpt lat="42.1915067" lon="14.6445683"><ele>2.0</ele><time>2026-04-04T08:20:35.828Z</time></trkpt><trkpt lat="42.1913967" lon="14.6444983"><ele>2.0</ele><time>2026-04-04T08:20:37.828Z</time></trkpt><trkpt lat="42.191295" lon="14.644425"><ele>2.0</ele><time>2026-04-04T08:20:39.828Z</time></trkpt><trkpt lat="42.1911967" lon="14.6443733"><ele>2.0</ele><time>2026-04-04T08:20:41.828Z</time></trkpt><trkpt lat="42.1911" lon="14.6443433"><ele>2.0</ele><time>2026-04-04T08:20:43.828Z</time></trkpt><trkpt lat="42.1910183" lon="14.644345"><ele>2.0</ele><time>2026-04-04T08:20:45.828Z</time></trkpt><trkpt lat="42.1909283" lon="14.6443633"><ele>2.0</ele><time>2026-04-04T08:20:47.829Z</time></trkpt><trkpt lat="42.190825" lon="14.6443967"><ele>2.0</ele><time>2026-04-04T08:20:49.828Z</time></trkpt><trkpt lat="42.1907117" lon="14.6444333"><ele>2.0</ele><time>2026-04-04T08:20:51.828Z</time></trkpt><trkpt lat="42.19059" lon="14.6444717"><ele>2.0</ele><time>2026-04-04T08:20:53.828Z</time></trkpt><trkpt lat="42.1904733" lon="14.644505"><ele>2.1666666666666665</ele><time>2026-04-04T08:20:55.829Z</time></trkpt><trkpt lat="42.19037" lon="14.64455"><ele>2.333333333333333</ele><time>2026-04-04T08:20:57.828Z</time></trkpt><trkpt lat="42.1902783" lon="14.6445783"><ele>2.5</ele><time>2026-04-04T08:20:59.829Z</time></trkpt><trkpt lat="42.1902033" lon="14.6446017"><ele>2.6666666666666665</ele><time>2026-04-04T08:21:01.829Z</time></trkpt><trkpt lat="42.1901283" lon="14.6446183"><ele>2.8333333333333335</ele><time>2026-04-04T08:21:03.828Z</time></trkpt><trkpt lat="42.1900533" lon="14.6446117"><ele>3.0</ele><time>2026-04-04T08:21:05.828Z</time></trkpt><trkpt lat="42.18998" lon="14.64459"><ele>3.0</ele><time>2026-04-04T08:21:07.828Z</time></trkpt><trkpt lat="42.18991" lon="14.6445667"><ele>3.0</ele><time>2026-04-04T08:21:09.828Z</time></trkpt><trkpt lat="42.189785" lon="14.6444833"><ele>3.0</ele><time>2026-04-04T08:21:12.828Z</time></trkpt><trkpt lat="42.1896633" lon="14.6444883"><ele>3.0</ele><time>2026-04-04T08:21:14.828Z</time></trkpt><trkpt lat="42.1895783" lon="14.6445217"><ele>3.0</ele><time>2026-04-04T08:21:15.828Z</time></trkpt><trkpt lat="42.1895067" lon="14.6445617"><ele>2.6</ele><time>2026-04-04T08:21:16.828Z</time></trkpt><trkpt lat="42.1894467" lon="14.644595"><ele>2.1999999999999997</ele><time>2026-04-04T08:21:17.829Z</time></trkpt><trkpt lat="42.1893433" lon="14.6446217"><ele>1.8</ele><time>2026-04-04T08:21:19.829Z</time></trkpt><trkpt lat="42.18925" lon="14.6446333"><ele>1.4</ele><time>2026-04-04T08:21:21.828Z</time></trkpt><trkpt lat="42.189145" lon="14.6446333"><ele>1.0</ele><time>2026-04-04T08:21:23.828Z</time></trkpt><trkpt lat="42.189055" lon="14.64464"><ele>1.2000000000000002</ele><time>2026-04-04T08:21:25.828Z</time></trkpt><trkpt lat="42.188965" lon="14.6446483"><ele>1.4000000000000001</ele><time>2026-04-04T08:21:27.829Z</time></trkpt><trkpt lat="42.1888783" lon="14.6446617"><ele>1.6</ele><time>2026-04-04T08:21:29.828Z</time></trkpt><trkpt lat="42.188795" lon="14.6446533"><ele>1.8</ele><time>2026-04-04T08:21:31.828Z</time></trkpt><trkpt lat="42.1887083" lon="14.644645"><ele>2.0</ele><time>2026-04-04T08:21:33.828Z</time></trkpt><trkpt lat="42.1886033" lon="14.644655"><ele>2.0</ele><time>2026-04-04T08:21:35.828Z</time></trkpt><trkpt lat="42.1885033" lon="14.644655"><ele>2.0</ele><time>2026-04-04T08:21:37.829Z</time></trkpt><trkpt lat="42.1884117" lon="14.64466"><ele>2.0</ele><time>2026-04-04T08:21:39.828Z</time></trkpt><trkpt lat="42.18832" lon="14.6446667"><ele>2.0</ele><time>2026-04-04T08:21:41.828Z</time></trkpt><trkpt lat="42.18823" lon="14.64467"><ele>2.0</ele><time>2026-04-04T08:21:43.828Z</time></trkpt><trkpt lat="42.1881483" lon="14.644675"><ele>2.2</ele><time>2026-04-04T08:21:45.829Z</time></trkpt><trkpt lat="42.1880517" lon="14.6446817"><ele>2.4000000000000004</ele><time>2026-04-04T08:21:47.829Z</time></trkpt><trkpt lat="42.18796" lon="14.6446833"><ele>2.5999999999999996</ele><time>2026-04-04T08:21:49.828Z</time></trkpt><trkpt lat="42.1878683" lon="14.6446833"><ele>2.8</ele><time>2026-04-04T08:21:51.828Z</time></trkpt><trkpt lat="42.1877733" lon="14.64468"><ele>3.0</ele><time>2026-04-04T08:21:53.828Z</time></trkpt><trkpt lat="42.18767" lon="14.6446667"><ele>3.0</ele><time>2026-04-04T08:21:55.828Z</time></trkpt><trkpt lat="42.1875633" lon="14.6446333"><ele>3.0</ele><time>2026-04-04T08:21:57.828Z</time></trkpt><trkpt lat="42.187465" lon="14.6445717"><ele>3.0</ele><time>2026-04-04T08:21:59.828Z</time></trkpt><trkpt lat="42.18738" lon="14.64447"><ele>3.0</ele><time>2026-04-04T08:22:01.828Z</time></trkpt><trkpt lat="42.18731" lon="14.6443667"><ele>3.0</ele><time>2026-04-04T08:22:03.828Z</time></trkpt><trkpt lat="42.18725" lon="14.6442633"><ele>2.6</ele><time>2026-04-04T08:22:05.828Z</time></trkpt><trkpt lat="42.187185" lon="14.6441583"><ele>2.1999999999999997</ele><time>2026-04-04T08:22:07.829Z</time></trkpt><trkpt lat="42.1871133" lon="14.6440567"><ele>1.8</ele><time>2026-04-04T08:22:09.828Z</time></trkpt><trkpt lat="42.1870433" lon="14.64396"><ele>1.4</ele><time>2026-04-04T08:22:11.828Z</time></trkpt><trkpt lat="42.186965" lon="14.643865"><ele>1.0</ele><time>2026-04-04T08:22:13.828Z</time></trkpt><trkpt lat="42.1868717" lon="14.643785"><ele>1.0</ele><time>2026-04-04T08:22:15.828Z</time></trkpt><trkpt lat="42.1867783" lon="14.643715"><ele>1.0</ele><time>2026-04-04T08:22:17.828Z</time></trkpt><trkpt lat="42.1866733" lon="14.6436683"><ele>1.0</ele><time>2026-04-04T08:22:19.829Z</time></trkpt><trkpt lat="42.1865683" lon="14.6436267"><ele>1.0</ele><time>2026-04-04T08:22:21.828Z</time></trkpt><trkpt lat="42.1864583" lon="14.6435817"><ele>1.0</ele><time>2026-04-04T08:22:23.828Z</time></trkpt><trkpt lat="42.1863583" lon="14.64354"><ele>1.4</ele><time>2026-04-04T08:22:25.828Z</time></trkpt><trkpt lat="42.1862633" lon="14.6434967"><ele>1.8</ele><time>2026-04-04T08:22:27.828Z</time></trkpt><trkpt lat="42.18617" lon="14.6434633"><ele>2.1999999999999997</ele><time>2026-04-04T08:22:29.828Z</time></trkpt><trkpt lat="42.1860833" lon="14.6434383"><ele>2.6</ele><time>2026-04-04T08:22:31.828Z</time></trkpt><trkpt lat="42.185995" lon="14.6434083"><ele>3.0</ele><time>2026-04-04T08:22:33.829Z</time></trkpt><trkpt lat="42.185905" lon="14.6433917"><ele>3.0</ele><time>2026-04-04T08:22:35.829Z</time></trkpt><trkpt lat="42.1858233" lon="14.643385"><ele>3.0</ele><time>2026-04-04T08:22:37.828Z</time></trkpt><trkpt lat="42.1857433" lon="14.643385"><ele>3.0</ele><time>2026-04-04T08:22:39.828Z</time></trkpt><trkpt lat="42.1856517" lon="14.6434017"><ele>3.0</ele><time>2026-04-04T08:22:41.828Z</time></trkpt><trkpt lat="42.18556" lon="14.6434433"><ele>3.0</ele><time>2026-04-04T08:22:43.828Z</time></trkpt><trkpt lat="42.1854767" lon="14.6434883"><ele>3.0</ele><time>2026-04-04T08:22:45.829Z</time></trkpt><trkpt lat="42.1853967" lon="14.643535"><ele>3.0</ele><time>2026-04-04T08:22:47.829Z</time></trkpt><trkpt lat="42.1853117" lon="14.643575"><ele>3.0</ele><time>2026-04-04T08:22:49.828Z</time></trkpt><trkpt lat="42.1852167" lon="14.643615"><ele>3.0</ele><time>2026-04-04T08:22:51.829Z</time></trkpt><trkpt lat="42.185125" lon="14.6436567"><ele>3.0</ele><time>2026-04-04T08:22:53.828Z</time></trkpt><trkpt lat="42.1850317" lon="14.643705"><ele>3.0</ele><time>2026-04-04T08:22:55.828Z</time></trkpt><trkpt lat="42.1849383" lon="14.6437533"><ele>3.2</ele><time>2026-04-04T08:22:57.828Z</time></trkpt><trkpt lat="42.1848383" lon="14.643805"><ele>3.4</ele><time>2026-04-04T08:22:59.829Z</time></trkpt><trkpt lat="42.1847283" lon="14.643855"><ele>3.6000000000000005</ele><time>2026-04-04T08:23:01.828Z</time></trkpt><trkpt lat="42.1846333" lon="14.6439167"><ele>3.8000000000000003</ele><time>2026-04-04T08:23:03.828Z</time></trkpt><trkpt lat="42.1845433" lon="14.6440083"><ele>4.0</ele><time>2026-04-04T08:23:05.829Z</time></trkpt><trkpt lat="42.18446" lon="14.6441067"><ele>4.0</ele><time>2026-04-04T08:23:07.828Z</time></trkpt><trkpt lat="42.1843817" lon="14.644215"><ele>4.0</ele><time>2026-04-04T08:23:09.828Z</time></trkpt><trkpt lat="42.18431" lon="14.6443167"><ele>4.0</ele><time>2026-04-04T08:23:11.828Z</time></trkpt><trkpt lat="42.1842267" lon="14.6444017"><ele>4.0</ele><time>2026-04-04T08:23:13.828Z</time></trkpt><trkpt lat="42.1841317" lon="14.6444733"><ele>4.0</ele><time>2026-04-04T08:23:15.828Z</time></trkpt><trkpt lat="42.1840283" lon="14.6445133"><ele>4.0</ele><time>2026-04-04T08:23:17.828Z</time></trkpt><trkpt lat="42.183925" lon="14.644535"><ele>4.0</ele><time>2026-04-04T08:23:19.828Z</time></trkpt><trkpt lat="42.18383" lon="14.64455"><ele>4.0</ele><time>2026-04-04T08:23:21.828Z</time></trkpt><trkpt lat="42.183725" lon="14.6445633"><ele>4.0</ele><time>2026-04-04T08:23:23.828Z</time></trkpt><trkpt lat="42.1836183" lon="14.644565"><ele>4.0</ele><time>2026-04-04T08:23:25.828Z</time></trkpt><trkpt lat="42.1835083" lon="14.6445633"><ele>4.0</ele><time>2026-04-04T08:23:27.828Z</time></trkpt><trkpt lat="42.18341" lon="14.644565"><ele>4.0</ele><time>2026-04-04T08:23:29.829Z</time></trkpt><trkpt lat="42.1833033" lon="14.6445667"><ele>4.0</ele><time>2026-04-04T08:23:31.828Z</time></trkpt><trkpt lat="42.1831917" lon="14.6445767"><ele>4.0</ele><time>2026-04-04T08:23:33.828Z</time></trkpt><trkpt lat="42.183085" lon="14.6445817"><ele>4.0</ele><time>2026-04-04T08:23:35.828Z</time></trkpt><trkpt lat="42.1829733" lon="14.6445833"><ele>4.4</ele><time>2026-04-04T08:23:37.828Z</time></trkpt><trkpt lat="42.1828633" lon="14.6445833"><ele>4.800000000000001</ele><time>2026-04-04T08:23:39.828Z</time></trkpt><trkpt lat="42.1827517" lon="14.6445933"><ele>5.199999999999999</ele><time>2026-04-04T08:23:41.828Z</time></trkpt><trkpt lat="42.1826367" lon="14.6446033"><ele>5.6</ele><time>2026-04-04T08:23:43.829Z</time></trkpt><trkpt lat="42.1825283" lon="14.6446167"><ele>6.0</ele><time>2026-04-04T08:23:45.829Z</time></trkpt><trkpt lat="42.1824217" lon="14.64462"><ele>6.199999999999999</ele><time>2026-04-04T08:23:47.828Z</time></trkpt><trkpt lat="42.1823083" lon="14.6446283"><ele>6.3999999999999995</ele><time>2026-04-04T08:23:49.828Z</time></trkpt><trkpt lat="42.1822083" lon="14.6446283"><ele>6.6</ele><time>2026-04-04T08:23:51.829Z</time></trkpt><trkpt lat="42.1821167" lon="14.64462"><ele>6.8</ele><time>2026-04-04T08:23:53.828Z</time></trkpt><trkpt lat="42.1820167" lon="14.6445967"><ele>7.0</ele><time>2026-04-04T08:23:55.828Z</time></trkpt><trkpt lat="42.1819083" lon="14.64458"><ele>7.0</ele><time>2026-04-04T08:23:57.829Z</time></trkpt><trkpt lat="42.1817983" lon="14.644555"><ele>6.999999999999999</ele><time>2026-04-04T08:23:59.828Z</time></trkpt><trkpt lat="42.181695" lon="14.6445183"><ele>6.999999999999999</ele><time>2026-04-04T08:24:01.828Z</time></trkpt><trkpt lat="42.1815883" lon="14.6444767"><ele>7.0</ele><time>2026-04-04T08:24:03.829Z</time></trkpt><trkpt lat="42.1814833" lon="14.6444383"><ele>7.0</ele><time>2026-04-04T08:24:05.828Z</time></trkpt><trkpt lat="42.1814133" lon="14.644415"><ele>7.25</ele><time>2026-04-04T08:24:06.828Z</time></trkpt><trkpt lat="42.1812967" lon="14.644375"><ele>7.5</ele><time>2026-04-04T08:24:08.828Z</time></trkpt><trkpt lat="42.1811917" lon="14.6443267"><ele>7.75</ele><time>2026-04-04T08:24:10.829Z</time></trkpt><trkpt lat="42.1810867" lon="14.644285"><ele>8.0</ele><time>2026-04-04T08:24:12.829Z</time></trkpt><trkpt lat="42.1809767" lon="14.64424"><ele>8.0</ele><time>2026-04-04T08:24:14.829Z</time></trkpt><trkpt lat="42.1808733" lon="14.6442017"><ele>8.0</ele><time>2026-04-04T08:24:16.829Z</time></trkpt><trkpt lat="42.18077" lon="14.644155"><ele>8.0</ele><time>2026-04-04T08:24:18.829Z</time></trkpt><trkpt lat="42.1806633" lon="14.644115"><ele>8.0</ele><time>2026-04-04T08:24:20.829Z</time></trkpt><trkpt lat="42.1805567" lon="14.6440717"><ele>8.0</ele><time>2026-04-04T08:24:22.829Z</time></trkpt><trkpt lat="42.1804517" lon="14.6440267"><ele>7.800000000000001</ele><time>2026-04-04T08:24:24.829Z</time></trkpt><trkpt lat="42.180355" lon="14.6439783"><ele>7.6000000000000005</ele><time>2026-04-04T08:24:26.829Z</time></trkpt><trkpt lat="42.1802683" lon="14.6439067"><ele>7.3999999999999995</ele><time>2026-04-04T08:24:28.829Z</time></trkpt><trkpt lat="42.1802233" lon="14.6437867"><ele>7.199999999999999</ele><time>2026-04-04T08:24:30.829Z</time></trkpt><trkpt lat="42.1802117" lon="14.6436417"><ele>7.0</ele><time>2026-04-04T08:24:32.83Z</time></trkpt><trkpt lat="42.1802117" lon="14.6435067"><ele>7.0</ele><time>2026-04-04T08:24:34.829Z</time></trkpt><trkpt lat="42.1802083" lon="14.6433717"><ele>6.999999999999999</ele><time>2026-04-04T08:24:36.829Z</time></trkpt><trkpt lat="42.180205" lon="14.643235"><ele>6.999999999999999</ele><time>2026-04-04T08:24:38.829Z</time></trkpt><trkpt lat="42.1802033" lon="14.6431033"><ele>7.0</ele><time>2026-04-04T08:24:40.829Z</time></trkpt><trkpt lat="42.1802" lon="14.6429683"><ele>7.0</ele><time>2026-04-04T08:24:42.83Z</time></trkpt><trkpt lat="42.180195" lon="14.6428483"><ele>7.199999999999999</ele><time>2026-04-04T08:24:44.829Z</time></trkpt><trkpt lat="42.180185" lon="14.642715"><ele>7.3999999999999995</ele><time>2026-04-04T08:24:46.829Z</time></trkpt><trkpt lat="42.18016" lon="14.6425717"><ele>7.6000000000000005</ele><time>2026-04-04T08:24:48.829Z</time></trkpt><trkpt lat="42.1801217" lon="14.642435"><ele>7.800000000000001</ele><time>2026-04-04T08:24:50.829Z</time></trkpt><trkpt lat="42.1800783" lon="14.6422983"><ele>8.0</ele><time>2026-04-04T08:24:52.829Z</time></trkpt><trkpt lat="42.1800283" lon="14.6421683"><ele>8.0</ele><time>2026-04-04T08:24:54.829Z</time></trkpt><trkpt lat="42.1799683" lon="14.6420517"><ele>8.0</ele><time>2026-04-04T08:24:56.829Z</time></trkpt><trkpt lat="42.1799117" lon="14.6419367"><ele>8.0</ele><time>2026-04-04T08:24:58.83Z</time></trkpt><trkpt lat="42.17985" lon="14.641825"><ele>8.0</ele><time>2026-04-04T08:25:00.829Z</time></trkpt><trkpt lat="42.1797817" lon="14.641715"><ele>8.0</ele><time>2026-04-04T08:25:02.829Z</time></trkpt><trkpt lat="42.1797067" lon="14.6416167"><ele>8.0</ele><time>2026-04-04T08:25:04.829Z</time></trkpt><trkpt lat="42.1795217" lon="14.6415383"><ele>8.0</ele><time>2026-04-04T08:25:07.12Z</time></trkpt><trkpt lat="42.17946" lon="14.64146"><ele>8.0</ele><time>2026-04-04T08:25:10.326Z</time></trkpt><trkpt lat="42.1793783" lon="14.641395"><ele>8.0</ele><time>2026-04-04T08:25:11.826Z</time></trkpt><trkpt lat="42.17932" lon="14.64135"><ele>8.0</ele><time>2026-04-04T08:25:12.826Z</time></trkpt><trkpt lat="42.179215" lon="14.6412817"><ele>8.0</ele><time>2026-04-04T08:25:14.826Z</time></trkpt><trkpt lat="42.179105" lon="14.6412267"><ele>8.0</ele><time>2026-04-04T08:25:16.826Z</time></trkpt><trkpt lat="42.179" lon="14.6411817"><ele>8.0</ele><time>2026-04-04T08:25:18.826Z</time></trkpt><trkpt lat="42.178885" lon="14.6411633"><ele>8.0</ele><time>2026-04-04T08:25:20.826Z</time></trkpt><trkpt lat="42.1787683" lon="14.64116"><ele>8.200000000000001</ele><time>2026-04-04T08:25:22.826Z</time></trkpt><trkpt lat="42.17866" lon="14.641155"><ele>8.4</ele><time>2026-04-04T08:25:24.826Z</time></trkpt><trkpt lat="42.1785617" lon="14.641165"><ele>8.600000000000001</ele><time>2026-04-04T08:25:26.826Z</time></trkpt><trkpt lat="42.1784717" lon="14.6411767"><ele>8.8</ele><time>2026-04-04T08:25:28.826Z</time></trkpt><trkpt lat="42.1783783" lon="14.6412"><ele>9.0</ele><time>2026-04-04T08:25:30.827Z</time></trkpt><trkpt lat="42.1782833" lon="14.6412217"><ele>9.0</ele><time>2026-04-04T08:25:32.827Z</time></trkpt><trkpt lat="42.1781867" lon="14.64124"><ele>9.0</ele><time>2026-04-04T08:25:34.827Z</time></trkpt><trkpt lat="42.1781" lon="14.641245"><ele>9.0</ele><time>2026-04-04T08:25:36.827Z</time></trkpt><trkpt lat="42.1780167" lon="14.6412283"><ele>9.0</ele><time>2026-04-04T08:25:38.827Z</time></trkpt><trkpt lat="42.1779367" lon="14.6411617"><ele>9.0</ele><time>2026-04-04T08:25:40.826Z</time></trkpt><trkpt lat="42.1778883" lon="14.641065"><ele>9.0</ele><time>2026-04-04T08:25:42.826Z</time></trkpt><trkpt lat="42.1778583" lon="14.64096"><ele>9.4</ele><time>2026-04-04T08:25:44.826Z</time></trkpt><trkpt lat="42.1778283" lon="14.6408367"><ele>9.8</ele><time>2026-04-04T08:25:46.826Z</time></trkpt><trkpt lat="42.1778" lon="14.64071"><ele>10.200000000000001</ele><time>2026-04-04T08:25:48.827Z</time></trkpt><trkpt lat="42.1777733" lon="14.6405867"><ele>10.600000000000001</ele><time>2026-04-04T08:25:50.826Z</time></trkpt><trkpt lat="42.1777417" lon="14.640455"><ele>11.0</ele><time>2026-04-04T08:25:52.826Z</time></trkpt><trkpt lat="42.17771" lon="14.6403333"><ele>11.0</ele><time>2026-04-04T08:25:54.826Z</time></trkpt><trkpt lat="42.1776783" lon="14.6402067"><ele>11.0</ele><time>2026-04-04T08:25:56.826Z</time></trkpt><trkpt lat="42.17765" lon="14.6400767"><ele>11.0</ele><time>2026-04-04T08:25:58.826Z</time></trkpt><trkpt lat="42.17761" lon="14.6399467"><ele>11.0</ele><time>2026-04-04T08:26:00.826Z</time></trkpt><trkpt lat="42.1775583" lon="14.6398217"><ele>11.0</ele><time>2026-04-04T08:26:02.826Z</time></trkpt><trkpt lat="42.1774967" lon="14.6397083"><ele>11.0</ele><time>2026-04-04T08:26:04.826Z</time></trkpt><trkpt lat="42.1774283" lon="14.6395967"><ele>11.0</ele><time>2026-04-04T08:26:06.826Z</time></trkpt><trkpt lat="42.17735" lon="14.6394967"><ele>11.0</ele><time>2026-04-04T08:26:08.826Z</time></trkpt><trkpt lat="42.1772683" lon="14.6394067"><ele>11.0</ele><time>2026-04-04T08:26:10.826Z</time></trkpt><trkpt lat="42.1771817" lon="14.6393167"><ele>11.0</ele><time>2026-04-04T08:26:12.826Z</time></trkpt><trkpt lat="42.17711" lon="14.6392233"><ele>11.0</ele><time>2026-04-04T08:26:14.826Z</time></trkpt><trkpt lat="42.1770383" lon="14.6391333"><ele>11.0</ele><time>2026-04-04T08:26:16.827Z</time></trkpt><trkpt lat="42.1769767" lon="14.63904"><ele>11.0</ele><time>2026-04-04T08:26:18.826Z</time></trkpt><trkpt lat="42.176915" lon="14.6389467"><ele>11.0</ele><time>2026-04-04T08:26:20.826Z</time></trkpt><trkpt lat="42.17685" lon="14.6388617"><ele>11.0</ele><time>2026-04-04T08:26:22.826Z</time></trkpt><trkpt lat="42.17679" lon="14.6387917"><ele>11.0</ele><time>2026-04-04T08:26:24.826Z</time></trkpt><trkpt lat="42.1767233" lon="14.6387133"><ele>11.0</ele><time>2026-04-04T08:26:27.826Z</time></trkpt><trkpt lat="42.176675" lon="14.6386417"><ele>11.0</ele><time>2026-04-04T08:26:30.826Z</time></trkpt><trkpt lat="42.1765883" lon="14.6385583"><ele>11.0</ele><time>2026-04-04T08:27:00.826Z</time></trkpt><trkpt lat="42.1765133" lon="14.6385317"><ele>11.0</ele><time>2026-04-04T08:27:02.826Z</time></trkpt><trkpt lat="42.1764267" lon="14.63853"><ele>11.0</ele><time>2026-04-04T08:27:04.826Z</time></trkpt><trkpt lat="42.17632" lon="14.6385417"><ele>12.200000000000001</ele><time>2026-04-04T08:27:06.826Z</time></trkpt><trkpt lat="42.1762017" lon="14.6385583"><ele>13.4</ele><time>2026-04-04T08:27:08.826Z</time></trkpt><trkpt lat="42.1760833" lon="14.6385767"><ele>14.6</ele><time>2026-04-04T08:27:10.826Z</time></trkpt><trkpt lat="42.1759583" lon="14.6385983"><ele>15.8</ele><time>2026-04-04T08:27:12.827Z</time></trkpt><trkpt lat="42.1758833" lon="14.6386083"><ele>17.0</ele><time>2026-04-04T08:27:13.826Z</time></trkpt><trkpt lat="42.175805" lon="14.6386217"><ele>17.0</ele><time>2026-04-04T08:27:14.826Z</time></trkpt><trkpt lat="42.1757333" lon="14.6386333"><ele>17.0</ele><time>2026-04-04T08:27:15.826Z</time></trkpt><trkpt lat="42.1756633" lon="14.638645"><ele>17.0</ele><time>2026-04-04T08:27:16.827Z</time></trkpt><trkpt lat="42.1755917" lon="14.6386567"><ele>17.0</ele><time>2026-04-04T08:27:17.826Z</time></trkpt><trkpt lat="42.17552" lon="14.6386667"><ele>17.0</ele><time>2026-04-04T08:27:18.826Z</time></trkpt><trkpt lat="42.175395" lon="14.6386867"><ele>17.0</ele><time>2026-04-04T08:27:20.826Z</time></trkpt><trkpt lat="42.17533" lon="14.638695"><ele>16.5</ele><time>2026-04-04T08:27:21.826Z</time></trkpt><trkpt lat="42.1752083" lon="14.63872"><ele>16.0</ele><time>2026-04-04T08:27:23.826Z</time></trkpt><trkpt lat="42.175105" lon="14.6387333"><ele>15.5</ele><time>2026-04-04T08:27:25.826Z</time></trkpt><trkpt lat="42.1749983" lon="14.638745"><ele>15.0</ele><time>2026-04-04T08:27:27.826Z</time></trkpt><trkpt lat="42.1748767" lon="14.638765"><ele>14.833333333333334</ele><time>2026-04-04T08:27:29.826Z</time></trkpt><trkpt lat="42.1748083" lon="14.6387767"><ele>14.666666666666668</ele><time>2026-04-04T08:27:30.827Z</time></trkpt><trkpt lat="42.1747433" lon="14.638785"><ele>14.5</ele><time>2026-04-04T08:27:31.826Z</time></trkpt><trkpt lat="42.17468" lon="14.6387933"><ele>14.333333333333334</ele><time>2026-04-04T08:27:32.827Z</time></trkpt><trkpt lat="42.1745633" lon="14.6388167"><ele>14.166666666666668</ele><time>2026-04-04T08:27:34.826Z</time></trkpt><trkpt lat="42.1744567" lon="14.6388333"><ele>14.0</ele><time>2026-04-04T08:27:36.826Z</time></trkpt><trkpt lat="42.174365" lon="14.6388367"><ele>14.0</ele><time>2026-04-04T08:27:38.826Z</time></trkpt><trkpt lat="42.1742683" lon="14.63885"><ele>14.0</ele><time>2026-04-04T08:27:40.826Z</time></trkpt><trkpt lat="42.174155" lon="14.6388733"><ele>14.0</ele><time>2026-04-04T08:27:42.827Z</time></trkpt><trkpt lat="42.1740317" lon="14.6388933"><ele>14.0</ele><time>2026-04-04T08:27:44.827Z</time></trkpt><trkpt lat="42.1739133" lon="14.6389083"><ele>13.75</ele><time>2026-04-04T08:27:46.826Z</time></trkpt><trkpt lat="42.1737967" lon="14.6389317"><ele>13.5</ele><time>2026-04-04T08:27:48.826Z</time></trkpt><trkpt lat="42.1736767" lon="14.6389567"><ele>13.25</ele><time>2026-04-04T08:27:50.827Z</time></trkpt><trkpt lat="42.1735617" lon="14.6389833"><ele>13.0</ele><time>2026-04-04T08:27:52.826Z</time></trkpt><trkpt lat="42.173445" lon="14.638995"><ele>13.0</ele><time>2026-04-04T08:27:54.827Z</time></trkpt><trkpt lat="42.17333" lon="14.6390167"><ele>13.0</ele><time>2026-04-04T08:27:56.826Z</time></trkpt><trkpt lat="42.173215" lon="14.6390317"><ele>13.0</ele><time>2026-04-04T08:27:58.826Z</time></trkpt><trkpt lat="42.1730933" lon="14.6390517"><ele>13.0</ele><time>2026-04-04T08:28:00.826Z</time></trkpt><trkpt lat="42.17297" lon="14.63908"><ele>13.2</ele><time>2026-04-04T08:28:02.826Z</time></trkpt><trkpt lat="42.172905" lon="14.6390933"><ele>13.4</ele><time>2026-04-04T08:28:03.827Z</time></trkpt><trkpt lat="42.1727983" lon="14.639105"><ele>13.599999999999998</ele><time>2026-04-04T08:28:05.826Z</time></trkpt><trkpt lat="42.172685" lon="14.63912"><ele>13.799999999999999</ele><time>2026-04-04T08:28:07.826Z</time></trkpt><trkpt lat="42.1725733" lon="14.639135"><ele>14.0</ele><time>2026-04-04T08:28:09.826Z</time></trkpt><trkpt lat="42.172455" lon="14.6391567"><ele>14.25</ele><time>2026-04-04T08:28:11.826Z</time></trkpt><trkpt lat="42.1723483" lon="14.6391767"><ele>14.5</ele><time>2026-04-04T08:28:13.827Z</time></trkpt><trkpt lat="42.1722333" lon="14.639195"><ele>14.75</ele><time>2026-04-04T08:28:15.826Z</time></trkpt><trkpt lat="42.1721167" lon="14.6392167"><ele>15.0</ele><time>2026-04-04T08:28:17.827Z</time></trkpt><trkpt lat="42.172" lon="14.63923"><ele>15.0</ele><time>2026-04-04T08:28:19.826Z</time></trkpt><trkpt lat="42.1718783" lon="14.6392517"><ele>15.0</ele><time>2026-04-04T08:28:21.826Z</time></trkpt><trkpt lat="42.1717583" lon="14.6392767"><ele>15.0</ele><time>2026-04-04T08:28:23.826Z</time></trkpt><trkpt lat="42.171635" lon="14.6392967"><ele>15.0</ele><time>2026-04-04T08:28:25.826Z</time></trkpt><trkpt lat="42.1715167" lon="14.639315"><ele>15.25</ele><time>2026-04-04T08:28:27.826Z</time></trkpt><trkpt lat="42.1714" lon="14.63934"><ele>15.5</ele><time>2026-04-04T08:28:29.826Z</time></trkpt><trkpt lat="42.17128" lon="14.639355"><ele>15.75</ele><time>2026-04-04T08:28:31.826Z</time></trkpt><trkpt lat="42.17116" lon="14.6393717"><ele>16.0</ele><time>2026-04-04T08:28:33.826Z</time></trkpt><trkpt lat="42.1710367" lon="14.6393883"><ele>16.0</ele><time>2026-04-04T08:28:35.826Z</time></trkpt><trkpt lat="42.17092" lon="14.639405"><ele>16.0</ele><time>2026-04-04T08:28:37.826Z</time></trkpt><trkpt lat="42.1707967" lon="14.6394267"><ele>16.0</ele><time>2026-04-04T08:28:39.826Z</time></trkpt><trkpt lat="42.1706783" lon="14.6394433"><ele>16.0</ele><time>2026-04-04T08:28:41.826Z</time></trkpt><trkpt lat="42.1706133" lon="14.6394533"><ele>16.0</ele><time>2026-04-04T08:28:42.827Z</time></trkpt><trkpt lat="42.1704883" lon="14.6394767"><ele>16.0</ele><time>2026-04-04T08:28:44.826Z</time></trkpt><trkpt lat="42.1703667" lon="14.6395"><ele>16.0</ele><time>2026-04-04T08:28:46.826Z</time></trkpt><trkpt lat="42.1702483" lon="14.6395217"><ele>16.0</ele><time>2026-04-04T08:28:48.826Z</time></trkpt><trkpt lat="42.170135" lon="14.6395417"><ele>16.0</ele><time>2026-04-04T08:28:50.827Z</time></trkpt><trkpt lat="42.1700167" lon="14.639565"><ele>16.0</ele><time>2026-04-04T08:28:52.826Z</time></trkpt><trkpt lat="42.1698967" lon="14.6395833"><ele>16.0</ele><time>2026-04-04T08:28:54.827Z</time></trkpt><trkpt lat="42.169785" lon="14.639595"><ele>16.0</ele><time>2026-04-04T08:28:56.827Z</time></trkpt><trkpt lat="42.1696617" lon="14.6396167"><ele>16.0</ele><time>2026-04-04T08:28:58.826Z</time></trkpt><trkpt lat="42.169545" lon="14.6396383"><ele>16.5</ele><time>2026-04-04T08:29:00.826Z</time></trkpt><trkpt lat="42.16943" lon="14.6396583"><ele>17.0</ele><time>2026-04-04T08:29:02.827Z</time></trkpt><trkpt lat="42.1693133" lon="14.639675"><ele>17.5</ele><time>2026-04-04T08:29:04.827Z</time></trkpt><trkpt lat="42.1691983" lon="14.6396917"><ele>18.0</ele><time>2026-04-04T08:29:06.826Z</time></trkpt><trkpt lat="42.1690817" lon="14.6397083"><ele>18.0</ele><time>2026-04-04T08:29:08.826Z</time></trkpt><trkpt lat="42.1690167" lon="14.63972"><ele>18.0</ele><time>2026-04-04T08:29:09.826Z</time></trkpt><trkpt lat="42.1689517" lon="14.6397383"><ele>18.0</ele><time>2026-04-04T08:29:10.826Z</time></trkpt><trkpt lat="42.1688283" lon="14.6397617"><ele>18.0</ele><time>2026-04-04T08:29:12.826Z</time></trkpt><trkpt lat="42.1687083" lon="14.6397783"><ele>18.0</ele><time>2026-04-04T08:29:14.826Z</time></trkpt><trkpt lat="42.168645" lon="14.6397867"><ele>18.0</ele><time>2026-04-04T08:29:15.826Z</time></trkpt><trkpt lat="42.1685217" lon="14.6398083"><ele>18.0</ele><time>2026-04-04T08:29:17.827Z</time></trkpt><trkpt lat="42.1684583" lon="14.6398183"><ele>18.0</ele><time>2026-04-04T08:29:18.826Z</time></trkpt><trkpt lat="42.1683367" lon="14.6398367"><ele>18.0</ele><time>2026-04-04T08:29:20.826Z</time></trkpt><trkpt lat="42.1682717" lon="14.63985"><ele>18.0</ele><time>2026-04-04T08:29:21.826Z</time></trkpt><trkpt lat="42.1681567" lon="14.6398717"><ele>18.0</ele><time>2026-04-04T08:29:23.826Z</time></trkpt><trkpt lat="42.1680333" lon="14.6398867"><ele>17.8</ele><time>2026-04-04T08:29:25.827Z</time></trkpt><trkpt lat="42.167965" lon="14.6398983"><ele>17.6</ele><time>2026-04-04T08:29:26.826Z</time></trkpt><trkpt lat="42.1679" lon="14.6399083"><ele>17.4</ele><time>2026-04-04T08:29:27.827Z</time></trkpt><trkpt lat="42.1677783" lon="14.6399233"><ele>17.2</ele><time>2026-04-04T08:29:29.826Z</time></trkpt><trkpt lat="42.1676633" lon="14.63994"><ele>17.0</ele><time>2026-04-04T08:29:31.826Z</time></trkpt><trkpt lat="42.16754" lon="14.6399617"><ele>17.0</ele><time>2026-04-04T08:29:33.826Z</time></trkpt><trkpt lat="42.1674217" lon="14.6399817"><ele>17.0</ele><time>2026-04-04T08:29:35.826Z</time></trkpt><trkpt lat="42.1673017" lon="14.64"><ele>17.0</ele><time>2026-04-04T08:29:37.827Z</time></trkpt><trkpt lat="42.1671867" lon="14.6400183"><ele>17.0</ele><time>2026-04-04T08:29:39.827Z</time></trkpt><trkpt lat="42.1671217" lon="14.6400283"><ele>17.0</ele><time>2026-04-04T08:29:40.826Z</time></trkpt><trkpt lat="42.1669983" lon="14.6400517"><ele>17.0</ele><time>2026-04-04T08:29:42.827Z</time></trkpt><trkpt lat="42.166875" lon="14.6400733"><ele>17.0</ele><time>2026-04-04T08:29:44.826Z</time></trkpt><trkpt lat="42.166755" lon="14.64009"><ele>17.0</ele><time>2026-04-04T08:29:46.826Z</time></trkpt><trkpt lat="42.1666917" lon="14.6401"><ele>17.0</ele><time>2026-04-04T08:29:47.826Z</time></trkpt><trkpt lat="42.16657" lon="14.6401267"><ele>17.0</ele><time>2026-04-04T08:29:49.826Z</time></trkpt><trkpt lat="42.1664433" lon="14.6401517"><ele>17.2</ele><time>2026-04-04T08:29:51.826Z</time></trkpt><trkpt lat="42.1663333" lon="14.640165"><ele>17.4</ele><time>2026-04-04T08:29:53.826Z</time></trkpt><trkpt lat="42.1662217" lon="14.64018"><ele>17.6</ele><time>2026-04-04T08:29:55.826Z</time></trkpt><trkpt lat="42.1661117" lon="14.6402017"><ele>17.8</ele><time>2026-04-04T08:29:57.827Z</time></trkpt><trkpt lat="42.1659983" lon="14.64022"><ele>18.0</ele><time>2026-04-04T08:29:59.827Z</time></trkpt><trkpt lat="42.1658867" lon="14.6402333"><ele>18.0</ele><time>2026-04-04T08:30:01.827Z</time></trkpt><trkpt lat="42.1657717" lon="14.6402533"><ele>18.0</ele><time>2026-04-04T08:30:03.826Z</time></trkpt><trkpt lat="42.16566" lon="14.6402717"><ele>18.0</ele><time>2026-04-04T08:30:05.826Z</time></trkpt><trkpt lat="42.1655467" lon="14.6402933"><ele>18.0</ele><time>2026-04-04T08:30:07.827Z</time></trkpt><trkpt lat="42.1654267" lon="14.6403117"><ele>18.2</ele><time>2026-04-04T08:30:09.826Z</time></trkpt><trkpt lat="42.16532" lon="14.6403283"><ele>18.4</ele><time>2026-04-04T08:30:11.826Z</time></trkpt><trkpt lat="42.165215" lon="14.6403433"><ele>18.599999999999998</ele><time>2026-04-04T08:30:13.826Z</time></trkpt><trkpt lat="42.1651067" lon="14.64037"><ele>18.8</ele><time>2026-04-04T08:30:15.826Z</time></trkpt><trkpt lat="42.1649983" lon="14.640395"><ele>19.0</ele><time>2026-04-04T08:30:17.826Z</time></trkpt><trkpt lat="42.1648867" lon="14.6404317"><ele>19.2</ele><time>2026-04-04T08:30:19.826Z</time></trkpt><trkpt lat="42.1647817" lon="14.64048"><ele>19.4</ele><time>2026-04-04T08:30:21.826Z</time></trkpt><trkpt lat="42.1646767" lon="14.6405283"><ele>19.6</ele><time>2026-04-04T08:30:23.826Z</time></trkpt><trkpt lat="42.1645617" lon="14.6405667"><ele>19.8</ele><time>2026-04-04T08:30:25.826Z</time></trkpt><trkpt lat="42.164455" lon="14.6405883"><ele>20.0</ele><time>2026-04-04T08:30:27.826Z</time></trkpt><trkpt lat="42.1643583" lon="14.640615"><ele>20.0</ele><time>2026-04-04T08:30:29.826Z</time></trkpt><trkpt lat="42.1642683" lon="14.6406267"><ele>20.0</ele><time>2026-04-04T08:30:31.827Z</time></trkpt><trkpt lat="42.1641867" lon="14.6406"><ele>20.0</ele><time>2026-04-04T08:30:33.826Z</time></trkpt><trkpt lat="42.1640917" lon="14.64057"><ele>20.0</ele><time>2026-04-04T08:30:35.827Z</time></trkpt><trkpt lat="42.1639883" lon="14.64058"><ele>20.0</ele><time>2026-04-04T08:30:37.826Z</time></trkpt><trkpt lat="42.1638733" lon="14.6405967"><ele>20.0</ele><time>2026-04-04T08:30:39.826Z</time></trkpt><trkpt lat="42.163755" lon="14.6405533"><ele>20.0</ele><time>2026-04-04T08:30:41.826Z</time></trkpt><trkpt lat="42.1637" lon="14.6405067"><ele>20.0</ele><time>2026-04-04T08:30:42.826Z</time></trkpt><trkpt lat="42.1636583" lon="14.6404367"><ele>20.0</ele><time>2026-04-04T08:30:43.826Z</time></trkpt><trkpt lat="42.1636267" lon="14.6403617"><ele>20.0</ele><time>2026-04-04T08:30:44.827Z</time></trkpt><trkpt lat="42.1635683" lon="14.6402233"><ele>20.0</ele><time>2026-04-04T08:30:46.826Z</time></trkpt><trkpt lat="42.1634867" lon="14.6401133"><ele>20.0</ele><time>2026-04-04T08:30:48.826Z</time></trkpt><trkpt lat="42.163395" lon="14.64001"><ele>20.0</ele><time>2026-04-04T08:30:50.826Z</time></trkpt><trkpt lat="42.1633467" lon="14.63995"><ele>20.0</ele><time>2026-04-04T08:30:51.826Z</time></trkpt><trkpt lat="42.1633033" lon="14.6398883"><ele>20.0</ele><time>2026-04-04T08:30:52.826Z</time></trkpt><trkpt lat="42.1632617" lon="14.6398217"><ele>20.0</ele><time>2026-04-04T08:30:53.826Z</time></trkpt><trkpt lat="42.1631867" lon="14.6396983"><ele>20.0</ele><time>2026-04-04T08:30:55.827Z</time></trkpt><trkpt lat="42.16309" lon="14.6396033"><ele>20.25</ele><time>2026-04-04T08:30:57.827Z</time></trkpt><trkpt lat="42.16298" lon="14.63955"><ele>20.5</ele><time>2026-04-04T08:30:59.826Z</time></trkpt><trkpt lat="42.1628733" lon="14.6395133"><ele>20.75</ele><time>2026-04-04T08:31:01.826Z</time></trkpt><trkpt lat="42.162755" lon="14.6394617"><ele>21.0</ele><time>2026-04-04T08:31:03.826Z</time></trkpt><trkpt lat="42.16266" lon="14.63938"><ele>21.200000000000003</ele><time>2026-04-04T08:31:05.826Z</time></trkpt><trkpt lat="42.16258" lon="14.6392733"><ele>21.400000000000002</ele><time>2026-04-04T08:31:07.826Z</time></trkpt><trkpt lat="42.1625133" lon="14.6391633"><ele>21.6</ele><time>2026-04-04T08:31:09.826Z</time></trkpt><trkpt lat="42.162455" lon="14.6390483"><ele>21.8</ele><time>2026-04-04T08:31:11.827Z</time></trkpt><trkpt lat="42.1624167" lon="14.6389117"><ele>22.0</ele><time>2026-04-04T08:31:13.827Z</time></trkpt><trkpt lat="42.1624083" lon="14.6387733"><ele>22.0</ele><time>2026-04-04T08:31:15.826Z</time></trkpt><trkpt lat="42.162435" lon="14.63865"><ele>22.0</ele><time>2026-04-04T08:31:17.826Z</time></trkpt><trkpt lat="42.162485" lon="14.6385517"><ele>22.0</ele><time>2026-04-04T08:31:19.826Z</time></trkpt><trkpt lat="42.16254" lon="14.63847"><ele>22.0</ele><time>2026-04-04T08:31:21.827Z</time></trkpt><trkpt lat="42.1625983" lon="14.6384083"><ele>22.0</ele><time>2026-04-04T08:31:23.827Z</time></trkpt><trkpt lat="42.1626633" lon="14.6383533"><ele>22.0</ele><time>2026-04-04T08:31:25.826Z</time></trkpt><trkpt lat="42.1627367" lon="14.6382967"><ele>22.666666666666664</ele><time>2026-04-04T08:31:27.826Z</time></trkpt><trkpt lat="42.16281" lon="14.6382433"><ele>23.333333333333332</ele><time>2026-04-04T08:31:29.826Z</time></trkpt><trkpt lat="42.1628767" lon="14.6381883"><ele>24.0</ele><time>2026-04-04T08:31:31.827Z</time></trkpt><trkpt lat="42.1629483" lon="14.6381383"><ele>24.666666666666664</ele><time>2026-04-04T08:31:33.826Z</time></trkpt><trkpt lat="42.16302" lon="14.6380883"><ele>25.333333333333332</ele><time>2026-04-04T08:31:35.826Z</time></trkpt><trkpt lat="42.163085" lon="14.6380417"><ele>26.0</ele><time>2026-04-04T08:31:37.827Z</time></trkpt><trkpt lat="42.16315" lon="14.6380083"><ele>26.428571428571427</ele><time>2026-04-04T08:31:39.826Z</time></trkpt><trkpt lat="42.1632083" lon="14.6379717"><ele>26.85714285714286</ele><time>2026-04-04T08:31:41.826Z</time></trkpt><trkpt lat="42.1632683" lon="14.6379183"><ele>27.28571428571429</ele><time>2026-04-04T08:31:43.826Z</time></trkpt><trkpt lat="42.1633183" lon="14.63785"><ele>27.714285714285715</ele><time>2026-04-04T08:31:45.826Z</time></trkpt><trkpt lat="42.1633817" lon="14.637755"><ele>28.142857142857146</ele><time>2026-04-04T08:31:47.826Z</time></trkpt><trkpt lat="42.16343" lon="14.63768"><ele>28.571428571428577</ele><time>2026-04-04T08:31:49.826Z</time></trkpt><trkpt lat="42.1634733" lon="14.6376167"><ele>29.000000000000004</ele><time>2026-04-04T08:31:51.826Z</time></trkpt><trkpt lat="42.1635267" lon="14.6375167"><ele>29.000000000000004</ele><time>2026-04-04T08:31:54.826Z</time></trkpt><trkpt lat="42.16357" lon="14.6374367"><ele>29.0</ele><time>2026-04-04T08:31:56.827Z</time></trkpt><trkpt lat="42.1636167" lon="14.637355"><ele>29.000000000000004</ele><time>2026-04-04T08:31:58.826Z</time></trkpt><trkpt lat="42.163655" lon="14.63727"><ele>29.000000000000004</ele><time>2026-04-04T08:32:00.826Z</time></trkpt><trkpt lat="42.1636783" lon="14.6371867"><ele>29.0</ele><time>2026-04-04T08:32:02.826Z</time></trkpt><trkpt lat="42.1636867" lon="14.6370883"><ele>29.000000000000004</ele><time>2026-04-04T08:32:04.826Z</time></trkpt><trkpt lat="42.16368" lon="14.63698"><ele>29.000000000000004</ele><time>2026-04-04T08:32:06.827Z</time></trkpt><trkpt lat="42.1636533" lon="14.6368817"><ele>29.71428571428572</ele><time>2026-04-04T08:32:08.826Z</time></trkpt><trkpt lat="42.1636183" lon="14.6367917"><ele>30.42857142857143</ele><time>2026-04-04T08:32:10.826Z</time></trkpt><trkpt lat="42.1635767" lon="14.6367167"><ele>31.142857142857142</ele><time>2026-04-04T08:32:12.826Z</time></trkpt><trkpt lat="42.163535" lon="14.6366367"><ele>31.857142857142858</ele><time>2026-04-04T08:32:14.826Z</time></trkpt><trkpt lat="42.16349" lon="14.63656"><ele>32.57142857142857</ele><time>2026-04-04T08:32:16.826Z</time></trkpt><trkpt lat="42.1634483" lon="14.6364883"><ele>33.285714285714285</ele><time>2026-04-04T08:32:18.826Z</time></trkpt><trkpt lat="42.1634083" lon="14.6364117"><ele>34.0</ele><time>2026-04-04T08:32:20.826Z</time></trkpt><trkpt lat="42.163355" lon="14.636305"><ele>34.0</ele><time>2026-04-04T08:32:23.827Z</time></trkpt><trkpt lat="42.1633167" lon="14.6362283"><ele>34.0</ele><time>2026-04-04T08:32:25.826Z</time></trkpt><trkpt lat="42.1632617" lon="14.6361333"><ele>34.0</ele><time>2026-04-04T08:32:28.826Z</time></trkpt><trkpt lat="42.1632167" lon="14.6360317"><ele>34.0</ele><time>2026-04-04T08:32:31.826Z</time></trkpt><trkpt lat="42.1631717" lon="14.6359267"><ele>34.0</ele><time>2026-04-04T08:32:34.826Z</time></trkpt><trkpt lat="42.1631317" lon="14.6358533"><ele>34.0</ele><time>2026-04-04T08:32:36.826Z</time></trkpt><trkpt lat="42.1630767" lon="14.6357617"><ele>34.42857142857142</ele><time>2026-04-04T08:32:39.826Z</time></trkpt><trkpt lat="42.1630333" lon="14.6356967"><ele>34.857142857142854</ele><time>2026-04-04T08:32:41.827Z</time></trkpt><trkpt lat="42.16297" lon="14.6356067"><ele>35.285714285714285</ele><time>2026-04-04T08:32:44.827Z</time></trkpt><trkpt lat="42.1629" lon="14.6355317"><ele>35.71428571428571</ele><time>2026-04-04T08:32:47.826Z</time></trkpt><trkpt lat="42.1628467" lon="14.6354833"><ele>36.14285714285714</ele><time>2026-04-04T08:32:49.826Z</time></trkpt><trkpt lat="42.1627883" lon="14.635435"><ele>36.57142857142857</ele><time>2026-04-04T08:32:51.826Z</time></trkpt><trkpt lat="42.16273" lon="14.6353983"><ele>37.0</ele><time>2026-04-04T08:32:53.827Z</time></trkpt><trkpt lat="42.1626683" lon="14.6353667"><ele>37.0</ele><time>2026-04-04T08:32:55.826Z</time></trkpt><trkpt lat="42.162595" lon="14.63533"><ele>37.0</ele><time>2026-04-04T08:32:58.826Z</time></trkpt><trkpt lat="42.16253" lon="14.6353033"><ele>37.0</ele><time>2026-04-04T08:33:00.826Z</time></trkpt><trkpt lat="42.1624667" lon="14.635275"><ele>37.0</ele><time>2026-04-04T08:33:02.826Z</time></trkpt><trkpt lat="42.162405" lon="14.635255"><ele>37.0</ele><time>2026-04-04T08:33:04.826Z</time></trkpt><trkpt lat="42.1623417" lon="14.6352283"><ele>37.0</ele><time>2026-04-04T08:33:06.827Z</time></trkpt><trkpt lat="42.1622817" lon="14.6351967"><ele>37.0</ele><time>2026-04-04T08:33:08.826Z</time></trkpt><trkpt lat="42.16222" lon="14.63516"><ele>38.66666666666667</ele><time>2026-04-04T08:33:10.826Z</time></trkpt><trkpt lat="42.162165" lon="14.6351183"><ele>40.333333333333336</ele><time>2026-04-04T08:33:12.826Z</time></trkpt><trkpt lat="42.1620883" lon="14.63504"><ele>42.0</ele><time>2026-04-04T08:33:15.826Z</time></trkpt><trkpt lat="42.1620367" lon="14.63499"><ele>43.666666666666664</ele><time>2026-04-04T08:33:17.826Z</time></trkpt><trkpt lat="42.16196" lon="14.6349167"><ele>45.33333333333333</ele><time>2026-04-04T08:33:20.826Z</time></trkpt><trkpt lat="42.1619033" lon="14.634875"><ele>47.0</ele><time>2026-04-04T08:33:22.826Z</time></trkpt><trkpt lat="42.1618367" lon="14.6348217"><ele>47.0</ele><time>2026-04-04T08:33:25.826Z</time></trkpt><trkpt lat="42.1617717" lon="14.6347433"><ele>47.0</ele><time>2026-04-04T08:33:27.826Z</time></trkpt><trkpt lat="42.1617167" lon="14.6346783"><ele>47.0</ele><time>2026-04-04T08:33:29.826Z</time></trkpt><trkpt lat="42.1616633" lon="14.6345717"><ele>47.0</ele><time>2026-04-04T08:33:32.826Z</time></trkpt><trkpt lat="42.1616233" lon="14.6344717"><ele>47.0</ele><time>2026-04-04T08:33:34.826Z</time></trkpt><trkpt lat="42.1615967" lon="14.63438"><ele>47.0</ele><time>2026-04-04T08:33:36.826Z</time></trkpt><trkpt lat="42.1615817" lon="14.634295"><ele>47.5</ele><time>2026-04-04T08:33:38.826Z</time></trkpt><trkpt lat="42.161595" lon="14.6341833"><ele>48.0</ele><time>2026-04-04T08:33:41.826Z</time></trkpt><trkpt lat="42.1616283" lon="14.634075"><ele>48.5</ele><time>2026-04-04T08:33:44.826Z</time></trkpt><trkpt lat="42.1616667" lon="14.6339983"><ele>49.0</ele><time>2026-04-04T08:33:46.826Z</time></trkpt><trkpt lat="42.1617217" lon="14.633895"><ele>49.50000000000001</ele><time>2026-04-04T08:33:49.826Z</time></trkpt><trkpt lat="42.16176" lon="14.6338183"><ele>50.0</ele><time>2026-04-04T08:33:51.826Z</time></trkpt><trkpt lat="42.1617933" lon="14.633745"><ele>50.00000000000001</ele><time>2026-04-04T08:33:53.826Z</time></trkpt><trkpt lat="42.1618333" lon="14.6336767"><ele>50.0</ele><time>2026-04-04T08:33:55.827Z</time></trkpt><trkpt lat="42.1618933" lon="14.6335867"><ele>50.0</ele><time>2026-04-04T08:33:58.826Z</time></trkpt><trkpt lat="42.1619367" lon="14.6335233"><ele>50.0</ele><time>2026-04-04T08:34:00.826Z</time></trkpt><trkpt lat="42.1619833" lon="14.6334517"><ele>50.0</ele><time>2026-04-04T08:34:02.827Z</time></trkpt><trkpt lat="42.1620283" lon="14.6333867"><ele>50.00000000000001</ele><time>2026-04-04T08:34:04.826Z</time></trkpt><trkpt lat="42.162075" lon="14.6333283"><ele>50.0</ele><time>2026-04-04T08:34:06.826Z</time></trkpt><trkpt lat="42.16212" lon="14.6332667"><ele>50.85714285714286</ele><time>2026-04-04T08:34:08.826Z</time></trkpt><trkpt lat="42.1621817" lon="14.6331817"><ele>51.714285714285715</ele><time>2026-04-04T08:34:11.826Z</time></trkpt><trkpt lat="42.1622217" lon="14.633105"><ele>52.57142857142857</ele><time>2026-04-04T08:34:13.826Z</time></trkpt><trkpt lat="42.1622633" lon="14.6330283"><ele>53.42857142857143</ele><time>2026-04-04T08:34:15.826Z</time></trkpt><trkpt lat="42.1623067" lon="14.632965"><ele>54.285714285714285</ele><time>2026-04-04T08:34:17.826Z</time></trkpt><trkpt lat="42.16236" lon="14.6328683"><ele>55.142857142857146</ele><time>2026-04-04T08:34:20.826Z</time></trkpt><trkpt lat="42.162405" lon="14.6328017"><ele>56.0</ele><time>2026-04-04T08:34:22.826Z</time></trkpt><trkpt lat="42.1624583" lon="14.6327117"><ele>56.00000000000001</ele><time>2026-04-04T08:34:25.827Z</time></trkpt><trkpt lat="42.1625233" lon="14.6326217"><ele>56.0</ele><time>2026-04-04T08:34:28.827Z</time></trkpt><trkpt lat="42.1625733" lon="14.63256"><ele>56.0</ele><time>2026-04-04T08:34:30.826Z</time></trkpt><trkpt lat="42.16263" lon="14.6325017"><ele>56.0</ele><time>2026-04-04T08:34:32.826Z</time></trkpt><trkpt lat="42.1626967" lon="14.6324283"><ele>56.00000000000001</ele><time>2026-04-04T08:34:35.826Z</time></trkpt><trkpt lat="42.1627633" lon="14.6323567"><ele>56.0</ele><time>2026-04-04T08:34:38.826Z</time></trkpt><trkpt lat="42.1628283" lon="14.6322883"><ele>56.00000000000001</ele><time>2026-04-04T08:34:41.826Z</time></trkpt><trkpt lat="42.1628733" lon="14.6322217"><ele>56.0</ele><time>2026-04-04T08:34:43.826Z</time></trkpt><trkpt lat="42.162915" lon="14.63212"><ele>56.0</ele><time>2026-04-04T08:34:46.826Z</time></trkpt><trkpt lat="42.1629333" lon="14.6320117"><ele>56.0</ele><time>2026-04-04T08:34:49.826Z</time></trkpt><trkpt lat="42.16292" lon="14.63192"><ele>56.00000000000001</ele><time>2026-04-04T08:34:52.826Z</time></trkpt><trkpt lat="42.16288" lon="14.6318233"><ele>56.0</ele><time>2026-04-04T08:34:55.826Z</time></trkpt><trkpt lat="42.1628217" lon="14.6317567"><ele>57.333333333333336</ele><time>2026-04-04T08:34:58.827Z</time></trkpt><trkpt lat="42.16276" lon="14.631725"><ele>58.66666666666667</ele><time>2026-04-04T08:35:01.827Z</time></trkpt><trkpt lat="42.1626733" lon="14.6317167"><ele>60.0</ele><time>2026-04-04T08:35:04.826Z</time></trkpt><trkpt lat="42.1626117" lon="14.6317383"><ele>61.33333333333333</ele><time>2026-04-04T08:35:06.826Z</time></trkpt><trkpt lat="42.1625183" lon="14.63179"><ele>62.666666666666664</ele><time>2026-04-04T08:35:09.826Z</time></trkpt><trkpt lat="42.1624417" lon="14.63183"><ele>64.0</ele><time>2026-04-04T08:35:11.826Z</time></trkpt><trkpt lat="42.1623733" lon="14.63188"><ele>64.28571428571428</ele><time>2026-04-04T08:35:13.826Z</time></trkpt><trkpt lat="42.1623067" lon="14.63193"><ele>64.57142857142857</ele><time>2026-04-04T08:35:15.827Z</time></trkpt><trkpt lat="42.1622417" lon="14.631975"><ele>64.85714285714286</ele><time>2026-04-04T08:35:17.826Z</time></trkpt><trkpt lat="42.16218" lon="14.6320217"><ele>65.14285714285714</ele><time>2026-04-04T08:35:19.826Z</time></trkpt><trkpt lat="42.162125" lon="14.632065"><ele>65.42857142857143</ele><time>2026-04-04T08:35:21.826Z</time></trkpt><trkpt lat="42.1620467" lon="14.6321283"><ele>65.71428571428571</ele><time>2026-04-04T08:35:24.826Z</time></trkpt><trkpt lat="42.16199" lon="14.6321683"><ele>66.0</ele><time>2026-04-04T08:35:26.826Z</time></trkpt><trkpt lat="42.1619333" lon="14.6322133"><ele>66.0</ele><time>2026-04-04T08:35:28.826Z</time></trkpt><trkpt lat="42.161855" lon="14.632275"><ele>66.0</ele><time>2026-04-04T08:35:31.827Z</time></trkpt><trkpt lat="42.1617767" lon="14.6323433"><ele>66.0</ele><time>2026-04-04T08:35:34.826Z</time></trkpt><trkpt lat="42.1616983" lon="14.6324"><ele>66.0</ele><time>2026-04-04T08:35:37.826Z</time></trkpt><trkpt lat="42.1616233" lon="14.6324583"><ele>66.0</ele><time>2026-04-04T08:35:40.826Z</time></trkpt><trkpt lat="42.161545" lon="14.6325133"><ele>66.0</ele><time>2026-04-04T08:35:43.827Z</time></trkpt><trkpt lat="42.1614767" lon="14.632575"><ele>65.33333333333333</ele><time>2026-04-04T08:35:46.826Z</time></trkpt><trkpt lat="42.1614067" lon="14.63263"><ele>64.66666666666667</ele><time>2026-04-04T08:35:49.826Z</time></trkpt><trkpt lat="42.1613383" lon="14.6326733"><ele>64.0</ele><time>2026-04-04T08:35:51.826Z</time></trkpt><trkpt lat="42.1612633" lon="14.6327233"><ele>63.333333333333336</ele><time>2026-04-04T08:35:53.826Z</time></trkpt><trkpt lat="42.16119" lon="14.6327683"><ele>62.66666666666667</ele><time>2026-04-04T08:35:55.826Z</time></trkpt><trkpt lat="42.161125" lon="14.6328083"><ele>62.0</ele><time>2026-04-04T08:35:57.826Z</time></trkpt><trkpt lat="42.16106" lon="14.63285"><ele>62.0</ele><time>2026-04-04T08:35:59.827Z</time></trkpt><trkpt lat="42.1609967" lon="14.6328917"><ele>62.00000000000001</ele><time>2026-04-04T08:36:01.827Z</time></trkpt><trkpt lat="42.1609317" lon="14.6329367"><ele>62.0</ele><time>2026-04-04T08:36:03.826Z</time></trkpt><trkpt lat="42.1608633" lon="14.6329633"><ele>62.0</ele><time>2026-04-04T08:36:05.826Z</time></trkpt><trkpt lat="42.1608" lon="14.63297"><ele>62.00000000000001</ele><time>2026-04-04T08:36:07.826Z</time></trkpt><trkpt lat="42.160735" lon="14.6329617"><ele>62.0</ele><time>2026-04-04T08:36:09.826Z</time></trkpt><trkpt lat="42.1606667" lon="14.63294"><ele>62.0</ele><time>2026-04-04T08:36:11.826Z</time></trkpt><trkpt lat="42.1605933" lon="14.6328633"><ele>62.00000000000001</ele><time>2026-04-04T08:36:14.827Z</time></trkpt><trkpt lat="42.1605533" lon="14.632795"><ele>62.0</ele><time>2026-04-04T08:36:16.826Z</time></trkpt><trkpt lat="42.160525" lon="14.6327133"><ele>62.0</ele><time>2026-04-04T08:36:18.826Z</time></trkpt><trkpt lat="42.1605017" lon="14.63263"><ele>62.0</ele><time>2026-04-04T08:36:20.826Z</time></trkpt><trkpt lat="42.1604783" lon="14.63251"><ele>62.00000000000001</ele><time>2026-04-04T08:36:23.826Z</time></trkpt><trkpt lat="42.1604517" lon="14.6323933"><ele>62.0</ele><time>2026-04-04T08:36:26.826Z</time></trkpt><trkpt lat="42.1604383" lon="14.6322783"><ele>62.0</ele><time>2026-04-04T08:36:29.826Z</time></trkpt><trkpt lat="42.16043" lon="14.6321917"><ele>62.00000000000001</ele><time>2026-04-04T08:36:31.826Z</time></trkpt><trkpt lat="42.1604183" lon="14.6321017"><ele>62.0</ele><time>2026-04-04T08:36:33.826Z</time></trkpt><trkpt lat="42.1604133" lon="14.632015"><ele>62.0</ele><time>2026-04-04T08:36:35.826Z</time></trkpt><trkpt lat="42.1604067" lon="14.6319"><ele>62.00000000000001</ele><time>2026-04-04T08:36:38.826Z</time></trkpt><trkpt lat="42.1603783" lon="14.6317783"><ele>62.0</ele><time>2026-04-04T08:36:41.826Z</time></trkpt><trkpt lat="42.1603567" lon="14.6316867"><ele>62.0</ele><time>2026-04-04T08:36:43.826Z</time></trkpt><trkpt lat="42.1603283" lon="14.6315933"><ele>63.142857142857146</ele><time>2026-04-04T08:36:45.827Z</time></trkpt><trkpt lat="42.1602967" lon="14.6315033"><ele>64.28571428571429</ele><time>2026-04-04T08:36:47.826Z</time></trkpt><trkpt lat="42.1602717" lon="14.63141"><ele>65.42857142857143</ele><time>2026-04-04T08:36:49.826Z</time></trkpt><trkpt lat="42.1602417" lon="14.6313183"><ele>66.57142857142857</ele><time>2026-04-04T08:36:51.826Z</time></trkpt><trkpt lat="42.1602183" lon="14.6312283"><ele>67.71428571428572</ele><time>2026-04-04T08:36:53.826Z</time></trkpt><trkpt lat="42.1602" lon="14.63113"><ele>68.85714285714286</ele><time>2026-04-04T08:36:55.826Z</time></trkpt><trkpt lat="42.1601933" lon="14.6310367"><ele>70.0</ele><time>2026-04-04T08:36:57.826Z</time></trkpt><trkpt lat="42.16018" lon="14.630935"><ele>70.85714285714286</ele><time>2026-04-04T08:36:59.826Z</time></trkpt><trkpt lat="42.1601717" lon="14.6308383"><ele>71.71428571428572</ele><time>2026-04-04T08:37:01.827Z</time></trkpt><trkpt lat="42.1601733" lon="14.630745"><ele>72.57142857142857</ele><time>2026-04-04T08:37:03.826Z</time></trkpt><trkpt lat="42.1601783" lon="14.63064"><ele>73.42857142857143</ele><time>2026-04-04T08:37:05.827Z</time></trkpt><trkpt lat="42.16018" lon="14.6305383"><ele>74.28571428571429</ele><time>2026-04-04T08:37:07.826Z</time></trkpt><trkpt lat="42.160185" lon="14.6304517"><ele>75.14285714285714</ele><time>2026-04-04T08:37:09.826Z</time></trkpt><trkpt lat="42.1601867" lon="14.63036"><ele>76.0</ele><time>2026-04-04T08:37:11.826Z</time></trkpt><trkpt lat="42.1601933" lon="14.6302567"><ele>76.71428571428571</ele><time>2026-04-04T08:37:13.826Z</time></trkpt><trkpt lat="42.1601983" lon="14.630155"><ele>77.42857142857143</ele><time>2026-04-04T08:37:15.826Z</time></trkpt><trkpt lat="42.160205" lon="14.6300567"><ele>78.14285714285714</ele><time>2026-04-04T08:37:17.826Z</time></trkpt><trkpt lat="42.1602117" lon="14.6299617"><ele>78.85714285714286</ele><time>2026-04-04T08:37:19.826Z</time></trkpt><trkpt lat="42.1602217" lon="14.6298667"><ele>79.57142857142857</ele><time>2026-04-04T08:37:21.826Z</time></trkpt><trkpt lat="42.1602283" lon="14.6297683"><ele>80.28571428571429</ele><time>2026-04-04T08:37:23.826Z</time></trkpt><trkpt lat="42.16024" lon="14.6296733"><ele>81.0</ele><time>2026-04-04T08:37:25.827Z</time></trkpt><trkpt lat="42.16025" lon="14.6295767"><ele>81.0</ele><time>2026-04-04T08:37:27.826Z</time></trkpt><trkpt lat="42.1602717" lon="14.6294817"><ele>81.0</ele><time>2026-04-04T08:37:29.827Z</time></trkpt><trkpt lat="42.1602917" lon="14.6293833"><ele>81.0</ele><time>2026-04-04T08:37:31.826Z</time></trkpt><trkpt lat="42.1603017" lon="14.6292883"><ele>81.0</ele><time>2026-04-04T08:37:33.826Z</time></trkpt><trkpt lat="42.160315" lon="14.6291817"><ele>81.0</ele><time>2026-04-04T08:37:35.826Z</time></trkpt><trkpt lat="42.1603217" lon="14.629075"><ele>81.0</ele><time>2026-04-04T08:37:37.826Z</time></trkpt><trkpt lat="42.1603383" lon="14.6289617"><ele>81.33333333333333</ele><time>2026-04-04T08:37:39.826Z</time></trkpt><trkpt lat="42.1603567" lon="14.62885"><ele>81.66666666666667</ele><time>2026-04-04T08:37:41.826Z</time></trkpt><trkpt lat="42.1603767" lon="14.6287333"><ele>82.0</ele><time>2026-04-04T08:37:43.826Z</time></trkpt><trkpt lat="42.1603833" lon="14.62862"><ele>82.33333333333334</ele><time>2026-04-04T08:37:45.827Z</time></trkpt><trkpt lat="42.1604017" lon="14.6285133"><ele>82.66666666666667</ele><time>2026-04-04T08:37:47.826Z</time></trkpt><trkpt lat="42.1604167" lon="14.6284117"><ele>83.0</ele><time>2026-04-04T08:37:49.826Z</time></trkpt><trkpt lat="42.16043" lon="14.6283083"><ele>83.16666666666667</ele><time>2026-04-04T08:37:51.826Z</time></trkpt><trkpt lat="42.1604383" lon="14.6282067"><ele>83.33333333333334</ele><time>2026-04-04T08:37:53.827Z</time></trkpt><trkpt lat="42.16045" lon="14.6281083"><ele>83.5</ele><time>2026-04-04T08:37:55.826Z</time></trkpt><trkpt lat="42.160465" lon="14.6280083"><ele>83.66666666666667</ele><time>2026-04-04T08:37:57.826Z</time></trkpt><trkpt lat="42.1604783" lon="14.627905"><ele>83.83333333333333</ele><time>2026-04-04T08:37:59.826Z</time></trkpt><trkpt lat="42.1604933" lon="14.6277933"><ele>84.0</ele><time>2026-04-04T08:38:01.826Z</time></trkpt><trkpt lat="42.1605083" lon="14.627685"><ele>84.5</ele><time>2026-04-04T08:38:03.827Z</time></trkpt><trkpt lat="42.16052" lon="14.627585"><ele>85.0</ele><time>2026-04-04T08:38:05.827Z</time></trkpt><trkpt lat="42.1605383" lon="14.627485"><ele>85.5</ele><time>2026-04-04T08:38:07.827Z</time></trkpt><trkpt lat="42.160555" lon="14.62738"><ele>86.0</ele><time>2026-04-04T08:38:09.826Z</time></trkpt><trkpt lat="42.160575" lon="14.6272733"><ele>86.5</ele><time>2026-04-04T08:38:11.826Z</time></trkpt><trkpt lat="42.1605917" lon="14.6271733"><ele>87.0</ele><time>2026-04-04T08:38:13.826Z</time></trkpt><trkpt lat="42.1606017" lon="14.6270633"><ele>87.16666666666667</ele><time>2026-04-04T08:38:15.827Z</time></trkpt><trkpt lat="42.1606117" lon="14.6269617"><ele>87.33333333333333</ele><time>2026-04-04T08:38:17.827Z</time></trkpt><trkpt lat="42.1606267" lon="14.626855"><ele>87.5</ele><time>2026-04-04T08:38:19.826Z</time></trkpt><trkpt lat="42.1606483" lon="14.6267467"><ele>87.66666666666666</ele><time>2026-04-04T08:38:21.826Z</time></trkpt><trkpt lat="42.1606633" lon="14.6266417"><ele>87.83333333333333</ele><time>2026-04-04T08:38:23.826Z</time></trkpt><trkpt lat="42.1606817" lon="14.6265483"><ele>88.0</ele><time>2026-04-04T08:38:25.826Z</time></trkpt><trkpt lat="42.160705" lon="14.62645"><ele>88.42857142857143</ele><time>2026-04-04T08:38:27.826Z</time></trkpt><trkpt lat="42.1607417" lon="14.626355"><ele>88.85714285714286</ele><time>2026-04-04T08:38:29.826Z</time></trkpt><trkpt lat="42.16078" lon="14.6262633"><ele>89.28571428571428</ele><time>2026-04-04T08:38:31.826Z</time></trkpt><trkpt lat="42.1608267" lon="14.6261833"><ele>89.71428571428572</ele><time>2026-04-04T08:38:33.826Z</time></trkpt><trkpt lat="42.1608733" lon="14.6261117"><ele>90.14285714285714</ele><time>2026-04-04T08:38:35.826Z</time></trkpt><trkpt lat="42.16093" lon="14.626045"><ele>90.57142857142857</ele><time>2026-04-04T08:38:37.826Z</time></trkpt><trkpt lat="42.1609817" lon="14.6259833"><ele>91.0</ele><time>2026-04-04T08:38:39.826Z</time></trkpt><trkpt lat="42.1610383" lon="14.625915"><ele>91.57142857142857</ele><time>2026-04-04T08:38:41.826Z</time></trkpt><trkpt lat="42.1610967" lon="14.62586"><ele>92.14285714285714</ele><time>2026-04-04T08:38:43.826Z</time></trkpt><trkpt lat="42.161155" lon="14.6258083"><ele>92.71428571428572</ele><time>2026-04-04T08:38:45.826Z</time></trkpt><trkpt lat="42.161205" lon="14.6257483"><ele>93.28571428571428</ele><time>2026-04-04T08:38:47.826Z</time></trkpt><trkpt lat="42.1612583" lon="14.6256867"><ele>93.85714285714286</ele><time>2026-04-04T08:38:49.826Z</time></trkpt><trkpt lat="42.1613117" lon="14.6256383"><ele>94.42857142857143</ele><time>2026-04-04T08:38:51.826Z</time></trkpt><trkpt lat="42.1613833" lon="14.6255617"><ele>95.0</ele><time>2026-04-04T08:38:54.826Z</time></trkpt><trkpt lat="42.1614617" lon="14.6254917"><ele>95.0</ele><time>2026-04-04T08:38:57.826Z</time></trkpt><trkpt lat="42.16152" lon="14.625435"><ele>95.0</ele><time>2026-04-04T08:38:59.826Z</time></trkpt><trkpt lat="42.1615717" lon="14.625385"><ele>95.0</ele><time>2026-04-04T08:39:01.826Z</time></trkpt><trkpt lat="42.1616367" lon="14.6253017"><ele>95.0</ele><time>2026-04-04T08:39:04.826Z</time></trkpt><trkpt lat="42.1616817" lon="14.625235"><ele>95.0</ele><time>2026-04-04T08:39:06.827Z</time></trkpt><trkpt lat="42.1617267" lon="14.6251633"><ele>95.0</ele><time>2026-04-04T08:39:08.826Z</time></trkpt><trkpt lat="42.1617717" lon="14.62509"><ele>95.0</ele><time>2026-04-04T08:39:10.827Z</time></trkpt><trkpt lat="42.1618167" lon="14.625005"><ele>95.85714285714286</ele><time>2026-04-04T08:39:12.826Z</time></trkpt><trkpt lat="42.1618533" lon="14.624925"><ele>96.71428571428572</ele><time>2026-04-04T08:39:14.827Z</time></trkpt><trkpt lat="42.1618833" lon="14.6248367"><ele>97.57142857142857</ele><time>2026-04-04T08:39:16.827Z</time></trkpt><trkpt lat="42.16191" lon="14.6247483"><ele>98.42857142857143</ele><time>2026-04-04T08:39:18.827Z</time></trkpt><trkpt lat="42.1619317" lon="14.62466"><ele>99.28571428571428</ele><time>2026-04-04T08:39:20.828Z</time></trkpt><trkpt lat="42.1619567" lon="14.6245783"><ele>100.14285714285714</ele><time>2026-04-04T08:39:22.828Z</time></trkpt><trkpt lat="42.1619717" lon="14.624495"><ele>101.0</ele><time>2026-04-04T08:39:24.827Z</time></trkpt><trkpt lat="42.1620017" lon="14.6243817"><ele>101.83333333333333</ele><time>2026-04-04T08:39:27.827Z</time></trkpt><trkpt lat="42.1620233" lon="14.6242867"><ele>102.66666666666666</ele><time>2026-04-04T08:39:29.827Z</time></trkpt><trkpt lat="42.1620517" lon="14.6241683"><ele>103.5</ele><time>2026-04-04T08:39:32.827Z</time></trkpt><trkpt lat="42.1620783" lon="14.6240483"><ele>104.33333333333334</ele><time>2026-04-04T08:39:35.827Z</time></trkpt><trkpt lat="42.162105" lon="14.6239267"><ele>105.16666666666667</ele><time>2026-04-04T08:39:38.827Z</time></trkpt><trkpt lat="42.1621233" lon="14.62384"><ele>106.0</ele><time>2026-04-04T08:39:40.827Z</time></trkpt><trkpt lat="42.16214" lon="14.623755"><ele>106.57142857142857</ele><time>2026-04-04T08:39:42.827Z</time></trkpt><trkpt lat="42.162145" lon="14.623625"><ele>107.14285714285714</ele><time>2026-04-04T08:39:45.827Z</time></trkpt><trkpt lat="42.1621383" lon="14.6235317"><ele>107.71428571428571</ele><time>2026-04-04T08:39:47.827Z</time></trkpt><trkpt lat="42.16212" lon="14.623445"><ele>108.28571428571428</ele><time>2026-04-04T08:39:49.827Z</time></trkpt><trkpt lat="42.1620967" lon="14.6233583"><ele>108.85714285714286</ele><time>2026-04-04T08:39:51.827Z</time></trkpt><trkpt lat="42.1620617" lon="14.6232833"><ele>109.42857142857142</ele><time>2026-04-04T08:39:53.827Z</time></trkpt><trkpt lat="42.162025" lon="14.623205"><ele>110.0</ele><time>2026-04-04T08:39:55.827Z</time></trkpt><trkpt lat="42.1619867" lon="14.62312"><ele>109.99999999999999</ele><time>2026-04-04T08:39:57.827Z</time></trkpt><trkpt lat="42.1619533" lon="14.623045"><ele>110.0</ele><time>2026-04-04T08:39:59.827Z</time></trkpt><trkpt lat="42.1619133" lon="14.6229667"><ele>110.0</ele><time>2026-04-04T08:40:01.827Z</time></trkpt><trkpt lat="42.1618733" lon="14.6228867"><ele>110.0</ele><time>2026-04-04T08:40:03.827Z</time></trkpt><trkpt lat="42.1618317" lon="14.62281"><ele>110.0</ele><time>2026-04-04T08:40:05.828Z</time></trkpt><trkpt lat="42.1617917" lon="14.6227233"><ele>109.99999999999999</ele><time>2026-04-04T08:40:07.827Z</time></trkpt><trkpt lat="42.1617483" lon="14.6226333"><ele>110.0</ele><time>2026-04-04T08:40:09.827Z</time></trkpt><trkpt lat="42.1617067" lon="14.6225433"><ele>110.33333333333333</ele><time>2026-04-04T08:40:11.827Z</time></trkpt><trkpt lat="42.1616633" lon="14.6224517"><ele>110.66666666666666</ele><time>2026-04-04T08:40:13.827Z</time></trkpt><trkpt lat="42.16162" lon="14.6223633"><ele>111.0</ele><time>2026-04-04T08:40:15.827Z</time></trkpt><trkpt lat="42.1615783" lon="14.622275"><ele>111.33333333333334</ele><time>2026-04-04T08:40:17.827Z</time></trkpt><trkpt lat="42.1615317" lon="14.622185"><ele>111.66666666666667</ele><time>2026-04-04T08:40:19.827Z</time></trkpt><trkpt lat="42.16149" lon="14.6220917"><ele>112.0</ele><time>2026-04-04T08:40:21.828Z</time></trkpt><trkpt lat="42.161445" lon="14.622005"><ele>112.33333333333334</ele><time>2026-04-04T08:40:23.827Z</time></trkpt><trkpt lat="42.161395" lon="14.6219167"><ele>112.66666666666667</ele><time>2026-04-04T08:40:25.827Z</time></trkpt><trkpt lat="42.1613517" lon="14.62183"><ele>113.0</ele><time>2026-04-04T08:40:27.827Z</time></trkpt><trkpt lat="42.1613117" lon="14.6217433"><ele>113.33333333333334</ele><time>2026-04-04T08:40:29.827Z</time></trkpt><trkpt lat="42.16127" lon="14.621645"><ele>113.66666666666667</ele><time>2026-04-04T08:40:31.827Z</time></trkpt><trkpt lat="42.161225" lon="14.6215533"><ele>114.0</ele><time>2026-04-04T08:40:33.827Z</time></trkpt><trkpt lat="42.1611767" lon="14.6214683"><ele>114.0</ele><time>2026-04-04T08:40:35.827Z</time></trkpt><trkpt lat="42.1611283" lon="14.6213733"><ele>114.0</ele><time>2026-04-04T08:40:37.827Z</time></trkpt><trkpt lat="42.1610783" lon="14.6212867"><ele>114.0</ele><time>2026-04-04T08:40:39.827Z</time></trkpt><trkpt lat="42.16103" lon="14.621205"><ele>114.0</ele><time>2026-04-04T08:40:41.828Z</time></trkpt><trkpt lat="42.1609867" lon="14.6211117"><ele>114.0</ele><time>2026-04-04T08:40:43.828Z</time></trkpt><trkpt lat="42.160935" lon="14.6210117"><ele>114.0</ele><time>2026-04-04T08:40:45.827Z</time></trkpt><trkpt lat="42.1608917" lon="14.620915"><ele>114.5</ele><time>2026-04-04T08:40:47.827Z</time></trkpt><trkpt lat="42.160845" lon="14.6208333"><ele>115.0</ele><time>2026-04-04T08:40:49.827Z</time></trkpt><trkpt lat="42.1608083" lon="14.620745"><ele>115.5</ele><time>2026-04-04T08:40:51.828Z</time></trkpt><trkpt lat="42.1607667" lon="14.6206517"><ele>116.0</ele><time>2026-04-04T08:40:53.827Z</time></trkpt><trkpt lat="42.1607283" lon="14.620565"><ele>116.5</ele><time>2026-04-04T08:40:55.827Z</time></trkpt><trkpt lat="42.1606833" lon="14.620485"><ele>117.0</ele><time>2026-04-04T08:40:57.828Z</time></trkpt><trkpt lat="42.1606417" lon="14.6204033"><ele>117.0</ele><time>2026-04-04T08:40:59.827Z</time></trkpt><trkpt lat="42.16061" lon="14.6203183"><ele>117.0</ele><time>2026-04-04T08:41:01.828Z</time></trkpt><trkpt lat="42.16057" lon="14.6202267"><ele>117.0</ele><time>2026-04-04T08:41:03.827Z</time></trkpt><trkpt lat="42.1605367" lon="14.6201417"><ele>117.0</ele><time>2026-04-04T08:41:05.827Z</time></trkpt><trkpt lat="42.16049" lon="14.62006"><ele>117.0</ele><time>2026-04-04T08:41:07.827Z</time></trkpt><trkpt lat="42.1604367" lon="14.619975"><ele>117.0</ele><time>2026-04-04T08:41:09.827Z</time></trkpt><trkpt lat="42.1603883" lon="14.619885"><ele>117.5</ele><time>2026-04-04T08:41:11.828Z</time></trkpt><trkpt lat="42.1603467" lon="14.6197933"><ele>118.0</ele><time>2026-04-04T08:41:13.827Z</time></trkpt><trkpt lat="42.160315" lon="14.6197033"><ele>118.5</ele><time>2026-04-04T08:41:15.828Z</time></trkpt><trkpt lat="42.1602783" lon="14.619625"><ele>119.0</ele><time>2026-04-04T08:41:17.827Z</time></trkpt><trkpt lat="42.1602333" lon="14.6195317"><ele>119.5</ele><time>2026-04-04T08:41:19.827Z</time></trkpt><trkpt lat="42.1601867" lon="14.6194417"><ele>120.0</ele><time>2026-04-04T08:41:21.827Z</time></trkpt><trkpt lat="42.1601367" lon="14.6193517"><ele>120.33333333333333</ele><time>2026-04-04T08:41:23.827Z</time></trkpt><trkpt lat="42.1600883" lon="14.6192667"><ele>120.66666666666666</ele><time>2026-04-04T08:41:25.827Z</time></trkpt><trkpt lat="42.1600517" lon="14.6191917"><ele>121.0</ele><time>2026-04-04T08:41:27.827Z</time></trkpt><trkpt lat="42.160005" lon="14.619095"><ele>121.33333333333333</ele><time>2026-04-04T08:41:29.827Z</time></trkpt><trkpt lat="42.1599533" lon="14.618995"><ele>121.66666666666666</ele><time>2026-04-04T08:41:31.827Z</time></trkpt><trkpt lat="42.1599067" lon="14.6189"><ele>122.0</ele><time>2026-04-04T08:41:33.828Z</time></trkpt><trkpt lat="42.1598683" lon="14.618805"><ele>121.99999999999999</ele><time>2026-04-04T08:41:35.827Z</time></trkpt><trkpt lat="42.1598283" lon="14.61871"><ele>122.0</ele><time>2026-04-04T08:41:37.827Z</time></trkpt><trkpt lat="42.1597817" lon="14.6186233"><ele>122.0</ele><time>2026-04-04T08:41:39.827Z</time></trkpt><trkpt lat="42.1597433" lon="14.6185483"><ele>122.0</ele><time>2026-04-04T08:41:41.827Z</time></trkpt><trkpt lat="42.1597033" lon="14.6184683"><ele>121.99999999999999</ele><time>2026-04-04T08:41:43.828Z</time></trkpt><trkpt lat="42.1596633" lon="14.6183833"><ele>122.0</ele><time>2026-04-04T08:41:45.827Z</time></trkpt><trkpt lat="42.159615" lon="14.6183017"><ele>122.49999999999999</ele><time>2026-04-04T08:41:47.827Z</time></trkpt><trkpt lat="42.1595733" lon="14.6182117"><ele>123.0</ele><time>2026-04-04T08:41:49.827Z</time></trkpt><trkpt lat="42.1595267" lon="14.6181233"><ele>123.5</ele><time>2026-04-04T08:41:51.827Z</time></trkpt><trkpt lat="42.1594817" lon="14.6180333"><ele>124.0</ele><time>2026-04-04T08:41:53.828Z</time></trkpt><trkpt lat="42.1594267" lon="14.61794"><ele>124.49999999999999</ele><time>2026-04-04T08:41:55.827Z</time></trkpt><trkpt lat="42.1593767" lon="14.6178467"><ele>125.0</ele><time>2026-04-04T08:41:57.828Z</time></trkpt><trkpt lat="42.15933" lon="14.617755"><ele>125.33333333333333</ele><time>2026-04-04T08:41:59.828Z</time></trkpt><trkpt lat="42.159285" lon="14.6176683"><ele>125.66666666666666</ele><time>2026-04-04T08:42:01.827Z</time></trkpt><trkpt lat="42.1592417" lon="14.617575"><ele>126.0</ele><time>2026-04-04T08:42:03.827Z</time></trkpt><trkpt lat="42.1591917" lon="14.6174933"><ele>126.33333333333334</ele><time>2026-04-04T08:42:05.828Z</time></trkpt><trkpt lat="42.1591467" lon="14.617405"><ele>126.66666666666667</ele><time>2026-04-04T08:42:07.827Z</time></trkpt><trkpt lat="42.159105" lon="14.617305"><ele>127.0</ele><time>2026-04-04T08:42:09.827Z</time></trkpt><trkpt lat="42.1590633" lon="14.6172083"><ele>127.33333333333334</ele><time>2026-04-04T08:42:11.827Z</time></trkpt><trkpt lat="42.1590217" lon="14.617115"><ele>127.66666666666667</ele><time>2026-04-04T08:42:13.827Z</time></trkpt><trkpt lat="42.1589683" lon="14.6170233"><ele>128.0</ele><time>2026-04-04T08:42:15.827Z</time></trkpt><trkpt lat="42.1589233" lon="14.61693"><ele>128.33333333333334</ele><time>2026-04-04T08:42:17.827Z</time></trkpt><trkpt lat="42.1588833" lon="14.6168367"><ele>128.66666666666666</ele><time>2026-04-04T08:42:19.827Z</time></trkpt><trkpt lat="42.15884" lon="14.61675"><ele>129.0</ele><time>2026-04-04T08:42:21.827Z</time></trkpt><trkpt lat="42.1587883" lon="14.6166617"><ele>129.33333333333334</ele><time>2026-04-04T08:42:23.828Z</time></trkpt><trkpt lat="42.1587417" lon="14.6165683"><ele>129.66666666666666</ele><time>2026-04-04T08:42:25.827Z</time></trkpt><trkpt lat="42.15869" lon="14.6164633"><ele>130.0</ele><time>2026-04-04T08:42:27.827Z</time></trkpt><trkpt lat="42.158635" lon="14.6163667"><ele>130.33333333333331</ele><time>2026-04-04T08:42:29.827Z</time></trkpt><trkpt lat="42.1585917" lon="14.61628"><ele>130.66666666666666</ele><time>2026-04-04T08:42:31.827Z</time></trkpt><trkpt lat="42.1585533" lon="14.616205"><ele>131.0</ele><time>2026-04-04T08:42:33.828Z</time></trkpt><trkpt lat="42.1585083" lon="14.6161167"><ele>131.16666666666666</ele><time>2026-04-04T08:42:35.828Z</time></trkpt><trkpt lat="42.1584633" lon="14.61603"><ele>131.33333333333331</ele><time>2026-04-04T08:42:37.827Z</time></trkpt><trkpt lat="42.1584217" lon="14.615945"><ele>131.5</ele><time>2026-04-04T08:42:39.827Z</time></trkpt><trkpt lat="42.1583833" lon="14.61586"><ele>131.66666666666666</ele><time>2026-04-04T08:42:41.827Z</time></trkpt><trkpt lat="42.1583367" lon="14.6157683"><ele>131.83333333333334</ele><time>2026-04-04T08:42:43.827Z</time></trkpt><trkpt lat="42.1583" lon="14.6156733"><ele>132.0</ele><time>2026-04-04T08:42:45.827Z</time></trkpt><trkpt lat="42.1582567" lon="14.6156067"><ele>132.0</ele><time>2026-04-04T08:42:47.827Z</time></trkpt><trkpt lat="42.1582017" lon="14.6155317"><ele>132.0</ele><time>2026-04-04T08:42:50.827Z</time></trkpt><trkpt lat="42.158195" lon="14.6154267"><ele>132.0</ele><time>2026-04-04T08:42:53.827Z</time></trkpt><trkpt lat="42.158205" lon="14.615325"><ele>132.0</ele><time>2026-04-04T08:42:55.827Z</time></trkpt><trkpt lat="42.1582167" lon="14.6152133"><ele>132.0</ele><time>2026-04-04T08:42:57.827Z</time></trkpt><trkpt lat="42.1582133" lon="14.6151"><ele>132.0</ele><time>2026-04-04T08:42:59.827Z</time></trkpt><trkpt lat="42.1581933" lon="14.6149967"><ele>132.28571428571428</ele><time>2026-04-04T08:43:01.827Z</time></trkpt><trkpt lat="42.1581317" lon="14.6149117"><ele>132.57142857142858</ele><time>2026-04-04T08:43:04.827Z</time></trkpt><trkpt lat="42.15807" lon="14.6148917"><ele>132.85714285714286</ele><time>2026-04-04T08:43:07.828Z</time></trkpt><trkpt lat="42.15799" lon="14.6148883"><ele>133.14285714285714</ele><time>2026-04-04T08:43:10.827Z</time></trkpt><trkpt lat="42.1579333" lon="14.6148467"><ele>133.42857142857142</ele><time>2026-04-04T08:43:12.827Z</time></trkpt><trkpt lat="42.157875" lon="14.6147833"><ele>133.71428571428572</ele><time>2026-04-04T08:43:14.828Z</time></trkpt><trkpt lat="42.15783" lon="14.6147133"><ele>134.0</ele><time>2026-04-04T08:43:16.827Z</time></trkpt><trkpt lat="42.1577883" lon="14.614635"><ele>134.0</ele><time>2026-04-04T08:43:18.827Z</time></trkpt><trkpt lat="42.1577483" lon="14.6145433"><ele>134.0</ele><time>2026-04-04T08:43:20.827Z</time></trkpt><trkpt lat="42.15771" lon="14.614465"><ele>134.0</ele><time>2026-04-04T08:43:22.827Z</time></trkpt><trkpt lat="42.1576733" lon="14.6143933"><ele>134.0</ele><time>2026-04-04T08:43:24.828Z</time></trkpt><trkpt lat="42.1576317" lon="14.6143217"><ele>134.0</ele><time>2026-04-04T08:43:26.827Z</time></trkpt><trkpt lat="42.157595" lon="14.6142317"><ele>134.0</ele><time>2026-04-04T08:43:28.827Z</time></trkpt><trkpt lat="42.15756" lon="14.61413"><ele>134.0</ele><time>2026-04-04T08:43:30.828Z</time></trkpt><trkpt lat="42.157515" lon="14.6140283"><ele>134.0</ele><time>2026-04-04T08:43:32.827Z</time></trkpt><trkpt lat="42.1574667" lon="14.6139233"><ele>134.0</ele><time>2026-04-04T08:43:34.827Z</time></trkpt><trkpt lat="42.1574033" lon="14.6138133"><ele>134.0</ele><time>2026-04-04T08:43:36.827Z</time></trkpt><trkpt lat="42.1573433" lon="14.613705"><ele>134.0</ele><time>2026-04-04T08:43:38.827Z</time></trkpt><trkpt lat="42.157295" lon="14.6135933"><ele>134.0</ele><time>2026-04-04T08:43:40.827Z</time></trkpt><trkpt lat="42.1572467" lon="14.61349"><ele>134.0</ele><time>2026-04-04T08:43:42.828Z</time></trkpt><trkpt lat="42.15719" lon="14.613375"><ele>134.0</ele><time>2026-04-04T08:43:44.827Z</time></trkpt><trkpt lat="42.1571183" lon="14.6132567"><ele>134.0</ele><time>2026-04-04T08:43:46.827Z</time></trkpt><trkpt lat="42.1570617" lon="14.6131317"><ele>134.0</ele><time>2026-04-04T08:43:48.827Z</time></trkpt><trkpt lat="42.1570083" lon="14.613015"><ele>134.0</ele><time>2026-04-04T08:43:50.827Z</time></trkpt><trkpt lat="42.15697" lon="14.612895"><ele>134.6</ele><time>2026-04-04T08:43:52.827Z</time></trkpt><trkpt lat="42.156945" lon="14.6127617"><ele>135.2</ele><time>2026-04-04T08:43:54.827Z</time></trkpt><trkpt lat="42.1569067" lon="14.6126333"><ele>135.79999999999998</ele><time>2026-04-04T08:43:56.827Z</time></trkpt><trkpt lat="42.156875" lon="14.6124933"><ele>136.4</ele><time>2026-04-04T08:43:58.827Z</time></trkpt><trkpt lat="42.1568383" lon="14.6123517"><ele>137.0</ele><time>2026-04-04T08:44:00.827Z</time></trkpt><trkpt lat="42.1568083" lon="14.6122117"><ele>137.0</ele><time>2026-04-04T08:44:02.827Z</time></trkpt><trkpt lat="42.156775" lon="14.6120717"><ele>137.0</ele><time>2026-04-04T08:44:04.827Z</time></trkpt><trkpt lat="42.156755" lon="14.611945"><ele>137.0</ele><time>2026-04-04T08:44:06.827Z</time></trkpt><trkpt lat="42.15672" lon="14.61181"><ele>137.0</ele><time>2026-04-04T08:44:08.827Z</time></trkpt><trkpt lat="42.1566867" lon="14.6116733"><ele>137.0</ele><time>2026-04-04T08:44:10.827Z</time></trkpt><trkpt lat="42.15665" lon="14.6115217"><ele>136.6</ele><time>2026-04-04T08:44:12.827Z</time></trkpt><trkpt lat="42.156625" lon="14.611385"><ele>136.2</ele><time>2026-04-04T08:44:14.827Z</time></trkpt><trkpt lat="42.1566" lon="14.611255"><ele>135.8</ele><time>2026-04-04T08:44:16.827Z</time></trkpt><trkpt lat="42.1565733" lon="14.61111"><ele>135.4</ele><time>2026-04-04T08:44:18.827Z</time></trkpt><trkpt lat="42.15655" lon="14.61097"><ele>135.0</ele><time>2026-04-04T08:44:20.827Z</time></trkpt><trkpt lat="42.15652" lon="14.6108383"><ele>135.0</ele><time>2026-04-04T08:44:22.827Z</time></trkpt><trkpt lat="42.156485" lon="14.6107017"><ele>135.0</ele><time>2026-04-04T08:44:24.828Z</time></trkpt><trkpt lat="42.156455" lon="14.6105633"><ele>135.0</ele><time>2026-04-04T08:44:26.828Z</time></trkpt><trkpt lat="42.1564283" lon="14.6104333"><ele>135.0</ele><time>2026-04-04T08:44:28.827Z</time></trkpt><trkpt lat="42.1563967" lon="14.6102983"><ele>135.0</ele><time>2026-04-04T08:44:30.827Z</time></trkpt><trkpt lat="42.156365" lon="14.6101667"><ele>135.0</ele><time>2026-04-04T08:44:32.828Z</time></trkpt><trkpt lat="42.156325" lon="14.6100417"><ele>135.0</ele><time>2026-04-04T08:44:34.827Z</time></trkpt><trkpt lat="42.1563" lon="14.60991"><ele>135.0</ele><time>2026-04-04T08:44:36.827Z</time></trkpt><trkpt lat="42.1562683" lon="14.6097733"><ele>135.0</ele><time>2026-04-04T08:44:38.827Z</time></trkpt><trkpt lat="42.15623" lon="14.6096317"><ele>135.0</ele><time>2026-04-04T08:44:40.827Z</time></trkpt><trkpt lat="42.1561983" lon="14.6094933"><ele>135.4</ele><time>2026-04-04T08:44:42.827Z</time></trkpt><trkpt lat="42.1561683" lon="14.6093667"><ele>135.8</ele><time>2026-04-04T08:44:44.827Z</time></trkpt><trkpt lat="42.1561533" lon="14.6092517"><ele>136.2</ele><time>2026-04-04T08:44:46.828Z</time></trkpt><trkpt lat="42.1561367" lon="14.60914"><ele>136.6</ele><time>2026-04-04T08:44:48.827Z</time></trkpt><trkpt lat="42.156105" lon="14.6090183"><ele>137.0</ele><time>2026-04-04T08:44:50.827Z</time></trkpt><trkpt lat="42.1560717" lon="14.60889"><ele>137.0</ele><time>2026-04-04T08:44:52.827Z</time></trkpt><trkpt lat="42.1560417" lon="14.6087567"><ele>137.0</ele><time>2026-04-04T08:44:54.827Z</time></trkpt><trkpt lat="42.1560083" lon="14.60861"><ele>137.0</ele><time>2026-04-04T08:44:56.827Z</time></trkpt><trkpt lat="42.15597" lon="14.6084633"><ele>137.0</ele><time>2026-04-04T08:44:58.827Z</time></trkpt><trkpt lat="42.1559367" lon="14.6083283"><ele>137.0</ele><time>2026-04-04T08:45:00.827Z</time></trkpt><trkpt lat="42.15591" lon="14.6082017"><ele>137.0</ele><time>2026-04-04T08:45:02.828Z</time></trkpt><trkpt lat="42.15588" lon="14.6080517"><ele>137.0</ele><time>2026-04-04T08:45:04.827Z</time></trkpt><trkpt lat="42.15585" lon="14.6079067"><ele>137.0</ele><time>2026-04-04T08:45:06.827Z</time></trkpt><trkpt lat="42.1558183" lon="14.6077883"><ele>137.0</ele><time>2026-04-04T08:45:08.827Z</time></trkpt><trkpt lat="42.1557933" lon="14.6076617"><ele>137.0</ele><time>2026-04-04T08:45:10.827Z</time></trkpt><trkpt lat="42.1557633" lon="14.60754"><ele>136.79999999999998</ele><time>2026-04-04T08:45:12.827Z</time></trkpt><trkpt lat="42.155745" lon="14.6074133"><ele>136.6</ele><time>2026-04-04T08:45:14.828Z</time></trkpt><trkpt lat="42.1557133" lon="14.6072833"><ele>136.39999999999998</ele><time>2026-04-04T08:45:16.827Z</time></trkpt><trkpt lat="42.155685" lon="14.6071583"><ele>136.2</ele><time>2026-04-04T08:45:18.827Z</time></trkpt><trkpt lat="42.1556567" lon="14.607035"><ele>136.0</ele><time>2026-04-04T08:45:20.827Z</time></trkpt><trkpt lat="42.1556267" lon="14.60691"><ele>136.6</ele><time>2026-04-04T08:45:22.827Z</time></trkpt><trkpt lat="42.1555933" lon="14.6067767"><ele>137.2</ele><time>2026-04-04T08:45:24.827Z</time></trkpt><trkpt lat="42.155565" lon="14.6066467"><ele>137.8</ele><time>2026-04-04T08:45:26.827Z</time></trkpt><trkpt lat="42.1555333" lon="14.6065217"><ele>138.4</ele><time>2026-04-04T08:45:28.828Z</time></trkpt><trkpt lat="42.1555117" lon="14.6063933"><ele>139.0</ele><time>2026-04-04T08:45:30.827Z</time></trkpt><trkpt lat="42.1554833" lon="14.606265"><ele>139.2</ele><time>2026-04-04T08:45:32.827Z</time></trkpt><trkpt lat="42.1554567" lon="14.6061317"><ele>139.4</ele><time>2026-04-04T08:45:34.827Z</time></trkpt><trkpt lat="42.1554217" lon="14.6060067"><ele>139.6</ele><time>2026-04-04T08:45:36.827Z</time></trkpt><trkpt lat="42.1553917" lon="14.6058867"><ele>139.8</ele><time>2026-04-04T08:45:38.827Z</time></trkpt><trkpt lat="42.15538" lon="14.6057567"><ele>140.0</ele><time>2026-04-04T08:45:40.827Z</time></trkpt><trkpt lat="42.1553583" lon="14.6056267"><ele>140.0</ele><time>2026-04-04T08:45:42.827Z</time></trkpt><trkpt lat="42.1553317" lon="14.6054983"><ele>140.0</ele><time>2026-04-04T08:45:44.827Z</time></trkpt><trkpt lat="42.1552983" lon="14.6053683"><ele>140.0</ele><time>2026-04-04T08:45:46.827Z</time></trkpt><trkpt lat="42.1552633" lon="14.6052333"><ele>140.0</ele><time>2026-04-04T08:45:48.827Z</time></trkpt><trkpt lat="42.1552333" lon="14.6051"><ele>140.0</ele><time>2026-04-04T08:45:50.827Z</time></trkpt><trkpt lat="42.1551983" lon="14.6049683"><ele>140.2</ele><time>2026-04-04T08:45:52.827Z</time></trkpt><trkpt lat="42.155165" lon="14.6048467"><ele>140.4</ele><time>2026-04-04T08:45:54.827Z</time></trkpt><trkpt lat="42.1551383" lon="14.604725"><ele>140.6</ele><time>2026-04-04T08:45:56.828Z</time></trkpt><trkpt lat="42.15511" lon="14.6045917"><ele>140.8</ele><time>2026-04-04T08:45:58.827Z</time></trkpt><trkpt lat="42.15508" lon="14.6044633"><ele>141.0</ele><time>2026-04-04T08:46:00.827Z</time></trkpt><trkpt lat="42.1550517" lon="14.6043333"><ele>141.2</ele><time>2026-04-04T08:46:02.827Z</time></trkpt><trkpt lat="42.1550233" lon="14.6042"><ele>141.39999999999998</ele><time>2026-04-04T08:46:04.827Z</time></trkpt><trkpt lat="42.155" lon="14.6040683"><ele>141.6</ele><time>2026-04-04T08:46:06.827Z</time></trkpt><trkpt lat="42.1549733" lon="14.6039433"><ele>141.79999999999998</ele><time>2026-04-04T08:46:08.827Z</time></trkpt><trkpt lat="42.1549517" lon="14.6038133"><ele>142.0</ele><time>2026-04-04T08:46:10.828Z</time></trkpt><trkpt lat="42.1549183" lon="14.6036967"><ele>142.2</ele><time>2026-04-04T08:46:12.827Z</time></trkpt><trkpt lat="42.154895" lon="14.603575"><ele>142.39999999999998</ele><time>2026-04-04T08:46:14.827Z</time></trkpt><trkpt lat="42.154865" lon="14.6034517"><ele>142.60000000000002</ele><time>2026-04-04T08:46:16.828Z</time></trkpt><trkpt lat="42.1548417" lon="14.603335"><ele>142.8</ele><time>2026-04-04T08:46:18.827Z</time></trkpt><trkpt lat="42.154815" lon="14.6032133"><ele>143.0</ele><time>2026-04-04T08:46:20.827Z</time></trkpt><trkpt lat="42.15479" lon="14.6030983"><ele>143.6</ele><time>2026-04-04T08:46:22.827Z</time></trkpt><trkpt lat="42.154755" lon="14.602965"><ele>144.20000000000002</ele><time>2026-04-04T08:46:24.827Z</time></trkpt><trkpt lat="42.1547217" lon="14.602835"><ele>144.8</ele><time>2026-04-04T08:46:26.828Z</time></trkpt><trkpt lat="42.1546983" lon="14.602705"><ele>145.4</ele><time>2026-04-04T08:46:28.827Z</time></trkpt><trkpt lat="42.1546717" lon="14.6025783"><ele>146.0</ele><time>2026-04-04T08:46:30.827Z</time></trkpt><trkpt lat="42.1546417" lon="14.6024433"><ele>146.0</ele><time>2026-04-04T08:46:32.828Z</time></trkpt><trkpt lat="42.1546083" lon="14.6023117"><ele>146.0</ele><time>2026-04-04T08:46:34.827Z</time></trkpt><trkpt lat="42.1545783" lon="14.6021717"><ele>146.0</ele><time>2026-04-04T08:46:36.827Z</time></trkpt><trkpt lat="42.1545467" lon="14.60205"><ele>146.0</ele><time>2026-04-04T08:46:38.827Z</time></trkpt><trkpt lat="42.1545167" lon="14.6019333"><ele>146.0</ele><time>2026-04-04T08:46:40.827Z</time></trkpt><trkpt lat="42.1544867" lon="14.6018033"><ele>146.2</ele><time>2026-04-04T08:46:42.827Z</time></trkpt><trkpt lat="42.1544517" lon="14.601665"><ele>146.39999999999998</ele><time>2026-04-04T08:46:44.827Z</time></trkpt><trkpt lat="42.154425" lon="14.6015383"><ele>146.6</ele><time>2026-04-04T08:46:46.828Z</time></trkpt><trkpt lat="42.1543983" lon="14.6014083"><ele>146.79999999999998</ele><time>2026-04-04T08:46:48.827Z</time></trkpt><trkpt lat="42.15438" lon="14.6012817"><ele>147.0</ele><time>2026-04-04T08:46:50.827Z</time></trkpt><trkpt lat="42.1543567" lon="14.60114"><ele>147.2</ele><time>2026-04-04T08:46:52.828Z</time></trkpt><trkpt lat="42.1543167" lon="14.601005"><ele>147.39999999999998</ele><time>2026-04-04T08:46:54.827Z</time></trkpt><trkpt lat="42.1542833" lon="14.6008667"><ele>147.60000000000002</ele><time>2026-04-04T08:46:56.827Z</time></trkpt><trkpt lat="42.1542517" lon="14.6007283"><ele>147.8</ele><time>2026-04-04T08:46:58.827Z</time></trkpt><trkpt lat="42.1542233" lon="14.6005933"><ele>148.0</ele><time>2026-04-04T08:47:00.827Z</time></trkpt><trkpt lat="42.1541933" lon="14.6004583"><ele>148.0</ele><time>2026-04-04T08:47:02.827Z</time></trkpt><trkpt lat="42.1541633" lon="14.600325"><ele>148.0</ele><time>2026-04-04T08:47:04.827Z</time></trkpt><trkpt lat="42.1541333" lon="14.6001833"><ele>148.0</ele><time>2026-04-04T08:47:06.827Z</time></trkpt><trkpt lat="42.154105" lon="14.6000483"><ele>148.0</ele><time>2026-04-04T08:47:08.828Z</time></trkpt><trkpt lat="42.1540867" lon="14.599915"><ele>148.0</ele><time>2026-04-04T08:47:10.827Z</time></trkpt><trkpt lat="42.1540583" lon="14.5997917"><ele>148.4</ele><time>2026-04-04T08:47:12.827Z</time></trkpt><trkpt lat="42.1540317" lon="14.59967"><ele>148.8</ele><time>2026-04-04T08:47:14.827Z</time></trkpt><trkpt lat="42.154005" lon="14.59955"><ele>149.2</ele><time>2026-04-04T08:47:16.827Z</time></trkpt><trkpt lat="42.1539783" lon="14.59943"><ele>149.6</ele><time>2026-04-04T08:47:18.827Z</time></trkpt><trkpt lat="42.153945" lon="14.5993083"><ele>150.0</ele><time>2026-04-04T08:47:20.827Z</time></trkpt><trkpt lat="42.15391" lon="14.5991783"><ele>150.4</ele><time>2026-04-04T08:47:22.827Z</time></trkpt><trkpt lat="42.1538783" lon="14.599055"><ele>150.8</ele><time>2026-04-04T08:47:24.827Z</time></trkpt><trkpt lat="42.1538533" lon="14.5989283"><ele>151.2</ele><time>2026-04-04T08:47:26.827Z</time></trkpt><trkpt lat="42.1538267" lon="14.598795"><ele>151.6</ele><time>2026-04-04T08:47:28.827Z</time></trkpt><trkpt lat="42.1537967" lon="14.598665"><ele>152.0</ele><time>2026-04-04T08:47:30.827Z</time></trkpt><trkpt lat="42.1537633" lon="14.5985417"><ele>152.4</ele><time>2026-04-04T08:47:32.827Z</time></trkpt><trkpt lat="42.153735" lon="14.5984167"><ele>152.79999999999998</ele><time>2026-04-04T08:47:34.827Z</time></trkpt><trkpt lat="42.153705" lon="14.5982883"><ele>153.2</ele><time>2026-04-04T08:47:36.828Z</time></trkpt><trkpt lat="42.15368" lon="14.598165"><ele>153.6</ele><time>2026-04-04T08:47:38.827Z</time></trkpt><trkpt lat="42.1536517" lon="14.5980317"><ele>154.0</ele><time>2026-04-04T08:47:40.827Z</time></trkpt><trkpt lat="42.1536183" lon="14.5979033"><ele>154.0</ele><time>2026-04-04T08:47:42.827Z</time></trkpt><trkpt lat="42.15359" lon="14.597765"><ele>154.0</ele><time>2026-04-04T08:47:44.827Z</time></trkpt><trkpt lat="42.153555" lon="14.5976317"><ele>154.0</ele><time>2026-04-04T08:47:46.827Z</time></trkpt><trkpt lat="42.1535317" lon="14.5974933"><ele>154.0</ele><time>2026-04-04T08:47:48.827Z</time></trkpt><trkpt lat="42.153505" lon="14.597365"><ele>154.0</ele><time>2026-04-04T08:47:50.827Z</time></trkpt><trkpt lat="42.1534817" lon="14.5972333"><ele>154.0</ele><time>2026-04-04T08:47:52.828Z</time></trkpt><trkpt lat="42.15345" lon="14.597105"><ele>154.0</ele><time>2026-04-04T08:47:54.827Z</time></trkpt><trkpt lat="42.1534183" lon="14.5969817"><ele>154.0</ele><time>2026-04-04T08:47:56.827Z</time></trkpt><trkpt lat="42.1533917" lon="14.596845"><ele>154.0</ele><time>2026-04-04T08:47:58.827Z</time></trkpt><trkpt lat="42.1533667" lon="14.5967083"><ele>154.0</ele><time>2026-04-04T08:48:00.827Z</time></trkpt><trkpt lat="42.1533417" lon="14.596565"><ele>154.0</ele><time>2026-04-04T08:48:02.828Z</time></trkpt><trkpt lat="42.153305" lon="14.5964167"><ele>154.0</ele><time>2026-04-04T08:48:04.827Z</time></trkpt><trkpt lat="42.1532767" lon="14.5962833"><ele>154.0</ele><time>2026-04-04T08:48:06.828Z</time></trkpt><trkpt lat="42.15325" lon="14.5961433"><ele>154.0</ele><time>2026-04-04T08:48:08.827Z</time></trkpt><trkpt lat="42.1532183" lon="14.5959967"><ele>154.0</ele><time>2026-04-04T08:48:10.827Z</time></trkpt><trkpt lat="42.153185" lon="14.5958583"><ele>154.2</ele><time>2026-04-04T08:48:12.827Z</time></trkpt><trkpt lat="42.1531483" lon="14.595705"><ele>154.4</ele><time>2026-04-04T08:48:14.827Z</time></trkpt><trkpt lat="42.1531133" lon="14.5955633"><ele>154.6</ele><time>2026-04-04T08:48:16.827Z</time></trkpt><trkpt lat="42.1530883" lon="14.5954233"><ele>154.8</ele><time>2026-04-04T08:48:18.828Z</time></trkpt><trkpt lat="42.1530617" lon="14.5952817"><ele>155.0</ele><time>2026-04-04T08:48:20.827Z</time></trkpt><trkpt lat="42.153035" lon="14.5951583"><ele>155.4</ele><time>2026-04-04T08:48:22.828Z</time></trkpt><trkpt lat="42.1530017" lon="14.5950383"><ele>155.8</ele><time>2026-04-04T08:48:24.827Z</time></trkpt><trkpt lat="42.1529733" lon="14.5949067"><ele>156.2</ele><time>2026-04-04T08:48:26.828Z</time></trkpt><trkpt lat="42.152945" lon="14.5947683"><ele>156.6</ele><time>2026-04-04T08:48:28.827Z</time></trkpt><trkpt lat="42.1529167" lon="14.5946217"><ele>157.0</ele><time>2026-04-04T08:48:30.827Z</time></trkpt><trkpt lat="42.152885" lon="14.594485"><ele>157.2</ele><time>2026-04-04T08:48:32.828Z</time></trkpt><trkpt lat="42.152855" lon="14.5943583"><ele>157.39999999999998</ele><time>2026-04-04T08:48:34.827Z</time></trkpt><trkpt lat="42.1528267" lon="14.5942117"><ele>157.60000000000002</ele><time>2026-04-04T08:48:36.827Z</time></trkpt><trkpt lat="42.1527983" lon="14.5940733"><ele>157.8</ele><time>2026-04-04T08:48:38.827Z</time></trkpt><trkpt lat="42.15277" lon="14.5939467"><ele>158.0</ele><time>2026-04-04T08:48:40.827Z</time></trkpt><trkpt lat="42.15274" lon="14.593825"><ele>158.0</ele><time>2026-04-04T08:48:42.827Z</time></trkpt><trkpt lat="42.1527117" lon="14.5937033"><ele>158.0</ele><time>2026-04-04T08:48:44.827Z</time></trkpt><trkpt lat="42.152685" lon="14.593585"><ele>158.0</ele><time>2026-04-04T08:48:46.827Z</time></trkpt><trkpt lat="42.1526583" lon="14.5934517"><ele>158.0</ele><time>2026-04-04T08:48:48.827Z</time></trkpt><trkpt lat="42.15263" lon="14.59332"><ele>158.0</ele><time>2026-04-04T08:48:50.828Z</time></trkpt><trkpt lat="42.1525983" lon="14.59319"><ele>158.8</ele><time>2026-04-04T08:48:52.827Z</time></trkpt><trkpt lat="42.15256" lon="14.593065"><ele>159.60000000000002</ele><time>2026-04-04T08:48:54.827Z</time></trkpt><trkpt lat="42.1525333" lon="14.5929417"><ele>160.39999999999998</ele><time>2026-04-04T08:48:56.827Z</time></trkpt><trkpt lat="42.1525117" lon="14.5928233"><ele>161.2</ele><time>2026-04-04T08:48:58.828Z</time></trkpt><trkpt lat="42.1524867" lon="14.5926917"><ele>162.0</ele><time>2026-04-04T08:49:00.827Z</time></trkpt><trkpt lat="42.152455" lon="14.5925667"><ele>162.0</ele><time>2026-04-04T08:49:02.827Z</time></trkpt><trkpt lat="42.152425" lon="14.5924433"><ele>162.0</ele><time>2026-04-04T08:49:04.827Z</time></trkpt><trkpt lat="42.152395" lon="14.59232"><ele>162.0</ele><time>2026-04-04T08:49:06.827Z</time></trkpt><trkpt lat="42.1523617" lon="14.5922033"><ele>162.0</ele><time>2026-04-04T08:49:08.827Z</time></trkpt><trkpt lat="42.1523367" lon="14.592085"><ele>162.0</ele><time>2026-04-04T08:49:10.827Z</time></trkpt><trkpt lat="42.1523067" lon="14.59196"><ele>162.33333333333334</ele><time>2026-04-04T08:49:12.827Z</time></trkpt><trkpt lat="42.1522783" lon="14.591845"><ele>162.66666666666666</ele><time>2026-04-04T08:49:14.828Z</time></trkpt><trkpt lat="42.1522533" lon="14.59174"><ele>163.0</ele><time>2026-04-04T08:49:16.827Z</time></trkpt><trkpt lat="42.1522417" lon="14.5916233"><ele>163.33333333333331</ele><time>2026-04-04T08:49:18.827Z</time></trkpt><trkpt lat="42.1522417" lon="14.5914983"><ele>163.66666666666666</ele><time>2026-04-04T08:49:20.827Z</time></trkpt><trkpt lat="42.1522333" lon="14.5913683"><ele>164.0</ele><time>2026-04-04T08:49:22.827Z</time></trkpt><trkpt lat="42.152195" lon="14.5912433"><ele>164.6</ele><time>2026-04-04T08:49:24.827Z</time></trkpt><trkpt lat="42.1521367" lon="14.591135"><ele>165.2</ele><time>2026-04-04T08:49:26.827Z</time></trkpt><trkpt lat="42.1520833" lon="14.5910167"><ele>165.79999999999998</ele><time>2026-04-04T08:49:28.828Z</time></trkpt><trkpt lat="42.1520383" lon="14.5908883"><ele>166.39999999999998</ele><time>2026-04-04T08:49:30.827Z</time></trkpt><trkpt lat="42.152" lon="14.5907633"><ele>167.0</ele><time>2026-04-04T08:49:32.828Z</time></trkpt><trkpt lat="42.1519717" lon="14.5906283"><ele>167.0</ele><time>2026-04-04T08:49:34.827Z</time></trkpt><trkpt lat="42.1519383" lon="14.5905117"><ele>167.0</ele><time>2026-04-04T08:49:36.827Z</time></trkpt><trkpt lat="42.151905" lon="14.5904"><ele>167.0</ele><time>2026-04-04T08:49:38.827Z</time></trkpt><trkpt lat="42.1518717" lon="14.5902933"><ele>167.0</ele><time>2026-04-04T08:49:40.827Z</time></trkpt><trkpt lat="42.1518417" lon="14.5901917"><ele>167.0</ele><time>2026-04-04T08:49:42.828Z</time></trkpt><trkpt lat="42.1518117" lon="14.59008"><ele>167.0</ele><time>2026-04-04T08:49:44.827Z</time></trkpt><trkpt lat="42.1517833" lon="14.58997"><ele>167.5</ele><time>2026-04-04T08:49:46.827Z</time></trkpt><trkpt lat="42.1517567" lon="14.5898667"><ele>168.0</ele><time>2026-04-04T08:49:48.828Z</time></trkpt><trkpt lat="42.151725" lon="14.5897567"><ele>168.5</ele><time>2026-04-04T08:49:50.827Z</time></trkpt><trkpt lat="42.1516917" lon="14.5896467"><ele>169.0</ele><time>2026-04-04T08:49:52.827Z</time></trkpt><trkpt lat="42.1516567" lon="14.5895317"><ele>169.5</ele><time>2026-04-04T08:49:54.827Z</time></trkpt><trkpt lat="42.1516233" lon="14.58942"><ele>170.0</ele><time>2026-04-04T08:49:56.827Z</time></trkpt><trkpt lat="42.15159" lon="14.589305"><ele>170.33333333333331</ele><time>2026-04-04T08:49:58.827Z</time></trkpt><trkpt lat="42.1515567" lon="14.589195"><ele>170.66666666666666</ele><time>2026-04-04T08:50:00.827Z</time></trkpt><trkpt lat="42.1515267" lon="14.58909"><ele>171.0</ele><time>2026-04-04T08:50:02.827Z</time></trkpt><trkpt lat="42.1514917" lon="14.5889817"><ele>171.33333333333334</ele><time>2026-04-04T08:50:04.827Z</time></trkpt><trkpt lat="42.1514583" lon="14.5888783"><ele>171.66666666666669</ele><time>2026-04-04T08:50:06.828Z</time></trkpt><trkpt lat="42.151425" lon="14.5887617"><ele>172.0</ele><time>2026-04-04T08:50:08.827Z</time></trkpt><trkpt lat="42.1513933" lon="14.5886583"><ele>172.71428571428572</ele><time>2026-04-04T08:50:10.827Z</time></trkpt><trkpt lat="42.151365" lon="14.5885733"><ele>173.42857142857144</ele><time>2026-04-04T08:50:12.827Z</time></trkpt><trkpt lat="42.1513367" lon="14.5884783"><ele>174.14285714285717</ele><time>2026-04-04T08:50:14.827Z</time></trkpt><trkpt lat="42.15131" lon="14.5883783"><ele>174.85714285714286</ele><time>2026-04-04T08:50:16.828Z</time></trkpt><trkpt lat="42.1512783" lon="14.5882783"><ele>175.57142857142856</ele><time>2026-04-04T08:50:18.828Z</time></trkpt><trkpt lat="42.151245" lon="14.5881883"><ele>176.2857142857143</ele><time>2026-04-04T08:50:20.827Z</time></trkpt><trkpt lat="42.1512167" lon="14.588105"><ele>177.0</ele><time>2026-04-04T08:50:22.827Z</time></trkpt><trkpt lat="42.1511883" lon="14.5880117"><ele>177.0</ele><time>2026-04-04T08:50:24.828Z</time></trkpt><trkpt lat="42.1511567" lon="14.5879"><ele>177.0</ele><time>2026-04-04T08:50:26.827Z</time></trkpt><trkpt lat="42.151135" lon="14.5877883"><ele>177.0</ele><time>2026-04-04T08:50:28.827Z</time></trkpt><trkpt lat="42.151105" lon="14.587685"><ele>177.0</ele><time>2026-04-04T08:50:30.828Z</time></trkpt><trkpt lat="42.1510733" lon="14.5875967"><ele>177.0</ele><time>2026-04-04T08:50:32.827Z</time></trkpt><trkpt lat="42.151045" lon="14.5875167"><ele>177.0</ele><time>2026-04-04T08:50:34.828Z</time></trkpt><trkpt lat="42.1510233" lon="14.5874217"><ele>177.57142857142858</ele><time>2026-04-04T08:50:36.827Z</time></trkpt><trkpt lat="42.151" lon="14.587335"><ele>178.14285714285714</ele><time>2026-04-04T08:50:38.827Z</time></trkpt><trkpt lat="42.1509783" lon="14.5872417"><ele>178.71428571428572</ele><time>2026-04-04T08:50:40.828Z</time></trkpt><trkpt lat="42.150955" lon="14.58716"><ele>179.28571428571428</ele><time>2026-04-04T08:50:42.827Z</time></trkpt><trkpt lat="42.15093" lon="14.58708"><ele>179.85714285714283</ele><time>2026-04-04T08:50:44.827Z</time></trkpt><trkpt lat="42.1509083" lon="14.5869967"><ele>180.42857142857142</ele><time>2026-04-04T08:50:46.828Z</time></trkpt><trkpt lat="42.150885" lon="14.5869"><ele>181.0</ele><time>2026-04-04T08:50:48.827Z</time></trkpt><trkpt lat="42.150855" lon="14.58677"><ele>181.5</ele><time>2026-04-04T08:50:50.827Z</time></trkpt><trkpt lat="42.1508183" lon="14.5866683"><ele>182.0</ele><time>2026-04-04T08:50:52.827Z</time></trkpt><trkpt lat="42.1507683" lon="14.58657"><ele>182.5</ele><time>2026-04-04T08:50:55.828Z</time></trkpt><trkpt lat="42.150685" lon="14.5865017"><ele>183.0</ele><time>2026-04-04T08:50:58.827Z</time></trkpt><trkpt lat="42.15063" lon="14.5864233"><ele>183.5</ele><time>2026-04-04T08:51:00.827Z</time></trkpt><trkpt lat="42.1505483" lon="14.586355"><ele>184.0</ele><time>2026-04-04T08:51:02.827Z</time></trkpt><trkpt lat="42.15049" lon="14.5862883"><ele>184.5</ele><time>2026-04-04T08:51:04.827Z</time></trkpt><trkpt lat="42.1504233" lon="14.5862467"><ele>185.0</ele><time>2026-04-04T08:51:06.827Z</time></trkpt><trkpt lat="42.1503417" lon="14.5862167"><ele>185.5</ele><time>2026-04-04T08:51:08.828Z</time></trkpt><trkpt lat="42.1502633" lon="14.586195"><ele>186.0</ele><time>2026-04-04T08:51:10.827Z</time></trkpt><trkpt lat="42.1501967" lon="14.58618"><ele>186.5</ele><time>2026-04-04T08:51:12.827Z</time></trkpt><trkpt lat="42.1501217" lon="14.5861633"><ele>187.0</ele><time>2026-04-04T08:51:14.827Z</time></trkpt><trkpt lat="42.150045" lon="14.5861567"><ele>188.0</ele><time>2026-04-04T08:51:16.827Z</time></trkpt><trkpt lat="42.1499633" lon="14.5861633"><ele>189.0</ele><time>2026-04-04T08:51:18.827Z</time></trkpt><trkpt lat="42.1498883" lon="14.5861583"><ele>190.0</ele><time>2026-04-04T08:51:20.827Z</time></trkpt><trkpt lat="42.149815" lon="14.58613"><ele>191.0</ele><time>2026-04-04T08:51:22.827Z</time></trkpt><trkpt lat="42.1497683" lon="14.5860367"><ele>191.99999999999997</ele><time>2026-04-04T08:51:25.827Z</time></trkpt><trkpt lat="42.14976" lon="14.5859267"><ele>193.0</ele><time>2026-04-04T08:51:28.827Z</time></trkpt><trkpt lat="42.1498033" lon="14.5858317"><ele>192.99999999999997</ele><time>2026-04-04T08:51:31.827Z</time></trkpt><trkpt lat="42.1498683" lon="14.5857533"><ele>193.0</ele><time>2026-04-04T08:51:34.827Z</time></trkpt><trkpt lat="42.1499433" lon="14.5856983"><ele>193.0</ele><time>2026-04-04T08:51:38.827Z</time></trkpt><trkpt lat="42.1500083" lon="14.5856667"><ele>193.0</ele><time>2026-04-04T08:51:41.828Z</time></trkpt><trkpt lat="42.1500733" lon="14.5856283"><ele>192.99999999999997</ele><time>2026-04-04T08:51:44.827Z</time></trkpt><trkpt lat="42.150135" lon="14.5855883"><ele>193.0</ele><time>2026-04-04T08:51:50.828Z</time></trkpt><trkpt lat="42.15021" lon="14.5855517"><ele>193.33333333333331</ele><time>2026-04-04T08:51:54.828Z</time></trkpt><trkpt lat="42.15027" lon="14.585525"><ele>193.66666666666666</ele><time>2026-04-04T08:51:57.828Z</time></trkpt><trkpt lat="42.15034" lon="14.5854967"><ele>194.0</ele><time>2026-04-04T08:51:59.827Z</time></trkpt><trkpt lat="42.1504133" lon="14.5854583"><ele>194.33333333333331</ele><time>2026-04-04T08:52:01.827Z</time></trkpt><trkpt lat="42.15045" lon="14.5853733"><ele>194.66666666666666</ele><time>2026-04-04T08:52:03.827Z</time></trkpt><trkpt lat="42.15048" lon="14.585255"><ele>195.0</ele><time>2026-04-04T08:52:05.828Z</time></trkpt><trkpt lat="42.1505417" lon="14.5850933"><ele>196.66666666666666</ele><time>2026-04-04T08:52:07.827Z</time></trkpt><trkpt lat="42.1505783" lon="14.5849917"><ele>198.33333333333331</ele><time>2026-04-04T08:52:09.827Z</time></trkpt><trkpt lat="42.1506183" lon="14.584905"><ele>200.0</ele><time>2026-04-04T08:52:11.827Z</time></trkpt><trkpt lat="42.150645" lon="14.5848167"><ele>201.66666666666666</ele><time>2026-04-04T08:52:13.827Z</time></trkpt><trkpt lat="42.1506617" lon="14.584695"><ele>203.33333333333331</ele><time>2026-04-04T08:52:16.828Z</time></trkpt><trkpt lat="42.15068" lon="14.584585"><ele>205.0</ele><time>2026-04-04T08:52:19.827Z</time></trkpt><trkpt lat="42.1506767" lon="14.5844683"><ele>205.83333333333331</ele><time>2026-04-04T08:52:22.827Z</time></trkpt><trkpt lat="42.1506733" lon="14.5843833"><ele>206.66666666666666</ele><time>2026-04-04T08:52:24.827Z</time></trkpt><trkpt lat="42.150665" lon="14.58428"><ele>207.5</ele><time>2026-04-04T08:52:27.827Z</time></trkpt><trkpt lat="42.1506383" lon="14.58416"><ele>208.33333333333331</ele><time>2026-04-04T08:52:30.828Z</time></trkpt><trkpt lat="42.1506117" lon="14.5840567"><ele>209.16666666666666</ele><time>2026-04-04T08:52:32.827Z</time></trkpt><trkpt lat="42.1505733" lon="14.583975"><ele>210.0</ele><time>2026-04-04T08:52:34.827Z</time></trkpt><trkpt lat="42.1505167" lon="14.5838933"><ele>210.0</ele><time>2026-04-04T08:52:36.828Z</time></trkpt><trkpt lat="42.15047" lon="14.58381"><ele>210.0</ele><time>2026-04-04T08:52:38.828Z</time></trkpt><trkpt lat="42.15041" lon="14.5837217"><ele>210.0</ele><time>2026-04-04T08:52:40.827Z</time></trkpt><trkpt lat="42.1503417" lon="14.5836467"><ele>210.0</ele><time>2026-04-04T08:52:42.827Z</time></trkpt><trkpt lat="42.1502767" lon="14.5835983"><ele>210.0</ele><time>2026-04-04T08:52:44.828Z</time></trkpt><trkpt lat="42.1502067" lon="14.5835583"><ele>210.0</ele><time>2026-04-04T08:52:46.827Z</time></trkpt><trkpt lat="42.15014" lon="14.58348"><ele>209.83333333333334</ele><time>2026-04-04T08:52:48.827Z</time></trkpt><trkpt lat="42.15009" lon="14.5833983"><ele>209.66666666666669</ele><time>2026-04-04T08:52:50.828Z</time></trkpt><trkpt lat="42.1500517" lon="14.5833183"><ele>209.5</ele><time>2026-04-04T08:52:52.827Z</time></trkpt><trkpt lat="42.1500467" lon="14.5832283"><ele>209.33333333333334</ele><time>2026-04-04T08:52:54.827Z</time></trkpt><trkpt lat="42.1500467" lon="14.5831367"><ele>209.16666666666669</ele><time>2026-04-04T08:52:56.827Z</time></trkpt><trkpt lat="42.15004" lon="14.583005"><ele>209.0</ele><time>2026-04-04T08:52:59.827Z</time></trkpt><trkpt lat="42.1500433" lon="14.58289"><ele>209.16666666666669</ele><time>2026-04-04T08:53:01.828Z</time></trkpt><trkpt lat="42.15004" lon="14.58279"><ele>209.33333333333334</ele><time>2026-04-04T08:53:03.827Z</time></trkpt><trkpt lat="42.1500383" lon="14.582675"><ele>209.5</ele><time>2026-04-04T08:53:05.828Z</time></trkpt><trkpt lat="42.1500417" lon="14.5825717"><ele>209.66666666666669</ele><time>2026-04-04T08:53:07.827Z</time></trkpt><trkpt lat="42.1500633" lon="14.582445"><ele>209.83333333333334</ele><time>2026-04-04T08:53:09.827Z</time></trkpt><trkpt lat="42.15007" lon="14.5823333"><ele>210.0</ele><time>2026-04-04T08:53:11.827Z</time></trkpt><trkpt lat="42.1500733" lon="14.5822267"><ele>210.0</ele><time>2026-04-04T08:53:13.827Z</time></trkpt><trkpt lat="42.1500683" lon="14.5821117"><ele>210.0</ele><time>2026-04-04T08:53:15.828Z</time></trkpt><trkpt lat="42.1500667" lon="14.5819967"><ele>210.0</ele><time>2026-04-04T08:53:17.827Z</time></trkpt><trkpt lat="42.1500683" lon="14.5818683"><ele>210.0</ele><time>2026-04-04T08:53:19.827Z</time></trkpt><trkpt lat="42.15006" lon="14.5817467"><ele>210.0</ele><time>2026-04-04T08:53:21.827Z</time></trkpt><trkpt lat="42.150065" lon="14.581625"><ele>210.0</ele><time>2026-04-04T08:53:23.828Z</time></trkpt><trkpt lat="42.1500633" lon="14.5815117"><ele>210.0</ele><time>2026-04-04T08:53:25.828Z</time></trkpt><trkpt lat="42.150055" lon="14.5814033"><ele>210.0</ele><time>2026-04-04T08:53:27.827Z</time></trkpt><trkpt lat="42.150055" lon="14.581285"><ele>210.0</ele><time>2026-04-04T08:53:29.827Z</time></trkpt><trkpt lat="42.15006" lon="14.5811867"><ele>210.0</ele><time>2026-04-04T08:53:31.827Z</time></trkpt><trkpt lat="42.1500733" lon="14.5811"><ele>210.0</ele><time>2026-04-04T08:53:33.827Z</time></trkpt><trkpt lat="42.1501017" lon="14.5810167"><ele>210.0</ele><time>2026-04-04T08:53:36.827Z</time></trkpt><trkpt lat="42.1501183" lon="14.5809333"><ele>210.0</ele><time>2026-04-04T08:53:41.827Z</time></trkpt><trkpt lat="42.150115" lon="14.5808317"><ele>211.5</ele><time>2026-04-04T08:53:47.827Z</time></trkpt><trkpt lat="42.149885" lon="14.58073"><ele>213.0</ele><time>2026-04-04T08:54:49.897Z</time></trkpt><trkpt lat="42.1502283" lon="14.5810183"><ele>213.0</ele><time>2026-04-04T08:54:51.827Z</time></trkpt><trkpt lat="42.1501717" lon="14.5809433"><ele>213.0</ele><time>2026-04-04T08:54:53.326Z</time></trkpt><trkpt lat="42.150125" lon="14.5808817"><ele>213.0</ele><time>2026-04-04T08:55:20.826Z</time></trkpt><trkpt lat="42.1500517" lon="14.58084"><ele>213.0</ele><time>2026-04-04T08:55:34.826Z</time></trkpt><trkpt lat="42.14999" lon="14.5808167"><ele>213.0</ele><time>2026-04-04T08:55:44.826Z</time></trkpt><trkpt lat="42.15002" lon="14.5809317"><ele>213.0</ele><time>2026-04-04T08:56:38.826Z</time></trkpt><trkpt lat="42.1500283" lon="14.5810567"><ele>213.0</ele><time>2026-04-04T08:56:50.826Z</time></trkpt><trkpt lat="42.1499633" lon="14.5812283"><ele>213.0</ele><time>2026-04-04T08:57:05.826Z</time></trkpt><trkpt lat="42.1499033" lon="14.58126"><ele>213.0</ele><time>2026-04-04T08:57:15.826Z</time></trkpt><trkpt lat="42.1499783" lon="14.5812"><ele>213.0</ele><time>2026-04-04T08:57:33.826Z</time></trkpt><trkpt lat="42.1500267" lon="14.5811367"><ele>213.0</ele><time>2026-04-04T08:57:34.826Z</time></trkpt><trkpt lat="42.1500983" lon="14.5811217"><ele>213.0</ele><time>2026-04-04T08:57:37.826Z</time></trkpt><trkpt lat="42.150165" lon="14.581105"><ele>213.0</ele><time>2026-04-04T08:57:41.826Z</time></trkpt><trkpt lat="42.1502183" lon="14.5810533"><ele>213.0</ele><time>2026-04-04T08:57:45.826Z</time></trkpt><trkpt lat="42.1501633" lon="14.5809783"><ele>213.0</ele><time>2026-04-04T08:57:49.826Z</time></trkpt><trkpt lat="42.1501083" lon="14.5808683"><ele>213.0</ele><time>2026-04-04T08:57:52.826Z</time></trkpt><trkpt lat="42.1501933" lon="14.5808283"><ele>213.0</ele><time>2026-04-04T08:58:16.826Z</time></trkpt><trkpt lat="42.1502417" lon="14.5808933"><ele>213.0</ele><time>2026-04-04T08:58:32.827Z</time></trkpt><trkpt lat="42.150175" lon="14.5808933"><ele>213.0</ele><time>2026-04-04T08:58:41.826Z</time></trkpt><trkpt lat="42.1501367" lon="14.5809633"><ele>213.0</ele><time>2026-04-04T08:58:58.827Z</time></trkpt><trkpt lat="42.1501717" lon="14.5810967"><ele>213.0</ele><time>2026-04-04T08:59:01.827Z</time></trkpt><trkpt lat="42.1501967" lon="14.5812417"><ele>213.0</ele><time>2026-04-04T08:59:12.826Z</time></trkpt><trkpt lat="42.150255" lon="14.581205"><ele>213.0</ele><time>2026-04-04T08:59:21.826Z</time></trkpt><trkpt lat="42.15023" lon="14.5811117"><ele>213.0</ele><time>2026-04-04T08:59:29.826Z</time></trkpt><trkpt lat="42.1503017" lon="14.58106"><ele>213.0</ele><time>2026-04-04T08:59:41.826Z</time></trkpt><trkpt lat="42.150265" lon="14.5809817"><ele>213.0</ele><time>2026-04-04T08:59:48.826Z</time></trkpt><trkpt lat="42.1502183" lon="14.58104"><ele>213.0</ele><time>2026-04-04T08:59:57.826Z</time></trkpt><trkpt lat="42.1502867" lon="14.581005"><ele>213.0</ele><time>2026-04-04T09:00:05.826Z</time></trkpt><trkpt lat="42.1503433" lon="14.58092"><ele>213.0</ele><time>2026-04-04T09:00:09.827Z</time></trkpt><trkpt lat="42.1504017" lon="14.5808467"><ele>213.0</ele><time>2026-04-04T09:00:11.826Z</time></trkpt><trkpt lat="42.1501592" lon="14.5808677"><ele>212.99999999999997</ele><time>2026-04-04T09:00:20.634Z</time></trkpt><trkpt lat="42.1500983" lon="14.5808933"><ele>213.0</ele><time>2026-04-04T09:01:41.83Z</time></trkpt><trkpt lat="42.1500283" lon="14.5808917"><ele>213.0</ele><time>2026-04-04T09:01:42.829Z</time></trkpt><trkpt lat="42.1500711" lon="14.5808162"><ele>213.0</ele><time>2026-04-04T09:06:17.827Z</time></trkpt><trkpt lat="42.1500699" lon="14.5807295"><ele>213.0</ele><time>2026-04-04T09:06:21.827Z</time></trkpt><trkpt lat="42.1500613" lon="14.5806294"><ele>212.99999999999997</ele><time>2026-04-04T09:06:25.827Z</time></trkpt><trkpt lat="42.1500556" lon="14.5805034"><ele>213.0</ele><time>2026-04-04T09:06:28.827Z</time></trkpt><trkpt lat="42.150063" lon="14.5804167"><ele>213.16666666666666</ele><time>2026-04-04T09:06:30.827Z</time></trkpt><trkpt lat="42.1500825" lon="14.5803282"><ele>213.33333333333331</ele><time>2026-04-04T09:06:32.827Z</time></trkpt><trkpt lat="42.1501158" lon="14.5802403"><ele>213.5</ele><time>2026-04-04T09:06:35.827Z</time></trkpt><trkpt lat="42.1501375" lon="14.5801214"><ele>213.66666666666666</ele><time>2026-04-04T09:06:38.827Z</time></trkpt><trkpt lat="42.1501369" lon="14.5800141"><ele>213.83333333333331</ele><time>2026-04-04T09:06:41.827Z</time></trkpt><trkpt lat="42.1501383" lon="14.5798929"><ele>214.0</ele><time>2026-04-04T09:06:44.827Z</time></trkpt><trkpt lat="42.1501449" lon="14.5797752"><ele>213.99999999999997</ele><time>2026-04-04T09:06:47.827Z</time></trkpt><trkpt lat="42.1501667" lon="14.5796681"><ele>214.0</ele><time>2026-04-04T09:06:50.828Z</time></trkpt><trkpt lat="42.1501802" lon="14.5795388"><ele>214.0</ele><time>2026-04-04T09:06:53.827Z</time></trkpt><trkpt lat="42.15018" lon="14.579425"><ele>214.0</ele><time>2026-04-04T09:06:56.827Z</time></trkpt><trkpt lat="42.1501633" lon="14.5793067"><ele>213.99999999999997</ele><time>2026-04-04T09:06:59.827Z</time></trkpt><trkpt lat="42.1501617" lon="14.5792217"><ele>214.0</ele><time>2026-04-04T09:07:01.827Z</time></trkpt><trkpt lat="42.150175" lon="14.5791083"><ele>214.33333333333331</ele><time>2026-04-04T09:07:04.827Z</time></trkpt><trkpt lat="42.1501717" lon="14.5790133"><ele>214.66666666666666</ele><time>2026-04-04T09:07:07.827Z</time></trkpt><trkpt lat="42.1501683" lon="14.578925"><ele>215.0</ele><time>2026-04-04T09:07:10.827Z</time></trkpt><trkpt lat="42.150185" lon="14.57881"><ele>215.33333333333331</ele><time>2026-04-04T09:07:13.827Z</time></trkpt><trkpt lat="42.1501833" lon="14.5787017"><ele>215.66666666666666</ele><time>2026-04-04T09:07:16.827Z</time></trkpt><trkpt lat="42.1501783" lon="14.5785933"><ele>216.0</ele><time>2026-04-04T09:07:19.827Z</time></trkpt><trkpt lat="42.1501533" lon="14.5784683"><ele>216.5</ele><time>2026-04-04T09:07:22.827Z</time></trkpt><trkpt lat="42.1501" lon="14.5783767"><ele>217.0</ele><time>2026-04-04T09:07:25.827Z</time></trkpt><trkpt lat="42.15004" lon="14.5783133"><ele>217.5</ele><time>2026-04-04T09:07:28.827Z</time></trkpt><trkpt lat="42.14997" lon="14.578265"><ele>218.0</ele><time>2026-04-04T09:07:31.827Z</time></trkpt><trkpt lat="42.1498883" lon="14.578275"><ele>218.5</ele><time>2026-04-04T09:07:35.827Z</time></trkpt><trkpt lat="42.1498133" lon="14.57828"><ele>219.0</ele><time>2026-04-04T09:07:38.827Z</time></trkpt><trkpt lat="42.1497467" lon="14.5783033"><ele>219.5</ele><time>2026-04-04T09:07:41.827Z</time></trkpt><trkpt lat="42.1496683" lon="14.5783483"><ele>220.0</ele><time>2026-04-04T09:07:45.827Z</time></trkpt><trkpt lat="42.1495933" lon="14.5784133"><ele>220.5</ele><time>2026-04-04T09:07:48.827Z</time></trkpt><trkpt lat="42.1495133" lon="14.5784683"><ele>221.0</ele><time>2026-04-04T09:07:51.827Z</time></trkpt><trkpt lat="42.1494333" lon="14.5785133"><ele>221.5</ele><time>2026-04-04T09:07:54.827Z</time></trkpt><trkpt lat="42.149365" lon="14.578545"><ele>222.0</ele><time>2026-04-04T09:07:57.827Z</time></trkpt><trkpt lat="42.1492717" lon="14.5785783"><ele>222.0</ele><time>2026-04-04T09:08:00.828Z</time></trkpt><trkpt lat="42.1492017" lon="14.5786017"><ele>222.0</ele><time>2026-04-04T09:08:02.827Z</time></trkpt><trkpt lat="42.14914" lon="14.5786217"><ele>222.0</ele><time>2026-04-04T09:08:04.827Z</time></trkpt><trkpt lat="42.149055" lon="14.5786383"><ele>222.0</ele><time>2026-04-04T09:08:07.827Z</time></trkpt><trkpt lat="42.1489917" lon="14.57863"><ele>222.0</ele><time>2026-04-04T09:08:09.827Z</time></trkpt><trkpt lat="42.1489033" lon="14.5785917"><ele>222.0</ele><time>2026-04-04T09:08:12.827Z</time></trkpt><trkpt lat="42.1488283" lon="14.5785333"><ele>219.5</ele><time>2026-04-04T09:08:15.827Z</time></trkpt><trkpt lat="42.1487883" lon="14.5784667"><ele>217.0</ele><time>2026-04-04T09:08:17.827Z</time></trkpt><trkpt lat="42.1487333" lon="14.5783667"><ele>214.5</ele><time>2026-04-04T09:08:20.827Z</time></trkpt><trkpt lat="42.14871" lon="14.578245"><ele>212.0</ele><time>2026-04-04T09:08:23.827Z</time></trkpt><trkpt lat="42.14872" lon="14.578125"><ele>209.5</ele><time>2026-04-04T09:08:26.827Z</time></trkpt><trkpt lat="42.14875" lon="14.578005"><ele>207.0</ele><time>2026-04-04T09:08:29.827Z</time></trkpt><trkpt lat="42.1487867" lon="14.5778917"><ele>205.5</ele><time>2026-04-04T09:08:32.827Z</time></trkpt><trkpt lat="42.1488183" lon="14.5777783"><ele>204.0</ele><time>2026-04-04T09:08:35.828Z</time></trkpt><trkpt lat="42.1488367" lon="14.577655"><ele>202.5</ele><time>2026-04-04T09:08:38.827Z</time></trkpt><trkpt lat="42.14883" lon="14.5775683"><ele>201.0</ele><time>2026-04-04T09:08:40.827Z</time></trkpt><trkpt lat="42.1488167" lon="14.57747"><ele>199.5</ele><time>2026-04-04T09:08:42.827Z</time></trkpt><trkpt lat="42.1488083" lon="14.5773767"><ele>198.0</ele><time>2026-04-04T09:08:44.827Z</time></trkpt><trkpt lat="42.148795" lon="14.5772867"><ele>198.0</ele><time>2026-04-04T09:08:46.827Z</time></trkpt><trkpt lat="42.1488033" lon="14.5771967"><ele>198.0</ele><time>2026-04-04T09:08:48.828Z</time></trkpt><trkpt lat="42.148825" lon="14.5770883"><ele>198.0</ele><time>2026-04-04T09:08:50.827Z</time></trkpt><trkpt lat="42.14885" lon="14.577"><ele>198.0</ele><time>2026-04-04T09:08:52.828Z</time></trkpt><trkpt lat="42.148865" lon="14.57691"><ele>198.0</ele><time>2026-04-04T09:08:54.827Z</time></trkpt><trkpt lat="42.1488983" lon="14.5768217"><ele>198.0</ele><time>2026-04-04T09:08:56.827Z</time></trkpt><trkpt lat="42.1489267" lon="14.576725"><ele>198.0</ele><time>2026-04-04T09:08:58.828Z</time></trkpt><trkpt lat="42.1489667" lon="14.5766267"><ele>196.83333333333334</ele><time>2026-04-04T09:09:00.827Z</time></trkpt><trkpt lat="42.1490083" lon="14.5765367"><ele>195.66666666666666</ele><time>2026-04-04T09:09:02.827Z</time></trkpt><trkpt lat="42.1490517" lon="14.5764633"><ele>194.5</ele><time>2026-04-04T09:09:04.828Z</time></trkpt><trkpt lat="42.1490833" lon="14.576365"><ele>193.33333333333331</ele><time>2026-04-04T09:09:06.827Z</time></trkpt><trkpt lat="42.1491167" lon="14.5762533"><ele>192.16666666666666</ele><time>2026-04-04T09:09:08.827Z</time></trkpt><trkpt lat="42.1491433" lon="14.5761467"><ele>191.0</ele><time>2026-04-04T09:09:10.827Z</time></trkpt><trkpt lat="42.1491617" lon="14.57604"><ele>195.83333333333331</ele><time>2026-04-04T09:09:12.828Z</time></trkpt><trkpt lat="42.149175" lon="14.5759433"><ele>200.66666666666666</ele><time>2026-04-04T09:09:14.827Z</time></trkpt><trkpt lat="42.1492" lon="14.5758183"><ele>205.5</ele><time>2026-04-04T09:09:16.827Z</time></trkpt><trkpt lat="42.1492067" lon="14.5756967"><ele>210.33333333333331</ele><time>2026-04-04T09:09:18.827Z</time></trkpt><trkpt lat="42.149205" lon="14.5755933"><ele>215.16666666666666</ele><time>2026-04-04T09:09:20.828Z</time></trkpt><trkpt lat="42.1492167" lon="14.5754617"><ele>220.0</ele><time>2026-04-04T09:09:22.827Z</time></trkpt><trkpt lat="42.149205" lon="14.5753517"><ele>220.33333333333331</ele><time>2026-04-04T09:09:24.827Z</time></trkpt><trkpt lat="42.1491967" lon="14.575235"><ele>220.66666666666666</ele><time>2026-04-04T09:09:26.828Z</time></trkpt><trkpt lat="42.1491817" lon="14.5751233"><ele>221.0</ele><time>2026-04-04T09:09:28.827Z</time></trkpt><trkpt lat="42.1491733" lon="14.5750117"><ele>221.33333333333331</ele><time>2026-04-04T09:09:30.827Z</time></trkpt><trkpt lat="42.1491817" lon="14.5749"><ele>221.66666666666666</ele><time>2026-04-04T09:09:32.827Z</time></trkpt><trkpt lat="42.149195" lon="14.5747883"><ele>222.0</ele><time>2026-04-04T09:09:34.827Z</time></trkpt><trkpt lat="42.14922" lon="14.5746833"><ele>222.0</ele><time>2026-04-04T09:09:36.827Z</time></trkpt><trkpt lat="42.1492583" lon="14.5745817"><ele>222.0</ele><time>2026-04-04T09:09:38.827Z</time></trkpt><trkpt lat="42.1492883" lon="14.5744917"><ele>222.0</ele><time>2026-04-04T09:09:40.827Z</time></trkpt><trkpt lat="42.1493083" lon="14.57439"><ele>222.0</ele><time>2026-04-04T09:09:42.828Z</time></trkpt><trkpt lat="42.149325" lon="14.574295"><ele>222.0</ele><time>2026-04-04T09:09:44.827Z</time></trkpt><trkpt lat="42.1493283" lon="14.5741983"><ele>222.0</ele><time>2026-04-04T09:09:46.827Z</time></trkpt><trkpt lat="42.1493183" lon="14.5740933"><ele>221.33333333333334</ele><time>2026-04-04T09:09:48.827Z</time></trkpt><trkpt lat="42.1493017" lon="14.5739867"><ele>220.66666666666669</ele><time>2026-04-04T09:09:50.827Z</time></trkpt><trkpt lat="42.1492867" lon="14.5738817"><ele>220.0</ele><time>2026-04-04T09:09:52.827Z</time></trkpt><trkpt lat="42.14927" lon="14.57378"><ele>219.33333333333334</ele><time>2026-04-04T09:09:54.827Z</time></trkpt><trkpt lat="42.14927" lon="14.5736483"><ele>218.66666666666669</ele><time>2026-04-04T09:09:56.827Z</time></trkpt><trkpt lat="42.1492883" lon="14.573535"><ele>218.0</ele><time>2026-04-04T09:09:58.828Z</time></trkpt><trkpt lat="42.14932" lon="14.573415"><ele>217.66666666666669</ele><time>2026-04-04T09:10:00.827Z</time></trkpt><trkpt lat="42.14935" lon="14.573315"><ele>217.33333333333334</ele><time>2026-04-04T09:10:02.827Z</time></trkpt><trkpt lat="42.1493767" lon="14.57321"><ele>217.0</ele><time>2026-04-04T09:10:04.827Z</time></trkpt><trkpt lat="42.1493833" lon="14.5731"><ele>216.66666666666669</ele><time>2026-04-04T09:10:06.827Z</time></trkpt><trkpt lat="42.1493767" lon="14.5729917"><ele>216.33333333333334</ele><time>2026-04-04T09:10:08.827Z</time></trkpt><trkpt lat="42.1493667" lon="14.5728933"><ele>216.0</ele><time>2026-04-04T09:10:10.827Z</time></trkpt><trkpt lat="42.1493567" lon="14.572795"><ele>215.16666666666666</ele><time>2026-04-04T09:10:12.827Z</time></trkpt><trkpt lat="42.1493583" lon="14.57267"><ele>214.33333333333331</ele><time>2026-04-04T09:10:14.828Z</time></trkpt><trkpt lat="42.1493767" lon="14.572545"><ele>213.5</ele><time>2026-04-04T09:10:16.827Z</time></trkpt><trkpt lat="42.149405" lon="14.57245"><ele>212.66666666666666</ele><time>2026-04-04T09:10:18.827Z</time></trkpt><trkpt lat="42.1494467" lon="14.57237"><ele>211.83333333333331</ele><time>2026-04-04T09:10:20.827Z</time></trkpt><trkpt lat="42.149495" lon="14.57227"><ele>211.0</ele><time>2026-04-04T09:10:22.827Z</time></trkpt><trkpt lat="42.149545" lon="14.572185"><ele>210.99999999999997</ele><time>2026-04-04T09:10:24.827Z</time></trkpt><trkpt lat="42.1496" lon="14.5720867"><ele>211.0</ele><time>2026-04-04T09:10:26.827Z</time></trkpt><trkpt lat="42.1496417" lon="14.5719967"><ele>211.0</ele><time>2026-04-04T09:10:28.827Z</time></trkpt><trkpt lat="42.14967" lon="14.571905"><ele>211.0</ele><time>2026-04-04T09:10:30.827Z</time></trkpt><trkpt lat="42.1496917" lon="14.5718217"><ele>210.99999999999997</ele><time>2026-04-04T09:10:32.828Z</time></trkpt><trkpt lat="42.1497183" lon="14.571735"><ele>211.0</ele><time>2026-04-04T09:10:34.827Z</time></trkpt><trkpt lat="42.1497483" lon="14.5716233"><ele>209.99999999999997</ele><time>2026-04-04T09:10:36.827Z</time></trkpt><trkpt lat="42.149775" lon="14.5715033"><ele>209.0</ele><time>2026-04-04T09:10:38.827Z</time></trkpt><trkpt lat="42.1497917" lon="14.5713933"><ele>208.0</ele><time>2026-04-04T09:10:40.827Z</time></trkpt><trkpt lat="42.149805" lon="14.5712883"><ele>207.0</ele><time>2026-04-04T09:10:42.827Z</time></trkpt><trkpt lat="42.1498183" lon="14.571175"><ele>205.99999999999997</ele><time>2026-04-04T09:10:44.827Z</time></trkpt><trkpt lat="42.1498267" lon="14.5710617"><ele>205.0</ele><time>2026-04-04T09:10:46.827Z</time></trkpt><trkpt lat="42.1498367" lon="14.5709467"><ele>204.66666666666666</ele><time>2026-04-04T09:10:48.828Z</time></trkpt><trkpt lat="42.1498433" lon="14.5708333"><ele>204.33333333333331</ele><time>2026-04-04T09:10:50.827Z</time></trkpt><trkpt lat="42.14984" lon="14.5707217"><ele>204.0</ele><time>2026-04-04T09:10:52.827Z</time></trkpt><trkpt lat="42.14983" lon="14.5706017"><ele>203.66666666666669</ele><time>2026-04-04T09:10:54.827Z</time></trkpt><trkpt lat="42.1498133" lon="14.570495"><ele>203.33333333333334</ele><time>2026-04-04T09:10:56.827Z</time></trkpt><trkpt lat="42.1497883" lon="14.570395"><ele>203.0</ele><time>2026-04-04T09:10:58.827Z</time></trkpt><trkpt lat="42.1497517" lon="14.5702883"><ele>204.00000000000003</ele><time>2026-04-04T09:11:00.827Z</time></trkpt><trkpt lat="42.1497067" lon="14.570185"><ele>205.0</ele><time>2026-04-04T09:11:02.827Z</time></trkpt><trkpt lat="42.14967" lon="14.5700883"><ele>206.0</ele><time>2026-04-04T09:11:04.827Z</time></trkpt><trkpt lat="42.1496383" lon="14.5699917"><ele>207.0</ele><time>2026-04-04T09:11:06.827Z</time></trkpt><trkpt lat="42.1495917" lon="14.5699067"><ele>208.00000000000003</ele><time>2026-04-04T09:11:08.827Z</time></trkpt><trkpt lat="42.1495483" lon="14.569805"><ele>209.0</ele><time>2026-04-04T09:11:10.827Z</time></trkpt><trkpt lat="42.1495233" lon="14.5696933"><ele>209.00000000000003</ele><time>2026-04-04T09:11:12.827Z</time></trkpt><trkpt lat="42.1495067" lon="14.569575"><ele>209.0</ele><time>2026-04-04T09:11:14.827Z</time></trkpt><trkpt lat="42.149505" lon="14.5694583"><ele>209.0</ele><time>2026-04-04T09:11:16.827Z</time></trkpt><trkpt lat="42.1495233" lon="14.5693483"><ele>209.0</ele><time>2026-04-04T09:11:18.827Z</time></trkpt><trkpt lat="42.1495617" lon="14.56925"><ele>209.00000000000003</ele><time>2026-04-04T09:11:20.827Z</time></trkpt><trkpt lat="42.149605" lon="14.5691717"><ele>209.0</ele><time>2026-04-04T09:11:22.827Z</time></trkpt><trkpt lat="42.1496483" lon="14.5691067"><ele>209.33333333333334</ele><time>2026-04-04T09:11:24.827Z</time></trkpt><trkpt lat="42.1497017" lon="14.5690467"><ele>209.66666666666669</ele><time>2026-04-04T09:11:26.827Z</time></trkpt><trkpt lat="42.149765" lon="14.5689767"><ele>210.0</ele><time>2026-04-04T09:11:28.827Z</time></trkpt><trkpt lat="42.149825" lon="14.5689083"><ele>210.33333333333331</ele><time>2026-04-04T09:11:30.827Z</time></trkpt><trkpt lat="42.1498983" lon="14.5688417"><ele>210.66666666666666</ele><time>2026-04-04T09:11:32.827Z</time></trkpt><trkpt lat="42.1499667" lon="14.5687783"><ele>211.0</ele><time>2026-04-04T09:11:34.827Z</time></trkpt><trkpt lat="42.150035" lon="14.5686983"><ele>211.49999999999997</ele><time>2026-04-04T09:11:36.827Z</time></trkpt><trkpt lat="42.1501133" lon="14.5686317"><ele>212.0</ele><time>2026-04-04T09:11:38.828Z</time></trkpt><trkpt lat="42.1501933" lon="14.5685767"><ele>212.5</ele><time>2026-04-04T09:11:40.828Z</time></trkpt><trkpt lat="42.1502617" lon="14.5685283"><ele>213.0</ele><time>2026-04-04T09:11:42.827Z</time></trkpt><trkpt lat="42.150335" lon="14.5684633"><ele>213.49999999999997</ele><time>2026-04-04T09:11:44.827Z</time></trkpt><trkpt lat="42.1504067" lon="14.5683933"><ele>214.0</ele><time>2026-04-04T09:11:46.827Z</time></trkpt><trkpt lat="42.15048" lon="14.5683283"><ele>213.99999999999997</ele><time>2026-04-04T09:11:48.827Z</time></trkpt><trkpt lat="42.1505533" lon="14.5682633"><ele>214.0</ele><time>2026-04-04T09:11:50.827Z</time></trkpt><trkpt lat="42.1506233" lon="14.5682083"><ele>214.0</ele><time>2026-04-04T09:11:52.827Z</time></trkpt><trkpt lat="42.150695" lon="14.56815"><ele>214.0</ele><time>2026-04-04T09:11:54.827Z</time></trkpt><trkpt lat="42.1507683" lon="14.5680983"><ele>213.99999999999997</ele><time>2026-04-04T09:11:56.827Z</time></trkpt><trkpt lat="42.150835" lon="14.5680633"><ele>214.0</ele><time>2026-04-04T09:11:58.827Z</time></trkpt><trkpt lat="42.1509133" lon="14.5680617"><ele>216.99999999999997</ele><time>2026-04-04T09:12:00.828Z</time></trkpt><trkpt lat="42.1509817" lon="14.568075"><ele>220.0</ele><time>2026-04-04T09:12:02.828Z</time></trkpt><trkpt lat="42.1510533" lon="14.56809"><ele>223.0</ele><time>2026-04-04T09:12:04.827Z</time></trkpt><trkpt lat="42.1511267" lon="14.5681033"><ele>226.0</ele><time>2026-04-04T09:12:06.827Z</time></trkpt><trkpt lat="42.1512083" lon="14.568125"><ele>228.99999999999997</ele><time>2026-04-04T09:12:08.827Z</time></trkpt><trkpt lat="42.151305" lon="14.5681517"><ele>232.0</ele><time>2026-04-04T09:12:10.827Z</time></trkpt><trkpt lat="42.1513817" lon="14.5681783"><ele>232.0</ele><time>2026-04-04T09:12:12.827Z</time></trkpt><trkpt lat="42.1514567" lon="14.5682"><ele>232.0</ele><time>2026-04-04T09:12:14.827Z</time></trkpt><trkpt lat="42.1515467" lon="14.56821"><ele>232.0</ele><time>2026-04-04T09:12:16.828Z</time></trkpt><trkpt lat="42.151645" lon="14.5682167"><ele>232.0</ele><time>2026-04-04T09:12:18.827Z</time></trkpt><trkpt lat="42.1517433" lon="14.56821"><ele>232.0</ele><time>2026-04-04T09:12:20.827Z</time></trkpt><trkpt lat="42.1518467" lon="14.56821"><ele>231.2</ele><time>2026-04-04T09:12:22.827Z</time></trkpt><trkpt lat="42.151955" lon="14.5682017"><ele>230.39999999999998</ele><time>2026-04-04T09:12:24.827Z</time></trkpt><trkpt lat="42.152065" lon="14.5681983"><ele>229.60000000000002</ele><time>2026-04-04T09:12:26.827Z</time></trkpt><trkpt lat="42.1521733" lon="14.5682033"><ele>228.8</ele><time>2026-04-04T09:12:28.827Z</time></trkpt><trkpt lat="42.1522917" lon="14.5682"><ele>228.0</ele><time>2026-04-04T09:12:30.828Z</time></trkpt><trkpt lat="42.1524133" lon="14.5681967"><ele>227.16666666666666</ele><time>2026-04-04T09:12:32.828Z</time></trkpt><trkpt lat="42.1525383" lon="14.5681817"><ele>226.33333333333331</ele><time>2026-04-04T09:12:34.827Z</time></trkpt><trkpt lat="42.1526017" lon="14.568175"><ele>225.5</ele><time>2026-04-04T09:12:35.827Z</time></trkpt><trkpt lat="42.152665" lon="14.5681717"><ele>224.66666666666666</ele><time>2026-04-04T09:12:36.827Z</time></trkpt><trkpt lat="42.1527317" lon="14.56817"><ele>223.83333333333331</ele><time>2026-04-04T09:12:37.827Z</time></trkpt><trkpt lat="42.1528017" lon="14.5681667"><ele>223.0</ele><time>2026-04-04T09:12:38.828Z</time></trkpt><trkpt lat="42.1528683" lon="14.5681733"><ele>223.0</ele><time>2026-04-04T09:12:39.827Z</time></trkpt><trkpt lat="42.1529367" lon="14.5681883"><ele>223.0</ele><time>2026-04-04T09:12:40.828Z</time></trkpt><trkpt lat="42.1530083" lon="14.5682067"><ele>223.0</ele><time>2026-04-04T09:12:41.827Z</time></trkpt><trkpt lat="42.1530783" lon="14.5682333"><ele>223.0</ele><time>2026-04-04T09:12:42.827Z</time></trkpt><trkpt lat="42.15314" lon="14.5682617"><ele>223.0</ele><time>2026-04-04T09:12:43.827Z</time></trkpt><trkpt lat="42.153195" lon="14.5683033"><ele>223.0</ele><time>2026-04-04T09:12:44.827Z</time></trkpt><trkpt lat="42.15325" lon="14.5683533"><ele>223.0</ele><time>2026-04-04T09:12:45.827Z</time></trkpt><trkpt lat="42.1533" lon="14.5684067"><ele>223.14285714285714</ele><time>2026-04-04T09:12:46.827Z</time></trkpt><trkpt lat="42.1533533" lon="14.56846"><ele>223.28571428571428</ele><time>2026-04-04T09:12:47.827Z</time></trkpt><trkpt lat="42.1534083" lon="14.568515"><ele>223.42857142857144</ele><time>2026-04-04T09:12:48.827Z</time></trkpt><trkpt lat="42.1534617" lon="14.5685733"><ele>223.57142857142856</ele><time>2026-04-04T09:12:49.828Z</time></trkpt><trkpt lat="42.1535183" lon="14.5686283"><ele>223.71428571428572</ele><time>2026-04-04T09:12:50.827Z</time></trkpt><trkpt lat="42.15357" lon="14.5686883"><ele>223.85714285714286</ele><time>2026-04-04T09:12:51.827Z</time></trkpt><trkpt lat="42.1536267" lon="14.5687433"><ele>224.0</ele><time>2026-04-04T09:12:52.827Z</time></trkpt><trkpt lat="42.1536833" lon="14.5688"><ele>223.28571428571428</ele><time>2026-04-04T09:12:53.828Z</time></trkpt><trkpt lat="42.1537467" lon="14.5688517"><ele>222.57142857142856</ele><time>2026-04-04T09:12:54.827Z</time></trkpt><trkpt lat="42.1538067" lon="14.56891"><ele>221.85714285714286</ele><time>2026-04-04T09:12:55.828Z</time></trkpt><trkpt lat="42.1538683" lon="14.568965"><ele>221.14285714285714</ele><time>2026-04-04T09:12:56.827Z</time></trkpt><trkpt lat="42.153925" lon="14.56902"><ele>220.42857142857142</ele><time>2026-04-04T09:12:57.827Z</time></trkpt><trkpt lat="42.1539783" lon="14.569075"><ele>219.71428571428572</ele><time>2026-04-04T09:12:58.827Z</time></trkpt><trkpt lat="42.1540367" lon="14.56914"><ele>219.0</ele><time>2026-04-04T09:12:59.827Z</time></trkpt><trkpt lat="42.1540917" lon="14.5691933"><ele>219.0</ele><time>2026-04-04T09:13:00.828Z</time></trkpt><trkpt lat="42.1541433" lon="14.569245"><ele>219.0</ele><time>2026-04-04T09:13:01.827Z</time></trkpt><trkpt lat="42.1542" lon="14.5693033"><ele>219.0</ele><time>2026-04-04T09:13:02.827Z</time></trkpt><trkpt lat="42.154255" lon="14.56936"><ele>219.0</ele><time>2026-04-04T09:13:03.828Z</time></trkpt><trkpt lat="42.1543083" lon="14.569415"><ele>219.0</ele><time>2026-04-04T09:13:04.828Z</time></trkpt><trkpt lat="42.154365" lon="14.5694633"><ele>219.0</ele><time>2026-04-04T09:13:05.827Z</time></trkpt><trkpt lat="42.15442" lon="14.5695117"><ele>219.0</ele><time>2026-04-04T09:13:06.827Z</time></trkpt><trkpt lat="42.1544817" lon="14.569565"><ele>217.33333333333334</ele><time>2026-04-04T09:13:07.827Z</time></trkpt><trkpt lat="42.1545417" lon="14.56962"><ele>215.66666666666669</ele><time>2026-04-04T09:13:08.827Z</time></trkpt><trkpt lat="42.1546067" lon="14.5696717"><ele>214.0</ele><time>2026-04-04T09:13:09.827Z</time></trkpt><trkpt lat="42.15468" lon="14.5697267"><ele>212.33333333333334</ele><time>2026-04-04T09:13:10.827Z</time></trkpt><trkpt lat="42.154745" lon="14.5697783"><ele>210.66666666666669</ele><time>2026-04-04T09:13:11.827Z</time></trkpt><trkpt lat="42.1548067" lon="14.5698317"><ele>209.0</ele><time>2026-04-04T09:13:12.827Z</time></trkpt><trkpt lat="42.1548667" lon="14.5698833"><ele>209.66666666666669</ele><time>2026-04-04T09:13:13.827Z</time></trkpt><trkpt lat="42.1549183" lon="14.5699367"><ele>210.33333333333334</ele><time>2026-04-04T09:13:14.827Z</time></trkpt><trkpt lat="42.154975" lon="14.57"><ele>211.0</ele><time>2026-04-04T09:13:15.827Z</time></trkpt><trkpt lat="42.1550283" lon="14.57008"><ele>211.66666666666669</ele><time>2026-04-04T09:13:16.827Z</time></trkpt><trkpt lat="42.155085" lon="14.5701517"><ele>212.33333333333334</ele><time>2026-04-04T09:13:17.827Z</time></trkpt><trkpt lat="42.1551433" lon="14.5702267"><ele>213.0</ele><time>2026-04-04T09:13:18.828Z</time></trkpt><trkpt lat="42.1552017" lon="14.5702983"><ele>211.33333333333334</ele><time>2026-04-04T09:13:19.827Z</time></trkpt><trkpt lat="42.1552567" lon="14.5703683"><ele>209.66666666666669</ele><time>2026-04-04T09:13:20.827Z</time></trkpt><trkpt lat="42.1553183" lon="14.5704333"><ele>208.0</ele><time>2026-04-04T09:13:21.827Z</time></trkpt><trkpt lat="42.1553817" lon="14.5705033"><ele>206.33333333333334</ele><time>2026-04-04T09:13:22.828Z</time></trkpt><trkpt lat="42.1554433" lon="14.570565"><ele>204.66666666666669</ele><time>2026-04-04T09:13:23.827Z</time></trkpt><trkpt lat="42.1555033" lon="14.5706267"><ele>203.0</ele><time>2026-04-04T09:13:24.827Z</time></trkpt><trkpt lat="42.1555683" lon="14.570695"><ele>203.00000000000003</ele><time>2026-04-04T09:13:25.827Z</time></trkpt><trkpt lat="42.1556367" lon="14.57076"><ele>203.0</ele><time>2026-04-04T09:13:26.828Z</time></trkpt><trkpt lat="42.1557017" lon="14.57082"><ele>203.0</ele><time>2026-04-04T09:13:27.827Z</time></trkpt><trkpt lat="42.1557783" lon="14.570885"><ele>203.0</ele><time>2026-04-04T09:13:28.828Z</time></trkpt><trkpt lat="42.155845" lon="14.5709417"><ele>203.00000000000003</ele><time>2026-04-04T09:13:29.827Z</time></trkpt><trkpt lat="42.1559183" lon="14.5709933"><ele>203.0</ele><time>2026-04-04T09:13:30.827Z</time></trkpt><trkpt lat="42.1559883" lon="14.5710367"><ele>202.16666666666669</ele><time>2026-04-04T09:13:31.827Z</time></trkpt><trkpt lat="42.1560767" lon="14.5710583"><ele>201.33333333333334</ele><time>2026-04-04T09:13:32.827Z</time></trkpt><trkpt lat="42.156155" lon="14.5710867"><ele>200.5</ele><time>2026-04-04T09:13:33.827Z</time></trkpt><trkpt lat="42.1562283" lon="14.57112"><ele>199.66666666666669</ele><time>2026-04-04T09:13:34.827Z</time></trkpt><trkpt lat="42.1563033" lon="14.5711617"><ele>198.83333333333334</ele><time>2026-04-04T09:13:35.827Z</time></trkpt><trkpt lat="42.156375" lon="14.5712117"><ele>198.0</ele><time>2026-04-04T09:13:36.828Z</time></trkpt><trkpt lat="42.15644" lon="14.5712683"><ele>198.0</ele><time>2026-04-04T09:13:37.827Z</time></trkpt><trkpt lat="42.1564983" lon="14.5713267"><ele>198.0</ele><time>2026-04-04T09:13:38.827Z</time></trkpt><trkpt lat="42.1565533" lon="14.5713967"><ele>198.0</ele><time>2026-04-04T09:13:39.827Z</time></trkpt><trkpt lat="42.1566" lon="14.57147"><ele>198.0</ele><time>2026-04-04T09:13:40.827Z</time></trkpt><trkpt lat="42.15664" lon="14.5715467"><ele>198.0</ele><time>2026-04-04T09:13:41.827Z</time></trkpt><trkpt lat="42.1566933" lon="14.571625"><ele>198.0</ele><time>2026-04-04T09:13:42.827Z</time></trkpt><trkpt lat="42.15675" lon="14.5716983"><ele>198.0</ele><time>2026-04-04T09:13:43.827Z</time></trkpt><trkpt lat="42.1568033" lon="14.571775"><ele>198.0</ele><time>2026-04-04T09:13:44.827Z</time></trkpt><trkpt lat="42.1568583" lon="14.57185"><ele>198.0</ele><time>2026-04-04T09:13:45.827Z</time></trkpt><trkpt lat="42.1569133" lon="14.5719233"><ele>198.0</ele><time>2026-04-04T09:13:46.827Z</time></trkpt><trkpt lat="42.1569667" lon="14.5719933"><ele>198.0</ele><time>2026-04-04T09:13:47.827Z</time></trkpt><trkpt lat="42.15702" lon="14.572065"><ele>198.0</ele><time>2026-04-04T09:13:48.827Z</time></trkpt><trkpt lat="42.157085" lon="14.5721383"><ele>198.0</ele><time>2026-04-04T09:13:49.827Z</time></trkpt><trkpt lat="42.157155" lon="14.5722033"><ele>198.0</ele><time>2026-04-04T09:13:50.827Z</time></trkpt><trkpt lat="42.1572267" lon="14.572255"><ele>198.0</ele><time>2026-04-04T09:13:51.827Z</time></trkpt><trkpt lat="42.1573067" lon="14.5722967"><ele>198.0</ele><time>2026-04-04T09:13:52.827Z</time></trkpt><trkpt lat="42.157375" lon="14.5723267"><ele>198.0</ele><time>2026-04-04T09:13:53.827Z</time></trkpt><trkpt lat="42.1574467" lon="14.5723467"><ele>198.0</ele><time>2026-04-04T09:13:54.827Z</time></trkpt><trkpt lat="42.15752" lon="14.5723683"><ele>198.0</ele><time>2026-04-04T09:13:55.827Z</time></trkpt><trkpt lat="42.1576" lon="14.5723783"><ele>198.5</ele><time>2026-04-04T09:13:56.828Z</time></trkpt><trkpt lat="42.1576817" lon="14.5723683"><ele>199.0</ele><time>2026-04-04T09:13:57.827Z</time></trkpt><trkpt lat="42.1577533" lon="14.5723433"><ele>199.5</ele><time>2026-04-04T09:13:58.827Z</time></trkpt><trkpt lat="42.157825" lon="14.5723133"><ele>200.0</ele><time>2026-04-04T09:13:59.827Z</time></trkpt><trkpt lat="42.157895" lon="14.5722783"><ele>200.5</ele><time>2026-04-04T09:14:00.827Z</time></trkpt><trkpt lat="42.1579667" lon="14.5722367"><ele>201.0</ele><time>2026-04-04T09:14:01.827Z</time></trkpt><trkpt lat="42.15804" lon="14.5721867"><ele>201.0</ele><time>2026-04-04T09:14:02.827Z</time></trkpt><trkpt lat="42.1581033" lon="14.5721433"><ele>201.0</ele><time>2026-04-04T09:14:03.828Z</time></trkpt><trkpt lat="42.1581683" lon="14.5720983"><ele>201.0</ele><time>2026-04-04T09:14:04.827Z</time></trkpt><trkpt lat="42.1582333" lon="14.57205"><ele>201.0</ele><time>2026-04-04T09:14:05.827Z</time></trkpt><trkpt lat="42.1582967" lon="14.572"><ele>201.0</ele><time>2026-04-04T09:14:06.827Z</time></trkpt><trkpt lat="42.15836" lon="14.5719467"><ele>201.0</ele><time>2026-04-04T09:14:07.827Z</time></trkpt><trkpt lat="42.1584233" lon="14.5719033"><ele>201.0</ele><time>2026-04-04T09:14:08.827Z</time></trkpt><trkpt lat="42.158485" lon="14.5718467"><ele>201.0</ele><time>2026-04-04T09:14:09.827Z</time></trkpt><trkpt lat="42.15854" lon="14.5717883"><ele>201.0</ele><time>2026-04-04T09:14:10.827Z</time></trkpt><trkpt lat="42.1585883" lon="14.5717183"><ele>201.0</ele><time>2026-04-04T09:14:11.827Z</time></trkpt><trkpt lat="42.1586267" lon="14.5716483"><ele>201.0</ele><time>2026-04-04T09:14:12.827Z</time></trkpt><trkpt lat="42.1586783" lon="14.5714917"><ele>201.0</ele><time>2026-04-04T09:14:14.827Z</time></trkpt><trkpt lat="42.1586967" lon="14.57141"><ele>201.0</ele><time>2026-04-04T09:14:15.827Z</time></trkpt><trkpt lat="42.1587117" lon="14.5713217"><ele>201.66666666666666</ele><time>2026-04-04T09:14:16.827Z</time></trkpt><trkpt lat="42.1587367" lon="14.571155"><ele>202.33333333333331</ele><time>2026-04-04T09:14:18.827Z</time></trkpt><trkpt lat="42.15875" lon="14.571065"><ele>203.0</ele><time>2026-04-04T09:14:19.827Z</time></trkpt><trkpt lat="42.1587617" lon="14.5709667"><ele>203.66666666666666</ele><time>2026-04-04T09:14:20.827Z</time></trkpt><trkpt lat="42.1587733" lon="14.570875"><ele>204.33333333333331</ele><time>2026-04-04T09:14:21.827Z</time></trkpt><trkpt lat="42.1587867" lon="14.5707717"><ele>205.0</ele><time>2026-04-04T09:14:22.827Z</time></trkpt><trkpt lat="42.158795" lon="14.57067"><ele>205.0</ele><time>2026-04-04T09:14:23.827Z</time></trkpt><trkpt lat="42.1588033" lon="14.5705683"><ele>205.0</ele><time>2026-04-04T09:14:24.827Z</time></trkpt><trkpt lat="42.1588117" lon="14.570465"><ele>205.0</ele><time>2026-04-04T09:14:25.828Z</time></trkpt><trkpt lat="42.1588167" lon="14.5703667"><ele>205.0</ele><time>2026-04-04T09:14:26.827Z</time></trkpt><trkpt lat="42.1588183" lon="14.57027"><ele>205.0</ele><time>2026-04-04T09:14:27.828Z</time></trkpt><trkpt lat="42.15883" lon="14.5701733"><ele>205.0</ele><time>2026-04-04T09:14:28.827Z</time></trkpt><trkpt lat="42.1588417" lon="14.5700783"><ele>205.0</ele><time>2026-04-04T09:14:29.827Z</time></trkpt><trkpt lat="42.1588583" lon="14.56998"><ele>204.83333333333331</ele><time>2026-04-04T09:14:30.827Z</time></trkpt><trkpt lat="42.1588833" lon="14.5698817"><ele>204.66666666666666</ele><time>2026-04-04T09:14:31.827Z</time></trkpt><trkpt lat="42.1589183" lon="14.56979"><ele>204.5</ele><time>2026-04-04T09:14:32.827Z</time></trkpt><trkpt lat="42.1589733" lon="14.5697033"><ele>204.33333333333331</ele><time>2026-04-04T09:14:33.827Z</time></trkpt><trkpt lat="42.15904" lon="14.5696383"><ele>204.16666666666666</ele><time>2026-04-04T09:14:34.827Z</time></trkpt><trkpt lat="42.159115" lon="14.569595"><ele>204.0</ele><time>2026-04-04T09:14:35.827Z</time></trkpt><trkpt lat="42.15919" lon="14.5695617"><ele>202.16666666666666</ele><time>2026-04-04T09:14:36.827Z</time></trkpt><trkpt lat="42.1592683" lon="14.5695533"><ele>200.33333333333331</ele><time>2026-04-04T09:14:37.827Z</time></trkpt><trkpt lat="42.1593333" lon="14.5695533"><ele>198.5</ele><time>2026-04-04T09:14:38.828Z</time></trkpt><trkpt lat="42.1594583" lon="14.5695617"><ele>196.66666666666666</ele><time>2026-04-04T09:14:40.827Z</time></trkpt><trkpt lat="42.1595217" lon="14.5695733"><ele>194.83333333333331</ele><time>2026-04-04T09:14:41.827Z</time></trkpt><trkpt lat="42.159625" lon="14.56963"><ele>193.0</ele><time>2026-04-04T09:14:43.827Z</time></trkpt><trkpt lat="42.1597217" lon="14.569695"><ele>193.0</ele><time>2026-04-04T09:14:45.827Z</time></trkpt><trkpt lat="42.1598067" lon="14.569785"><ele>193.0</ele><time>2026-04-04T09:14:47.827Z</time></trkpt><trkpt lat="42.1598933" lon="14.569885"><ele>193.0</ele><time>2026-04-04T09:14:49.827Z</time></trkpt><trkpt lat="42.1599567" lon="14.5699733"><ele>193.0</ele><time>2026-04-04T09:14:51.827Z</time></trkpt><trkpt lat="42.1600117" lon="14.5700367"><ele>193.0</ele><time>2026-04-04T09:14:53.828Z</time></trkpt><trkpt lat="42.1600667" lon="14.57009"><ele>193.33333333333331</ele><time>2026-04-04T09:14:55.827Z</time></trkpt><trkpt lat="42.1601333" lon="14.57018"><ele>193.66666666666666</ele><time>2026-04-04T09:14:58.827Z</time></trkpt><trkpt lat="42.1602033" lon="14.5702483"><ele>194.0</ele><time>2026-04-04T09:15:01.827Z</time></trkpt><trkpt lat="42.16026" lon="14.57033"><ele>194.33333333333331</ele><time>2026-04-04T09:15:04.827Z</time></trkpt><trkpt lat="42.1603083" lon="14.570395"><ele>194.66666666666666</ele><time>2026-04-04T09:15:07.827Z</time></trkpt><trkpt lat="42.1603567" lon="14.57045"><ele>195.0</ele><time>2026-04-04T09:15:09.827Z</time></trkpt><trkpt lat="42.1604017" lon="14.570515"><ele>195.0</ele><time>2026-04-04T09:15:11.827Z</time></trkpt><trkpt lat="42.1604517" lon="14.5705767"><ele>195.0</ele><time>2026-04-04T09:15:13.827Z</time></trkpt><trkpt lat="42.1605233" lon="14.5706567"><ele>195.0</ele><time>2026-04-04T09:15:16.828Z</time></trkpt><trkpt lat="42.1605867" lon="14.5707333"><ele>195.0</ele><time>2026-04-04T09:15:19.827Z</time></trkpt><trkpt lat="42.16064" lon="14.570805"><ele>195.0</ele><time>2026-04-04T09:15:22.827Z</time></trkpt><trkpt lat="42.160695" lon="14.57088"><ele>195.0</ele><time>2026-04-04T09:15:25.827Z</time></trkpt><trkpt lat="42.1607717" lon="14.57096"><ele>195.71428571428572</ele><time>2026-04-04T09:15:28.828Z</time></trkpt><trkpt lat="42.16085" lon="14.571005"><ele>196.42857142857142</ele><time>2026-04-04T09:15:31.827Z</time></trkpt><trkpt lat="42.1609067" lon="14.571055"><ele>197.14285714285717</ele><time>2026-04-04T09:15:34.827Z</time></trkpt><trkpt lat="42.160965" lon="14.5711017"><ele>197.85714285714286</ele><time>2026-04-04T09:15:37.827Z</time></trkpt><trkpt lat="42.161025" lon="14.5711517"><ele>198.57142857142858</ele><time>2026-04-04T09:15:40.827Z</time></trkpt><trkpt lat="42.161095" lon="14.5712"><ele>199.2857142857143</ele><time>2026-04-04T09:15:43.827Z</time></trkpt><trkpt lat="42.1611617" lon="14.5712367"><ele>200.0</ele><time>2026-04-04T09:15:46.827Z</time></trkpt><trkpt lat="42.1612383" lon="14.5712867"><ele>200.00000000000003</ele><time>2026-04-04T09:15:50.828Z</time></trkpt><trkpt lat="42.1613233" lon="14.5712967"><ele>200.0</ele><time>2026-04-04T09:15:53.827Z</time></trkpt><trkpt lat="42.1614217" lon="14.5713283"><ele>200.0</ele><time>2026-04-04T09:15:56.827Z</time></trkpt><trkpt lat="42.1614983" lon="14.5713567"><ele>200.0</ele><time>2026-04-04T09:15:58.827Z</time></trkpt><trkpt lat="42.1615667" lon="14.5713983"><ele>200.00000000000003</ele><time>2026-04-04T09:16:00.828Z</time></trkpt><trkpt lat="42.1616333" lon="14.5714533"><ele>200.0</ele><time>2026-04-04T09:16:02.827Z</time></trkpt><trkpt lat="42.1617033" lon="14.5715133"><ele>200.71428571428572</ele><time>2026-04-04T09:16:04.827Z</time></trkpt><trkpt lat="42.1617733" lon="14.571585"><ele>201.42857142857144</ele><time>2026-04-04T09:16:06.827Z</time></trkpt><trkpt lat="42.1618317" lon="14.5716233"><ele>202.14285714285717</ele><time>2026-04-04T09:16:08.828Z</time></trkpt><trkpt lat="42.1619" lon="14.571665"><ele>202.85714285714286</ele><time>2026-04-04T09:16:10.827Z</time></trkpt><trkpt lat="42.16196" lon="14.5716967"><ele>203.57142857142856</ele><time>2026-04-04T09:16:12.828Z</time></trkpt><trkpt lat="42.162025" lon="14.5717267"><ele>204.2857142857143</ele><time>2026-04-04T09:16:14.827Z</time></trkpt><trkpt lat="42.1620867" lon="14.57178"><ele>205.0</ele><time>2026-04-04T09:16:16.827Z</time></trkpt><trkpt lat="42.16216" lon="14.57185"><ele>205.0</ele><time>2026-04-04T09:16:18.828Z</time></trkpt><trkpt lat="42.1622267" lon="14.571905"><ele>205.0</ele><time>2026-04-04T09:16:20.827Z</time></trkpt><trkpt lat="42.1623117" lon="14.5719833"><ele>205.0</ele><time>2026-04-04T09:16:22.827Z</time></trkpt><trkpt lat="42.1624117" lon="14.572075"><ele>205.0</ele><time>2026-04-04T09:16:24.827Z</time></trkpt><trkpt lat="42.1624667" lon="14.5721183"><ele>205.0</ele><time>2026-04-04T09:16:25.827Z</time></trkpt><trkpt lat="42.1625733" lon="14.5722083"><ele>203.6</ele><time>2026-04-04T09:16:27.827Z</time></trkpt><trkpt lat="42.16268" lon="14.5722883"><ele>202.2</ele><time>2026-04-04T09:16:29.827Z</time></trkpt><trkpt lat="42.16278" lon="14.5723633"><ele>200.8</ele><time>2026-04-04T09:16:31.827Z</time></trkpt><trkpt lat="42.162865" lon="14.5724517"><ele>199.4</ele><time>2026-04-04T09:16:33.827Z</time></trkpt><trkpt lat="42.1629183" lon="14.57255"><ele>198.0</ele><time>2026-04-04T09:16:35.827Z</time></trkpt><trkpt lat="42.1629683" lon="14.5726083"><ele>198.0</ele><time>2026-04-04T09:16:37.827Z</time></trkpt><trkpt lat="42.1630467" lon="14.57269"><ele>198.0</ele><time>2026-04-04T09:16:40.827Z</time></trkpt><trkpt lat="42.1631117" lon="14.5727567"><ele>198.0</ele><time>2026-04-04T09:16:42.827Z</time></trkpt><trkpt lat="42.1631833" lon="14.5728467"><ele>198.0</ele><time>2026-04-04T09:16:44.827Z</time></trkpt><trkpt lat="42.1632667" lon="14.572935"><ele>198.0</ele><time>2026-04-04T09:16:46.827Z</time></trkpt><trkpt lat="42.163355" lon="14.57303"><ele>196.5</ele><time>2026-04-04T09:16:48.827Z</time></trkpt><trkpt lat="42.16344" lon="14.5731467"><ele>195.0</ele><time>2026-04-04T09:16:50.827Z</time></trkpt><trkpt lat="42.1635233" lon="14.57326"><ele>193.5</ele><time>2026-04-04T09:16:52.827Z</time></trkpt><trkpt lat="42.1636133" lon="14.5733617"><ele>192.0</ele><time>2026-04-04T09:16:54.827Z</time></trkpt><trkpt lat="42.1637017" lon="14.5734617"><ele>192.0</ele><time>2026-04-04T09:16:56.827Z</time></trkpt><trkpt lat="42.16379" lon="14.573565"><ele>192.0</ele><time>2026-04-04T09:16:58.827Z</time></trkpt><trkpt lat="42.1638833" lon="14.5736767"><ele>192.0</ele><time>2026-04-04T09:17:00.827Z</time></trkpt><trkpt lat="42.163935" lon="14.57373"><ele>192.0</ele><time>2026-04-04T09:17:01.827Z</time></trkpt><trkpt lat="42.1639933" lon="14.5737883"><ele>192.0</ele><time>2026-04-04T09:17:02.828Z</time></trkpt><trkpt lat="42.1640517" lon="14.57384"><ele>192.0</ele><time>2026-04-04T09:17:03.827Z</time></trkpt><trkpt lat="42.16411" lon="14.5738867"><ele>191.33333333333334</ele><time>2026-04-04T09:17:04.827Z</time></trkpt><trkpt lat="42.1641717" lon="14.5739133"><ele>190.66666666666666</ele><time>2026-04-04T09:17:05.827Z</time></trkpt><trkpt lat="42.1642917" lon="14.573965"><ele>190.0</ele><time>2026-04-04T09:17:07.827Z</time></trkpt><trkpt lat="42.1643567" lon="14.5739833"><ele>189.33333333333331</ele><time>2026-04-04T09:17:08.827Z</time></trkpt><trkpt lat="42.1644233" lon="14.5739983"><ele>188.66666666666666</ele><time>2026-04-04T09:17:09.828Z</time></trkpt><trkpt lat="42.16454" lon="14.5740383"><ele>188.0</ele><time>2026-04-04T09:17:11.827Z</time></trkpt><trkpt lat="42.164655" lon="14.574055"><ele>188.0</ele><time>2026-04-04T09:17:13.827Z</time></trkpt><trkpt lat="42.1647217" lon="14.57407"><ele>188.0</ele><time>2026-04-04T09:17:14.827Z</time></trkpt><trkpt lat="42.1648383" lon="14.5741"><ele>188.0</ele><time>2026-04-04T09:17:16.828Z</time></trkpt><trkpt lat="42.1649533" lon="14.5741267"><ele>188.0</ele><time>2026-04-04T09:17:18.828Z</time></trkpt><trkpt lat="42.165065" lon="14.5741483"><ele>188.0</ele><time>2026-04-04T09:17:20.827Z</time></trkpt><trkpt lat="42.1651817" lon="14.5741683"><ele>188.2</ele><time>2026-04-04T09:17:22.828Z</time></trkpt><trkpt lat="42.1652983" lon="14.5741783"><ele>188.4</ele><time>2026-04-04T09:17:24.827Z</time></trkpt><trkpt lat="42.1654117" lon="14.5741983"><ele>188.6</ele><time>2026-04-04T09:17:26.827Z</time></trkpt><trkpt lat="42.1655133" lon="14.5742167"><ele>188.79999999999998</ele><time>2026-04-04T09:17:28.827Z</time></trkpt><trkpt lat="42.1656133" lon="14.5742333"><ele>189.0</ele><time>2026-04-04T09:17:30.827Z</time></trkpt><trkpt lat="42.1657117" lon="14.57426"><ele>189.0</ele><time>2026-04-04T09:17:32.827Z</time></trkpt><trkpt lat="42.165815" lon="14.5742767"><ele>189.0</ele><time>2026-04-04T09:17:34.827Z</time></trkpt><trkpt lat="42.1659167" lon="14.5743083"><ele>189.0</ele><time>2026-04-04T09:17:36.827Z</time></trkpt><trkpt lat="42.1660183" lon="14.5743417"><ele>189.0</ele><time>2026-04-04T09:17:38.828Z</time></trkpt><trkpt lat="42.166125" lon="14.5743833"><ele>189.0</ele><time>2026-04-04T09:17:40.827Z</time></trkpt><trkpt lat="42.1662317" lon="14.5744433"><ele>189.0</ele><time>2026-04-04T09:17:42.827Z</time></trkpt><trkpt lat="42.16635" lon="14.5744983"><ele>189.0</ele><time>2026-04-04T09:17:44.827Z</time></trkpt><trkpt lat="42.16641" lon="14.5745267"><ele>189.0</ele><time>2026-04-04T09:17:45.827Z</time></trkpt><trkpt lat="42.16647" lon="14.574555"><ele>189.0</ele><time>2026-04-04T09:17:46.827Z</time></trkpt><trkpt lat="42.16653" lon="14.574585"><ele>189.0</ele><time>2026-04-04T09:17:47.827Z</time></trkpt><trkpt lat="42.16659" lon="14.5746183"><ele>189.0</ele><time>2026-04-04T09:17:48.827Z</time></trkpt><trkpt lat="42.1666483" lon="14.5746567"><ele>189.0</ele><time>2026-04-04T09:17:49.827Z</time></trkpt><trkpt lat="42.1667033" lon="14.574705"><ele>188.28571428571428</ele><time>2026-04-04T09:17:50.827Z</time></trkpt><trkpt lat="42.1667617" lon="14.57475"><ele>187.57142857142856</ele><time>2026-04-04T09:17:51.827Z</time></trkpt><trkpt lat="42.166825" lon="14.574795"><ele>186.85714285714286</ele><time>2026-04-04T09:17:52.827Z</time></trkpt><trkpt lat="42.1668833" lon="14.5748333"><ele>186.14285714285714</ele><time>2026-04-04T09:17:53.827Z</time></trkpt><trkpt lat="42.1669383" lon="14.5748833"><ele>185.42857142857142</ele><time>2026-04-04T09:17:54.827Z</time></trkpt><trkpt lat="42.1670017" lon="14.57494"><ele>184.71428571428572</ele><time>2026-04-04T09:17:55.828Z</time></trkpt><trkpt lat="42.1670633" lon="14.5749883"><ele>184.0</ele><time>2026-04-04T09:17:56.827Z</time></trkpt><trkpt lat="42.1671267" lon="14.57504"><ele>184.0</ele><time>2026-04-04T09:17:57.828Z</time></trkpt><trkpt lat="42.1671967" lon="14.575085"><ele>184.0</ele><time>2026-04-04T09:17:58.827Z</time></trkpt><trkpt lat="42.167265" lon="14.575135"><ele>184.0</ele><time>2026-04-04T09:17:59.827Z</time></trkpt><trkpt lat="42.167335" lon="14.5751917"><ele>184.0</ele><time>2026-04-04T09:18:00.827Z</time></trkpt><trkpt lat="42.1674067" lon="14.5752467"><ele>184.0</ele><time>2026-04-04T09:18:01.828Z</time></trkpt><trkpt lat="42.1674767" lon="14.5753017"><ele>184.0</ele><time>2026-04-04T09:18:02.827Z</time></trkpt><trkpt lat="42.167545" lon="14.5753517"><ele>182.66666666666669</ele><time>2026-04-04T09:18:03.827Z</time></trkpt><trkpt lat="42.16761" lon="14.575395"><ele>181.33333333333334</ele><time>2026-04-04T09:18:04.827Z</time></trkpt><trkpt lat="42.1676833" lon="14.57544"><ele>180.0</ele><time>2026-04-04T09:18:05.827Z</time></trkpt><trkpt lat="42.1677567" lon="14.5754933"><ele>178.66666666666666</ele><time>2026-04-04T09:18:06.828Z</time></trkpt><trkpt lat="42.1678283" lon="14.5755533"><ele>177.33333333333331</ele><time>2026-04-04T09:18:07.828Z</time></trkpt><trkpt lat="42.167905" lon="14.5756217"><ele>176.0</ele><time>2026-04-04T09:18:08.827Z</time></trkpt><trkpt lat="42.1679867" lon="14.5756817"><ele>176.0</ele><time>2026-04-04T09:18:09.827Z</time></trkpt><trkpt lat="42.16806" lon="14.5757483"><ele>176.0</ele><time>2026-04-04T09:18:10.827Z</time></trkpt><trkpt lat="42.16814" lon="14.575815"><ele>176.0</ele><time>2026-04-04T09:18:11.828Z</time></trkpt><trkpt lat="42.16822" lon="14.57589"><ele>176.0</ele><time>2026-04-04T09:18:12.827Z</time></trkpt><trkpt lat="42.1683033" lon="14.5759633"><ele>176.0</ele><time>2026-04-04T09:18:13.827Z</time></trkpt><trkpt lat="42.1683867" lon="14.5760417"><ele>174.60000000000002</ele><time>2026-04-04T09:18:14.827Z</time></trkpt><trkpt lat="42.16847" lon="14.5761217"><ele>173.2</ele><time>2026-04-04T09:18:15.827Z</time></trkpt><trkpt lat="42.16855" lon="14.5762017"><ele>171.8</ele><time>2026-04-04T09:18:16.828Z</time></trkpt><trkpt lat="42.1686267" lon="14.576295"><ele>170.39999999999998</ele><time>2026-04-04T09:18:17.828Z</time></trkpt><trkpt lat="42.1686983" lon="14.5764"><ele>169.0</ele><time>2026-04-04T09:18:18.827Z</time></trkpt><trkpt lat="42.1687517" lon="14.5765217"><ele>168.2</ele><time>2026-04-04T09:18:19.827Z</time></trkpt><trkpt lat="42.168805" lon="14.57665"><ele>167.39999999999998</ele><time>2026-04-04T09:18:20.827Z</time></trkpt><trkpt lat="42.168855" lon="14.57678"><ele>166.6</ele><time>2026-04-04T09:18:21.828Z</time></trkpt><trkpt lat="42.1688983" lon="14.576915"><ele>165.8</ele><time>2026-04-04T09:18:22.827Z</time></trkpt><trkpt lat="42.1689517" lon="14.577045"><ele>165.0</ele><time>2026-04-04T09:18:23.827Z</time></trkpt><trkpt lat="42.1690083" lon="14.5771717"><ele>163.25</ele><time>2026-04-04T09:18:24.827Z</time></trkpt><trkpt lat="42.1690583" lon="14.5773083"><ele>161.5</ele><time>2026-04-04T09:18:25.827Z</time></trkpt><trkpt lat="42.1691133" lon="14.57745"><ele>159.75</ele><time>2026-04-04T09:18:26.827Z</time></trkpt><trkpt lat="42.1691683" lon="14.577595"><ele>158.0</ele><time>2026-04-04T09:18:27.828Z</time></trkpt><trkpt lat="42.1692133" lon="14.577725"><ele>158.0</ele><time>2026-04-04T09:18:28.827Z</time></trkpt><trkpt lat="42.1692717" lon="14.577865"><ele>158.0</ele><time>2026-04-04T09:18:29.827Z</time></trkpt><trkpt lat="42.1693217" lon="14.5780067"><ele>158.0</ele><time>2026-04-04T09:18:30.827Z</time></trkpt><trkpt lat="42.1693667" lon="14.5781317"><ele>158.0</ele><time>2026-04-04T09:18:31.827Z</time></trkpt><trkpt lat="42.1694117" lon="14.5782467"><ele>158.0</ele><time>2026-04-04T09:18:32.827Z</time></trkpt><trkpt lat="42.1694583" lon="14.5783633"><ele>158.0</ele><time>2026-04-04T09:18:33.827Z</time></trkpt><trkpt lat="42.1695017" lon="14.578465"><ele>158.0</ele><time>2026-04-04T09:18:34.827Z</time></trkpt><trkpt lat="42.16953" lon="14.57856"><ele>158.0</ele><time>2026-04-04T09:18:35.827Z</time></trkpt><trkpt lat="42.1695517" lon="14.5786583"><ele>158.0</ele><time>2026-04-04T09:18:36.827Z</time></trkpt><trkpt lat="42.169565" lon="14.578765"><ele>158.0</ele><time>2026-04-04T09:18:37.827Z</time></trkpt><trkpt lat="42.169565" lon="14.578865"><ele>158.0</ele><time>2026-04-04T09:18:38.828Z</time></trkpt><trkpt lat="42.1695467" lon="14.57896"><ele>157.57142857142858</ele><time>2026-04-04T09:18:39.827Z</time></trkpt><trkpt lat="42.16951" lon="14.57904"><ele>157.14285714285714</ele><time>2026-04-04T09:18:40.827Z</time></trkpt><trkpt lat="42.1694717" lon="14.5791133"><ele>156.71428571428572</ele><time>2026-04-04T09:18:41.827Z</time></trkpt><trkpt lat="42.1694283" lon="14.5791817"><ele>156.28571428571428</ele><time>2026-04-04T09:18:42.827Z</time></trkpt><trkpt lat="42.1693883" lon="14.57925"><ele>155.85714285714286</ele><time>2026-04-04T09:18:43.827Z</time></trkpt><trkpt lat="42.1693467" lon="14.5793183"><ele>155.42857142857144</ele><time>2026-04-04T09:18:44.828Z</time></trkpt><trkpt lat="42.1693067" lon="14.5793883"><ele>155.0</ele><time>2026-04-04T09:18:45.827Z</time></trkpt><trkpt lat="42.1692217" lon="14.57951"><ele>154.6</ele><time>2026-04-04T09:18:47.828Z</time></trkpt><trkpt lat="42.1691783" lon="14.5795733"><ele>154.2</ele><time>2026-04-04T09:18:48.828Z</time></trkpt><trkpt lat="42.1690867" lon="14.5796833"><ele>153.8</ele><time>2026-04-04T09:18:50.827Z</time></trkpt><trkpt lat="42.1689917" lon="14.5798033"><ele>153.4</ele><time>2026-04-04T09:18:52.827Z</time></trkpt><trkpt lat="42.168935" lon="14.5798667"><ele>153.0</ele><time>2026-04-04T09:18:53.828Z</time></trkpt><trkpt lat="42.1688817" lon="14.5799317"><ele>153.0</ele><time>2026-04-04T09:18:54.827Z</time></trkpt><trkpt lat="42.1688267" lon="14.5800067"><ele>153.0</ele><time>2026-04-04T09:18:55.827Z</time></trkpt><trkpt lat="42.1687683" lon="14.5800783"><ele>153.0</ele><time>2026-04-04T09:18:56.827Z</time></trkpt><trkpt lat="42.1687133" lon="14.5801467"><ele>153.0</ele><time>2026-04-04T09:18:57.827Z</time></trkpt><trkpt lat="42.1686567" lon="14.5802233"><ele>153.0</ele><time>2026-04-04T09:18:58.827Z</time></trkpt><trkpt lat="42.1686017" lon="14.5803"><ele>153.0</ele><time>2026-04-04T09:18:59.828Z</time></trkpt><trkpt lat="42.168545" lon="14.5803817"><ele>152.0</ele><time>2026-04-04T09:19:00.827Z</time></trkpt><trkpt lat="42.168495" lon="14.5804683"><ele>151.0</ele><time>2026-04-04T09:19:01.827Z</time></trkpt><trkpt lat="42.1684417" lon="14.58058"><ele>150.0</ele><time>2026-04-04T09:19:02.827Z</time></trkpt><trkpt lat="42.168385" lon="14.5806917"><ele>149.0</ele><time>2026-04-04T09:19:03.827Z</time></trkpt><trkpt lat="42.1683367" lon="14.5808067"><ele>148.0</ele><time>2026-04-04T09:19:04.827Z</time></trkpt><trkpt lat="42.1683033" lon="14.5809283"><ele>148.0</ele><time>2026-04-04T09:19:05.827Z</time></trkpt><trkpt lat="42.1682833" lon="14.5810517"><ele>148.0</ele><time>2026-04-04T09:19:06.828Z</time></trkpt><trkpt lat="42.168275" lon="14.5811783"><ele>148.0</ele><time>2026-04-04T09:19:07.828Z</time></trkpt><trkpt lat="42.1682833" lon="14.581305"><ele>148.0</ele><time>2026-04-04T09:19:08.827Z</time></trkpt><trkpt lat="42.1683" lon="14.5814333"><ele>148.0</ele><time>2026-04-04T09:19:09.828Z</time></trkpt><trkpt lat="42.1683233" lon="14.5815667"><ele>146.8</ele><time>2026-04-04T09:19:10.827Z</time></trkpt><trkpt lat="42.1683533" lon="14.5817"><ele>145.60000000000002</ele><time>2026-04-04T09:19:11.827Z</time></trkpt><trkpt lat="42.1683833" lon="14.581835"><ele>144.39999999999998</ele><time>2026-04-04T09:19:12.827Z</time></trkpt><trkpt lat="42.1684217" lon="14.5819667"><ele>143.2</ele><time>2026-04-04T09:19:13.828Z</time></trkpt><trkpt lat="42.1684567" lon="14.5820933"><ele>142.0</ele><time>2026-04-04T09:19:14.827Z</time></trkpt><trkpt lat="42.168505" lon="14.5822183"><ele>141.79999999999998</ele><time>2026-04-04T09:19:15.828Z</time></trkpt><trkpt lat="42.1685583" lon="14.5823433"><ele>141.6</ele><time>2026-04-04T09:19:16.827Z</time></trkpt><trkpt lat="42.1686083" lon="14.5824717"><ele>141.39999999999998</ele><time>2026-04-04T09:19:17.827Z</time></trkpt><trkpt lat="42.1686633" lon="14.5825983"><ele>141.2</ele><time>2026-04-04T09:19:18.827Z</time></trkpt><trkpt lat="42.1687133" lon="14.5827267"><ele>141.0</ele><time>2026-04-04T09:19:19.827Z</time></trkpt><trkpt lat="42.1687683" lon="14.5828567"><ele>141.4</ele><time>2026-04-04T09:19:20.827Z</time></trkpt><trkpt lat="42.16882" lon="14.5829867"><ele>141.8</ele><time>2026-04-04T09:19:21.827Z</time></trkpt><trkpt lat="42.16887" lon="14.583115"><ele>142.20000000000002</ele><time>2026-04-04T09:19:22.827Z</time></trkpt><trkpt lat="42.1689217" lon="14.5832283"><ele>142.6</ele><time>2026-04-04T09:19:23.827Z</time></trkpt><trkpt lat="42.1689717" lon="14.5833483"><ele>143.0</ele><time>2026-04-04T09:19:24.827Z</time></trkpt><trkpt lat="42.16902" lon="14.5834567"><ele>142.33333333333331</ele><time>2026-04-04T09:19:25.827Z</time></trkpt><trkpt lat="42.1690783" lon="14.5835567"><ele>141.66666666666666</ele><time>2026-04-04T09:19:26.828Z</time></trkpt><trkpt lat="42.1691433" lon="14.583645"><ele>141.0</ele><time>2026-04-04T09:19:27.827Z</time></trkpt><trkpt lat="42.1692117" lon="14.5837233"><ele>140.33333333333334</ele><time>2026-04-04T09:19:28.827Z</time></trkpt><trkpt lat="42.1692833" lon="14.5837833"><ele>139.66666666666669</ele><time>2026-04-04T09:19:29.827Z</time></trkpt><trkpt lat="42.1693483" lon="14.5838317"><ele>139.0</ele><time>2026-04-04T09:19:30.827Z</time></trkpt><trkpt lat="42.1694167" lon="14.58388"><ele>139.0</ele><time>2026-04-04T09:19:31.827Z</time></trkpt><trkpt lat="42.1694783" lon="14.58392"><ele>139.0</ele><time>2026-04-04T09:19:32.827Z</time></trkpt><trkpt lat="42.16954" lon="14.583965"><ele>139.0</ele><time>2026-04-04T09:19:33.827Z</time></trkpt><trkpt lat="42.1696083" lon="14.5839983"><ele>139.0</ele><time>2026-04-04T09:19:34.828Z</time></trkpt><trkpt lat="42.169675" lon="14.584025"><ele>139.0</ele><time>2026-04-04T09:19:35.827Z</time></trkpt><trkpt lat="42.1697367" lon="14.58405"><ele>139.0</ele><time>2026-04-04T09:19:36.828Z</time></trkpt><trkpt lat="42.1698417" lon="14.5840983"><ele>138.8</ele><time>2026-04-04T09:19:38.827Z</time></trkpt><trkpt lat="42.1699467" lon="14.584135"><ele>138.60000000000002</ele><time>2026-04-04T09:19:40.827Z</time></trkpt><trkpt lat="42.17005" lon="14.5841717"><ele>138.4</ele><time>2026-04-04T09:19:42.827Z</time></trkpt><trkpt lat="42.17015" lon="14.5842083"><ele>138.20000000000002</ele><time>2026-04-04T09:19:44.827Z</time></trkpt><trkpt lat="42.1702533" lon="14.58423"><ele>138.0</ele><time>2026-04-04T09:19:46.827Z</time></trkpt><trkpt lat="42.1703483" lon="14.5842633"><ele>138.0</ele><time>2026-04-04T09:19:48.827Z</time></trkpt><trkpt lat="42.170445" lon="14.5843017"><ele>138.0</ele><time>2026-04-04T09:19:50.827Z</time></trkpt><trkpt lat="42.170535" lon="14.5843233"><ele>138.0</ele><time>2026-04-04T09:19:52.827Z</time></trkpt><trkpt lat="42.170625" lon="14.5843533"><ele>138.0</ele><time>2026-04-04T09:19:54.827Z</time></trkpt><trkpt lat="42.1707117" lon="14.5843733"><ele>138.0</ele><time>2026-04-04T09:19:56.827Z</time></trkpt><trkpt lat="42.1707817" lon="14.5843933"><ele>138.0</ele><time>2026-04-04T09:19:58.828Z</time></trkpt><trkpt lat="42.1708567" lon="14.584405"><ele>138.0</ele><time>2026-04-04T09:20:01.827Z</time></trkpt><trkpt lat="42.170815" lon="14.5845083"><ele>138.0</ele><time>2026-04-04T09:20:08.827Z</time></trkpt><trkpt lat="42.17075" lon="14.5845483"><ele>138.0</ele><time>2026-04-04T09:20:10.827Z</time></trkpt><trkpt lat="42.1706817" lon="14.5845983"><ele>138.0</ele><time>2026-04-04T09:20:12.827Z</time></trkpt><trkpt lat="42.1706117" lon="14.584635"><ele>138.0</ele><time>2026-04-04T09:20:14.827Z</time></trkpt><trkpt lat="42.1705467" lon="14.5846633"><ele>138.0</ele><time>2026-04-04T09:20:16.827Z</time></trkpt><trkpt lat="42.170475" lon="14.58469"><ele>139.20000000000002</ele><time>2026-04-04T09:20:18.827Z</time></trkpt><trkpt lat="42.170395" lon="14.5847117"><ele>140.4</ele><time>2026-04-04T09:20:20.827Z</time></trkpt><trkpt lat="42.1703083" lon="14.5847383"><ele>141.60000000000002</ele><time>2026-04-04T09:20:22.828Z</time></trkpt><trkpt lat="42.17022" lon="14.5847483"><ele>142.8</ele><time>2026-04-04T09:20:24.827Z</time></trkpt><trkpt lat="42.1701283" lon="14.5847617"><ele>144.0</ele><time>2026-04-04T09:20:26.827Z</time></trkpt><trkpt lat="42.1700217" lon="14.5847783"><ele>144.0</ele><time>2026-04-04T09:20:28.827Z</time></trkpt><trkpt lat="42.1699217" lon="14.584795"><ele>144.0</ele><time>2026-04-04T09:20:30.827Z</time></trkpt><trkpt lat="42.1698217" lon="14.5848"><ele>144.0</ele><time>2026-04-04T09:20:32.827Z</time></trkpt><trkpt lat="42.1697317" lon="14.5848"><ele>144.0</ele><time>2026-04-04T09:20:34.827Z</time></trkpt><trkpt lat="42.1696333" lon="14.58479"><ele>144.0</ele><time>2026-04-04T09:20:36.827Z</time></trkpt><trkpt lat="42.16953" lon="14.5847833"><ele>144.2</ele><time>2026-04-04T09:20:38.827Z</time></trkpt><trkpt lat="42.1694333" lon="14.58477"><ele>144.4</ele><time>2026-04-04T09:20:40.827Z</time></trkpt><trkpt lat="42.1693383" lon="14.5847533"><ele>144.6</ele><time>2026-04-04T09:20:42.827Z</time></trkpt><trkpt lat="42.1692433" lon="14.5847417"><ele>144.8</ele><time>2026-04-04T09:20:44.827Z</time></trkpt><trkpt lat="42.1691467" lon="14.58473"><ele>145.0</ele><time>2026-04-04T09:20:46.828Z</time></trkpt><trkpt lat="42.1690617" lon="14.58471"><ele>145.8</ele><time>2026-04-04T09:20:48.827Z</time></trkpt><trkpt lat="42.168975" lon="14.584685"><ele>146.6</ele><time>2026-04-04T09:20:50.827Z</time></trkpt><trkpt lat="42.1688867" lon="14.58466"><ele>147.4</ele><time>2026-04-04T09:20:52.827Z</time></trkpt><trkpt lat="42.168795" lon="14.5846283"><ele>148.2</ele><time>2026-04-04T09:20:54.827Z</time></trkpt><trkpt lat="42.1687083" lon="14.5845967"><ele>149.0</ele><time>2026-04-04T09:20:56.827Z</time></trkpt><trkpt lat="42.1686217" lon="14.5845633"><ele>149.0</ele><time>2026-04-04T09:20:58.827Z</time></trkpt><trkpt lat="42.168535" lon="14.5845183"><ele>149.0</ele><time>2026-04-04T09:21:00.827Z</time></trkpt><trkpt lat="42.1684467" lon="14.5844883"><ele>149.0</ele><time>2026-04-04T09:21:02.827Z</time></trkpt><trkpt lat="42.1683483" lon="14.5844617"><ele>149.0</ele><time>2026-04-04T09:21:04.827Z</time></trkpt><trkpt lat="42.1682533" lon="14.5844517"><ele>149.0</ele><time>2026-04-04T09:21:06.827Z</time></trkpt><trkpt lat="42.16816" lon="14.5844583"><ele>149.16666666666666</ele><time>2026-04-04T09:21:08.828Z</time></trkpt><trkpt lat="42.168075" lon="14.5844767"><ele>149.33333333333331</ele><time>2026-04-04T09:21:10.827Z</time></trkpt><trkpt lat="42.1679917" lon="14.5845133"><ele>149.5</ele><time>2026-04-04T09:21:12.827Z</time></trkpt><trkpt lat="42.1679083" lon="14.5845583"><ele>149.66666666666666</ele><time>2026-04-04T09:21:14.827Z</time></trkpt><trkpt lat="42.1678317" lon="14.584605"><ele>149.83333333333334</ele><time>2026-04-04T09:21:16.827Z</time></trkpt><trkpt lat="42.1677533" lon="14.5846333"><ele>150.0</ele><time>2026-04-04T09:21:18.827Z</time></trkpt><trkpt lat="42.1676667" lon="14.58466"><ele>150.0</ele><time>2026-04-04T09:21:20.827Z</time></trkpt><trkpt lat="42.1675767" lon="14.5846767"><ele>150.0</ele><time>2026-04-04T09:21:22.827Z</time></trkpt><trkpt lat="42.1674833" lon="14.5846933"><ele>150.0</ele><time>2026-04-04T09:21:24.828Z</time></trkpt><trkpt lat="42.1674017" lon="14.584715"><ele>150.0</ele><time>2026-04-04T09:21:26.827Z</time></trkpt><trkpt lat="42.1673133" lon="14.5847317"><ele>150.0</ele><time>2026-04-04T09:21:28.827Z</time></trkpt><trkpt lat="42.1672233" lon="14.5847517"><ele>150.0</ele><time>2026-04-04T09:21:30.827Z</time></trkpt><trkpt lat="42.16714" lon="14.5847683"><ele>149.83333333333334</ele><time>2026-04-04T09:21:32.827Z</time></trkpt><trkpt lat="42.1670617" lon="14.5847917"><ele>149.66666666666666</ele><time>2026-04-04T09:21:34.828Z</time></trkpt><trkpt lat="42.1669833" lon="14.5848067"><ele>149.5</ele><time>2026-04-04T09:21:36.827Z</time></trkpt><trkpt lat="42.1669033" lon="14.584825"><ele>149.33333333333331</ele><time>2026-04-04T09:21:38.828Z</time></trkpt><trkpt lat="42.16682" lon="14.5848533"><ele>149.16666666666666</ele><time>2026-04-04T09:21:40.827Z</time></trkpt><trkpt lat="42.1667417" lon="14.5848717"><ele>149.0</ele><time>2026-04-04T09:21:42.828Z</time></trkpt><trkpt lat="42.1666683" lon="14.5848917"><ele>149.0</ele><time>2026-04-04T09:21:44.828Z</time></trkpt><trkpt lat="42.1666033" lon="14.584915"><ele>149.0</ele><time>2026-04-04T09:21:46.827Z</time></trkpt><trkpt lat="42.166525" lon="14.5849533"><ele>149.0</ele><time>2026-04-04T09:21:49.827Z</time></trkpt><trkpt lat="42.166515" lon="14.5850533"><ele>149.0</ele><time>2026-04-04T09:21:54.827Z</time></trkpt><trkpt lat="42.1665683" lon="14.5851233"><ele>149.0</ele><time>2026-04-04T09:21:56.827Z</time></trkpt><trkpt lat="42.1666333" lon="14.58521"><ele>149.0</ele><time>2026-04-04T09:21:58.827Z</time></trkpt><trkpt lat="42.1667" lon="14.585305"><ele>148.6</ele><time>2026-04-04T09:22:00.827Z</time></trkpt><trkpt lat="42.16676" lon="14.5854117"><ele>148.2</ele><time>2026-04-04T09:22:02.827Z</time></trkpt><trkpt lat="42.166825" lon="14.5855183"><ele>147.79999999999998</ele><time>2026-04-04T09:22:04.828Z</time></trkpt><trkpt lat="42.16689" lon="14.5856317"><ele>147.4</ele><time>2026-04-04T09:22:06.827Z</time></trkpt><trkpt lat="42.1669667" lon="14.5857433"><ele>147.0</ele><time>2026-04-04T09:22:08.827Z</time></trkpt><trkpt lat="42.1670467" lon="14.5858617"><ele>147.0</ele><time>2026-04-04T09:22:10.828Z</time></trkpt><trkpt lat="42.1671267" lon="14.5859817"><ele>147.0</ele><time>2026-04-04T09:22:12.828Z</time></trkpt><trkpt lat="42.1672117" lon="14.5860983"><ele>147.0</ele><time>2026-04-04T09:22:14.827Z</time></trkpt><trkpt lat="42.1672517" lon="14.5861667"><ele>147.0</ele><time>2026-04-04T09:22:15.827Z</time></trkpt><trkpt lat="42.1673267" lon="14.586295"><ele>147.0</ele><time>2026-04-04T09:22:17.827Z</time></trkpt><trkpt lat="42.1674017" lon="14.5864283"><ele>147.0</ele><time>2026-04-04T09:22:19.828Z</time></trkpt><trkpt lat="42.16748" lon="14.5865617"><ele>147.0</ele><time>2026-04-04T09:22:21.827Z</time></trkpt><trkpt lat="42.1675233" lon="14.586625"><ele>147.0</ele><time>2026-04-04T09:22:22.827Z</time></trkpt><trkpt lat="42.1675667" lon="14.5866917"><ele>147.0</ele><time>2026-04-04T09:22:23.827Z</time></trkpt><trkpt lat="42.1676367" lon="14.586825"><ele>147.0</ele><time>2026-04-04T09:22:25.827Z</time></trkpt><trkpt lat="42.1676833" lon="14.586885"><ele>147.0</ele><time>2026-04-04T09:22:26.827Z</time></trkpt><trkpt lat="42.1677267" lon="14.586955"><ele>146.5</ele><time>2026-04-04T09:22:27.827Z</time></trkpt><trkpt lat="42.1677617" lon="14.5870267"><ele>146.0</ele><time>2026-04-04T09:22:28.827Z</time></trkpt><trkpt lat="42.167805" lon="14.587095"><ele>145.5</ele><time>2026-04-04T09:22:29.827Z</time></trkpt><trkpt lat="42.1678483" lon="14.5871617"><ele>145.0</ele><time>2026-04-04T09:22:30.827Z</time></trkpt><trkpt lat="42.1678917" lon="14.58723"><ele>144.5</ele><time>2026-04-04T09:22:31.827Z</time></trkpt><trkpt lat="42.1679383" lon="14.5873017"><ele>144.0</ele><time>2026-04-04T09:22:32.827Z</time></trkpt><trkpt lat="42.1680233" lon="14.587435"><ele>144.0</ele><time>2026-04-04T09:22:34.828Z</time></trkpt><trkpt lat="42.168075" lon="14.58749"><ele>144.0</ele><time>2026-04-04T09:22:35.828Z</time></trkpt><trkpt lat="42.1681583" lon="14.58762"><ele>144.0</ele><time>2026-04-04T09:22:37.827Z</time></trkpt><trkpt lat="42.1682067" lon="14.5876783"><ele>144.0</ele><time>2026-04-04T09:22:38.827Z</time></trkpt><trkpt lat="42.168255" lon="14.5877383"><ele>144.0</ele><time>2026-04-04T09:22:39.827Z</time></trkpt><trkpt lat="42.168305" lon="14.5878"><ele>144.0</ele><time>2026-04-04T09:22:40.828Z</time></trkpt><trkpt lat="42.168355" lon="14.58786"><ele>143.5</ele><time>2026-04-04T09:22:41.827Z</time></trkpt><trkpt lat="42.1684133" lon="14.5879183"><ele>143.0</ele><time>2026-04-04T09:22:42.827Z</time></trkpt><trkpt lat="42.1684733" lon="14.5879767"><ele>142.5</ele><time>2026-04-04T09:22:43.828Z</time></trkpt><trkpt lat="42.168535" lon="14.5880283"><ele>142.0</ele><time>2026-04-04T09:22:44.827Z</time></trkpt><trkpt lat="42.168595" lon="14.5880717"><ele>141.5</ele><time>2026-04-04T09:22:45.827Z</time></trkpt><trkpt lat="42.1686533" lon="14.5881167"><ele>141.0</ele><time>2026-04-04T09:22:46.827Z</time></trkpt><trkpt lat="42.1687567" lon="14.5881983"><ele>141.0</ele><time>2026-04-04T09:22:48.828Z</time></trkpt><trkpt lat="42.1688667" lon="14.58827"><ele>141.0</ele><time>2026-04-04T09:22:50.827Z</time></trkpt><trkpt lat="42.1689767" lon="14.5883367"><ele>141.0</ele><time>2026-04-04T09:22:52.827Z</time></trkpt><trkpt lat="42.1690867" lon="14.5884033"><ele>141.0</ele><time>2026-04-04T09:22:54.827Z</time></trkpt><trkpt lat="42.16919" lon="14.5884667"><ele>141.2</ele><time>2026-04-04T09:22:56.827Z</time></trkpt><trkpt lat="42.1692867" lon="14.588535"><ele>141.39999999999998</ele><time>2026-04-04T09:22:58.827Z</time></trkpt><trkpt lat="42.1693817" lon="14.5885983"><ele>141.6</ele><time>2026-04-04T09:23:00.827Z</time></trkpt><trkpt lat="42.1694883" lon="14.588675"><ele>141.79999999999998</ele><time>2026-04-04T09:23:02.827Z</time></trkpt><trkpt lat="42.1695483" lon="14.588715"><ele>142.0</ele><time>2026-04-04T09:23:03.827Z</time></trkpt><trkpt lat="42.1696083" lon="14.5887517"><ele>141.4</ele><time>2026-04-04T09:23:04.827Z</time></trkpt><trkpt lat="42.1696717" lon="14.5887883"><ele>140.79999999999998</ele><time>2026-04-04T09:23:05.827Z</time></trkpt><trkpt lat="42.1697333" lon="14.588825"><ele>140.2</ele><time>2026-04-04T09:23:06.827Z</time></trkpt><trkpt lat="42.169845" lon="14.5888933"><ele>139.6</ele><time>2026-04-04T09:23:08.827Z</time></trkpt><trkpt lat="42.1699533" lon="14.58896"><ele>139.0</ele><time>2026-04-04T09:23:10.828Z</time></trkpt><trkpt lat="42.1700633" lon="14.5890067"><ele>139.0</ele><time>2026-04-04T09:23:12.827Z</time></trkpt><trkpt lat="42.1701517" lon="14.5890617"><ele>139.0</ele><time>2026-04-04T09:23:14.827Z</time></trkpt><trkpt lat="42.170235" lon="14.5891117"><ele>139.0</ele><time>2026-04-04T09:23:16.827Z</time></trkpt><trkpt lat="42.1703133" lon="14.5891617"><ele>139.0</ele><time>2026-04-04T09:23:18.827Z</time></trkpt><trkpt lat="42.1703983" lon="14.5892217"><ele>139.0</ele><time>2026-04-04T09:23:20.827Z</time></trkpt><trkpt lat="42.1704933" lon="14.589275"><ele>139.0</ele><time>2026-04-04T09:23:22.827Z</time></trkpt><trkpt lat="42.170585" lon="14.589325"><ele>139.0</ele><time>2026-04-04T09:23:24.827Z</time></trkpt><trkpt lat="42.1706833" lon="14.5893917"><ele>139.0</ele><time>2026-04-04T09:23:26.827Z</time></trkpt><trkpt lat="42.1707767" lon="14.5894567"><ele>139.0</ele><time>2026-04-04T09:23:28.827Z</time></trkpt><trkpt lat="42.1708667" lon="14.5895183"><ele>139.0</ele><time>2026-04-04T09:23:30.828Z</time></trkpt><trkpt lat="42.1709683" lon="14.5895783"><ele>138.4</ele><time>2026-04-04T09:23:32.827Z</time></trkpt><trkpt lat="42.1710667" lon="14.5896433"><ele>137.8</ele><time>2026-04-04T09:23:34.827Z</time></trkpt><trkpt lat="42.1711667" lon="14.589725"><ele>137.2</ele><time>2026-04-04T09:23:36.827Z</time></trkpt><trkpt lat="42.1712583" lon="14.5898067"><ele>136.6</ele><time>2026-04-04T09:23:38.827Z</time></trkpt><trkpt lat="42.171345" lon="14.5898967"><ele>136.0</ele><time>2026-04-04T09:23:40.827Z</time></trkpt><trkpt lat="42.1714367" lon="14.58999"><ele>136.2</ele><time>2026-04-04T09:23:42.827Z</time></trkpt><trkpt lat="42.171525" lon="14.590085"><ele>136.39999999999998</ele><time>2026-04-04T09:23:44.827Z</time></trkpt><trkpt lat="42.1716133" lon="14.590185"><ele>136.6</ele><time>2026-04-04T09:23:46.827Z</time></trkpt><trkpt lat="42.171665" lon="14.5902367"><ele>136.79999999999998</ele><time>2026-04-04T09:23:47.828Z</time></trkpt><trkpt lat="42.1717667" lon="14.5903383"><ele>137.0</ele><time>2026-04-04T09:23:49.828Z</time></trkpt><trkpt lat="42.1718167" lon="14.5903933"><ele>136.25</ele><time>2026-04-04T09:23:50.827Z</time></trkpt><trkpt lat="42.1719017" lon="14.5904967"><ele>135.5</ele><time>2026-04-04T09:23:52.827Z</time></trkpt><trkpt lat="42.1719817" lon="14.59059"><ele>134.75</ele><time>2026-04-04T09:23:54.827Z</time></trkpt><trkpt lat="42.1720767" lon="14.590695"><ele>134.0</ele><time>2026-04-04T09:23:56.827Z</time></trkpt><trkpt lat="42.1721733" lon="14.5907917"><ele>134.0</ele><time>2026-04-04T09:23:58.827Z</time></trkpt><trkpt lat="42.1722733" lon="14.59089"><ele>134.0</ele><time>2026-04-04T09:24:00.827Z</time></trkpt><trkpt lat="42.172375" lon="14.5909917"><ele>134.0</ele><time>2026-04-04T09:24:02.827Z</time></trkpt><trkpt lat="42.1724267" lon="14.591045"><ele>134.0</ele><time>2026-04-04T09:24:03.827Z</time></trkpt><trkpt lat="42.1724783" lon="14.591105"><ele>134.0</ele><time>2026-04-04T09:24:04.827Z</time></trkpt><trkpt lat="42.1725317" lon="14.5911583"><ele>133.66666666666666</ele><time>2026-04-04T09:24:05.828Z</time></trkpt><trkpt lat="42.1725833" lon="14.591215"><ele>133.33333333333331</ele><time>2026-04-04T09:24:06.827Z</time></trkpt><trkpt lat="42.1726333" lon="14.59127"><ele>133.0</ele><time>2026-04-04T09:24:07.828Z</time></trkpt><trkpt lat="42.1726833" lon="14.591335"><ele>132.66666666666666</ele><time>2026-04-04T09:24:08.827Z</time></trkpt><trkpt lat="42.1727283" lon="14.5913967"><ele>132.33333333333334</ele><time>2026-04-04T09:24:09.827Z</time></trkpt><trkpt lat="42.1727733" lon="14.5914617"><ele>132.0</ele><time>2026-04-04T09:24:10.827Z</time></trkpt><trkpt lat="42.1728517" lon="14.5915917"><ele>132.0</ele><time>2026-04-04T09:24:12.827Z</time></trkpt><trkpt lat="42.1729233" lon="14.5917267"><ele>132.0</ele><time>2026-04-04T09:24:14.827Z</time></trkpt><trkpt lat="42.17296" lon="14.5917967"><ele>132.0</ele><time>2026-04-04T09:24:15.827Z</time></trkpt><trkpt lat="42.1730367" lon="14.591925"><ele>132.0</ele><time>2026-04-04T09:24:17.827Z</time></trkpt><trkpt lat="42.1731183" lon="14.59205"><ele>132.0</ele><time>2026-04-04T09:24:19.828Z</time></trkpt><trkpt lat="42.1731917" lon="14.5921717"><ele>131.66666666666666</ele><time>2026-04-04T09:24:21.828Z</time></trkpt><trkpt lat="42.17326" lon="14.5923183"><ele>131.33333333333334</ele><time>2026-04-04T09:24:23.827Z</time></trkpt><trkpt lat="42.1732917" lon="14.5923917"><ele>131.0</ele><time>2026-04-04T09:24:24.827Z</time></trkpt><trkpt lat="42.1733233" lon="14.59247"><ele>130.66666666666669</ele><time>2026-04-04T09:24:25.827Z</time></trkpt><trkpt lat="42.173355" lon="14.5925483"><ele>130.33333333333334</ele><time>2026-04-04T09:24:26.827Z</time></trkpt><trkpt lat="42.1733817" lon="14.5926283"><ele>130.0</ele><time>2026-04-04T09:24:27.827Z</time></trkpt><trkpt lat="42.1734067" lon="14.5927133"><ele>130.00000000000003</ele><time>2026-04-04T09:24:28.827Z</time></trkpt><trkpt lat="42.1734333" lon="14.5928"><ele>130.0</ele><time>2026-04-04T09:24:29.827Z</time></trkpt><trkpt lat="42.1734567" lon="14.5928817"><ele>130.0</ele><time>2026-04-04T09:24:30.827Z</time></trkpt><trkpt lat="42.1734833" lon="14.592965"><ele>130.0</ele><time>2026-04-04T09:24:31.827Z</time></trkpt><trkpt lat="42.1735083" lon="14.5930533"><ele>130.0</ele><time>2026-04-04T09:24:32.828Z</time></trkpt><trkpt lat="42.173535" lon="14.593135"><ele>130.00000000000003</ele><time>2026-04-04T09:24:33.828Z</time></trkpt><trkpt lat="42.1735617" lon="14.59322"><ele>130.0</ele><time>2026-04-04T09:24:34.827Z</time></trkpt><trkpt lat="42.1735967" lon="14.593305"><ele>129.85714285714286</ele><time>2026-04-04T09:24:35.827Z</time></trkpt><trkpt lat="42.1736217" lon="14.593395"><ele>129.71428571428572</ele><time>2026-04-04T09:24:36.827Z</time></trkpt><trkpt lat="42.17365" lon="14.593485"><ele>129.57142857142856</ele><time>2026-04-04T09:24:37.827Z</time></trkpt><trkpt lat="42.17368" lon="14.5935633"><ele>129.42857142857144</ele><time>2026-04-04T09:24:38.827Z</time></trkpt><trkpt lat="42.1737133" lon="14.5936417"><ele>129.28571428571428</ele><time>2026-04-04T09:24:39.827Z</time></trkpt><trkpt lat="42.1737483" lon="14.59372"><ele>129.14285714285714</ele><time>2026-04-04T09:24:40.827Z</time></trkpt><trkpt lat="42.1737833" lon="14.593795"><ele>129.0</ele><time>2026-04-04T09:24:41.827Z</time></trkpt><trkpt lat="42.1738267" lon="14.593865"><ele>128.7142857142857</ele><time>2026-04-04T09:24:42.828Z</time></trkpt><trkpt lat="42.173865" lon="14.5939367"><ele>128.42857142857142</ele><time>2026-04-04T09:24:43.827Z</time></trkpt><trkpt lat="42.1739083" lon="14.5940067"><ele>128.14285714285714</ele><time>2026-04-04T09:24:44.827Z</time></trkpt><trkpt lat="42.1739483" lon="14.59408"><ele>127.85714285714285</ele><time>2026-04-04T09:24:45.827Z</time></trkpt><trkpt lat="42.1739917" lon="14.5941533"><ele>127.57142857142856</ele><time>2026-04-04T09:24:46.827Z</time></trkpt><trkpt lat="42.1740417" lon="14.594225"><ele>127.28571428571429</ele><time>2026-04-04T09:24:47.828Z</time></trkpt><trkpt lat="42.1740917" lon="14.5943033"><ele>127.0</ele><time>2026-04-04T09:24:48.827Z</time></trkpt><trkpt lat="42.174135" lon="14.5943717"><ele>127.0</ele><time>2026-04-04T09:24:49.827Z</time></trkpt><trkpt lat="42.1741767" lon="14.59444"><ele>127.0</ele><time>2026-04-04T09:24:50.827Z</time></trkpt><trkpt lat="42.17422" lon="14.5945133"><ele>127.0</ele><time>2026-04-04T09:24:51.827Z</time></trkpt><trkpt lat="42.1742567" lon="14.5945867"><ele>127.0</ele><time>2026-04-04T09:24:52.827Z</time></trkpt><trkpt lat="42.1742917" lon="14.5946633"><ele>127.0</ele><time>2026-04-04T09:24:53.827Z</time></trkpt><trkpt lat="42.1743267" lon="14.5947383"><ele>127.0</ele><time>2026-04-04T09:24:54.827Z</time></trkpt><trkpt lat="42.1743517" lon="14.59482"><ele>127.0</ele><time>2026-04-04T09:24:55.827Z</time></trkpt><trkpt lat="42.1743767" lon="14.594905"><ele>126.85714285714286</ele><time>2026-04-04T09:24:56.828Z</time></trkpt><trkpt lat="42.1744033" lon="14.5949933"><ele>126.71428571428571</ele><time>2026-04-04T09:24:57.827Z</time></trkpt><trkpt lat="42.1744283" lon="14.595075"><ele>126.57142857142857</ele><time>2026-04-04T09:24:58.828Z</time></trkpt><trkpt lat="42.1744533" lon="14.5951633"><ele>126.42857142857143</ele><time>2026-04-04T09:24:59.828Z</time></trkpt><trkpt lat="42.1744767" lon="14.5952467"><ele>126.28571428571428</ele><time>2026-04-04T09:25:00.827Z</time></trkpt><trkpt lat="42.1745033" lon="14.59533"><ele>126.14285714285714</ele><time>2026-04-04T09:25:01.827Z</time></trkpt><trkpt lat="42.174525" lon="14.5954133"><ele>126.0</ele><time>2026-04-04T09:25:02.827Z</time></trkpt><trkpt lat="42.17455" lon="14.5955"><ele>126.0</ele><time>2026-04-04T09:25:03.827Z</time></trkpt><trkpt lat="42.174575" lon="14.595585"><ele>126.0</ele><time>2026-04-04T09:25:04.827Z</time></trkpt><trkpt lat="42.1746" lon="14.5956767"><ele>126.0</ele><time>2026-04-04T09:25:05.827Z</time></trkpt><trkpt lat="42.1746283" lon="14.5957667"><ele>126.0</ele><time>2026-04-04T09:25:06.827Z</time></trkpt><trkpt lat="42.1746517" lon="14.595865"><ele>126.0</ele><time>2026-04-04T09:25:07.827Z</time></trkpt><trkpt lat="42.1746783" lon="14.5959667"><ele>126.0</ele><time>2026-04-04T09:25:08.827Z</time></trkpt><trkpt lat="42.1747083" lon="14.596075"><ele>125.66666666666667</ele><time>2026-04-04T09:25:09.827Z</time></trkpt><trkpt lat="42.1747367" lon="14.5961783"><ele>125.33333333333334</ele><time>2026-04-04T09:25:10.827Z</time></trkpt><trkpt lat="42.1747683" lon="14.59628"><ele>125.0</ele><time>2026-04-04T09:25:11.827Z</time></trkpt><trkpt lat="42.1748" lon="14.59638"><ele>124.66666666666667</ele><time>2026-04-04T09:25:12.828Z</time></trkpt><trkpt lat="42.1748317" lon="14.5964783"><ele>124.33333333333334</ele><time>2026-04-04T09:25:13.827Z</time></trkpt><trkpt lat="42.1748633" lon="14.5965717"><ele>124.0</ele><time>2026-04-04T09:25:14.827Z</time></trkpt><trkpt lat="42.1749017" lon="14.5966583"><ele>123.66666666666667</ele><time>2026-04-04T09:25:15.827Z</time></trkpt><trkpt lat="42.1749383" lon="14.5967483"><ele>123.33333333333334</ele><time>2026-04-04T09:25:16.827Z</time></trkpt><trkpt lat="42.1749717" lon="14.596835"><ele>123.0</ele><time>2026-04-04T09:25:17.827Z</time></trkpt><trkpt lat="42.1750083" lon="14.596925"><ele>122.66666666666666</ele><time>2026-04-04T09:25:18.827Z</time></trkpt><trkpt lat="42.1750433" lon="14.597015"><ele>122.33333333333333</ele><time>2026-04-04T09:25:19.828Z</time></trkpt><trkpt lat="42.175085" lon="14.5971017"><ele>122.0</ele><time>2026-04-04T09:25:20.828Z</time></trkpt><trkpt lat="42.17512" lon="14.5971917"><ele>121.7142857142857</ele><time>2026-04-04T09:25:21.827Z</time></trkpt><trkpt lat="42.1751633" lon="14.5972783"><ele>121.42857142857142</ele><time>2026-04-04T09:25:22.827Z</time></trkpt><trkpt lat="42.1752033" lon="14.5973567"><ele>121.14285714285714</ele><time>2026-04-04T09:25:23.827Z</time></trkpt><trkpt lat="42.1752433" lon="14.59743"><ele>120.85714285714285</ele><time>2026-04-04T09:25:24.827Z</time></trkpt><trkpt lat="42.1752833" lon="14.5975067"><ele>120.57142857142856</ele><time>2026-04-04T09:25:25.828Z</time></trkpt><trkpt lat="42.17532" lon="14.59758"><ele>120.28571428571429</ele><time>2026-04-04T09:25:26.827Z</time></trkpt><trkpt lat="42.1753567" lon="14.5976517"><ele>120.0</ele><time>2026-04-04T09:25:27.827Z</time></trkpt><trkpt lat="42.175395" lon="14.5977233"><ele>120.0</ele><time>2026-04-04T09:25:28.827Z</time></trkpt><trkpt lat="42.1754317" lon="14.5977967"><ele>120.0</ele><time>2026-04-04T09:25:29.827Z</time></trkpt><trkpt lat="42.1754683" lon="14.5978683"><ele>120.0</ele><time>2026-04-04T09:25:30.828Z</time></trkpt><trkpt lat="42.1755067" lon="14.5979483"><ele>120.0</ele><time>2026-04-04T09:25:31.828Z</time></trkpt><trkpt lat="42.175545" lon="14.5980217"><ele>120.0</ele><time>2026-04-04T09:25:32.827Z</time></trkpt><trkpt lat="42.175585" lon="14.59809"><ele>120.0</ele><time>2026-04-04T09:25:33.828Z</time></trkpt><trkpt lat="42.1756283" lon="14.5981517"><ele>120.0</ele><time>2026-04-04T09:25:34.827Z</time></trkpt><trkpt lat="42.1757183" lon="14.5982683"><ele>119.6</ele><time>2026-04-04T09:25:36.827Z</time></trkpt><trkpt lat="42.1758167" lon="14.5983833"><ele>119.2</ele><time>2026-04-04T09:25:38.827Z</time></trkpt><trkpt lat="42.1759167" lon="14.5984883"><ele>118.80000000000001</ele><time>2026-04-04T09:25:40.827Z</time></trkpt><trkpt lat="42.17597" lon="14.59854"><ele>118.4</ele><time>2026-04-04T09:25:41.827Z</time></trkpt><trkpt lat="42.176025" lon="14.5985883"><ele>118.0</ele><time>2026-04-04T09:25:42.827Z</time></trkpt><trkpt lat="42.1760883" lon="14.59864"><ele>117.85714285714286</ele><time>2026-04-04T09:25:43.827Z</time></trkpt><trkpt lat="42.17614" lon="14.5986917"><ele>117.71428571428572</ele><time>2026-04-04T09:25:44.827Z</time></trkpt><trkpt lat="42.176195" lon="14.5987417"><ele>117.57142857142858</ele><time>2026-04-04T09:25:45.827Z</time></trkpt><trkpt lat="42.1762533" lon="14.598785"><ele>117.42857142857143</ele><time>2026-04-04T09:25:46.827Z</time></trkpt><trkpt lat="42.1763083" lon="14.598835"><ele>117.2857142857143</ele><time>2026-04-04T09:25:47.828Z</time></trkpt><trkpt lat="42.17637" lon="14.59888"><ele>117.14285714285715</ele><time>2026-04-04T09:25:48.827Z</time></trkpt><trkpt lat="42.1764283" lon="14.5989283"><ele>117.0</ele><time>2026-04-04T09:25:49.827Z</time></trkpt><trkpt lat="42.1764833" lon="14.598975"><ele>116.57142857142858</ele><time>2026-04-04T09:25:50.827Z</time></trkpt><trkpt lat="42.1765417" lon="14.599025"><ele>116.14285714285715</ele><time>2026-04-04T09:25:51.827Z</time></trkpt><trkpt lat="42.1765983" lon="14.5990717"><ele>115.71428571428572</ele><time>2026-04-04T09:25:52.827Z</time></trkpt><trkpt lat="42.1766567" lon="14.5991217"><ele>115.28571428571428</ele><time>2026-04-04T09:25:53.827Z</time></trkpt><trkpt lat="42.1767217" lon="14.5991667"><ele>114.85714285714285</ele><time>2026-04-04T09:25:54.827Z</time></trkpt><trkpt lat="42.1767883" lon="14.5992083"><ele>114.42857142857142</ele><time>2026-04-04T09:25:55.827Z</time></trkpt><trkpt lat="42.17685" lon="14.5992533"><ele>114.0</ele><time>2026-04-04T09:25:56.827Z</time></trkpt><trkpt lat="42.176905" lon="14.5992983"><ele>114.0</ele><time>2026-04-04T09:25:57.827Z</time></trkpt><trkpt lat="42.176965" lon="14.599345"><ele>114.0</ele><time>2026-04-04T09:25:58.827Z</time></trkpt><trkpt lat="42.1770183" lon="14.5993983"><ele>114.0</ele><time>2026-04-04T09:25:59.828Z</time></trkpt><trkpt lat="42.1770733" lon="14.5994483"><ele>114.0</ele><time>2026-04-04T09:26:00.827Z</time></trkpt><trkpt lat="42.1771267" lon="14.599495"><ele>114.0</ele><time>2026-04-04T09:26:01.827Z</time></trkpt><trkpt lat="42.1772233" lon="14.5995883"><ele>114.0</ele><time>2026-04-04T09:26:03.828Z</time></trkpt><trkpt lat="42.1773317" lon="14.5996667"><ele>113.66666666666667</ele><time>2026-04-04T09:26:05.827Z</time></trkpt><trkpt lat="42.1773883" lon="14.599705"><ele>113.33333333333334</ele><time>2026-04-04T09:26:06.828Z</time></trkpt><trkpt lat="42.177445" lon="14.5997533"><ele>113.0</ele><time>2026-04-04T09:26:07.828Z</time></trkpt><trkpt lat="42.1775" lon="14.5997967"><ele>112.66666666666667</ele><time>2026-04-04T09:26:08.827Z</time></trkpt><trkpt lat="42.1775583" lon="14.5998417"><ele>112.33333333333334</ele><time>2026-04-04T09:26:09.827Z</time></trkpt><trkpt lat="42.1776567" lon="14.5999267"><ele>112.0</ele><time>2026-04-04T09:26:11.827Z</time></trkpt><trkpt lat="42.1777633" lon="14.6000267"><ele>112.00000000000001</ele><time>2026-04-04T09:26:13.827Z</time></trkpt><trkpt lat="42.1778183" lon="14.6000867"><ele>112.0</ele><time>2026-04-04T09:26:14.827Z</time></trkpt><trkpt lat="42.177865" lon="14.6001467"><ele>112.0</ele><time>2026-04-04T09:26:15.828Z</time></trkpt><trkpt lat="42.1779133" lon="14.600205"><ele>112.0</ele><time>2026-04-04T09:26:16.827Z</time></trkpt><trkpt lat="42.17796" lon="14.600265"><ele>112.00000000000001</ele><time>2026-04-04T09:26:17.828Z</time></trkpt><trkpt lat="42.178045" lon="14.6003983"><ele>112.0</ele><time>2026-04-04T09:26:19.827Z</time></trkpt><trkpt lat="42.1780967" lon="14.600465"><ele>111.85714285714286</ele><time>2026-04-04T09:26:20.828Z</time></trkpt><trkpt lat="42.1781467" lon="14.60053"><ele>111.71428571428572</ele><time>2026-04-04T09:26:21.827Z</time></trkpt><trkpt lat="42.1781967" lon="14.6005917"><ele>111.57142857142857</ele><time>2026-04-04T09:26:22.827Z</time></trkpt><trkpt lat="42.1782433" lon="14.60065"><ele>111.42857142857143</ele><time>2026-04-04T09:26:23.827Z</time></trkpt><trkpt lat="42.17829" lon="14.60071"><ele>111.28571428571429</ele><time>2026-04-04T09:26:24.827Z</time></trkpt><trkpt lat="42.1783417" lon="14.600775"><ele>111.14285714285714</ele><time>2026-04-04T09:26:25.827Z</time></trkpt><trkpt lat="42.1783917" lon="14.6008383"><ele>111.0</ele><time>2026-04-04T09:26:26.827Z</time></trkpt><trkpt lat="42.1784417" lon="14.600905"><ele>111.0</ele><time>2026-04-04T09:26:27.827Z</time></trkpt><trkpt lat="42.1784883" lon="14.6009767"><ele>111.0</ele><time>2026-04-04T09:26:28.828Z</time></trkpt><trkpt lat="42.1785417" lon="14.6010467"><ele>111.0</ele><time>2026-04-04T09:26:29.827Z</time></trkpt><trkpt lat="42.1785883" lon="14.6011167"><ele>111.0</ele><time>2026-04-04T09:26:30.827Z</time></trkpt><trkpt lat="42.1786383" lon="14.6011817"><ele>111.0</ele><time>2026-04-04T09:26:31.827Z</time></trkpt><trkpt lat="42.178685" lon="14.601245"><ele>111.0</ele><time>2026-04-04T09:26:32.827Z</time></trkpt><trkpt lat="42.17873" lon="14.60131"><ele>111.0</ele><time>2026-04-04T09:26:33.827Z</time></trkpt><trkpt lat="42.17878" lon="14.6013683"><ele>111.14285714285714</ele><time>2026-04-04T09:26:34.827Z</time></trkpt><trkpt lat="42.1788283" lon="14.6014267"><ele>111.28571428571429</ele><time>2026-04-04T09:26:35.827Z</time></trkpt><trkpt lat="42.178885" lon="14.60148"><ele>111.42857142857143</ele><time>2026-04-04T09:26:36.828Z</time></trkpt><trkpt lat="42.17894" lon="14.60153"><ele>111.57142857142857</ele><time>2026-04-04T09:26:37.827Z</time></trkpt><trkpt lat="42.179" lon="14.6015867"><ele>111.71428571428572</ele><time>2026-04-04T09:26:38.827Z</time></trkpt><trkpt lat="42.1790617" lon="14.60164"><ele>111.85714285714286</ele><time>2026-04-04T09:26:39.827Z</time></trkpt><trkpt lat="42.1791233" lon="14.6016967"><ele>112.0</ele><time>2026-04-04T09:26:40.827Z</time></trkpt><trkpt lat="42.1791817" lon="14.6017533"><ele>111.57142857142857</ele><time>2026-04-04T09:26:41.827Z</time></trkpt><trkpt lat="42.1792417" lon="14.60181"><ele>111.14285714285714</ele><time>2026-04-04T09:26:42.827Z</time></trkpt><trkpt lat="42.1792933" lon="14.6018633"><ele>110.71428571428572</ele><time>2026-04-04T09:26:43.827Z</time></trkpt><trkpt lat="42.1793517" lon="14.6019233"><ele>110.28571428571428</ele><time>2026-04-04T09:26:44.827Z</time></trkpt><trkpt lat="42.179405" lon="14.6019933"><ele>109.85714285714286</ele><time>2026-04-04T09:26:45.828Z</time></trkpt><trkpt lat="42.1794567" lon="14.6020567"><ele>109.42857142857143</ele><time>2026-04-04T09:26:46.827Z</time></trkpt><trkpt lat="42.1795083" lon="14.6021233"><ele>109.0</ele><time>2026-04-04T09:26:47.828Z</time></trkpt><trkpt lat="42.179555" lon="14.60219"><ele>108.71428571428572</ele><time>2026-04-04T09:26:48.827Z</time></trkpt><trkpt lat="42.1796" lon="14.6022583"><ele>108.42857142857143</ele><time>2026-04-04T09:26:49.827Z</time></trkpt><trkpt lat="42.1796433" lon="14.6023233"><ele>108.14285714285714</ele><time>2026-04-04T09:26:50.827Z</time></trkpt><trkpt lat="42.1796867" lon="14.6023867"><ele>107.85714285714286</ele><time>2026-04-04T09:26:51.827Z</time></trkpt><trkpt lat="42.1797317" lon="14.6024533"><ele>107.57142857142857</ele><time>2026-04-04T09:26:52.827Z</time></trkpt><trkpt lat="42.1797767" lon="14.60252"><ele>107.28571428571429</ele><time>2026-04-04T09:26:53.827Z</time></trkpt><trkpt lat="42.1798183" lon="14.6025883"><ele>107.0</ele><time>2026-04-04T09:26:54.827Z</time></trkpt><trkpt lat="42.1799" lon="14.602715"><ele>106.66666666666666</ele><time>2026-04-04T09:26:56.827Z</time></trkpt><trkpt lat="42.1799433" lon="14.6027867"><ele>106.33333333333333</ele><time>2026-04-04T09:26:57.828Z</time></trkpt><trkpt lat="42.17999" lon="14.6028533"><ele>106.0</ele><time>2026-04-04T09:26:58.827Z</time></trkpt><trkpt lat="42.180035" lon="14.6029167"><ele>105.66666666666666</ele><time>2026-04-04T09:26:59.827Z</time></trkpt><trkpt lat="42.180085" lon="14.6029767"><ele>105.33333333333333</ele><time>2026-04-04T09:27:00.828Z</time></trkpt><trkpt lat="42.1801817" lon="14.6030817"><ele>105.0</ele><time>2026-04-04T09:27:02.828Z</time></trkpt><trkpt lat="42.1802317" lon="14.6031383"><ele>104.85714285714286</ele><time>2026-04-04T09:27:03.828Z</time></trkpt><trkpt lat="42.1802883" lon="14.60319"><ele>104.71428571428572</ele><time>2026-04-04T09:27:04.828Z</time></trkpt><trkpt lat="42.1803467" lon="14.6032367"><ele>104.57142857142857</ele><time>2026-04-04T09:27:05.828Z</time></trkpt><trkpt lat="42.180405" lon="14.603285"><ele>104.42857142857143</ele><time>2026-04-04T09:27:06.827Z</time></trkpt><trkpt lat="42.1804617" lon="14.6033283"><ele>104.28571428571429</ele><time>2026-04-04T09:27:07.827Z</time></trkpt><trkpt lat="42.1805183" lon="14.6033783"><ele>104.14285714285714</ele><time>2026-04-04T09:27:08.827Z</time></trkpt><trkpt lat="42.1805767" lon="14.6034267"><ele>104.0</ele><time>2026-04-04T09:27:09.827Z</time></trkpt><trkpt lat="42.1806833" lon="14.6034883"><ele>103.83333333333333</ele><time>2026-04-04T09:27:11.827Z</time></trkpt><trkpt lat="42.1807417" lon="14.6035333"><ele>103.66666666666666</ele><time>2026-04-04T09:27:12.827Z</time></trkpt><trkpt lat="42.1808583" lon="14.6036167"><ele>103.5</ele><time>2026-04-04T09:27:14.828Z</time></trkpt><trkpt lat="42.180925" lon="14.6036617"><ele>103.33333333333334</ele><time>2026-04-04T09:27:15.827Z</time></trkpt><trkpt lat="42.1809933" lon="14.603695"><ele>103.16666666666667</ele><time>2026-04-04T09:27:16.827Z</time></trkpt><trkpt lat="42.1810583" lon="14.6037283"><ele>103.0</ele><time>2026-04-04T09:27:17.827Z</time></trkpt><trkpt lat="42.1811217" lon="14.6037617"><ele>102.83333333333334</ele><time>2026-04-04T09:27:18.828Z</time></trkpt><trkpt lat="42.1811867" lon="14.6038"><ele>102.66666666666667</ele><time>2026-04-04T09:27:19.828Z</time></trkpt><trkpt lat="42.18125" lon="14.6038283"><ele>102.5</ele><time>2026-04-04T09:27:20.828Z</time></trkpt><trkpt lat="42.1813133" lon="14.6038617"><ele>102.33333333333334</ele><time>2026-04-04T09:27:21.827Z</time></trkpt><trkpt lat="42.1813717" lon="14.603895"><ele>102.16666666666667</ele><time>2026-04-04T09:27:22.827Z</time></trkpt><trkpt lat="42.1814867" lon="14.603955"><ele>102.0</ele><time>2026-04-04T09:27:24.827Z</time></trkpt><trkpt lat="42.18155" lon="14.6039883"><ele>101.85714285714286</ele><time>2026-04-04T09:27:25.827Z</time></trkpt><trkpt lat="42.1816133" lon="14.6040233"><ele>101.71428571428572</ele><time>2026-04-04T09:27:26.827Z</time></trkpt><trkpt lat="42.1816767" lon="14.6040617"><ele>101.57142857142857</ele><time>2026-04-04T09:27:27.827Z</time></trkpt><trkpt lat="42.1817417" lon="14.6041"><ele>101.42857142857143</ele><time>2026-04-04T09:27:28.828Z</time></trkpt><trkpt lat="42.181805" lon="14.6041367"><ele>101.28571428571428</ele><time>2026-04-04T09:27:29.827Z</time></trkpt><trkpt lat="42.1818683" lon="14.6041717"><ele>101.14285714285714</ele><time>2026-04-04T09:27:30.827Z</time></trkpt><trkpt lat="42.1819317" lon="14.6042067"><ele>101.0</ele><time>2026-04-04T09:27:31.827Z</time></trkpt><trkpt lat="42.181995" lon="14.6042433"><ele>101.0</ele><time>2026-04-04T09:27:32.827Z</time></trkpt><trkpt lat="42.1820617" lon="14.6042817"><ele>101.0</ele><time>2026-04-04T09:27:33.827Z</time></trkpt><trkpt lat="42.1821267" lon="14.6043133"><ele>101.0</ele><time>2026-04-04T09:27:34.828Z</time></trkpt><trkpt lat="42.1821933" lon="14.6043467"><ele>101.0</ele><time>2026-04-04T09:27:35.827Z</time></trkpt><trkpt lat="42.1822633" lon="14.604385"><ele>101.0</ele><time>2026-04-04T09:27:36.827Z</time></trkpt><trkpt lat="42.1823317" lon="14.6044233"><ele>101.0</ele><time>2026-04-04T09:27:37.827Z</time></trkpt><trkpt lat="42.1824" lon="14.60446"><ele>101.0</ele><time>2026-04-04T09:27:38.827Z</time></trkpt><trkpt lat="42.1824667" lon="14.6044917"><ele>100.28571428571428</ele><time>2026-04-04T09:27:39.828Z</time></trkpt><trkpt lat="42.1825317" lon="14.60453"><ele>99.57142857142857</ele><time>2026-04-04T09:27:40.827Z</time></trkpt><trkpt lat="42.182595" lon="14.6045717"><ele>98.85714285714286</ele><time>2026-04-04T09:27:41.828Z</time></trkpt><trkpt lat="42.1826633" lon="14.6046083"><ele>98.14285714285714</ele><time>2026-04-04T09:27:42.827Z</time></trkpt><trkpt lat="42.182735" lon="14.6046433"><ele>97.42857142857143</ele><time>2026-04-04T09:27:43.827Z</time></trkpt><trkpt lat="42.1828067" lon="14.6046717"><ele>96.71428571428571</ele><time>2026-04-04T09:27:44.827Z</time></trkpt><trkpt lat="42.1828767" lon="14.6046967"><ele>96.0</ele><time>2026-04-04T09:27:45.827Z</time></trkpt><trkpt lat="42.1829417" lon="14.6047233"><ele>96.0</ele><time>2026-04-04T09:27:46.828Z</time></trkpt><trkpt lat="42.18301" lon="14.6047417"><ele>96.0</ele><time>2026-04-04T09:27:47.827Z</time></trkpt><trkpt lat="42.183075" lon="14.6047617"><ele>96.0</ele><time>2026-04-04T09:27:48.827Z</time></trkpt><trkpt lat="42.1831433" lon="14.6047783"><ele>96.0</ele><time>2026-04-04T09:27:49.828Z</time></trkpt><trkpt lat="42.1832633" lon="14.6048367"><ele>96.0</ele><time>2026-04-04T09:27:51.827Z</time></trkpt><trkpt lat="42.1833217" lon="14.6048717"><ele>96.0</ele><time>2026-04-04T09:27:52.827Z</time></trkpt><trkpt lat="42.183375" lon="14.6049183"><ele>95.25</ele><time>2026-04-04T09:27:53.827Z</time></trkpt><trkpt lat="42.1834417" lon="14.6050633"><ele>94.5</ele><time>2026-04-04T09:27:55.827Z</time></trkpt><trkpt lat="42.18348" lon="14.6052217"><ele>93.75</ele><time>2026-04-04T09:27:57.828Z</time></trkpt><trkpt lat="42.183515" lon="14.6053717"><ele>93.0</ele><time>2026-04-04T09:27:59.827Z</time></trkpt><trkpt lat="42.1835533" lon="14.6055033"><ele>92.0</ele><time>2026-04-04T09:28:01.828Z</time></trkpt><trkpt lat="42.1835767" lon="14.6056017"><ele>91.0</ele><time>2026-04-04T09:28:03.827Z</time></trkpt><trkpt lat="42.1836667" lon="14.6056117"><ele>90.0</ele><time>2026-04-04T09:28:06.827Z</time></trkpt><trkpt lat="42.1837583" lon="14.60555"><ele>89.0</ele><time>2026-04-04T09:28:08.827Z</time></trkpt><trkpt lat="42.1838633" lon="14.6054717"><ele>88.0</ele><time>2026-04-04T09:28:10.827Z</time></trkpt><trkpt lat="42.1839217" lon="14.6054317"><ele>88.0</ele><time>2026-04-04T09:28:11.827Z</time></trkpt><trkpt lat="42.183985" lon="14.6054133"><ele>88.0</ele><time>2026-04-04T09:28:12.828Z</time></trkpt><trkpt lat="42.1840483" lon="14.605405"><ele>88.0</ele><time>2026-04-04T09:28:13.827Z</time></trkpt><trkpt lat="42.1841133" lon="14.605415"><ele>88.0</ele><time>2026-04-04T09:28:14.827Z</time></trkpt><trkpt lat="42.18418" lon="14.6054317"><ele>88.0</ele><time>2026-04-04T09:28:15.827Z</time></trkpt><trkpt lat="42.1842467" lon="14.6054467"><ele>88.0</ele><time>2026-04-04T09:28:16.827Z</time></trkpt><trkpt lat="42.184315" lon="14.6054617"><ele>88.0</ele><time>2026-04-04T09:28:17.827Z</time></trkpt><trkpt lat="42.1843767" lon="14.6054833"><ele>88.42857142857143</ele><time>2026-04-04T09:28:18.828Z</time></trkpt><trkpt lat="42.1844383" lon="14.6055017"><ele>88.85714285714286</ele><time>2026-04-04T09:28:19.827Z</time></trkpt><trkpt lat="42.1845033" lon="14.6055183"><ele>89.28571428571428</ele><time>2026-04-04T09:28:20.827Z</time></trkpt><trkpt lat="42.1845667" lon="14.6055367"><ele>89.71428571428572</ele><time>2026-04-04T09:28:21.827Z</time></trkpt><trkpt lat="42.1846283" lon="14.6055567"><ele>90.14285714285714</ele><time>2026-04-04T09:28:22.827Z</time></trkpt><trkpt lat="42.184695" lon="14.6055717"><ele>90.57142857142857</ele><time>2026-04-04T09:28:23.827Z</time></trkpt><trkpt lat="42.1848067" lon="14.605595"><ele>91.0</ele><time>2026-04-04T09:28:25.828Z</time></trkpt><trkpt lat="42.1849183" lon="14.6056183"><ele>91.5</ele><time>2026-04-04T09:28:27.827Z</time></trkpt><trkpt lat="42.18503" lon="14.6056333"><ele>92.0</ele><time>2026-04-04T09:28:29.828Z</time></trkpt><trkpt lat="42.185145" lon="14.605655"><ele>92.5</ele><time>2026-04-04T09:28:31.827Z</time></trkpt><trkpt lat="42.1852617" lon="14.6056667"><ele>93.0</ele><time>2026-04-04T09:28:33.827Z</time></trkpt><trkpt lat="42.1853767" lon="14.6056767"><ele>93.0</ele><time>2026-04-04T09:28:35.828Z</time></trkpt><trkpt lat="42.1854917" lon="14.6056783"><ele>93.0</ele><time>2026-04-04T09:28:37.827Z</time></trkpt><trkpt lat="42.1855583" lon="14.605675"><ele>93.0</ele><time>2026-04-04T09:28:38.827Z</time></trkpt><trkpt lat="42.1856817" lon="14.6056683"><ele>93.0</ele><time>2026-04-04T09:28:40.827Z</time></trkpt><trkpt lat="42.1858033" lon="14.605655"><ele>93.0</ele><time>2026-04-04T09:28:42.828Z</time></trkpt><trkpt lat="42.185915" lon="14.60565"><ele>92.2</ele><time>2026-04-04T09:28:44.827Z</time></trkpt><trkpt lat="42.1860467" lon="14.6056433"><ele>91.4</ele><time>2026-04-04T09:28:46.827Z</time></trkpt><trkpt lat="42.1861167" lon="14.605635"><ele>90.60000000000001</ele><time>2026-04-04T09:28:47.827Z</time></trkpt><trkpt lat="42.186185" lon="14.60563"><ele>89.80000000000001</ele><time>2026-04-04T09:28:48.827Z</time></trkpt><trkpt lat="42.1863133" lon="14.6056117"><ele>89.0</ele><time>2026-04-04T09:28:50.827Z</time></trkpt><trkpt lat="42.1863783" lon="14.6056"><ele>89.0</ele><time>2026-04-04T09:28:51.827Z</time></trkpt><trkpt lat="42.186445" lon="14.6055833"><ele>89.0</ele><time>2026-04-04T09:28:52.827Z</time></trkpt><trkpt lat="42.1865683" lon="14.60555"><ele>89.0</ele><time>2026-04-04T09:28:54.827Z</time></trkpt><trkpt lat="42.1866333" lon="14.6055333"><ele>89.0</ele><time>2026-04-04T09:28:55.827Z</time></trkpt><trkpt lat="42.186705" lon="14.60551"><ele>89.0</ele><time>2026-04-04T09:28:56.828Z</time></trkpt><trkpt lat="42.1867783" lon="14.60549"><ele>89.0</ele><time>2026-04-04T09:28:57.827Z</time></trkpt><trkpt lat="42.18685" lon="14.6054733"><ele>88.85714285714285</ele><time>2026-04-04T09:28:58.827Z</time></trkpt><trkpt lat="42.1869233" lon="14.60546"><ele>88.71428571428571</ele><time>2026-04-04T09:28:59.827Z</time></trkpt><trkpt lat="42.1869933" lon="14.6054483"><ele>88.57142857142857</ele><time>2026-04-04T09:29:00.828Z</time></trkpt><trkpt lat="42.1870633" lon="14.605435"><ele>88.42857142857142</ele><time>2026-04-04T09:29:01.827Z</time></trkpt><trkpt lat="42.187135" lon="14.605415"><ele>88.28571428571428</ele><time>2026-04-04T09:29:02.827Z</time></trkpt><trkpt lat="42.1872017" lon="14.6054033"><ele>88.14285714285714</ele><time>2026-04-04T09:29:03.827Z</time></trkpt><trkpt lat="42.187275" lon="14.6053867"><ele>88.0</ele><time>2026-04-04T09:29:04.827Z</time></trkpt><trkpt lat="42.1873433" lon="14.605375"><ele>87.71428571428572</ele><time>2026-04-04T09:29:05.827Z</time></trkpt><trkpt lat="42.1874117" lon="14.60536"><ele>87.42857142857143</ele><time>2026-04-04T09:29:06.827Z</time></trkpt><trkpt lat="42.1874783" lon="14.60534"><ele>87.14285714285714</ele><time>2026-04-04T09:29:07.827Z</time></trkpt><trkpt lat="42.18755" lon="14.60532"><ele>86.85714285714286</ele><time>2026-04-04T09:29:08.827Z</time></trkpt><trkpt lat="42.1876233" lon="14.605305"><ele>86.57142857142857</ele><time>2026-04-04T09:29:09.827Z</time></trkpt><trkpt lat="42.1876917" lon="14.60529"><ele>86.28571428571429</ele><time>2026-04-04T09:29:10.828Z</time></trkpt><trkpt lat="42.18776" lon="14.6052733"><ele>86.0</ele><time>2026-04-04T09:29:11.827Z</time></trkpt><trkpt lat="42.18783" lon="14.605255"><ele>85.14285714285715</ele><time>2026-04-04T09:29:12.827Z</time></trkpt><trkpt lat="42.1878983" lon="14.60524"><ele>84.28571428571429</ele><time>2026-04-04T09:29:13.827Z</time></trkpt><trkpt lat="42.18797" lon="14.6052183"><ele>83.42857142857143</ele><time>2026-04-04T09:29:14.827Z</time></trkpt><trkpt lat="42.1880433" lon="14.605205"><ele>82.57142857142858</ele><time>2026-04-04T09:29:15.827Z</time></trkpt><trkpt lat="42.1881167" lon="14.6051917"><ele>81.71428571428572</ele><time>2026-04-04T09:29:16.828Z</time></trkpt><trkpt lat="42.1881867" lon="14.6051783"><ele>80.85714285714286</ele><time>2026-04-04T09:29:17.827Z</time></trkpt><trkpt lat="42.188265" lon="14.6051667"><ele>80.0</ele><time>2026-04-04T09:29:18.828Z</time></trkpt><trkpt lat="42.18834" lon="14.605155"><ele>79.0</ele><time>2026-04-04T09:29:19.827Z</time></trkpt><trkpt lat="42.1884167" lon="14.60514"><ele>78.0</ele><time>2026-04-04T09:29:20.827Z</time></trkpt><trkpt lat="42.1884883" lon="14.6051267"><ele>77.0</ele><time>2026-04-04T09:29:21.827Z</time></trkpt><trkpt lat="42.1885633" lon="14.6051083"><ele>76.0</ele><time>2026-04-04T09:29:22.827Z</time></trkpt><trkpt lat="42.1886433" lon="14.6050917"><ele>75.0</ele><time>2026-04-04T09:29:23.827Z</time></trkpt><trkpt lat="42.188725" lon="14.60508"><ele>74.0</ele><time>2026-04-04T09:29:24.828Z</time></trkpt><trkpt lat="42.188805" lon="14.6050667"><ele>74.0</ele><time>2026-04-04T09:29:25.827Z</time></trkpt><trkpt lat="42.188875" lon="14.6050533"><ele>74.0</ele><time>2026-04-04T09:29:26.828Z</time></trkpt><trkpt lat="42.1889517" lon="14.605035"><ele>74.0</ele><time>2026-04-04T09:29:27.827Z</time></trkpt><trkpt lat="42.1890283" lon="14.605"><ele>74.0</ele><time>2026-04-04T09:29:28.827Z</time></trkpt><trkpt lat="42.1891067" lon="14.6049483"><ele>74.0</ele><time>2026-04-04T09:29:29.828Z</time></trkpt><trkpt lat="42.1891867" lon="14.6048833"><ele>74.0</ele><time>2026-04-04T09:29:30.827Z</time></trkpt><trkpt lat="42.1892683" lon="14.6048167"><ele>73.60000000000001</ele><time>2026-04-04T09:29:31.827Z</time></trkpt><trkpt lat="42.1893467" lon="14.6047517"><ele>73.2</ele><time>2026-04-04T09:29:32.827Z</time></trkpt><trkpt lat="42.18942" lon="14.6046833"><ele>72.80000000000001</ele><time>2026-04-04T09:29:33.827Z</time></trkpt><trkpt lat="42.1894983" lon="14.6046067"><ele>72.4</ele><time>2026-04-04T09:29:34.828Z</time></trkpt><trkpt lat="42.18957" lon="14.604525"><ele>72.0</ele><time>2026-04-04T09:29:35.827Z</time></trkpt><trkpt lat="42.1896433" lon="14.60445"><ele>70.5</ele><time>2026-04-04T09:29:36.828Z</time></trkpt><trkpt lat="42.18972" lon="14.60439"><ele>69.0</ele><time>2026-04-04T09:29:37.828Z</time></trkpt><trkpt lat="42.1897867" lon="14.6043283"><ele>67.5</ele><time>2026-04-04T09:29:38.827Z</time></trkpt><trkpt lat="42.18985" lon="14.6042717"><ele>66.0</ele><time>2026-04-04T09:29:39.827Z</time></trkpt><trkpt lat="42.1899133" lon="14.6042183"><ele>64.5</ele><time>2026-04-04T09:29:40.827Z</time></trkpt><trkpt lat="42.1899783" lon="14.6041717"><ele>63.0</ele><time>2026-04-04T09:29:41.827Z</time></trkpt><trkpt lat="42.19005" lon="14.6041467"><ele>61.0</ele><time>2026-04-04T09:29:42.827Z</time></trkpt><trkpt lat="42.1901317" lon="14.6041217"><ele>59.0</ele><time>2026-04-04T09:29:43.827Z</time></trkpt><trkpt lat="42.19022" lon="14.604105"><ele>57.0</ele><time>2026-04-04T09:29:44.828Z</time></trkpt><trkpt lat="42.19033" lon="14.6041217"><ele>55.0</ele><time>2026-04-04T09:29:45.827Z</time></trkpt><trkpt lat="42.19045" lon="14.6041267"><ele>53.0</ele><time>2026-04-04T09:29:46.827Z</time></trkpt><trkpt lat="42.1905667" lon="14.6041483"><ele>50.8</ele><time>2026-04-04T09:29:47.827Z</time></trkpt><trkpt lat="42.1906817" lon="14.6041717"><ele>48.599999999999994</ele><time>2026-04-04T09:29:48.828Z</time></trkpt><trkpt lat="42.190795" lon="14.6041983"><ele>46.400000000000006</ele><time>2026-04-04T09:29:49.827Z</time></trkpt><trkpt lat="42.1908983" lon="14.604215"><ele>44.2</ele><time>2026-04-04T09:29:50.827Z</time></trkpt><trkpt lat="42.1910033" lon="14.6042367"><ele>42.0</ele><time>2026-04-04T09:29:51.828Z</time></trkpt><trkpt lat="42.1910983" lon="14.604255"><ele>42.0</ele><time>2026-04-04T09:29:52.827Z</time></trkpt><trkpt lat="42.1911917" lon="14.6042583"><ele>42.0</ele><time>2026-04-04T09:29:53.827Z</time></trkpt><trkpt lat="42.1912817" lon="14.604245"><ele>42.0</ele><time>2026-04-04T09:29:54.828Z</time></trkpt><trkpt lat="42.1913617" lon="14.60423"><ele>42.0</ele><time>2026-04-04T09:29:55.828Z</time></trkpt><trkpt lat="42.1914367" lon="14.6042167"><ele>42.0</ele><time>2026-04-04T09:29:56.827Z</time></trkpt><trkpt lat="42.1915017" lon="14.6042"><ele>42.0</ele><time>2026-04-04T09:29:57.827Z</time></trkpt><trkpt lat="42.19157" lon="14.6041883"><ele>42.5</ele><time>2026-04-04T09:29:58.827Z</time></trkpt><trkpt lat="42.1916833" lon="14.6041883"><ele>43.0</ele><time>2026-04-04T09:30:00.827Z</time></trkpt><trkpt lat="42.1917767" lon="14.6042117"><ele>43.5</ele><time>2026-04-04T09:30:02.828Z</time></trkpt><trkpt lat="42.1918517" lon="14.6042633"><ele>44.0</ele><time>2026-04-04T09:30:04.827Z</time></trkpt><trkpt lat="42.19191" lon="14.6043233"><ele>44.5</ele><time>2026-04-04T09:30:06.827Z</time></trkpt><trkpt lat="42.1919717" lon="14.6043883"><ele>45.0</ele><time>2026-04-04T09:30:08.827Z</time></trkpt><trkpt lat="42.1920183" lon="14.6044717"><ele>44.857142857142854</ele><time>2026-04-04T09:30:10.827Z</time></trkpt><trkpt lat="42.1920617" lon="14.6045467"><ele>44.714285714285715</ele><time>2026-04-04T09:30:12.827Z</time></trkpt><trkpt lat="42.1920933" lon="14.604625"><ele>44.57142857142857</ele><time>2026-04-04T09:30:14.828Z</time></trkpt><trkpt lat="42.192125" lon="14.6047017"><ele>44.42857142857143</ele><time>2026-04-04T09:30:16.827Z</time></trkpt><trkpt lat="42.1921533" lon="14.6047983"><ele>44.285714285714285</ele><time>2026-04-04T09:30:18.828Z</time></trkpt><trkpt lat="42.1921817" lon="14.6048933"><ele>44.142857142857146</ele><time>2026-04-04T09:30:20.827Z</time></trkpt><trkpt lat="42.192205" lon="14.60498"><ele>44.0</ele><time>2026-04-04T09:30:22.827Z</time></trkpt><trkpt lat="42.1922233" lon="14.605065"><ele>44.0</ele><time>2026-04-04T09:30:24.828Z</time></trkpt><trkpt lat="42.1922567" lon="14.6051617"><ele>44.0</ele><time>2026-04-04T09:30:26.827Z</time></trkpt><trkpt lat="42.1922917" lon="14.605255"><ele>44.0</ele><time>2026-04-04T09:30:28.827Z</time></trkpt><trkpt lat="42.192335" lon="14.605345"><ele>44.0</ele><time>2026-04-04T09:30:30.828Z</time></trkpt><trkpt lat="42.1923767" lon="14.605425"><ele>44.0</ele><time>2026-04-04T09:30:32.827Z</time></trkpt><trkpt lat="42.1924267" lon="14.6055067"><ele>44.0</ele><time>2026-04-04T09:30:34.827Z</time></trkpt><trkpt lat="42.1924717" lon="14.6055917"><ele>46.5</ele><time>2026-04-04T09:30:36.828Z</time></trkpt><trkpt lat="42.1925183" lon="14.6056817"><ele>49.0</ele><time>2026-04-04T09:30:38.827Z</time></trkpt><trkpt lat="42.1925683" lon="14.605775"><ele>51.5</ele><time>2026-04-04T09:30:40.827Z</time></trkpt><trkpt lat="42.1926133" lon="14.6058733"><ele>54.0</ele><time>2026-04-04T09:30:42.828Z</time></trkpt><trkpt lat="42.19265" lon="14.6059667"><ele>56.50000000000001</ele><time>2026-04-04T09:30:44.827Z</time></trkpt><trkpt lat="42.1926883" lon="14.606055"><ele>59.0</ele><time>2026-04-04T09:30:46.827Z</time></trkpt><trkpt lat="42.1927183" lon="14.6061433"><ele>58.857142857142854</ele><time>2026-04-04T09:30:48.827Z</time></trkpt><trkpt lat="42.1927433" lon="14.6062333"><ele>58.71428571428572</ele><time>2026-04-04T09:30:50.827Z</time></trkpt><trkpt lat="42.1927617" lon="14.6063283"><ele>58.57142857142858</ele><time>2026-04-04T09:30:52.828Z</time></trkpt><trkpt lat="42.192775" lon="14.60642"><ele>58.42857142857143</ele><time>2026-04-04T09:30:54.827Z</time></trkpt><trkpt lat="42.192785" lon="14.606505"><ele>58.28571428571429</ele><time>2026-04-04T09:30:56.827Z</time></trkpt><trkpt lat="42.192795" lon="14.6066133"><ele>58.14285714285715</ele><time>2026-04-04T09:30:59.828Z</time></trkpt><trkpt lat="42.1927967" lon="14.6067333"><ele>58.00000000000001</ele><time>2026-04-04T09:31:02.827Z</time></trkpt><trkpt lat="42.192795" lon="14.606865"><ele>57.99999999999999</ele><time>2026-04-04T09:31:05.827Z</time></trkpt><trkpt lat="42.1927817" lon="14.6069733"><ele>58.0</ele><time>2026-04-04T09:31:07.828Z</time></trkpt><trkpt lat="42.1927767" lon="14.6070933"><ele>58.0</ele><time>2026-04-04T09:31:09.827Z</time></trkpt><trkpt lat="42.1927867" lon="14.607215"><ele>58.0</ele><time>2026-04-04T09:31:11.828Z</time></trkpt><trkpt lat="42.192805" lon="14.6073383"><ele>57.99999999999999</ele><time>2026-04-04T09:31:13.827Z</time></trkpt><trkpt lat="42.1928283" lon="14.60745"><ele>58.0</ele><time>2026-04-04T09:31:15.827Z</time></trkpt><trkpt lat="42.1928483" lon="14.607555"><ele>57.4</ele><time>2026-04-04T09:31:17.827Z</time></trkpt><trkpt lat="42.1928783" lon="14.6076617"><ele>56.8</ele><time>2026-04-04T09:31:19.827Z</time></trkpt><trkpt lat="42.1929067" lon="14.607775"><ele>56.2</ele><time>2026-04-04T09:31:21.827Z</time></trkpt><trkpt lat="42.19294" lon="14.607895"><ele>55.6</ele><time>2026-04-04T09:31:23.827Z</time></trkpt><trkpt lat="42.19297" lon="14.60802"><ele>55.0</ele><time>2026-04-04T09:31:25.827Z</time></trkpt><trkpt lat="42.1930033" lon="14.6081367"><ele>54.2</ele><time>2026-04-04T09:31:27.827Z</time></trkpt><trkpt lat="42.1930333" lon="14.6082583"><ele>53.4</ele><time>2026-04-04T09:31:29.827Z</time></trkpt><trkpt lat="42.19307" lon="14.6083933"><ele>52.599999999999994</ele><time>2026-04-04T09:31:31.827Z</time></trkpt><trkpt lat="42.19311" lon="14.6085233"><ele>51.8</ele><time>2026-04-04T09:31:33.827Z</time></trkpt><trkpt lat="42.1931417" lon="14.6086583"><ele>51.0</ele><time>2026-04-04T09:31:35.828Z</time></trkpt><trkpt lat="42.19318" lon="14.60881"><ele>53.4</ele><time>2026-04-04T09:31:37.828Z</time></trkpt><trkpt lat="42.1932083" lon="14.608965"><ele>55.8</ele><time>2026-04-04T09:31:39.828Z</time></trkpt><trkpt lat="42.1932367" lon="14.609115"><ele>58.199999999999996</ele><time>2026-04-04T09:31:41.827Z</time></trkpt><trkpt lat="42.1932683" lon="14.60925"><ele>60.599999999999994</ele><time>2026-04-04T09:31:43.827Z</time></trkpt><trkpt lat="42.1933133" lon="14.609375"><ele>63.0</ele><time>2026-04-04T09:31:45.827Z</time></trkpt><trkpt lat="42.19336" lon="14.6094883"><ele>62.833333333333336</ele><time>2026-04-04T09:31:47.827Z</time></trkpt><trkpt lat="42.193415" lon="14.6095933"><ele>62.66666666666667</ele><time>2026-04-04T09:31:49.827Z</time></trkpt><trkpt lat="42.193475" lon="14.6096883"><ele>62.5</ele><time>2026-04-04T09:31:51.827Z</time></trkpt><trkpt lat="42.1935267" lon="14.609755"><ele>62.333333333333336</ele><time>2026-04-04T09:31:53.827Z</time></trkpt><trkpt lat="42.1935733" lon="14.6098283"><ele>62.16666666666667</ele><time>2026-04-04T09:31:55.827Z</time></trkpt><trkpt lat="42.19363" lon="14.60993"><ele>62.0</ele><time>2026-04-04T09:31:57.827Z</time></trkpt><trkpt lat="42.193705" lon="14.6100533"><ele>62.0</ele><time>2026-04-04T09:31:59.827Z</time></trkpt><trkpt lat="42.1937483" lon="14.6101183"><ele>62.0</ele><time>2026-04-04T09:32:00.828Z</time></trkpt><trkpt lat="42.19382" lon="14.6102317"><ele>62.0</ele><time>2026-04-04T09:32:02.827Z</time></trkpt><trkpt lat="42.1938883" lon="14.6103333"><ele>62.0</ele><time>2026-04-04T09:32:04.828Z</time></trkpt><trkpt lat="42.193955" lon="14.6104317"><ele>62.0</ele><time>2026-04-04T09:32:06.828Z</time></trkpt><trkpt lat="42.1940217" lon="14.61054"><ele>62.6</ele><time>2026-04-04T09:32:08.828Z</time></trkpt><trkpt lat="42.1940883" lon="14.6106533"><ele>63.2</ele><time>2026-04-04T09:32:10.827Z</time></trkpt><trkpt lat="42.1941567" lon="14.6107517"><ele>63.8</ele><time>2026-04-04T09:32:12.827Z</time></trkpt><trkpt lat="42.1942233" lon="14.6108583"><ele>64.4</ele><time>2026-04-04T09:32:14.827Z</time></trkpt><trkpt lat="42.1942933" lon="14.6109567"><ele>65.0</ele><time>2026-04-04T09:32:16.827Z</time></trkpt><trkpt lat="42.19436" lon="14.6110633"><ele>63.8</ele><time>2026-04-04T09:32:18.827Z</time></trkpt><trkpt lat="42.1944367" lon="14.6111633"><ele>62.6</ele><time>2026-04-04T09:32:20.827Z</time></trkpt><trkpt lat="42.194515" lon="14.611265"><ele>61.400000000000006</ele><time>2026-04-04T09:32:22.827Z</time></trkpt><trkpt lat="42.19459" lon="14.6113733"><ele>60.2</ele><time>2026-04-04T09:32:24.827Z</time></trkpt><trkpt lat="42.1946683" lon="14.6114733"><ele>59.0</ele><time>2026-04-04T09:32:26.827Z</time></trkpt><trkpt lat="42.1947367" lon="14.6115767"><ele>59.0</ele><time>2026-04-04T09:32:28.828Z</time></trkpt><trkpt lat="42.1948183" lon="14.6116817"><ele>59.00000000000001</ele><time>2026-04-04T09:32:30.827Z</time></trkpt><trkpt lat="42.1948967" lon="14.6117767"><ele>59.00000000000001</ele><time>2026-04-04T09:32:32.827Z</time></trkpt><trkpt lat="42.1949667" lon="14.611865"><ele>59.0</ele><time>2026-04-04T09:32:34.827Z</time></trkpt><trkpt lat="42.1950417" lon="14.6119567"><ele>59.0</ele><time>2026-04-04T09:32:36.827Z</time></trkpt><trkpt lat="42.1951083" lon="14.6120417"><ele>59.2</ele><time>2026-04-04T09:32:38.827Z</time></trkpt><trkpt lat="42.1951833" lon="14.6121533"><ele>59.400000000000006</ele><time>2026-04-04T09:32:40.827Z</time></trkpt><trkpt lat="42.19526" lon="14.61227"><ele>59.6</ele><time>2026-04-04T09:32:42.828Z</time></trkpt><trkpt lat="42.1953333" lon="14.6123817"><ele>59.8</ele><time>2026-04-04T09:32:44.828Z</time></trkpt><trkpt lat="42.195415" lon="14.6124817"><ele>60.0</ele><time>2026-04-04T09:32:46.827Z</time></trkpt><trkpt lat="42.1955033" lon="14.6125967"><ele>60.0</ele><time>2026-04-04T09:32:48.827Z</time></trkpt><trkpt lat="42.1955933" lon="14.6127083"><ele>60.0</ele><time>2026-04-04T09:32:50.828Z</time></trkpt><trkpt lat="42.195675" lon="14.6128133"><ele>60.0</ele><time>2026-04-04T09:32:52.827Z</time></trkpt><trkpt lat="42.1957467" lon="14.6129"><ele>60.0</ele><time>2026-04-04T09:32:54.827Z</time></trkpt><trkpt lat="42.1958267" lon="14.612955"><ele>60.0</ele><time>2026-04-04T09:32:56.827Z</time></trkpt><trkpt lat="42.195895" lon="14.613025"><ele>60.0</ele><time>2026-04-04T09:32:58.827Z</time></trkpt><trkpt lat="42.1959783" lon="14.6131267"><ele>60.0</ele><time>2026-04-04T09:33:00.827Z</time></trkpt><trkpt lat="42.1960217" lon="14.61319"><ele>60.0</ele><time>2026-04-04T09:33:01.828Z</time></trkpt><trkpt lat="42.1961017" lon="14.6132933"><ele>60.0</ele><time>2026-04-04T09:33:03.828Z</time></trkpt><trkpt lat="42.19618" lon="14.6133817"><ele>60.0</ele><time>2026-04-04T09:33:05.827Z</time></trkpt><trkpt lat="42.1962583" lon="14.61348"><ele>60.0</ele><time>2026-04-04T09:33:07.828Z</time></trkpt><trkpt lat="42.1963433" lon="14.61359"><ele>60.0</ele><time>2026-04-04T09:33:09.827Z</time></trkpt><trkpt lat="42.1964283" lon="14.6136983"><ele>60.0</ele><time>2026-04-04T09:33:11.827Z</time></trkpt><trkpt lat="42.1965067" lon="14.6137883"><ele>60.0</ele><time>2026-04-04T09:33:13.827Z</time></trkpt><trkpt lat="42.19658" lon="14.6138833"><ele>60.0</ele><time>2026-04-04T09:33:15.827Z</time></trkpt><trkpt lat="42.1966617" lon="14.61398"><ele>60.0</ele><time>2026-04-04T09:33:17.827Z</time></trkpt><trkpt lat="42.1967367" lon="14.6140583"><ele>60.0</ele><time>2026-04-04T09:33:19.827Z</time></trkpt><trkpt lat="42.1968183" lon="14.6141483"><ele>60.0</ele><time>2026-04-04T09:33:21.827Z</time></trkpt><trkpt lat="42.1969" lon="14.6142367"><ele>60.0</ele><time>2026-04-04T09:33:23.827Z</time></trkpt><trkpt lat="42.1969883" lon="14.6143217"><ele>60.0</ele><time>2026-04-04T09:33:25.827Z</time></trkpt><trkpt lat="42.1970867" lon="14.6143917"><ele>60.0</ele><time>2026-04-04T09:33:27.827Z</time></trkpt><trkpt lat="42.197175" lon="14.614465"><ele>60.0</ele><time>2026-04-04T09:33:29.827Z</time></trkpt><trkpt lat="42.1972617" lon="14.61453"><ele>60.0</ele><time>2026-04-04T09:33:31.828Z</time></trkpt><trkpt lat="42.1973567" lon="14.6145783"><ele>60.0</ele><time>2026-04-04T09:33:33.827Z</time></trkpt><trkpt lat="42.1974533" lon="14.6146117"><ele>60.0</ele><time>2026-04-04T09:33:35.827Z</time></trkpt><trkpt lat="42.1975567" lon="14.614625"><ele>59.4</ele><time>2026-04-04T09:33:37.827Z</time></trkpt><trkpt lat="42.1976667" lon="14.6146283"><ele>58.8</ele><time>2026-04-04T09:33:39.827Z</time></trkpt><trkpt lat="42.1977867" lon="14.61462"><ele>58.2</ele><time>2026-04-04T09:33:41.828Z</time></trkpt><trkpt lat="42.19785" lon="14.6146183"><ele>57.6</ele><time>2026-04-04T09:33:42.827Z</time></trkpt><trkpt lat="42.1979733" lon="14.6146"><ele>57.0</ele><time>2026-04-04T09:33:44.827Z</time></trkpt><trkpt lat="42.1980417" lon="14.61459"><ele>57.0</ele><time>2026-04-04T09:33:45.827Z</time></trkpt><trkpt lat="42.1981067" lon="14.614575"><ele>57.0</ele><time>2026-04-04T09:33:46.827Z</time></trkpt><trkpt lat="42.1981783" lon="14.6145533"><ele>57.0</ele><time>2026-04-04T09:33:47.827Z</time></trkpt><trkpt lat="42.198245" lon="14.61453"><ele>57.0</ele><time>2026-04-04T09:33:48.828Z</time></trkpt><trkpt lat="42.19836" lon="14.6144517"><ele>57.0</ele><time>2026-04-04T09:33:50.827Z</time></trkpt><trkpt lat="42.1984483" lon="14.6143417"><ele>56.0</ele><time>2026-04-04T09:33:52.827Z</time></trkpt><trkpt lat="42.198485" lon="14.6142717"><ele>55.0</ele><time>2026-04-04T09:33:53.827Z</time></trkpt><trkpt lat="42.1985183" lon="14.6141867"><ele>54.0</ele><time>2026-04-04T09:33:54.827Z</time></trkpt><trkpt lat="42.1985467" lon="14.6140883"><ele>53.0</ele><time>2026-04-04T09:33:55.828Z</time></trkpt><trkpt lat="42.19857" lon="14.6139867"><ele>52.0</ele><time>2026-04-04T09:33:56.827Z</time></trkpt><trkpt lat="42.19859" lon="14.6138833"><ele>51.0</ele><time>2026-04-04T09:33:57.827Z</time></trkpt><trkpt lat="42.1986017" lon="14.613765"><ele>50.833333333333336</ele><time>2026-04-04T09:33:58.828Z</time></trkpt><trkpt lat="42.19861" lon="14.6136467"><ele>50.66666666666667</ele><time>2026-04-04T09:33:59.827Z</time></trkpt><trkpt lat="42.1986217" lon="14.6135267"><ele>50.5</ele><time>2026-04-04T09:34:00.827Z</time></trkpt><trkpt lat="42.19862" lon="14.61341"><ele>50.333333333333336</ele><time>2026-04-04T09:34:01.827Z</time></trkpt><trkpt lat="42.19862" lon="14.6132867"><ele>50.16666666666667</ele><time>2026-04-04T09:34:02.827Z</time></trkpt><trkpt lat="42.1986133" lon="14.6131667"><ele>50.0</ele><time>2026-04-04T09:34:03.827Z</time></trkpt><trkpt lat="42.1986067" lon="14.6130433"><ele>50.0</ele><time>2026-04-04T09:34:04.827Z</time></trkpt><trkpt lat="42.1986033" lon="14.6129167"><ele>50.0</ele><time>2026-04-04T09:34:05.828Z</time></trkpt><trkpt lat="42.1986" lon="14.6127867"><ele>50.0</ele><time>2026-04-04T09:34:06.827Z</time></trkpt><trkpt lat="42.1985967" lon="14.6126633"><ele>50.0</ele><time>2026-04-04T09:34:07.827Z</time></trkpt><trkpt lat="42.19859" lon="14.6125467"><ele>50.0</ele><time>2026-04-04T09:34:08.827Z</time></trkpt><trkpt lat="42.1985917" lon="14.612435"><ele>49.00000000000001</ele><time>2026-04-04T09:34:09.827Z</time></trkpt><trkpt lat="42.19859" lon="14.6123367"><ele>48.0</ele><time>2026-04-04T09:34:10.827Z</time></trkpt><trkpt lat="42.1986017" lon="14.612245"><ele>47.0</ele><time>2026-04-04T09:34:11.827Z</time></trkpt><trkpt lat="42.198635" lon="14.6121617"><ele>46.0</ele><time>2026-04-04T09:34:12.827Z</time></trkpt><trkpt lat="42.1986867" lon="14.6121033"><ele>45.0</ele><time>2026-04-04T09:34:13.827Z</time></trkpt><trkpt lat="42.1987583" lon="14.6120567"><ele>44.0</ele><time>2026-04-04T09:34:14.827Z</time></trkpt><trkpt lat="42.1988467" lon="14.612025"><ele>44.0</ele><time>2026-04-04T09:34:15.827Z</time></trkpt><trkpt lat="42.198945" lon="14.6120033"><ele>44.0</ele><time>2026-04-04T09:34:16.827Z</time></trkpt><trkpt lat="42.1990417" lon="14.6119783"><ele>44.0</ele><time>2026-04-04T09:34:17.827Z</time></trkpt><trkpt lat="42.19913" lon="14.6119467"><ele>44.0</ele><time>2026-04-04T09:34:18.827Z</time></trkpt><trkpt lat="42.1992017" lon="14.6119183"><ele>44.0</ele><time>2026-04-04T09:34:19.827Z</time></trkpt><trkpt lat="42.1992683" lon="14.6118767"><ele>44.0</ele><time>2026-04-04T09:34:20.827Z</time></trkpt><trkpt lat="42.19933" lon="14.6118167"><ele>40.83333333333333</ele><time>2026-04-04T09:34:21.827Z</time></trkpt><trkpt lat="42.1993867" lon="14.611735"><ele>37.666666666666664</ele><time>2026-04-04T09:34:22.827Z</time></trkpt><trkpt lat="42.1994333" lon="14.6116333"><ele>34.5</ele><time>2026-04-04T09:34:23.827Z</time></trkpt><trkpt lat="42.199475" lon="14.61152"><ele>31.333333333333336</ele><time>2026-04-04T09:34:24.828Z</time></trkpt><trkpt lat="42.1995033" lon="14.6114067"><ele>28.166666666666668</ele><time>2026-04-04T09:34:25.827Z</time></trkpt><trkpt lat="42.199535" lon="14.61129"><ele>25.0</ele><time>2026-04-04T09:34:26.828Z</time></trkpt><trkpt lat="42.1995583" lon="14.6111817"><ele>24.666666666666668</ele><time>2026-04-04T09:34:27.827Z</time></trkpt><trkpt lat="42.1995783" lon="14.6110817"><ele>24.333333333333336</ele><time>2026-04-04T09:34:28.827Z</time></trkpt><trkpt lat="42.1995967" lon="14.6109983"><ele>24.0</ele><time>2026-04-04T09:34:29.827Z</time></trkpt><trkpt lat="42.19963" lon="14.6108667"><ele>23.666666666666668</ele><time>2026-04-04T09:34:31.827Z</time></trkpt><trkpt lat="42.19966" lon="14.61079"><ele>23.333333333333336</ele><time>2026-04-04T09:34:33.828Z</time></trkpt><trkpt lat="42.199705" lon="14.610725"><ele>23.0</ele><time>2026-04-04T09:34:36.827Z</time></trkpt><trkpt lat="42.1996317" lon="14.61047"><ele>23.0</ele><time>2026-04-04T09:35:40.107Z</time></trkpt><trkpt lat="42.1997" lon="14.6105783"><ele>23.0</ele><time>2026-04-04T09:35:41.326Z</time></trkpt><trkpt lat="42.1997" lon="14.6106683"><ele>23.0</ele><time>2026-04-04T09:35:43.326Z</time></trkpt><trkpt lat="42.19971" lon="14.6107617"><ele>23.0</ele><time>2026-04-04T09:35:50.826Z</time></trkpt><trkpt lat="42.199775" lon="14.6108033"><ele>23.0</ele><time>2026-04-04T09:36:29.826Z</time></trkpt><trkpt lat="42.1998017" lon="14.610905"><ele>23.0</ele><time>2026-04-04T09:36:32.826Z</time></trkpt><trkpt lat="42.1998267" lon="14.6109983"><ele>21.166666666666668</ele><time>2026-04-04T09:36:35.827Z</time></trkpt><trkpt lat="42.1998483" lon="14.6110817"><ele>19.333333333333336</ele><time>2026-04-04T09:36:37.826Z</time></trkpt><trkpt lat="42.1998717" lon="14.611185"><ele>17.5</ele><time>2026-04-04T09:36:39.827Z</time></trkpt><trkpt lat="42.199895" lon="14.6113"><ele>15.666666666666668</ele><time>2026-04-04T09:36:41.826Z</time></trkpt><trkpt lat="42.199915" lon="14.6114317"><ele>13.833333333333334</ele><time>2026-04-04T09:36:43.826Z</time></trkpt><trkpt lat="42.1999317" lon="14.6115533"><ele>12.0</ele><time>2026-04-04T09:36:45.826Z</time></trkpt><trkpt lat="42.199945" lon="14.6116833"><ele>12.0</ele><time>2026-04-04T09:36:47.826Z</time></trkpt><trkpt lat="42.1999617" lon="14.6118067"><ele>12.0</ele><time>2026-04-04T09:36:49.826Z</time></trkpt><trkpt lat="42.1999733" lon="14.61192"><ele>12.0</ele><time>2026-04-04T09:36:51.826Z</time></trkpt><trkpt lat="42.1999817" lon="14.6120383"><ele>12.0</ele><time>2026-04-04T09:36:53.827Z</time></trkpt><trkpt lat="42.19999" lon="14.61216"><ele>12.0</ele><time>2026-04-04T09:36:55.826Z</time></trkpt><trkpt lat="42.1999933" lon="14.6122917"><ele>12.2</ele><time>2026-04-04T09:36:57.826Z</time></trkpt><trkpt lat="42.1999933" lon="14.612415"><ele>12.399999999999999</ele><time>2026-04-04T09:36:59.826Z</time></trkpt><trkpt lat="42.1999867" lon="14.612545"><ele>12.600000000000001</ele><time>2026-04-04T09:37:01.826Z</time></trkpt><trkpt lat="42.1999783" lon="14.6126717"><ele>12.8</ele><time>2026-04-04T09:37:03.826Z</time></trkpt><trkpt lat="42.1999667" lon="14.6128017"><ele>13.0</ele><time>2026-04-04T09:37:05.827Z</time></trkpt><trkpt lat="42.1999533" lon="14.6129267"><ele>13.2</ele><time>2026-04-04T09:37:07.826Z</time></trkpt><trkpt lat="42.1999333" lon="14.613055"><ele>13.4</ele><time>2026-04-04T09:37:09.826Z</time></trkpt><trkpt lat="42.1999167" lon="14.6131683"><ele>13.599999999999998</ele><time>2026-04-04T09:37:11.826Z</time></trkpt><trkpt lat="42.1998933" lon="14.613285"><ele>13.799999999999999</ele><time>2026-04-04T09:37:13.826Z</time></trkpt><trkpt lat="42.1998633" lon="14.6134067"><ele>14.0</ele><time>2026-04-04T09:37:15.826Z</time></trkpt><trkpt lat="42.19983" lon="14.6135333"><ele>17.0</ele><time>2026-04-04T09:37:17.826Z</time></trkpt><trkpt lat="42.1997983" lon="14.6136533"><ele>20.0</ele><time>2026-04-04T09:37:19.826Z</time></trkpt><trkpt lat="42.19976" lon="14.6137783"><ele>23.0</ele><time>2026-04-04T09:37:21.826Z</time></trkpt><trkpt lat="42.1997183" lon="14.6138967"><ele>26.0</ele><time>2026-04-04T09:37:23.826Z</time></trkpt><trkpt lat="42.199675" lon="14.6140083"><ele>29.0</ele><time>2026-04-04T09:37:25.826Z</time></trkpt><trkpt lat="42.19963" lon="14.61412"><ele>29.0</ele><time>2026-04-04T09:37:27.826Z</time></trkpt><trkpt lat="42.1995783" lon="14.6142283"><ele>29.0</ele><time>2026-04-04T09:37:29.826Z</time></trkpt><trkpt lat="42.1995217" lon="14.6143383"><ele>29.0</ele><time>2026-04-04T09:37:31.826Z</time></trkpt><trkpt lat="42.1994683" lon="14.614445"><ele>29.0</ele><time>2026-04-04T09:37:33.826Z</time></trkpt><trkpt lat="42.1994017" lon="14.6145667"><ele>29.0</ele><time>2026-04-04T09:37:35.826Z</time></trkpt><trkpt lat="42.1993333" lon="14.614685"><ele>27.4</ele><time>2026-04-04T09:37:37.827Z</time></trkpt><trkpt lat="42.1992767" lon="14.6147967"><ele>25.799999999999997</ele><time>2026-04-04T09:37:39.826Z</time></trkpt><trkpt lat="42.1992217" lon="14.61491"><ele>24.200000000000003</ele><time>2026-04-04T09:37:41.826Z</time></trkpt><trkpt lat="42.19916" lon="14.6150233"><ele>22.6</ele><time>2026-04-04T09:37:43.826Z</time></trkpt><trkpt lat="42.1991033" lon="14.6151283"><ele>21.0</ele><time>2026-04-04T09:37:45.826Z</time></trkpt><trkpt lat="42.19905" lon="14.6152283"><ele>22.8</ele><time>2026-04-04T09:37:47.826Z</time></trkpt><trkpt lat="42.198995" lon="14.6153333"><ele>24.6</ele><time>2026-04-04T09:37:49.826Z</time></trkpt><trkpt lat="42.1989367" lon="14.61543"><ele>26.4</ele><time>2026-04-04T09:37:51.826Z</time></trkpt><trkpt lat="42.19888" lon="14.615545"><ele>28.2</ele><time>2026-04-04T09:37:53.826Z</time></trkpt><trkpt lat="42.1988233" lon="14.6156583"><ele>30.0</ele><time>2026-04-04T09:37:55.826Z</time></trkpt><trkpt lat="42.1987617" lon="14.61577"><ele>30.0</ele><time>2026-04-04T09:37:57.826Z</time></trkpt><trkpt lat="42.1987" lon="14.6158817"><ele>30.0</ele><time>2026-04-04T09:37:59.826Z</time></trkpt><trkpt lat="42.1986383" lon="14.61599"><ele>30.0</ele><time>2026-04-04T09:38:01.826Z</time></trkpt><trkpt lat="42.198575" lon="14.6160983"><ele>30.0</ele><time>2026-04-04T09:38:03.826Z</time></trkpt><trkpt lat="42.198515" lon="14.6162133"><ele>30.0</ele><time>2026-04-04T09:38:05.826Z</time></trkpt><trkpt lat="42.198455" lon="14.6163317"><ele>27.8</ele><time>2026-04-04T09:38:07.827Z</time></trkpt><trkpt lat="42.1983967" lon="14.6164433"><ele>25.6</ele><time>2026-04-04T09:38:09.826Z</time></trkpt><trkpt lat="42.1983367" lon="14.6165483"><ele>23.4</ele><time>2026-04-04T09:38:11.826Z</time></trkpt><trkpt lat="42.1982817" lon="14.6166533"><ele>21.2</ele><time>2026-04-04T09:38:13.826Z</time></trkpt><trkpt lat="42.1982217" lon="14.61676"><ele>19.0</ele><time>2026-04-04T09:38:15.826Z</time></trkpt><trkpt lat="42.19817" lon="14.61686"><ele>21.6</ele><time>2026-04-04T09:38:17.826Z</time></trkpt><trkpt lat="42.19812" lon="14.6169667"><ele>24.2</ele><time>2026-04-04T09:38:19.826Z</time></trkpt><trkpt lat="42.1980633" lon="14.6170767"><ele>26.800000000000004</ele><time>2026-04-04T09:38:21.827Z</time></trkpt><trkpt lat="42.1980017" lon="14.6171967"><ele>29.400000000000002</ele><time>2026-04-04T09:38:23.826Z</time></trkpt><trkpt lat="42.1979483" lon="14.6173067"><ele>32.0</ele><time>2026-04-04T09:38:25.826Z</time></trkpt><trkpt lat="42.1979017" lon="14.617405"><ele>32.0</ele><time>2026-04-04T09:38:27.826Z</time></trkpt><trkpt lat="42.1978517" lon="14.61751"><ele>32.0</ele><time>2026-04-04T09:38:29.826Z</time></trkpt><trkpt lat="42.1978033" lon="14.6176233"><ele>32.0</ele><time>2026-04-04T09:38:31.826Z</time></trkpt><trkpt lat="42.1977583" lon="14.61774"><ele>32.0</ele><time>2026-04-04T09:38:33.826Z</time></trkpt><trkpt lat="42.1977133" lon="14.6178617"><ele>32.0</ele><time>2026-04-04T09:38:35.827Z</time></trkpt><trkpt lat="42.197675" lon="14.6179817"><ele>30.6</ele><time>2026-04-04T09:38:37.826Z</time></trkpt><trkpt lat="42.1976383" lon="14.6181117"><ele>29.200000000000003</ele><time>2026-04-04T09:38:39.826Z</time></trkpt><trkpt lat="42.197605" lon="14.6182483"><ele>27.8</ele><time>2026-04-04T09:38:41.827Z</time></trkpt><trkpt lat="42.1975783" lon="14.618395"><ele>26.4</ele><time>2026-04-04T09:38:43.826Z</time></trkpt><trkpt lat="42.1975517" lon="14.6185333"><ele>25.0</ele><time>2026-04-04T09:38:45.826Z</time></trkpt><trkpt lat="42.1975283" lon="14.6186783"><ele>24.0</ele><time>2026-04-04T09:38:47.826Z</time></trkpt><trkpt lat="42.1975017" lon="14.6188167"><ele>23.0</ele><time>2026-04-04T09:38:49.827Z</time></trkpt><trkpt lat="42.197475" lon="14.618965"><ele>22.0</ele><time>2026-04-04T09:38:51.826Z</time></trkpt><trkpt lat="42.1974517" lon="14.6191117"><ele>21.0</ele><time>2026-04-04T09:38:53.826Z</time></trkpt><trkpt lat="42.1974233" lon="14.6192767"><ele>21.0</ele><time>2026-04-04T09:38:55.827Z</time></trkpt><trkpt lat="42.197395" lon="14.61944"><ele>21.0</ele><time>2026-04-04T09:38:57.826Z</time></trkpt><trkpt lat="42.1973767" lon="14.61953"><ele>21.0</ele><time>2026-04-04T09:38:58.826Z</time></trkpt><trkpt lat="42.1973617" lon="14.6196167"><ele>21.0</ele><time>2026-04-04T09:38:59.826Z</time></trkpt><trkpt lat="42.1973517" lon="14.6197017"><ele>21.0</ele><time>2026-04-04T09:39:00.826Z</time></trkpt><trkpt lat="42.1973367" lon="14.6197883"><ele>21.0</ele><time>2026-04-04T09:39:01.826Z</time></trkpt><trkpt lat="42.197325" lon="14.6198733"><ele>21.428571428571427</ele><time>2026-04-04T09:39:02.826Z</time></trkpt><trkpt lat="42.19731" lon="14.619965"><ele>21.857142857142858</ele><time>2026-04-04T09:39:03.826Z</time></trkpt><trkpt lat="42.1972917" lon="14.6200617"><ele>22.285714285714285</ele><time>2026-04-04T09:39:04.826Z</time></trkpt><trkpt lat="42.1972767" lon="14.6201583"><ele>22.714285714285715</ele><time>2026-04-04T09:39:05.826Z</time></trkpt><trkpt lat="42.197265" lon="14.6202583"><ele>23.142857142857142</ele><time>2026-04-04T09:39:06.827Z</time></trkpt><trkpt lat="42.1972517" lon="14.6203433"><ele>23.57142857142857</ele><time>2026-04-04T09:39:07.826Z</time></trkpt><trkpt lat="42.197235" lon="14.6204283"><ele>24.0</ele><time>2026-04-04T09:39:08.826Z</time></trkpt><trkpt lat="42.1972133" lon="14.6205167"><ele>23.999999999999996</ele><time>2026-04-04T09:39:09.826Z</time></trkpt><trkpt lat="42.1971983" lon="14.620615"><ele>24.0</ele><time>2026-04-04T09:39:10.826Z</time></trkpt><trkpt lat="42.1971883" lon="14.6207017"><ele>24.0</ele><time>2026-04-04T09:39:11.826Z</time></trkpt><trkpt lat="42.1971733" lon="14.620795"><ele>24.0</ele><time>2026-04-04T09:39:12.826Z</time></trkpt><trkpt lat="42.1971567" lon="14.6208933"><ele>24.0</ele><time>2026-04-04T09:39:13.826Z</time></trkpt><trkpt lat="42.19714" lon="14.6209917"><ele>23.999999999999996</ele><time>2026-04-04T09:39:14.827Z</time></trkpt><trkpt lat="42.19712" lon="14.6210933"><ele>24.0</ele><time>2026-04-04T09:39:15.827Z</time></trkpt><trkpt lat="42.1971033" lon="14.6211967"><ele>23.428571428571427</ele><time>2026-04-04T09:39:16.826Z</time></trkpt><trkpt lat="42.19709" lon="14.621305"><ele>22.857142857142858</ele><time>2026-04-04T09:39:17.826Z</time></trkpt><trkpt lat="42.1970767" lon="14.6214"><ele>22.285714285714285</ele><time>2026-04-04T09:39:18.827Z</time></trkpt><trkpt lat="42.197065" lon="14.62149"><ele>21.714285714285715</ele><time>2026-04-04T09:39:19.827Z</time></trkpt><trkpt lat="42.197045" lon="14.6215817"><ele>21.142857142857142</ele><time>2026-04-04T09:39:20.826Z</time></trkpt><trkpt lat="42.197035" lon="14.621675"><ele>20.57142857142857</ele><time>2026-04-04T09:39:21.826Z</time></trkpt><trkpt lat="42.1970217" lon="14.6217733"><ele>20.0</ele><time>2026-04-04T09:39:22.826Z</time></trkpt><trkpt lat="42.1970033" lon="14.6218733"><ele>20.0</ele><time>2026-04-04T09:39:23.826Z</time></trkpt><trkpt lat="42.1969933" lon="14.6219633"><ele>20.0</ele><time>2026-04-04T09:39:24.827Z</time></trkpt><trkpt lat="42.19698" lon="14.6220567"><ele>20.0</ele><time>2026-04-04T09:39:25.826Z</time></trkpt><trkpt lat="42.1969633" lon="14.622155"><ele>20.0</ele><time>2026-04-04T09:39:26.826Z</time></trkpt><trkpt lat="42.196945" lon="14.6222583"><ele>20.0</ele><time>2026-04-04T09:39:27.826Z</time></trkpt><trkpt lat="42.1969283" lon="14.6223667"><ele>20.0</ele><time>2026-04-04T09:39:28.826Z</time></trkpt><trkpt lat="42.1968983" lon="14.6224683"><ele>19.666666666666668</ele><time>2026-04-04T09:39:29.826Z</time></trkpt><trkpt lat="42.1968633" lon="14.6225667"><ele>19.333333333333336</ele><time>2026-04-04T09:39:30.826Z</time></trkpt><trkpt lat="42.196825" lon="14.6226667"><ele>19.0</ele><time>2026-04-04T09:39:31.826Z</time></trkpt><trkpt lat="42.196785" lon="14.622765"><ele>18.666666666666668</ele><time>2026-04-04T09:39:32.826Z</time></trkpt><trkpt lat="42.19674" lon="14.6228667"><ele>18.333333333333332</ele><time>2026-04-04T09:39:33.826Z</time></trkpt><trkpt lat="42.1966917" lon="14.6229683"><ele>18.0</ele><time>2026-04-04T09:39:34.827Z</time></trkpt><trkpt lat="42.19664" lon="14.62307"><ele>17.5</ele><time>2026-04-04T09:39:35.827Z</time></trkpt><trkpt lat="42.1965933" lon="14.623165"><ele>17.0</ele><time>2026-04-04T09:39:36.827Z</time></trkpt><trkpt lat="42.1965367" lon="14.6232533"><ele>16.5</ele><time>2026-04-04T09:39:37.826Z</time></trkpt><trkpt lat="42.1964717" lon="14.6233417"><ele>16.0</ele><time>2026-04-04T09:39:38.826Z</time></trkpt><trkpt lat="42.1964067" lon="14.62343"><ele>15.5</ele><time>2026-04-04T09:39:39.826Z</time></trkpt><trkpt lat="42.1963383" lon="14.623515"><ele>15.0</ele><time>2026-04-04T09:39:40.827Z</time></trkpt><trkpt lat="42.196265" lon="14.6235933"><ele>14.2</ele><time>2026-04-04T09:39:41.826Z</time></trkpt><trkpt lat="42.1961917" lon="14.6236733"><ele>13.4</ele><time>2026-04-04T09:39:42.826Z</time></trkpt><trkpt lat="42.196115" lon="14.6237433"><ele>12.600000000000001</ele><time>2026-04-04T09:39:43.826Z</time></trkpt><trkpt lat="42.196035" lon="14.6238083"><ele>11.8</ele><time>2026-04-04T09:39:44.826Z</time></trkpt><trkpt lat="42.1959567" lon="14.6238717"><ele>11.0</ele><time>2026-04-04T09:39:45.826Z</time></trkpt><trkpt lat="42.1958767" lon="14.6239383"><ele>11.0</ele><time>2026-04-04T09:39:46.826Z</time></trkpt><trkpt lat="42.1957867" lon="14.6239983"><ele>11.0</ele><time>2026-04-04T09:39:47.826Z</time></trkpt><trkpt lat="42.1957017" lon="14.6240517"><ele>11.0</ele><time>2026-04-04T09:39:48.826Z</time></trkpt><trkpt lat="42.1956117" lon="14.6241083"><ele>11.0</ele><time>2026-04-04T09:39:49.826Z</time></trkpt><trkpt lat="42.195525" lon="14.6241667"><ele>11.0</ele><time>2026-04-04T09:39:50.826Z</time></trkpt><trkpt lat="42.19544" lon="14.6242283"><ele>11.166666666666666</ele><time>2026-04-04T09:39:51.826Z</time></trkpt><trkpt lat="42.1953617" lon="14.6242867"><ele>11.333333333333332</ele><time>2026-04-04T09:39:52.826Z</time></trkpt><trkpt lat="42.1952867" lon="14.6243517"><ele>11.5</ele><time>2026-04-04T09:39:53.826Z</time></trkpt><trkpt lat="42.195215" lon="14.62442"><ele>11.666666666666666</ele><time>2026-04-04T09:39:54.827Z</time></trkpt><trkpt lat="42.195155" lon="14.6244967"><ele>11.833333333333334</ele><time>2026-04-04T09:39:55.827Z</time></trkpt><trkpt lat="42.1951" lon="14.62457"><ele>12.0</ele><time>2026-04-04T09:39:56.826Z</time></trkpt><trkpt lat="42.1950533" lon="14.6246567"><ele>11.666666666666666</ele><time>2026-04-04T09:39:57.826Z</time></trkpt><trkpt lat="42.1950117" lon="14.6247483"><ele>11.333333333333334</ele><time>2026-04-04T09:39:58.826Z</time></trkpt><trkpt lat="42.1949767" lon="14.6248433"><ele>11.0</ele><time>2026-04-04T09:39:59.826Z</time></trkpt><trkpt lat="42.1949467" lon="14.62494"><ele>10.666666666666668</ele><time>2026-04-04T09:40:00.826Z</time></trkpt><trkpt lat="42.1949217" lon="14.6250467"><ele>10.333333333333334</ele><time>2026-04-04T09:40:01.826Z</time></trkpt><trkpt lat="42.1948967" lon="14.62515"><ele>10.0</ele><time>2026-04-04T09:40:02.826Z</time></trkpt><trkpt lat="42.1948733" lon="14.62526"><ele>10.0</ele><time>2026-04-04T09:40:03.826Z</time></trkpt><trkpt lat="42.194845" lon="14.6253633"><ele>10.0</ele><time>2026-04-04T09:40:04.826Z</time></trkpt><trkpt lat="42.1948183" lon="14.6254633"><ele>10.0</ele><time>2026-04-04T09:40:05.827Z</time></trkpt><trkpt lat="42.1947933" lon="14.6255617"><ele>10.0</ele><time>2026-04-04T09:40:06.827Z</time></trkpt><trkpt lat="42.19477" lon="14.625665"><ele>10.0</ele><time>2026-04-04T09:40:07.826Z</time></trkpt><trkpt lat="42.194745" lon="14.6257633"><ele>10.0</ele><time>2026-04-04T09:40:08.826Z</time></trkpt><trkpt lat="42.1947183" lon="14.625865"><ele>10.166666666666668</ele><time>2026-04-04T09:40:09.826Z</time></trkpt><trkpt lat="42.194695" lon="14.6259683"><ele>10.333333333333334</ele><time>2026-04-04T09:40:10.826Z</time></trkpt><trkpt lat="42.1946717" lon="14.6260683"><ele>10.5</ele><time>2026-04-04T09:40:11.826Z</time></trkpt><trkpt lat="42.19465" lon="14.6261667"><ele>10.666666666666666</ele><time>2026-04-04T09:40:12.826Z</time></trkpt><trkpt lat="42.19463" lon="14.6262683"><ele>10.833333333333332</ele><time>2026-04-04T09:40:13.826Z</time></trkpt><trkpt lat="42.19461" lon="14.6263667"><ele>11.0</ele><time>2026-04-04T09:40:14.826Z</time></trkpt><trkpt lat="42.1945867" lon="14.6264617"><ele>11.142857142857142</ele><time>2026-04-04T09:40:15.826Z</time></trkpt><trkpt lat="42.1945617" lon="14.626555"><ele>11.285714285714285</ele><time>2026-04-04T09:40:16.826Z</time></trkpt><trkpt lat="42.1945383" lon="14.62665"><ele>11.428571428571427</ele><time>2026-04-04T09:40:17.826Z</time></trkpt><trkpt lat="42.1945167" lon="14.626745"><ele>11.571428571428571</ele><time>2026-04-04T09:40:18.826Z</time></trkpt><trkpt lat="42.1944867" lon="14.62683"><ele>11.714285714285714</ele><time>2026-04-04T09:40:19.826Z</time></trkpt><trkpt lat="42.1944467" lon="14.6269033"><ele>11.857142857142856</ele><time>2026-04-04T09:40:20.826Z</time></trkpt><trkpt lat="42.194395" lon="14.6269633"><ele>12.0</ele><time>2026-04-04T09:40:21.826Z</time></trkpt><trkpt lat="42.194335" lon="14.6270133"><ele>11.714285714285714</ele><time>2026-04-04T09:40:22.826Z</time></trkpt><trkpt lat="42.194275" lon="14.6270617"><ele>11.428571428571429</ele><time>2026-04-04T09:40:23.826Z</time></trkpt><trkpt lat="42.1942183" lon="14.6271283"><ele>11.142857142857142</ele><time>2026-04-04T09:40:24.826Z</time></trkpt><trkpt lat="42.1941733" lon="14.627215"><ele>10.857142857142858</ele><time>2026-04-04T09:40:25.826Z</time></trkpt><trkpt lat="42.19415" lon="14.62731"><ele>10.571428571428571</ele><time>2026-04-04T09:40:26.827Z</time></trkpt><trkpt lat="42.194145" lon="14.6274133"><ele>10.285714285714285</ele><time>2026-04-04T09:40:27.826Z</time></trkpt><trkpt lat="42.1941617" lon="14.6275067"><ele>10.0</ele><time>2026-04-04T09:40:28.827Z</time></trkpt><trkpt lat="42.194185" lon="14.6275917"><ele>10.0</ele><time>2026-04-04T09:40:29.826Z</time></trkpt><trkpt lat="42.1942083" lon="14.62768"><ele>10.0</ele><time>2026-04-04T09:40:30.827Z</time></trkpt><trkpt lat="42.1942283" lon="14.62778"><ele>10.0</ele><time>2026-04-04T09:40:31.826Z</time></trkpt><trkpt lat="42.1942383" lon="14.6278767"><ele>10.0</ele><time>2026-04-04T09:40:32.826Z</time></trkpt><trkpt lat="42.1942367" lon="14.6279717"><ele>10.0</ele><time>2026-04-04T09:40:33.826Z</time></trkpt><trkpt lat="42.19422" lon="14.6280633"><ele>10.0</ele><time>2026-04-04T09:40:34.826Z</time></trkpt><trkpt lat="42.1941967" lon="14.6281583"><ele>10.0</ele><time>2026-04-04T09:40:35.826Z</time></trkpt><trkpt lat="42.1941717" lon="14.6282533"><ele>10.142857142857142</ele><time>2026-04-04T09:40:36.826Z</time></trkpt><trkpt lat="42.1941517" lon="14.6283517"><ele>10.285714285714286</ele><time>2026-04-04T09:40:37.826Z</time></trkpt><trkpt lat="42.19413" lon="14.628445"><ele>10.428571428571429</ele><time>2026-04-04T09:40:38.826Z</time></trkpt><trkpt lat="42.194115" lon="14.62854"><ele>10.571428571428571</ele><time>2026-04-04T09:40:39.827Z</time></trkpt><trkpt lat="42.1940933" lon="14.6286283"><ele>10.714285714285714</ele><time>2026-04-04T09:40:40.826Z</time></trkpt><trkpt lat="42.1940683" lon="14.628725"><ele>10.857142857142858</ele><time>2026-04-04T09:40:41.826Z</time></trkpt><trkpt lat="42.194045" lon="14.6288267"><ele>11.0</ele><time>2026-04-04T09:40:42.826Z</time></trkpt><trkpt lat="42.1940233" lon="14.6289283"><ele>13.333333333333332</ele><time>2026-04-04T09:40:43.826Z</time></trkpt><trkpt lat="42.1939983" lon="14.62903"><ele>15.666666666666668</ele><time>2026-04-04T09:40:44.826Z</time></trkpt><trkpt lat="42.1939783" lon="14.6291217"><ele>18.0</ele><time>2026-04-04T09:40:45.826Z</time></trkpt><trkpt lat="42.1939583" lon="14.6292233"><ele>20.333333333333336</ele><time>2026-04-04T09:40:46.826Z</time></trkpt><trkpt lat="42.19393" lon="14.62933"><ele>22.666666666666668</ele><time>2026-04-04T09:40:47.826Z</time></trkpt><trkpt lat="42.1939067" lon="14.629435"><ele>25.0</ele><time>2026-04-04T09:40:48.826Z</time></trkpt><trkpt lat="42.193885" lon="14.6295333"><ele>25.000000000000004</ele><time>2026-04-04T09:40:49.826Z</time></trkpt><trkpt lat="42.1938633" lon="14.6296333"><ele>25.0</ele><time>2026-04-04T09:40:50.827Z</time></trkpt><trkpt lat="42.1938383" lon="14.6297317"><ele>25.0</ele><time>2026-04-04T09:40:51.827Z</time></trkpt><trkpt lat="42.1938167" lon="14.6298217"><ele>25.0</ele><time>2026-04-04T09:40:52.826Z</time></trkpt><trkpt lat="42.1937933" lon="14.629915"><ele>25.0</ele><time>2026-04-04T09:40:53.826Z</time></trkpt><trkpt lat="42.1937717" lon="14.63001"><ele>25.000000000000004</ele><time>2026-04-04T09:40:54.826Z</time></trkpt><trkpt lat="42.1937533" lon="14.6301033"><ele>25.0</ele><time>2026-04-04T09:40:55.826Z</time></trkpt><trkpt lat="42.1937317" lon="14.6301983"><ele>25.000000000000004</ele><time>2026-04-04T09:40:56.826Z</time></trkpt><trkpt lat="42.1937133" lon="14.63029"><ele>25.0</ele><time>2026-04-04T09:40:57.826Z</time></trkpt><trkpt lat="42.1936967" lon="14.630385"><ele>25.0</ele><time>2026-04-04T09:40:58.827Z</time></trkpt><trkpt lat="42.1936733" lon="14.6304783"><ele>25.0</ele><time>2026-04-04T09:40:59.826Z</time></trkpt><trkpt lat="42.1936517" lon="14.63058"><ele>25.000000000000004</ele><time>2026-04-04T09:41:00.827Z</time></trkpt><trkpt lat="42.19363" lon="14.63069"><ele>25.0</ele><time>2026-04-04T09:41:01.826Z</time></trkpt><trkpt lat="42.1936117" lon="14.6307917"><ele>23.166666666666668</ele><time>2026-04-04T09:41:02.827Z</time></trkpt><trkpt lat="42.1935933" lon="14.6309017"><ele>21.333333333333336</ele><time>2026-04-04T09:41:03.826Z</time></trkpt><trkpt lat="42.19357" lon="14.6310017"><ele>19.5</ele><time>2026-04-04T09:41:04.826Z</time></trkpt><trkpt lat="42.1935417" lon="14.63109"><ele>17.666666666666668</ele><time>2026-04-04T09:41:05.826Z</time></trkpt><trkpt lat="42.1935167" lon="14.6311867"><ele>15.833333333333336</ele><time>2026-04-04T09:41:06.827Z</time></trkpt><trkpt lat="42.1934917" lon="14.631285"><ele>14.0</ele><time>2026-04-04T09:41:07.826Z</time></trkpt><trkpt lat="42.19347" lon="14.6313817"><ele>13.571428571428571</ele><time>2026-04-04T09:41:08.826Z</time></trkpt><trkpt lat="42.1934467" lon="14.6314767"><ele>13.142857142857142</ele><time>2026-04-04T09:41:09.827Z</time></trkpt><trkpt lat="42.1934233" lon="14.63157"><ele>12.714285714285715</ele><time>2026-04-04T09:41:10.826Z</time></trkpt><trkpt lat="42.1934017" lon="14.63166"><ele>12.285714285714285</ele><time>2026-04-04T09:41:11.826Z</time></trkpt><trkpt lat="42.1933783" lon="14.63175"><ele>11.857142857142858</ele><time>2026-04-04T09:41:12.826Z</time></trkpt><trkpt lat="42.1933583" lon="14.631845"><ele>11.428571428571429</ele><time>2026-04-04T09:41:13.827Z</time></trkpt><trkpt lat="42.1933383" lon="14.6319333"><ele>11.0</ele><time>2026-04-04T09:41:14.826Z</time></trkpt><trkpt lat="42.1933167" lon="14.6320167"><ele>10.833333333333332</ele><time>2026-04-04T09:41:15.827Z</time></trkpt><trkpt lat="42.1932683" lon="14.632175"><ele>10.666666666666666</ele><time>2026-04-04T09:41:17.826Z</time></trkpt><trkpt lat="42.1932383" lon="14.632255"><ele>10.5</ele><time>2026-04-04T09:41:18.826Z</time></trkpt><trkpt lat="42.1932017" lon="14.6323317"><ele>10.333333333333334</ele><time>2026-04-04T09:41:19.826Z</time></trkpt><trkpt lat="42.1931683" lon="14.632405"><ele>10.166666666666668</ele><time>2026-04-04T09:41:20.826Z</time></trkpt><trkpt lat="42.1930933" lon="14.6325317"><ele>10.0</ele><time>2026-04-04T09:41:22.826Z</time></trkpt><trkpt lat="42.1930417" lon="14.632585"><ele>10.8</ele><time>2026-04-04T09:41:23.826Z</time></trkpt><trkpt lat="42.1929917" lon="14.6326417"><ele>11.6</ele><time>2026-04-04T09:41:24.826Z</time></trkpt><trkpt lat="42.19294" lon="14.6327"><ele>12.399999999999999</ele><time>2026-04-04T09:41:25.826Z</time></trkpt><trkpt lat="42.19284" lon="14.6327917"><ele>13.2</ele><time>2026-04-04T09:41:27.826Z</time></trkpt><trkpt lat="42.1927333" lon="14.6328633"><ele>14.0</ele><time>2026-04-04T09:41:29.826Z</time></trkpt><trkpt lat="42.1926217" lon="14.63291"><ele>14.0</ele><time>2026-04-04T09:41:31.827Z</time></trkpt><trkpt lat="42.1925067" lon="14.6329483"><ele>14.0</ele><time>2026-04-04T09:41:33.826Z</time></trkpt><trkpt lat="42.1923983" lon="14.63298"><ele>14.0</ele><time>2026-04-04T09:41:35.826Z</time></trkpt><trkpt lat="42.1922867" lon="14.633"><ele>14.0</ele><time>2026-04-04T09:41:37.826Z</time></trkpt><trkpt lat="42.1921783" lon="14.6330267"><ele>13.399999999999999</ele><time>2026-04-04T09:41:39.826Z</time></trkpt><trkpt lat="42.1920733" lon="14.633045"><ele>12.799999999999999</ele><time>2026-04-04T09:41:41.826Z</time></trkpt><trkpt lat="42.191975" lon="14.6330467"><ele>12.2</ele><time>2026-04-04T09:41:43.826Z</time></trkpt><trkpt lat="42.191885" lon="14.6330567"><ele>11.600000000000001</ele><time>2026-04-04T09:41:45.826Z</time></trkpt><trkpt lat="42.191795" lon="14.6330717"><ele>11.0</ele><time>2026-04-04T09:41:47.826Z</time></trkpt><trkpt lat="42.1917" lon="14.63309"><ele>11.0</ele><time>2026-04-04T09:41:49.826Z</time></trkpt><trkpt lat="42.19161" lon="14.63311"><ele>11.0</ele><time>2026-04-04T09:41:51.826Z</time></trkpt><trkpt lat="42.1915317" lon="14.6331183"><ele>11.0</ele><time>2026-04-04T09:41:53.826Z</time></trkpt><trkpt lat="42.1914467" lon="14.6331333"><ele>11.0</ele><time>2026-04-04T09:41:55.826Z</time></trkpt><trkpt lat="42.1913717" lon="14.633155"><ele>11.0</ele><time>2026-04-04T09:41:57.826Z</time></trkpt><trkpt lat="42.19129" lon="14.6331733"><ele>11.0</ele><time>2026-04-04T09:41:59.826Z</time></trkpt><trkpt lat="42.1912083" lon="14.63319"><ele>11.600000000000001</ele><time>2026-04-04T09:42:01.826Z</time></trkpt><trkpt lat="42.191115" lon="14.6332017"><ele>12.2</ele><time>2026-04-04T09:42:03.827Z</time></trkpt><trkpt lat="42.1910167" lon="14.633215"><ele>12.799999999999999</ele><time>2026-04-04T09:42:05.826Z</time></trkpt><trkpt lat="42.1909133" lon="14.6332333"><ele>13.399999999999999</ele><time>2026-04-04T09:42:07.827Z</time></trkpt><trkpt lat="42.1908133" lon="14.633255"><ele>14.0</ele><time>2026-04-04T09:42:09.826Z</time></trkpt><trkpt lat="42.1907017" lon="14.633275"><ele>15.25</ele><time>2026-04-04T09:42:11.826Z</time></trkpt><trkpt lat="42.1905883" lon="14.63329"><ele>16.5</ele><time>2026-04-04T09:42:13.827Z</time></trkpt><trkpt lat="42.1904767" lon="14.6333067"><ele>17.75</ele><time>2026-04-04T09:42:15.826Z</time></trkpt><trkpt lat="42.190355" lon="14.6333267"><ele>19.0</ele><time>2026-04-04T09:42:17.826Z</time></trkpt><trkpt lat="42.1902417" lon="14.6333467"><ele>19.0</ele><time>2026-04-04T09:42:19.826Z</time></trkpt><trkpt lat="42.1901217" lon="14.6333683"><ele>19.0</ele><time>2026-04-04T09:42:21.826Z</time></trkpt><trkpt lat="42.1900033" lon="14.633385"><ele>19.0</ele><time>2026-04-04T09:42:23.826Z</time></trkpt><trkpt lat="42.189895" lon="14.6334117"><ele>19.0</ele><time>2026-04-04T09:42:25.826Z</time></trkpt><trkpt lat="42.18978" lon="14.63343"><ele>19.0</ele><time>2026-04-04T09:42:27.826Z</time></trkpt><trkpt lat="42.18966" lon="14.6334483"><ele>19.0</ele><time>2026-04-04T09:42:29.826Z</time></trkpt><trkpt lat="42.18954" lon="14.6334733"><ele>19.0</ele><time>2026-04-04T09:42:31.826Z</time></trkpt><trkpt lat="42.1894733" lon="14.6334817"><ele>19.0</ele><time>2026-04-04T09:42:32.826Z</time></trkpt><trkpt lat="42.1894033" lon="14.63349"><ele>19.0</ele><time>2026-04-04T09:42:33.826Z</time></trkpt><trkpt lat="42.189335" lon="14.6335033"><ele>19.0</ele><time>2026-04-04T09:42:34.827Z</time></trkpt><trkpt lat="42.1892667" lon="14.6335167"><ele>19.0</ele><time>2026-04-04T09:42:35.826Z</time></trkpt><trkpt lat="42.1891983" lon="14.6335267"><ele>19.0</ele><time>2026-04-04T09:42:36.826Z</time></trkpt><trkpt lat="42.1891317" lon="14.6335417"><ele>19.0</ele><time>2026-04-04T09:42:37.826Z</time></trkpt><trkpt lat="42.1890633" lon="14.633555"><ele>19.0</ele><time>2026-04-04T09:42:38.826Z</time></trkpt><trkpt lat="42.188995" lon="14.6335633"><ele>19.0</ele><time>2026-04-04T09:42:39.826Z</time></trkpt><trkpt lat="42.1889283" lon="14.6335717"><ele>19.0</ele><time>2026-04-04T09:42:40.826Z</time></trkpt><trkpt lat="42.1888633" lon="14.63358"><ele>19.0</ele><time>2026-04-04T09:42:41.826Z</time></trkpt><trkpt lat="42.1887933" lon="14.6335883"><ele>18.833333333333332</ele><time>2026-04-04T09:42:42.826Z</time></trkpt><trkpt lat="42.1887283" lon="14.6336017"><ele>18.666666666666664</ele><time>2026-04-04T09:42:43.826Z</time></trkpt><trkpt lat="42.1886" lon="14.633625"><ele>18.5</ele><time>2026-04-04T09:42:45.827Z</time></trkpt><trkpt lat="42.1885317" lon="14.6336383"><ele>18.333333333333332</ele><time>2026-04-04T09:42:46.826Z</time></trkpt><trkpt lat="42.1884633" lon="14.6336517"><ele>18.166666666666668</ele><time>2026-04-04T09:42:47.826Z</time></trkpt><trkpt lat="42.1883967" lon="14.6336633"><ele>18.0</ele><time>2026-04-04T09:42:48.827Z</time></trkpt><trkpt lat="42.1883283" lon="14.6336767"><ele>17.142857142857146</ele><time>2026-04-04T09:42:49.826Z</time></trkpt><trkpt lat="42.1882517" lon="14.63369"><ele>16.285714285714285</ele><time>2026-04-04T09:42:50.826Z</time></trkpt><trkpt lat="42.1881833" lon="14.6337017"><ele>15.428571428571429</ele><time>2026-04-04T09:42:51.826Z</time></trkpt><trkpt lat="42.188115" lon="14.6337117"><ele>14.571428571428573</ele><time>2026-04-04T09:42:52.827Z</time></trkpt><trkpt lat="42.1880467" lon="14.63372"><ele>13.714285714285715</ele><time>2026-04-04T09:42:53.826Z</time></trkpt><trkpt lat="42.187975" lon="14.6337283"><ele>12.857142857142856</ele><time>2026-04-04T09:42:54.826Z</time></trkpt><trkpt lat="42.187905" lon="14.6337417"><ele>12.0</ele><time>2026-04-04T09:42:55.826Z</time></trkpt><trkpt lat="42.18784" lon="14.6337533"><ele>11.999999999999998</ele><time>2026-04-04T09:42:56.827Z</time></trkpt><trkpt lat="42.187765" lon="14.6337717"><ele>12.0</ele><time>2026-04-04T09:42:57.827Z</time></trkpt><trkpt lat="42.1876883" lon="14.6337817"><ele>12.0</ele><time>2026-04-04T09:42:58.826Z</time></trkpt><trkpt lat="42.1876167" lon="14.6337917"><ele>12.0</ele><time>2026-04-04T09:42:59.826Z</time></trkpt><trkpt lat="42.1875517" lon="14.6338"><ele>12.0</ele><time>2026-04-04T09:43:00.827Z</time></trkpt><trkpt lat="42.1874833" lon="14.63382"><ele>11.999999999999998</ele><time>2026-04-04T09:43:01.826Z</time></trkpt><trkpt lat="42.187415" lon="14.6338333"><ele>12.0</ele><time>2026-04-04T09:43:02.826Z</time></trkpt><trkpt lat="42.1873483" lon="14.6338467"><ele>12.0</ele><time>2026-04-04T09:43:03.826Z</time></trkpt><trkpt lat="42.1872833" lon="14.6338583"><ele>12.0</ele><time>2026-04-04T09:43:04.826Z</time></trkpt><trkpt lat="42.1872183" lon="14.63387"><ele>12.0</ele><time>2026-04-04T09:43:05.826Z</time></trkpt><trkpt lat="42.1871533" lon="14.63388"><ele>12.0</ele><time>2026-04-04T09:43:06.827Z</time></trkpt><trkpt lat="42.18703" lon="14.633905"><ele>12.0</ele><time>2026-04-04T09:43:08.826Z</time></trkpt><trkpt lat="42.1869633" lon="14.6339183"><ele>12.0</ele><time>2026-04-04T09:43:09.826Z</time></trkpt><trkpt lat="42.1868933" lon="14.633925"><ele>11.999999999999998</ele><time>2026-04-04T09:43:10.826Z</time></trkpt><trkpt lat="42.18682" lon="14.633935"><ele>12.0</ele><time>2026-04-04T09:43:11.827Z</time></trkpt><trkpt lat="42.1867517" lon="14.6339483"><ele>12.0</ele><time>2026-04-04T09:43:12.826Z</time></trkpt><trkpt lat="42.1866867" lon="14.633965"><ele>12.0</ele><time>2026-04-04T09:43:13.826Z</time></trkpt><trkpt lat="42.1866167" lon="14.6339767"><ele>12.0</ele><time>2026-04-04T09:43:14.826Z</time></trkpt><trkpt lat="42.1865467" lon="14.6339883"><ele>11.999999999999998</ele><time>2026-04-04T09:43:15.826Z</time></trkpt><trkpt lat="42.1864783" lon="14.6339983"><ele>12.0</ele><time>2026-04-04T09:43:16.826Z</time></trkpt><trkpt lat="42.18641" lon="14.63401"><ele>12.142857142857142</ele><time>2026-04-04T09:43:17.826Z</time></trkpt><trkpt lat="42.1863417" lon="14.6340183"><ele>12.285714285714285</ele><time>2026-04-04T09:43:18.826Z</time></trkpt><trkpt lat="42.1862717" lon="14.6340333"><ele>12.428571428571427</ele><time>2026-04-04T09:43:19.826Z</time></trkpt><trkpt lat="42.1862" lon="14.6340517"><ele>12.571428571428571</ele><time>2026-04-04T09:43:20.826Z</time></trkpt><trkpt lat="42.1861333" lon="14.6340633"><ele>12.714285714285715</ele><time>2026-04-04T09:43:21.826Z</time></trkpt><trkpt lat="42.1860667" lon="14.6340783"><ele>12.857142857142856</ele><time>2026-04-04T09:43:22.826Z</time></trkpt><trkpt lat="42.186" lon="14.6340883"><ele>13.0</ele><time>2026-04-04T09:43:23.826Z</time></trkpt><trkpt lat="42.18593" lon="14.634095"><ele>13.0</ele><time>2026-04-04T09:43:24.826Z</time></trkpt><trkpt lat="42.18586" lon="14.6341067"><ele>13.0</ele><time>2026-04-04T09:43:25.826Z</time></trkpt><trkpt lat="42.1857933" lon="14.6341217"><ele>13.0</ele><time>2026-04-04T09:43:26.826Z</time></trkpt><trkpt lat="42.1857283" lon="14.6341367"><ele>13.0</ele><time>2026-04-04T09:43:27.827Z</time></trkpt><trkpt lat="42.1856583" lon="14.6341433"><ele>13.0</ele><time>2026-04-04T09:43:28.826Z</time></trkpt><trkpt lat="42.18559" lon="14.634155"><ele>13.0</ele><time>2026-04-04T09:43:29.827Z</time></trkpt><trkpt lat="42.1855233" lon="14.63417"><ele>13.0</ele><time>2026-04-04T09:43:30.827Z</time></trkpt><trkpt lat="42.1854583" lon="14.6341783"><ele>13.142857142857142</ele><time>2026-04-04T09:43:31.826Z</time></trkpt><trkpt lat="42.185395" lon="14.63419"><ele>13.285714285714286</ele><time>2026-04-04T09:43:32.826Z</time></trkpt><trkpt lat="42.1853233" lon="14.6341983"><ele>13.428571428571429</ele><time>2026-04-04T09:43:33.826Z</time></trkpt><trkpt lat="42.1852517" lon="14.634215"><ele>13.571428571428571</ele><time>2026-04-04T09:43:34.826Z</time></trkpt><trkpt lat="42.1851817" lon="14.6342283"><ele>13.714285714285715</ele><time>2026-04-04T09:43:35.826Z</time></trkpt><trkpt lat="42.1851117" lon="14.6342383"><ele>13.857142857142858</ele><time>2026-04-04T09:43:36.826Z</time></trkpt><trkpt lat="42.1850467" lon="14.6342467"><ele>14.0</ele><time>2026-04-04T09:43:37.826Z</time></trkpt><trkpt lat="42.1849783" lon="14.6342617"><ele>14.0</ele><time>2026-04-04T09:43:38.826Z</time></trkpt><trkpt lat="42.184915" lon="14.6342733"><ele>14.0</ele><time>2026-04-04T09:43:39.826Z</time></trkpt><trkpt lat="42.184845" lon="14.6342833"><ele>14.0</ele><time>2026-04-04T09:43:40.826Z</time></trkpt><trkpt lat="42.184775" lon="14.6342967"><ele>14.0</ele><time>2026-04-04T09:43:41.826Z</time></trkpt><trkpt lat="42.1847083" lon="14.63432"><ele>14.0</ele><time>2026-04-04T09:43:42.826Z</time></trkpt><trkpt lat="42.1846433" lon="14.6343417"><ele>14.0</ele><time>2026-04-04T09:43:43.826Z</time></trkpt><trkpt lat="42.1845733" lon="14.63436"><ele>14.0</ele><time>2026-04-04T09:43:44.826Z</time></trkpt><trkpt lat="42.184505" lon="14.6343783"><ele>14.0</ele><time>2026-04-04T09:43:45.827Z</time></trkpt><trkpt lat="42.184435" lon="14.6344083"><ele>14.0</ele><time>2026-04-04T09:43:46.827Z</time></trkpt><trkpt lat="42.1843667" lon="14.6344317"><ele>14.0</ele><time>2026-04-04T09:43:47.826Z</time></trkpt><trkpt lat="42.1843" lon="14.6344517"><ele>14.0</ele><time>2026-04-04T09:43:48.826Z</time></trkpt><trkpt lat="42.184235" lon="14.6344717"><ele>14.0</ele><time>2026-04-04T09:43:49.826Z</time></trkpt><trkpt lat="42.1841667" lon="14.6345"><ele>14.0</ele><time>2026-04-04T09:43:50.826Z</time></trkpt><trkpt lat="42.1841033" lon="14.6345317"><ele>14.0</ele><time>2026-04-04T09:43:51.826Z</time></trkpt><trkpt lat="42.1840367" lon="14.6345617"><ele>13.714285714285714</ele><time>2026-04-04T09:43:52.827Z</time></trkpt><trkpt lat="42.1839717" lon="14.6345917"><ele>13.428571428571429</ele><time>2026-04-04T09:43:53.826Z</time></trkpt><trkpt lat="42.183905" lon="14.6346267"><ele>13.142857142857142</ele><time>2026-04-04T09:43:54.826Z</time></trkpt><trkpt lat="42.1838383" lon="14.6346667"><ele>12.857142857142858</ele><time>2026-04-04T09:43:55.826Z</time></trkpt><trkpt lat="42.1837717" lon="14.6347033"><ele>12.571428571428571</ele><time>2026-04-04T09:43:56.826Z</time></trkpt><trkpt lat="42.183705" lon="14.6347367"><ele>12.285714285714285</ele><time>2026-04-04T09:43:57.826Z</time></trkpt><trkpt lat="42.1836383" lon="14.6347667"><ele>12.0</ele><time>2026-04-04T09:43:58.826Z</time></trkpt><trkpt lat="42.1835717" lon="14.6348"><ele>12.0</ele><time>2026-04-04T09:43:59.826Z</time></trkpt><trkpt lat="42.1835117" lon="14.63484"><ele>12.0</ele><time>2026-04-04T09:44:00.826Z</time></trkpt><trkpt lat="42.1834" lon="14.634905"><ele>12.0</ele><time>2026-04-04T09:44:02.826Z</time></trkpt><trkpt lat="42.1833417" lon="14.63494"><ele>12.0</ele><time>2026-04-04T09:44:03.827Z</time></trkpt><trkpt lat="42.183285" lon="14.6349783"><ele>12.0</ele><time>2026-04-04T09:44:04.827Z</time></trkpt><trkpt lat="42.1831783" lon="14.6350467"><ele>12.0</ele><time>2026-04-04T09:44:06.826Z</time></trkpt><trkpt lat="42.18308" lon="14.6351167"><ele>12.399999999999999</ele><time>2026-04-04T09:44:08.826Z</time></trkpt><trkpt lat="42.1829833" lon="14.6351917"><ele>12.799999999999999</ele><time>2026-04-04T09:44:10.826Z</time></trkpt><trkpt lat="42.1828733" lon="14.6352633"><ele>13.2</ele><time>2026-04-04T09:44:12.826Z</time></trkpt><trkpt lat="42.1827533" lon="14.635345"><ele>13.6</ele><time>2026-04-04T09:44:14.826Z</time></trkpt><trkpt lat="42.18269" lon="14.6353867"><ele>14.0</ele><time>2026-04-04T09:44:15.826Z</time></trkpt><trkpt lat="42.18262" lon="14.6354233"><ele>14.285714285714285</ele><time>2026-04-04T09:44:16.826Z</time></trkpt><trkpt lat="42.1825583" lon="14.635465"><ele>14.571428571428571</ele><time>2026-04-04T09:44:17.826Z</time></trkpt><trkpt lat="42.182495" lon="14.6355117"><ele>14.857142857142858</ele><time>2026-04-04T09:44:18.826Z</time></trkpt><trkpt lat="42.1824317" lon="14.63555"><ele>15.142857142857142</ele><time>2026-04-04T09:44:19.826Z</time></trkpt><trkpt lat="42.182365" lon="14.6355917"><ele>15.428571428571427</ele><time>2026-04-04T09:44:20.826Z</time></trkpt><trkpt lat="42.1823" lon="14.6356367"><ele>15.714285714285714</ele><time>2026-04-04T09:44:21.827Z</time></trkpt><trkpt lat="42.1822383" lon="14.6356817"><ele>16.0</ele><time>2026-04-04T09:44:22.826Z</time></trkpt><trkpt lat="42.182175" lon="14.63572"><ele>16.0</ele><time>2026-04-04T09:44:23.826Z</time></trkpt><trkpt lat="42.1821133" lon="14.6357583"><ele>15.999999999999998</ele><time>2026-04-04T09:44:24.826Z</time></trkpt><trkpt lat="42.1820533" lon="14.6358017"><ele>16.0</ele><time>2026-04-04T09:44:25.826Z</time></trkpt><trkpt lat="42.1819967" lon="14.6358417"><ele>16.0</ele><time>2026-04-04T09:44:26.826Z</time></trkpt><trkpt lat="42.1819383" lon="14.63588"><ele>15.999999999999998</ele><time>2026-04-04T09:44:27.826Z</time></trkpt><trkpt lat="42.1818817" lon="14.63592"><ele>16.0</ele><time>2026-04-04T09:44:28.826Z</time></trkpt><trkpt lat="42.181815" lon="14.635965"><ele>16.0</ele><time>2026-04-04T09:44:29.826Z</time></trkpt><trkpt lat="42.1817533" lon="14.636"><ele>15.999999999999998</ele><time>2026-04-04T09:44:30.827Z</time></trkpt><trkpt lat="42.1816933" lon="14.636035"><ele>16.0</ele><time>2026-04-04T09:44:31.826Z</time></trkpt><trkpt lat="42.1816333" lon="14.6360783"><ele>16.0</ele><time>2026-04-04T09:44:32.826Z</time></trkpt><trkpt lat="42.1815767" lon="14.63612"><ele>16.0</ele><time>2026-04-04T09:44:33.826Z</time></trkpt><trkpt lat="42.18152" lon="14.6361617"><ele>15.999999999999998</ele><time>2026-04-04T09:44:34.827Z</time></trkpt><trkpt lat="42.1814067" lon="14.63624"><ele>16.0</ele><time>2026-04-04T09:44:36.826Z</time></trkpt><trkpt lat="42.181345" lon="14.6362767"><ele>15.833333333333332</ele><time>2026-04-04T09:44:37.826Z</time></trkpt><trkpt lat="42.181285" lon="14.6363167"><ele>15.666666666666666</ele><time>2026-04-04T09:44:38.826Z</time></trkpt><trkpt lat="42.1812267" lon="14.63636"><ele>15.5</ele><time>2026-04-04T09:44:39.827Z</time></trkpt><trkpt lat="42.1811683" lon="14.6364"><ele>15.333333333333332</ele><time>2026-04-04T09:44:40.826Z</time></trkpt><trkpt lat="42.18106" lon="14.6364733"><ele>15.166666666666666</ele><time>2026-04-04T09:44:42.826Z</time></trkpt><trkpt lat="42.1810017" lon="14.63651"><ele>15.0</ele><time>2026-04-04T09:44:43.826Z</time></trkpt><trkpt lat="42.18094" lon="14.6365483"><ele>15.0</ele><time>2026-04-04T09:44:44.826Z</time></trkpt><trkpt lat="42.1808783" lon="14.6365817"><ele>15.0</ele><time>2026-04-04T09:44:45.826Z</time></trkpt><trkpt lat="42.18082" lon="14.636625"><ele>15.0</ele><time>2026-04-04T09:44:46.826Z</time></trkpt><trkpt lat="42.1807633" lon="14.6366717"><ele>15.0</ele><time>2026-04-04T09:44:47.826Z</time></trkpt><trkpt lat="42.180705" lon="14.63671"><ele>15.0</ele><time>2026-04-04T09:44:48.826Z</time></trkpt><trkpt lat="42.1805917" lon="14.6367917"><ele>15.0</ele><time>2026-04-04T09:44:50.827Z</time></trkpt><trkpt lat="42.18053" lon="14.6368317"><ele>15.0</ele><time>2026-04-04T09:44:51.826Z</time></trkpt><trkpt lat="42.1804683" lon="14.63687"><ele>15.0</ele><time>2026-04-04T09:44:52.826Z</time></trkpt><trkpt lat="42.1804083" lon="14.6369083"><ele>15.0</ele><time>2026-04-04T09:44:53.826Z</time></trkpt><trkpt lat="42.18035" lon="14.6369483"><ele>15.0</ele><time>2026-04-04T09:44:54.826Z</time></trkpt><trkpt lat="42.1802917" lon="14.6369883"><ele>15.0</ele><time>2026-04-04T09:44:55.826Z</time></trkpt><trkpt lat="42.1802283" lon="14.63703"><ele>15.0</ele><time>2026-04-04T09:44:56.826Z</time></trkpt><trkpt lat="42.18017" lon="14.6370683"><ele>15.0</ele><time>2026-04-04T09:44:57.826Z</time></trkpt><trkpt lat="42.1800533" lon="14.6371417"><ele>15.0</ele><time>2026-04-04T09:44:59.827Z</time></trkpt><trkpt lat="42.1799483" lon="14.6372117"><ele>15.0</ele><time>2026-04-04T09:45:01.827Z</time></trkpt><trkpt lat="42.1798383" lon="14.637285"><ele>15.0</ele><time>2026-04-04T09:45:03.826Z</time></trkpt><trkpt lat="42.179725" lon="14.6373567"><ele>15.0</ele><time>2026-04-04T09:45:05.826Z</time></trkpt><trkpt lat="42.1796067" lon="14.6374333"><ele>15.285714285714286</ele><time>2026-04-04T09:45:07.827Z</time></trkpt><trkpt lat="42.1795417" lon="14.6374783"><ele>15.57142857142857</ele><time>2026-04-04T09:45:08.826Z</time></trkpt><trkpt lat="42.17948" lon="14.63752"><ele>15.857142857142856</ele><time>2026-04-04T09:45:09.827Z</time></trkpt><trkpt lat="42.1794167" lon="14.6375617"><ele>16.142857142857142</ele><time>2026-04-04T09:45:10.826Z</time></trkpt><trkpt lat="42.1793583" lon="14.6376033"><ele>16.428571428571427</ele><time>2026-04-04T09:45:11.826Z</time></trkpt><trkpt lat="42.179295" lon="14.6376383"><ele>16.71428571428571</ele><time>2026-04-04T09:45:12.826Z</time></trkpt><trkpt lat="42.1792383" lon="14.6376767"><ele>17.0</ele><time>2026-04-04T09:45:13.826Z</time></trkpt><trkpt lat="42.179125" lon="14.6377533"><ele>16.999999999999996</ele><time>2026-04-04T09:45:15.826Z</time></trkpt><trkpt lat="42.179065" lon="14.6377933"><ele>17.0</ele><time>2026-04-04T09:45:16.826Z</time></trkpt><trkpt lat="42.179" lon="14.6378383"><ele>17.0</ele><time>2026-04-04T09:45:17.826Z</time></trkpt><trkpt lat="42.178935" lon="14.63788"><ele>17.0</ele><time>2026-04-04T09:45:18.827Z</time></trkpt><trkpt lat="42.178875" lon="14.6379183"><ele>17.0</ele><time>2026-04-04T09:45:19.827Z</time></trkpt><trkpt lat="42.178815" lon="14.63796"><ele>16.999999999999996</ele><time>2026-04-04T09:45:20.826Z</time></trkpt><trkpt lat="42.1787517" lon="14.6379967"><ele>17.0</ele><time>2026-04-04T09:45:21.826Z</time></trkpt><trkpt lat="42.17869" lon="14.638025"><ele>16.428571428571427</ele><time>2026-04-04T09:45:22.826Z</time></trkpt><trkpt lat="42.178625" lon="14.638055"><ele>15.857142857142858</ele><time>2026-04-04T09:45:23.826Z</time></trkpt><trkpt lat="42.1785567" lon="14.6380867"><ele>15.285714285714285</ele><time>2026-04-04T09:45:24.827Z</time></trkpt><trkpt lat="42.1784883" lon="14.638115"><ele>14.714285714285714</ele><time>2026-04-04T09:45:25.827Z</time></trkpt><trkpt lat="42.1784183" lon="14.6381417"><ele>14.142857142857142</ele><time>2026-04-04T09:45:26.826Z</time></trkpt><trkpt lat="42.1783467" lon="14.6381617"><ele>13.571428571428571</ele><time>2026-04-04T09:45:27.826Z</time></trkpt><trkpt lat="42.1782817" lon="14.6381817"><ele>13.0</ele><time>2026-04-04T09:45:28.826Z</time></trkpt><trkpt lat="42.1782117" lon="14.6382"><ele>13.142857142857142</ele><time>2026-04-04T09:45:29.826Z</time></trkpt><trkpt lat="42.1781417" lon="14.6382183"><ele>13.285714285714286</ele><time>2026-04-04T09:45:30.827Z</time></trkpt><trkpt lat="42.1780733" lon="14.638235"><ele>13.428571428571429</ele><time>2026-04-04T09:45:31.826Z</time></trkpt><trkpt lat="42.1780017" lon="14.6382467"><ele>13.571428571428571</ele><time>2026-04-04T09:45:32.826Z</time></trkpt><trkpt lat="42.1779317" lon="14.638255"><ele>13.714285714285715</ele><time>2026-04-04T09:45:33.826Z</time></trkpt><trkpt lat="42.1778583" lon="14.6382717"><ele>13.857142857142858</ele><time>2026-04-04T09:45:34.826Z</time></trkpt><trkpt lat="42.1777883" lon="14.6382833"><ele>14.0</ele><time>2026-04-04T09:45:35.826Z</time></trkpt><trkpt lat="42.1777183" lon="14.638295"><ele>14.0</ele><time>2026-04-04T09:45:36.826Z</time></trkpt><trkpt lat="42.177645" lon="14.6383067"><ele>14.0</ele><time>2026-04-04T09:45:37.827Z</time></trkpt><trkpt lat="42.177575" lon="14.6383167"><ele>14.0</ele><time>2026-04-04T09:45:38.826Z</time></trkpt><trkpt lat="42.1775" lon="14.6383333"><ele>14.0</ele><time>2026-04-04T09:45:39.826Z</time></trkpt><trkpt lat="42.17743" lon="14.6383483"><ele>14.0</ele><time>2026-04-04T09:45:40.826Z</time></trkpt><trkpt lat="42.17736" lon="14.63836"><ele>14.0</ele><time>2026-04-04T09:45:41.826Z</time></trkpt><trkpt lat="42.1772883" lon="14.638375"><ele>14.0</ele><time>2026-04-04T09:45:42.827Z</time></trkpt><trkpt lat="42.177215" lon="14.6383867"><ele>14.333333333333334</ele><time>2026-04-04T09:45:43.827Z</time></trkpt><trkpt lat="42.1771417" lon="14.638395"><ele>14.666666666666668</ele><time>2026-04-04T09:45:44.826Z</time></trkpt><trkpt lat="42.177075" lon="14.6384017"><ele>15.0</ele><time>2026-04-04T09:45:45.826Z</time></trkpt><trkpt lat="42.1770117" lon="14.6384133"><ele>15.333333333333332</ele><time>2026-04-04T09:45:46.826Z</time></trkpt><trkpt lat="42.1768917" lon="14.638435"><ele>15.666666666666666</ele><time>2026-04-04T09:45:48.826Z</time></trkpt><trkpt lat="42.1768283" lon="14.6384433"><ele>16.0</ele><time>2026-04-04T09:45:49.827Z</time></trkpt><trkpt lat="42.17676" lon="14.638455"><ele>16.0</ele><time>2026-04-04T09:45:50.826Z</time></trkpt><trkpt lat="42.1766933" lon="14.63847"><ele>15.999999999999998</ele><time>2026-04-04T09:45:51.826Z</time></trkpt><trkpt lat="42.17663" lon="14.6384783"><ele>16.0</ele><time>2026-04-04T09:45:52.827Z</time></trkpt><trkpt lat="42.176565" lon="14.6384933"><ele>16.0</ele><time>2026-04-04T09:45:53.827Z</time></trkpt><trkpt lat="42.1764967" lon="14.6385033"><ele>15.999999999999998</ele><time>2026-04-04T09:45:54.826Z</time></trkpt><trkpt lat="42.1764267" lon="14.638515"><ele>16.0</ele><time>2026-04-04T09:45:55.826Z</time></trkpt><trkpt lat="42.1763583" lon="14.6385267"><ele>16.0</ele><time>2026-04-04T09:45:56.826Z</time></trkpt><trkpt lat="42.1762833" lon="14.638535"><ele>16.142857142857142</ele><time>2026-04-04T09:45:57.826Z</time></trkpt><trkpt lat="42.1762133" lon="14.63855"><ele>16.285714285714285</ele><time>2026-04-04T09:45:58.826Z</time></trkpt><trkpt lat="42.17614" lon="14.6385617"><ele>16.428571428571427</ele><time>2026-04-04T09:45:59.827Z</time></trkpt><trkpt lat="42.1760717" lon="14.6385733"><ele>16.57142857142857</ele><time>2026-04-04T09:46:00.826Z</time></trkpt><trkpt lat="42.1760083" lon="14.6385833"><ele>16.714285714285715</ele><time>2026-04-04T09:46:01.826Z</time></trkpt><trkpt lat="42.1759433" lon="14.638595"><ele>16.857142857142854</ele><time>2026-04-04T09:46:02.826Z</time></trkpt><trkpt lat="42.17588" lon="14.638605"><ele>17.0</ele><time>2026-04-04T09:46:03.826Z</time></trkpt><trkpt lat="42.1758167" lon="14.6386133"><ele>16.666666666666668</ele><time>2026-04-04T09:46:04.826Z</time></trkpt><trkpt lat="42.1756933" lon="14.638635"><ele>16.333333333333336</ele><time>2026-04-04T09:46:06.826Z</time></trkpt><trkpt lat="42.17563" lon="14.6386383"><ele>16.0</ele><time>2026-04-04T09:46:07.826Z</time></trkpt><trkpt lat="42.175565" lon="14.6386467"><ele>15.666666666666668</ele><time>2026-04-04T09:46:08.826Z</time></trkpt><trkpt lat="42.1754967" lon="14.6386583"><ele>15.333333333333334</ele><time>2026-04-04T09:46:09.826Z</time></trkpt><trkpt lat="42.1754183" lon="14.6386717"><ele>15.0</ele><time>2026-04-04T09:46:10.827Z</time></trkpt><trkpt lat="42.175345" lon="14.63868"><ele>15.0</ele><time>2026-04-04T09:46:11.827Z</time></trkpt><trkpt lat="42.1752733" lon="14.6386917"><ele>15.0</ele><time>2026-04-04T09:46:12.827Z</time></trkpt><trkpt lat="42.1752067" lon="14.638705"><ele>15.0</ele><time>2026-04-04T09:46:13.826Z</time></trkpt><trkpt lat="42.17514" lon="14.6387167"><ele>15.0</ele><time>2026-04-04T09:46:14.826Z</time></trkpt><trkpt lat="42.1750717" lon="14.638725"><ele>15.0</ele><time>2026-04-04T09:46:15.826Z</time></trkpt><trkpt lat="42.174995" lon="14.6387317"><ele>15.0</ele><time>2026-04-04T09:46:16.827Z</time></trkpt><trkpt lat="42.1749233" lon="14.6387467"><ele>15.0</ele><time>2026-04-04T09:46:17.826Z</time></trkpt><trkpt lat="42.174855" lon="14.6387633"><ele>14.857142857142858</ele><time>2026-04-04T09:46:18.826Z</time></trkpt><trkpt lat="42.1747883" lon="14.6387767"><ele>14.714285714285714</ele><time>2026-04-04T09:46:19.826Z</time></trkpt><trkpt lat="42.174715" lon="14.638785"><ele>14.571428571428571</ele><time>2026-04-04T09:46:20.827Z</time></trkpt><trkpt lat="42.1746417" lon="14.638795"><ele>14.428571428571429</ele><time>2026-04-04T09:46:21.827Z</time></trkpt><trkpt lat="42.1745733" lon="14.63881"><ele>14.285714285714285</ele><time>2026-04-04T09:46:22.826Z</time></trkpt><trkpt lat="42.1745067" lon="14.6388233"><ele>14.142857142857142</ele><time>2026-04-04T09:46:23.827Z</time></trkpt><trkpt lat="42.1744367" lon="14.6388333"><ele>14.0</ele><time>2026-04-04T09:46:24.826Z</time></trkpt><trkpt lat="42.17437" lon="14.6388417"><ele>14.000000000000002</ele><time>2026-04-04T09:46:25.826Z</time></trkpt><trkpt lat="42.1742483" lon="14.63886"><ele>14.0</ele><time>2026-04-04T09:46:27.826Z</time></trkpt><trkpt lat="42.1741833" lon="14.6388717"><ele>14.0</ele><time>2026-04-04T09:46:28.826Z</time></trkpt><trkpt lat="42.17412" lon="14.6388767"><ele>14.0</ele><time>2026-04-04T09:46:29.826Z</time></trkpt><trkpt lat="42.174055" lon="14.6388867"><ele>14.000000000000002</ele><time>2026-04-04T09:46:30.826Z</time></trkpt><trkpt lat="42.17399" lon="14.6388983"><ele>14.0</ele><time>2026-04-04T09:46:31.826Z</time></trkpt><trkpt lat="42.173865" lon="14.6389183"><ele>13.857142857142858</ele><time>2026-04-04T09:46:33.826Z</time></trkpt><trkpt lat="42.1738" lon="14.6389283"><ele>13.714285714285715</ele><time>2026-04-04T09:46:34.826Z</time></trkpt><trkpt lat="42.1737333" lon="14.63894"><ele>13.571428571428571</ele><time>2026-04-04T09:46:35.826Z</time></trkpt><trkpt lat="42.173665" lon="14.638955"><ele>13.428571428571429</ele><time>2026-04-04T09:46:36.826Z</time></trkpt><trkpt lat="42.173595" lon="14.6389667"><ele>13.285714285714286</ele><time>2026-04-04T09:46:37.826Z</time></trkpt><trkpt lat="42.1735233" lon="14.63898"><ele>13.142857142857142</ele><time>2026-04-04T09:46:38.826Z</time></trkpt><trkpt lat="42.1734533" lon="14.6389917"><ele>13.0</ele><time>2026-04-04T09:46:39.826Z</time></trkpt><trkpt lat="42.17338" lon="14.6390033"><ele>13.0</ele><time>2026-04-04T09:46:40.826Z</time></trkpt><trkpt lat="42.1733083" lon="14.6390167"><ele>13.0</ele><time>2026-04-04T09:46:41.826Z</time></trkpt><trkpt lat="42.17324" lon="14.6390283"><ele>13.0</ele><time>2026-04-04T09:46:42.826Z</time></trkpt><trkpt lat="42.1731133" lon="14.6390517"><ele>13.0</ele><time>2026-04-04T09:46:44.826Z</time></trkpt><trkpt lat="42.172985" lon="14.6390683"><ele>13.0</ele><time>2026-04-04T09:46:46.826Z</time></trkpt><trkpt lat="42.1729183" lon="14.63908"><ele>13.166666666666666</ele><time>2026-04-04T09:46:47.826Z</time></trkpt><trkpt lat="42.1728533" lon="14.6390883"><ele>13.333333333333332</ele><time>2026-04-04T09:46:48.826Z</time></trkpt><trkpt lat="42.172785" lon="14.6390983"><ele>13.5</ele><time>2026-04-04T09:46:49.826Z</time></trkpt><trkpt lat="42.1727133" lon="14.6391117"><ele>13.666666666666668</ele><time>2026-04-04T09:46:50.826Z</time></trkpt><trkpt lat="42.17265" lon="14.6391183"><ele>13.833333333333334</ele><time>2026-04-04T09:46:51.826Z</time></trkpt><trkpt lat="42.1725283" lon="14.6391367"><ele>14.0</ele><time>2026-04-04T09:46:53.827Z</time></trkpt><trkpt lat="42.172465" lon="14.6391483"><ele>14.166666666666668</ele><time>2026-04-04T09:46:54.826Z</time></trkpt><trkpt lat="42.1723367" lon="14.63917"><ele>14.333333333333334</ele><time>2026-04-04T09:46:56.826Z</time></trkpt><trkpt lat="42.17227" lon="14.63918"><ele>14.5</ele><time>2026-04-04T09:46:57.826Z</time></trkpt><trkpt lat="42.1722017" lon="14.639195"><ele>14.666666666666668</ele><time>2026-04-04T09:46:58.826Z</time></trkpt><trkpt lat="42.1721333" lon="14.6392017"><ele>14.833333333333334</ele><time>2026-04-04T09:46:59.827Z</time></trkpt><trkpt lat="42.172065" lon="14.6392183"><ele>15.0</ele><time>2026-04-04T09:47:00.826Z</time></trkpt><trkpt lat="42.172" lon="14.639225"><ele>15.0</ele><time>2026-04-04T09:47:01.827Z</time></trkpt><trkpt lat="42.1719283" lon="14.6392383"><ele>15.0</ele><time>2026-04-04T09:47:02.826Z</time></trkpt><trkpt lat="42.1718533" lon="14.6392517"><ele>15.0</ele><time>2026-04-04T09:47:03.826Z</time></trkpt><trkpt lat="42.1717833" lon="14.6392667"><ele>15.0</ele><time>2026-04-04T09:47:04.826Z</time></trkpt><trkpt lat="42.1717133" lon="14.6392767"><ele>15.0</ele><time>2026-04-04T09:47:05.826Z</time></trkpt><trkpt lat="42.17165" lon="14.6392867"><ele>15.0</ele><time>2026-04-04T09:47:06.826Z</time></trkpt><trkpt lat="42.17158" lon="14.6392967"><ele>15.0</ele><time>2026-04-04T09:47:07.826Z</time></trkpt><trkpt lat="42.17151" lon="14.63931"><ele>15.142857142857142</ele><time>2026-04-04T09:47:08.826Z</time></trkpt><trkpt lat="42.1714417" lon="14.63932"><ele>15.285714285714285</ele><time>2026-04-04T09:47:09.826Z</time></trkpt><trkpt lat="42.171375" lon="14.6393333"><ele>15.428571428571427</ele><time>2026-04-04T09:47:10.827Z</time></trkpt><trkpt lat="42.1713117" lon="14.6393433"><ele>15.571428571428571</ele><time>2026-04-04T09:47:11.826Z</time></trkpt><trkpt lat="42.171245" lon="14.6393533"><ele>15.714285714285712</ele><time>2026-04-04T09:47:12.827Z</time></trkpt><trkpt lat="42.1711767" lon="14.6393633"><ele>15.857142857142856</ele><time>2026-04-04T09:47:13.826Z</time></trkpt><trkpt lat="42.1711067" lon="14.6393767"><ele>16.0</ele><time>2026-04-04T09:47:14.826Z</time></trkpt><trkpt lat="42.1710417" lon="14.639385"><ele>16.0</ele><time>2026-04-04T09:47:15.826Z</time></trkpt><trkpt lat="42.1709767" lon="14.6393967"><ele>15.999999999999998</ele><time>2026-04-04T09:47:16.827Z</time></trkpt><trkpt lat="42.1709083" lon="14.6394083"><ele>16.0</ele><time>2026-04-04T09:47:17.826Z</time></trkpt><trkpt lat="42.1708383" lon="14.6394183"><ele>16.0</ele><time>2026-04-04T09:47:18.826Z</time></trkpt><trkpt lat="42.1707683" lon="14.63943"><ele>15.999999999999998</ele><time>2026-04-04T09:47:19.826Z</time></trkpt><trkpt lat="42.1706983" lon="14.6394417"><ele>16.0</ele><time>2026-04-04T09:47:20.826Z</time></trkpt><trkpt lat="42.1706333" lon="14.6394567"><ele>16.0</ele><time>2026-04-04T09:47:21.826Z</time></trkpt><trkpt lat="42.1705667" lon="14.63947"><ele>16.0</ele><time>2026-04-04T09:47:22.826Z</time></trkpt><trkpt lat="42.1705017" lon="14.6394817"><ele>15.999999999999998</ele><time>2026-04-04T09:47:23.826Z</time></trkpt><trkpt lat="42.1704317" lon="14.639495"><ele>16.0</ele><time>2026-04-04T09:47:24.826Z</time></trkpt><trkpt lat="42.1703633" lon="14.6395033"><ele>16.0</ele><time>2026-04-04T09:47:25.826Z</time></trkpt><trkpt lat="42.170295" lon="14.6395133"><ele>15.999999999999998</ele><time>2026-04-04T09:47:26.826Z</time></trkpt><trkpt lat="42.1702283" lon="14.6395267"><ele>16.0</ele><time>2026-04-04T09:47:27.826Z</time></trkpt><trkpt lat="42.1701617" lon="14.6395367"><ele>16.0</ele><time>2026-04-04T09:47:28.826Z</time></trkpt><trkpt lat="42.1700933" lon="14.6395467"><ele>16.0</ele><time>2026-04-04T09:47:29.826Z</time></trkpt><trkpt lat="42.1700283" lon="14.6395583"><ele>15.999999999999998</ele><time>2026-04-04T09:47:30.826Z</time></trkpt><trkpt lat="42.169965" lon="14.63957"><ele>16.0</ele><time>2026-04-04T09:47:31.826Z</time></trkpt><trkpt lat="42.1698967" lon="14.6395783"><ele>16.0</ele><time>2026-04-04T09:47:32.826Z</time></trkpt><trkpt lat="42.1698317" lon="14.6395883"><ele>15.999999999999998</ele><time>2026-04-04T09:47:33.826Z</time></trkpt><trkpt lat="42.1697683" lon="14.6395983"><ele>16.0</ele><time>2026-04-04T09:47:34.827Z</time></trkpt><trkpt lat="42.169705" lon="14.6396083"><ele>16.0</ele><time>2026-04-04T09:47:35.826Z</time></trkpt><trkpt lat="42.1696383" lon="14.6396167"><ele>16.333333333333332</ele><time>2026-04-04T09:47:36.826Z</time></trkpt><trkpt lat="42.1695733" lon="14.6396267"><ele>16.666666666666664</ele><time>2026-04-04T09:47:37.826Z</time></trkpt><trkpt lat="42.169445" lon="14.63965"><ele>17.0</ele><time>2026-04-04T09:47:39.826Z</time></trkpt><trkpt lat="42.16938" lon="14.6396617"><ele>17.333333333333332</ele><time>2026-04-04T09:47:40.826Z</time></trkpt><trkpt lat="42.169305" lon="14.6396767"><ele>17.666666666666668</ele><time>2026-04-04T09:47:41.826Z</time></trkpt><trkpt lat="42.169235" lon="14.63969"><ele>18.0</ele><time>2026-04-04T09:47:42.826Z</time></trkpt><trkpt lat="42.16917" lon="14.639705"><ele>18.000000000000004</ele><time>2026-04-04T09:47:43.827Z</time></trkpt><trkpt lat="42.1691033" lon="14.6397133"><ele>18.0</ele><time>2026-04-04T09:47:44.826Z</time></trkpt><trkpt lat="42.169035" lon="14.63972"><ele>18.0</ele><time>2026-04-04T09:47:45.826Z</time></trkpt><trkpt lat="42.1689633" lon="14.6397283"><ele>18.0</ele><time>2026-04-04T09:47:46.826Z</time></trkpt><trkpt lat="42.168895" lon="14.63974"><ele>18.0</ele><time>2026-04-04T09:47:47.826Z</time></trkpt><trkpt lat="42.1688283" lon="14.6397483"><ele>18.000000000000004</ele><time>2026-04-04T09:47:48.827Z</time></trkpt><trkpt lat="42.16876" lon="14.63976"><ele>18.0</ele><time>2026-04-04T09:47:49.826Z</time></trkpt><trkpt lat="42.1686933" lon="14.63977"><ele>18.0</ele><time>2026-04-04T09:47:50.826Z</time></trkpt><trkpt lat="42.1686267" lon="14.63978"><ele>18.0</ele><time>2026-04-04T09:47:51.826Z</time></trkpt><trkpt lat="42.16856" lon="14.6397933"><ele>18.0</ele><time>2026-04-04T09:47:52.826Z</time></trkpt><trkpt lat="42.168495" lon="14.6398017"><ele>18.0</ele><time>2026-04-04T09:47:53.826Z</time></trkpt><trkpt lat="42.168365" lon="14.63982"><ele>18.0</ele><time>2026-04-04T09:47:55.826Z</time></trkpt><trkpt lat="42.1683" lon="14.6398267"><ele>18.0</ele><time>2026-04-04T09:47:56.827Z</time></trkpt><trkpt lat="42.168235" lon="14.6398367"><ele>17.833333333333332</ele><time>2026-04-04T09:47:57.826Z</time></trkpt><trkpt lat="42.16817" lon="14.63985"><ele>17.666666666666668</ele><time>2026-04-04T09:47:58.826Z</time></trkpt><trkpt lat="42.1681017" lon="14.6398617"><ele>17.5</ele><time>2026-04-04T09:47:59.827Z</time></trkpt><trkpt lat="42.1680333" lon="14.639875"><ele>17.333333333333336</ele><time>2026-04-04T09:48:00.826Z</time></trkpt><trkpt lat="42.1679617" lon="14.6398917"><ele>17.166666666666668</ele><time>2026-04-04T09:48:01.826Z</time></trkpt><trkpt lat="42.1678917" lon="14.6399033"><ele>17.0</ele><time>2026-04-04T09:48:02.826Z</time></trkpt><trkpt lat="42.167765" lon="14.6399233"><ele>16.999999999999996</ele><time>2026-04-04T09:48:04.826Z</time></trkpt><trkpt lat="42.1676983" lon="14.6399367"><ele>17.0</ele><time>2026-04-04T09:48:05.827Z</time></trkpt><trkpt lat="42.167625" lon="14.6399467"><ele>17.0</ele><time>2026-04-04T09:48:06.826Z</time></trkpt><trkpt lat="42.1675517" lon="14.6399567"><ele>17.0</ele><time>2026-04-04T09:48:07.826Z</time></trkpt><trkpt lat="42.1674783" lon="14.63997"><ele>17.0</ele><time>2026-04-04T09:48:08.826Z</time></trkpt><trkpt lat="42.1674117" lon="14.639985"><ele>16.999999999999996</ele><time>2026-04-04T09:48:09.826Z</time></trkpt><trkpt lat="42.1673417" lon="14.6399967"><ele>17.0</ele><time>2026-04-04T09:48:10.826Z</time></trkpt><trkpt lat="42.1672733" lon="14.6400117"><ele>16.999999999999996</ele><time>2026-04-04T09:48:11.826Z</time></trkpt><trkpt lat="42.1672083" lon="14.6400233"><ele>17.0</ele><time>2026-04-04T09:48:12.827Z</time></trkpt><trkpt lat="42.16714" lon="14.6400317"><ele>17.0</ele><time>2026-04-04T09:48:13.826Z</time></trkpt><trkpt lat="42.1670733" lon="14.6400417"><ele>17.0</ele><time>2026-04-04T09:48:14.826Z</time></trkpt><trkpt lat="42.167" lon="14.6400517"><ele>17.0</ele><time>2026-04-04T09:48:15.827Z</time></trkpt><trkpt lat="42.1669367" lon="14.6400583"><ele>16.999999999999996</ele><time>2026-04-04T09:48:16.826Z</time></trkpt><trkpt lat="42.1668717" lon="14.6400717"><ele>17.0</ele><time>2026-04-04T09:48:17.826Z</time></trkpt><trkpt lat="42.166805" lon="14.640085"><ele>16.999999999999996</ele><time>2026-04-04T09:48:18.826Z</time></trkpt><trkpt lat="42.1667383" lon="14.640095"><ele>17.0</ele><time>2026-04-04T09:48:19.826Z</time></trkpt><trkpt lat="42.166665" lon="14.640105"><ele>17.0</ele><time>2026-04-04T09:48:20.827Z</time></trkpt><trkpt lat="42.166595" lon="14.640115"><ele>17.0</ele><time>2026-04-04T09:48:21.826Z</time></trkpt><trkpt lat="42.1665233" lon="14.6401283"><ele>17.0</ele><time>2026-04-04T09:48:22.826Z</time></trkpt><trkpt lat="42.166455" lon="14.64014"><ele>16.999999999999996</ele><time>2026-04-04T09:48:23.826Z</time></trkpt><trkpt lat="42.166385" lon="14.6401517"><ele>17.0</ele><time>2026-04-04T09:48:24.826Z</time></trkpt><trkpt lat="42.1663167" lon="14.6401667"><ele>17.166666666666668</ele><time>2026-04-04T09:48:25.826Z</time></trkpt><trkpt lat="42.1662483" lon="14.64018"><ele>17.333333333333336</ele><time>2026-04-04T09:48:26.826Z</time></trkpt><trkpt lat="42.16612" lon="14.6401983"><ele>17.5</ele><time>2026-04-04T09:48:28.826Z</time></trkpt><trkpt lat="42.1660517" lon="14.640205"><ele>17.666666666666668</ele><time>2026-04-04T09:48:29.826Z</time></trkpt><trkpt lat="42.1659867" lon="14.640215"><ele>17.833333333333332</ele><time>2026-04-04T09:48:30.826Z</time></trkpt><trkpt lat="42.1659217" lon="14.6402233"><ele>18.0</ele><time>2026-04-04T09:48:31.826Z</time></trkpt><trkpt lat="42.1658567" lon="14.640235"><ele>18.000000000000004</ele><time>2026-04-04T09:48:32.827Z</time></trkpt><trkpt lat="42.1657917" lon="14.640245"><ele>18.0</ele><time>2026-04-04T09:48:33.826Z</time></trkpt><trkpt lat="42.165725" lon="14.6402567"><ele>18.0</ele><time>2026-04-04T09:48:34.826Z</time></trkpt><trkpt lat="42.1656617" lon="14.6402667"><ele>18.0</ele><time>2026-04-04T09:48:35.826Z</time></trkpt><trkpt lat="42.1655967" lon="14.6402783"><ele>18.0</ele><time>2026-04-04T09:48:36.826Z</time></trkpt><trkpt lat="42.1655317" lon="14.6402883"><ele>18.000000000000004</ele><time>2026-04-04T09:48:37.826Z</time></trkpt><trkpt lat="42.1654617" lon="14.640295"><ele>18.0</ele><time>2026-04-04T09:48:38.826Z</time></trkpt><trkpt lat="42.165395" lon="14.640305"><ele>18.142857142857146</ele><time>2026-04-04T09:48:39.827Z</time></trkpt><trkpt lat="42.16533" lon="14.6403217"><ele>18.285714285714285</ele><time>2026-04-04T09:48:40.826Z</time></trkpt><trkpt lat="42.16526" lon="14.6403317"><ele>18.42857142857143</ele><time>2026-04-04T09:48:41.826Z</time></trkpt><trkpt lat="42.1651817" lon="14.64034"><ele>18.571428571428573</ele><time>2026-04-04T09:48:42.826Z</time></trkpt><trkpt lat="42.1651117" lon="14.6403617"><ele>18.714285714285715</ele><time>2026-04-04T09:48:43.826Z</time></trkpt><trkpt lat="42.1650417" lon="14.64038"><ele>18.857142857142858</ele><time>2026-04-04T09:48:44.826Z</time></trkpt><trkpt lat="42.1649767" lon="14.640395"><ele>19.0</ele><time>2026-04-04T09:48:45.826Z</time></trkpt><trkpt lat="42.1649117" lon="14.6404183"><ele>19.166666666666664</ele><time>2026-04-04T09:48:46.826Z</time></trkpt><trkpt lat="42.1648433" lon="14.6404433"><ele>19.333333333333332</ele><time>2026-04-04T09:48:47.826Z</time></trkpt><trkpt lat="42.1647817" lon="14.6404733"><ele>19.5</ele><time>2026-04-04T09:48:48.827Z</time></trkpt><trkpt lat="42.1647217" lon="14.640505"><ele>19.666666666666668</ele><time>2026-04-04T09:48:49.826Z</time></trkpt><trkpt lat="42.16466" lon="14.6405317"><ele>19.833333333333336</ele><time>2026-04-04T09:48:50.826Z</time></trkpt><trkpt lat="42.1646" lon="14.6405583"><ele>20.0</ele><time>2026-04-04T09:48:51.826Z</time></trkpt><trkpt lat="42.1644817" lon="14.640595"><ele>20.0</ele><time>2026-04-04T09:48:53.826Z</time></trkpt><trkpt lat="42.1643617" lon="14.640625"><ele>20.0</ele><time>2026-04-04T09:48:55.826Z</time></trkpt><trkpt lat="42.1642567" lon="14.640625"><ele>20.0</ele><time>2026-04-04T09:48:57.826Z</time></trkpt><trkpt lat="42.16414" lon="14.640595"><ele>20.0</ele><time>2026-04-04T09:48:59.826Z</time></trkpt><trkpt lat="42.1640233" lon="14.6406067"><ele>19.5</ele><time>2026-04-04T09:49:01.826Z</time></trkpt><trkpt lat="42.1639133" lon="14.6406767"><ele>19.0</ele><time>2026-04-04T09:49:03.826Z</time></trkpt><trkpt lat="42.1638367" lon="14.6407917"><ele>18.5</ele><time>2026-04-04T09:49:05.826Z</time></trkpt><trkpt lat="42.1638217" lon="14.6409333"><ele>18.0</ele><time>2026-04-04T09:49:07.826Z</time></trkpt><trkpt lat="42.1638517" lon="14.6410967"><ele>18.166666666666668</ele><time>2026-04-04T09:49:09.826Z</time></trkpt><trkpt lat="42.1638867" lon="14.64118"><ele>18.333333333333332</ele><time>2026-04-04T09:49:10.826Z</time></trkpt><trkpt lat="42.1639083" lon="14.6412633"><ele>18.5</ele><time>2026-04-04T09:49:11.826Z</time></trkpt><trkpt lat="42.1639033" lon="14.641435"><ele>18.666666666666664</ele><time>2026-04-04T09:49:13.827Z</time></trkpt><trkpt lat="42.163895" lon="14.6415233"><ele>18.833333333333332</ele><time>2026-04-04T09:49:14.826Z</time></trkpt><trkpt lat="42.163885" lon="14.6416083"><ele>19.0</ele><time>2026-04-04T09:49:15.826Z</time></trkpt><trkpt lat="42.1638633" lon="14.64177"><ele>19.0</ele><time>2026-04-04T09:49:17.826Z</time></trkpt><trkpt lat="42.1638517" lon="14.6419183"><ele>19.0</ele><time>2026-04-04T09:49:19.827Z</time></trkpt><trkpt lat="42.1638467" lon="14.6420833"><ele>19.0</ele><time>2026-04-04T09:49:21.826Z</time></trkpt><trkpt lat="42.1638467" lon="14.6422517"><ele>19.0</ele><time>2026-04-04T09:49:23.826Z</time></trkpt><trkpt lat="42.1638517" lon="14.6424067"><ele>19.166666666666664</ele><time>2026-04-04T09:49:25.826Z</time></trkpt><trkpt lat="42.1638533" lon="14.6425717"><ele>19.333333333333332</ele><time>2026-04-04T09:49:27.827Z</time></trkpt><trkpt lat="42.1638567" lon="14.6426567"><ele>19.5</ele><time>2026-04-04T09:49:28.826Z</time></trkpt><trkpt lat="42.1638683" lon="14.64282"><ele>19.666666666666668</ele><time>2026-04-04T09:49:30.827Z</time></trkpt><trkpt lat="42.16386" lon="14.6429183"><ele>19.833333333333336</ele><time>2026-04-04T09:49:31.826Z</time></trkpt><trkpt lat="42.163865" lon="14.6430033"><ele>20.0</ele><time>2026-04-04T09:49:32.826Z</time></trkpt><trkpt lat="42.16387" lon="14.64309"><ele>20.0</ele><time>2026-04-04T09:49:33.826Z</time></trkpt><trkpt lat="42.1638733" lon="14.6432617"><ele>20.0</ele><time>2026-04-04T09:49:35.826Z</time></trkpt><trkpt lat="42.1638783" lon="14.6433533"><ele>20.0</ele><time>2026-04-04T09:49:36.826Z</time></trkpt><trkpt lat="42.163885" lon="14.6434467"><ele>20.0</ele><time>2026-04-04T09:49:37.826Z</time></trkpt><trkpt lat="42.16389" lon="14.6435383"><ele>20.0</ele><time>2026-04-04T09:49:38.826Z</time></trkpt><trkpt lat="42.1639033" lon="14.64371"><ele>19.57142857142857</ele><time>2026-04-04T09:49:40.826Z</time></trkpt><trkpt lat="42.1639067" lon="14.6437967"><ele>19.142857142857142</ele><time>2026-04-04T09:49:41.826Z</time></trkpt><trkpt lat="42.1639067" lon="14.6438817"><ele>18.714285714285715</ele><time>2026-04-04T09:49:42.826Z</time></trkpt><trkpt lat="42.1639167" lon="14.6439717"><ele>18.285714285714285</ele><time>2026-04-04T09:49:43.826Z</time></trkpt><trkpt lat="42.1639217" lon="14.6440617"><ele>17.857142857142858</ele><time>2026-04-04T09:49:44.826Z</time></trkpt><trkpt lat="42.163925" lon="14.64415"><ele>17.428571428571427</ele><time>2026-04-04T09:49:45.826Z</time></trkpt><trkpt lat="42.1639267" lon="14.64424"><ele>17.0</ele><time>2026-04-04T09:49:46.826Z</time></trkpt><trkpt lat="42.16393" lon="14.6443283"><ele>17.0</ele><time>2026-04-04T09:49:47.826Z</time></trkpt><trkpt lat="42.1639333" lon="14.6444167"><ele>17.0</ele><time>2026-04-04T09:49:48.826Z</time></trkpt><trkpt lat="42.16393" lon="14.64458"><ele>17.0</ele><time>2026-04-04T09:49:50.827Z</time></trkpt><trkpt lat="42.1639333" lon="14.6446667"><ele>17.0</ele><time>2026-04-04T09:49:51.826Z</time></trkpt><trkpt lat="42.1639383" lon="14.6447617"><ele>17.0</ele><time>2026-04-04T09:49:52.826Z</time></trkpt><trkpt lat="42.16394" lon="14.6448517"><ele>17.0</ele><time>2026-04-04T09:49:53.826Z</time></trkpt><trkpt lat="42.16394" lon="14.6450083"><ele>17.0</ele><time>2026-04-04T09:49:55.826Z</time></trkpt><trkpt lat="42.1639433" lon="14.6451767"><ele>17.0</ele><time>2026-04-04T09:49:57.826Z</time></trkpt><trkpt lat="42.1639467" lon="14.64534"><ele>17.0</ele><time>2026-04-04T09:49:59.826Z</time></trkpt><trkpt lat="42.163945" lon="14.6454267"><ele>17.0</ele><time>2026-04-04T09:50:00.826Z</time></trkpt><trkpt lat="42.1639467" lon="14.645515"><ele>17.0</ele><time>2026-04-04T09:50:01.826Z</time></trkpt><trkpt lat="42.1639517" lon="14.6456767"><ele>17.166666666666668</ele><time>2026-04-04T09:50:03.826Z</time></trkpt><trkpt lat="42.1639517" lon="14.6458483"><ele>17.333333333333336</ele><time>2026-04-04T09:50:05.826Z</time></trkpt><trkpt lat="42.16395" lon="14.64594"><ele>17.5</ele><time>2026-04-04T09:50:06.826Z</time></trkpt><trkpt lat="42.163955" lon="14.6460367"><ele>17.666666666666668</ele><time>2026-04-04T09:50:07.826Z</time></trkpt><trkpt lat="42.163955" lon="14.64613"><ele>17.833333333333332</ele><time>2026-04-04T09:50:08.826Z</time></trkpt><trkpt lat="42.1639567" lon="14.6462167"><ele>18.0</ele><time>2026-04-04T09:50:09.826Z</time></trkpt><trkpt lat="42.1639517" lon="14.6463833"><ele>18.4</ele><time>2026-04-04T09:50:11.826Z</time></trkpt><trkpt lat="42.1639517" lon="14.6465433"><ele>18.8</ele><time>2026-04-04T09:50:13.826Z</time></trkpt><trkpt lat="42.1639383" lon="14.6467067"><ele>19.2</ele><time>2026-04-04T09:50:15.826Z</time></trkpt><trkpt lat="42.16393" lon="14.6467983"><ele>19.6</ele><time>2026-04-04T09:50:16.826Z</time></trkpt><trkpt lat="42.16392" lon="14.6468867"><ele>20.0</ele><time>2026-04-04T09:50:17.826Z</time></trkpt><trkpt lat="42.1639017" lon="14.6470417"><ele>20.0</ele><time>2026-04-04T09:50:19.827Z</time></trkpt><trkpt lat="42.163885" lon="14.6471983"><ele>20.0</ele><time>2026-04-04T09:50:21.826Z</time></trkpt><trkpt lat="42.1638733" lon="14.64735"><ele>20.0</ele><time>2026-04-04T09:50:23.826Z</time></trkpt><trkpt lat="42.16386" lon="14.64749"><ele>20.0</ele><time>2026-04-04T09:50:25.826Z</time></trkpt><trkpt lat="42.1638483" lon="14.6476317"><ele>20.0</ele><time>2026-04-04T09:50:27.826Z</time></trkpt><trkpt lat="42.1638333" lon="14.64777"><ele>20.4</ele><time>2026-04-04T09:50:29.826Z</time></trkpt><trkpt lat="42.1638233" lon="14.64789"><ele>20.8</ele><time>2026-04-04T09:50:31.826Z</time></trkpt><trkpt lat="42.1638083" lon="14.6480283"><ele>21.200000000000003</ele><time>2026-04-04T09:50:33.826Z</time></trkpt><trkpt lat="42.163795" lon="14.6481567"><ele>21.6</ele><time>2026-04-04T09:50:35.827Z</time></trkpt><trkpt lat="42.1637833" lon="14.6482883"><ele>22.0</ele><time>2026-04-04T09:50:37.826Z</time></trkpt><trkpt lat="42.1637783" lon="14.6484033"><ele>22.0</ele><time>2026-04-04T09:50:39.827Z</time></trkpt><trkpt lat="42.1637617" lon="14.6485283"><ele>22.0</ele><time>2026-04-04T09:50:41.827Z</time></trkpt><trkpt lat="42.16375" lon="14.6486483"><ele>22.0</ele><time>2026-04-04T09:50:43.826Z</time></trkpt><trkpt lat="42.1637367" lon="14.6487667"><ele>22.0</ele><time>2026-04-04T09:50:45.826Z</time></trkpt><trkpt lat="42.1637267" lon="14.6488833"><ele>22.0</ele><time>2026-04-04T09:50:47.826Z</time></trkpt><trkpt lat="42.1637183" lon="14.649"><ele>22.0</ele><time>2026-04-04T09:50:49.826Z</time></trkpt><trkpt lat="42.1637083" lon="14.6491167"><ele>22.0</ele><time>2026-04-04T09:50:51.826Z</time></trkpt><trkpt lat="42.1637" lon="14.649235"><ele>22.0</ele><time>2026-04-04T09:50:53.826Z</time></trkpt><trkpt lat="42.163695" lon="14.64934"><ele>22.0</ele><time>2026-04-04T09:50:55.826Z</time></trkpt><trkpt lat="42.16369" lon="14.64946"><ele>22.0</ele><time>2026-04-04T09:50:57.826Z</time></trkpt><trkpt lat="42.163695" lon="14.6495683"><ele>22.0</ele><time>2026-04-04T09:50:59.826Z</time></trkpt><trkpt lat="42.163695" lon="14.64968"><ele>22.0</ele><time>2026-04-04T09:51:01.826Z</time></trkpt><trkpt lat="42.1637" lon="14.6497817"><ele>22.0</ele><time>2026-04-04T09:51:03.826Z</time></trkpt><trkpt lat="42.1636983" lon="14.6498867"><ele>22.0</ele><time>2026-04-04T09:51:05.826Z</time></trkpt><trkpt lat="42.1637017" lon="14.6499817"><ele>22.0</ele><time>2026-04-04T09:51:07.826Z</time></trkpt><trkpt lat="42.1637083" lon="14.6500817"><ele>22.0</ele><time>2026-04-04T09:51:09.826Z</time></trkpt><trkpt lat="42.16372" lon="14.6501733"><ele>22.0</ele><time>2026-04-04T09:51:11.826Z</time></trkpt><trkpt lat="42.1637283" lon="14.6502733"><ele>22.0</ele><time>2026-04-04T09:51:13.826Z</time></trkpt><trkpt lat="42.1637383" lon="14.6503667"><ele>22.0</ele><time>2026-04-04T09:51:15.826Z</time></trkpt><trkpt lat="42.163755" lon="14.6504667"><ele>22.0</ele><time>2026-04-04T09:51:17.826Z</time></trkpt><trkpt lat="42.1637683" lon="14.6505617"><ele>22.0</ele><time>2026-04-04T09:51:19.827Z</time></trkpt><trkpt lat="42.1637817" lon="14.65065"><ele>22.0</ele><time>2026-04-04T09:51:21.826Z</time></trkpt><trkpt lat="42.1638033" lon="14.6507483"><ele>22.0</ele><time>2026-04-04T09:51:23.826Z</time></trkpt><trkpt lat="42.1638283" lon="14.6508433"><ele>22.0</ele><time>2026-04-04T09:51:25.826Z</time></trkpt><trkpt lat="42.1638533" lon="14.65093"><ele>22.0</ele><time>2026-04-04T09:51:27.826Z</time></trkpt><trkpt lat="42.1638883" lon="14.6510467"><ele>22.857142857142858</ele><time>2026-04-04T09:51:30.826Z</time></trkpt><trkpt lat="42.1639117" lon="14.6511283"><ele>23.714285714285715</ele><time>2026-04-04T09:51:32.826Z</time></trkpt><trkpt lat="42.163935" lon="14.6512083"><ele>24.57142857142857</ele><time>2026-04-04T09:51:34.826Z</time></trkpt><trkpt lat="42.1639583" lon="14.65129"><ele>25.42857142857143</ele><time>2026-04-04T09:51:36.827Z</time></trkpt><trkpt lat="42.163995" lon="14.6514017"><ele>26.285714285714285</ele><time>2026-04-04T09:51:39.826Z</time></trkpt><trkpt lat="42.1640367" lon="14.6515183"><ele>27.142857142857142</ele><time>2026-04-04T09:51:42.827Z</time></trkpt><trkpt lat="42.16407" lon="14.6515933"><ele>28.0</ele><time>2026-04-04T09:51:44.826Z</time></trkpt><trkpt lat="42.164115" lon="14.6517"><ele>28.333333333333336</ele><time>2026-04-04T09:51:47.826Z</time></trkpt><trkpt lat="42.16416" lon="14.6518033"><ele>28.666666666666668</ele><time>2026-04-04T09:51:50.826Z</time></trkpt><trkpt lat="42.1642067" lon="14.651905"><ele>29.0</ele><time>2026-04-04T09:51:53.826Z</time></trkpt><trkpt lat="42.164255" lon="14.652"><ele>29.333333333333336</ele><time>2026-04-04T09:51:56.827Z</time></trkpt><trkpt lat="42.1642983" lon="14.6520883"><ele>29.666666666666668</ele><time>2026-04-04T09:51:59.826Z</time></trkpt><trkpt lat="42.1643533" lon="14.6521667"><ele>30.0</ele><time>2026-04-04T09:52:02.826Z</time></trkpt><trkpt lat="42.1644083" lon="14.652255"><ele>32.166666666666664</ele><time>2026-04-04T09:52:05.826Z</time></trkpt><trkpt lat="42.1644467" lon="14.6523333"><ele>34.333333333333336</ele><time>2026-04-04T09:52:08.826Z</time></trkpt><trkpt lat="42.1644933" lon="14.652415"><ele>36.5</ele><time>2026-04-04T09:52:11.826Z</time></trkpt><trkpt lat="42.164545" lon="14.6524983"><ele>38.66666666666667</ele><time>2026-04-04T09:52:14.826Z</time></trkpt><trkpt lat="42.16461" lon="14.6525733"><ele>40.833333333333336</ele><time>2026-04-04T09:52:17.826Z</time></trkpt><trkpt lat="42.1646833" lon="14.65265"><ele>43.0</ele><time>2026-04-04T09:52:20.826Z</time></trkpt><trkpt lat="42.1647317" lon="14.6527067"><ele>43.0</ele><time>2026-04-04T09:52:22.826Z</time></trkpt><trkpt lat="42.16479" lon="14.652785"><ele>43.0</ele><time>2026-04-04T09:52:25.826Z</time></trkpt><trkpt lat="42.164855" lon="14.6528617"><ele>43.0</ele><time>2026-04-04T09:52:28.826Z</time></trkpt><trkpt lat="42.1649217" lon="14.6529383"><ele>43.0</ele><time>2026-04-04T09:52:31.826Z</time></trkpt><trkpt lat="42.1649933" lon="14.653005"><ele>43.0</ele><time>2026-04-04T09:52:34.826Z</time></trkpt><trkpt lat="42.165075" lon="14.653075"><ele>43.0</ele><time>2026-04-04T09:52:37.826Z</time></trkpt><trkpt lat="42.165145" lon="14.6531533"><ele>45.66666666666667</ele><time>2026-04-04T09:52:40.826Z</time></trkpt><trkpt lat="42.165215" lon="14.6532233"><ele>48.333333333333336</ele><time>2026-04-04T09:52:43.826Z</time></trkpt><trkpt lat="42.1652917" lon="14.6532867"><ele>51.0</ele><time>2026-04-04T09:52:46.827Z</time></trkpt><trkpt lat="42.165365" lon="14.6533367"><ele>53.66666666666667</ele><time>2026-04-04T09:52:49.826Z</time></trkpt><trkpt lat="42.1654283" lon="14.6533917"><ele>56.333333333333336</ele><time>2026-04-04T09:52:52.826Z</time></trkpt><trkpt lat="42.1655017" lon="14.653455"><ele>59.0</ele><time>2026-04-04T09:52:55.826Z</time></trkpt><trkpt lat="42.1655767" lon="14.6535283"><ele>59.00000000000001</ele><time>2026-04-04T09:52:58.826Z</time></trkpt><trkpt lat="42.1656533" lon="14.65358"><ele>59.0</ele><time>2026-04-04T09:53:01.826Z</time></trkpt><trkpt lat="42.1657267" lon="14.653645"><ele>59.0</ele><time>2026-04-04T09:53:04.826Z</time></trkpt><trkpt lat="42.165795" lon="14.6536917"><ele>59.0</ele><time>2026-04-04T09:53:07.826Z</time></trkpt><trkpt lat="42.1658667" lon="14.65375"><ele>59.00000000000001</ele><time>2026-04-04T09:53:10.826Z</time></trkpt><trkpt lat="42.1659217" lon="14.653795"><ele>59.0</ele><time>2026-04-04T09:53:12.826Z</time></trkpt><trkpt lat="42.1659717" lon="14.6538467"><ele>60.50000000000001</ele><time>2026-04-04T09:53:14.826Z</time></trkpt><trkpt lat="42.1660383" lon="14.653915"><ele>62.0</ele><time>2026-04-04T09:53:17.826Z</time></trkpt><trkpt lat="42.1661017" lon="14.653975"><ele>63.5</ele><time>2026-04-04T09:53:20.827Z</time></trkpt><trkpt lat="42.1661733" lon="14.6540367"><ele>65.0</ele><time>2026-04-04T09:53:23.826Z</time></trkpt><trkpt lat="42.16625" lon="14.6540967"><ele>66.5</ele><time>2026-04-04T09:53:26.826Z</time></trkpt><trkpt lat="42.16632" lon="14.6541533"><ele>68.0</ele><time>2026-04-04T09:53:29.826Z</time></trkpt><trkpt lat="42.1663933" lon="14.6542167"><ele>68.0</ele><time>2026-04-04T09:53:32.827Z</time></trkpt><trkpt lat="42.1664767" lon="14.65429"><ele>68.0</ele><time>2026-04-04T09:53:35.826Z</time></trkpt><trkpt lat="42.1665533" lon="14.6543467"><ele>68.0</ele><time>2026-04-04T09:53:38.826Z</time></trkpt><trkpt lat="42.1666083" lon="14.6544183"><ele>68.0</ele><time>2026-04-04T09:53:41.826Z</time></trkpt><trkpt lat="42.1666683" lon="14.65448"><ele>68.0</ele><time>2026-04-04T09:53:44.826Z</time></trkpt><trkpt lat="42.16672" lon="14.6545367"><ele>68.0</ele><time>2026-04-04T09:53:46.826Z</time></trkpt><trkpt lat="42.1667717" lon="14.6545933"><ele>66.66666666666667</ele><time>2026-04-04T09:53:48.826Z</time></trkpt><trkpt lat="42.16683" lon="14.6546783"><ele>65.33333333333334</ele><time>2026-04-04T09:53:51.826Z</time></trkpt><trkpt lat="42.1668933" lon="14.6547583"><ele>64.0</ele><time>2026-04-04T09:53:54.827Z</time></trkpt><trkpt lat="42.1669467" lon="14.654845"><ele>62.66666666666667</ele><time>2026-04-04T09:53:57.826Z</time></trkpt><trkpt lat="42.1670083" lon="14.6549267"><ele>61.333333333333336</ele><time>2026-04-04T09:54:00.826Z</time></trkpt><trkpt lat="42.1670667" lon="14.6550083"><ele>60.0</ele><time>2026-04-04T09:54:03.826Z</time></trkpt><trkpt lat="42.1671233" lon="14.6551033"><ele>60.0</ele><time>2026-04-04T09:54:06.826Z</time></trkpt><trkpt lat="42.16717" lon="14.6552067"><ele>60.0</ele><time>2026-04-04T09:54:09.827Z</time></trkpt><trkpt lat="42.1672217" lon="14.6553067"><ele>60.0</ele><time>2026-04-04T09:54:12.826Z</time></trkpt><trkpt lat="42.1672717" lon="14.655405"><ele>60.0</ele><time>2026-04-04T09:54:15.826Z</time></trkpt><trkpt lat="42.167305" lon="14.6554783"><ele>60.0</ele><time>2026-04-04T09:54:17.827Z</time></trkpt><trkpt lat="42.1673483" lon="14.6555783"><ele>60.0</ele><time>2026-04-04T09:54:20.826Z</time></trkpt><trkpt lat="42.1673917" lon="14.655675"><ele>62.0</ele><time>2026-04-04T09:54:23.826Z</time></trkpt><trkpt lat="42.1674333" lon="14.6557667"><ele>64.0</ele><time>2026-04-04T09:54:26.826Z</time></trkpt><trkpt lat="42.16747" lon="14.6558567"><ele>66.0</ele><time>2026-04-04T09:54:29.827Z</time></trkpt><trkpt lat="42.1674967" lon="14.6559417"><ele>68.0</ele><time>2026-04-04T09:54:32.826Z</time></trkpt><trkpt lat="42.167525" lon="14.6560383"><ele>70.0</ele><time>2026-04-04T09:54:35.826Z</time></trkpt><trkpt lat="42.1675583" lon="14.6561367"><ele>72.0</ele><time>2026-04-04T09:54:38.826Z</time></trkpt><trkpt lat="42.1675783" lon="14.656265"><ele>73.33333333333333</ele><time>2026-04-04T09:54:41.826Z</time></trkpt><trkpt lat="42.1675933" lon="14.65637"><ele>74.66666666666667</ele><time>2026-04-04T09:54:43.826Z</time></trkpt><trkpt lat="42.1676067" lon="14.6564883"><ele>76.0</ele><time>2026-04-04T09:54:45.826Z</time></trkpt><trkpt lat="42.1676183" lon="14.6565967"><ele>77.33333333333334</ele><time>2026-04-04T09:54:47.826Z</time></trkpt><trkpt lat="42.1676417" lon="14.65669"><ele>78.66666666666667</ele><time>2026-04-04T09:54:49.826Z</time></trkpt><trkpt lat="42.1676583" lon="14.6567733"><ele>80.0</ele><time>2026-04-04T09:54:51.826Z</time></trkpt><trkpt lat="42.1676683" lon="14.65688"><ele>80.0</ele><time>2026-04-04T09:54:53.827Z</time></trkpt><trkpt lat="42.1676717" lon="14.65697"><ele>80.0</ele><time>2026-04-04T09:54:55.826Z</time></trkpt><trkpt lat="42.1676683" lon="14.65707"><ele>80.0</ele><time>2026-04-04T09:54:57.826Z</time></trkpt><trkpt lat="42.16767" lon="14.657165"><ele>80.0</ele><time>2026-04-04T09:54:59.826Z</time></trkpt><trkpt lat="42.16768" lon="14.6572717"><ele>80.0</ele><time>2026-04-04T09:55:01.826Z</time></trkpt><trkpt lat="42.1676883" lon="14.6573633"><ele>80.0</ele><time>2026-04-04T09:55:03.827Z</time></trkpt><trkpt lat="42.1676917" lon="14.6574583"><ele>80.0</ele><time>2026-04-04T09:55:05.826Z</time></trkpt><trkpt lat="42.1676817" lon="14.6575633"><ele>80.0</ele><time>2026-04-04T09:55:07.826Z</time></trkpt><trkpt lat="42.1676717" lon="14.6576633"><ele>80.0</ele><time>2026-04-04T09:55:09.826Z</time></trkpt><trkpt lat="42.16766" lon="14.6577667"><ele>80.0</ele><time>2026-04-04T09:55:11.826Z</time></trkpt><trkpt lat="42.16765" lon="14.6578683"><ele>80.0</ele><time>2026-04-04T09:55:13.827Z</time></trkpt><trkpt lat="42.16764" lon="14.6579767"><ele>80.0</ele><time>2026-04-04T09:55:15.826Z</time></trkpt><trkpt lat="42.1676217" lon="14.6580883"><ele>80.0</ele><time>2026-04-04T09:55:17.826Z</time></trkpt><trkpt lat="42.167605" lon="14.6581933"><ele>79.5</ele><time>2026-04-04T09:55:19.826Z</time></trkpt><trkpt lat="42.1675767" lon="14.6583033"><ele>79.0</ele><time>2026-04-04T09:55:21.826Z</time></trkpt><trkpt lat="42.1675467" lon="14.6584083"><ele>78.5</ele><time>2026-04-04T09:55:23.826Z</time></trkpt><trkpt lat="42.1675167" lon="14.658515"><ele>78.0</ele><time>2026-04-04T09:55:25.826Z</time></trkpt><trkpt lat="42.1674867" lon="14.6586183"><ele>77.5</ele><time>2026-04-04T09:55:27.827Z</time></trkpt><trkpt lat="42.1674567" lon="14.6587133"><ele>77.0</ele><time>2026-04-04T09:55:29.826Z</time></trkpt><trkpt lat="42.1674167" lon="14.658815"><ele>76.83333333333334</ele><time>2026-04-04T09:55:31.826Z</time></trkpt><trkpt lat="42.16739" lon="14.6589233"><ele>76.66666666666667</ele><time>2026-04-04T09:55:33.826Z</time></trkpt><trkpt lat="42.16736" lon="14.65904"><ele>76.5</ele><time>2026-04-04T09:55:35.826Z</time></trkpt><trkpt lat="42.1673233" lon="14.6591383"><ele>76.33333333333333</ele><time>2026-04-04T09:55:37.826Z</time></trkpt><trkpt lat="42.1672933" lon="14.659245"><ele>76.16666666666666</ele><time>2026-04-04T09:55:39.826Z</time></trkpt><trkpt lat="42.1672667" lon="14.6593533"><ele>76.0</ele><time>2026-04-04T09:55:41.826Z</time></trkpt><trkpt lat="42.1672367" lon="14.65947"><ele>76.6</ele><time>2026-04-04T09:55:43.826Z</time></trkpt><trkpt lat="42.1671983" lon="14.6595933"><ele>77.19999999999999</ele><time>2026-04-04T09:55:45.827Z</time></trkpt><trkpt lat="42.1671533" lon="14.65971"><ele>77.80000000000001</ele><time>2026-04-04T09:55:47.826Z</time></trkpt><trkpt lat="42.1671117" lon="14.6598417"><ele>78.4</ele><time>2026-04-04T09:55:49.826Z</time></trkpt><trkpt lat="42.167075" lon="14.659975"><ele>79.0</ele><time>2026-04-04T09:55:51.826Z</time></trkpt><trkpt lat="42.167035" lon="14.660125"><ele>79.0</ele><time>2026-04-04T09:55:53.827Z</time></trkpt><trkpt lat="42.1669917" lon="14.6602717"><ele>79.0</ele><time>2026-04-04T09:55:55.826Z</time></trkpt><trkpt lat="42.1669517" lon="14.6604183"><ele>79.0</ele><time>2026-04-04T09:55:57.826Z</time></trkpt><trkpt lat="42.1669067" lon="14.6605467"><ele>79.0</ele><time>2026-04-04T09:55:59.826Z</time></trkpt><trkpt lat="42.166865" lon="14.6606767"><ele>79.0</ele><time>2026-04-04T09:56:01.826Z</time></trkpt><trkpt lat="42.166825" lon="14.660805"><ele>78.60000000000001</ele><time>2026-04-04T09:56:03.826Z</time></trkpt><trkpt lat="42.1667967" lon="14.6609333"><ele>78.2</ele><time>2026-04-04T09:56:05.826Z</time></trkpt><trkpt lat="42.1667617" lon="14.661055"><ele>77.80000000000001</ele><time>2026-04-04T09:56:07.826Z</time></trkpt><trkpt lat="42.1667267" lon="14.661185"><ele>77.4</ele><time>2026-04-04T09:56:09.827Z</time></trkpt><trkpt lat="42.1666817" lon="14.661325"><ele>77.0</ele><time>2026-04-04T09:56:11.826Z</time></trkpt><trkpt lat="42.166635" lon="14.66147"><ele>76.8</ele><time>2026-04-04T09:56:13.827Z</time></trkpt><trkpt lat="42.1665933" lon="14.6616083"><ele>76.6</ele><time>2026-04-04T09:56:15.826Z</time></trkpt><trkpt lat="42.1665533" lon="14.6617383"><ele>76.39999999999999</ele><time>2026-04-04T09:56:17.826Z</time></trkpt><trkpt lat="42.16651" lon="14.6618583"><ele>76.2</ele><time>2026-04-04T09:56:19.826Z</time></trkpt><trkpt lat="42.1664533" lon="14.6619733"><ele>76.0</ele><time>2026-04-04T09:56:21.826Z</time></trkpt><trkpt lat="42.1663833" lon="14.662055"><ele>76.0</ele><time>2026-04-04T09:56:23.826Z</time></trkpt><trkpt lat="42.16631" lon="14.6621317"><ele>76.0</ele><time>2026-04-04T09:56:25.826Z</time></trkpt><trkpt lat="42.1662533" lon="14.662245"><ele>76.0</ele><time>2026-04-04T09:56:27.826Z</time></trkpt><trkpt lat="42.1662383" lon="14.6623983"><ele>76.0</ele><time>2026-04-04T09:56:29.827Z</time></trkpt><trkpt lat="42.1662483" lon="14.6625433"><ele>76.0</ele><time>2026-04-04T09:56:31.827Z</time></trkpt><trkpt lat="42.1662517" lon="14.6626833"><ele>75.8</ele><time>2026-04-04T09:56:33.827Z</time></trkpt><trkpt lat="42.1662317" lon="14.66282"><ele>75.6</ele><time>2026-04-04T09:56:35.826Z</time></trkpt><trkpt lat="42.1661967" lon="14.6629617"><ele>75.4</ele><time>2026-04-04T09:56:37.827Z</time></trkpt><trkpt lat="42.1661583" lon="14.663105"><ele>75.2</ele><time>2026-04-04T09:56:39.826Z</time></trkpt><trkpt lat="42.1661333" lon="14.6631833"><ele>75.0</ele><time>2026-04-04T09:56:40.826Z</time></trkpt><trkpt lat="42.16609" lon="14.6633333"><ele>75.0</ele><time>2026-04-04T09:56:42.826Z</time></trkpt><trkpt lat="42.1660617" lon="14.66341"><ele>75.0</ele><time>2026-04-04T09:56:43.826Z</time></trkpt><trkpt lat="42.1660117" lon="14.6635533"><ele>75.0</ele><time>2026-04-04T09:56:45.827Z</time></trkpt><trkpt lat="42.1659667" lon="14.6637"><ele>75.0</ele><time>2026-04-04T09:56:47.827Z</time></trkpt><trkpt lat="42.1659283" lon="14.66385"><ele>75.0</ele><time>2026-04-04T09:56:49.826Z</time></trkpt><trkpt lat="42.165885" lon="14.66401"><ele>75.16666666666667</ele><time>2026-04-04T09:56:51.826Z</time></trkpt><trkpt lat="42.1658433" lon="14.66416"><ele>75.33333333333333</ele><time>2026-04-04T09:56:53.826Z</time></trkpt><trkpt lat="42.1658167" lon="14.66424"><ele>75.5</ele><time>2026-04-04T09:56:54.826Z</time></trkpt><trkpt lat="42.1657933" lon="14.6643267"><ele>75.66666666666666</ele><time>2026-04-04T09:56:55.826Z</time></trkpt><trkpt lat="42.1657717" lon="14.6644083"><ele>75.83333333333333</ele><time>2026-04-04T09:56:56.826Z</time></trkpt><trkpt lat="42.16573" lon="14.664565"><ele>76.0</ele><time>2026-04-04T09:56:58.826Z</time></trkpt><trkpt lat="42.16569" lon="14.66472"><ele>76.0</ele><time>2026-04-04T09:57:00.826Z</time></trkpt><trkpt lat="42.16567" lon="14.664805"><ele>76.0</ele><time>2026-04-04T09:57:01.826Z</time></trkpt><trkpt lat="42.1656467" lon="14.66489"><ele>76.0</ele><time>2026-04-04T09:57:02.827Z</time></trkpt><trkpt lat="42.165625" lon="14.6649717"><ele>76.0</ele><time>2026-04-04T09:57:03.826Z</time></trkpt><trkpt lat="42.1656017" lon="14.6650533"><ele>76.0</ele><time>2026-04-04T09:57:04.826Z</time></trkpt><trkpt lat="42.165575" lon="14.6651367"><ele>76.0</ele><time>2026-04-04T09:57:05.826Z</time></trkpt><trkpt lat="42.16555" lon="14.6652183"><ele>76.0</ele><time>2026-04-04T09:57:06.827Z</time></trkpt><trkpt lat="42.1655267" lon="14.665305"><ele>75.71428571428571</ele><time>2026-04-04T09:57:07.826Z</time></trkpt><trkpt lat="42.165505" lon="14.6653867"><ele>75.42857142857143</ele><time>2026-04-04T09:57:08.827Z</time></trkpt><trkpt lat="42.1654783" lon="14.66547"><ele>75.14285714285714</ele><time>2026-04-04T09:57:09.827Z</time></trkpt><trkpt lat="42.1654533" lon="14.6655533"><ele>74.85714285714286</ele><time>2026-04-04T09:57:10.827Z</time></trkpt><trkpt lat="42.1654283" lon="14.6656367"><ele>74.57142857142857</ele><time>2026-04-04T09:57:11.826Z</time></trkpt><trkpt lat="42.165405" lon="14.6657217"><ele>74.28571428571429</ele><time>2026-04-04T09:57:12.826Z</time></trkpt><trkpt lat="42.165385" lon="14.665805"><ele>74.0</ele><time>2026-04-04T09:57:13.826Z</time></trkpt><trkpt lat="42.16534" lon="14.665965"><ele>74.0</ele><time>2026-04-04T09:57:15.826Z</time></trkpt><trkpt lat="42.1653167" lon="14.6660483"><ele>74.0</ele><time>2026-04-04T09:57:16.826Z</time></trkpt><trkpt lat="42.1652933" lon="14.6661367"><ele>74.0</ele><time>2026-04-04T09:57:17.826Z</time></trkpt><trkpt lat="42.1652617" lon="14.6663033"><ele>74.0</ele><time>2026-04-04T09:57:19.827Z</time></trkpt><trkpt lat="42.16525" lon="14.6663883"><ele>74.0</ele><time>2026-04-04T09:57:20.826Z</time></trkpt><trkpt lat="42.1652383" lon="14.6664733"><ele>74.0</ele><time>2026-04-04T09:57:21.826Z</time></trkpt><trkpt lat="42.1652233" lon="14.6665567"><ele>74.0</ele><time>2026-04-04T09:57:22.826Z</time></trkpt><trkpt lat="42.1652" lon="14.666715"><ele>74.0</ele><time>2026-04-04T09:57:24.826Z</time></trkpt><trkpt lat="42.1651667" lon="14.6668767"><ele>74.0</ele><time>2026-04-04T09:57:26.826Z</time></trkpt><trkpt lat="42.1651333" lon="14.6670383"><ele>74.0</ele><time>2026-04-04T09:57:28.826Z</time></trkpt><trkpt lat="42.165115" lon="14.6671217"><ele>74.0</ele><time>2026-04-04T09:57:29.826Z</time></trkpt><trkpt lat="42.1651017" lon="14.667215"><ele>73.85714285714286</ele><time>2026-04-04T09:57:30.827Z</time></trkpt><trkpt lat="42.1650867" lon="14.6672983"><ele>73.71428571428571</ele><time>2026-04-04T09:57:31.827Z</time></trkpt><trkpt lat="42.16506" lon="14.6674517"><ele>73.57142857142857</ele><time>2026-04-04T09:57:33.826Z</time></trkpt><trkpt lat="42.1650483" lon="14.6675367"><ele>73.42857142857143</ele><time>2026-04-04T09:57:34.826Z</time></trkpt><trkpt lat="42.165035" lon="14.6676267"><ele>73.28571428571429</ele><time>2026-04-04T09:57:35.826Z</time></trkpt><trkpt lat="42.165025" lon="14.6677117"><ele>73.14285714285714</ele><time>2026-04-04T09:57:36.827Z</time></trkpt><trkpt lat="42.1650117" lon="14.6677967"><ele>73.0</ele><time>2026-04-04T09:57:37.827Z</time></trkpt><trkpt lat="42.165" lon="14.6678833"><ele>72.8</ele><time>2026-04-04T09:57:38.826Z</time></trkpt><trkpt lat="42.1649717" lon="14.6680517"><ele>72.6</ele><time>2026-04-04T09:57:40.826Z</time></trkpt><trkpt lat="42.16494" lon="14.668215"><ele>72.4</ele><time>2026-04-04T09:57:42.826Z</time></trkpt><trkpt lat="42.1649267" lon="14.6683017"><ele>72.2</ele><time>2026-04-04T09:57:43.826Z</time></trkpt><trkpt lat="42.1649033" lon="14.6684683"><ele>72.0</ele><time>2026-04-04T09:57:45.826Z</time></trkpt><trkpt lat="42.1648867" lon="14.668555"><ele>72.16666666666667</ele><time>2026-04-04T09:57:46.826Z</time></trkpt><trkpt lat="42.1648717" lon="14.6686383"><ele>72.33333333333333</ele><time>2026-04-04T09:57:47.827Z</time></trkpt><trkpt lat="42.1648617" lon="14.6687267"><ele>72.5</ele><time>2026-04-04T09:57:48.826Z</time></trkpt><trkpt lat="42.1648483" lon="14.668815"><ele>72.66666666666666</ele><time>2026-04-04T09:57:49.826Z</time></trkpt><trkpt lat="42.1648367" lon="14.6689017"><ele>72.83333333333333</ele><time>2026-04-04T09:57:50.826Z</time></trkpt><trkpt lat="42.1648133" lon="14.6690667"><ele>73.0</ele><time>2026-04-04T09:57:52.827Z</time></trkpt><trkpt lat="42.1648083" lon="14.6691533"><ele>73.0</ele><time>2026-04-04T09:57:53.826Z</time></trkpt><trkpt lat="42.16481" lon="14.669325"><ele>73.0</ele><time>2026-04-04T09:57:55.827Z</time></trkpt><trkpt lat="42.164815" lon="14.66942"><ele>73.0</ele><time>2026-04-04T09:57:56.826Z</time></trkpt><trkpt lat="42.1648183" lon="14.6695133"><ele>73.0</ele><time>2026-04-04T09:57:57.827Z</time></trkpt><trkpt lat="42.1648233" lon="14.66961"><ele>73.0</ele><time>2026-04-04T09:57:58.826Z</time></trkpt><trkpt lat="42.1648283" lon="14.6697"><ele>73.0</ele><time>2026-04-04T09:57:59.826Z</time></trkpt><trkpt lat="42.1648333" lon="14.6697867"><ele>72.85714285714286</ele><time>2026-04-04T09:58:00.826Z</time></trkpt><trkpt lat="42.16483" lon="14.6698883"><ele>72.71428571428572</ele><time>2026-04-04T09:58:01.826Z</time></trkpt><trkpt lat="42.1648283" lon="14.6699883"><ele>72.57142857142858</ele><time>2026-04-04T09:58:02.827Z</time></trkpt><trkpt lat="42.1648267" lon="14.6700817"><ele>72.42857142857143</ele><time>2026-04-04T09:58:03.826Z</time></trkpt><trkpt lat="42.1648233" lon="14.6701767"><ele>72.28571428571429</ele><time>2026-04-04T09:58:04.826Z</time></trkpt><trkpt lat="42.164825" lon="14.6702683"><ele>72.14285714285715</ele><time>2026-04-04T09:58:05.826Z</time></trkpt><trkpt lat="42.1648283" lon="14.6703633"><ele>72.0</ele><time>2026-04-04T09:58:06.827Z</time></trkpt><trkpt lat="42.1648333" lon="14.67046"><ele>72.00000000000001</ele><time>2026-04-04T09:58:07.826Z</time></trkpt><trkpt lat="42.1648367" lon="14.6705567"><ele>72.0</ele><time>2026-04-04T09:58:08.826Z</time></trkpt><trkpt lat="42.1648383" lon="14.67065"><ele>72.0</ele><time>2026-04-04T09:58:09.826Z</time></trkpt><trkpt lat="42.1648417" lon="14.6707433"><ele>72.0</ele><time>2026-04-04T09:58:10.827Z</time></trkpt><trkpt lat="42.164845" lon="14.6708333"><ele>72.0</ele><time>2026-04-04T09:58:11.826Z</time></trkpt><trkpt lat="42.1648417" lon="14.6709267"><ele>72.00000000000001</ele><time>2026-04-04T09:58:12.826Z</time></trkpt><trkpt lat="42.16484" lon="14.6710167"><ele>72.0</ele><time>2026-04-04T09:58:13.827Z</time></trkpt><trkpt lat="42.1648433" lon="14.6711033"><ele>71.83333333333333</ele><time>2026-04-04T09:58:14.826Z</time></trkpt><trkpt lat="42.1648483" lon="14.6711917"><ele>71.66666666666667</ele><time>2026-04-04T09:58:15.826Z</time></trkpt><trkpt lat="42.1648483" lon="14.6712783"><ele>71.5</ele><time>2026-04-04T09:58:16.826Z</time></trkpt><trkpt lat="42.1648583" lon="14.6714367"><ele>71.33333333333334</ele><time>2026-04-04T09:58:18.827Z</time></trkpt><trkpt lat="42.16487" lon="14.6715883"><ele>71.16666666666667</ele><time>2026-04-04T09:58:20.826Z</time></trkpt><trkpt lat="42.164875" lon="14.671685"><ele>71.0</ele><time>2026-04-04T09:58:21.826Z</time></trkpt><trkpt lat="42.1648817" lon="14.67178"><ele>70.66666666666667</ele><time>2026-04-04T09:58:22.827Z</time></trkpt><trkpt lat="42.1648867" lon="14.6718767"><ele>70.33333333333334</ele><time>2026-04-04T09:58:23.826Z</time></trkpt><trkpt lat="42.1648933" lon="14.671985"><ele>70.0</ele><time>2026-04-04T09:58:24.826Z</time></trkpt><trkpt lat="42.1649" lon="14.6720883"><ele>69.66666666666667</ele><time>2026-04-04T09:58:25.826Z</time></trkpt><trkpt lat="42.1649067" lon="14.6721933"><ele>69.33333333333333</ele><time>2026-04-04T09:58:26.827Z</time></trkpt><trkpt lat="42.16491" lon="14.6722883"><ele>69.0</ele><time>2026-04-04T09:58:27.826Z</time></trkpt><trkpt lat="42.1649117" lon="14.67239"><ele>68.5</ele><time>2026-04-04T09:58:28.826Z</time></trkpt><trkpt lat="42.1649117" lon="14.6724883"><ele>68.0</ele><time>2026-04-04T09:58:29.826Z</time></trkpt><trkpt lat="42.1649217" lon="14.6725817"><ele>67.5</ele><time>2026-04-04T09:58:30.826Z</time></trkpt><trkpt lat="42.1649317" lon="14.6726833"><ele>67.0</ele><time>2026-04-04T09:58:31.826Z</time></trkpt><trkpt lat="42.1649433" lon="14.67279"><ele>66.5</ele><time>2026-04-04T09:58:32.826Z</time></trkpt><trkpt lat="42.1649533" lon="14.67289"><ele>66.0</ele><time>2026-04-04T09:58:33.826Z</time></trkpt><trkpt lat="42.1649567" lon="14.6729967"><ele>65.83333333333333</ele><time>2026-04-04T09:58:34.826Z</time></trkpt><trkpt lat="42.1649633" lon="14.673105"><ele>65.66666666666667</ele><time>2026-04-04T09:58:35.827Z</time></trkpt><trkpt lat="42.1649717" lon="14.673215"><ele>65.5</ele><time>2026-04-04T09:58:36.827Z</time></trkpt><trkpt lat="42.16498" lon="14.6733333"><ele>65.33333333333334</ele><time>2026-04-04T09:58:37.826Z</time></trkpt><trkpt lat="42.1649817" lon="14.673445"><ele>65.16666666666667</ele><time>2026-04-04T09:58:38.826Z</time></trkpt><trkpt lat="42.1649817" lon="14.673555"><ele>65.0</ele><time>2026-04-04T09:58:39.826Z</time></trkpt><trkpt lat="42.1649833" lon="14.6736617"><ele>64.66666666666667</ele><time>2026-04-04T09:58:40.826Z</time></trkpt><trkpt lat="42.164985" lon="14.6737683"><ele>64.33333333333334</ele><time>2026-04-04T09:58:41.826Z</time></trkpt><trkpt lat="42.164985" lon="14.673875"><ele>64.0</ele><time>2026-04-04T09:58:42.826Z</time></trkpt><trkpt lat="42.1649883" lon="14.6739883"><ele>63.66666666666667</ele><time>2026-04-04T09:58:43.826Z</time></trkpt><trkpt lat="42.1649933" lon="14.67411"><ele>63.333333333333336</ele><time>2026-04-04T09:58:44.826Z</time></trkpt><trkpt lat="42.1649983" lon="14.6742383"><ele>63.0</ele><time>2026-04-04T09:58:45.827Z</time></trkpt><trkpt lat="42.1650067" lon="14.67437"><ele>62.4</ele><time>2026-04-04T09:58:46.826Z</time></trkpt><trkpt lat="42.165015" lon="14.6744983"><ele>61.8</ele><time>2026-04-04T09:58:47.826Z</time></trkpt><trkpt lat="42.1650217" lon="14.6746183"><ele>61.2</ele><time>2026-04-04T09:58:48.826Z</time></trkpt><trkpt lat="42.1650267" lon="14.6747483"><ele>60.6</ele><time>2026-04-04T09:58:49.826Z</time></trkpt><trkpt lat="42.16503" lon="14.6748717"><ele>60.0</ele><time>2026-04-04T09:58:50.826Z</time></trkpt><trkpt lat="42.1650383" lon="14.6749933"><ele>60.0</ele><time>2026-04-04T09:58:51.827Z</time></trkpt><trkpt lat="42.1650467" lon="14.6751217"><ele>60.0</ele><time>2026-04-04T09:58:52.827Z</time></trkpt><trkpt lat="42.1650483" lon="14.6752367"><ele>60.0</ele><time>2026-04-04T09:58:53.827Z</time></trkpt><trkpt lat="42.1650533" lon="14.6753567"><ele>60.0</ele><time>2026-04-04T09:58:54.826Z</time></trkpt><trkpt lat="42.1650583" lon="14.6754783"><ele>60.0</ele><time>2026-04-04T09:58:55.827Z</time></trkpt><trkpt lat="42.165065" lon="14.6756067"><ele>60.0</ele><time>2026-04-04T09:58:56.826Z</time></trkpt><trkpt lat="42.1650733" lon="14.67573"><ele>60.0</ele><time>2026-04-04T09:58:57.826Z</time></trkpt><trkpt lat="42.1650717" lon="14.6758517"><ele>60.0</ele><time>2026-04-04T09:58:58.826Z</time></trkpt><trkpt lat="42.1650833" lon="14.675985"><ele>60.0</ele><time>2026-04-04T09:58:59.826Z</time></trkpt><trkpt lat="42.1650917" lon="14.6761183"><ele>60.0</ele><time>2026-04-04T09:59:00.826Z</time></trkpt><trkpt lat="42.1650983" lon="14.67625"><ele>59.4</ele><time>2026-04-04T09:59:01.826Z</time></trkpt><trkpt lat="42.1651067" lon="14.67639"><ele>58.8</ele><time>2026-04-04T09:59:02.826Z</time></trkpt><trkpt lat="42.1651117" lon="14.6765133"><ele>58.2</ele><time>2026-04-04T09:59:03.826Z</time></trkpt><trkpt lat="42.1651117" lon="14.676655"><ele>57.6</ele><time>2026-04-04T09:59:04.826Z</time></trkpt><trkpt lat="42.1651233" lon="14.6768083"><ele>57.0</ele><time>2026-04-04T09:59:05.826Z</time></trkpt><trkpt lat="42.1651333" lon="14.67695"><ele>56.0</ele><time>2026-04-04T09:59:06.826Z</time></trkpt><trkpt lat="42.1651467" lon="14.677095"><ele>55.0</ele><time>2026-04-04T09:59:07.826Z</time></trkpt><trkpt lat="42.1651567" lon="14.6772367"><ele>54.0</ele><time>2026-04-04T09:59:08.827Z</time></trkpt><trkpt lat="42.1651667" lon="14.677375"><ele>53.0</ele><time>2026-04-04T09:59:09.826Z</time></trkpt><trkpt lat="42.1651833" lon="14.6775083"><ele>52.0</ele><time>2026-04-04T09:59:10.826Z</time></trkpt><trkpt lat="42.1652" lon="14.6776333"><ele>52.0</ele><time>2026-04-04T09:59:11.826Z</time></trkpt><trkpt lat="42.1652183" lon="14.67776"><ele>52.0</ele><time>2026-04-04T09:59:12.827Z</time></trkpt><trkpt lat="42.1652417" lon="14.6778933"><ele>52.0</ele><time>2026-04-04T09:59:13.826Z</time></trkpt><trkpt lat="42.1652667" lon="14.6780283"><ele>52.0</ele><time>2026-04-04T09:59:14.826Z</time></trkpt><trkpt lat="42.16529" lon="14.6781583"><ele>52.0</ele><time>2026-04-04T09:59:15.827Z</time></trkpt><trkpt lat="42.16531" lon="14.678285"><ele>52.166666666666664</ele><time>2026-04-04T09:59:16.826Z</time></trkpt><trkpt lat="42.1653283" lon="14.6784067"><ele>52.33333333333333</ele><time>2026-04-04T09:59:17.826Z</time></trkpt><trkpt lat="42.1653483" lon="14.6785133"><ele>52.5</ele><time>2026-04-04T09:59:18.826Z</time></trkpt><trkpt lat="42.1653683" lon="14.6786217"><ele>52.66666666666667</ele><time>2026-04-04T09:59:19.826Z</time></trkpt><trkpt lat="42.1653783" lon="14.6787083"><ele>52.833333333333336</ele><time>2026-04-04T09:59:20.827Z</time></trkpt><trkpt lat="42.1653933" lon="14.6787917"><ele>53.0</ele><time>2026-04-04T09:59:21.826Z</time></trkpt><trkpt lat="42.165415" lon="14.67895"><ele>53.75</ele><time>2026-04-04T09:59:23.826Z</time></trkpt><trkpt lat="42.1654433" lon="14.6790933"><ele>54.5</ele><time>2026-04-04T09:59:25.826Z</time></trkpt><trkpt lat="42.1654683" lon="14.6792333"><ele>55.25</ele><time>2026-04-04T09:59:27.826Z</time></trkpt><trkpt lat="42.16549" lon="14.679395"><ele>56.0</ele><time>2026-04-04T09:59:29.826Z</time></trkpt><trkpt lat="42.1655133" lon="14.6795467"><ele>56.0</ele><time>2026-04-04T09:59:31.826Z</time></trkpt><trkpt lat="42.165525" lon="14.6797167"><ele>56.0</ele><time>2026-04-04T09:59:33.826Z</time></trkpt><trkpt lat="42.16553" lon="14.679885"><ele>56.0</ele><time>2026-04-04T09:59:35.827Z</time></trkpt><trkpt lat="42.1655383" lon="14.6800617"><ele>56.0</ele><time>2026-04-04T09:59:37.826Z</time></trkpt><trkpt lat="42.1655467" lon="14.68023"><ele>55.8</ele><time>2026-04-04T09:59:39.826Z</time></trkpt><trkpt lat="42.1655517" lon="14.6803183"><ele>55.599999999999994</ele><time>2026-04-04T09:59:40.826Z</time></trkpt><trkpt lat="42.1655633" lon="14.680485"><ele>55.4</ele><time>2026-04-04T09:59:42.826Z</time></trkpt><trkpt lat="42.16558" lon="14.6806583"><ele>55.2</ele><time>2026-04-04T09:59:44.826Z</time></trkpt><trkpt lat="42.1655883" lon="14.6807517"><ele>55.0</ele><time>2026-04-04T09:59:45.826Z</time></trkpt><trkpt lat="42.1655967" lon="14.6808383"><ele>54.99999999999999</ele><time>2026-04-04T09:59:46.826Z</time></trkpt><trkpt lat="42.1656" lon="14.6809267"><ele>55.0</ele><time>2026-04-04T09:59:47.826Z</time></trkpt><trkpt lat="42.1656033" lon="14.681025"><ele>55.0</ele><time>2026-04-04T09:59:48.826Z</time></trkpt><trkpt lat="42.1656067" lon="14.68112"><ele>55.0</ele><time>2026-04-04T09:59:49.826Z</time></trkpt><trkpt lat="42.165615" lon="14.6812067"><ele>55.0</ele><time>2026-04-04T09:59:50.826Z</time></trkpt><trkpt lat="42.16562" lon="14.6812917"><ele>54.99999999999999</ele><time>2026-04-04T09:59:51.826Z</time></trkpt><trkpt lat="42.1656267" lon="14.68138"><ele>55.0</ele><time>2026-04-04T09:59:52.827Z</time></trkpt><trkpt lat="42.16564" lon="14.6815417"><ele>54.6</ele><time>2026-04-04T09:59:54.826Z</time></trkpt><trkpt lat="42.1656517" lon="14.6816317"><ele>54.2</ele><time>2026-04-04T09:59:55.826Z</time></trkpt><trkpt lat="42.165665" lon="14.6817917"><ele>53.8</ele><time>2026-04-04T09:59:57.826Z</time></trkpt><trkpt lat="42.1656583" lon="14.6818767"><ele>53.4</ele><time>2026-04-04T09:59:58.826Z</time></trkpt><trkpt lat="42.16562" lon="14.6820383"><ele>53.0</ele><time>2026-04-04T10:00:00.826Z</time></trkpt><trkpt lat="42.1655917" lon="14.6821317"><ele>52.714285714285715</ele><time>2026-04-04T10:00:01.826Z</time></trkpt><trkpt lat="42.1655667" lon="14.682225"><ele>52.42857142857142</ele><time>2026-04-04T10:00:02.826Z</time></trkpt><trkpt lat="42.16555" lon="14.6823117"><ele>52.14285714285714</ele><time>2026-04-04T10:00:03.826Z</time></trkpt><trkpt lat="42.16554" lon="14.6824033"><ele>51.85714285714286</ele><time>2026-04-04T10:00:04.826Z</time></trkpt><trkpt lat="42.1655433" lon="14.68249"><ele>51.57142857142857</ele><time>2026-04-04T10:00:05.826Z</time></trkpt><trkpt lat="42.165565" lon="14.682575"><ele>51.285714285714285</ele><time>2026-04-04T10:00:06.826Z</time></trkpt><trkpt lat="42.1655967" lon="14.6826617"><ele>51.0</ele><time>2026-04-04T10:00:07.826Z</time></trkpt><trkpt lat="42.165645" lon="14.6827417"><ele>50.666666666666664</ele><time>2026-04-04T10:00:08.827Z</time></trkpt><trkpt lat="42.1656967" lon="14.6828117"><ele>50.33333333333333</ele><time>2026-04-04T10:00:09.826Z</time></trkpt><trkpt lat="42.1657533" lon="14.6828633"><ele>50.0</ele><time>2026-04-04T10:00:10.826Z</time></trkpt><trkpt lat="42.1658117" lon="14.6829"><ele>49.666666666666664</ele><time>2026-04-04T10:00:11.826Z</time></trkpt><trkpt lat="42.1659217" lon="14.68297"><ele>49.33333333333333</ele><time>2026-04-04T10:00:13.826Z</time></trkpt><trkpt lat="42.1660083" lon="14.68308"><ele>49.0</ele><time>2026-04-04T10:00:15.826Z</time></trkpt><trkpt lat="42.1660717" lon="14.6832067"><ele>49.0</ele><time>2026-04-04T10:00:17.826Z</time></trkpt><trkpt lat="42.1661183" lon="14.6833383"><ele>49.0</ele><time>2026-04-04T10:00:19.826Z</time></trkpt><trkpt lat="42.1661583" lon="14.6835083"><ele>49.0</ele><time>2026-04-04T10:00:21.827Z</time></trkpt><trkpt lat="42.1661817" lon="14.6835967"><ele>49.0</ele><time>2026-04-04T10:00:22.826Z</time></trkpt><trkpt lat="42.1662083" lon="14.68368"><ele>49.0</ele><time>2026-04-04T10:00:23.826Z</time></trkpt><trkpt lat="42.16625" lon="14.6838367"><ele>49.25</ele><time>2026-04-04T10:00:25.826Z</time></trkpt><trkpt lat="42.1662917" lon="14.6839783"><ele>49.5</ele><time>2026-04-04T10:00:27.826Z</time></trkpt><trkpt lat="42.1663317" lon="14.6841317"><ele>49.75</ele><time>2026-04-04T10:00:29.826Z</time></trkpt><trkpt lat="42.1663683" lon="14.6842683"><ele>50.0</ele><time>2026-04-04T10:00:31.826Z</time></trkpt><trkpt lat="42.1663967" lon="14.6844217"><ele>50.25</ele><time>2026-04-04T10:00:33.826Z</time></trkpt><trkpt lat="42.1664317" lon="14.6845667"><ele>50.5</ele><time>2026-04-04T10:00:35.826Z</time></trkpt><trkpt lat="42.1664717" lon="14.6847083"><ele>50.75</ele><time>2026-04-04T10:00:37.826Z</time></trkpt><trkpt lat="42.166515" lon="14.684855"><ele>51.0</ele><time>2026-04-04T10:00:39.827Z</time></trkpt><trkpt lat="42.1665533" lon="14.6850083"><ele>50.4</ele><time>2026-04-04T10:00:41.826Z</time></trkpt><trkpt lat="42.1665683" lon="14.68516"><ele>49.8</ele><time>2026-04-04T10:00:43.826Z</time></trkpt><trkpt lat="42.1665683" lon="14.6853133"><ele>49.199999999999996</ele><time>2026-04-04T10:00:45.826Z</time></trkpt><trkpt lat="42.16657" lon="14.6854833"><ele>48.599999999999994</ele><time>2026-04-04T10:00:47.826Z</time></trkpt><trkpt lat="42.16657" lon="14.68557"><ele>48.0</ele><time>2026-04-04T10:00:48.826Z</time></trkpt><trkpt lat="42.1665667" lon="14.685735"><ele>48.0</ele><time>2026-04-04T10:00:50.826Z</time></trkpt><trkpt lat="42.16656" lon="14.685895"><ele>48.0</ele><time>2026-04-04T10:00:52.826Z</time></trkpt><trkpt lat="42.1665583" lon="14.68606"><ele>48.0</ele><time>2026-04-04T10:00:54.826Z</time></trkpt><trkpt lat="42.166565" lon="14.6862167"><ele>48.0</ele><time>2026-04-04T10:00:56.827Z</time></trkpt><trkpt lat="42.1665633" lon="14.6863783"><ele>47.8</ele><time>2026-04-04T10:00:58.826Z</time></trkpt><trkpt lat="42.1665633" lon="14.68655"><ele>47.599999999999994</ele><time>2026-04-04T10:01:00.826Z</time></trkpt><trkpt lat="42.1665617" lon="14.6866383"><ele>47.400000000000006</ele><time>2026-04-04T10:01:01.826Z</time></trkpt><trkpt lat="42.1665667" lon="14.68674"><ele>47.2</ele><time>2026-04-04T10:01:02.826Z</time></trkpt><trkpt lat="42.16656" lon="14.6869117"><ele>47.0</ele><time>2026-04-04T10:01:04.827Z</time></trkpt><trkpt lat="42.1665583" lon="14.687"><ele>46.857142857142854</ele><time>2026-04-04T10:01:05.826Z</time></trkpt><trkpt lat="42.1665617" lon="14.6870867"><ele>46.71428571428571</ele><time>2026-04-04T10:01:06.826Z</time></trkpt><trkpt lat="42.166565" lon="14.68718"><ele>46.57142857142857</ele><time>2026-04-04T10:01:07.826Z</time></trkpt><trkpt lat="42.1665717" lon="14.6872733"><ele>46.42857142857143</ele><time>2026-04-04T10:01:08.826Z</time></trkpt><trkpt lat="42.1665717" lon="14.6873717"><ele>46.285714285714285</ele><time>2026-04-04T10:01:09.826Z</time></trkpt><trkpt lat="42.1665767" lon="14.6874583"><ele>46.142857142857146</ele><time>2026-04-04T10:01:10.827Z</time></trkpt><trkpt lat="42.1665817" lon="14.687545"><ele>46.0</ele><time>2026-04-04T10:01:11.826Z</time></trkpt><trkpt lat="42.1665883" lon="14.6877217"><ele>46.0</ele><time>2026-04-04T10:01:13.827Z</time></trkpt><trkpt lat="42.16659" lon="14.687815"><ele>46.0</ele><time>2026-04-04T10:01:14.826Z</time></trkpt><trkpt lat="42.1665917" lon="14.6879133"><ele>46.0</ele><time>2026-04-04T10:01:15.826Z</time></trkpt><trkpt lat="42.1665933" lon="14.6880067"><ele>46.0</ele><time>2026-04-04T10:01:16.826Z</time></trkpt><trkpt lat="42.1665967" lon="14.6880983"><ele>46.0</ele><time>2026-04-04T10:01:17.826Z</time></trkpt><trkpt lat="42.1665983" lon="14.68819"><ele>46.0</ele><time>2026-04-04T10:01:18.826Z</time></trkpt><trkpt lat="42.166605" lon="14.6882767"><ele>46.0</ele><time>2026-04-04T10:01:19.826Z</time></trkpt><trkpt lat="42.1666117" lon="14.6883683"><ele>46.0</ele><time>2026-04-04T10:01:20.826Z</time></trkpt><trkpt lat="42.16662" lon="14.6884567"><ele>46.0</ele><time>2026-04-04T10:01:21.826Z</time></trkpt><trkpt lat="42.16663" lon="14.688545"><ele>46.0</ele><time>2026-04-04T10:01:22.826Z</time></trkpt><trkpt lat="42.1666383" lon="14.6886317"><ele>46.0</ele><time>2026-04-04T10:01:23.826Z</time></trkpt><trkpt lat="42.1666433" lon="14.6887267"><ele>46.0</ele><time>2026-04-04T10:01:24.826Z</time></trkpt><trkpt lat="42.166655" lon="14.688815"><ele>46.0</ele><time>2026-04-04T10:01:25.826Z</time></trkpt><trkpt lat="42.166665" lon="14.6889017"><ele>46.0</ele><time>2026-04-04T10:01:26.827Z</time></trkpt><trkpt lat="42.1666717" lon="14.68899"><ele>45.833333333333336</ele><time>2026-04-04T10:01:27.826Z</time></trkpt><trkpt lat="42.16668" lon="14.6890883"><ele>45.66666666666667</ele><time>2026-04-04T10:01:28.826Z</time></trkpt><trkpt lat="42.1666883" lon="14.6891867"><ele>45.5</ele><time>2026-04-04T10:01:29.826Z</time></trkpt><trkpt lat="42.1666883" lon="14.68929"><ele>45.333333333333336</ele><time>2026-04-04T10:01:30.826Z</time></trkpt><trkpt lat="42.1667" lon="14.6893817"><ele>45.166666666666664</ele><time>2026-04-04T10:01:31.826Z</time></trkpt><trkpt lat="42.1667117" lon="14.6895583"><ele>45.0</ele><time>2026-04-04T10:01:33.826Z</time></trkpt><trkpt lat="42.1667283" lon="14.6896583"><ele>45.0</ele><time>2026-04-04T10:01:34.826Z</time></trkpt><trkpt lat="42.1667367" lon="14.6897583"><ele>45.0</ele><time>2026-04-04T10:01:35.826Z</time></trkpt><trkpt lat="42.166745" lon="14.6898467"><ele>45.0</ele><time>2026-04-04T10:01:36.826Z</time></trkpt><trkpt lat="42.166755" lon="14.6899367"><ele>45.0</ele><time>2026-04-04T10:01:37.826Z</time></trkpt><trkpt lat="42.16676" lon="14.6900267"><ele>45.0</ele><time>2026-04-04T10:01:38.826Z</time></trkpt><trkpt lat="42.166775" lon="14.690195"><ele>45.0</ele><time>2026-04-04T10:01:40.826Z</time></trkpt><trkpt lat="42.16678" lon="14.6902817"><ele>44.857142857142854</ele><time>2026-04-04T10:01:41.826Z</time></trkpt><trkpt lat="42.1667883" lon="14.6903683"><ele>44.714285714285715</ele><time>2026-04-04T10:01:42.826Z</time></trkpt><trkpt lat="42.1667983" lon="14.6904533"><ele>44.57142857142857</ele><time>2026-04-04T10:01:43.826Z</time></trkpt><trkpt lat="42.166805" lon="14.6905467"><ele>44.42857142857143</ele><time>2026-04-04T10:01:44.827Z</time></trkpt><trkpt lat="42.1668167" lon="14.6906383"><ele>44.285714285714285</ele><time>2026-04-04T10:01:45.826Z</time></trkpt><trkpt lat="42.1668233" lon="14.69073"><ele>44.142857142857146</ele><time>2026-04-04T10:01:46.826Z</time></trkpt><trkpt lat="42.1668333" lon="14.6908233"><ele>44.0</ele><time>2026-04-04T10:01:47.826Z</time></trkpt><trkpt lat="42.1668467" lon="14.6909133"><ele>44.0</ele><time>2026-04-04T10:01:48.826Z</time></trkpt><trkpt lat="42.16686" lon="14.6910117"><ele>44.0</ele><time>2026-04-04T10:01:49.826Z</time></trkpt><trkpt lat="42.1668633" lon="14.6911"><ele>44.0</ele><time>2026-04-04T10:01:50.826Z</time></trkpt><trkpt lat="42.1668683" lon="14.6911983"><ele>44.0</ele><time>2026-04-04T10:01:51.826Z</time></trkpt><trkpt lat="42.166875" lon="14.69129"><ele>44.0</ele><time>2026-04-04T10:01:52.826Z</time></trkpt><trkpt lat="42.166885" lon="14.69138"><ele>44.0</ele><time>2026-04-04T10:01:53.826Z</time></trkpt><trkpt lat="42.166895" lon="14.6914667"><ele>44.0</ele><time>2026-04-04T10:01:54.826Z</time></trkpt><trkpt lat="42.166905" lon="14.6915517"><ele>43.714285714285715</ele><time>2026-04-04T10:01:55.826Z</time></trkpt><trkpt lat="42.1669183" lon="14.691635"><ele>43.42857142857143</ele><time>2026-04-04T10:01:56.826Z</time></trkpt><trkpt lat="42.166935" lon="14.6917233"><ele>43.14285714285714</ele><time>2026-04-04T10:01:57.826Z</time></trkpt><trkpt lat="42.16695" lon="14.6918067"><ele>42.85714285714286</ele><time>2026-04-04T10:01:58.826Z</time></trkpt><trkpt lat="42.1669633" lon="14.69189"><ele>42.57142857142857</ele><time>2026-04-04T10:01:59.826Z</time></trkpt><trkpt lat="42.1669817" lon="14.691975"><ele>42.285714285714285</ele><time>2026-04-04T10:02:00.826Z</time></trkpt><trkpt lat="42.167015" lon="14.692125"><ele>42.0</ele><time>2026-04-04T10:02:02.826Z</time></trkpt><trkpt lat="42.167035" lon="14.6922067"><ele>42.0</ele><time>2026-04-04T10:02:03.827Z</time></trkpt><trkpt lat="42.1670617" lon="14.6922917"><ele>42.0</ele><time>2026-04-04T10:02:04.826Z</time></trkpt><trkpt lat="42.1670833" lon="14.6923717"><ele>42.0</ele><time>2026-04-04T10:02:05.826Z</time></trkpt><trkpt lat="42.1671233" lon="14.69253"><ele>42.0</ele><time>2026-04-04T10:02:07.826Z</time></trkpt><trkpt lat="42.1671617" lon="14.6926783"><ele>42.0</ele><time>2026-04-04T10:02:09.826Z</time></trkpt><trkpt lat="42.1672083" lon="14.6928267"><ele>42.0</ele><time>2026-04-04T10:02:11.826Z</time></trkpt><trkpt lat="42.16723" lon="14.6929067"><ele>42.0</ele><time>2026-04-04T10:02:12.826Z</time></trkpt><trkpt lat="42.1672517" lon="14.6929883"><ele>42.0</ele><time>2026-04-04T10:02:13.827Z</time></trkpt><trkpt lat="42.1672917" lon="14.693145"><ele>42.0</ele><time>2026-04-04T10:02:15.827Z</time></trkpt><trkpt lat="42.167325" lon="14.6932983"><ele>42.0</ele><time>2026-04-04T10:02:17.826Z</time></trkpt><trkpt lat="42.1673617" lon="14.6934633"><ele>42.0</ele><time>2026-04-04T10:02:19.826Z</time></trkpt><trkpt lat="42.167385" lon="14.6935433"><ele>42.0</ele><time>2026-04-04T10:02:20.826Z</time></trkpt><trkpt lat="42.16741" lon="14.693625"><ele>42.0</ele><time>2026-04-04T10:02:21.826Z</time></trkpt><trkpt lat="42.1674317" lon="14.6937067"><ele>42.0</ele><time>2026-04-04T10:02:22.826Z</time></trkpt><trkpt lat="42.1674567" lon="14.6937917"><ele>42.0</ele><time>2026-04-04T10:02:23.826Z</time></trkpt><trkpt lat="42.1674767" lon="14.6938733"><ele>42.0</ele><time>2026-04-04T10:02:24.827Z</time></trkpt><trkpt lat="42.1675183" lon="14.69402"><ele>42.0</ele><time>2026-04-04T10:02:26.826Z</time></trkpt><trkpt lat="42.1675617" lon="14.6941567"><ele>41.8</ele><time>2026-04-04T10:02:28.826Z</time></trkpt><trkpt lat="42.16762" lon="14.6942983"><ele>41.6</ele><time>2026-04-04T10:02:30.826Z</time></trkpt><trkpt lat="42.1676817" lon="14.6944333"><ele>41.4</ele><time>2026-04-04T10:02:32.826Z</time></trkpt><trkpt lat="42.16774" lon="14.69456"><ele>41.199999999999996</ele><time>2026-04-04T10:02:34.826Z</time></trkpt><trkpt lat="42.16779" lon="14.6946767"><ele>41.0</ele><time>2026-04-04T10:02:36.826Z</time></trkpt><trkpt lat="42.1677983" lon="14.6947933"><ele>40.599999999999994</ele><time>2026-04-04T10:02:38.827Z</time></trkpt><trkpt lat="42.167775" lon="14.694915"><ele>40.199999999999996</ele><time>2026-04-04T10:02:40.826Z</time></trkpt><trkpt lat="42.1677933" lon="14.69504"><ele>39.8</ele><time>2026-04-04T10:02:42.826Z</time></trkpt><trkpt lat="42.1678467" lon="14.6951567"><ele>39.4</ele><time>2026-04-04T10:02:44.826Z</time></trkpt><trkpt lat="42.167915" lon="14.6952567"><ele>39.0</ele><time>2026-04-04T10:02:46.827Z</time></trkpt><trkpt lat="42.1679483" lon="14.695385"><ele>38.8</ele><time>2026-04-04T10:02:48.827Z</time></trkpt><trkpt lat="42.1679617" lon="14.6955517"><ele>38.599999999999994</ele><time>2026-04-04T10:02:50.827Z</time></trkpt><trkpt lat="42.1679667" lon="14.695645"><ele>38.4</ele><time>2026-04-04T10:02:51.826Z</time></trkpt><trkpt lat="42.1679717" lon="14.6957367"><ele>38.199999999999996</ele><time>2026-04-04T10:02:52.826Z</time></trkpt><trkpt lat="42.16799" lon="14.6959117"><ele>38.0</ele><time>2026-04-04T10:02:54.826Z</time></trkpt><trkpt lat="42.1679967" lon="14.696015"><ele>37.83333333333333</ele><time>2026-04-04T10:02:55.826Z</time></trkpt><trkpt lat="42.168" lon="14.6961133"><ele>37.666666666666664</ele><time>2026-04-04T10:02:56.826Z</time></trkpt><trkpt lat="42.168" lon="14.6962217"><ele>37.5</ele><time>2026-04-04T10:02:57.827Z</time></trkpt><trkpt lat="42.1679967" lon="14.6963283"><ele>37.333333333333336</ele><time>2026-04-04T10:02:58.826Z</time></trkpt><trkpt lat="42.1679883" lon="14.69644"><ele>37.16666666666667</ele><time>2026-04-04T10:02:59.826Z</time></trkpt><trkpt lat="42.1679783" lon="14.696555"><ele>37.0</ele><time>2026-04-04T10:03:00.826Z</time></trkpt><trkpt lat="42.1679567" lon="14.6966683"><ele>37.0</ele><time>2026-04-04T10:03:01.826Z</time></trkpt><trkpt lat="42.1679283" lon="14.6967817"><ele>37.0</ele><time>2026-04-04T10:03:02.826Z</time></trkpt><trkpt lat="42.167895" lon="14.6968983"><ele>37.0</ele><time>2026-04-04T10:03:03.826Z</time></trkpt><trkpt lat="42.1678617" lon="14.697015"><ele>37.0</ele><time>2026-04-04T10:03:04.826Z</time></trkpt><trkpt lat="42.1678217" lon="14.697135"><ele>37.0</ele><time>2026-04-04T10:03:05.826Z</time></trkpt><trkpt lat="42.167785" lon="14.6972583"><ele>36.6</ele><time>2026-04-04T10:03:06.827Z</time></trkpt><trkpt lat="42.16775" lon="14.6973783"><ele>36.2</ele><time>2026-04-04T10:03:07.826Z</time></trkpt><trkpt lat="42.16771" lon="14.69751"><ele>35.8</ele><time>2026-04-04T10:03:08.826Z</time></trkpt><trkpt lat="42.1676667" lon="14.6976417"><ele>35.4</ele><time>2026-04-04T10:03:09.826Z</time></trkpt><trkpt lat="42.1676217" lon="14.6977667"><ele>35.0</ele><time>2026-04-04T10:03:10.826Z</time></trkpt><trkpt lat="42.1675833" lon="14.6979"><ele>34.4</ele><time>2026-04-04T10:03:11.827Z</time></trkpt><trkpt lat="42.167535" lon="14.69804"><ele>33.8</ele><time>2026-04-04T10:03:12.826Z</time></trkpt><trkpt lat="42.1674883" lon="14.69818"><ele>33.2</ele><time>2026-04-04T10:03:13.826Z</time></trkpt><trkpt lat="42.1674433" lon="14.6983167"><ele>32.6</ele><time>2026-04-04T10:03:14.827Z</time></trkpt><trkpt lat="42.1674033" lon="14.6984467"><ele>32.0</ele><time>2026-04-04T10:03:15.826Z</time></trkpt><trkpt lat="42.16736" lon="14.69858"><ele>29.8</ele><time>2026-04-04T10:03:16.827Z</time></trkpt><trkpt lat="42.1673167" lon="14.6987167"><ele>27.6</ele><time>2026-04-04T10:03:17.826Z</time></trkpt><trkpt lat="42.1672767" lon="14.6988517"><ele>25.400000000000002</ele><time>2026-04-04T10:03:18.826Z</time></trkpt><trkpt lat="42.16723" lon="14.6989817"><ele>23.200000000000003</ele><time>2026-04-04T10:03:19.826Z</time></trkpt><trkpt lat="42.1671817" lon="14.6991117"><ele>21.0</ele><time>2026-04-04T10:03:20.826Z</time></trkpt><trkpt lat="42.1671367" lon="14.6992417"><ele>21.0</ele><time>2026-04-04T10:03:21.826Z</time></trkpt><trkpt lat="42.16709" lon="14.699365"><ele>21.0</ele><time>2026-04-04T10:03:22.826Z</time></trkpt><trkpt lat="42.1670367" lon="14.69949"><ele>21.0</ele><time>2026-04-04T10:03:23.826Z</time></trkpt><trkpt lat="42.1669833" lon="14.6996183"><ele>21.0</ele><time>2026-04-04T10:03:24.826Z</time></trkpt><trkpt lat="42.166925" lon="14.6997367"><ele>21.0</ele><time>2026-04-04T10:03:25.826Z</time></trkpt><trkpt lat="42.1668667" lon="14.699855"><ele>21.200000000000003</ele><time>2026-04-04T10:03:26.826Z</time></trkpt><trkpt lat="42.16681" lon="14.6999633"><ele>21.400000000000002</ele><time>2026-04-04T10:03:27.827Z</time></trkpt><trkpt lat="42.1667517" lon="14.7000783"><ele>21.6</ele><time>2026-04-04T10:03:28.826Z</time></trkpt><trkpt lat="42.1666917" lon="14.7001983"><ele>21.8</ele><time>2026-04-04T10:03:29.826Z</time></trkpt><trkpt lat="42.1666283" lon="14.7003217"><ele>22.0</ele><time>2026-04-04T10:03:30.826Z</time></trkpt><trkpt lat="42.1665617" lon="14.7004333"><ele>21.8</ele><time>2026-04-04T10:03:31.827Z</time></trkpt><trkpt lat="42.1664983" lon="14.70055"><ele>21.6</ele><time>2026-04-04T10:03:32.826Z</time></trkpt><trkpt lat="42.16643" lon="14.7006717"><ele>21.400000000000002</ele><time>2026-04-04T10:03:33.826Z</time></trkpt><trkpt lat="42.16637" lon="14.7007883"><ele>21.200000000000003</ele><time>2026-04-04T10:03:34.826Z</time></trkpt><trkpt lat="42.1663083" lon="14.7009017"><ele>21.0</ele><time>2026-04-04T10:03:35.826Z</time></trkpt><trkpt lat="42.1662467" lon="14.7010117"><ele>22.200000000000003</ele><time>2026-04-04T10:03:36.826Z</time></trkpt><trkpt lat="42.1661867" lon="14.7011183"><ele>23.400000000000002</ele><time>2026-04-04T10:03:37.826Z</time></trkpt><trkpt lat="42.166125" lon="14.7012217"><ele>24.6</ele><time>2026-04-04T10:03:38.826Z</time></trkpt><trkpt lat="42.166065" lon="14.70133"><ele>25.8</ele><time>2026-04-04T10:03:39.826Z</time></trkpt><trkpt lat="42.16601" lon="14.7014283"><ele>27.0</ele><time>2026-04-04T10:03:40.827Z</time></trkpt><trkpt lat="42.1659567" lon="14.7015217"><ele>27.0</ele><time>2026-04-04T10:03:41.826Z</time></trkpt><trkpt lat="42.1659083" lon="14.70161"><ele>27.0</ele><time>2026-04-04T10:03:42.826Z</time></trkpt><trkpt lat="42.16586" lon="14.7016967"><ele>27.0</ele><time>2026-04-04T10:03:43.826Z</time></trkpt><trkpt lat="42.165815" lon="14.7017833"><ele>27.0</ele><time>2026-04-04T10:03:44.827Z</time></trkpt><trkpt lat="42.1657717" lon="14.7018733"><ele>27.0</ele><time>2026-04-04T10:03:45.826Z</time></trkpt><trkpt lat="42.165725" lon="14.7019567"><ele>27.0</ele><time>2026-04-04T10:03:46.826Z</time></trkpt><trkpt lat="42.165675" lon="14.7020317"><ele>28.333333333333332</ele><time>2026-04-04T10:03:47.826Z</time></trkpt><trkpt lat="42.1656283" lon="14.7021167"><ele>29.666666666666664</ele><time>2026-04-04T10:03:48.827Z</time></trkpt><trkpt lat="42.16558" lon="14.7022017"><ele>31.0</ele><time>2026-04-04T10:03:49.826Z</time></trkpt><trkpt lat="42.1655283" lon="14.7022817"><ele>32.33333333333333</ele><time>2026-04-04T10:03:50.826Z</time></trkpt><trkpt lat="42.165485" lon="14.7023667"><ele>33.666666666666664</ele><time>2026-04-04T10:03:51.826Z</time></trkpt><trkpt lat="42.1654383" lon="14.7024433"><ele>35.0</ele><time>2026-04-04T10:03:52.826Z</time></trkpt><trkpt lat="42.165395" lon="14.7025167"><ele>35.0</ele><time>2026-04-04T10:03:53.827Z</time></trkpt><trkpt lat="42.1653517" lon="14.7025917"><ele>35.0</ele><time>2026-04-04T10:03:54.826Z</time></trkpt><trkpt lat="42.16531" lon="14.702665"><ele>35.0</ele><time>2026-04-04T10:03:55.827Z</time></trkpt><trkpt lat="42.1652667" lon="14.70274"><ele>35.0</ele><time>2026-04-04T10:03:56.826Z</time></trkpt><trkpt lat="42.165225" lon="14.7028117"><ele>35.0</ele><time>2026-04-04T10:03:57.826Z</time></trkpt><trkpt lat="42.1651467" lon="14.7029483"><ele>35.0</ele><time>2026-04-04T10:03:59.826Z</time></trkpt><trkpt lat="42.1651033" lon="14.703015"><ele>35.0</ele><time>2026-04-04T10:04:00.826Z</time></trkpt><trkpt lat="42.1650617" lon="14.70308"><ele>35.0</ele><time>2026-04-04T10:04:01.826Z</time></trkpt><trkpt lat="42.16498" lon="14.70321"><ele>35.0</ele><time>2026-04-04T10:04:03.826Z</time></trkpt><trkpt lat="42.1649383" lon="14.7032767"><ele>35.0</ele><time>2026-04-04T10:04:04.826Z</time></trkpt><trkpt lat="42.1648517" lon="14.7033917"><ele>35.0</ele><time>2026-04-04T10:04:06.826Z</time></trkpt><trkpt lat="42.1647633" lon="14.7035"><ele>34.5</ele><time>2026-04-04T10:04:08.826Z</time></trkpt><trkpt lat="42.164675" lon="14.7035983"><ele>34.0</ele><time>2026-04-04T10:04:10.826Z</time></trkpt><trkpt lat="42.1646" lon="14.7037067"><ele>33.5</ele><time>2026-04-04T10:04:12.826Z</time></trkpt><trkpt lat="42.1645167" lon="14.7038117"><ele>33.0</ele><time>2026-04-04T10:04:14.826Z</time></trkpt><trkpt lat="42.1644333" lon="14.7039167"><ele>33.0</ele><time>2026-04-04T10:04:16.826Z</time></trkpt><trkpt lat="42.16435" lon="14.704025"><ele>33.0</ele><time>2026-04-04T10:04:18.826Z</time></trkpt><trkpt lat="42.1642683" lon="14.7041283"><ele>33.0</ele><time>2026-04-04T10:04:20.827Z</time></trkpt><trkpt lat="42.1641867" lon="14.7042317"><ele>33.0</ele><time>2026-04-04T10:04:22.826Z</time></trkpt><trkpt lat="42.1641" lon="14.704345"><ele>33.0</ele><time>2026-04-04T10:04:24.826Z</time></trkpt><trkpt lat="42.1640183" lon="14.7044683"><ele>33.0</ele><time>2026-04-04T10:04:26.827Z</time></trkpt><trkpt lat="42.1639317" lon="14.7045833"><ele>33.0</ele><time>2026-04-04T10:04:28.826Z</time></trkpt><trkpt lat="42.1638833" lon="14.7046417"><ele>33.0</ele><time>2026-04-04T10:04:29.826Z</time></trkpt><trkpt lat="42.1637983" lon="14.7047567"><ele>33.0</ele><time>2026-04-04T10:04:31.826Z</time></trkpt><trkpt lat="42.1637467" lon="14.7048167"><ele>33.0</ele><time>2026-04-04T10:04:32.827Z</time></trkpt><trkpt lat="42.1636983" lon="14.70488"><ele>33.0</ele><time>2026-04-04T10:04:33.826Z</time></trkpt><trkpt lat="42.1636083" lon="14.7049967"><ele>33.0</ele><time>2026-04-04T10:04:35.827Z</time></trkpt><trkpt lat="42.16356" lon="14.7050517"><ele>33.0</ele><time>2026-04-04T10:04:36.826Z</time></trkpt><trkpt lat="42.1635117" lon="14.705115"><ele>33.0</ele><time>2026-04-04T10:04:37.826Z</time></trkpt><trkpt lat="42.163465" lon="14.7051733"><ele>33.0</ele><time>2026-04-04T10:04:38.826Z</time></trkpt><trkpt lat="42.1633733" lon="14.70529"><ele>32.857142857142854</ele><time>2026-04-04T10:04:40.826Z</time></trkpt><trkpt lat="42.16332" lon="14.7053483"><ele>32.714285714285715</ele><time>2026-04-04T10:04:41.827Z</time></trkpt><trkpt lat="42.1632667" lon="14.7054"><ele>32.57142857142857</ele><time>2026-04-04T10:04:42.826Z</time></trkpt><trkpt lat="42.163215" lon="14.7054533"><ele>32.42857142857143</ele><time>2026-04-04T10:04:43.826Z</time></trkpt><trkpt lat="42.1631617" lon="14.7055083"><ele>32.285714285714285</ele><time>2026-04-04T10:04:44.826Z</time></trkpt><trkpt lat="42.163105" lon="14.70556"><ele>32.14285714285714</ele><time>2026-04-04T10:04:45.826Z</time></trkpt><trkpt lat="42.1630467" lon="14.7056033"><ele>32.0</ele><time>2026-04-04T10:04:46.826Z</time></trkpt><trkpt lat="42.1629867" lon="14.70564"><ele>31.999999999999996</ele><time>2026-04-04T10:04:47.826Z</time></trkpt><trkpt lat="42.162925" lon="14.7056733"><ele>32.0</ele><time>2026-04-04T10:04:48.826Z</time></trkpt><trkpt lat="42.1628283" lon="14.705785"><ele>32.0</ele><time>2026-04-04T10:04:50.826Z</time></trkpt><trkpt lat="42.1627967" lon="14.7058717"><ele>32.0</ele><time>2026-04-04T10:04:51.826Z</time></trkpt><trkpt lat="42.1627717" lon="14.7059717"><ele>31.999999999999996</ele><time>2026-04-04T10:04:52.826Z</time></trkpt><trkpt lat="42.1627367" lon="14.7060633"><ele>32.0</ele><time>2026-04-04T10:04:53.827Z</time></trkpt><trkpt lat="42.162695" lon="14.7061433"><ele>32.0</ele><time>2026-04-04T10:04:54.826Z</time></trkpt><trkpt lat="42.1626467" lon="14.7062183"><ele>31.999999999999996</ele><time>2026-04-04T10:04:55.826Z</time></trkpt><trkpt lat="42.1625967" lon="14.7062933"><ele>32.0</ele><time>2026-04-04T10:04:56.826Z</time></trkpt><trkpt lat="42.1625433" lon="14.7063667"><ele>32.0</ele><time>2026-04-04T10:04:57.826Z</time></trkpt><trkpt lat="42.1624883" lon="14.706435"><ele>31.999999999999996</ele><time>2026-04-04T10:04:58.826Z</time></trkpt><trkpt lat="42.1624333" lon="14.7065"><ele>32.0</ele><time>2026-04-04T10:04:59.826Z</time></trkpt><trkpt lat="42.1623767" lon="14.7065683"><ele>32.0</ele><time>2026-04-04T10:05:00.826Z</time></trkpt><trkpt lat="42.1623217" lon="14.7066383"><ele>31.999999999999996</ele><time>2026-04-04T10:05:01.826Z</time></trkpt><trkpt lat="42.1622683" lon="14.7067033"><ele>32.0</ele><time>2026-04-04T10:05:02.826Z</time></trkpt><trkpt lat="42.16222" lon="14.7067683"><ele>32.0</ele><time>2026-04-04T10:05:03.826Z</time></trkpt><trkpt lat="42.1621683" lon="14.7068467"><ele>32.0</ele><time>2026-04-04T10:05:04.827Z</time></trkpt><trkpt lat="42.1621067" lon="14.70692"><ele>31.999999999999996</ele><time>2026-04-04T10:05:05.826Z</time></trkpt><trkpt lat="42.1620483" lon="14.7069933"><ele>32.0</ele><time>2026-04-04T10:05:06.826Z</time></trkpt><trkpt lat="42.161985" lon="14.7070667"><ele>31.57142857142857</ele><time>2026-04-04T10:05:07.827Z</time></trkpt><trkpt lat="42.161935" lon="14.7071367"><ele>31.14285714285714</ele><time>2026-04-04T10:05:08.826Z</time></trkpt><trkpt lat="42.161885" lon="14.70721"><ele>30.714285714285715</ele><time>2026-04-04T10:05:09.826Z</time></trkpt><trkpt lat="42.16183" lon="14.7072767"><ele>30.285714285714285</ele><time>2026-04-04T10:05:10.826Z</time></trkpt><trkpt lat="42.1617817" lon="14.7073433"><ele>29.857142857142858</ele><time>2026-04-04T10:05:11.827Z</time></trkpt><trkpt lat="42.1617333" lon="14.7074067"><ele>29.42857142857143</ele><time>2026-04-04T10:05:12.826Z</time></trkpt><trkpt lat="42.1616783" lon="14.70747"><ele>29.000000000000004</ele><time>2026-04-04T10:05:13.826Z</time></trkpt><trkpt lat="42.161625" lon="14.7075383"><ele>29.000000000000004</ele><time>2026-04-04T10:05:14.826Z</time></trkpt><trkpt lat="42.1615717" lon="14.7075983"><ele>29.0</ele><time>2026-04-04T10:05:15.826Z</time></trkpt><trkpt lat="42.1615183" lon="14.70766"><ele>29.000000000000004</ele><time>2026-04-04T10:05:16.827Z</time></trkpt><trkpt lat="42.1614667" lon="14.7077217"><ele>29.000000000000004</ele><time>2026-04-04T10:05:17.827Z</time></trkpt><trkpt lat="42.1614117" lon="14.7077833"><ele>29.0</ele><time>2026-04-04T10:05:18.826Z</time></trkpt><trkpt lat="42.16135" lon="14.70785"><ele>29.000000000000004</ele><time>2026-04-04T10:05:19.826Z</time></trkpt><trkpt lat="42.1612917" lon="14.707915"><ele>29.000000000000004</ele><time>2026-04-04T10:05:20.826Z</time></trkpt><trkpt lat="42.1612367" lon="14.707975"><ele>29.42857142857143</ele><time>2026-04-04T10:05:21.826Z</time></trkpt><trkpt lat="42.1611817" lon="14.7080317"><ele>29.857142857142858</ele><time>2026-04-04T10:05:22.826Z</time></trkpt><trkpt lat="42.1611217" lon="14.7080917"><ele>30.285714285714285</ele><time>2026-04-04T10:05:23.826Z</time></trkpt><trkpt lat="42.1610633" lon="14.7081517"><ele>30.714285714285715</ele><time>2026-04-04T10:05:24.826Z</time></trkpt><trkpt lat="42.1610067" lon="14.7082117"><ele>31.14285714285714</ele><time>2026-04-04T10:05:25.826Z</time></trkpt><trkpt lat="42.1609483" lon="14.7082717"><ele>31.57142857142857</ele><time>2026-04-04T10:05:26.826Z</time></trkpt><trkpt lat="42.1608933" lon="14.70833"><ele>32.0</ele><time>2026-04-04T10:05:27.827Z</time></trkpt><trkpt lat="42.1607867" lon="14.7084267"><ele>32.0</ele><time>2026-04-04T10:05:29.826Z</time></trkpt><trkpt lat="42.1607317" lon="14.7084717"><ele>31.999999999999996</ele><time>2026-04-04T10:05:30.826Z</time></trkpt><trkpt lat="42.160675" lon="14.708525"><ele>32.0</ele><time>2026-04-04T10:05:31.826Z</time></trkpt><trkpt lat="42.1606183" lon="14.70858"><ele>32.0</ele><time>2026-04-04T10:05:32.826Z</time></trkpt><trkpt lat="42.1605633" lon="14.70863"><ele>31.999999999999996</ele><time>2026-04-04T10:05:33.826Z</time></trkpt><trkpt lat="42.16051" lon="14.7086783"><ele>32.0</ele><time>2026-04-04T10:05:34.826Z</time></trkpt><trkpt lat="42.1604567" lon="14.7087283"><ele>32.0</ele><time>2026-04-04T10:05:35.826Z</time></trkpt><trkpt lat="42.1604017" lon="14.70878"><ele>31.999999999999996</ele><time>2026-04-04T10:05:36.826Z</time></trkpt><trkpt lat="42.160345" lon="14.7088333"><ele>32.0</ele><time>2026-04-04T10:05:37.827Z</time></trkpt><trkpt lat="42.1602917" lon="14.70888"><ele>32.0</ele><time>2026-04-04T10:05:38.826Z</time></trkpt><trkpt lat="42.160235" lon="14.7089283"><ele>32.0</ele><time>2026-04-04T10:05:39.826Z</time></trkpt><trkpt lat="42.1601833" lon="14.70898"><ele>31.999999999999996</ele><time>2026-04-04T10:05:40.826Z</time></trkpt><trkpt lat="42.160075" lon="14.7090783"><ele>32.0</ele><time>2026-04-04T10:05:42.826Z</time></trkpt><trkpt lat="42.16002" lon="14.7091283"><ele>32.0</ele><time>2026-04-04T10:05:43.827Z</time></trkpt><trkpt lat="42.1599667" lon="14.7091767"><ele>31.999999999999996</ele><time>2026-04-04T10:05:44.826Z</time></trkpt><trkpt lat="42.159915" lon="14.7092283"><ele>32.0</ele><time>2026-04-04T10:05:45.827Z</time></trkpt><trkpt lat="42.1598617" lon="14.709285"><ele>32.0</ele><time>2026-04-04T10:05:46.826Z</time></trkpt><trkpt lat="42.159805" lon="14.70933"><ele>31.999999999999996</ele><time>2026-04-04T10:05:47.826Z</time></trkpt><trkpt lat="42.15975" lon="14.70938"><ele>32.0</ele><time>2026-04-04T10:05:48.826Z</time></trkpt><trkpt lat="42.1596933" lon="14.70943"><ele>32.0</ele><time>2026-04-04T10:05:49.826Z</time></trkpt><trkpt lat="42.1596417" lon="14.70948"><ele>31.999999999999996</ele><time>2026-04-04T10:05:50.826Z</time></trkpt><trkpt lat="42.1595883" lon="14.70953"><ele>32.0</ele><time>2026-04-04T10:05:51.826Z</time></trkpt><trkpt lat="42.1595283" lon="14.70958"><ele>32.0</ele><time>2026-04-04T10:05:52.826Z</time></trkpt><trkpt lat="42.1594733" lon="14.7096283"><ele>32.0</ele><time>2026-04-04T10:05:53.826Z</time></trkpt><trkpt lat="42.1594183" lon="14.7096783"><ele>31.999999999999996</ele><time>2026-04-04T10:05:54.826Z</time></trkpt><trkpt lat="42.1593233" lon="14.7097767"><ele>32.0</ele><time>2026-04-04T10:05:56.826Z</time></trkpt><trkpt lat="42.1592733" lon="14.7098283"><ele>32.0</ele><time>2026-04-04T10:05:57.827Z</time></trkpt><trkpt lat="42.15917" lon="14.709925"><ele>32.0</ele><time>2026-04-04T10:05:59.826Z</time></trkpt><trkpt lat="42.15907" lon="14.71002"><ele>32.0</ele><time>2026-04-04T10:06:01.826Z</time></trkpt><trkpt lat="42.159015" lon="14.7100633"><ele>32.0</ele><time>2026-04-04T10:06:02.826Z</time></trkpt><trkpt lat="42.15896" lon="14.710105"><ele>32.0</ele><time>2026-04-04T10:06:03.826Z</time></trkpt><trkpt lat="42.1588517" lon="14.710195"><ele>31.999999999999996</ele><time>2026-04-04T10:06:05.826Z</time></trkpt><trkpt lat="42.1588" lon="14.7102467"><ele>32.0</ele><time>2026-04-04T10:06:06.826Z</time></trkpt><trkpt lat="42.158695" lon="14.7103367"><ele>32.0</ele><time>2026-04-04T10:06:08.826Z</time></trkpt><trkpt lat="42.15864" lon="14.7103833"><ele>32.0</ele><time>2026-04-04T10:06:09.826Z</time></trkpt><trkpt lat="42.1585883" lon="14.710435"><ele>31.999999999999996</ele><time>2026-04-04T10:06:10.826Z</time></trkpt><trkpt lat="42.1585333" lon="14.7104917"><ele>32.0</ele><time>2026-04-04T10:06:11.826Z</time></trkpt><trkpt lat="42.1584783" lon="14.710545"><ele>32.0</ele><time>2026-04-04T10:06:12.826Z</time></trkpt><trkpt lat="42.1584233" lon="14.7106"><ele>31.999999999999996</ele><time>2026-04-04T10:06:13.826Z</time></trkpt><trkpt lat="42.15837" lon="14.7106517"><ele>32.0</ele><time>2026-04-04T10:06:14.826Z</time></trkpt><trkpt lat="42.1583133" lon="14.7107083"><ele>32.0</ele><time>2026-04-04T10:06:15.826Z</time></trkpt><trkpt lat="42.1582567" lon="14.710765"><ele>31.999999999999996</ele><time>2026-04-04T10:06:16.826Z</time></trkpt><trkpt lat="42.1582017" lon="14.710815"><ele>32.0</ele><time>2026-04-04T10:06:17.827Z</time></trkpt><trkpt lat="42.1581483" lon="14.710865"><ele>32.0</ele><time>2026-04-04T10:06:18.826Z</time></trkpt><trkpt lat="42.158095" lon="14.710915"><ele>32.14285714285714</ele><time>2026-04-04T10:06:19.826Z</time></trkpt><trkpt lat="42.1580383" lon="14.7109683"><ele>32.285714285714285</ele><time>2026-04-04T10:06:20.826Z</time></trkpt><trkpt lat="42.15798" lon="14.71102"><ele>32.42857142857143</ele><time>2026-04-04T10:06:21.826Z</time></trkpt><trkpt lat="42.1579217" lon="14.71107"><ele>32.57142857142857</ele><time>2026-04-04T10:06:22.826Z</time></trkpt><trkpt lat="42.1578633" lon="14.7111217"><ele>32.714285714285715</ele><time>2026-04-04T10:06:23.826Z</time></trkpt><trkpt lat="42.1578" lon="14.71118"><ele>32.857142857142854</ele><time>2026-04-04T10:06:24.826Z</time></trkpt><trkpt lat="42.1577383" lon="14.7112367"><ele>33.0</ele><time>2026-04-04T10:06:25.826Z</time></trkpt><trkpt lat="42.15768" lon="14.71129"><ele>33.0</ele><time>2026-04-04T10:06:26.826Z</time></trkpt><trkpt lat="42.1576217" lon="14.7113467"><ele>33.0</ele><time>2026-04-04T10:06:27.827Z</time></trkpt><trkpt lat="42.1575683" lon="14.7113983"><ele>33.0</ele><time>2026-04-04T10:06:28.826Z</time></trkpt><trkpt lat="42.1575117" lon="14.71145"><ele>33.0</ele><time>2026-04-04T10:06:29.827Z</time></trkpt><trkpt lat="42.1574533" lon="14.7115033"><ele>33.0</ele><time>2026-04-04T10:06:30.826Z</time></trkpt><trkpt lat="42.1573967" lon="14.7115567"><ele>33.0</ele><time>2026-04-04T10:06:31.826Z</time></trkpt><trkpt lat="42.157335" lon="14.7116117"><ele>33.0</ele><time>2026-04-04T10:06:32.826Z</time></trkpt><trkpt lat="42.1572783" lon="14.7116633"><ele>33.14285714285714</ele><time>2026-04-04T10:06:33.826Z</time></trkpt><trkpt lat="42.1572183" lon="14.7117167"><ele>33.285714285714285</ele><time>2026-04-04T10:06:34.826Z</time></trkpt><trkpt lat="42.1571617" lon="14.71176"><ele>33.42857142857143</ele><time>2026-04-04T10:06:35.826Z</time></trkpt><trkpt lat="42.157105" lon="14.71181"><ele>33.57142857142857</ele><time>2026-04-04T10:06:36.826Z</time></trkpt><trkpt lat="42.15705" lon="14.7118583"><ele>33.714285714285715</ele><time>2026-04-04T10:06:37.826Z</time></trkpt><trkpt lat="42.1569933" lon="14.7119"><ele>33.857142857142854</ele><time>2026-04-04T10:06:38.826Z</time></trkpt><trkpt lat="42.1569317" lon="14.7119467"><ele>34.0</ele><time>2026-04-04T10:06:39.826Z</time></trkpt><trkpt lat="42.1568667" lon="14.7119917"><ele>33.71428571428571</ele><time>2026-04-04T10:06:40.826Z</time></trkpt><trkpt lat="42.156805" lon="14.7120367"><ele>33.42857142857143</ele><time>2026-04-04T10:06:41.826Z</time></trkpt><trkpt lat="42.15674" lon="14.71208"><ele>33.14285714285714</ele><time>2026-04-04T10:06:42.826Z</time></trkpt><trkpt lat="42.1566767" lon="14.7121167"><ele>32.857142857142854</ele><time>2026-04-04T10:06:43.827Z</time></trkpt><trkpt lat="42.1566117" lon="14.712155"><ele>32.57142857142857</ele><time>2026-04-04T10:06:44.826Z</time></trkpt><trkpt lat="42.1565433" lon="14.712195"><ele>32.285714285714285</ele><time>2026-04-04T10:06:45.826Z</time></trkpt><trkpt lat="42.1564783" lon="14.7122317"><ele>32.0</ele><time>2026-04-04T10:06:46.827Z</time></trkpt><trkpt lat="42.1564183" lon="14.71226"><ele>32.0</ele><time>2026-04-04T10:06:47.827Z</time></trkpt><trkpt lat="42.1563533" lon="14.7122933"><ele>31.999999999999996</ele><time>2026-04-04T10:06:48.826Z</time></trkpt><trkpt lat="42.1562867" lon="14.7123267"><ele>32.0</ele><time>2026-04-04T10:06:49.826Z</time></trkpt><trkpt lat="42.1562167" lon="14.7123567"><ele>32.0</ele><time>2026-04-04T10:06:50.826Z</time></trkpt><trkpt lat="42.1561467" lon="14.7123833"><ele>31.999999999999996</ele><time>2026-04-04T10:06:51.826Z</time></trkpt><trkpt lat="42.1560767" lon="14.7124117"><ele>32.0</ele><time>2026-04-04T10:06:52.826Z</time></trkpt><trkpt lat="42.1560067" lon="14.71244"><ele>32.0</ele><time>2026-04-04T10:06:53.826Z</time></trkpt><trkpt lat="42.155935" lon="14.7124667"><ele>32.0</ele><time>2026-04-04T10:06:54.826Z</time></trkpt><trkpt lat="42.1558667" lon="14.7124967"><ele>31.999999999999996</ele><time>2026-04-04T10:06:55.826Z</time></trkpt><trkpt lat="42.155805" lon="14.712525"><ele>32.0</ele><time>2026-04-04T10:06:56.827Z</time></trkpt><trkpt lat="42.155735" lon="14.7125567"><ele>32.0</ele><time>2026-04-04T10:06:57.826Z</time></trkpt><trkpt lat="42.1556667" lon="14.71259"><ele>31.999999999999996</ele><time>2026-04-04T10:06:58.826Z</time></trkpt><trkpt lat="42.155605" lon="14.7126117"><ele>32.0</ele><time>2026-04-04T10:06:59.827Z</time></trkpt><trkpt lat="42.155545" lon="14.7126383"><ele>32.0</ele><time>2026-04-04T10:07:00.826Z</time></trkpt><trkpt lat="42.15548" lon="14.7126633"><ele>31.833333333333332</ele><time>2026-04-04T10:07:01.826Z</time></trkpt><trkpt lat="42.15542" lon="14.7126933"><ele>31.666666666666664</ele><time>2026-04-04T10:07:02.826Z</time></trkpt><trkpt lat="42.1553567" lon="14.712715"><ele>31.5</ele><time>2026-04-04T10:07:03.826Z</time></trkpt><trkpt lat="42.155235" lon="14.712765"><ele>31.333333333333336</ele><time>2026-04-04T10:07:05.826Z</time></trkpt><trkpt lat="42.155175" lon="14.7127917"><ele>31.166666666666668</ele><time>2026-04-04T10:07:06.827Z</time></trkpt><trkpt lat="42.15511" lon="14.7128183"><ele>31.0</ele><time>2026-04-04T10:07:07.826Z</time></trkpt><trkpt lat="42.1550483" lon="14.7128483"><ele>31.000000000000004</ele><time>2026-04-04T10:07:08.827Z</time></trkpt><trkpt lat="42.1549883" lon="14.71288"><ele>31.0</ele><time>2026-04-04T10:07:09.827Z</time></trkpt><trkpt lat="42.1549233" lon="14.7129067"><ele>31.0</ele><time>2026-04-04T10:07:10.826Z</time></trkpt><trkpt lat="42.1548517" lon="14.7129367"><ele>31.0</ele><time>2026-04-04T10:07:11.826Z</time></trkpt><trkpt lat="42.1547333" lon="14.7129833"><ele>31.000000000000004</ele><time>2026-04-04T10:07:13.826Z</time></trkpt><trkpt lat="42.1546717" lon="14.7130083"><ele>31.0</ele><time>2026-04-04T10:07:14.826Z</time></trkpt><trkpt lat="42.1546117" lon="14.713035"><ele>31.000000000000004</ele><time>2026-04-04T10:07:15.826Z</time></trkpt><trkpt lat="42.1545467" lon="14.71306"><ele>31.0</ele><time>2026-04-04T10:07:16.826Z</time></trkpt><trkpt lat="42.154485" lon="14.7130833"><ele>31.0</ele><time>2026-04-04T10:07:17.826Z</time></trkpt><trkpt lat="42.15442" lon="14.7131067"><ele>31.0</ele><time>2026-04-04T10:07:18.827Z</time></trkpt><trkpt lat="42.154355" lon="14.7131333"><ele>31.000000000000004</ele><time>2026-04-04T10:07:19.827Z</time></trkpt><trkpt lat="42.154235" lon="14.713175"><ele>31.0</ele><time>2026-04-04T10:07:21.826Z</time></trkpt><trkpt lat="42.1541133" lon="14.7132067"><ele>31.000000000000004</ele><time>2026-04-04T10:07:23.826Z</time></trkpt><trkpt lat="42.1540467" lon="14.7132233"><ele>31.0</ele><time>2026-04-04T10:07:24.826Z</time></trkpt><trkpt lat="42.1539817" lon="14.7132333"><ele>31.0</ele><time>2026-04-04T10:07:25.826Z</time></trkpt><trkpt lat="42.1539133" lon="14.7132517"><ele>31.0</ele><time>2026-04-04T10:07:26.826Z</time></trkpt><trkpt lat="42.1538483" lon="14.7132633"><ele>31.000000000000004</ele><time>2026-04-04T10:07:27.826Z</time></trkpt><trkpt lat="42.153725" lon="14.713275"><ele>31.0</ele><time>2026-04-04T10:07:29.826Z</time></trkpt><trkpt lat="42.1536067" lon="14.71329"><ele>31.200000000000003</ele><time>2026-04-04T10:07:31.826Z</time></trkpt><trkpt lat="42.1534883" lon="14.7133017"><ele>31.400000000000002</ele><time>2026-04-04T10:07:33.826Z</time></trkpt><trkpt lat="42.15338" lon="14.7133117"><ele>31.6</ele><time>2026-04-04T10:07:35.826Z</time></trkpt><trkpt lat="42.1532733" lon="14.7133217"><ele>31.8</ele><time>2026-04-04T10:07:37.827Z</time></trkpt><trkpt lat="42.1531733" lon="14.71333"><ele>32.0</ele><time>2026-04-04T10:07:39.826Z</time></trkpt><trkpt lat="42.153075" lon="14.7133433"><ele>32.800000000000004</ele><time>2026-04-04T10:07:41.826Z</time></trkpt><trkpt lat="42.1529667" lon="14.7133533"><ele>33.6</ele><time>2026-04-04T10:07:43.826Z</time></trkpt><trkpt lat="42.1528583" lon="14.7133683"><ele>34.400000000000006</ele><time>2026-04-04T10:07:45.827Z</time></trkpt><trkpt lat="42.1527533" lon="14.7133767"><ele>35.2</ele><time>2026-04-04T10:07:47.826Z</time></trkpt><trkpt lat="42.1526533" lon="14.7133883"><ele>36.0</ele><time>2026-04-04T10:07:49.826Z</time></trkpt><trkpt lat="42.15255" lon="14.7133983"><ele>36.0</ele><time>2026-04-04T10:07:51.826Z</time></trkpt><trkpt lat="42.1524467" lon="14.7134117"><ele>36.0</ele><time>2026-04-04T10:07:53.826Z</time></trkpt><trkpt lat="42.1523417" lon="14.7134233"><ele>36.0</ele><time>2026-04-04T10:07:55.826Z</time></trkpt><trkpt lat="42.152235" lon="14.71344"><ele>36.0</ele><time>2026-04-04T10:07:57.826Z</time></trkpt><trkpt lat="42.1521267" lon="14.7134517"><ele>36.0</ele><time>2026-04-04T10:07:59.826Z</time></trkpt><trkpt lat="42.152025" lon="14.7134567"><ele>36.6</ele><time>2026-04-04T10:08:01.826Z</time></trkpt><trkpt lat="42.1519167" lon="14.7134683"><ele>37.2</ele><time>2026-04-04T10:08:03.826Z</time></trkpt><trkpt lat="42.1518083" lon="14.7134817"><ele>37.8</ele><time>2026-04-04T10:08:05.826Z</time></trkpt><trkpt lat="42.1517017" lon="14.7134933"><ele>38.4</ele><time>2026-04-04T10:08:07.826Z</time></trkpt><trkpt lat="42.1515967" lon="14.7135117"><ele>39.0</ele><time>2026-04-04T10:08:09.826Z</time></trkpt><trkpt lat="42.1514983" lon="14.7135217"><ele>39.4</ele><time>2026-04-04T10:08:11.826Z</time></trkpt><trkpt lat="42.151395" lon="14.7135333"><ele>39.8</ele><time>2026-04-04T10:08:13.826Z</time></trkpt><trkpt lat="42.15129" lon="14.7135483"><ele>40.199999999999996</ele><time>2026-04-04T10:08:15.827Z</time></trkpt><trkpt lat="42.151185" lon="14.7135617"><ele>40.599999999999994</ele><time>2026-04-04T10:08:17.827Z</time></trkpt><trkpt lat="42.1510817" lon="14.71357"><ele>41.0</ele><time>2026-04-04T10:08:19.827Z</time></trkpt><trkpt lat="42.1509833" lon="14.7135783"><ele>40.0</ele><time>2026-04-04T10:08:21.826Z</time></trkpt><trkpt lat="42.150885" lon="14.7135883"><ele>39.0</ele><time>2026-04-04T10:08:23.826Z</time></trkpt><trkpt lat="42.1507767" lon="14.7136017"><ele>38.0</ele><time>2026-04-04T10:08:25.827Z</time></trkpt><trkpt lat="42.150675" lon="14.7136183"><ele>37.0</ele><time>2026-04-04T10:08:27.826Z</time></trkpt><trkpt lat="42.1505667" lon="14.7136317"><ele>36.0</ele><time>2026-04-04T10:08:29.827Z</time></trkpt><trkpt lat="42.1504633" lon="14.713645"><ele>36.0</ele><time>2026-04-04T10:08:31.826Z</time></trkpt><trkpt lat="42.1503583" lon="14.7136617"><ele>36.0</ele><time>2026-04-04T10:08:33.826Z</time></trkpt><trkpt lat="42.1502533" lon="14.7136717"><ele>36.0</ele><time>2026-04-04T10:08:35.826Z</time></trkpt><trkpt lat="42.15015" lon="14.713685"><ele>36.0</ele><time>2026-04-04T10:08:37.826Z</time></trkpt><trkpt lat="42.15005" lon="14.7137"><ele>36.0</ele><time>2026-04-04T10:08:39.826Z</time></trkpt><trkpt lat="42.14994" lon="14.7137183"><ele>36.8</ele><time>2026-04-04T10:08:41.826Z</time></trkpt><trkpt lat="42.1498283" lon="14.713725"><ele>37.6</ele><time>2026-04-04T10:08:43.826Z</time></trkpt><trkpt lat="42.1497233" lon="14.7137367"><ele>38.4</ele><time>2026-04-04T10:08:45.827Z</time></trkpt><trkpt lat="42.14962" lon="14.71375"><ele>39.2</ele><time>2026-04-04T10:08:47.826Z</time></trkpt><trkpt lat="42.14952" lon="14.7137633"><ele>40.0</ele><time>2026-04-04T10:08:49.826Z</time></trkpt><trkpt lat="42.149415" lon="14.7137717"><ele>40.0</ele><time>2026-04-04T10:08:51.826Z</time></trkpt><trkpt lat="42.149305" lon="14.7137883"><ele>40.0</ele><time>2026-04-04T10:08:53.826Z</time></trkpt><trkpt lat="42.1491967" lon="14.7138017"><ele>40.0</ele><time>2026-04-04T10:08:55.826Z</time></trkpt><trkpt lat="42.149095" lon="14.7138133"><ele>40.0</ele><time>2026-04-04T10:08:57.826Z</time></trkpt><trkpt lat="42.1489867" lon="14.713825"><ele>40.0</ele><time>2026-04-04T10:08:59.826Z</time></trkpt><trkpt lat="42.1488767" lon="14.7138267"><ele>40.2</ele><time>2026-04-04T10:09:01.826Z</time></trkpt><trkpt lat="42.1487717" lon="14.7138083"><ele>40.4</ele><time>2026-04-04T10:09:03.826Z</time></trkpt><trkpt lat="42.1486717" lon="14.7137717"><ele>40.599999999999994</ele><time>2026-04-04T10:09:05.826Z</time></trkpt><trkpt lat="42.1485717" lon="14.713725"><ele>40.8</ele><time>2026-04-04T10:09:07.826Z</time></trkpt><trkpt lat="42.1484967" lon="14.7136833"><ele>41.0</ele><time>2026-04-04T10:09:09.826Z</time></trkpt><trkpt lat="42.1484167" lon="14.7136383"><ele>41.0</ele><time>2026-04-04T10:09:11.826Z</time></trkpt><trkpt lat="42.14834" lon="14.7135767"><ele>41.0</ele><time>2026-04-04T10:09:13.826Z</time></trkpt><trkpt lat="42.14826" lon="14.7135267"><ele>41.0</ele><time>2026-04-04T10:09:15.826Z</time></trkpt><trkpt lat="42.1481733" lon="14.7134817"><ele>41.0</ele><time>2026-04-04T10:09:17.826Z</time></trkpt><trkpt lat="42.1480867" lon="14.71344"><ele>41.0</ele><time>2026-04-04T10:09:19.827Z</time></trkpt><trkpt lat="42.1480083" lon="14.7134"><ele>41.0</ele><time>2026-04-04T10:09:21.826Z</time></trkpt><trkpt lat="42.1479183" lon="14.713365"><ele>42.0</ele><time>2026-04-04T10:09:23.826Z</time></trkpt><trkpt lat="42.1478333" lon="14.7133317"><ele>43.0</ele><time>2026-04-04T10:09:25.826Z</time></trkpt><trkpt lat="42.14775" lon="14.7132867"><ele>44.0</ele><time>2026-04-04T10:09:27.826Z</time></trkpt><trkpt lat="42.1476717" lon="14.713245"><ele>45.0</ele><time>2026-04-04T10:09:29.826Z</time></trkpt><trkpt lat="42.1475983" lon="14.713205"><ele>46.0</ele><time>2026-04-04T10:09:31.826Z</time></trkpt><trkpt lat="42.1475117" lon="14.7131617"><ele>47.0</ele><time>2026-04-04T10:09:33.826Z</time></trkpt><trkpt lat="42.1474233" lon="14.7131167"><ele>47.33333333333333</ele><time>2026-04-04T10:09:35.826Z</time></trkpt><trkpt lat="42.1473433" lon="14.7130817"><ele>47.666666666666664</ele><time>2026-04-04T10:09:37.827Z</time></trkpt><trkpt lat="42.1472683" lon="14.7130433"><ele>48.0</ele><time>2026-04-04T10:09:39.826Z</time></trkpt><trkpt lat="42.1471867" lon="14.7130117"><ele>48.33333333333333</ele><time>2026-04-04T10:09:41.826Z</time></trkpt><trkpt lat="42.1470933" lon="14.7129767"><ele>48.666666666666664</ele><time>2026-04-04T10:09:43.826Z</time></trkpt><trkpt lat="42.1470033" lon="14.71294"><ele>49.0</ele><time>2026-04-04T10:09:45.826Z</time></trkpt><trkpt lat="42.14691" lon="14.7128967"><ele>48.99999999999999</ele><time>2026-04-04T10:09:47.826Z</time></trkpt><trkpt lat="42.146825" lon="14.7128583"><ele>49.0</ele><time>2026-04-04T10:09:49.826Z</time></trkpt><trkpt lat="42.1467533" lon="14.712825"><ele>49.0</ele><time>2026-04-04T10:09:51.827Z</time></trkpt><trkpt lat="42.146665" lon="14.71278"><ele>49.0</ele><time>2026-04-04T10:09:54.827Z</time></trkpt><trkpt lat="42.1466033" lon="14.7127417"><ele>48.99999999999999</ele><time>2026-04-04T10:09:56.826Z</time></trkpt><trkpt lat="42.146535" lon="14.7127083"><ele>49.0</ele><time>2026-04-04T10:09:58.826Z</time></trkpt><trkpt lat="42.1464717" lon="14.7126767"><ele>49.83333333333333</ele><time>2026-04-04T10:10:00.826Z</time></trkpt><trkpt lat="42.146395" lon="14.7126483"><ele>50.666666666666664</ele><time>2026-04-04T10:10:02.826Z</time></trkpt><trkpt lat="42.146315" lon="14.7126017"><ele>51.5</ele><time>2026-04-04T10:10:04.827Z</time></trkpt><trkpt lat="42.146235" lon="14.7125633"><ele>52.33333333333333</ele><time>2026-04-04T10:10:06.826Z</time></trkpt><trkpt lat="42.14615" lon="14.7125233"><ele>53.166666666666664</ele><time>2026-04-04T10:10:08.826Z</time></trkpt><trkpt lat="42.146075" lon="14.71249"><ele>54.0</ele><time>2026-04-04T10:10:10.827Z</time></trkpt><trkpt lat="42.1460033" lon="14.7124567"><ele>54.0</ele><time>2026-04-04T10:10:12.826Z</time></trkpt><trkpt lat="42.1459383" lon="14.7124317"><ele>54.0</ele><time>2026-04-04T10:10:14.826Z</time></trkpt><trkpt lat="42.145865" lon="14.7123983"><ele>54.0</ele><time>2026-04-04T10:10:16.826Z</time></trkpt><trkpt lat="42.1457933" lon="14.7123683"><ele>54.0</ele><time>2026-04-04T10:10:18.826Z</time></trkpt><trkpt lat="42.14571" lon="14.712335"><ele>54.0</ele><time>2026-04-04T10:10:20.826Z</time></trkpt><trkpt lat="42.1456283" lon="14.7122967"><ele>54.0</ele><time>2026-04-04T10:10:22.826Z</time></trkpt><trkpt lat="42.1455567" lon="14.7122633"><ele>54.0</ele><time>2026-04-04T10:10:24.826Z</time></trkpt><trkpt lat="42.1454867" lon="14.7122317"><ele>54.0</ele><time>2026-04-04T10:10:26.826Z</time></trkpt><trkpt lat="42.1454117" lon="14.7121933"><ele>54.0</ele><time>2026-04-04T10:10:28.826Z</time></trkpt><trkpt lat="42.145335" lon="14.7121567"><ele>54.0</ele><time>2026-04-04T10:10:30.827Z</time></trkpt><trkpt lat="42.1452583" lon="14.7121183"><ele>54.0</ele><time>2026-04-04T10:10:32.826Z</time></trkpt><trkpt lat="42.1451833" lon="14.7120833"><ele>54.0</ele><time>2026-04-04T10:10:34.826Z</time></trkpt><trkpt lat="42.145115" lon="14.7120533"><ele>54.0</ele><time>2026-04-04T10:10:36.826Z</time></trkpt><trkpt lat="42.1450417" lon="14.71201"><ele>54.0</ele><time>2026-04-04T10:10:38.826Z</time></trkpt><trkpt lat="42.14496" lon="14.71197"><ele>54.0</ele><time>2026-04-04T10:10:40.826Z</time></trkpt><trkpt lat="42.14489" lon="14.71193"><ele>54.0</ele><time>2026-04-04T10:10:42.826Z</time></trkpt><trkpt lat="42.144815" lon="14.711895"><ele>54.0</ele><time>2026-04-04T10:10:44.826Z</time></trkpt><trkpt lat="42.1447283" lon="14.7118567"><ele>54.0</ele><time>2026-04-04T10:10:46.827Z</time></trkpt><trkpt lat="42.1446283" lon="14.7118167"><ele>54.800000000000004</ele><time>2026-04-04T10:10:48.826Z</time></trkpt><trkpt lat="42.1445317" lon="14.7117817"><ele>55.60000000000001</ele><time>2026-04-04T10:10:50.826Z</time></trkpt><trkpt lat="42.1444417" lon="14.711745"><ele>56.4</ele><time>2026-04-04T10:10:52.826Z</time></trkpt><trkpt lat="42.1443667" lon="14.7117033"><ele>57.2</ele><time>2026-04-04T10:10:54.826Z</time></trkpt><trkpt lat="42.1442933" lon="14.7116667"><ele>58.0</ele><time>2026-04-04T10:10:56.826Z</time></trkpt><trkpt lat="42.1442" lon="14.7116133"><ele>57.99999999999999</ele><time>2026-04-04T10:10:59.826Z</time></trkpt><trkpt lat="42.144115" lon="14.7115717"><ele>58.0</ele><time>2026-04-04T10:11:01.826Z</time></trkpt><trkpt lat="42.14404" lon="14.7115333"><ele>58.0</ele><time>2026-04-04T10:11:03.826Z</time></trkpt><trkpt lat="42.1439633" lon="14.7114983"><ele>58.0</ele><time>2026-04-04T10:11:05.826Z</time></trkpt><trkpt lat="42.1438767" lon="14.7114633"><ele>57.99999999999999</ele><time>2026-04-04T10:11:07.826Z</time></trkpt><trkpt lat="42.1437933" lon="14.71143"><ele>58.0</ele><time>2026-04-04T10:11:09.827Z</time></trkpt><trkpt lat="42.1437117" lon="14.7113967"><ele>58.33333333333333</ele><time>2026-04-04T10:11:11.826Z</time></trkpt><trkpt lat="42.1436283" lon="14.71136"><ele>58.666666666666664</ele><time>2026-04-04T10:11:13.826Z</time></trkpt><trkpt lat="42.14355" lon="14.711325"><ele>59.0</ele><time>2026-04-04T10:11:15.826Z</time></trkpt><trkpt lat="42.14347" lon="14.711285"><ele>59.33333333333333</ele><time>2026-04-04T10:11:17.827Z</time></trkpt><trkpt lat="42.1433917" lon="14.71125"><ele>59.666666666666664</ele><time>2026-04-04T10:11:19.826Z</time></trkpt><trkpt lat="42.1433217" lon="14.711215"><ele>60.0</ele><time>2026-04-04T10:11:21.826Z</time></trkpt><trkpt lat="42.1432517" lon="14.71118"><ele>60.333333333333336</ele><time>2026-04-04T10:11:23.827Z</time></trkpt><trkpt lat="42.1431783" lon="14.7111433"><ele>60.66666666666667</ele><time>2026-04-04T10:11:25.826Z</time></trkpt><trkpt lat="42.1431067" lon="14.7111083"><ele>61.0</ele><time>2026-04-04T10:11:27.826Z</time></trkpt><trkpt lat="42.1430267" lon="14.711075"><ele>61.333333333333336</ele><time>2026-04-04T10:11:29.826Z</time></trkpt><trkpt lat="42.1429367" lon="14.7110417"><ele>61.66666666666667</ele><time>2026-04-04T10:11:31.826Z</time></trkpt><trkpt lat="42.14285" lon="14.7110117"><ele>62.0</ele><time>2026-04-04T10:11:33.827Z</time></trkpt><trkpt lat="42.1427733" lon="14.7109933"><ele>62.333333333333336</ele><time>2026-04-04T10:11:35.826Z</time></trkpt><trkpt lat="42.1426933" lon="14.7109683"><ele>62.66666666666667</ele><time>2026-04-04T10:11:37.826Z</time></trkpt><trkpt lat="42.1426067" lon="14.7109417"><ele>63.0</ele><time>2026-04-04T10:11:39.826Z</time></trkpt><trkpt lat="42.1425233" lon="14.71092"><ele>63.33333333333333</ele><time>2026-04-04T10:11:41.826Z</time></trkpt><trkpt lat="42.1424367" lon="14.710905"><ele>63.666666666666664</ele><time>2026-04-04T10:11:43.826Z</time></trkpt><trkpt lat="42.1423417" lon="14.7108967"><ele>64.0</ele><time>2026-04-04T10:11:45.826Z</time></trkpt><trkpt lat="42.1422567" lon="14.7108917"><ele>64.5</ele><time>2026-04-04T10:11:47.826Z</time></trkpt><trkpt lat="42.1421683" lon="14.710895"><ele>65.0</ele><time>2026-04-04T10:11:49.827Z</time></trkpt><trkpt lat="42.14208" lon="14.7109033"><ele>65.5</ele><time>2026-04-04T10:11:51.826Z</time></trkpt><trkpt lat="42.1419883" lon="14.7108917"><ele>66.0</ele><time>2026-04-04T10:11:53.826Z</time></trkpt><trkpt lat="42.141905" lon="14.71089"><ele>66.5</ele><time>2026-04-04T10:11:55.826Z</time></trkpt><trkpt lat="42.1418217" lon="14.7108933"><ele>67.0</ele><time>2026-04-04T10:11:57.826Z</time></trkpt><trkpt lat="42.1417467" lon="14.710895"><ele>67.0</ele><time>2026-04-04T10:11:59.826Z</time></trkpt><trkpt lat="42.14167" lon="14.7108933"><ele>67.0</ele><time>2026-04-04T10:12:01.827Z</time></trkpt><trkpt lat="42.141595" lon="14.7108983"><ele>67.0</ele><time>2026-04-04T10:12:03.826Z</time></trkpt><trkpt lat="42.1415133" lon="14.7108967"><ele>67.0</ele><time>2026-04-04T10:12:05.826Z</time></trkpt><trkpt lat="42.1414267" lon="14.710905"><ele>67.0</ele><time>2026-04-04T10:12:07.826Z</time></trkpt><trkpt lat="42.1413383" lon="14.710905"><ele>67.0</ele><time>2026-04-04T10:12:09.826Z</time></trkpt><trkpt lat="42.141255" lon="14.710915"><ele>67.4</ele><time>2026-04-04T10:12:11.826Z</time></trkpt><trkpt lat="42.1411783" lon="14.7109167"><ele>67.80000000000001</ele><time>2026-04-04T10:12:13.826Z</time></trkpt><trkpt lat="42.1410817" lon="14.7109233"><ele>68.2</ele><time>2026-04-04T10:12:15.826Z</time></trkpt><trkpt lat="42.140985" lon="14.7109217"><ele>68.60000000000001</ele><time>2026-04-04T10:12:17.826Z</time></trkpt><trkpt lat="42.14089" lon="14.7109167"><ele>69.0</ele><time>2026-04-04T10:12:19.826Z</time></trkpt><trkpt lat="42.1407983" lon="14.7109167"><ele>69.33333333333333</ele><time>2026-04-04T10:12:21.826Z</time></trkpt><trkpt lat="42.140715" lon="14.7109183"><ele>69.66666666666667</ele><time>2026-04-04T10:12:23.826Z</time></trkpt><trkpt lat="42.14063" lon="14.7109183"><ele>70.0</ele><time>2026-04-04T10:12:25.826Z</time></trkpt><trkpt lat="42.1405417" lon="14.7109233"><ele>70.33333333333334</ele><time>2026-04-04T10:12:27.826Z</time></trkpt><trkpt lat="42.1404517" lon="14.71093"><ele>70.66666666666667</ele><time>2026-04-04T10:12:29.826Z</time></trkpt><trkpt lat="42.1403617" lon="14.7109267"><ele>71.0</ele><time>2026-04-04T10:12:31.826Z</time></trkpt><trkpt lat="42.1402717" lon="14.7109317"><ele>71.0</ele><time>2026-04-04T10:12:33.827Z</time></trkpt><trkpt lat="42.1401833" lon="14.7109367"><ele>71.0</ele><time>2026-04-04T10:12:35.826Z</time></trkpt><trkpt lat="42.140095" lon="14.7109417"><ele>71.0</ele><time>2026-04-04T10:12:37.826Z</time></trkpt><trkpt lat="42.1400117" lon="14.7109433"><ele>71.0</ele><time>2026-04-04T10:12:39.826Z</time></trkpt><trkpt lat="42.1399267" lon="14.71094"><ele>71.0</ele><time>2026-04-04T10:12:41.826Z</time></trkpt><trkpt lat="42.1398367" lon="14.7109467"><ele>71.0</ele><time>2026-04-04T10:12:43.826Z</time></trkpt><trkpt lat="42.1397517" lon="14.7109533"><ele>71.8</ele><time>2026-04-04T10:12:45.826Z</time></trkpt><trkpt lat="42.1396683" lon="14.710955"><ele>72.6</ele><time>2026-04-04T10:12:47.826Z</time></trkpt><trkpt lat="42.1395783" lon="14.7109533"><ele>73.4</ele><time>2026-04-04T10:12:49.826Z</time></trkpt><trkpt lat="42.1394867" lon="14.7109533"><ele>74.2</ele><time>2026-04-04T10:12:51.826Z</time></trkpt><trkpt lat="42.13939" lon="14.7109517"><ele>75.0</ele><time>2026-04-04T10:12:53.826Z</time></trkpt><trkpt lat="42.1393017" lon="14.710945"><ele>75.0</ele><time>2026-04-04T10:12:55.826Z</time></trkpt><trkpt lat="42.1392183" lon="14.710945"><ele>75.0</ele><time>2026-04-04T10:12:57.826Z</time></trkpt><trkpt lat="42.1391383" lon="14.7109483"><ele>75.0</ele><time>2026-04-04T10:12:59.826Z</time></trkpt><trkpt lat="42.139065" lon="14.7109467"><ele>75.0</ele><time>2026-04-04T10:13:01.826Z</time></trkpt><trkpt lat="42.1389733" lon="14.71095"><ele>75.0</ele><time>2026-04-04T10:13:03.826Z</time></trkpt><trkpt lat="42.1388767" lon="14.71095"><ele>75.0</ele><time>2026-04-04T10:13:05.826Z</time></trkpt><trkpt lat="42.1387883" lon="14.71095"><ele>75.6</ele><time>2026-04-04T10:13:07.826Z</time></trkpt><trkpt lat="42.1386983" lon="14.7109533"><ele>76.2</ele><time>2026-04-04T10:13:09.826Z</time></trkpt><trkpt lat="42.1386033" lon="14.710955"><ele>76.8</ele><time>2026-04-04T10:13:11.826Z</time></trkpt><trkpt lat="42.138515" lon="14.7109533"><ele>77.4</ele><time>2026-04-04T10:13:13.826Z</time></trkpt><trkpt lat="42.1384267" lon="14.71096"><ele>78.0</ele><time>2026-04-04T10:13:15.826Z</time></trkpt><trkpt lat="42.1383383" lon="14.7109567"><ele>78.0</ele><time>2026-04-04T10:13:17.826Z</time></trkpt><trkpt lat="42.138245" lon="14.710955"><ele>78.0</ele><time>2026-04-04T10:13:19.826Z</time></trkpt><trkpt lat="42.1381467" lon="14.7109617"><ele>78.0</ele><time>2026-04-04T10:13:21.826Z</time></trkpt><trkpt lat="42.138055" lon="14.710965"><ele>78.0</ele><time>2026-04-04T10:13:23.826Z</time></trkpt><trkpt lat="42.13797" lon="14.7109683"><ele>78.0</ele><time>2026-04-04T10:13:25.826Z</time></trkpt><trkpt lat="42.1378767" lon="14.7109717"><ele>78.4</ele><time>2026-04-04T10:13:27.827Z</time></trkpt><trkpt lat="42.137775" lon="14.7109733"><ele>78.8</ele><time>2026-04-04T10:13:29.826Z</time></trkpt><trkpt lat="42.1376833" lon="14.71098"><ele>79.2</ele><time>2026-04-04T10:13:31.826Z</time></trkpt><trkpt lat="42.1375917" lon="14.7109817"><ele>79.6</ele><time>2026-04-04T10:13:33.826Z</time></trkpt><trkpt lat="42.1375017" lon="14.7109817"><ele>80.0</ele><time>2026-04-04T10:13:35.827Z</time></trkpt><trkpt lat="42.13741" lon="14.7109833"><ele>80.4</ele><time>2026-04-04T10:13:37.826Z</time></trkpt><trkpt lat="42.1373117" lon="14.7109917"><ele>80.8</ele><time>2026-04-04T10:13:39.826Z</time></trkpt><trkpt lat="42.137215" lon="14.71098"><ele>81.19999999999999</ele><time>2026-04-04T10:13:41.826Z</time></trkpt><trkpt lat="42.1371167" lon="14.7109817"><ele>81.6</ele><time>2026-04-04T10:13:43.826Z</time></trkpt><trkpt lat="42.1370167" lon="14.7109883"><ele>82.0</ele><time>2026-04-04T10:13:45.826Z</time></trkpt><trkpt lat="42.1369167" lon="14.7109867"><ele>82.0</ele><time>2026-04-04T10:13:47.826Z</time></trkpt><trkpt lat="42.1368283" lon="14.7109867"><ele>82.0</ele><time>2026-04-04T10:13:49.826Z</time></trkpt><trkpt lat="42.13674" lon="14.7109933"><ele>82.0</ele><time>2026-04-04T10:13:51.826Z</time></trkpt><trkpt lat="42.13665" lon="14.7109917"><ele>82.0</ele><time>2026-04-04T10:13:53.827Z</time></trkpt><trkpt lat="42.1365583" lon="14.7109883"><ele>82.0</ele><time>2026-04-04T10:13:55.826Z</time></trkpt><trkpt lat="42.1364733" lon="14.7109867"><ele>82.0</ele><time>2026-04-04T10:13:57.826Z</time></trkpt><trkpt lat="42.1363567" lon="14.7110067"><ele>82.5</ele><time>2026-04-04T10:13:59.826Z</time></trkpt><trkpt lat="42.1362567" lon="14.7110167"><ele>83.0</ele><time>2026-04-04T10:14:01.826Z</time></trkpt><trkpt lat="42.1361667" lon="14.71101"><ele>83.5</ele><time>2026-04-04T10:14:03.826Z</time></trkpt><trkpt lat="42.136075" lon="14.71101"><ele>84.0</ele><time>2026-04-04T10:14:05.826Z</time></trkpt><trkpt lat="42.135985" lon="14.7110083"><ele>84.5</ele><time>2026-04-04T10:14:07.826Z</time></trkpt><trkpt lat="42.135915" lon="14.7110067"><ele>85.0</ele><time>2026-04-04T10:14:09.827Z</time></trkpt><trkpt lat="42.1358283" lon="14.7110017"><ele>85.0</ele><time>2026-04-04T10:14:11.826Z</time></trkpt><trkpt lat="42.1357317" lon="14.7110033"><ele>85.0</ele><time>2026-04-04T10:14:13.826Z</time></trkpt><trkpt lat="42.135645" lon="14.7110117"><ele>85.0</ele><time>2026-04-04T10:14:15.826Z</time></trkpt><trkpt lat="42.1355583" lon="14.711015"><ele>85.0</ele><time>2026-04-04T10:14:17.826Z</time></trkpt><trkpt lat="42.1354533" lon="14.71102"><ele>85.0</ele><time>2026-04-04T10:14:19.827Z</time></trkpt><trkpt lat="42.1353567" lon="14.7110167"><ele>85.4</ele><time>2026-04-04T10:14:21.826Z</time></trkpt><trkpt lat="42.1352533" lon="14.7110117"><ele>85.8</ele><time>2026-04-04T10:14:23.826Z</time></trkpt><trkpt lat="42.1351483" lon="14.7110017"><ele>86.19999999999999</ele><time>2026-04-04T10:14:25.827Z</time></trkpt><trkpt lat="42.1350483" lon="14.710995"><ele>86.6</ele><time>2026-04-04T10:14:27.826Z</time></trkpt><trkpt lat="42.1349617" lon="14.7109967"><ele>87.0</ele><time>2026-04-04T10:14:29.826Z</time></trkpt><trkpt lat="42.134875" lon="14.7109867"><ele>87.5</ele><time>2026-04-04T10:14:31.826Z</time></trkpt><trkpt lat="42.134785" lon="14.71099"><ele>88.0</ele><time>2026-04-04T10:14:33.826Z</time></trkpt><trkpt lat="42.1346933" lon="14.7109967"><ele>88.5</ele><time>2026-04-04T10:14:35.826Z</time></trkpt><trkpt lat="42.13461" lon="14.7109933"><ele>89.0</ele><time>2026-04-04T10:14:37.826Z</time></trkpt><trkpt lat="42.13453" lon="14.7109983"><ele>89.5</ele><time>2026-04-04T10:14:39.826Z</time></trkpt><trkpt lat="42.1344533" lon="14.710995"><ele>90.0</ele><time>2026-04-04T10:14:41.826Z</time></trkpt><trkpt lat="42.134365" lon="14.7109933"><ele>90.0</ele><time>2026-04-04T10:14:43.826Z</time></trkpt><trkpt lat="42.1342817" lon="14.7109917"><ele>90.0</ele><time>2026-04-04T10:14:45.827Z</time></trkpt><trkpt lat="42.134195" lon="14.7109967"><ele>90.0</ele><time>2026-04-04T10:14:47.827Z</time></trkpt><trkpt lat="42.1341017" lon="14.7109933"><ele>90.0</ele><time>2026-04-04T10:14:49.826Z</time></trkpt><trkpt lat="42.1340083" lon="14.7109933"><ele>90.0</ele><time>2026-04-04T10:14:51.826Z</time></trkpt><trkpt lat="42.1339183" lon="14.7109983"><ele>90.0</ele><time>2026-04-04T10:14:53.826Z</time></trkpt><trkpt lat="42.1338283" lon="14.711"><ele>90.16666666666667</ele><time>2026-04-04T10:14:55.826Z</time></trkpt><trkpt lat="42.1337317" lon="14.7109917"><ele>90.33333333333333</ele><time>2026-04-04T10:14:57.826Z</time></trkpt><trkpt lat="42.1336433" lon="14.710995"><ele>90.5</ele><time>2026-04-04T10:14:59.826Z</time></trkpt><trkpt lat="42.1335583" lon="14.711"><ele>90.66666666666666</ele><time>2026-04-04T10:15:01.826Z</time></trkpt><trkpt lat="42.1334733" lon="14.7110033"><ele>90.83333333333333</ele><time>2026-04-04T10:15:03.827Z</time></trkpt><trkpt lat="42.1333883" lon="14.711005"><ele>91.0</ele><time>2026-04-04T10:15:05.827Z</time></trkpt><trkpt lat="42.1332867" lon="14.71099"><ele>91.5</ele><time>2026-04-04T10:15:07.826Z</time></trkpt><trkpt lat="42.133195" lon="14.7109883"><ele>92.0</ele><time>2026-04-04T10:15:09.826Z</time></trkpt><trkpt lat="42.133125" lon="14.7109917"><ele>92.5</ele><time>2026-04-04T10:15:11.827Z</time></trkpt><trkpt lat="42.1330533" lon="14.7109933"><ele>93.0</ele><time>2026-04-04T10:15:13.826Z</time></trkpt><trkpt lat="42.1329767" lon="14.710995"><ele>93.5</ele><time>2026-04-04T10:15:16.826Z</time></trkpt><trkpt lat="42.1328983" lon="14.710955"><ele>94.0</ele><time>2026-04-04T10:15:20.826Z</time></trkpt><trkpt lat="42.1328267" lon="14.7109467"><ele>94.0</ele><time>2026-04-04T10:15:25.826Z</time></trkpt><trkpt lat="42.1327567" lon="14.7109567"><ele>94.0</ele><time>2026-04-04T10:15:30.826Z</time></trkpt><trkpt lat="42.1328283" lon="14.711035"><ele>94.0</ele><time>2026-04-04T10:15:36.826Z</time></trkpt><trkpt lat="42.1329083" lon="14.71104"><ele>94.0</ele><time>2026-04-04T10:15:38.826Z</time></trkpt><trkpt lat="42.1329767" lon="14.71105"><ele>94.0</ele><time>2026-04-04T10:15:41.826Z</time></trkpt><trkpt lat="42.13286" lon="14.7107767"><ele>94.0</ele><time>2026-04-04T10:16:44.107Z</time></trkpt><trkpt lat="42.1329383" lon="14.7110033"><ele>94.0</ele><time>2026-04-04T10:16:49.826Z</time></trkpt><trkpt lat="42.13301" lon="14.7110617"><ele>94.0</ele><time>2026-04-04T10:16:53.827Z</time></trkpt><trkpt lat="42.1330917" lon="14.7110717"><ele>94.0</ele><time>2026-04-04T10:16:56.826Z</time></trkpt><trkpt lat="42.13318" lon="14.71106"><ele>94.0</ele><time>2026-04-04T10:16:59.826Z</time></trkpt><trkpt lat="42.133255" lon="14.7110433"><ele>93.4</ele><time>2026-04-04T10:17:01.826Z</time></trkpt><trkpt lat="42.1333417" lon="14.711025"><ele>92.80000000000001</ele><time>2026-04-04T10:17:03.826Z</time></trkpt><trkpt lat="42.133465" lon="14.7110567"><ele>92.19999999999999</ele><time>2026-04-04T10:17:05.826Z</time></trkpt><trkpt lat="42.1335317" lon="14.71107"><ele>91.6</ele><time>2026-04-04T10:17:06.826Z</time></trkpt><trkpt lat="42.1335967" lon="14.7110733"><ele>91.0</ele><time>2026-04-04T10:17:07.826Z</time></trkpt><trkpt lat="42.1337233" lon="14.7110667"><ele>91.0</ele><time>2026-04-04T10:17:09.826Z</time></trkpt><trkpt lat="42.1337933" lon="14.7110633"><ele>91.0</ele><time>2026-04-04T10:17:10.826Z</time></trkpt><trkpt lat="42.1338583" lon="14.7110633"><ele>91.0</ele><time>2026-04-04T10:17:11.826Z</time></trkpt><trkpt lat="42.1339233" lon="14.7110633"><ele>91.0</ele><time>2026-04-04T10:17:12.827Z</time></trkpt><trkpt lat="42.13399" lon="14.7110617"><ele>91.0</ele><time>2026-04-04T10:17:13.826Z</time></trkpt><trkpt lat="42.1340583" lon="14.71106"><ele>91.0</ele><time>2026-04-04T10:17:14.827Z</time></trkpt><trkpt lat="42.1341267" lon="14.7110617"><ele>91.0</ele><time>2026-04-04T10:17:15.826Z</time></trkpt><trkpt lat="42.134195" lon="14.7110583"><ele>90.85714285714286</ele><time>2026-04-04T10:17:16.826Z</time></trkpt><trkpt lat="42.1342583" lon="14.7110533"><ele>90.71428571428572</ele><time>2026-04-04T10:17:17.826Z</time></trkpt><trkpt lat="42.13433" lon="14.7110517"><ele>90.57142857142857</ele><time>2026-04-04T10:17:18.826Z</time></trkpt><trkpt lat="42.1344017" lon="14.7110517"><ele>90.42857142857143</ele><time>2026-04-04T10:17:19.826Z</time></trkpt><trkpt lat="42.1344683" lon="14.711055"><ele>90.28571428571429</ele><time>2026-04-04T10:17:20.826Z</time></trkpt><trkpt lat="42.134535" lon="14.7110483"><ele>90.14285714285714</ele><time>2026-04-04T10:17:21.826Z</time></trkpt><trkpt lat="42.1345983" lon="14.71105"><ele>90.0</ele><time>2026-04-04T10:17:22.826Z</time></trkpt><trkpt lat="42.1346633" lon="14.7110533"><ele>90.0</ele><time>2026-04-04T10:17:23.826Z</time></trkpt><trkpt lat="42.13473" lon="14.711055"><ele>90.0</ele><time>2026-04-04T10:17:24.826Z</time></trkpt><trkpt lat="42.1347983" lon="14.71106"><ele>90.0</ele><time>2026-04-04T10:17:25.826Z</time></trkpt><trkpt lat="42.13487" lon="14.7110617"><ele>90.0</ele><time>2026-04-04T10:17:26.826Z</time></trkpt><trkpt lat="42.1349383" lon="14.7110617"><ele>90.0</ele><time>2026-04-04T10:17:27.826Z</time></trkpt><trkpt lat="42.135005" lon="14.7110517"><ele>90.0</ele><time>2026-04-04T10:17:28.826Z</time></trkpt><trkpt lat="42.1350733" lon="14.7110483"><ele>90.0</ele><time>2026-04-04T10:17:29.826Z</time></trkpt><trkpt lat="42.1351933" lon="14.71104"><ele>89.57142857142857</ele><time>2026-04-04T10:17:31.826Z</time></trkpt><trkpt lat="42.1352667" lon="14.7110467"><ele>89.14285714285715</ele><time>2026-04-04T10:17:32.826Z</time></trkpt><trkpt lat="42.135335" lon="14.711045"><ele>88.71428571428572</ele><time>2026-04-04T10:17:33.826Z</time></trkpt><trkpt lat="42.1354067" lon="14.7110433"><ele>88.28571428571428</ele><time>2026-04-04T10:17:34.826Z</time></trkpt><trkpt lat="42.13549" lon="14.7110533"><ele>87.85714285714286</ele><time>2026-04-04T10:17:35.826Z</time></trkpt><trkpt lat="42.13557" lon="14.7110567"><ele>87.42857142857143</ele><time>2026-04-04T10:17:36.827Z</time></trkpt><trkpt lat="42.1356367" lon="14.7110583"><ele>87.0</ele><time>2026-04-04T10:17:37.826Z</time></trkpt><trkpt lat="42.1357" lon="14.7110683"><ele>86.66666666666667</ele><time>2026-04-04T10:17:38.827Z</time></trkpt><trkpt lat="42.1357667" lon="14.7110783"><ele>86.33333333333333</ele><time>2026-04-04T10:17:39.826Z</time></trkpt><trkpt lat="42.135845" lon="14.7110667"><ele>86.0</ele><time>2026-04-04T10:17:40.826Z</time></trkpt><trkpt lat="42.1359267" lon="14.7110667"><ele>85.66666666666666</ele><time>2026-04-04T10:17:41.827Z</time></trkpt><trkpt lat="42.136005" lon="14.7110667"><ele>85.33333333333333</ele><time>2026-04-04T10:17:42.826Z</time></trkpt><trkpt lat="42.13608" lon="14.7110617"><ele>85.0</ele><time>2026-04-04T10:17:43.826Z</time></trkpt><trkpt lat="42.1361533" lon="14.7110583"><ele>85.0</ele><time>2026-04-04T10:17:44.826Z</time></trkpt><trkpt lat="42.1362267" lon="14.71106"><ele>85.0</ele><time>2026-04-04T10:17:45.826Z</time></trkpt><trkpt lat="42.1362933" lon="14.71105"><ele>85.0</ele><time>2026-04-04T10:17:46.827Z</time></trkpt><trkpt lat="42.1363667" lon="14.7110483"><ele>85.0</ele><time>2026-04-04T10:17:47.827Z</time></trkpt><trkpt lat="42.136435" lon="14.711045"><ele>85.0</ele><time>2026-04-04T10:17:48.827Z</time></trkpt><trkpt lat="42.13651" lon="14.71105"><ele>85.0</ele><time>2026-04-04T10:17:49.826Z</time></trkpt><trkpt lat="42.1365867" lon="14.7110567"><ele>85.0</ele><time>2026-04-04T10:17:50.826Z</time></trkpt><trkpt lat="42.1366617" lon="14.711065"><ele>84.5</ele><time>2026-04-04T10:17:51.826Z</time></trkpt><trkpt lat="42.1367317" lon="14.7110683"><ele>84.0</ele><time>2026-04-04T10:17:52.826Z</time></trkpt><trkpt lat="42.13681" lon="14.711065"><ele>83.5</ele><time>2026-04-04T10:17:53.826Z</time></trkpt><trkpt lat="42.1368867" lon="14.7110683"><ele>83.0</ele><time>2026-04-04T10:17:54.826Z</time></trkpt><trkpt lat="42.1369683" lon="14.7110617"><ele>82.5</ele><time>2026-04-04T10:17:55.826Z</time></trkpt><trkpt lat="42.1370433" lon="14.711055"><ele>82.0</ele><time>2026-04-04T10:17:56.826Z</time></trkpt><trkpt lat="42.137115" lon="14.711055"><ele>81.99999999999999</ele><time>2026-04-04T10:17:57.826Z</time></trkpt><trkpt lat="42.1371883" lon="14.71106"><ele>82.0</ele><time>2026-04-04T10:17:58.826Z</time></trkpt><trkpt lat="42.1372633" lon="14.71106"><ele>82.0</ele><time>2026-04-04T10:17:59.827Z</time></trkpt><trkpt lat="42.13733" lon="14.7110567"><ele>82.0</ele><time>2026-04-04T10:18:00.826Z</time></trkpt><trkpt lat="42.1373983" lon="14.7110483"><ele>82.0</ele><time>2026-04-04T10:18:01.826Z</time></trkpt><trkpt lat="42.13747" lon="14.711035"><ele>81.99999999999999</ele><time>2026-04-04T10:18:02.826Z</time></trkpt><trkpt lat="42.137535" lon="14.711025"><ele>82.0</ele><time>2026-04-04T10:18:03.826Z</time></trkpt><trkpt lat="42.1376083" lon="14.7110167"><ele>81.66666666666666</ele><time>2026-04-04T10:18:04.826Z</time></trkpt><trkpt lat="42.1376833" lon="14.711015"><ele>81.33333333333333</ele><time>2026-04-04T10:18:05.826Z</time></trkpt><trkpt lat="42.1377583" lon="14.7110117"><ele>81.0</ele><time>2026-04-04T10:18:06.826Z</time></trkpt><trkpt lat="42.13783" lon="14.71101"><ele>80.66666666666667</ele><time>2026-04-04T10:18:07.826Z</time></trkpt><trkpt lat="42.1378967" lon="14.7110083"><ele>80.33333333333334</ele><time>2026-04-04T10:18:08.827Z</time></trkpt><trkpt lat="42.13796" lon="14.711"><ele>80.0</ele><time>2026-04-04T10:18:09.826Z</time></trkpt><trkpt lat="42.1380667" lon="14.710965"><ele>80.0</ele><time>2026-04-04T10:18:11.826Z</time></trkpt><trkpt lat="42.1381433" lon="14.71086"><ele>80.0</ele><time>2026-04-04T10:18:13.826Z</time></trkpt><trkpt lat="42.13815" lon="14.710735"><ele>80.0</ele><time>2026-04-04T10:18:15.826Z</time></trkpt><trkpt lat="42.13811" lon="14.7106267"><ele>80.0</ele><time>2026-04-04T10:18:17.827Z</time></trkpt><trkpt lat="42.1380667" lon="14.71052"><ele>80.0</ele><time>2026-04-04T10:18:19.826Z</time></trkpt><trkpt lat="42.13802" lon="14.7104117"><ele>80.0</ele><time>2026-04-04T10:18:21.827Z</time></trkpt><trkpt lat="42.1379733" lon="14.7103"><ele>80.0</ele><time>2026-04-04T10:18:23.826Z</time></trkpt><trkpt lat="42.13794" lon="14.710185"><ele>80.0</ele><time>2026-04-04T10:18:25.826Z</time></trkpt><trkpt lat="42.13791" lon="14.7100667"><ele>80.0</ele><time>2026-04-04T10:18:27.826Z</time></trkpt><trkpt lat="42.1378833" lon="14.709955"><ele>80.0</ele><time>2026-04-04T10:18:29.826Z</time></trkpt><trkpt lat="42.1378617" lon="14.709835"><ele>80.66666666666667</ele><time>2026-04-04T10:18:31.826Z</time></trkpt><trkpt lat="42.1378333" lon="14.7097217"><ele>81.33333333333334</ele><time>2026-04-04T10:18:33.826Z</time></trkpt><trkpt lat="42.1378" lon="14.7096233"><ele>82.0</ele><time>2026-04-04T10:18:35.826Z</time></trkpt><trkpt lat="42.13777" lon="14.709525"><ele>82.66666666666667</ele><time>2026-04-04T10:18:37.826Z</time></trkpt><trkpt lat="42.13774" lon="14.7094317"><ele>83.33333333333333</ele><time>2026-04-04T10:18:39.826Z</time></trkpt><trkpt lat="42.1377233" lon="14.709335"><ele>84.0</ele><time>2026-04-04T10:18:41.826Z</time></trkpt><trkpt lat="42.1377533" lon="14.70924"><ele>84.0</ele><time>2026-04-04T10:18:43.826Z</time></trkpt><trkpt lat="42.1378217" lon="14.709185"><ele>84.0</ele><time>2026-04-04T10:18:45.826Z</time></trkpt><trkpt lat="42.1379033" lon="14.7091433"><ele>84.0</ele><time>2026-04-04T10:18:47.826Z</time></trkpt><trkpt lat="42.137985" lon="14.7091017"><ele>84.0</ele><time>2026-04-04T10:18:49.826Z</time></trkpt><trkpt lat="42.1380683" lon="14.70906"><ele>84.0</ele><time>2026-04-04T10:18:51.826Z</time></trkpt><trkpt lat="42.1381617" lon="14.7090133"><ele>84.0</ele><time>2026-04-04T10:18:53.826Z</time></trkpt><trkpt lat="42.13826" lon="14.7089767"><ele>84.0</ele><time>2026-04-04T10:18:55.826Z</time></trkpt><trkpt lat="42.1383533" lon="14.708935"><ele>84.0</ele><time>2026-04-04T10:18:57.826Z</time></trkpt><trkpt lat="42.13844" lon="14.7088917"><ele>84.0</ele><time>2026-04-04T10:18:59.826Z</time></trkpt><trkpt lat="42.1385367" lon="14.70885"><ele>84.0</ele><time>2026-04-04T10:19:01.826Z</time></trkpt><trkpt lat="42.1386267" lon="14.7088067"><ele>84.0</ele><time>2026-04-04T10:19:03.826Z</time></trkpt><trkpt lat="42.13872" lon="14.7087617"><ele>84.0</ele><time>2026-04-04T10:19:05.826Z</time></trkpt><trkpt lat="42.138815" lon="14.7087167"><ele>84.0</ele><time>2026-04-04T10:19:07.826Z</time></trkpt><trkpt lat="42.13892" lon="14.70867"><ele>84.0</ele><time>2026-04-04T10:19:09.826Z</time></trkpt><trkpt lat="42.1390267" lon="14.708615"><ele>84.0</ele><time>2026-04-04T10:19:11.826Z</time></trkpt><trkpt lat="42.1391383" lon="14.7085633"><ele>84.0</ele><time>2026-04-04T10:19:13.826Z</time></trkpt><trkpt lat="42.13924" lon="14.708525"><ele>84.6</ele><time>2026-04-04T10:19:15.826Z</time></trkpt><trkpt lat="42.1393367" lon="14.7084767"><ele>85.2</ele><time>2026-04-04T10:19:17.826Z</time></trkpt><trkpt lat="42.1394333" lon="14.7084283"><ele>85.8</ele><time>2026-04-04T10:19:19.827Z</time></trkpt><trkpt lat="42.13953" lon="14.708385"><ele>86.39999999999999</ele><time>2026-04-04T10:19:21.826Z</time></trkpt><trkpt lat="42.1396183" lon="14.7083417"><ele>87.0</ele><time>2026-04-04T10:19:23.826Z</time></trkpt><trkpt lat="42.13971" lon="14.7082983"><ele>87.0</ele><time>2026-04-04T10:19:25.826Z</time></trkpt><trkpt lat="42.1398183" lon="14.7082517"><ele>87.0</ele><time>2026-04-04T10:19:27.826Z</time></trkpt><trkpt lat="42.1399233" lon="14.708205"><ele>87.0</ele><time>2026-04-04T10:19:29.826Z</time></trkpt><trkpt lat="42.140035" lon="14.7081517"><ele>87.0</ele><time>2026-04-04T10:19:31.826Z</time></trkpt><trkpt lat="42.14014" lon="14.7081067"><ele>86.66666666666667</ele><time>2026-04-04T10:19:33.826Z</time></trkpt><trkpt lat="42.1402317" lon="14.7080433"><ele>86.33333333333333</ele><time>2026-04-04T10:19:35.826Z</time></trkpt><trkpt lat="42.1403167" lon="14.7079867"><ele>86.0</ele><time>2026-04-04T10:19:37.826Z</time></trkpt><trkpt lat="42.1403833" lon="14.7079217"><ele>85.66666666666666</ele><time>2026-04-04T10:19:39.827Z</time></trkpt><trkpt lat="42.1404067" lon="14.7078183"><ele>85.33333333333333</ele><time>2026-04-04T10:19:41.826Z</time></trkpt><trkpt lat="42.14039" lon="14.7077033"><ele>85.0</ele><time>2026-04-04T10:19:43.826Z</time></trkpt><trkpt lat="42.14036" lon="14.7076267"><ele>85.0</ele><time>2026-04-04T10:19:45.826Z</time></trkpt><trkpt lat="42.1403367" lon="14.7075133"><ele>85.0</ele><time>2026-04-04T10:19:47.826Z</time></trkpt><trkpt lat="42.1403067" lon="14.7074017"><ele>85.0</ele><time>2026-04-04T10:19:49.826Z</time></trkpt><trkpt lat="42.1402817" lon="14.7072967"><ele>85.0</ele><time>2026-04-04T10:19:51.826Z</time></trkpt><trkpt lat="42.1402517" lon="14.7072067"><ele>85.0</ele><time>2026-04-04T10:19:53.826Z</time></trkpt><trkpt lat="42.14022" lon="14.7071067"><ele>85.0</ele><time>2026-04-04T10:19:55.827Z</time></trkpt><trkpt lat="42.140185" lon="14.7070033"><ele>85.66666666666666</ele><time>2026-04-04T10:19:57.826Z</time></trkpt><trkpt lat="42.1401517" lon="14.706895"><ele>86.33333333333333</ele><time>2026-04-04T10:19:59.826Z</time></trkpt><trkpt lat="42.1401283" lon="14.7067983"><ele>87.0</ele><time>2026-04-04T10:20:01.826Z</time></trkpt><trkpt lat="42.1401083" lon="14.7066933"><ele>87.66666666666667</ele><time>2026-04-04T10:20:03.826Z</time></trkpt><trkpt lat="42.1400533" lon="14.706595"><ele>88.33333333333334</ele><time>2026-04-04T10:20:05.826Z</time></trkpt><trkpt lat="42.1399917" lon="14.7065167"><ele>89.0</ele><time>2026-04-04T10:20:07.826Z</time></trkpt><trkpt lat="42.1399533" lon="14.7064017"><ele>89.0</ele><time>2026-04-04T10:20:09.826Z</time></trkpt><trkpt lat="42.1399183" lon="14.7062883"><ele>89.0</ele><time>2026-04-04T10:20:11.826Z</time></trkpt><trkpt lat="42.1398917" lon="14.7061717"><ele>89.0</ele><time>2026-04-04T10:20:13.826Z</time></trkpt><trkpt lat="42.13985" lon="14.7060733"><ele>89.0</ele><time>2026-04-04T10:20:15.826Z</time></trkpt><trkpt lat="42.13981" lon="14.7059783"><ele>89.0</ele><time>2026-04-04T10:20:17.826Z</time></trkpt><trkpt lat="42.139775" lon="14.70589"><ele>89.0</ele><time>2026-04-04T10:20:19.827Z</time></trkpt><trkpt lat="42.13974" lon="14.7057983"><ele>88.66666666666667</ele><time>2026-04-04T10:20:21.826Z</time></trkpt><trkpt lat="42.1397033" lon="14.7057033"><ele>88.33333333333334</ele><time>2026-04-04T10:20:23.826Z</time></trkpt><trkpt lat="42.1396833" lon="14.7056133"><ele>88.0</ele><time>2026-04-04T10:20:25.827Z</time></trkpt><trkpt lat="42.1396533" lon="14.705515"><ele>87.66666666666667</ele><time>2026-04-04T10:20:27.826Z</time></trkpt><trkpt lat="42.1396217" lon="14.7054233"><ele>87.33333333333333</ele><time>2026-04-04T10:20:29.826Z</time></trkpt><trkpt lat="42.1396233" lon="14.7053217"><ele>87.0</ele><time>2026-04-04T10:20:31.827Z</time></trkpt><trkpt lat="42.1396733" lon="14.7052333"><ele>87.0</ele><time>2026-04-04T10:20:33.826Z</time></trkpt><trkpt lat="42.13976" lon="14.7051733"><ele>87.0</ele><time>2026-04-04T10:20:35.826Z</time></trkpt><trkpt lat="42.1398467" lon="14.7051267"><ele>87.0</ele><time>2026-04-04T10:20:37.826Z</time></trkpt><trkpt lat="42.139945" lon="14.7050817"><ele>87.0</ele><time>2026-04-04T10:20:39.827Z</time></trkpt><trkpt lat="42.140055" lon="14.7050317"><ele>87.0</ele><time>2026-04-04T10:20:41.826Z</time></trkpt><trkpt lat="42.14016" lon="14.7049933"><ele>87.39999999999999</ele><time>2026-04-04T10:20:43.826Z</time></trkpt><trkpt lat="42.140275" lon="14.704965"><ele>87.8</ele><time>2026-04-04T10:20:45.826Z</time></trkpt><trkpt lat="42.1403383" lon="14.70496"><ele>88.2</ele><time>2026-04-04T10:20:46.826Z</time></trkpt><trkpt lat="42.1404533" lon="14.7049517"><ele>88.6</ele><time>2026-04-04T10:20:48.827Z</time></trkpt><trkpt lat="42.1405617" lon="14.7049483"><ele>89.0</ele><time>2026-04-04T10:20:50.826Z</time></trkpt><trkpt lat="42.14069" lon="14.7049467"><ele>88.99999999999999</ele><time>2026-04-04T10:20:52.826Z</time></trkpt><trkpt lat="42.14076" lon="14.7049417"><ele>89.0</ele><time>2026-04-04T10:20:53.826Z</time></trkpt><trkpt lat="42.140825" lon="14.70494"><ele>89.0</ele><time>2026-04-04T10:20:54.826Z</time></trkpt><trkpt lat="42.140895" lon="14.7049317"><ele>89.0</ele><time>2026-04-04T10:20:55.826Z</time></trkpt><trkpt lat="42.1409667" lon="14.70493"><ele>89.0</ele><time>2026-04-04T10:20:56.827Z</time></trkpt><trkpt lat="42.1410367" lon="14.7049233"><ele>88.99999999999999</ele><time>2026-04-04T10:20:57.827Z</time></trkpt><trkpt lat="42.1411033" lon="14.70491"><ele>89.0</ele><time>2026-04-04T10:20:58.826Z</time></trkpt><trkpt lat="42.14117" lon="14.7049067"><ele>88.99999999999999</ele><time>2026-04-04T10:20:59.826Z</time></trkpt><trkpt lat="42.14124" lon="14.7049033"><ele>89.0</ele><time>2026-04-04T10:21:00.826Z</time></trkpt><trkpt lat="42.1413033" lon="14.704915"><ele>89.0</ele><time>2026-04-04T10:21:01.826Z</time></trkpt><trkpt lat="42.1413683" lon="14.70492"><ele>89.0</ele><time>2026-04-04T10:21:02.827Z</time></trkpt><trkpt lat="42.141445" lon="14.70492"><ele>89.0</ele><time>2026-04-04T10:21:03.826Z</time></trkpt><trkpt lat="42.1415233" lon="14.7049267"><ele>88.99999999999999</ele><time>2026-04-04T10:21:04.826Z</time></trkpt><trkpt lat="42.1416" lon="14.7049333"><ele>89.0</ele><time>2026-04-04T10:21:05.826Z</time></trkpt><trkpt lat="42.1416733" lon="14.7049467"><ele>88.5</ele><time>2026-04-04T10:21:06.826Z</time></trkpt><trkpt lat="42.1417483" lon="14.7049683"><ele>88.0</ele><time>2026-04-04T10:21:07.827Z</time></trkpt><trkpt lat="42.1418233" lon="14.7049983"><ele>87.5</ele><time>2026-04-04T10:21:08.826Z</time></trkpt><trkpt lat="42.1419033" lon="14.7050233"><ele>87.0</ele><time>2026-04-04T10:21:09.826Z</time></trkpt><trkpt lat="42.1419867" lon="14.705045"><ele>86.5</ele><time>2026-04-04T10:21:10.826Z</time></trkpt><trkpt lat="42.142075" lon="14.7050717"><ele>86.0</ele><time>2026-04-04T10:21:11.826Z</time></trkpt><trkpt lat="42.1421633" lon="14.70509"><ele>86.0</ele><time>2026-04-04T10:21:12.826Z</time></trkpt><trkpt lat="42.1422483" lon="14.7051167"><ele>86.0</ele><time>2026-04-04T10:21:13.826Z</time></trkpt><trkpt lat="42.1423383" lon="14.705135"><ele>86.0</ele><time>2026-04-04T10:21:14.826Z</time></trkpt><trkpt lat="42.14243" lon="14.7051433"><ele>86.0</ele><time>2026-04-04T10:21:15.827Z</time></trkpt><trkpt lat="42.1425183" lon="14.7051533"><ele>86.0</ele><time>2026-04-04T10:21:16.826Z</time></trkpt><trkpt lat="42.142605" lon="14.7051667"><ele>86.0</ele><time>2026-04-04T10:21:17.827Z</time></trkpt><trkpt lat="42.1426833" lon="14.7051767"><ele>85.16666666666667</ele><time>2026-04-04T10:21:18.826Z</time></trkpt><trkpt lat="42.142765" lon="14.7051833"><ele>84.33333333333334</ele><time>2026-04-04T10:21:19.826Z</time></trkpt><trkpt lat="42.1428383" lon="14.70519"><ele>83.5</ele><time>2026-04-04T10:21:20.826Z</time></trkpt><trkpt lat="42.14292" lon="14.7052033"><ele>82.66666666666667</ele><time>2026-04-04T10:21:21.826Z</time></trkpt><trkpt lat="42.1430017" lon="14.7052233"><ele>81.83333333333333</ele><time>2026-04-04T10:21:22.826Z</time></trkpt><trkpt lat="42.14309" lon="14.705245"><ele>81.0</ele><time>2026-04-04T10:21:23.826Z</time></trkpt><trkpt lat="42.143175" lon="14.70527"><ele>79.8</ele><time>2026-04-04T10:21:24.826Z</time></trkpt><trkpt lat="42.143265" lon="14.7053083"><ele>78.6</ele><time>2026-04-04T10:21:25.827Z</time></trkpt><trkpt lat="42.1433467" lon="14.70535"><ele>77.4</ele><time>2026-04-04T10:21:26.826Z</time></trkpt><trkpt lat="42.1434233" lon="14.7053867"><ele>76.2</ele><time>2026-04-04T10:21:27.826Z</time></trkpt><trkpt lat="42.1435117" lon="14.7054317"><ele>75.0</ele><time>2026-04-04T10:21:28.826Z</time></trkpt><trkpt lat="42.143605" lon="14.7054883"><ele>75.0</ele><time>2026-04-04T10:21:29.826Z</time></trkpt><trkpt lat="42.1437" lon="14.705545"><ele>75.0</ele><time>2026-04-04T10:21:30.826Z</time></trkpt><trkpt lat="42.1437933" lon="14.7056017"><ele>75.0</ele><time>2026-04-04T10:21:31.826Z</time></trkpt><trkpt lat="42.1438833" lon="14.7056567"><ele>75.0</ele><time>2026-04-04T10:21:32.826Z</time></trkpt><trkpt lat="42.14397" lon="14.7057133"><ele>75.0</ele><time>2026-04-04T10:21:33.826Z</time></trkpt><trkpt lat="42.14406" lon="14.7057767"><ele>74.0</ele><time>2026-04-04T10:21:34.826Z</time></trkpt><trkpt lat="42.1441483" lon="14.7058417"><ele>73.0</ele><time>2026-04-04T10:21:35.826Z</time></trkpt><trkpt lat="42.1442383" lon="14.7059033"><ele>72.0</ele><time>2026-04-04T10:21:36.826Z</time></trkpt><trkpt lat="42.1443317" lon="14.7059583"><ele>71.0</ele><time>2026-04-04T10:21:37.826Z</time></trkpt><trkpt lat="42.14442" lon="14.7060133"><ele>70.0</ele><time>2026-04-04T10:21:38.827Z</time></trkpt><trkpt lat="42.144505" lon="14.7060733"><ele>69.8</ele><time>2026-04-04T10:21:39.827Z</time></trkpt><trkpt lat="42.14459" lon="14.7061333"><ele>69.6</ele><time>2026-04-04T10:21:40.826Z</time></trkpt><trkpt lat="42.144675" lon="14.7061917"><ele>69.4</ele><time>2026-04-04T10:21:41.827Z</time></trkpt><trkpt lat="42.1447533" lon="14.7062517"><ele>69.2</ele><time>2026-04-04T10:21:42.826Z</time></trkpt><trkpt lat="42.1448367" lon="14.706305"><ele>69.0</ele><time>2026-04-04T10:21:43.827Z</time></trkpt><trkpt lat="42.14492" lon="14.706355"><ele>68.66666666666667</ele><time>2026-04-04T10:21:44.826Z</time></trkpt><trkpt lat="42.1449967" lon="14.7064067"><ele>68.33333333333333</ele><time>2026-04-04T10:21:45.826Z</time></trkpt><trkpt lat="42.1450733" lon="14.706455"><ele>68.0</ele><time>2026-04-04T10:21:46.827Z</time></trkpt><trkpt lat="42.14515" lon="14.706505"><ele>67.66666666666666</ele><time>2026-04-04T10:21:47.826Z</time></trkpt><trkpt lat="42.1452233" lon="14.706555"><ele>67.33333333333333</ele><time>2026-04-04T10:21:48.827Z</time></trkpt><trkpt lat="42.1452967" lon="14.7065967"><ele>67.0</ele><time>2026-04-04T10:21:49.826Z</time></trkpt><trkpt lat="42.14537" lon="14.7066467"><ele>67.0</ele><time>2026-04-04T10:21:50.827Z</time></trkpt><trkpt lat="42.1454417" lon="14.7067017"><ele>67.0</ele><time>2026-04-04T10:21:51.826Z</time></trkpt><trkpt lat="42.1455133" lon="14.7067533"><ele>67.0</ele><time>2026-04-04T10:21:52.826Z</time></trkpt><trkpt lat="42.1455933" lon="14.7068083"><ele>67.0</ele><time>2026-04-04T10:21:53.826Z</time></trkpt><trkpt lat="42.145665" lon="14.70686"><ele>67.0</ele><time>2026-04-04T10:21:54.826Z</time></trkpt><trkpt lat="42.1457367" lon="14.7069017"><ele>67.0</ele><time>2026-04-04T10:21:55.827Z</time></trkpt><trkpt lat="42.1458117" lon="14.7069467"><ele>66.5</ele><time>2026-04-04T10:21:56.826Z</time></trkpt><trkpt lat="42.1458833" lon="14.7069933"><ele>66.0</ele><time>2026-04-04T10:21:57.826Z</time></trkpt><trkpt lat="42.14596" lon="14.707035"><ele>65.5</ele><time>2026-04-04T10:21:58.827Z</time></trkpt><trkpt lat="42.1460333" lon="14.7070817"><ele>65.0</ele><time>2026-04-04T10:21:59.826Z</time></trkpt><trkpt lat="42.1461117" lon="14.7071317"><ele>64.5</ele><time>2026-04-04T10:22:00.827Z</time></trkpt><trkpt lat="42.1461817" lon="14.7071867"><ele>64.0</ele><time>2026-04-04T10:22:01.828Z</time></trkpt><trkpt lat="42.1462517" lon="14.7072467"><ele>63.99999999999999</ele><time>2026-04-04T10:22:02.828Z</time></trkpt><trkpt lat="42.1463217" lon="14.707305"><ele>64.0</ele><time>2026-04-04T10:22:03.828Z</time></trkpt><trkpt lat="42.146395" lon="14.7073583"><ele>64.0</ele><time>2026-04-04T10:22:04.827Z</time></trkpt><trkpt lat="42.1464683" lon="14.7074067"><ele>64.0</ele><time>2026-04-04T10:22:05.827Z</time></trkpt><trkpt lat="42.1465417" lon="14.7074617"><ele>63.99999999999999</ele><time>2026-04-04T10:22:06.827Z</time></trkpt><trkpt lat="42.1466133" lon="14.7075217"><ele>64.0</ele><time>2026-04-04T10:22:07.827Z</time></trkpt><trkpt lat="42.1466783" lon="14.70759"><ele>63.166666666666664</ele><time>2026-04-04T10:22:08.827Z</time></trkpt><trkpt lat="42.1467333" lon="14.7076683"><ele>62.33333333333333</ele><time>2026-04-04T10:22:09.827Z</time></trkpt><trkpt lat="42.14677" lon="14.707755"><ele>61.5</ele><time>2026-04-04T10:22:10.827Z</time></trkpt><trkpt lat="42.1468017" lon="14.7078467"><ele>60.66666666666667</ele><time>2026-04-04T10:22:11.827Z</time></trkpt><trkpt lat="42.1468333" lon="14.7079367"><ele>59.833333333333336</ele><time>2026-04-04T10:22:12.827Z</time></trkpt><trkpt lat="42.146875" lon="14.7080317"><ele>59.0</ele><time>2026-04-04T10:22:13.827Z</time></trkpt><trkpt lat="42.1469317" lon="14.708115"><ele>58.833333333333336</ele><time>2026-04-04T10:22:14.827Z</time></trkpt><trkpt lat="42.1470017" lon="14.7081767"><ele>58.66666666666667</ele><time>2026-04-04T10:22:15.827Z</time></trkpt><trkpt lat="42.1470767" lon="14.70822"><ele>58.5</ele><time>2026-04-04T10:22:16.828Z</time></trkpt><trkpt lat="42.1471617" lon="14.7082533"><ele>58.33333333333333</ele><time>2026-04-04T10:22:17.827Z</time></trkpt><trkpt lat="42.1472467" lon="14.70826"><ele>58.166666666666664</ele><time>2026-04-04T10:22:18.827Z</time></trkpt><trkpt lat="42.147335" lon="14.7082483"><ele>58.0</ele><time>2026-04-04T10:22:19.827Z</time></trkpt><trkpt lat="42.1474233" lon="14.7082267"><ele>56.599999999999994</ele><time>2026-04-04T10:22:20.827Z</time></trkpt><trkpt lat="42.1475133" lon="14.7081983"><ele>55.199999999999996</ele><time>2026-04-04T10:22:21.827Z</time></trkpt><trkpt lat="42.1476033" lon="14.7081617"><ele>53.8</ele><time>2026-04-04T10:22:22.827Z</time></trkpt><trkpt lat="42.147695" lon="14.708125"><ele>52.4</ele><time>2026-04-04T10:22:23.827Z</time></trkpt><trkpt lat="42.1477883" lon="14.7080833"><ele>51.0</ele><time>2026-04-04T10:22:24.828Z</time></trkpt><trkpt lat="42.14788" lon="14.7080317"><ele>51.0</ele><time>2026-04-04T10:22:25.827Z</time></trkpt><trkpt lat="42.1479717" lon="14.707985"><ele>51.0</ele><time>2026-04-04T10:22:26.828Z</time></trkpt><trkpt lat="42.1480617" lon="14.7079433"><ele>51.0</ele><time>2026-04-04T10:22:27.827Z</time></trkpt><trkpt lat="42.1481433" lon="14.707905"><ele>51.0</ele><time>2026-04-04T10:22:28.827Z</time></trkpt><trkpt lat="42.14822" lon="14.7078667"><ele>51.0</ele><time>2026-04-04T10:22:29.827Z</time></trkpt><trkpt lat="42.1482933" lon="14.707835"><ele>51.0</ele><time>2026-04-04T10:22:30.827Z</time></trkpt><trkpt lat="42.1483667" lon="14.707805"><ele>51.199999999999996</ele><time>2026-04-04T10:22:31.827Z</time></trkpt><trkpt lat="42.148435" lon="14.7077783"><ele>51.4</ele><time>2026-04-04T10:22:32.827Z</time></trkpt><trkpt lat="42.14855" lon="14.7077167"><ele>51.6</ele><time>2026-04-04T10:22:34.827Z</time></trkpt><trkpt lat="42.14866" lon="14.70765"><ele>51.8</ele><time>2026-04-04T10:22:36.828Z</time></trkpt><trkpt lat="42.1487183" lon="14.7076133"><ele>52.0</ele><time>2026-04-04T10:22:37.827Z</time></trkpt><trkpt lat="42.1488233" lon="14.7075483"><ele>51.99999999999999</ele><time>2026-04-04T10:22:39.827Z</time></trkpt><trkpt lat="42.1489283" lon="14.7074683"><ele>52.0</ele><time>2026-04-04T10:22:41.828Z</time></trkpt><trkpt lat="42.1489817" lon="14.7074233"><ele>52.0</ele><time>2026-04-04T10:22:42.827Z</time></trkpt><trkpt lat="42.14904" lon="14.7073783"><ele>52.0</ele><time>2026-04-04T10:22:43.828Z</time></trkpt><trkpt lat="42.149145" lon="14.70729"><ele>51.99999999999999</ele><time>2026-04-04T10:22:45.827Z</time></trkpt><trkpt lat="42.1492" lon="14.7072433"><ele>52.0</ele><time>2026-04-04T10:22:46.827Z</time></trkpt><trkpt lat="42.1492517" lon="14.70719"><ele>52.2</ele><time>2026-04-04T10:22:47.827Z</time></trkpt><trkpt lat="42.1493017" lon="14.7071383"><ele>52.400000000000006</ele><time>2026-04-04T10:22:48.827Z</time></trkpt><trkpt lat="42.1494017" lon="14.7070433"><ele>52.599999999999994</ele><time>2026-04-04T10:22:50.827Z</time></trkpt><trkpt lat="42.149495" lon="14.70695"><ele>52.8</ele><time>2026-04-04T10:22:52.827Z</time></trkpt><trkpt lat="42.1495883" lon="14.7068583"><ele>53.0</ele><time>2026-04-04T10:22:54.827Z</time></trkpt><trkpt lat="42.1496833" lon="14.7067583"><ele>53.4</ele><time>2026-04-04T10:22:56.827Z</time></trkpt><trkpt lat="42.14977" lon="14.7066633"><ele>53.8</ele><time>2026-04-04T10:22:58.828Z</time></trkpt><trkpt lat="42.1498567" lon="14.706575"><ele>54.2</ele><time>2026-04-04T10:23:00.828Z</time></trkpt><trkpt lat="42.1499483" lon="14.7064717"><ele>54.6</ele><time>2026-04-04T10:23:02.828Z</time></trkpt><trkpt lat="42.15004" lon="14.7063933"><ele>55.0</ele><time>2026-04-04T10:23:04.827Z</time></trkpt><trkpt lat="42.1501367" lon="14.7063183"><ele>55.0</ele><time>2026-04-04T10:23:06.827Z</time></trkpt><trkpt lat="42.150235" lon="14.7062483"><ele>55.0</ele><time>2026-04-04T10:23:08.827Z</time></trkpt><trkpt lat="42.1503283" lon="14.7061817"><ele>55.0</ele><time>2026-04-04T10:23:10.827Z</time></trkpt><trkpt lat="42.1504383" lon="14.7061167"><ele>55.0</ele><time>2026-04-04T10:23:12.828Z</time></trkpt><trkpt lat="42.1505517" lon="14.706065"><ele>55.2</ele><time>2026-04-04T10:23:14.827Z</time></trkpt><trkpt lat="42.15061" lon="14.7060317"><ele>55.4</ele><time>2026-04-04T10:23:15.828Z</time></trkpt><trkpt lat="42.15072" lon="14.7059767"><ele>55.599999999999994</ele><time>2026-04-04T10:23:17.828Z</time></trkpt><trkpt lat="42.1508317" lon="14.705925"><ele>55.8</ele><time>2026-04-04T10:23:19.827Z</time></trkpt><trkpt lat="42.1509367" lon="14.7058783"><ele>56.0</ele><time>2026-04-04T10:23:21.827Z</time></trkpt><trkpt lat="42.1510517" lon="14.7058317"><ele>56.0</ele><time>2026-04-04T10:23:23.827Z</time></trkpt><trkpt lat="42.1511633" lon="14.7057833"><ele>55.99999999999999</ele><time>2026-04-04T10:23:25.827Z</time></trkpt><trkpt lat="42.1512283" lon="14.7057533"><ele>55.99999999999999</ele><time>2026-04-04T10:23:26.827Z</time></trkpt><trkpt lat="42.1512933" lon="14.7057233"><ele>56.0</ele><time>2026-04-04T10:23:27.827Z</time></trkpt><trkpt lat="42.15141" lon="14.7056767"><ele>56.0</ele><time>2026-04-04T10:23:29.828Z</time></trkpt><trkpt lat="42.1515283" lon="14.7056333"><ele>55.50000000000001</ele><time>2026-04-04T10:23:31.827Z</time></trkpt><trkpt lat="42.1516417" lon="14.7056067"><ele>55.0</ele><time>2026-04-04T10:23:33.828Z</time></trkpt><trkpt lat="42.151705" lon="14.70559"><ele>54.5</ele><time>2026-04-04T10:23:34.827Z</time></trkpt><trkpt lat="42.1517667" lon="14.7055717"><ele>54.0</ele><time>2026-04-04T10:23:35.827Z</time></trkpt><trkpt lat="42.1518283" lon="14.7055483"><ele>53.50000000000001</ele><time>2026-04-04T10:23:36.827Z</time></trkpt><trkpt lat="42.1518933" lon="14.705525"><ele>53.0</ele><time>2026-04-04T10:23:37.827Z</time></trkpt><trkpt lat="42.1520167" lon="14.7054967"><ele>53.0</ele><time>2026-04-04T10:23:39.827Z</time></trkpt><trkpt lat="42.1521367" lon="14.7054633"><ele>53.0</ele><time>2026-04-04T10:23:41.827Z</time></trkpt><trkpt lat="42.1522017" lon="14.7054467"><ele>53.0</ele><time>2026-04-04T10:23:42.827Z</time></trkpt><trkpt lat="42.1522683" lon="14.70543"><ele>53.0</ele><time>2026-04-04T10:23:43.827Z</time></trkpt><trkpt lat="42.1523983" lon="14.7053933"><ele>53.0</ele><time>2026-04-04T10:23:45.828Z</time></trkpt><trkpt lat="42.1525167" lon="14.70536"><ele>53.00000000000001</ele><time>2026-04-04T10:23:47.827Z</time></trkpt><trkpt lat="42.1525817" lon="14.7053383"><ele>53.0</ele><time>2026-04-04T10:23:48.828Z</time></trkpt><trkpt lat="42.1526483" lon="14.705315"><ele>53.0</ele><time>2026-04-04T10:23:49.827Z</time></trkpt><trkpt lat="42.15271" lon="14.7052917"><ele>53.0</ele><time>2026-04-04T10:23:50.827Z</time></trkpt><trkpt lat="42.1527733" lon="14.7052717"><ele>53.00000000000001</ele><time>2026-04-04T10:23:51.827Z</time></trkpt><trkpt lat="42.152895" lon="14.7052383"><ele>53.0</ele><time>2026-04-04T10:23:53.827Z</time></trkpt><trkpt lat="42.1530217" lon="14.70521"><ele>53.0</ele><time>2026-04-04T10:23:55.827Z</time></trkpt><trkpt lat="42.15309" lon="14.7051933"><ele>53.0</ele><time>2026-04-04T10:23:56.828Z</time></trkpt><trkpt lat="42.1531567" lon="14.7051783"><ele>53.0</ele><time>2026-04-04T10:23:57.827Z</time></trkpt><trkpt lat="42.153225" lon="14.7051633"><ele>53.0</ele><time>2026-04-04T10:23:58.827Z</time></trkpt><trkpt lat="42.153295" lon="14.705145"><ele>53.0</ele><time>2026-04-04T10:23:59.827Z</time></trkpt><trkpt lat="42.153365" lon="14.7051233"><ele>53.0</ele><time>2026-04-04T10:24:00.827Z</time></trkpt><trkpt lat="42.1534283" lon="14.70511"><ele>53.0</ele><time>2026-04-04T10:24:01.827Z</time></trkpt><trkpt lat="42.1535583" lon="14.70509"><ele>52.833333333333336</ele><time>2026-04-04T10:24:03.827Z</time></trkpt><trkpt lat="42.1536367" lon="14.705075"><ele>52.66666666666667</ele><time>2026-04-04T10:24:04.827Z</time></trkpt><trkpt lat="42.1537133" lon="14.7050617"><ele>52.5</ele><time>2026-04-04T10:24:05.828Z</time></trkpt><trkpt lat="42.15379" lon="14.7050483"><ele>52.33333333333333</ele><time>2026-04-04T10:24:06.827Z</time></trkpt><trkpt lat="42.15386" lon="14.70504"><ele>52.166666666666664</ele><time>2026-04-04T10:24:07.828Z</time></trkpt><trkpt lat="42.1539333" lon="14.7050283"><ele>52.0</ele><time>2026-04-04T10:24:08.827Z</time></trkpt><trkpt lat="42.154005" lon="14.705015"><ele>51.49999999999999</ele><time>2026-04-04T10:24:09.827Z</time></trkpt><trkpt lat="42.15413" lon="14.7049933"><ele>51.0</ele><time>2026-04-04T10:24:11.827Z</time></trkpt><trkpt lat="42.1542033" lon="14.7049817"><ele>50.5</ele><time>2026-04-04T10:24:12.827Z</time></trkpt><trkpt lat="42.1542767" lon="14.7049667"><ele>50.0</ele><time>2026-04-04T10:24:13.828Z</time></trkpt><trkpt lat="42.1543467" lon="14.7049567"><ele>49.49999999999999</ele><time>2026-04-04T10:24:14.827Z</time></trkpt><trkpt lat="42.1544133" lon="14.7049467"><ele>49.0</ele><time>2026-04-04T10:24:15.827Z</time></trkpt><trkpt lat="42.15448" lon="14.7049317"><ele>49.0</ele><time>2026-04-04T10:24:16.827Z</time></trkpt><trkpt lat="42.15455" lon="14.70492"><ele>49.0</ele><time>2026-04-04T10:24:17.827Z</time></trkpt><trkpt lat="42.15462" lon="14.70491"><ele>49.0</ele><time>2026-04-04T10:24:18.827Z</time></trkpt><trkpt lat="42.1546883" lon="14.7049"><ele>49.0</ele><time>2026-04-04T10:24:19.827Z</time></trkpt><trkpt lat="42.1547567" lon="14.7048867"><ele>49.0</ele><time>2026-04-04T10:24:20.827Z</time></trkpt><trkpt lat="42.154825" lon="14.704875"><ele>49.0</ele><time>2026-04-04T10:24:21.827Z</time></trkpt><trkpt lat="42.154895" lon="14.704865"><ele>49.0</ele><time>2026-04-04T10:24:22.827Z</time></trkpt><trkpt lat="42.1549683" lon="14.7048467"><ele>48.666666666666664</ele><time>2026-04-04T10:24:23.827Z</time></trkpt><trkpt lat="42.1550367" lon="14.7048283"><ele>48.33333333333333</ele><time>2026-04-04T10:24:24.827Z</time></trkpt><trkpt lat="42.1551017" lon="14.7048117"><ele>48.0</ele><time>2026-04-04T10:24:25.827Z</time></trkpt><trkpt lat="42.1551683" lon="14.7048"><ele>47.666666666666664</ele><time>2026-04-04T10:24:26.827Z</time></trkpt><trkpt lat="42.15524" lon="14.704785"><ele>47.33333333333333</ele><time>2026-04-04T10:24:27.828Z</time></trkpt><trkpt lat="42.1553083" lon="14.7047683"><ele>47.0</ele><time>2026-04-04T10:24:28.827Z</time></trkpt><trkpt lat="42.155435" lon="14.7047383"><ele>47.0</ele><time>2026-04-04T10:24:30.828Z</time></trkpt><trkpt lat="42.1555" lon="14.7047233"><ele>47.0</ele><time>2026-04-04T10:24:31.827Z</time></trkpt><trkpt lat="42.1556183" lon="14.7046917"><ele>47.0</ele><time>2026-04-04T10:24:33.827Z</time></trkpt><trkpt lat="42.1557483" lon="14.7046583"><ele>47.0</ele><time>2026-04-04T10:24:35.827Z</time></trkpt><trkpt lat="42.15582" lon="14.7046383"><ele>47.0</ele><time>2026-04-04T10:24:36.827Z</time></trkpt><trkpt lat="42.155885" lon="14.7046117"><ele>46.857142857142854</ele><time>2026-04-04T10:24:37.827Z</time></trkpt><trkpt lat="42.15595" lon="14.70459"><ele>46.71428571428571</ele><time>2026-04-04T10:24:38.827Z</time></trkpt><trkpt lat="42.156015" lon="14.7045717"><ele>46.57142857142857</ele><time>2026-04-04T10:24:39.827Z</time></trkpt><trkpt lat="42.1560833" lon="14.7045567"><ele>46.42857142857143</ele><time>2026-04-04T10:24:40.827Z</time></trkpt><trkpt lat="42.1561517" lon="14.7045333"><ele>46.285714285714285</ele><time>2026-04-04T10:24:41.827Z</time></trkpt><trkpt lat="42.1562217" lon="14.704515"><ele>46.142857142857146</ele><time>2026-04-04T10:24:42.827Z</time></trkpt><trkpt lat="42.1562883" lon="14.7044917"><ele>46.0</ele><time>2026-04-04T10:24:43.828Z</time></trkpt><trkpt lat="42.1563567" lon="14.704465"><ele>46.0</ele><time>2026-04-04T10:24:44.827Z</time></trkpt><trkpt lat="42.1564267" lon="14.7044383"><ele>46.0</ele><time>2026-04-04T10:24:45.827Z</time></trkpt><trkpt lat="42.1564983" lon="14.7044083"><ele>46.0</ele><time>2026-04-04T10:24:46.827Z</time></trkpt><trkpt lat="42.1565633" lon="14.70439"><ele>46.0</ele><time>2026-04-04T10:24:47.827Z</time></trkpt><trkpt lat="42.156635" lon="14.704365"><ele>46.0</ele><time>2026-04-04T10:24:48.828Z</time></trkpt><trkpt lat="42.1567083" lon="14.7043367"><ele>46.0</ele><time>2026-04-04T10:24:49.827Z</time></trkpt><trkpt lat="42.1567783" lon="14.70431"><ele>46.0</ele><time>2026-04-04T10:24:50.827Z</time></trkpt><trkpt lat="42.15685" lon="14.70428"><ele>45.85714285714286</ele><time>2026-04-04T10:24:51.828Z</time></trkpt><trkpt lat="42.1569167" lon="14.7042583"><ele>45.71428571428571</ele><time>2026-04-04T10:24:52.827Z</time></trkpt><trkpt lat="42.1569833" lon="14.7042317"><ele>45.57142857142857</ele><time>2026-04-04T10:24:53.827Z</time></trkpt><trkpt lat="42.1570583" lon="14.7042017"><ele>45.42857142857143</ele><time>2026-04-04T10:24:54.827Z</time></trkpt><trkpt lat="42.15713" lon="14.7041767"><ele>45.28571428571429</ele><time>2026-04-04T10:24:55.827Z</time></trkpt><trkpt lat="42.1571983" lon="14.7041583"><ele>45.14285714285714</ele><time>2026-04-04T10:24:56.827Z</time></trkpt><trkpt lat="42.157265" lon="14.7041383"><ele>45.0</ele><time>2026-04-04T10:24:57.827Z</time></trkpt><trkpt lat="42.1573383" lon="14.7041167"><ele>44.57142857142857</ele><time>2026-04-04T10:24:58.827Z</time></trkpt><trkpt lat="42.1574067" lon="14.7040967"><ele>44.142857142857146</ele><time>2026-04-04T10:24:59.827Z</time></trkpt><trkpt lat="42.1574767" lon="14.704075"><ele>43.714285714285715</ele><time>2026-04-04T10:25:00.828Z</time></trkpt><trkpt lat="42.1575517" lon="14.704055"><ele>43.285714285714285</ele><time>2026-04-04T10:25:01.828Z</time></trkpt><trkpt lat="42.1576217" lon="14.7040417"><ele>42.85714285714286</ele><time>2026-04-04T10:25:02.828Z</time></trkpt><trkpt lat="42.1576933" lon="14.70404"><ele>42.42857142857143</ele><time>2026-04-04T10:25:03.828Z</time></trkpt><trkpt lat="42.15776" lon="14.7040383"><ele>42.0</ele><time>2026-04-04T10:25:04.827Z</time></trkpt><trkpt lat="42.1578267" lon="14.7040367"><ele>42.0</ele><time>2026-04-04T10:25:05.828Z</time></trkpt><trkpt lat="42.157895" lon="14.704045"><ele>42.0</ele><time>2026-04-04T10:25:06.827Z</time></trkpt><trkpt lat="42.1580067" lon="14.704045"><ele>42.0</ele><time>2026-04-04T10:25:08.827Z</time></trkpt><trkpt lat="42.1580867" lon="14.7040517"><ele>42.0</ele><time>2026-04-04T10:25:10.827Z</time></trkpt><trkpt lat="42.1581783" lon="14.7040583"><ele>42.0</ele><time>2026-04-04T10:25:12.827Z</time></trkpt><trkpt lat="42.1582733" lon="14.70406"><ele>42.0</ele><time>2026-04-04T10:25:14.827Z</time></trkpt><trkpt lat="42.15836" lon="14.70407"><ele>42.0</ele><time>2026-04-04T10:25:16.827Z</time></trkpt><trkpt lat="42.1584633" lon="14.7040817"><ele>42.0</ele><time>2026-04-04T10:25:18.827Z</time></trkpt><trkpt lat="42.1585683" lon="14.7040983"><ele>42.0</ele><time>2026-04-04T10:25:20.827Z</time></trkpt><trkpt lat="42.1586767" lon="14.7041217"><ele>42.0</ele><time>2026-04-04T10:25:22.827Z</time></trkpt><trkpt lat="42.1587883" lon="14.7041383"><ele>42.0</ele><time>2026-04-04T10:25:24.827Z</time></trkpt><trkpt lat="42.1589" lon="14.704155"><ele>42.0</ele><time>2026-04-04T10:25:26.827Z</time></trkpt><trkpt lat="42.1590067" lon="14.7041733"><ele>42.0</ele><time>2026-04-04T10:25:28.827Z</time></trkpt><trkpt lat="42.1591283" lon="14.7041867"><ele>42.0</ele><time>2026-04-04T10:25:30.827Z</time></trkpt><trkpt lat="42.159245" lon="14.7042067"><ele>42.0</ele><time>2026-04-04T10:25:32.827Z</time></trkpt><trkpt lat="42.1593717" lon="14.7042233"><ele>42.0</ele><time>2026-04-04T10:25:34.828Z</time></trkpt><trkpt lat="42.1594383" lon="14.7042367"><ele>42.0</ele><time>2026-04-04T10:25:35.827Z</time></trkpt><trkpt lat="42.1595583" lon="14.70426"><ele>42.0</ele><time>2026-04-04T10:25:37.827Z</time></trkpt><trkpt lat="42.1596233" lon="14.70427"><ele>42.0</ele><time>2026-04-04T10:25:38.827Z</time></trkpt><trkpt lat="42.1596917" lon="14.7042817"><ele>42.0</ele><time>2026-04-04T10:25:39.827Z</time></trkpt><trkpt lat="42.159755" lon="14.70429"><ele>42.0</ele><time>2026-04-04T10:25:40.827Z</time></trkpt><trkpt lat="42.1598183" lon="14.7043"><ele>41.5</ele><time>2026-04-04T10:25:41.827Z</time></trkpt><trkpt lat="42.1599383" lon="14.7043233"><ele>41.0</ele><time>2026-04-04T10:25:43.827Z</time></trkpt><trkpt lat="42.1600617" lon="14.7043417"><ele>40.5</ele><time>2026-04-04T10:25:45.827Z</time></trkpt><trkpt lat="42.16018" lon="14.70435"><ele>40.0</ele><time>2026-04-04T10:25:47.827Z</time></trkpt><trkpt lat="42.16029" lon="14.7043633"><ele>40.0</ele><time>2026-04-04T10:25:49.828Z</time></trkpt><trkpt lat="42.1604017" lon="14.7043833"><ele>40.0</ele><time>2026-04-04T10:25:51.828Z</time></trkpt><trkpt lat="42.1604683" lon="14.704395"><ele>40.0</ele><time>2026-04-04T10:25:52.827Z</time></trkpt><trkpt lat="42.1605367" lon="14.7044033"><ele>40.0</ele><time>2026-04-04T10:25:53.828Z</time></trkpt><trkpt lat="42.160605" lon="14.7044117"><ele>40.0</ele><time>2026-04-04T10:25:54.827Z</time></trkpt><trkpt lat="42.16067" lon="14.7044183"><ele>40.0</ele><time>2026-04-04T10:25:55.827Z</time></trkpt><trkpt lat="42.1607433" lon="14.7044333"><ele>39.66666666666667</ele><time>2026-04-04T10:25:56.827Z</time></trkpt><trkpt lat="42.1608167" lon="14.70444"><ele>39.333333333333336</ele><time>2026-04-04T10:25:57.827Z</time></trkpt><trkpt lat="42.1608817" lon="14.7044467"><ele>39.0</ele><time>2026-04-04T10:25:58.827Z</time></trkpt><trkpt lat="42.1609517" lon="14.70446"><ele>38.666666666666664</ele><time>2026-04-04T10:25:59.827Z</time></trkpt><trkpt lat="42.1610183" lon="14.7044717"><ele>38.33333333333333</ele><time>2026-04-04T10:26:00.827Z</time></trkpt><trkpt lat="42.1610833" lon="14.7044817"><ele>38.0</ele><time>2026-04-04T10:26:01.828Z</time></trkpt><trkpt lat="42.161205" lon="14.7045083"><ele>38.0</ele><time>2026-04-04T10:26:03.827Z</time></trkpt><trkpt lat="42.16133" lon="14.7045367"><ele>38.0</ele><time>2026-04-04T10:26:05.827Z</time></trkpt><trkpt lat="42.1613917" lon="14.7045583"><ele>38.0</ele><time>2026-04-04T10:26:06.827Z</time></trkpt><trkpt lat="42.1614567" lon="14.7045783"><ele>38.0</ele><time>2026-04-04T10:26:07.827Z</time></trkpt><trkpt lat="42.161525" lon="14.704595"><ele>38.0</ele><time>2026-04-04T10:26:08.827Z</time></trkpt><trkpt lat="42.1615883" lon="14.7046133"><ele>38.0</ele><time>2026-04-04T10:26:09.827Z</time></trkpt><trkpt lat="42.161655" lon="14.7046367"><ele>37.33333333333333</ele><time>2026-04-04T10:26:10.827Z</time></trkpt><trkpt lat="42.1617167" lon="14.7046583"><ele>36.666666666666664</ele><time>2026-04-04T10:26:11.827Z</time></trkpt><trkpt lat="42.1617783" lon="14.7046783"><ele>36.0</ele><time>2026-04-04T10:26:12.827Z</time></trkpt><trkpt lat="42.1618967" lon="14.704715"><ele>35.333333333333336</ele><time>2026-04-04T10:26:14.827Z</time></trkpt><trkpt lat="42.1619767" lon="14.7047367"><ele>34.66666666666667</ele><time>2026-04-04T10:26:16.827Z</time></trkpt><trkpt lat="42.16204" lon="14.70475"><ele>34.0</ele><time>2026-04-04T10:26:18.827Z</time></trkpt><trkpt lat="42.1620333" lon="14.7046367"><ele>34.0</ele><time>2026-04-04T10:26:24.827Z</time></trkpt><trkpt lat="42.161955" lon="14.704555"><ele>34.0</ele><time>2026-04-04T10:26:26.828Z</time></trkpt><trkpt lat="42.16187" lon="14.7044767"><ele>34.0</ele><time>2026-04-04T10:26:28.827Z</time></trkpt><trkpt lat="42.1617833" lon="14.7044033"><ele>34.0</ele><time>2026-04-04T10:26:30.828Z</time></trkpt><trkpt lat="42.161695" lon="14.7043467"><ele>34.0</ele><time>2026-04-04T10:26:32.827Z</time></trkpt><trkpt lat="42.1616083" lon="14.7042733"><ele>35.2</ele><time>2026-04-04T10:26:34.827Z</time></trkpt><trkpt lat="42.16152" lon="14.7042083"><ele>36.4</ele><time>2026-04-04T10:26:36.828Z</time></trkpt><trkpt lat="42.161425" lon="14.7041383"><ele>37.6</ele><time>2026-04-04T10:26:38.827Z</time></trkpt><trkpt lat="42.1613317" lon="14.7040633"><ele>38.8</ele><time>2026-04-04T10:26:40.827Z</time></trkpt><trkpt lat="42.1612333" lon="14.703995"><ele>40.0</ele><time>2026-04-04T10:26:42.827Z</time></trkpt><trkpt lat="42.16114" lon="14.7039267"><ele>40.0</ele><time>2026-04-04T10:26:44.827Z</time></trkpt><trkpt lat="42.1610517" lon="14.703855"><ele>40.0</ele><time>2026-04-04T10:26:46.827Z</time></trkpt><trkpt lat="42.1609567" lon="14.7037883"><ele>40.0</ele><time>2026-04-04T10:26:48.827Z</time></trkpt><trkpt lat="42.1608667" lon="14.703725"><ele>40.0</ele><time>2026-04-04T10:26:50.827Z</time></trkpt><trkpt lat="42.1607783" lon="14.7036583"><ele>40.0</ele><time>2026-04-04T10:26:52.827Z</time></trkpt><trkpt lat="42.16069" lon="14.703595"><ele>40.4</ele><time>2026-04-04T10:26:54.828Z</time></trkpt><trkpt lat="42.1606217" lon="14.7035067"><ele>40.8</ele><time>2026-04-04T10:26:56.828Z</time></trkpt><trkpt lat="42.1606417" lon="14.70341"><ele>41.2</ele><time>2026-04-04T10:26:58.827Z</time></trkpt><trkpt lat="42.1607217" lon="14.7033733"><ele>41.6</ele><time>2026-04-04T10:27:00.827Z</time></trkpt><trkpt lat="42.1608267" lon="14.7033767"><ele>42.0</ele><time>2026-04-04T10:27:02.827Z</time></trkpt><trkpt lat="42.1609417" lon="14.7033783"><ele>42.0</ele><time>2026-04-04T10:27:04.827Z</time></trkpt><trkpt lat="42.1610583" lon="14.7033733"><ele>42.0</ele><time>2026-04-04T10:27:06.827Z</time></trkpt><trkpt lat="42.16118" lon="14.703365"><ele>42.0</ele><time>2026-04-04T10:27:08.827Z</time></trkpt><trkpt lat="42.161245" lon="14.7033567"><ele>42.0</ele><time>2026-04-04T10:27:09.827Z</time></trkpt><trkpt lat="42.1613117" lon="14.703345"><ele>42.0</ele><time>2026-04-04T10:27:10.827Z</time></trkpt><trkpt lat="42.1613767" lon="14.7033333"><ele>42.0</ele><time>2026-04-04T10:27:11.828Z</time></trkpt><trkpt lat="42.16144" lon="14.7033233"><ele>42.0</ele><time>2026-04-04T10:27:12.827Z</time></trkpt><trkpt lat="42.1615083" lon="14.70331"><ele>42.0</ele><time>2026-04-04T10:27:13.827Z</time></trkpt><trkpt lat="42.161575" lon="14.703295"><ele>42.0</ele><time>2026-04-04T10:27:14.827Z</time></trkpt><trkpt lat="42.1616417" lon="14.7032833"><ele>42.0</ele><time>2026-04-04T10:27:15.827Z</time></trkpt><trkpt lat="42.16171" lon="14.7032717"><ele>42.0</ele><time>2026-04-04T10:27:16.827Z</time></trkpt><trkpt lat="42.161775" lon="14.7032633"><ele>42.0</ele><time>2026-04-04T10:27:17.827Z</time></trkpt><trkpt lat="42.16184" lon="14.7032533"><ele>42.0</ele><time>2026-04-04T10:27:18.828Z</time></trkpt><trkpt lat="42.1619067" lon="14.70324"><ele>41.666666666666664</ele><time>2026-04-04T10:27:19.827Z</time></trkpt><trkpt lat="42.1619733" lon="14.7032183"><ele>41.333333333333336</ele><time>2026-04-04T10:27:20.828Z</time></trkpt><trkpt lat="42.1620367" lon="14.703205"><ele>41.0</ele><time>2026-04-04T10:27:21.827Z</time></trkpt><trkpt lat="42.1621017" lon="14.70319"><ele>40.66666666666667</ele><time>2026-04-04T10:27:22.827Z</time></trkpt><trkpt lat="42.1622217" lon="14.70316"><ele>40.333333333333336</ele><time>2026-04-04T10:27:24.827Z</time></trkpt><trkpt lat="42.162285" lon="14.703155"><ele>40.0</ele><time>2026-04-04T10:27:25.827Z</time></trkpt><trkpt lat="42.16235" lon="14.70314"><ele>39.833333333333336</ele><time>2026-04-04T10:27:26.827Z</time></trkpt><trkpt lat="42.1624717" lon="14.7031217"><ele>39.66666666666667</ele><time>2026-04-04T10:27:28.828Z</time></trkpt><trkpt lat="42.162535" lon="14.70311"><ele>39.5</ele><time>2026-04-04T10:27:29.827Z</time></trkpt><trkpt lat="42.162605" lon="14.7030983"><ele>39.333333333333336</ele><time>2026-04-04T10:27:30.827Z</time></trkpt><trkpt lat="42.1626733" lon="14.7030833"><ele>39.166666666666664</ele><time>2026-04-04T10:27:31.827Z</time></trkpt><trkpt lat="42.162745" lon="14.7030667"><ele>39.0</ele><time>2026-04-04T10:27:32.827Z</time></trkpt><trkpt lat="42.1628133" lon="14.7030517"><ele>39.0</ele><time>2026-04-04T10:27:33.828Z</time></trkpt><trkpt lat="42.162885" lon="14.703035"><ele>39.0</ele><time>2026-04-04T10:27:34.827Z</time></trkpt><trkpt lat="42.1629567" lon="14.7030217"><ele>39.0</ele><time>2026-04-04T10:27:35.827Z</time></trkpt><trkpt lat="42.1630267" lon="14.70301"><ele>39.0</ele><time>2026-04-04T10:27:36.827Z</time></trkpt><trkpt lat="42.1630983" lon="14.7029933"><ele>39.0</ele><time>2026-04-04T10:27:37.827Z</time></trkpt><trkpt lat="42.16317" lon="14.7029783"><ele>39.0</ele><time>2026-04-04T10:27:38.827Z</time></trkpt><trkpt lat="42.16324" lon="14.7029667"><ele>39.0</ele><time>2026-04-04T10:27:39.827Z</time></trkpt><trkpt lat="42.1633133" lon="14.70295"><ele>38.85714285714286</ele><time>2026-04-04T10:27:40.827Z</time></trkpt><trkpt lat="42.1633833" lon="14.7029333"><ele>38.71428571428571</ele><time>2026-04-04T10:27:41.827Z</time></trkpt><trkpt lat="42.163455" lon="14.7029183"><ele>38.57142857142857</ele><time>2026-04-04T10:27:42.827Z</time></trkpt><trkpt lat="42.1635267" lon="14.7029033"><ele>38.42857142857143</ele><time>2026-04-04T10:27:43.827Z</time></trkpt><trkpt lat="42.1635967" lon="14.7028883"><ele>38.28571428571429</ele><time>2026-04-04T10:27:44.827Z</time></trkpt><trkpt lat="42.1636683" lon="14.7028667"><ele>38.14285714285714</ele><time>2026-04-04T10:27:45.827Z</time></trkpt><trkpt lat="42.16374" lon="14.7028483"><ele>38.0</ele><time>2026-04-04T10:27:46.827Z</time></trkpt><trkpt lat="42.1638067" lon="14.70283"><ele>38.0</ele><time>2026-04-04T10:27:47.828Z</time></trkpt><trkpt lat="42.1638767" lon="14.7028167"><ele>38.0</ele><time>2026-04-04T10:27:48.827Z</time></trkpt><trkpt lat="42.1639433" lon="14.702805"><ele>38.0</ele><time>2026-04-04T10:27:49.827Z</time></trkpt><trkpt lat="42.1640167" lon="14.7027933"><ele>38.0</ele><time>2026-04-04T10:27:50.827Z</time></trkpt><trkpt lat="42.1640867" lon="14.7027867"><ele>38.0</ele><time>2026-04-04T10:27:51.827Z</time></trkpt><trkpt lat="42.1641533" lon="14.702775"><ele>38.0</ele><time>2026-04-04T10:27:52.827Z</time></trkpt><trkpt lat="42.1642217" lon="14.7027683"><ele>38.0</ele><time>2026-04-04T10:27:53.827Z</time></trkpt><trkpt lat="42.1642883" lon="14.7027533"><ele>38.0</ele><time>2026-04-04T10:27:54.827Z</time></trkpt><trkpt lat="42.16436" lon="14.70274"><ele>38.0</ele><time>2026-04-04T10:27:55.827Z</time></trkpt><trkpt lat="42.1644317" lon="14.7027217"><ele>38.0</ele><time>2026-04-04T10:27:56.827Z</time></trkpt><trkpt lat="42.1645033" lon="14.7027017"><ele>38.0</ele><time>2026-04-04T10:27:57.827Z</time></trkpt><trkpt lat="42.1645717" lon="14.7026817"><ele>38.0</ele><time>2026-04-04T10:27:58.827Z</time></trkpt><trkpt lat="42.1646433" lon="14.70267"><ele>38.0</ele><time>2026-04-04T10:27:59.827Z</time></trkpt><trkpt lat="42.1647133" lon="14.7026567"><ele>38.0</ele><time>2026-04-04T10:28:00.827Z</time></trkpt><trkpt lat="42.16478" lon="14.7026433"><ele>38.0</ele><time>2026-04-04T10:28:01.827Z</time></trkpt><trkpt lat="42.1648483" lon="14.702625"><ele>38.0</ele><time>2026-04-04T10:28:02.827Z</time></trkpt><trkpt lat="42.16497" lon="14.7025933"><ele>38.0</ele><time>2026-04-04T10:28:04.827Z</time></trkpt><trkpt lat="42.16509" lon="14.70254"><ele>38.0</ele><time>2026-04-04T10:28:06.827Z</time></trkpt><trkpt lat="42.16515" lon="14.702495"><ele>38.0</ele><time>2026-04-04T10:28:07.828Z</time></trkpt><trkpt lat="42.1652483" lon="14.7023917"><ele>37.666666666666664</ele><time>2026-04-04T10:28:09.827Z</time></trkpt><trkpt lat="42.165295" lon="14.702325"><ele>37.33333333333333</ele><time>2026-04-04T10:28:10.828Z</time></trkpt><trkpt lat="42.165335" lon="14.7022533"><ele>37.0</ele><time>2026-04-04T10:28:11.827Z</time></trkpt><trkpt lat="42.16537" lon="14.7021783"><ele>36.666666666666664</ele><time>2026-04-04T10:28:12.827Z</time></trkpt><trkpt lat="42.1654167" lon="14.7020267"><ele>36.333333333333336</ele><time>2026-04-04T10:28:14.827Z</time></trkpt><trkpt lat="42.16543" lon="14.7019333"><ele>36.0</ele><time>2026-04-04T10:28:15.827Z</time></trkpt><trkpt lat="42.1654383" lon="14.7018333"><ele>36.00000000000001</ele><time>2026-04-04T10:28:16.827Z</time></trkpt><trkpt lat="42.16544" lon="14.701735"><ele>36.0</ele><time>2026-04-04T10:28:17.828Z</time></trkpt><trkpt lat="42.1654333" lon="14.7016383"><ele>36.0</ele><time>2026-04-04T10:28:18.827Z</time></trkpt><trkpt lat="42.1654233" lon="14.7015433"><ele>36.0</ele><time>2026-04-04T10:28:19.828Z</time></trkpt><trkpt lat="42.165405" lon="14.7014483"><ele>36.0</ele><time>2026-04-04T10:28:20.827Z</time></trkpt><trkpt lat="42.1653817" lon="14.70135"><ele>36.00000000000001</ele><time>2026-04-04T10:28:21.827Z</time></trkpt><trkpt lat="42.1653617" lon="14.70125"><ele>36.0</ele><time>2026-04-04T10:28:22.827Z</time></trkpt><trkpt lat="42.165335" lon="14.70115"><ele>35.333333333333336</ele><time>2026-04-04T10:28:23.827Z</time></trkpt><trkpt lat="42.1653" lon="14.701055"><ele>34.666666666666664</ele><time>2026-04-04T10:28:24.828Z</time></trkpt><trkpt lat="42.1652633" lon="14.700955"><ele>34.0</ele><time>2026-04-04T10:28:25.827Z</time></trkpt><trkpt lat="42.1652267" lon="14.70086"><ele>33.33333333333333</ele><time>2026-04-04T10:28:26.828Z</time></trkpt><trkpt lat="42.1651933" lon="14.7007633"><ele>32.666666666666664</ele><time>2026-04-04T10:28:27.827Z</time></trkpt><trkpt lat="42.1651533" lon="14.70067"><ele>32.0</ele><time>2026-04-04T10:28:28.827Z</time></trkpt><trkpt lat="42.1651167" lon="14.700575"><ele>31.999999999999996</ele><time>2026-04-04T10:28:29.827Z</time></trkpt><trkpt lat="42.1650733" lon="14.70048"><ele>32.0</ele><time>2026-04-04T10:28:30.828Z</time></trkpt><trkpt lat="42.1650283" lon="14.700385"><ele>32.0</ele><time>2026-04-04T10:28:31.827Z</time></trkpt><trkpt lat="42.16498" lon="14.7002917"><ele>32.0</ele><time>2026-04-04T10:28:32.827Z</time></trkpt><trkpt lat="42.1649333" lon="14.7001967"><ele>31.999999999999996</ele><time>2026-04-04T10:28:33.827Z</time></trkpt><trkpt lat="42.1649" lon="14.7001"><ele>32.0</ele><time>2026-04-04T10:28:34.827Z</time></trkpt><trkpt lat="42.1648567" lon="14.7000083"><ele>32.33333333333333</ele><time>2026-04-04T10:28:35.827Z</time></trkpt><trkpt lat="42.1648183" lon="14.69992"><ele>32.666666666666664</ele><time>2026-04-04T10:28:36.827Z</time></trkpt><trkpt lat="42.1647833" lon="14.69982"><ele>33.0</ele><time>2026-04-04T10:28:37.827Z</time></trkpt><trkpt lat="42.1647533" lon="14.6997183"><ele>33.333333333333336</ele><time>2026-04-04T10:28:38.827Z</time></trkpt><trkpt lat="42.1647333" lon="14.6996117"><ele>33.66666666666667</ele><time>2026-04-04T10:28:39.828Z</time></trkpt><trkpt lat="42.1647267" lon="14.6995067"><ele>34.0</ele><time>2026-04-04T10:28:40.827Z</time></trkpt><trkpt lat="42.1647317" lon="14.699395"><ele>34.0</ele><time>2026-04-04T10:28:41.827Z</time></trkpt><trkpt lat="42.16475" lon="14.6992833"><ele>34.0</ele><time>2026-04-04T10:28:42.828Z</time></trkpt><trkpt lat="42.164795" lon="14.6991817"><ele>34.0</ele><time>2026-04-04T10:28:43.828Z</time></trkpt><trkpt lat="42.1648567" lon="14.6990917"><ele>34.0</ele><time>2026-04-04T10:28:44.827Z</time></trkpt><trkpt lat="42.164925" lon="14.6990233"><ele>34.0</ele><time>2026-04-04T10:28:45.827Z</time></trkpt><trkpt lat="42.1650017" lon="14.698965"><ele>34.0</ele><time>2026-04-04T10:28:46.828Z</time></trkpt><trkpt lat="42.1650867" lon="14.6989167"><ele>31.500000000000004</ele><time>2026-04-04T10:28:47.828Z</time></trkpt><trkpt lat="42.16517" lon="14.6988733"><ele>29.0</ele><time>2026-04-04T10:28:48.827Z</time></trkpt><trkpt lat="42.1652517" lon="14.6988433"><ele>26.5</ele><time>2026-04-04T10:28:49.827Z</time></trkpt><trkpt lat="42.1653317" lon="14.698815"><ele>24.0</ele><time>2026-04-04T10:28:50.827Z</time></trkpt><trkpt lat="42.165415" lon="14.6987817"><ele>21.5</ele><time>2026-04-04T10:28:51.828Z</time></trkpt><trkpt lat="42.165495" lon="14.6987517"><ele>19.0</ele><time>2026-04-04T10:28:52.827Z</time></trkpt><trkpt lat="42.165575" lon="14.6987267"><ele>19.0</ele><time>2026-04-04T10:28:53.827Z</time></trkpt><trkpt lat="42.165655" lon="14.69869"><ele>19.0</ele><time>2026-04-04T10:28:54.827Z</time></trkpt><trkpt lat="42.1657317" lon="14.6986617"><ele>19.0</ele><time>2026-04-04T10:28:55.827Z</time></trkpt><trkpt lat="42.165805" lon="14.6986383"><ele>19.0</ele><time>2026-04-04T10:28:56.827Z</time></trkpt><trkpt lat="42.165875" lon="14.6986067"><ele>19.0</ele><time>2026-04-04T10:28:57.827Z</time></trkpt><trkpt lat="42.1659433" lon="14.6985767"><ele>19.0</ele><time>2026-04-04T10:28:58.827Z</time></trkpt><trkpt lat="42.1660133" lon="14.6985483"><ele>18.833333333333332</ele><time>2026-04-04T10:28:59.828Z</time></trkpt><trkpt lat="42.1660767" lon="14.6985233"><ele>18.666666666666664</ele><time>2026-04-04T10:29:00.827Z</time></trkpt><trkpt lat="42.1661933" lon="14.698475"><ele>18.5</ele><time>2026-04-04T10:29:02.827Z</time></trkpt><trkpt lat="42.1662567" lon="14.6984333"><ele>18.333333333333332</ele><time>2026-04-04T10:29:03.827Z</time></trkpt><trkpt lat="42.1663117" lon="14.6983833"><ele>18.166666666666668</ele><time>2026-04-04T10:29:04.827Z</time></trkpt><trkpt lat="42.1663633" lon="14.698325"><ele>18.0</ele><time>2026-04-04T10:29:05.827Z</time></trkpt><trkpt lat="42.166405" lon="14.6982583"><ele>18.0</ele><time>2026-04-04T10:29:06.827Z</time></trkpt><trkpt lat="42.1664317" lon="14.69818"><ele>18.0</ele><time>2026-04-04T10:29:07.827Z</time></trkpt><trkpt lat="42.166445" lon="14.6980483"><ele>18.0</ele><time>2026-04-04T10:29:09.827Z</time></trkpt><trkpt lat="42.166435" lon="14.6979"><ele>18.0</ele><time>2026-04-04T10:29:11.827Z</time></trkpt><trkpt lat="42.166395" lon="14.6977717"><ele>18.0</ele><time>2026-04-04T10:29:13.827Z</time></trkpt><trkpt lat="42.1663533" lon="14.6976417"><ele>18.6</ele><time>2026-04-04T10:29:15.827Z</time></trkpt><trkpt lat="42.1663083" lon="14.6975117"><ele>19.200000000000003</ele><time>2026-04-04T10:29:17.827Z</time></trkpt><trkpt lat="42.1662717" lon="14.69739"><ele>19.8</ele><time>2026-04-04T10:29:19.827Z</time></trkpt><trkpt lat="42.1662317" lon="14.6972617"><ele>20.400000000000002</ele><time>2026-04-04T10:29:21.828Z</time></trkpt><trkpt lat="42.1661983" lon="14.6971283"><ele>21.0</ele><time>2026-04-04T10:29:23.827Z</time></trkpt><trkpt lat="42.166175" lon="14.697"><ele>21.666666666666668</ele><time>2026-04-04T10:29:25.827Z</time></trkpt><trkpt lat="42.166155" lon="14.6968883"><ele>22.333333333333336</ele><time>2026-04-04T10:29:27.828Z</time></trkpt><trkpt lat="42.16614" lon="14.696785"><ele>23.0</ele><time>2026-04-04T10:29:29.828Z</time></trkpt><trkpt lat="42.166135" lon="14.6966833"><ele>23.666666666666668</ele><time>2026-04-04T10:29:31.827Z</time></trkpt><trkpt lat="42.1661433" lon="14.69658"><ele>24.333333333333336</ele><time>2026-04-04T10:29:33.827Z</time></trkpt><trkpt lat="42.1661583" lon="14.69647"><ele>25.0</ele><time>2026-04-04T10:29:35.827Z</time></trkpt><trkpt lat="42.1661783" lon="14.6963667"><ele>25.000000000000004</ele><time>2026-04-04T10:29:37.827Z</time></trkpt><trkpt lat="42.1661917" lon="14.6962733"><ele>25.0</ele><time>2026-04-04T10:29:39.827Z</time></trkpt><trkpt lat="42.1661983" lon="14.6961733"><ele>25.0</ele><time>2026-04-04T10:29:41.827Z</time></trkpt><trkpt lat="42.166205" lon="14.69606"><ele>25.0</ele><time>2026-04-04T10:29:43.827Z</time></trkpt><trkpt lat="42.1662217" lon="14.69595"><ele>25.000000000000004</ele><time>2026-04-04T10:29:45.827Z</time></trkpt><trkpt lat="42.1662483" lon="14.6958217"><ele>25.0</ele><time>2026-04-04T10:29:47.827Z</time></trkpt><trkpt lat="42.1662767" lon="14.6957033"><ele>24.8</ele><time>2026-04-04T10:29:49.827Z</time></trkpt><trkpt lat="42.1663033" lon="14.6955733"><ele>24.6</ele><time>2026-04-04T10:29:51.828Z</time></trkpt><trkpt lat="42.1663317" lon="14.6954483"><ele>24.4</ele><time>2026-04-04T10:29:53.827Z</time></trkpt><trkpt lat="42.166365" lon="14.6953133"><ele>24.2</ele><time>2026-04-04T10:29:55.827Z</time></trkpt><trkpt lat="42.1663967" lon="14.6951833"><ele>24.0</ele><time>2026-04-04T10:29:57.827Z</time></trkpt><trkpt lat="42.1664217" lon="14.6950617"><ele>24.0</ele><time>2026-04-04T10:29:59.827Z</time></trkpt><trkpt lat="42.1664417" lon="14.6949433"><ele>24.0</ele><time>2026-04-04T10:30:01.828Z</time></trkpt><trkpt lat="42.16646" lon="14.6948267"><ele>24.0</ele><time>2026-04-04T10:30:03.828Z</time></trkpt><trkpt lat="42.1664867" lon="14.69471"><ele>24.0</ele><time>2026-04-04T10:30:05.827Z</time></trkpt><trkpt lat="42.1665" lon="14.6946"><ele>24.0</ele><time>2026-04-04T10:30:07.828Z</time></trkpt><trkpt lat="42.1665167" lon="14.6944933"><ele>24.0</ele><time>2026-04-04T10:30:09.827Z</time></trkpt><trkpt lat="42.1665267" lon="14.694385"><ele>24.666666666666668</ele><time>2026-04-04T10:30:11.828Z</time></trkpt><trkpt lat="42.1665317" lon="14.69429"><ele>25.333333333333336</ele><time>2026-04-04T10:30:13.827Z</time></trkpt><trkpt lat="42.1665367" lon="14.6941667"><ele>26.0</ele><time>2026-04-04T10:30:15.827Z</time></trkpt><trkpt lat="42.1665417" lon="14.69405"><ele>26.666666666666668</ele><time>2026-04-04T10:30:17.827Z</time></trkpt><trkpt lat="42.16654" lon="14.6939317"><ele>27.333333333333336</ele><time>2026-04-04T10:30:19.827Z</time></trkpt><trkpt lat="42.1665383" lon="14.69381"><ele>28.0</ele><time>2026-04-04T10:30:21.828Z</time></trkpt><trkpt lat="42.1665267" lon="14.693685"><ele>29.0</ele><time>2026-04-04T10:30:23.827Z</time></trkpt><trkpt lat="42.1665067" lon="14.6935583"><ele>29.999999999999996</ele><time>2026-04-04T10:30:25.827Z</time></trkpt><trkpt lat="42.166485" lon="14.6934333"><ele>30.999999999999996</ele><time>2026-04-04T10:30:27.827Z</time></trkpt><trkpt lat="42.16646" lon="14.69331"><ele>32.0</ele><time>2026-04-04T10:30:29.827Z</time></trkpt><trkpt lat="42.16643" lon="14.6932"><ele>33.0</ele><time>2026-04-04T10:30:31.828Z</time></trkpt><trkpt lat="42.1663933" lon="14.69309"><ele>33.0</ele><time>2026-04-04T10:30:33.827Z</time></trkpt><trkpt lat="42.1663617" lon="14.6929833"><ele>33.0</ele><time>2026-04-04T10:30:35.827Z</time></trkpt><trkpt lat="42.1663317" lon="14.692875"><ele>33.0</ele><time>2026-04-04T10:30:37.827Z</time></trkpt><trkpt lat="42.1662967" lon="14.692765"><ele>33.0</ele><time>2026-04-04T10:30:39.828Z</time></trkpt><trkpt lat="42.1662483" lon="14.6926483"><ele>33.0</ele><time>2026-04-04T10:30:41.827Z</time></trkpt><trkpt lat="42.1662033" lon="14.692525"><ele>33.6</ele><time>2026-04-04T10:30:43.828Z</time></trkpt><trkpt lat="42.1661683" lon="14.6924117"><ele>34.199999999999996</ele><time>2026-04-04T10:30:45.827Z</time></trkpt><trkpt lat="42.166135" lon="14.6922967"><ele>34.8</ele><time>2026-04-04T10:30:47.827Z</time></trkpt><trkpt lat="42.166105" lon="14.69218"><ele>35.4</ele><time>2026-04-04T10:30:49.827Z</time></trkpt><trkpt lat="42.1660633" lon="14.6920533"><ele>36.0</ele><time>2026-04-04T10:30:51.828Z</time></trkpt><trkpt lat="42.1660283" lon="14.6919217"><ele>36.8</ele><time>2026-04-04T10:30:53.827Z</time></trkpt><trkpt lat="42.1659917" lon="14.6917917"><ele>37.6</ele><time>2026-04-04T10:30:55.827Z</time></trkpt><trkpt lat="42.1659517" lon="14.6916533"><ele>38.4</ele><time>2026-04-04T10:30:57.827Z</time></trkpt><trkpt lat="42.16591" lon="14.6915217"><ele>39.2</ele><time>2026-04-04T10:30:59.827Z</time></trkpt><trkpt lat="42.165865" lon="14.6913867"><ele>40.0</ele><time>2026-04-04T10:31:01.828Z</time></trkpt><trkpt lat="42.165825" lon="14.6912483"><ele>40.0</ele><time>2026-04-04T10:31:03.827Z</time></trkpt><trkpt lat="42.16579" lon="14.6911183"><ele>40.0</ele><time>2026-04-04T10:31:05.827Z</time></trkpt><trkpt lat="42.1657483" lon="14.6909917"><ele>40.0</ele><time>2026-04-04T10:31:07.827Z</time></trkpt><trkpt lat="42.1657067" lon="14.69086"><ele>40.0</ele><time>2026-04-04T10:31:09.828Z</time></trkpt><trkpt lat="42.1656717" lon="14.6907267"><ele>40.0</ele><time>2026-04-04T10:31:11.827Z</time></trkpt><trkpt lat="42.1656383" lon="14.6905933"><ele>39.8</ele><time>2026-04-04T10:31:13.828Z</time></trkpt><trkpt lat="42.1655967" lon="14.6904583"><ele>39.6</ele><time>2026-04-04T10:31:15.828Z</time></trkpt><trkpt lat="42.165555" lon="14.69033"><ele>39.4</ele><time>2026-04-04T10:31:17.827Z</time></trkpt><trkpt lat="42.1655183" lon="14.6901933"><ele>39.2</ele><time>2026-04-04T10:31:19.827Z</time></trkpt><trkpt lat="42.16548" lon="14.6900683"><ele>39.0</ele><time>2026-04-04T10:31:21.827Z</time></trkpt><trkpt lat="42.16544" lon="14.6899367"><ele>39.0</ele><time>2026-04-04T10:31:23.827Z</time></trkpt><trkpt lat="42.1653933" lon="14.6898067"><ele>39.0</ele><time>2026-04-04T10:31:25.827Z</time></trkpt><trkpt lat="42.1653483" lon="14.6896733"><ele>39.0</ele><time>2026-04-04T10:31:27.827Z</time></trkpt><trkpt lat="42.1653033" lon="14.68954"><ele>39.0</ele><time>2026-04-04T10:31:29.827Z</time></trkpt><trkpt lat="42.1652583" lon="14.6894083"><ele>39.0</ele><time>2026-04-04T10:31:31.827Z</time></trkpt><trkpt lat="42.1652167" lon="14.68928"><ele>39.8</ele><time>2026-04-04T10:31:33.827Z</time></trkpt><trkpt lat="42.16517" lon="14.6891517"><ele>40.599999999999994</ele><time>2026-04-04T10:31:35.828Z</time></trkpt><trkpt lat="42.1651333" lon="14.6890167"><ele>41.4</ele><time>2026-04-04T10:31:37.827Z</time></trkpt><trkpt lat="42.165095" lon="14.68888"><ele>42.199999999999996</ele><time>2026-04-04T10:31:39.827Z</time></trkpt><trkpt lat="42.16506" lon="14.6887433"><ele>43.0</ele><time>2026-04-04T10:31:41.827Z</time></trkpt><trkpt lat="42.1650267" lon="14.6886033"><ele>43.8</ele><time>2026-04-04T10:31:43.828Z</time></trkpt><trkpt lat="42.1649833" lon="14.6884683"><ele>44.599999999999994</ele><time>2026-04-04T10:31:45.827Z</time></trkpt><trkpt lat="42.1649433" lon="14.6883267"><ele>45.400000000000006</ele><time>2026-04-04T10:31:47.827Z</time></trkpt><trkpt lat="42.16491" lon="14.6881917"><ele>46.2</ele><time>2026-04-04T10:31:49.827Z</time></trkpt><trkpt lat="42.1648717" lon="14.688055"><ele>47.0</ele><time>2026-04-04T10:31:51.827Z</time></trkpt><trkpt lat="42.1648333" lon="14.6879183"><ele>47.0</ele><time>2026-04-04T10:31:53.827Z</time></trkpt><trkpt lat="42.1647983" lon="14.6877817"><ele>47.0</ele><time>2026-04-04T10:31:55.828Z</time></trkpt><trkpt lat="42.1647717" lon="14.6876383"><ele>47.0</ele><time>2026-04-04T10:31:57.827Z</time></trkpt><trkpt lat="42.1647533" lon="14.6874983"><ele>47.0</ele><time>2026-04-04T10:31:59.827Z</time></trkpt><trkpt lat="42.1647317" lon="14.687365"><ele>47.0</ele><time>2026-04-04T10:32:01.827Z</time></trkpt><trkpt lat="42.164715" lon="14.6872267"><ele>47.400000000000006</ele><time>2026-04-04T10:32:03.827Z</time></trkpt><trkpt lat="42.1647067" lon="14.6870833"><ele>47.800000000000004</ele><time>2026-04-04T10:32:05.827Z</time></trkpt><trkpt lat="42.1646967" lon="14.68694"><ele>48.2</ele><time>2026-04-04T10:32:07.827Z</time></trkpt><trkpt lat="42.1647" lon="14.6867933"><ele>48.6</ele><time>2026-04-04T10:32:09.827Z</time></trkpt><trkpt lat="42.1647067" lon="14.6866533"><ele>49.0</ele><time>2026-04-04T10:32:11.828Z</time></trkpt><trkpt lat="42.164715" lon="14.6865083"><ele>49.400000000000006</ele><time>2026-04-04T10:32:13.827Z</time></trkpt><trkpt lat="42.1647183" lon="14.6863667"><ele>49.8</ele><time>2026-04-04T10:32:15.827Z</time></trkpt><trkpt lat="42.16473" lon="14.6862217"><ele>50.2</ele><time>2026-04-04T10:32:17.827Z</time></trkpt><trkpt lat="42.1647383" lon="14.6860867"><ele>50.599999999999994</ele><time>2026-04-04T10:32:19.827Z</time></trkpt><trkpt lat="42.1647483" lon="14.6859567"><ele>51.0</ele><time>2026-04-04T10:32:21.827Z</time></trkpt><trkpt lat="42.1647583" lon="14.6858167"><ele>51.0</ele><time>2026-04-04T10:32:23.827Z</time></trkpt><trkpt lat="42.16478" lon="14.6856767"><ele>51.0</ele><time>2026-04-04T10:32:25.827Z</time></trkpt><trkpt lat="42.1648" lon="14.6855417"><ele>51.0</ele><time>2026-04-04T10:32:27.827Z</time></trkpt><trkpt lat="42.16481" lon="14.685405"><ele>51.0</ele><time>2026-04-04T10:32:29.827Z</time></trkpt><trkpt lat="42.16483" lon="14.685265"><ele>51.0</ele><time>2026-04-04T10:32:31.828Z</time></trkpt><trkpt lat="42.1648567" lon="14.6851367"><ele>51.0</ele><time>2026-04-04T10:32:33.827Z</time></trkpt><trkpt lat="42.1648833" lon="14.685005"><ele>51.0</ele><time>2026-04-04T10:32:35.828Z</time></trkpt><trkpt lat="42.1649033" lon="14.68487"><ele>51.0</ele><time>2026-04-04T10:32:37.827Z</time></trkpt><trkpt lat="42.1649233" lon="14.6847417"><ele>51.0</ele><time>2026-04-04T10:32:39.827Z</time></trkpt><trkpt lat="42.1649533" lon="14.6846133"><ele>51.0</ele><time>2026-04-04T10:32:41.827Z</time></trkpt><trkpt lat="42.1649817" lon="14.68448"><ele>51.199999999999996</ele><time>2026-04-04T10:32:43.827Z</time></trkpt><trkpt lat="42.1650167" lon="14.6843367"><ele>51.4</ele><time>2026-04-04T10:32:45.827Z</time></trkpt><trkpt lat="42.1650517" lon="14.6842067"><ele>51.6</ele><time>2026-04-04T10:32:47.827Z</time></trkpt><trkpt lat="42.1650883" lon="14.6840817"><ele>51.8</ele><time>2026-04-04T10:32:49.827Z</time></trkpt><trkpt lat="42.1651417" lon="14.683955"><ele>52.0</ele><time>2026-04-04T10:32:51.827Z</time></trkpt><trkpt lat="42.1651883" lon="14.6838283"><ele>52.0</ele><time>2026-04-04T10:32:53.827Z</time></trkpt><trkpt lat="42.1652317" lon="14.6837033"><ele>52.0</ele><time>2026-04-04T10:32:55.827Z</time></trkpt><trkpt lat="42.1652783" lon="14.68358"><ele>52.0</ele><time>2026-04-04T10:32:57.827Z</time></trkpt><trkpt lat="42.1653083" lon="14.6834517"><ele>52.0</ele><time>2026-04-04T10:32:59.827Z</time></trkpt><trkpt lat="42.1653433" lon="14.6833083"><ele>52.0</ele><time>2026-04-04T10:33:01.827Z</time></trkpt><trkpt lat="42.165375" lon="14.68317"><ele>51.8</ele><time>2026-04-04T10:33:03.827Z</time></trkpt><trkpt lat="42.1654067" lon="14.6830317"><ele>51.6</ele><time>2026-04-04T10:33:05.828Z</time></trkpt><trkpt lat="42.165445" lon="14.6829067"><ele>51.4</ele><time>2026-04-04T10:33:07.827Z</time></trkpt><trkpt lat="42.1655067" lon="14.6828283"><ele>51.199999999999996</ele><time>2026-04-04T10:33:09.827Z</time></trkpt><trkpt lat="42.1655967" lon="14.68283"><ele>51.0</ele><time>2026-04-04T10:33:11.827Z</time></trkpt><trkpt lat="42.165705" lon="14.682855"><ele>51.0</ele><time>2026-04-04T10:33:13.828Z</time></trkpt><trkpt lat="42.1658217" lon="14.6828633"><ele>51.0</ele><time>2026-04-04T10:33:15.828Z</time></trkpt><trkpt lat="42.16594" lon="14.6828383"><ele>51.0</ele><time>2026-04-04T10:33:17.827Z</time></trkpt><trkpt lat="42.1660417" lon="14.6827617"><ele>51.0</ele><time>2026-04-04T10:33:19.827Z</time></trkpt><trkpt lat="42.1661167" lon="14.6826517"><ele>51.0</ele><time>2026-04-04T10:33:21.827Z</time></trkpt><trkpt lat="42.1661433" lon="14.6825267"><ele>51.0</ele><time>2026-04-04T10:33:23.827Z</time></trkpt><trkpt lat="42.1661333" lon="14.6823633"><ele>51.0</ele><time>2026-04-04T10:33:25.828Z</time></trkpt><trkpt lat="42.1660767" lon="14.6822167"><ele>51.0</ele><time>2026-04-04T10:33:27.827Z</time></trkpt><trkpt lat="42.1660317" lon="14.682155"><ele>51.0</ele><time>2026-04-04T10:33:28.827Z</time></trkpt><trkpt lat="42.1659367" lon="14.682045"><ele>51.0</ele><time>2026-04-04T10:33:30.827Z</time></trkpt><trkpt lat="42.1658433" lon="14.6819417"><ele>51.0</ele><time>2026-04-04T10:33:32.827Z</time></trkpt><trkpt lat="42.1657633" lon="14.6818167"><ele>51.0</ele><time>2026-04-04T10:33:34.827Z</time></trkpt><trkpt lat="42.16572" lon="14.68166"><ele>51.0</ele><time>2026-04-04T10:33:36.827Z</time></trkpt><trkpt lat="42.1657" lon="14.6815017"><ele>51.4</ele><time>2026-04-04T10:33:38.827Z</time></trkpt><trkpt lat="42.1656933" lon="14.6813433"><ele>51.8</ele><time>2026-04-04T10:33:40.827Z</time></trkpt><trkpt lat="42.1656767" lon="14.6811933"><ele>52.199999999999996</ele><time>2026-04-04T10:33:42.827Z</time></trkpt><trkpt lat="42.16567" lon="14.681035"><ele>52.599999999999994</ele><time>2026-04-04T10:33:44.827Z</time></trkpt><trkpt lat="42.1656667" lon="14.68095"><ele>53.0</ele><time>2026-04-04T10:33:45.828Z</time></trkpt><trkpt lat="42.1656583" lon="14.6807917"><ele>53.5</ele><time>2026-04-04T10:33:47.827Z</time></trkpt><trkpt lat="42.1656483" lon="14.6806283"><ele>54.0</ele><time>2026-04-04T10:33:49.827Z</time></trkpt><trkpt lat="42.165635" lon="14.68047"><ele>54.5</ele><time>2026-04-04T10:33:51.827Z</time></trkpt><trkpt lat="42.16562" lon="14.6803183"><ele>55.0</ele><time>2026-04-04T10:33:53.827Z</time></trkpt><trkpt lat="42.1656117" lon="14.6801633"><ele>55.2</ele><time>2026-04-04T10:33:55.828Z</time></trkpt><trkpt lat="42.1655983" lon="14.68001"><ele>55.4</ele><time>2026-04-04T10:33:57.828Z</time></trkpt><trkpt lat="42.1655883" lon="14.6798483"><ele>55.599999999999994</ele><time>2026-04-04T10:33:59.827Z</time></trkpt><trkpt lat="42.16558" lon="14.6797633"><ele>55.8</ele><time>2026-04-04T10:34:00.827Z</time></trkpt><trkpt lat="42.1655667" lon="14.6795983"><ele>56.0</ele><time>2026-04-04T10:34:02.828Z</time></trkpt><trkpt lat="42.165545" lon="14.67944"><ele>56.16666666666667</ele><time>2026-04-04T10:34:04.828Z</time></trkpt><trkpt lat="42.16553" lon="14.679355"><ele>56.333333333333336</ele><time>2026-04-04T10:34:05.827Z</time></trkpt><trkpt lat="42.1655017" lon="14.6791833"><ele>56.5</ele><time>2026-04-04T10:34:07.827Z</time></trkpt><trkpt lat="42.1654917" lon="14.6790917"><ele>56.66666666666667</ele><time>2026-04-04T10:34:08.827Z</time></trkpt><trkpt lat="42.1654783" lon="14.6790067"><ele>56.833333333333336</ele><time>2026-04-04T10:34:09.827Z</time></trkpt><trkpt lat="42.16546" lon="14.6789217"><ele>57.0</ele><time>2026-04-04T10:34:10.827Z</time></trkpt><trkpt lat="42.1654417" lon="14.67883"><ele>57.0</ele><time>2026-04-04T10:34:11.827Z</time></trkpt><trkpt lat="42.16542" lon="14.6787367"><ele>56.99999999999999</ele><time>2026-04-04T10:34:12.827Z</time></trkpt><trkpt lat="42.1654033" lon="14.6786417"><ele>57.0</ele><time>2026-04-04T10:34:13.827Z</time></trkpt><trkpt lat="42.1653867" lon="14.67855"><ele>57.0</ele><time>2026-04-04T10:34:14.827Z</time></trkpt><trkpt lat="42.1653733" lon="14.6784517"><ele>56.99999999999999</ele><time>2026-04-04T10:34:15.827Z</time></trkpt><trkpt lat="42.1653617" lon="14.6783517"><ele>57.0</ele><time>2026-04-04T10:34:16.827Z</time></trkpt><trkpt lat="42.1653483" lon="14.678255"><ele>57.0</ele><time>2026-04-04T10:34:17.827Z</time></trkpt><trkpt lat="42.1653333" lon="14.6781583"><ele>56.333333333333336</ele><time>2026-04-04T10:34:18.828Z</time></trkpt><trkpt lat="42.1653167" lon="14.6780617"><ele>55.66666666666667</ele><time>2026-04-04T10:34:19.827Z</time></trkpt><trkpt lat="42.1652983" lon="14.6779717"><ele>55.0</ele><time>2026-04-04T10:34:20.827Z</time></trkpt><trkpt lat="42.1652867" lon="14.677885"><ele>54.333333333333336</ele><time>2026-04-04T10:34:21.827Z</time></trkpt><trkpt lat="42.16527" lon="14.6777967"><ele>53.66666666666667</ele><time>2026-04-04T10:34:22.827Z</time></trkpt><trkpt lat="42.16525" lon="14.6777083"><ele>53.0</ele><time>2026-04-04T10:34:23.827Z</time></trkpt><trkpt lat="42.1652133" lon="14.6775417"><ele>52.85714285714286</ele><time>2026-04-04T10:34:25.827Z</time></trkpt><trkpt lat="42.1652017" lon="14.6774533"><ele>52.71428571428571</ele><time>2026-04-04T10:34:26.828Z</time></trkpt><trkpt lat="42.1651933" lon="14.67736"><ele>52.57142857142857</ele><time>2026-04-04T10:34:27.827Z</time></trkpt><trkpt lat="42.165185" lon="14.677265"><ele>52.42857142857143</ele><time>2026-04-04T10:34:28.827Z</time></trkpt><trkpt lat="42.1651833" lon="14.6771717"><ele>52.28571428571429</ele><time>2026-04-04T10:34:29.827Z</time></trkpt><trkpt lat="42.165175" lon="14.67708"><ele>52.14285714285714</ele><time>2026-04-04T10:34:30.828Z</time></trkpt><trkpt lat="42.1651683" lon="14.6769917"><ele>52.0</ele><time>2026-04-04T10:34:31.827Z</time></trkpt><trkpt lat="42.1651633" lon="14.6769"><ele>52.83333333333333</ele><time>2026-04-04T10:34:32.827Z</time></trkpt><trkpt lat="42.1651567" lon="14.6768133"><ele>53.666666666666664</ele><time>2026-04-04T10:34:33.827Z</time></trkpt><trkpt lat="42.1651533" lon="14.676725"><ele>54.5</ele><time>2026-04-04T10:34:34.827Z</time></trkpt><trkpt lat="42.16515" lon="14.676635"><ele>55.33333333333333</ele><time>2026-04-04T10:34:35.827Z</time></trkpt><trkpt lat="42.1651483" lon="14.67655"><ele>56.166666666666664</ele><time>2026-04-04T10:34:36.827Z</time></trkpt><trkpt lat="42.16514" lon="14.6763883"><ele>57.0</ele><time>2026-04-04T10:34:38.827Z</time></trkpt><trkpt lat="42.1651367" lon="14.6762233"><ele>57.5</ele><time>2026-04-04T10:34:40.827Z</time></trkpt><trkpt lat="42.16513" lon="14.6760617"><ele>58.0</ele><time>2026-04-04T10:34:42.827Z</time></trkpt><trkpt lat="42.1651267" lon="14.67597"><ele>58.5</ele><time>2026-04-04T10:34:43.828Z</time></trkpt><trkpt lat="42.16512" lon="14.6758833"><ele>59.0</ele><time>2026-04-04T10:34:44.827Z</time></trkpt><trkpt lat="42.1651133" lon="14.675795"><ele>59.5</ele><time>2026-04-04T10:34:45.827Z</time></trkpt><trkpt lat="42.1651083" lon="14.6757017"><ele>60.0</ele><time>2026-04-04T10:34:46.827Z</time></trkpt><trkpt lat="42.1651033" lon="14.6756117"><ele>60.0</ele><time>2026-04-04T10:34:47.827Z</time></trkpt><trkpt lat="42.165095" lon="14.675445"><ele>60.0</ele><time>2026-04-04T10:34:49.827Z</time></trkpt><trkpt lat="42.1650933" lon="14.6753567"><ele>60.0</ele><time>2026-04-04T10:34:50.827Z</time></trkpt><trkpt lat="42.1650883" lon="14.6751883"><ele>60.0</ele><time>2026-04-04T10:34:52.827Z</time></trkpt><trkpt lat="42.1650817" lon="14.6751017"><ele>60.0</ele><time>2026-04-04T10:34:53.827Z</time></trkpt><trkpt lat="42.1650817" lon="14.6750117"><ele>60.0</ele><time>2026-04-04T10:34:54.827Z</time></trkpt><trkpt lat="42.1650767" lon="14.67492"><ele>60.0</ele><time>2026-04-04T10:34:55.827Z</time></trkpt><trkpt lat="42.16507" lon="14.6748317"><ele>60.0</ele><time>2026-04-04T10:34:56.827Z</time></trkpt><trkpt lat="42.1650633" lon="14.674745"><ele>60.0</ele><time>2026-04-04T10:34:57.827Z</time></trkpt><trkpt lat="42.1650567" lon="14.674585"><ele>60.0</ele><time>2026-04-04T10:34:59.827Z</time></trkpt><trkpt lat="42.1650467" lon="14.6744217"><ele>60.0</ele><time>2026-04-04T10:35:01.827Z</time></trkpt><trkpt lat="42.1650467" lon="14.6743367"><ele>60.0</ele><time>2026-04-04T10:35:02.827Z</time></trkpt><trkpt lat="42.1650483" lon="14.6742467"><ele>60.5</ele><time>2026-04-04T10:35:03.827Z</time></trkpt><trkpt lat="42.16505" lon="14.6741617"><ele>61.0</ele><time>2026-04-04T10:35:04.828Z</time></trkpt><trkpt lat="42.165045" lon="14.6740733"><ele>61.5</ele><time>2026-04-04T10:35:05.827Z</time></trkpt><trkpt lat="42.1650317" lon="14.673905"><ele>62.0</ele><time>2026-04-04T10:35:07.827Z</time></trkpt><trkpt lat="42.1650283" lon="14.6738133"><ele>62.5</ele><time>2026-04-04T10:35:08.827Z</time></trkpt><trkpt lat="42.1650283" lon="14.67372"><ele>63.0</ele><time>2026-04-04T10:35:09.827Z</time></trkpt><trkpt lat="42.165025" lon="14.67363"><ele>63.333333333333336</ele><time>2026-04-04T10:35:10.827Z</time></trkpt><trkpt lat="42.1650167" lon="14.67354"><ele>63.66666666666667</ele><time>2026-04-04T10:35:11.827Z</time></trkpt><trkpt lat="42.1650133" lon="14.673455"><ele>64.0</ele><time>2026-04-04T10:35:12.828Z</time></trkpt><trkpt lat="42.16501" lon="14.673365"><ele>64.33333333333334</ele><time>2026-04-04T10:35:13.827Z</time></trkpt><trkpt lat="42.1649883" lon="14.6731967"><ele>64.66666666666667</ele><time>2026-04-04T10:35:15.827Z</time></trkpt><trkpt lat="42.1649917" lon="14.6731117"><ele>65.0</ele><time>2026-04-04T10:35:16.828Z</time></trkpt><trkpt lat="42.1649883" lon="14.673025"><ele>65.00000000000001</ele><time>2026-04-04T10:35:17.827Z</time></trkpt><trkpt lat="42.16499" lon="14.6729317"><ele>65.0</ele><time>2026-04-04T10:35:18.827Z</time></trkpt><trkpt lat="42.1649867" lon="14.6728383"><ele>65.0</ele><time>2026-04-04T10:35:19.827Z</time></trkpt><trkpt lat="42.164985" lon="14.6727433"><ele>65.0</ele><time>2026-04-04T10:35:20.827Z</time></trkpt><trkpt lat="42.164985" lon="14.6726517"><ele>65.0</ele><time>2026-04-04T10:35:21.827Z</time></trkpt><trkpt lat="42.1649833" lon="14.6725583"><ele>65.00000000000001</ele><time>2026-04-04T10:35:22.827Z</time></trkpt><trkpt lat="42.164975" lon="14.67246"><ele>65.0</ele><time>2026-04-04T10:35:23.827Z</time></trkpt><trkpt lat="42.1649683" lon="14.6723667"><ele>65.14285714285715</ele><time>2026-04-04T10:35:24.827Z</time></trkpt><trkpt lat="42.1649617" lon="14.6722733"><ele>65.28571428571429</ele><time>2026-04-04T10:35:25.827Z</time></trkpt><trkpt lat="42.1649533" lon="14.6721833"><ele>65.42857142857143</ele><time>2026-04-04T10:35:26.827Z</time></trkpt><trkpt lat="42.16495" lon="14.6720867"><ele>65.57142857142858</ele><time>2026-04-04T10:35:27.827Z</time></trkpt><trkpt lat="42.164945" lon="14.67199"><ele>65.71428571428572</ele><time>2026-04-04T10:35:28.827Z</time></trkpt><trkpt lat="42.1649417" lon="14.671895"><ele>65.85714285714286</ele><time>2026-04-04T10:35:29.828Z</time></trkpt><trkpt lat="42.1649383" lon="14.6718"><ele>66.0</ele><time>2026-04-04T10:35:30.827Z</time></trkpt><trkpt lat="42.1649367" lon="14.67171"><ele>66.42857142857143</ele><time>2026-04-04T10:35:31.827Z</time></trkpt><trkpt lat="42.1649333" lon="14.6716217"><ele>66.85714285714286</ele><time>2026-04-04T10:35:32.827Z</time></trkpt><trkpt lat="42.16493" lon="14.6715267"><ele>67.28571428571429</ele><time>2026-04-04T10:35:33.827Z</time></trkpt><trkpt lat="42.1649267" lon="14.671425"><ele>67.71428571428572</ele><time>2026-04-04T10:35:34.827Z</time></trkpt><trkpt lat="42.164925" lon="14.6713233"><ele>68.14285714285715</ele><time>2026-04-04T10:35:35.827Z</time></trkpt><trkpt lat="42.164925" lon="14.67123"><ele>68.57142857142857</ele><time>2026-04-04T10:35:36.827Z</time></trkpt><trkpt lat="42.1649167" lon="14.6711417"><ele>69.0</ele><time>2026-04-04T10:35:37.827Z</time></trkpt><trkpt lat="42.1649083" lon="14.671055"><ele>69.0</ele><time>2026-04-04T10:35:38.827Z</time></trkpt><trkpt lat="42.164905" lon="14.6709583"><ele>69.0</ele><time>2026-04-04T10:35:39.827Z</time></trkpt><trkpt lat="42.1649067" lon="14.6708717"><ele>69.0</ele><time>2026-04-04T10:35:40.827Z</time></trkpt><trkpt lat="42.1649083" lon="14.670775"><ele>69.0</ele><time>2026-04-04T10:35:41.828Z</time></trkpt><trkpt lat="42.1649083" lon="14.67068"><ele>69.0</ele><time>2026-04-04T10:35:42.827Z</time></trkpt><trkpt lat="42.1649083" lon="14.670585"><ele>69.0</ele><time>2026-04-04T10:35:43.828Z</time></trkpt><trkpt lat="42.16491" lon="14.6704867"><ele>69.0</ele><time>2026-04-04T10:35:44.828Z</time></trkpt><trkpt lat="42.16491" lon="14.6703867"><ele>69.0</ele><time>2026-04-04T10:35:45.827Z</time></trkpt><trkpt lat="42.164905" lon="14.6702967"><ele>69.0</ele><time>2026-04-04T10:35:46.827Z</time></trkpt><trkpt lat="42.164905" lon="14.6702"><ele>69.0</ele><time>2026-04-04T10:35:47.827Z</time></trkpt><trkpt lat="42.1649033" lon="14.67011"><ele>69.0</ele><time>2026-04-04T10:35:48.827Z</time></trkpt><trkpt lat="42.1649017" lon="14.6700117"><ele>69.0</ele><time>2026-04-04T10:35:49.827Z</time></trkpt><trkpt lat="42.1648983" lon="14.669915"><ele>69.0</ele><time>2026-04-04T10:35:50.827Z</time></trkpt><trkpt lat="42.164895" lon="14.6698183"><ele>69.0</ele><time>2026-04-04T10:35:51.827Z</time></trkpt><trkpt lat="42.1648867" lon="14.6697267"><ele>68.85714285714286</ele><time>2026-04-04T10:35:52.827Z</time></trkpt><trkpt lat="42.1648833" lon="14.669625"><ele>68.71428571428572</ele><time>2026-04-04T10:35:53.827Z</time></trkpt><trkpt lat="42.1648833" lon="14.6695367"><ele>68.57142857142857</ele><time>2026-04-04T10:35:54.827Z</time></trkpt><trkpt lat="42.164885" lon="14.6694433"><ele>68.42857142857143</ele><time>2026-04-04T10:35:55.827Z</time></trkpt><trkpt lat="42.164885" lon="14.6693517"><ele>68.28571428571428</ele><time>2026-04-04T10:35:56.828Z</time></trkpt><trkpt lat="42.1648883" lon="14.6692567"><ele>68.14285714285714</ele><time>2026-04-04T10:35:57.827Z</time></trkpt><trkpt lat="42.16489" lon="14.6691633"><ele>68.0</ele><time>2026-04-04T10:35:58.827Z</time></trkpt><trkpt lat="42.1648933" lon="14.669065"><ele>68.28571428571428</ele><time>2026-04-04T10:35:59.828Z</time></trkpt><trkpt lat="42.164905" lon="14.668965"><ele>68.57142857142857</ele><time>2026-04-04T10:36:00.828Z</time></trkpt><trkpt lat="42.164915" lon="14.6688733"><ele>68.85714285714286</ele><time>2026-04-04T10:36:01.827Z</time></trkpt><trkpt lat="42.1649267" lon="14.66878"><ele>69.14285714285714</ele><time>2026-04-04T10:36:02.827Z</time></trkpt><trkpt lat="42.1649417" lon="14.6686867"><ele>69.42857142857143</ele><time>2026-04-04T10:36:03.827Z</time></trkpt><trkpt lat="42.1649583" lon="14.6685917"><ele>69.71428571428571</ele><time>2026-04-04T10:36:04.828Z</time></trkpt><trkpt lat="42.1649733" lon="14.6684983"><ele>70.0</ele><time>2026-04-04T10:36:05.827Z</time></trkpt><trkpt lat="42.1649883" lon="14.668405"><ele>70.28571428571429</ele><time>2026-04-04T10:36:06.827Z</time></trkpt><trkpt lat="42.1650033" lon="14.6683133"><ele>70.57142857142857</ele><time>2026-04-04T10:36:07.828Z</time></trkpt><trkpt lat="42.16502" lon="14.668225"><ele>70.85714285714286</ele><time>2026-04-04T10:36:08.827Z</time></trkpt><trkpt lat="42.1650383" lon="14.66814"><ele>71.14285714285714</ele><time>2026-04-04T10:36:09.827Z</time></trkpt><trkpt lat="42.16506" lon="14.6680467"><ele>71.42857142857143</ele><time>2026-04-04T10:36:10.827Z</time></trkpt><trkpt lat="42.1650733" lon="14.667955"><ele>71.71428571428572</ele><time>2026-04-04T10:36:11.828Z</time></trkpt><trkpt lat="42.1650883" lon="14.6678567"><ele>72.0</ele><time>2026-04-04T10:36:12.827Z</time></trkpt><trkpt lat="42.1651" lon="14.66776"><ele>72.14285714285715</ele><time>2026-04-04T10:36:13.827Z</time></trkpt><trkpt lat="42.1651133" lon="14.6676667"><ele>72.28571428571429</ele><time>2026-04-04T10:36:14.828Z</time></trkpt><trkpt lat="42.1651283" lon="14.6675667"><ele>72.42857142857143</ele><time>2026-04-04T10:36:15.827Z</time></trkpt><trkpt lat="42.16514" lon="14.6674733"><ele>72.57142857142858</ele><time>2026-04-04T10:36:16.827Z</time></trkpt><trkpt lat="42.1651567" lon="14.667375"><ele>72.71428571428572</ele><time>2026-04-04T10:36:17.828Z</time></trkpt><trkpt lat="42.165175" lon="14.6672783"><ele>72.85714285714286</ele><time>2026-04-04T10:36:18.827Z</time></trkpt><trkpt lat="42.1651917" lon="14.6671783"><ele>73.0</ele><time>2026-04-04T10:36:19.827Z</time></trkpt><trkpt lat="42.1652083" lon="14.6670867"><ele>73.0</ele><time>2026-04-04T10:36:20.827Z</time></trkpt><trkpt lat="42.165225" lon="14.6669883"><ele>73.0</ele><time>2026-04-04T10:36:21.827Z</time></trkpt><trkpt lat="42.1652367" lon="14.666895"><ele>73.0</ele><time>2026-04-04T10:36:22.828Z</time></trkpt><trkpt lat="42.1652467" lon="14.6668017"><ele>73.0</ele><time>2026-04-04T10:36:23.827Z</time></trkpt><trkpt lat="42.1652617" lon="14.6667017"><ele>73.0</ele><time>2026-04-04T10:36:24.827Z</time></trkpt><trkpt lat="42.16528" lon="14.666605"><ele>73.0</ele><time>2026-04-04T10:36:25.828Z</time></trkpt><trkpt lat="42.1652983" lon="14.6665083"><ele>73.0</ele><time>2026-04-04T10:36:26.827Z</time></trkpt><trkpt lat="42.1653133" lon="14.666415"><ele>73.14285714285714</ele><time>2026-04-04T10:36:27.828Z</time></trkpt><trkpt lat="42.1653333" lon="14.6663217"><ele>73.28571428571429</ele><time>2026-04-04T10:36:28.827Z</time></trkpt><trkpt lat="42.1653517" lon="14.666225"><ele>73.42857142857143</ele><time>2026-04-04T10:36:29.828Z</time></trkpt><trkpt lat="42.1653717" lon="14.6661233"><ele>73.57142857142857</ele><time>2026-04-04T10:36:30.827Z</time></trkpt><trkpt lat="42.1653967" lon="14.66603"><ele>73.71428571428571</ele><time>2026-04-04T10:36:31.827Z</time></trkpt><trkpt lat="42.16542" lon="14.66594"><ele>73.85714285714286</ele><time>2026-04-04T10:36:32.827Z</time></trkpt><trkpt lat="42.1654467" lon="14.6658467"><ele>74.0</ele><time>2026-04-04T10:36:33.827Z</time></trkpt><trkpt lat="42.1654733" lon="14.66576"><ele>74.0</ele><time>2026-04-04T10:36:34.827Z</time></trkpt><trkpt lat="42.1655033" lon="14.6656667"><ele>74.0</ele><time>2026-04-04T10:36:35.827Z</time></trkpt><trkpt lat="42.16553" lon="14.665575"><ele>74.0</ele><time>2026-04-04T10:36:36.827Z</time></trkpt><trkpt lat="42.1655533" lon="14.6654833"><ele>74.0</ele><time>2026-04-04T10:36:37.827Z</time></trkpt><trkpt lat="42.1655783" lon="14.6653933"><ele>74.0</ele><time>2026-04-04T10:36:38.827Z</time></trkpt><trkpt lat="42.1656083" lon="14.6653083"><ele>74.0</ele><time>2026-04-04T10:36:39.827Z</time></trkpt><trkpt lat="42.1656367" lon="14.6652183"><ele>74.0</ele><time>2026-04-04T10:36:40.827Z</time></trkpt><trkpt lat="42.1656633" lon="14.66513"><ele>74.0</ele><time>2026-04-04T10:36:41.828Z</time></trkpt><trkpt lat="42.16569" lon="14.6650367"><ele>74.0</ele><time>2026-04-04T10:36:42.827Z</time></trkpt><trkpt lat="42.165715" lon="14.6649517"><ele>74.0</ele><time>2026-04-04T10:36:43.827Z</time></trkpt><trkpt lat="42.16574" lon="14.6648567"><ele>74.0</ele><time>2026-04-04T10:36:44.827Z</time></trkpt><trkpt lat="42.1657667" lon="14.664765"><ele>74.0</ele><time>2026-04-04T10:36:45.827Z</time></trkpt><trkpt lat="42.165795" lon="14.6646767"><ele>74.0</ele><time>2026-04-04T10:36:46.828Z</time></trkpt><trkpt lat="42.1658183" lon="14.6645883"><ele>74.0</ele><time>2026-04-04T10:36:47.828Z</time></trkpt><trkpt lat="42.16584" lon="14.664505"><ele>74.28571428571429</ele><time>2026-04-04T10:36:48.828Z</time></trkpt><trkpt lat="42.1658633" lon="14.6644167"><ele>74.57142857142857</ele><time>2026-04-04T10:36:49.827Z</time></trkpt><trkpt lat="42.1658883" lon="14.6643317"><ele>74.85714285714286</ele><time>2026-04-04T10:36:50.827Z</time></trkpt><trkpt lat="42.165915" lon="14.6642483"><ele>75.14285714285714</ele><time>2026-04-04T10:36:51.827Z</time></trkpt><trkpt lat="42.165945" lon="14.664155"><ele>75.42857142857143</ele><time>2026-04-04T10:36:52.827Z</time></trkpt><trkpt lat="42.1659717" lon="14.6640717"><ele>75.71428571428571</ele><time>2026-04-04T10:36:53.828Z</time></trkpt><trkpt lat="42.1659983" lon="14.663985"><ele>76.0</ele><time>2026-04-04T10:36:54.827Z</time></trkpt><trkpt lat="42.166025" lon="14.6638933"><ele>76.0</ele><time>2026-04-04T10:36:55.827Z</time></trkpt><trkpt lat="42.1660467" lon="14.66381"><ele>76.0</ele><time>2026-04-04T10:36:56.827Z</time></trkpt><trkpt lat="42.1660717" lon="14.6637183"><ele>76.0</ele><time>2026-04-04T10:36:57.827Z</time></trkpt><trkpt lat="42.1660967" lon="14.663625"><ele>76.0</ele><time>2026-04-04T10:36:58.828Z</time></trkpt><trkpt lat="42.166125" lon="14.663535"><ele>76.0</ele><time>2026-04-04T10:36:59.828Z</time></trkpt><trkpt lat="42.16615" lon="14.66345"><ele>76.0</ele><time>2026-04-04T10:37:00.827Z</time></trkpt><trkpt lat="42.1661767" lon="14.663355"><ele>76.0</ele><time>2026-04-04T10:37:01.827Z</time></trkpt><trkpt lat="42.166205" lon="14.66326"><ele>76.0</ele><time>2026-04-04T10:37:02.827Z</time></trkpt><trkpt lat="42.16623" lon="14.6631667"><ele>76.0</ele><time>2026-04-04T10:37:03.828Z</time></trkpt><trkpt lat="42.1662483" lon="14.6630833"><ele>76.0</ele><time>2026-04-04T10:37:04.827Z</time></trkpt><trkpt lat="42.166295" lon="14.662935"><ele>76.0</ele><time>2026-04-04T10:37:06.827Z</time></trkpt><trkpt lat="42.166365" lon="14.662795"><ele>76.0</ele><time>2026-04-04T10:37:08.828Z</time></trkpt><trkpt lat="42.166415" lon="14.6627367"><ele>76.0</ele><time>2026-04-04T10:37:09.827Z</time></trkpt><trkpt lat="42.16647" lon="14.662685"><ele>76.0</ele><time>2026-04-04T10:37:10.827Z</time></trkpt><trkpt lat="42.1665233" lon="14.6626333"><ele>76.0</ele><time>2026-04-04T10:37:11.827Z</time></trkpt><trkpt lat="42.16657" lon="14.6625683"><ele>76.0</ele><time>2026-04-04T10:37:12.827Z</time></trkpt><trkpt lat="42.1666017" lon="14.6624817"><ele>76.0</ele><time>2026-04-04T10:37:13.828Z</time></trkpt><trkpt lat="42.1666167" lon="14.662385"><ele>76.0</ele><time>2026-04-04T10:37:14.827Z</time></trkpt><trkpt lat="42.166615" lon="14.6622867"><ele>76.0</ele><time>2026-04-04T10:37:15.827Z</time></trkpt><trkpt lat="42.1666067" lon="14.66219"><ele>76.0</ele><time>2026-04-04T10:37:16.827Z</time></trkpt><trkpt lat="42.166595" lon="14.6620817"><ele>75.71428571428571</ele><time>2026-04-04T10:37:17.827Z</time></trkpt><trkpt lat="42.1666017" lon="14.66199"><ele>75.42857142857143</ele><time>2026-04-04T10:37:18.827Z</time></trkpt><trkpt lat="42.1666217" lon="14.6619"><ele>75.14285714285714</ele><time>2026-04-04T10:37:19.827Z</time></trkpt><trkpt lat="42.1666417" lon="14.6618183"><ele>74.85714285714286</ele><time>2026-04-04T10:37:20.827Z</time></trkpt><trkpt lat="42.1666667" lon="14.6617233"><ele>74.57142857142857</ele><time>2026-04-04T10:37:21.828Z</time></trkpt><trkpt lat="42.1666933" lon="14.661635"><ele>74.28571428571429</ele><time>2026-04-04T10:37:22.827Z</time></trkpt><trkpt lat="42.16672" lon="14.6615367"><ele>74.0</ele><time>2026-04-04T10:37:23.827Z</time></trkpt><trkpt lat="42.1667483" lon="14.661445"><ele>74.0</ele><time>2026-04-04T10:37:24.827Z</time></trkpt><trkpt lat="42.166775" lon="14.66135"><ele>74.0</ele><time>2026-04-04T10:37:25.827Z</time></trkpt><trkpt lat="42.1668017" lon="14.6612617"><ele>74.0</ele><time>2026-04-04T10:37:26.827Z</time></trkpt><trkpt lat="42.1668317" lon="14.66117"><ele>74.0</ele><time>2026-04-04T10:37:27.827Z</time></trkpt><trkpt lat="42.166855" lon="14.661085"><ele>74.0</ele><time>2026-04-04T10:37:28.827Z</time></trkpt><trkpt lat="42.1668783" lon="14.6609917"><ele>74.0</ele><time>2026-04-04T10:37:29.827Z</time></trkpt><trkpt lat="42.1669033" lon="14.6609083"><ele>74.0</ele><time>2026-04-04T10:37:30.828Z</time></trkpt><trkpt lat="42.16693" lon="14.660815"><ele>74.5</ele><time>2026-04-04T10:37:31.827Z</time></trkpt><trkpt lat="42.1669583" lon="14.66072"><ele>75.0</ele><time>2026-04-04T10:37:32.827Z</time></trkpt><trkpt lat="42.1669883" lon="14.66062"><ele>75.5</ele><time>2026-04-04T10:37:33.827Z</time></trkpt><trkpt lat="42.1670217" lon="14.6605217"><ele>76.0</ele><time>2026-04-04T10:37:34.827Z</time></trkpt><trkpt lat="42.16705" lon="14.6604183"><ele>76.5</ele><time>2026-04-04T10:37:35.827Z</time></trkpt><trkpt lat="42.1670783" lon="14.6603167"><ele>77.0</ele><time>2026-04-04T10:37:36.827Z</time></trkpt><trkpt lat="42.1671117" lon="14.6602233"><ele>77.4</ele><time>2026-04-04T10:37:37.827Z</time></trkpt><trkpt lat="42.1671367" lon="14.66014"><ele>77.80000000000001</ele><time>2026-04-04T10:37:38.827Z</time></trkpt><trkpt lat="42.167155" lon="14.6600583"><ele>78.2</ele><time>2026-04-04T10:37:39.827Z</time></trkpt><trkpt lat="42.1672017" lon="14.6598917"><ele>78.60000000000001</ele><time>2026-04-04T10:37:41.827Z</time></trkpt><trkpt lat="42.167225" lon="14.6598117"><ele>79.0</ele><time>2026-04-04T10:37:42.827Z</time></trkpt><trkpt lat="42.167275" lon="14.6596583"><ele>79.0</ele><time>2026-04-04T10:37:44.827Z</time></trkpt><trkpt lat="42.167315" lon="14.6595033"><ele>79.0</ele><time>2026-04-04T10:37:46.828Z</time></trkpt><trkpt lat="42.1673367" lon="14.6594167"><ele>79.0</ele><time>2026-04-04T10:37:47.827Z</time></trkpt><trkpt lat="42.16736" lon="14.6593317"><ele>79.0</ele><time>2026-04-04T10:37:48.827Z</time></trkpt><trkpt lat="42.1673867" lon="14.65924"><ele>79.0</ele><time>2026-04-04T10:37:49.827Z</time></trkpt><trkpt lat="42.1674167" lon="14.6591383"><ele>79.0</ele><time>2026-04-04T10:37:50.827Z</time></trkpt><trkpt lat="42.1674433" lon="14.659045"><ele>78.71428571428572</ele><time>2026-04-04T10:37:51.827Z</time></trkpt><trkpt lat="42.167475" lon="14.6589517"><ele>78.42857142857143</ele><time>2026-04-04T10:37:52.827Z</time></trkpt><trkpt lat="42.1674983" lon="14.658865"><ele>78.14285714285714</ele><time>2026-04-04T10:37:53.827Z</time></trkpt><trkpt lat="42.1675217" lon="14.65878"><ele>77.85714285714286</ele><time>2026-04-04T10:37:54.827Z</time></trkpt><trkpt lat="42.1675467" lon="14.658695"><ele>77.57142857142857</ele><time>2026-04-04T10:37:55.827Z</time></trkpt><trkpt lat="42.1675667" lon="14.6586033"><ele>77.28571428571429</ele><time>2026-04-04T10:37:56.828Z</time></trkpt><trkpt lat="42.167595" lon="14.65851"><ele>77.0</ele><time>2026-04-04T10:37:57.827Z</time></trkpt><trkpt lat="42.1676183" lon="14.6584233"><ele>77.0</ele><time>2026-04-04T10:37:58.827Z</time></trkpt><trkpt lat="42.1676383" lon="14.6583367"><ele>77.0</ele><time>2026-04-04T10:37:59.827Z</time></trkpt><trkpt lat="42.1676583" lon="14.6582483"><ele>77.0</ele><time>2026-04-04T10:38:00.827Z</time></trkpt><trkpt lat="42.16768" lon="14.6581683"><ele>77.0</ele><time>2026-04-04T10:38:01.827Z</time></trkpt><trkpt lat="42.1676967" lon="14.6580783"><ele>77.0</ele><time>2026-04-04T10:38:02.827Z</time></trkpt><trkpt lat="42.1677183" lon="14.6579767"><ele>77.0</ele><time>2026-04-04T10:38:03.827Z</time></trkpt><trkpt lat="42.16773" lon="14.6578783"><ele>77.0</ele><time>2026-04-04T10:38:04.827Z</time></trkpt><trkpt lat="42.1677433" lon="14.6577733"><ele>77.5</ele><time>2026-04-04T10:38:05.827Z</time></trkpt><trkpt lat="42.16775" lon="14.657665"><ele>78.0</ele><time>2026-04-04T10:38:06.827Z</time></trkpt><trkpt lat="42.1677533" lon="14.657565"><ele>78.5</ele><time>2026-04-04T10:38:07.827Z</time></trkpt><trkpt lat="42.1677633" lon="14.6574533"><ele>79.0</ele><time>2026-04-04T10:38:08.828Z</time></trkpt><trkpt lat="42.1677667" lon="14.6573583"><ele>79.5</ele><time>2026-04-04T10:38:09.827Z</time></trkpt><trkpt lat="42.167765" lon="14.65725"><ele>80.0</ele><time>2026-04-04T10:38:10.828Z</time></trkpt><trkpt lat="42.1677633" lon="14.6571383"><ele>80.0</ele><time>2026-04-04T10:38:11.827Z</time></trkpt><trkpt lat="42.1677567" lon="14.6570283"><ele>80.0</ele><time>2026-04-04T10:38:12.827Z</time></trkpt><trkpt lat="42.167745" lon="14.6569217"><ele>80.0</ele><time>2026-04-04T10:38:13.828Z</time></trkpt><trkpt lat="42.1677333" lon="14.6568133"><ele>80.0</ele><time>2026-04-04T10:38:14.827Z</time></trkpt><trkpt lat="42.1677167" lon="14.656705"><ele>80.0</ele><time>2026-04-04T10:38:15.827Z</time></trkpt><trkpt lat="42.1676933" lon="14.6565967"><ele>80.0</ele><time>2026-04-04T10:38:16.827Z</time></trkpt><trkpt lat="42.16767" lon="14.6564933"><ele>80.0</ele><time>2026-04-04T10:38:17.828Z</time></trkpt><trkpt lat="42.1676517" lon="14.656385"><ele>80.0</ele><time>2026-04-04T10:38:18.827Z</time></trkpt><trkpt lat="42.167625" lon="14.6562733"><ele>80.0</ele><time>2026-04-04T10:38:19.827Z</time></trkpt><trkpt lat="42.1675983" lon="14.6561633"><ele>80.0</ele><time>2026-04-04T10:38:20.827Z</time></trkpt><trkpt lat="42.1675683" lon="14.6560567"><ele>80.0</ele><time>2026-04-04T10:38:21.828Z</time></trkpt><trkpt lat="42.167545" lon="14.655955"><ele>80.0</ele><time>2026-04-04T10:38:22.827Z</time></trkpt><trkpt lat="42.1675183" lon="14.65585"><ele>78.66666666666667</ele><time>2026-04-04T10:38:23.827Z</time></trkpt><trkpt lat="42.1674767" lon="14.6557433"><ele>77.33333333333334</ele><time>2026-04-04T10:38:24.828Z</time></trkpt><trkpt lat="42.1674433" lon="14.6556367"><ele>76.0</ele><time>2026-04-04T10:38:25.828Z</time></trkpt><trkpt lat="42.1674033" lon="14.6555317"><ele>74.66666666666667</ele><time>2026-04-04T10:38:26.827Z</time></trkpt><trkpt lat="42.167365" lon="14.6554283"><ele>73.33333333333333</ele><time>2026-04-04T10:38:27.828Z</time></trkpt><trkpt lat="42.167325" lon="14.6553233"><ele>72.0</ele><time>2026-04-04T10:38:28.827Z</time></trkpt><trkpt lat="42.1672783" lon="14.6552233"><ele>69.6</ele><time>2026-04-04T10:38:29.827Z</time></trkpt><trkpt lat="42.1672283" lon="14.6551217"><ele>67.2</ele><time>2026-04-04T10:38:30.827Z</time></trkpt><trkpt lat="42.167175" lon="14.65502"><ele>64.8</ele><time>2026-04-04T10:38:31.827Z</time></trkpt><trkpt lat="42.1671183" lon="14.6549217"><ele>62.4</ele><time>2026-04-04T10:38:32.828Z</time></trkpt><trkpt lat="42.167055" lon="14.6548217"><ele>60.0</ele><time>2026-04-04T10:38:33.827Z</time></trkpt><trkpt lat="42.1669867" lon="14.6547267"><ele>60.0</ele><time>2026-04-04T10:38:34.827Z</time></trkpt><trkpt lat="42.1669133" lon="14.6546367"><ele>60.0</ele><time>2026-04-04T10:38:35.827Z</time></trkpt><trkpt lat="42.1668383" lon="14.654545"><ele>60.0</ele><time>2026-04-04T10:38:36.827Z</time></trkpt><trkpt lat="42.1667633" lon="14.6544583"><ele>60.0</ele><time>2026-04-04T10:38:37.827Z</time></trkpt><trkpt lat="42.166685" lon="14.6543733"><ele>60.0</ele><time>2026-04-04T10:38:38.827Z</time></trkpt><trkpt lat="42.1666" lon="14.654295"><ele>61.6</ele><time>2026-04-04T10:38:39.827Z</time></trkpt><trkpt lat="42.166515" lon="14.654215"><ele>63.2</ele><time>2026-04-04T10:38:40.828Z</time></trkpt><trkpt lat="42.1664267" lon="14.6541367"><ele>64.8</ele><time>2026-04-04T10:38:41.827Z</time></trkpt><trkpt lat="42.1663333" lon="14.6540617"><ele>66.4</ele><time>2026-04-04T10:38:42.827Z</time></trkpt><trkpt lat="42.16624" lon="14.6539833"><ele>68.0</ele><time>2026-04-04T10:38:43.827Z</time></trkpt><trkpt lat="42.1661433" lon="14.653905"><ele>68.0</ele><time>2026-04-04T10:38:44.827Z</time></trkpt><trkpt lat="42.1660467" lon="14.653825"><ele>68.0</ele><time>2026-04-04T10:38:45.827Z</time></trkpt><trkpt lat="42.1659533" lon="14.653745"><ele>68.0</ele><time>2026-04-04T10:38:46.827Z</time></trkpt><trkpt lat="42.1658567" lon="14.653665"><ele>68.0</ele><time>2026-04-04T10:38:47.827Z</time></trkpt><trkpt lat="42.16576" lon="14.653585"><ele>65.75</ele><time>2026-04-04T10:38:48.827Z</time></trkpt><trkpt lat="42.1656667" lon="14.6534967"><ele>63.5</ele><time>2026-04-04T10:38:49.827Z</time></trkpt><trkpt lat="42.16557" lon="14.653415"><ele>61.25</ele><time>2026-04-04T10:38:50.828Z</time></trkpt><trkpt lat="42.1654717" lon="14.6533317"><ele>59.0</ele><time>2026-04-04T10:38:51.827Z</time></trkpt><trkpt lat="42.1653733" lon="14.65325"><ele>59.0</ele><time>2026-04-04T10:38:52.827Z</time></trkpt><trkpt lat="42.1652783" lon="14.6531667"><ele>59.0</ele><time>2026-04-04T10:38:53.828Z</time></trkpt><trkpt lat="42.165175" lon="14.6530833"><ele>59.0</ele><time>2026-04-04T10:38:54.827Z</time></trkpt><trkpt lat="42.1650767" lon="14.6529917"><ele>59.0</ele><time>2026-04-04T10:38:55.827Z</time></trkpt><trkpt lat="42.1649783" lon="14.6528917"><ele>59.0</ele><time>2026-04-04T10:38:56.827Z</time></trkpt><trkpt lat="42.164885" lon="14.65279"><ele>59.0</ele><time>2026-04-04T10:38:57.827Z</time></trkpt><trkpt lat="42.1647917" lon="14.6526783"><ele>59.0</ele><time>2026-04-04T10:38:58.827Z</time></trkpt><trkpt lat="42.164705" lon="14.652565"><ele>59.0</ele><time>2026-04-04T10:38:59.827Z</time></trkpt><trkpt lat="42.1646167" lon="14.6524383"><ele>55.0</ele><time>2026-04-04T10:39:00.828Z</time></trkpt><trkpt lat="42.1645317" lon="14.6523217"><ele>51.0</ele><time>2026-04-04T10:39:01.827Z</time></trkpt><trkpt lat="42.1644567" lon="14.6521933"><ele>47.0</ele><time>2026-04-04T10:39:02.827Z</time></trkpt><trkpt lat="42.1643817" lon="14.6520567"><ele>43.0</ele><time>2026-04-04T10:39:03.827Z</time></trkpt><trkpt lat="42.1643117" lon="14.6519133"><ele>39.75</ele><time>2026-04-04T10:39:04.827Z</time></trkpt><trkpt lat="42.16425" lon="14.651765"><ele>36.5</ele><time>2026-04-04T10:39:05.827Z</time></trkpt><trkpt lat="42.164195" lon="14.651625"><ele>33.25</ele><time>2026-04-04T10:39:06.827Z</time></trkpt><trkpt lat="42.1641367" lon="14.6514733"><ele>30.0</ele><time>2026-04-04T10:39:07.827Z</time></trkpt><trkpt lat="42.1640833" lon="14.651325"><ele>30.0</ele><time>2026-04-04T10:39:08.827Z</time></trkpt><trkpt lat="42.164035" lon="14.6511683"><ele>30.0</ele><time>2026-04-04T10:39:09.828Z</time></trkpt><trkpt lat="42.1639883" lon="14.6510067"><ele>30.0</ele><time>2026-04-04T10:39:10.827Z</time></trkpt><trkpt lat="42.1639467" lon="14.6508483"><ele>30.0</ele><time>2026-04-04T10:39:11.827Z</time></trkpt><trkpt lat="42.1639083" lon="14.6506867"><ele>28.0</ele><time>2026-04-04T10:39:12.828Z</time></trkpt><trkpt lat="42.16388" lon="14.6505267"><ele>26.0</ele><time>2026-04-04T10:39:13.828Z</time></trkpt><trkpt lat="42.163855" lon="14.6503717"><ele>24.0</ele><time>2026-04-04T10:39:14.827Z</time></trkpt><trkpt lat="42.1638367" lon="14.6502133"><ele>22.0</ele><time>2026-04-04T10:39:15.827Z</time></trkpt><trkpt lat="42.16382" lon="14.650055"><ele>22.0</ele><time>2026-04-04T10:39:16.828Z</time></trkpt><trkpt lat="42.1638117" lon="14.6498967"><ele>22.0</ele><time>2026-04-04T10:39:17.828Z</time></trkpt><trkpt lat="42.1638067" lon="14.6497433"><ele>22.0</ele><time>2026-04-04T10:39:18.827Z</time></trkpt><trkpt lat="42.163805" lon="14.649585"><ele>22.0</ele><time>2026-04-04T10:39:19.828Z</time></trkpt><trkpt lat="42.1638083" lon="14.64943"><ele>22.0</ele><time>2026-04-04T10:39:20.827Z</time></trkpt><trkpt lat="42.16382" lon="14.649285"><ele>22.0</ele><time>2026-04-04T10:39:21.827Z</time></trkpt><trkpt lat="42.16383" lon="14.6491367"><ele>22.0</ele><time>2026-04-04T10:39:22.827Z</time></trkpt><trkpt lat="42.16384" lon="14.6489917"><ele>22.0</ele><time>2026-04-04T10:39:23.827Z</time></trkpt><trkpt lat="42.16386" lon="14.6488483"><ele>22.0</ele><time>2026-04-04T10:39:24.828Z</time></trkpt><trkpt lat="42.1638767" lon="14.648705"><ele>22.0</ele><time>2026-04-04T10:39:25.827Z</time></trkpt><trkpt lat="42.1638917" lon="14.6485667"><ele>22.0</ele><time>2026-04-04T10:39:26.827Z</time></trkpt><trkpt lat="42.163905" lon="14.6484367"><ele>22.0</ele><time>2026-04-04T10:39:27.827Z</time></trkpt><trkpt lat="42.1639167" lon="14.6483117"><ele>22.0</ele><time>2026-04-04T10:39:28.827Z</time></trkpt><trkpt lat="42.16393" lon="14.6481817"><ele>22.0</ele><time>2026-04-04T10:39:29.827Z</time></trkpt><trkpt lat="42.1639383" lon="14.648055"><ele>22.0</ele><time>2026-04-04T10:39:30.827Z</time></trkpt><trkpt lat="42.163945" lon="14.6479333"><ele>22.0</ele><time>2026-04-04T10:39:31.827Z</time></trkpt><trkpt lat="42.1639583" lon="14.64781"><ele>22.0</ele><time>2026-04-04T10:39:32.827Z</time></trkpt><trkpt lat="42.16397" lon="14.64769"><ele>22.0</ele><time>2026-04-04T10:39:33.828Z</time></trkpt><trkpt lat="42.1639833" lon="14.6475733"><ele>22.0</ele><time>2026-04-04T10:39:34.828Z</time></trkpt><trkpt lat="42.1639917" lon="14.647455"><ele>22.0</ele><time>2026-04-04T10:39:35.827Z</time></trkpt><trkpt lat="42.164" lon="14.6473317"><ele>21.666666666666664</ele><time>2026-04-04T10:39:36.828Z</time></trkpt><trkpt lat="42.1640133" lon="14.6472117"><ele>21.333333333333332</ele><time>2026-04-04T10:39:37.827Z</time></trkpt><trkpt lat="42.16402" lon="14.64709"><ele>21.0</ele><time>2026-04-04T10:39:38.828Z</time></trkpt><trkpt lat="42.1640283" lon="14.646975"><ele>20.666666666666668</ele><time>2026-04-04T10:39:39.827Z</time></trkpt><trkpt lat="42.1640317" lon="14.6468633"><ele>20.333333333333336</ele><time>2026-04-04T10:39:40.827Z</time></trkpt><trkpt lat="42.1640417" lon="14.6467517"><ele>20.0</ele><time>2026-04-04T10:39:41.827Z</time></trkpt><trkpt lat="42.16405" lon="14.6466283"><ele>20.0</ele><time>2026-04-04T10:39:42.827Z</time></trkpt><trkpt lat="42.1640583" lon="14.6465083"><ele>20.0</ele><time>2026-04-04T10:39:43.827Z</time></trkpt><trkpt lat="42.1640683" lon="14.6464"><ele>20.0</ele><time>2026-04-04T10:39:44.827Z</time></trkpt><trkpt lat="42.16407" lon="14.6462767"><ele>20.0</ele><time>2026-04-04T10:39:45.828Z</time></trkpt><trkpt lat="42.1640733" lon="14.64616"><ele>20.0</ele><time>2026-04-04T10:39:46.827Z</time></trkpt><trkpt lat="42.1640717" lon="14.6460433"><ele>20.0</ele><time>2026-04-04T10:39:47.828Z</time></trkpt><trkpt lat="42.1640667" lon="14.64593"><ele>19.857142857142858</ele><time>2026-04-04T10:39:48.827Z</time></trkpt><trkpt lat="42.1640633" lon="14.6458233"><ele>19.714285714285715</ele><time>2026-04-04T10:39:49.827Z</time></trkpt><trkpt lat="42.1640583" lon="14.6457167"><ele>19.57142857142857</ele><time>2026-04-04T10:39:50.827Z</time></trkpt><trkpt lat="42.1640517" lon="14.6456133"><ele>19.42857142857143</ele><time>2026-04-04T10:39:51.827Z</time></trkpt><trkpt lat="42.16405" lon="14.645515"><ele>19.28571428571429</ele><time>2026-04-04T10:39:52.827Z</time></trkpt><trkpt lat="42.16405" lon="14.6454233"><ele>19.142857142857142</ele><time>2026-04-04T10:39:53.827Z</time></trkpt><trkpt lat="42.1640533" lon="14.6453367"><ele>19.0</ele><time>2026-04-04T10:39:54.828Z</time></trkpt><trkpt lat="42.1640517" lon="14.6452433"><ele>18.666666666666664</ele><time>2026-04-04T10:39:55.828Z</time></trkpt><trkpt lat="42.1640533" lon="14.6451417"><ele>18.333333333333332</ele><time>2026-04-04T10:39:56.827Z</time></trkpt><trkpt lat="42.1640483" lon="14.645035"><ele>18.0</ele><time>2026-04-04T10:39:57.827Z</time></trkpt><trkpt lat="42.1640467" lon="14.64493"><ele>17.666666666666668</ele><time>2026-04-04T10:39:58.827Z</time></trkpt><trkpt lat="42.1640467" lon="14.6448217"><ele>17.333333333333336</ele><time>2026-04-04T10:39:59.827Z</time></trkpt><trkpt lat="42.164045" lon="14.6447083"><ele>17.0</ele><time>2026-04-04T10:40:00.827Z</time></trkpt><trkpt lat="42.16404" lon="14.6446"><ele>17.0</ele><time>2026-04-04T10:40:01.827Z</time></trkpt><trkpt lat="42.164035" lon="14.6444933"><ele>17.0</ele><time>2026-04-04T10:40:02.827Z</time></trkpt><trkpt lat="42.16403" lon="14.6443867"><ele>17.0</ele><time>2026-04-04T10:40:03.827Z</time></trkpt><trkpt lat="42.1640217" lon="14.6442817"><ele>17.0</ele><time>2026-04-04T10:40:04.827Z</time></trkpt><trkpt lat="42.1640133" lon="14.6441833"><ele>17.0</ele><time>2026-04-04T10:40:05.827Z</time></trkpt><trkpt lat="42.1640133" lon="14.6440833"><ele>17.0</ele><time>2026-04-04T10:40:06.827Z</time></trkpt><trkpt lat="42.1640133" lon="14.6439867"><ele>17.0</ele><time>2026-04-04T10:40:07.827Z</time></trkpt><trkpt lat="42.16401" lon="14.6438967"><ele>17.0</ele><time>2026-04-04T10:40:08.827Z</time></trkpt><trkpt lat="42.1639983" lon="14.6438083"><ele>17.0</ele><time>2026-04-04T10:40:09.828Z</time></trkpt><trkpt lat="42.1639933" lon="14.643715"><ele>17.0</ele><time>2026-04-04T10:40:10.827Z</time></trkpt><trkpt lat="42.1639833" lon="14.6436233"><ele>17.0</ele><time>2026-04-04T10:40:11.828Z</time></trkpt><trkpt lat="42.1639767" lon="14.643465"><ele>17.0</ele><time>2026-04-04T10:40:13.827Z</time></trkpt><trkpt lat="42.1639717" lon="14.6433783"><ele>17.428571428571427</ele><time>2026-04-04T10:40:14.827Z</time></trkpt><trkpt lat="42.163975" lon="14.6432917"><ele>17.857142857142858</ele><time>2026-04-04T10:40:15.828Z</time></trkpt><trkpt lat="42.1639767" lon="14.6431983"><ele>18.285714285714285</ele><time>2026-04-04T10:40:16.827Z</time></trkpt><trkpt lat="42.16398" lon="14.64311"><ele>18.714285714285715</ele><time>2026-04-04T10:40:17.827Z</time></trkpt><trkpt lat="42.163985" lon="14.64302"><ele>19.142857142857142</ele><time>2026-04-04T10:40:18.827Z</time></trkpt><trkpt lat="42.163985" lon="14.6429217"><ele>19.57142857142857</ele><time>2026-04-04T10:40:19.827Z</time></trkpt><trkpt lat="42.1639817" lon="14.642825"><ele>20.0</ele><time>2026-04-04T10:40:20.828Z</time></trkpt><trkpt lat="42.1639783" lon="14.6427333"><ele>20.0</ele><time>2026-04-04T10:40:21.827Z</time></trkpt><trkpt lat="42.1639733" lon="14.6426367"><ele>20.0</ele><time>2026-04-04T10:40:22.827Z</time></trkpt><trkpt lat="42.1639683" lon="14.6425383"><ele>20.0</ele><time>2026-04-04T10:40:23.827Z</time></trkpt><trkpt lat="42.1639683" lon="14.6424417"><ele>20.0</ele><time>2026-04-04T10:40:24.827Z</time></trkpt><trkpt lat="42.1639717" lon="14.6423467"><ele>20.0</ele><time>2026-04-04T10:40:25.827Z</time></trkpt><trkpt lat="42.16398" lon="14.6422567"><ele>20.0</ele><time>2026-04-04T10:40:26.828Z</time></trkpt><trkpt lat="42.163985" lon="14.6420983"><ele>20.0</ele><time>2026-04-04T10:40:28.827Z</time></trkpt><trkpt lat="42.1639933" lon="14.6419517"><ele>20.0</ele><time>2026-04-04T10:40:30.827Z</time></trkpt><trkpt lat="42.164005" lon="14.64181"><ele>20.0</ele><time>2026-04-04T10:40:32.827Z</time></trkpt><trkpt lat="42.16402" lon="14.6416583"><ele>20.0</ele><time>2026-04-04T10:40:34.827Z</time></trkpt><trkpt lat="42.1640433" lon="14.64152"><ele>20.0</ele><time>2026-04-04T10:40:36.827Z</time></trkpt><trkpt lat="42.1640683" lon="14.6414417"><ele>20.0</ele><time>2026-04-04T10:40:38.827Z</time></trkpt><trkpt lat="42.1641083" lon="14.64134"><ele>20.0</ele><time>2026-04-04T10:40:41.827Z</time></trkpt><trkpt lat="42.16417" lon="14.6412533"><ele>20.0</ele><time>2026-04-04T10:40:43.827Z</time></trkpt><trkpt lat="42.16425" lon="14.6411467"><ele>20.0</ele><time>2026-04-04T10:40:45.827Z</time></trkpt><trkpt lat="42.1643083" lon="14.6409867"><ele>20.0</ele><time>2026-04-04T10:40:47.827Z</time></trkpt><trkpt lat="42.164315" lon="14.64089"><ele>20.0</ele><time>2026-04-04T10:40:48.827Z</time></trkpt><trkpt lat="42.1642983" lon="14.640805"><ele>20.0</ele><time>2026-04-04T10:40:49.827Z</time></trkpt><trkpt lat="42.1642633" lon="14.6407283"><ele>20.0</ele><time>2026-04-04T10:40:50.827Z</time></trkpt><trkpt lat="42.1642133" lon="14.6406683"><ele>20.0</ele><time>2026-04-04T10:40:51.828Z</time></trkpt><trkpt lat="42.16415" lon="14.6406317"><ele>20.0</ele><time>2026-04-04T10:40:52.828Z</time></trkpt><trkpt lat="42.164075" lon="14.640615"><ele>20.0</ele><time>2026-04-04T10:40:53.827Z</time></trkpt><trkpt lat="42.164" lon="14.6406133"><ele>20.0</ele><time>2026-04-04T10:40:54.828Z</time></trkpt><trkpt lat="42.163925" lon="14.6406167"><ele>20.0</ele><time>2026-04-04T10:40:55.827Z</time></trkpt><trkpt lat="42.1638183" lon="14.64059"><ele>20.0</ele><time>2026-04-04T10:40:57.827Z</time></trkpt><trkpt lat="42.1637433" lon="14.64052"><ele>20.0</ele><time>2026-04-04T10:40:59.827Z</time></trkpt><trkpt lat="42.1636833" lon="14.6404083"><ele>20.0</ele><time>2026-04-04T10:41:01.827Z</time></trkpt><trkpt lat="42.1636367" lon="14.6402617"><ele>20.0</ele><time>2026-04-04T10:41:03.827Z</time></trkpt><trkpt lat="42.1635533" lon="14.6401367"><ele>20.0</ele><time>2026-04-04T10:41:05.827Z</time></trkpt><trkpt lat="42.1634433" lon="14.6400433"><ele>20.0</ele><time>2026-04-04T10:41:07.827Z</time></trkpt><trkpt lat="42.1633933" lon="14.63998"><ele>20.0</ele><time>2026-04-04T10:41:08.827Z</time></trkpt><trkpt lat="42.16335" lon="14.6399067"><ele>20.0</ele><time>2026-04-04T10:41:09.827Z</time></trkpt><trkpt lat="42.163305" lon="14.6398333"><ele>20.0</ele><time>2026-04-04T10:41:10.828Z</time></trkpt><trkpt lat="42.163255" lon="14.6397617"><ele>20.0</ele><time>2026-04-04T10:41:11.827Z</time></trkpt><trkpt lat="42.1631983" lon="14.639695"><ele>20.166666666666668</ele><time>2026-04-04T10:41:12.827Z</time></trkpt><trkpt lat="42.16314" lon="14.6396383"><ele>20.333333333333336</ele><time>2026-04-04T10:41:13.828Z</time></trkpt><trkpt lat="42.163065" lon="14.639595"><ele>20.5</ele><time>2026-04-04T10:41:14.827Z</time></trkpt><trkpt lat="42.1629867" lon="14.6395633"><ele>20.666666666666668</ele><time>2026-04-04T10:41:15.827Z</time></trkpt><trkpt lat="42.162905" lon="14.639535"><ele>20.833333333333332</ele><time>2026-04-04T10:41:16.828Z</time></trkpt><trkpt lat="42.162835" lon="14.6395067"><ele>21.0</ele><time>2026-04-04T10:41:17.827Z</time></trkpt><trkpt lat="42.1627717" lon="14.6394683"><ele>21.142857142857142</ele><time>2026-04-04T10:41:18.827Z</time></trkpt><trkpt lat="42.16271" lon="14.6394233"><ele>21.285714285714285</ele><time>2026-04-04T10:41:19.827Z</time></trkpt><trkpt lat="42.1626567" lon="14.6393617"><ele>21.42857142857143</ele><time>2026-04-04T10:41:20.828Z</time></trkpt><trkpt lat="42.1626033" lon="14.6392917"><ele>21.57142857142857</ele><time>2026-04-04T10:41:21.827Z</time></trkpt><trkpt lat="42.1625617" lon="14.6392167"><ele>21.714285714285715</ele><time>2026-04-04T10:41:22.827Z</time></trkpt><trkpt lat="42.16252" lon="14.63914"><ele>21.857142857142858</ele><time>2026-04-04T10:41:23.828Z</time></trkpt><trkpt lat="42.1624817" lon="14.6390617"><ele>22.0</ele><time>2026-04-04T10:41:24.827Z</time></trkpt><trkpt lat="42.1624533" lon="14.6389767"><ele>22.0</ele><time>2026-04-04T10:41:25.827Z</time></trkpt><trkpt lat="42.1624367" lon="14.6388933"><ele>22.0</ele><time>2026-04-04T10:41:26.827Z</time></trkpt><trkpt lat="42.1624433" lon="14.6387183"><ele>22.0</ele><time>2026-04-04T10:41:28.827Z</time></trkpt><trkpt lat="42.1624683" lon="14.6386333"><ele>22.0</ele><time>2026-04-04T10:41:29.827Z</time></trkpt><trkpt lat="42.1625083" lon="14.6385567"><ele>22.0</ele><time>2026-04-04T10:41:30.827Z</time></trkpt><trkpt lat="42.1625983" lon="14.6384433"><ele>22.666666666666664</ele><time>2026-04-04T10:41:32.828Z</time></trkpt><trkpt lat="42.16265" lon="14.6383883"><ele>23.333333333333332</ele><time>2026-04-04T10:41:33.827Z</time></trkpt><trkpt lat="42.1627033" lon="14.63834"><ele>24.0</ele><time>2026-04-04T10:41:34.827Z</time></trkpt><trkpt lat="42.1627617" lon="14.63829"><ele>24.666666666666664</ele><time>2026-04-04T10:41:35.827Z</time></trkpt><trkpt lat="42.16282" lon="14.6382433"><ele>25.333333333333332</ele><time>2026-04-04T10:41:36.827Z</time></trkpt><trkpt lat="42.1629267" lon="14.638165"><ele>26.0</ele><time>2026-04-04T10:41:38.828Z</time></trkpt><trkpt lat="42.1629867" lon="14.638125"><ele>26.0</ele><time>2026-04-04T10:41:39.827Z</time></trkpt><trkpt lat="42.163095" lon="14.6380567"><ele>26.0</ele><time>2026-04-04T10:41:41.827Z</time></trkpt><trkpt lat="42.1631983" lon="14.6379883"><ele>26.0</ele><time>2026-04-04T10:41:43.828Z</time></trkpt><trkpt lat="42.1632983" lon="14.6378983"><ele>26.0</ele><time>2026-04-04T10:41:45.827Z</time></trkpt><trkpt lat="42.1633883" lon="14.637795"><ele>26.6</ele><time>2026-04-04T10:41:47.827Z</time></trkpt><trkpt lat="42.1634317" lon="14.6377317"><ele>27.200000000000003</ele><time>2026-04-04T10:41:48.827Z</time></trkpt><trkpt lat="42.16351" lon="14.6376033"><ele>27.799999999999997</ele><time>2026-04-04T10:41:50.827Z</time></trkpt><trkpt lat="42.1635767" lon="14.637475"><ele>28.4</ele><time>2026-04-04T10:41:52.827Z</time></trkpt><trkpt lat="42.1636483" lon="14.6373383"><ele>29.0</ele><time>2026-04-04T10:41:54.827Z</time></trkpt><trkpt lat="42.1637" lon="14.6372017"><ele>29.0</ele><time>2026-04-04T10:41:56.827Z</time></trkpt><trkpt lat="42.163715" lon="14.6370483"><ele>29.0</ele><time>2026-04-04T10:41:58.827Z</time></trkpt><trkpt lat="42.16368" lon="14.6368833"><ele>29.0</ele><time>2026-04-04T10:42:00.827Z</time></trkpt><trkpt lat="42.16364" lon="14.6368083"><ele>29.0</ele><time>2026-04-04T10:42:01.827Z</time></trkpt><trkpt lat="42.1636033" lon="14.6367333"><ele>29.0</ele><time>2026-04-04T10:42:02.827Z</time></trkpt><trkpt lat="42.163535" lon="14.636595"><ele>30.0</ele><time>2026-04-04T10:42:04.828Z</time></trkpt><trkpt lat="42.1634667" lon="14.636455"><ele>31.0</ele><time>2026-04-04T10:42:06.827Z</time></trkpt><trkpt lat="42.1633967" lon="14.6363167"><ele>32.0</ele><time>2026-04-04T10:42:08.827Z</time></trkpt><trkpt lat="42.163365" lon="14.6362433"><ele>33.0</ele><time>2026-04-04T10:42:09.827Z</time></trkpt><trkpt lat="42.1632917" lon="14.636115"><ele>34.0</ele><time>2026-04-04T10:42:11.827Z</time></trkpt><trkpt lat="42.163225" lon="14.63598"><ele>34.75</ele><time>2026-04-04T10:42:13.828Z</time></trkpt><trkpt lat="42.1631583" lon="14.6358433"><ele>35.5</ele><time>2026-04-04T10:42:15.828Z</time></trkpt><trkpt lat="42.1630883" lon="14.63572"><ele>36.25</ele><time>2026-04-04T10:42:17.828Z</time></trkpt><trkpt lat="42.1630017" lon="14.6356017"><ele>37.0</ele><time>2026-04-04T10:42:19.827Z</time></trkpt><trkpt lat="42.1629017" lon="14.6355017"><ele>37.0</ele><time>2026-04-04T10:42:21.827Z</time></trkpt><trkpt lat="42.162845" lon="14.6354567"><ele>37.0</ele><time>2026-04-04T10:42:22.827Z</time></trkpt><trkpt lat="42.162785" lon="14.6354183"><ele>37.0</ele><time>2026-04-04T10:42:23.827Z</time></trkpt><trkpt lat="42.162665" lon="14.6353567"><ele>37.0</ele><time>2026-04-04T10:42:25.827Z</time></trkpt><trkpt lat="42.1626" lon="14.6353367"><ele>37.0</ele><time>2026-04-04T10:42:26.827Z</time></trkpt><trkpt lat="42.1625383" lon="14.6353117"><ele>37.0</ele><time>2026-04-04T10:42:27.827Z</time></trkpt><trkpt lat="42.1624183" lon="14.6352617"><ele>39.0</ele><time>2026-04-04T10:42:29.827Z</time></trkpt><trkpt lat="42.1623583" lon="14.635235"><ele>41.0</ele><time>2026-04-04T10:42:30.828Z</time></trkpt><trkpt lat="42.1622467" lon="14.63517"><ele>43.0</ele><time>2026-04-04T10:42:32.827Z</time></trkpt><trkpt lat="42.1621917" lon="14.6351267"><ele>45.0</ele><time>2026-04-04T10:42:33.827Z</time></trkpt><trkpt lat="42.16209" lon="14.6350317"><ele>47.0</ele><time>2026-04-04T10:42:35.828Z</time></trkpt><trkpt lat="42.1620067" lon="14.6349433"><ele>47.0</ele><time>2026-04-04T10:42:37.828Z</time></trkpt><trkpt lat="42.161915" lon="14.6348617"><ele>47.0</ele><time>2026-04-04T10:42:39.827Z</time></trkpt><trkpt lat="42.1618383" lon="14.63479"><ele>47.0</ele><time>2026-04-04T10:42:41.827Z</time></trkpt><trkpt lat="42.16173" lon="14.6346883"><ele>47.0</ele><time>2026-04-04T10:42:43.827Z</time></trkpt><trkpt lat="42.1616833" lon="14.6346267"><ele>47.0</ele><time>2026-04-04T10:42:44.827Z</time></trkpt><trkpt lat="42.1616583" lon="14.6345383"><ele>47.6</ele><time>2026-04-04T10:42:45.828Z</time></trkpt><trkpt lat="42.1616183" lon="14.6343817"><ele>48.2</ele><time>2026-04-04T10:42:47.827Z</time></trkpt><trkpt lat="42.161615" lon="14.63424"><ele>48.8</ele><time>2026-04-04T10:42:49.827Z</time></trkpt><trkpt lat="42.1616367" lon="14.6341033"><ele>49.4</ele><time>2026-04-04T10:42:51.827Z</time></trkpt><trkpt lat="42.1616917" lon="14.633985"><ele>50.0</ele><time>2026-04-04T10:42:53.827Z</time></trkpt><trkpt lat="42.1617683" lon="14.633875"><ele>50.0</ele><time>2026-04-04T10:42:55.827Z</time></trkpt><trkpt lat="42.1618417" lon="14.633735"><ele>50.0</ele><time>2026-04-04T10:42:57.827Z</time></trkpt><trkpt lat="42.1619183" lon="14.6336"><ele>50.0</ele><time>2026-04-04T10:42:59.827Z</time></trkpt><trkpt lat="42.1620017" lon="14.6334783"><ele>50.0</ele><time>2026-04-04T10:43:01.828Z</time></trkpt><trkpt lat="42.1620817" lon="14.633355"><ele>50.5</ele><time>2026-04-04T10:43:03.827Z</time></trkpt><trkpt lat="42.1621633" lon="14.63323"><ele>51.0</ele><time>2026-04-04T10:43:05.827Z</time></trkpt><trkpt lat="42.162245" lon="14.6331033"><ele>51.5</ele><time>2026-04-04T10:43:07.828Z</time></trkpt><trkpt lat="42.1623233" lon="14.632985"><ele>52.0</ele><time>2026-04-04T10:43:09.828Z</time></trkpt><trkpt lat="42.1624033" lon="14.6328633"><ele>53.0</ele><time>2026-04-04T10:43:11.828Z</time></trkpt><trkpt lat="42.162485" lon="14.63274"><ele>54.0</ele><time>2026-04-04T10:43:13.827Z</time></trkpt><trkpt lat="42.1625683" lon="14.6326267"><ele>55.0</ele><time>2026-04-04T10:43:15.827Z</time></trkpt><trkpt lat="42.1626567" lon="14.6325183"><ele>56.0</ele><time>2026-04-04T10:43:17.827Z</time></trkpt><trkpt lat="42.1627467" lon="14.6324167"><ele>56.0</ele><time>2026-04-04T10:43:19.827Z</time></trkpt><trkpt lat="42.1628333" lon="14.6323183"><ele>55.99999999999999</ele><time>2026-04-04T10:43:21.827Z</time></trkpt><trkpt lat="42.1629117" lon="14.6322233"><ele>55.99999999999999</ele><time>2026-04-04T10:43:23.827Z</time></trkpt><trkpt lat="42.1629617" lon="14.6320867"><ele>56.0</ele><time>2026-04-04T10:43:25.828Z</time></trkpt><trkpt lat="42.1629633" lon="14.6319467"><ele>56.0</ele><time>2026-04-04T10:43:27.827Z</time></trkpt><trkpt lat="42.162905" lon="14.6318167"><ele>57.599999999999994</ele><time>2026-04-04T10:43:29.827Z</time></trkpt><trkpt lat="42.162795" lon="14.6317467"><ele>59.199999999999996</ele><time>2026-04-04T10:43:31.828Z</time></trkpt><trkpt lat="42.1626783" lon="14.6317417"><ele>60.800000000000004</ele><time>2026-04-04T10:43:33.828Z</time></trkpt><trkpt lat="42.16256" lon="14.6317817"><ele>62.400000000000006</ele><time>2026-04-04T10:43:35.827Z</time></trkpt><trkpt lat="42.1625033" lon="14.63182"><ele>64.0</ele><time>2026-04-04T10:43:36.827Z</time></trkpt><trkpt lat="42.162445" lon="14.6318583"><ele>64.5</ele><time>2026-04-04T10:43:37.827Z</time></trkpt><trkpt lat="42.16234" lon="14.631935"><ele>65.0</ele><time>2026-04-04T10:43:39.827Z</time></trkpt><trkpt lat="42.1622383" lon="14.6320117"><ele>65.5</ele><time>2026-04-04T10:43:41.828Z</time></trkpt><trkpt lat="42.1621333" lon="14.632095"><ele>66.0</ele><time>2026-04-04T10:43:43.827Z</time></trkpt><trkpt lat="42.1620367" lon="14.6321683"><ele>66.0</ele><time>2026-04-04T10:43:45.827Z</time></trkpt><trkpt lat="42.1619367" lon="14.6322467"><ele>66.0</ele><time>2026-04-04T10:43:47.827Z</time></trkpt><trkpt lat="42.1618367" lon="14.632325"><ele>66.0</ele><time>2026-04-04T10:43:49.827Z</time></trkpt><trkpt lat="42.1617317" lon="14.63241"><ele>66.0</ele><time>2026-04-04T10:43:51.827Z</time></trkpt><trkpt lat="42.16163" lon="14.6324883"><ele>66.0</ele><time>2026-04-04T10:43:53.827Z</time></trkpt><trkpt lat="42.1615367" lon="14.632565"><ele>66.0</ele><time>2026-04-04T10:43:55.827Z</time></trkpt><trkpt lat="42.1614317" lon="14.6326367"><ele>66.0</ele><time>2026-04-04T10:43:57.827Z</time></trkpt><trkpt lat="42.1613717" lon="14.63267"><ele>66.0</ele><time>2026-04-04T10:43:58.828Z</time></trkpt><trkpt lat="42.1612683" lon="14.632745"><ele>66.0</ele><time>2026-04-04T10:44:00.827Z</time></trkpt><trkpt lat="42.1611617" lon="14.6328133"><ele>65.0</ele><time>2026-04-04T10:44:02.827Z</time></trkpt><trkpt lat="42.1610533" lon="14.632875"><ele>64.0</ele><time>2026-04-04T10:44:04.827Z</time></trkpt><trkpt lat="42.1609417" lon="14.632935"><ele>63.0</ele><time>2026-04-04T10:44:06.828Z</time></trkpt><trkpt lat="42.1608333" lon="14.6329767"><ele>62.0</ele><time>2026-04-04T10:44:08.827Z</time></trkpt><trkpt lat="42.1607167" lon="14.6329617"><ele>62.0</ele><time>2026-04-04T10:44:10.828Z</time></trkpt><trkpt lat="42.1606567" lon="14.6329283"><ele>62.0</ele><time>2026-04-04T10:44:11.827Z</time></trkpt><trkpt lat="42.16059" lon="14.6328033"><ele>62.0</ele><time>2026-04-04T10:44:13.827Z</time></trkpt><trkpt lat="42.1605367" lon="14.6326617"><ele>62.0</ele><time>2026-04-04T10:44:15.827Z</time></trkpt><trkpt lat="42.1605033" lon="14.632515"><ele>62.0</ele><time>2026-04-04T10:44:17.827Z</time></trkpt><trkpt lat="42.1604867" lon="14.632375"><ele>62.0</ele><time>2026-04-04T10:44:19.827Z</time></trkpt><trkpt lat="42.1604733" lon="14.6322267"><ele>62.0</ele><time>2026-04-04T10:44:21.827Z</time></trkpt><trkpt lat="42.1604533" lon="14.63207"><ele>62.0</ele><time>2026-04-04T10:44:23.827Z</time></trkpt><trkpt lat="42.160435" lon="14.6319267"><ele>62.0</ele><time>2026-04-04T10:44:25.827Z</time></trkpt><trkpt lat="42.1604167" lon="14.6317783"><ele>62.0</ele><time>2026-04-04T10:44:27.827Z</time></trkpt><trkpt lat="42.1603867" lon="14.6316167"><ele>63.6</ele><time>2026-04-04T10:44:29.827Z</time></trkpt><trkpt lat="42.1603433" lon="14.6314717"><ele>65.2</ele><time>2026-04-04T10:44:31.828Z</time></trkpt><trkpt lat="42.160295" lon="14.63132"><ele>66.8</ele><time>2026-04-04T10:44:33.827Z</time></trkpt><trkpt lat="42.16026" lon="14.63116"><ele>68.4</ele><time>2026-04-04T10:44:35.827Z</time></trkpt><trkpt lat="42.16025" lon="14.6310717"><ele>70.0</ele><time>2026-04-04T10:44:36.827Z</time></trkpt><trkpt lat="42.16024" lon="14.6309817"><ele>71.0</ele><time>2026-04-04T10:44:37.828Z</time></trkpt><trkpt lat="42.1602367" lon="14.630895"><ele>72.0</ele><time>2026-04-04T10:44:38.828Z</time></trkpt><trkpt lat="42.1602417" lon="14.6308067"><ele>73.0</ele><time>2026-04-04T10:44:39.827Z</time></trkpt><trkpt lat="42.1602433" lon="14.6307217"><ele>74.0</ele><time>2026-04-04T10:44:40.828Z</time></trkpt><trkpt lat="42.1602433" lon="14.63063"><ele>75.0</ele><time>2026-04-04T10:44:41.827Z</time></trkpt><trkpt lat="42.160245" lon="14.6305417"><ele>76.0</ele><time>2026-04-04T10:44:42.827Z</time></trkpt><trkpt lat="42.1602533" lon="14.630375"><ele>77.0</ele><time>2026-04-04T10:44:44.827Z</time></trkpt><trkpt lat="42.160255" lon="14.6302883"><ele>78.0</ele><time>2026-04-04T10:44:45.827Z</time></trkpt><trkpt lat="42.16026" lon="14.6301217"><ele>79.0</ele><time>2026-04-04T10:44:47.827Z</time></trkpt><trkpt lat="42.1602633" lon="14.6300367"><ele>80.0</ele><time>2026-04-04T10:44:48.828Z</time></trkpt><trkpt lat="42.1602767" lon="14.6298883"><ele>81.0</ele><time>2026-04-04T10:44:50.827Z</time></trkpt><trkpt lat="42.16029" lon="14.6297417"><ele>81.0</ele><time>2026-04-04T10:44:52.827Z</time></trkpt><trkpt lat="42.1603067" lon="14.6295867"><ele>81.0</ele><time>2026-04-04T10:44:54.828Z</time></trkpt><trkpt lat="42.1603267" lon="14.6294333"><ele>81.0</ele><time>2026-04-04T10:44:56.827Z</time></trkpt><trkpt lat="42.1603567" lon="14.6292667"><ele>81.0</ele><time>2026-04-04T10:44:58.828Z</time></trkpt><trkpt lat="42.16037" lon="14.6291817"><ele>81.0</ele><time>2026-04-04T10:44:59.827Z</time></trkpt><trkpt lat="42.160385" lon="14.6290983"><ele>81.33333333333333</ele><time>2026-04-04T10:45:00.827Z</time></trkpt><trkpt lat="42.1603933" lon="14.6290117"><ele>81.66666666666667</ele><time>2026-04-04T10:45:01.827Z</time></trkpt><trkpt lat="42.1604133" lon="14.62885"><ele>82.0</ele><time>2026-04-04T10:45:03.827Z</time></trkpt><trkpt lat="42.16042" lon="14.6287583"><ele>82.33333333333334</ele><time>2026-04-04T10:45:04.827Z</time></trkpt><trkpt lat="42.160425" lon="14.6286717"><ele>82.66666666666667</ele><time>2026-04-04T10:45:05.828Z</time></trkpt><trkpt lat="42.160445" lon="14.6285083"><ele>83.0</ele><time>2026-04-04T10:45:07.828Z</time></trkpt><trkpt lat="42.16046" lon="14.6284233"><ele>83.2</ele><time>2026-04-04T10:45:08.827Z</time></trkpt><trkpt lat="42.1604867" lon="14.6282633"><ele>83.4</ele><time>2026-04-04T10:45:10.827Z</time></trkpt><trkpt lat="42.1605117" lon="14.6281083"><ele>83.60000000000001</ele><time>2026-04-04T10:45:12.827Z</time></trkpt><trkpt lat="42.1605217" lon="14.6280217"><ele>83.80000000000001</ele><time>2026-04-04T10:45:13.827Z</time></trkpt><trkpt lat="42.16054" lon="14.62786"><ele>84.0</ele><time>2026-04-04T10:45:15.827Z</time></trkpt><trkpt lat="42.1605633" lon="14.6277017"><ele>84.5</ele><time>2026-04-04T10:45:17.828Z</time></trkpt><trkpt lat="42.16058" lon="14.6275367"><ele>85.0</ele><time>2026-04-04T10:45:19.828Z</time></trkpt><trkpt lat="42.1605933" lon="14.6273767"><ele>85.5</ele><time>2026-04-04T10:45:21.827Z</time></trkpt><trkpt lat="42.1606033" lon="14.62729"><ele>86.0</ele><time>2026-04-04T10:45:22.827Z</time></trkpt><trkpt lat="42.1606167" lon="14.6272033"><ele>86.5</ele><time>2026-04-04T10:45:23.828Z</time></trkpt><trkpt lat="42.16063" lon="14.627115"><ele>87.0</ele><time>2026-04-04T10:45:24.827Z</time></trkpt><trkpt lat="42.1606417" lon="14.6270267"><ele>87.25</ele><time>2026-04-04T10:45:25.827Z</time></trkpt><trkpt lat="42.1606683" lon="14.6268633"><ele>87.5</ele><time>2026-04-04T10:45:27.827Z</time></trkpt><trkpt lat="42.1606933" lon="14.626705"><ele>87.75</ele><time>2026-04-04T10:45:29.827Z</time></trkpt><trkpt lat="42.1607217" lon="14.62655"><ele>88.0</ele><time>2026-04-04T10:45:31.828Z</time></trkpt><trkpt lat="42.1607567" lon="14.6263883"><ele>88.75</ele><time>2026-04-04T10:45:33.827Z</time></trkpt><trkpt lat="42.1608017" lon="14.62626"><ele>89.5</ele><time>2026-04-04T10:45:35.827Z</time></trkpt><trkpt lat="42.160865" lon="14.6261333"><ele>90.25</ele><time>2026-04-04T10:45:37.827Z</time></trkpt><trkpt lat="42.1609533" lon="14.62602"><ele>91.0</ele><time>2026-04-04T10:45:39.828Z</time></trkpt><trkpt lat="42.1610467" lon="14.6259167"><ele>92.0</ele><time>2026-04-04T10:45:41.827Z</time></trkpt><trkpt lat="42.16114" lon="14.6258267"><ele>93.0</ele><time>2026-04-04T10:45:43.827Z</time></trkpt><trkpt lat="42.1612317" lon="14.6257283"><ele>94.0</ele><time>2026-04-04T10:45:45.827Z</time></trkpt><trkpt lat="42.1613217" lon="14.6256383"><ele>95.0</ele><time>2026-04-04T10:45:47.827Z</time></trkpt><trkpt lat="42.1614133" lon="14.6255517"><ele>95.0</ele><time>2026-04-04T10:45:49.827Z</time></trkpt><trkpt lat="42.1615117" lon="14.62546"><ele>95.0</ele><time>2026-04-04T10:45:51.827Z</time></trkpt><trkpt lat="42.1616" lon="14.6253633"><ele>95.0</ele><time>2026-04-04T10:45:53.827Z</time></trkpt><trkpt lat="42.1616917" lon="14.6252567"><ele>95.0</ele><time>2026-04-04T10:45:55.827Z</time></trkpt><trkpt lat="42.16177" lon="14.6251383"><ele>96.5</ele><time>2026-04-04T10:45:57.828Z</time></trkpt><trkpt lat="42.161835" lon="14.6250083"><ele>98.0</ele><time>2026-04-04T10:45:59.827Z</time></trkpt><trkpt lat="42.1618917" lon="14.624875"><ele>99.5</ele><time>2026-04-04T10:46:01.828Z</time></trkpt><trkpt lat="42.161935" lon="14.6247317"><ele>101.0</ele><time>2026-04-04T10:46:03.827Z</time></trkpt><trkpt lat="42.1619683" lon="14.6245867"><ele>102.25</ele><time>2026-04-04T10:46:05.828Z</time></trkpt><trkpt lat="42.1619967" lon="14.6244333"><ele>103.5</ele><time>2026-04-04T10:46:07.827Z</time></trkpt><trkpt lat="42.16204" lon="14.6242817"><ele>104.75</ele><time>2026-04-04T10:46:09.827Z</time></trkpt><trkpt lat="42.1620817" lon="14.6241317"><ele>106.0</ele><time>2026-04-04T10:46:11.827Z</time></trkpt><trkpt lat="42.162115" lon="14.6239883"><ele>106.0</ele><time>2026-04-04T10:46:13.827Z</time></trkpt><trkpt lat="42.16215" lon="14.62384"><ele>106.0</ele><time>2026-04-04T10:46:15.828Z</time></trkpt><trkpt lat="42.1621567" lon="14.623685"><ele>106.0</ele><time>2026-04-04T10:46:17.827Z</time></trkpt><trkpt lat="42.16214" lon="14.6235233"><ele>106.0</ele><time>2026-04-04T10:46:19.827Z</time></trkpt><trkpt lat="42.162105" lon="14.6233733"><ele>106.8</ele><time>2026-04-04T10:46:21.827Z</time></trkpt><trkpt lat="42.1620467" lon="14.6232317"><ele>107.6</ele><time>2026-04-04T10:46:23.827Z</time></trkpt><trkpt lat="42.1620117" lon="14.62316"><ele>108.4</ele><time>2026-04-04T10:46:24.827Z</time></trkpt><trkpt lat="42.16195" lon="14.6230233"><ele>109.2</ele><time>2026-04-04T10:46:26.827Z</time></trkpt><trkpt lat="42.1618867" lon="14.6228917"><ele>110.0</ele><time>2026-04-04T10:46:28.827Z</time></trkpt><trkpt lat="42.1618217" lon="14.62276"><ele>110.5</ele><time>2026-04-04T10:46:30.828Z</time></trkpt><trkpt lat="42.161765" lon="14.6226233"><ele>111.0</ele><time>2026-04-04T10:46:32.827Z</time></trkpt><trkpt lat="42.161695" lon="14.62249"><ele>111.5</ele><time>2026-04-04T10:46:34.827Z</time></trkpt><trkpt lat="42.1616267" lon="14.62235"><ele>112.0</ele><time>2026-04-04T10:46:36.827Z</time></trkpt><trkpt lat="42.1615683" lon="14.6222083"><ele>112.0</ele><time>2026-04-04T10:46:38.827Z</time></trkpt><trkpt lat="42.16153" lon="14.6221367"><ele>111.99999999999999</ele><time>2026-04-04T10:46:39.827Z</time></trkpt><trkpt lat="42.1614567" lon="14.621995"><ele>111.99999999999999</ele><time>2026-04-04T10:46:41.827Z</time></trkpt><trkpt lat="42.1613817" lon="14.6218583"><ele>112.0</ele><time>2026-04-04T10:46:43.827Z</time></trkpt><trkpt lat="42.1613233" lon="14.6217283"><ele>112.0</ele><time>2026-04-04T10:46:45.827Z</time></trkpt><trkpt lat="42.16127" lon="14.6216067"><ele>112.39999999999999</ele><time>2026-04-04T10:46:47.827Z</time></trkpt><trkpt lat="42.1612117" lon="14.621495"><ele>112.79999999999998</ele><time>2026-04-04T10:46:49.827Z</time></trkpt><trkpt lat="42.1611483" lon="14.6213717"><ele>113.2</ele><time>2026-04-04T10:46:51.828Z</time></trkpt><trkpt lat="42.1610767" lon="14.621245"><ele>113.6</ele><time>2026-04-04T10:46:53.827Z</time></trkpt><trkpt lat="42.161015" lon="14.6211217"><ele>114.0</ele><time>2026-04-04T10:46:55.828Z</time></trkpt><trkpt lat="42.160945" lon="14.62099"><ele>114.75</ele><time>2026-04-04T10:46:57.827Z</time></trkpt><trkpt lat="42.1608783" lon="14.6208583"><ele>115.5</ele><time>2026-04-04T10:46:59.827Z</time></trkpt><trkpt lat="42.16081" lon="14.6207317"><ele>116.25</ele><time>2026-04-04T10:47:01.827Z</time></trkpt><trkpt lat="42.160745" lon="14.6205933"><ele>117.0</ele><time>2026-04-04T10:47:03.827Z</time></trkpt><trkpt lat="42.160685" lon="14.62045"><ele>117.0</ele><time>2026-04-04T10:47:05.827Z</time></trkpt><trkpt lat="42.1606217" lon="14.6203167"><ele>116.99999999999999</ele><time>2026-04-04T10:47:07.827Z</time></trkpt><trkpt lat="42.16056" lon="14.620175"><ele>116.99999999999999</ele><time>2026-04-04T10:47:09.828Z</time></trkpt><trkpt lat="42.160525" lon="14.6201033"><ele>117.0</ele><time>2026-04-04T10:47:10.827Z</time></trkpt><trkpt lat="42.1604533" lon="14.6199717"><ele>117.0</ele><time>2026-04-04T10:47:12.827Z</time></trkpt><trkpt lat="42.1603883" lon="14.6198383"><ele>117.6</ele><time>2026-04-04T10:47:14.827Z</time></trkpt><trkpt lat="42.160325" lon="14.6197033"><ele>118.19999999999999</ele><time>2026-04-04T10:47:16.827Z</time></trkpt><trkpt lat="42.16026" lon="14.619565"><ele>118.8</ele><time>2026-04-04T10:47:18.827Z</time></trkpt><trkpt lat="42.1602233" lon="14.619495"><ele>119.4</ele><time>2026-04-04T10:47:19.827Z</time></trkpt><trkpt lat="42.1601583" lon="14.6193717"><ele>120.0</ele><time>2026-04-04T10:47:21.827Z</time></trkpt><trkpt lat="42.1600867" lon="14.6192433"><ele>120.5</ele><time>2026-04-04T10:47:23.827Z</time></trkpt><trkpt lat="42.1600167" lon="14.6191083"><ele>121.0</ele><time>2026-04-04T10:47:25.827Z</time></trkpt><trkpt lat="42.159955" lon="14.6189667"><ele>121.5</ele><time>2026-04-04T10:47:27.828Z</time></trkpt><trkpt lat="42.159885" lon="14.6188317"><ele>122.0</ele><time>2026-04-04T10:47:29.828Z</time></trkpt><trkpt lat="42.159815" lon="14.61871"><ele>122.75</ele><time>2026-04-04T10:47:31.827Z</time></trkpt><trkpt lat="42.15975" lon="14.6185767"><ele>123.5</ele><time>2026-04-04T10:47:33.827Z</time></trkpt><trkpt lat="42.159695" lon="14.6184433"><ele>124.25</ele><time>2026-04-04T10:47:35.827Z</time></trkpt><trkpt lat="42.15963" lon="14.6183167"><ele>125.0</ele><time>2026-04-04T10:47:37.827Z</time></trkpt><trkpt lat="42.159565" lon="14.6181967"><ele>125.0</ele><time>2026-04-04T10:47:39.827Z</time></trkpt><trkpt lat="42.1594983" lon="14.61807"><ele>125.0</ele><time>2026-04-04T10:47:41.827Z</time></trkpt><trkpt lat="42.1594383" lon="14.6179417"><ele>125.0</ele><time>2026-04-04T10:47:43.827Z</time></trkpt><trkpt lat="42.1593633" lon="14.6178183"><ele>125.0</ele><time>2026-04-04T10:47:45.827Z</time></trkpt><trkpt lat="42.1592917" lon="14.61769"><ele>125.5</ele><time>2026-04-04T10:47:47.828Z</time></trkpt><trkpt lat="42.1592333" lon="14.6175567"><ele>126.0</ele><time>2026-04-04T10:47:49.827Z</time></trkpt><trkpt lat="42.159175" lon="14.61743"><ele>126.5</ele><time>2026-04-04T10:47:51.827Z</time></trkpt><trkpt lat="42.15912" lon="14.6172883"><ele>127.0</ele><time>2026-04-04T10:47:53.827Z</time></trkpt><trkpt lat="42.1590583" lon="14.6171467"><ele>127.5</ele><time>2026-04-04T10:47:55.827Z</time></trkpt><trkpt lat="42.1589833" lon="14.6170117"><ele>128.0</ele><time>2026-04-04T10:47:57.827Z</time></trkpt><trkpt lat="42.1589117" lon="14.61688"><ele>128.5</ele><time>2026-04-04T10:47:59.828Z</time></trkpt><trkpt lat="42.1588467" lon="14.6167583"><ele>129.0</ele><time>2026-04-04T10:48:01.827Z</time></trkpt><trkpt lat="42.1587783" lon="14.6166333"><ele>129.5</ele><time>2026-04-04T10:48:03.827Z</time></trkpt><trkpt lat="42.1587167" lon="14.6165017"><ele>130.0</ele><time>2026-04-04T10:48:05.827Z</time></trkpt><trkpt lat="42.15865" lon="14.6163617"><ele>130.5</ele><time>2026-04-04T10:48:07.827Z</time></trkpt><trkpt lat="42.1585783" lon="14.616225"><ele>131.0</ele><time>2026-04-04T10:48:09.827Z</time></trkpt><trkpt lat="42.1585167" lon="14.6160867"><ele>131.25</ele><time>2026-04-04T10:48:11.827Z</time></trkpt><trkpt lat="42.15846" lon="14.6159467"><ele>131.5</ele><time>2026-04-04T10:48:13.827Z</time></trkpt><trkpt lat="42.1583883" lon="14.61581"><ele>131.75</ele><time>2026-04-04T10:48:15.827Z</time></trkpt><trkpt lat="42.1583167" lon="14.6156833"><ele>132.0</ele><time>2026-04-04T10:48:17.828Z</time></trkpt><trkpt lat="42.1582533" lon="14.61557"><ele>132.0</ele><time>2026-04-04T10:48:19.828Z</time></trkpt><trkpt lat="42.1581933" lon="14.615475"><ele>132.0</ele><time>2026-04-04T10:48:21.827Z</time></trkpt><trkpt lat="42.1581667" lon="14.61535"><ele>132.0</ele><time>2026-04-04T10:48:23.827Z</time></trkpt><trkpt lat="42.1581883" lon="14.6152133"><ele>132.0</ele><time>2026-04-04T10:48:25.827Z</time></trkpt><trkpt lat="42.15819" lon="14.615055"><ele>132.0</ele><time>2026-04-04T10:48:27.827Z</time></trkpt><trkpt lat="42.1581433" lon="14.6149367"><ele>132.4</ele><time>2026-04-04T10:48:29.827Z</time></trkpt><trkpt lat="42.1580483" lon="14.61489"><ele>132.79999999999998</ele><time>2026-04-04T10:48:31.827Z</time></trkpt><trkpt lat="42.1579483" lon="14.614835"><ele>133.2</ele><time>2026-04-04T10:48:33.827Z</time></trkpt><trkpt lat="42.157855" lon="14.6147117"><ele>133.6</ele><time>2026-04-04T10:48:35.827Z</time></trkpt><trkpt lat="42.1578133" lon="14.614645"><ele>134.0</ele><time>2026-04-04T10:48:36.827Z</time></trkpt><trkpt lat="42.1577733" lon="14.6145717"><ele>134.0</ele><time>2026-04-04T10:48:37.827Z</time></trkpt><trkpt lat="42.1577367" lon="14.6144967"><ele>134.0</ele><time>2026-04-04T10:48:38.827Z</time></trkpt><trkpt lat="42.1576983" lon="14.6144233"><ele>134.0</ele><time>2026-04-04T10:48:39.828Z</time></trkpt><trkpt lat="42.15766" lon="14.6143517"><ele>134.0</ele><time>2026-04-04T10:48:40.827Z</time></trkpt><trkpt lat="42.1576217" lon="14.61428"><ele>134.0</ele><time>2026-04-04T10:48:41.827Z</time></trkpt><trkpt lat="42.15758" lon="14.614205"><ele>134.0</ele><time>2026-04-04T10:48:42.828Z</time></trkpt><trkpt lat="42.1575433" lon="14.6141267"><ele>134.0</ele><time>2026-04-04T10:48:43.827Z</time></trkpt><trkpt lat="42.1575083" lon="14.61405"><ele>134.0</ele><time>2026-04-04T10:48:44.827Z</time></trkpt><trkpt lat="42.1574683" lon="14.6139767"><ele>134.0</ele><time>2026-04-04T10:48:45.827Z</time></trkpt><trkpt lat="42.15739" lon="14.6138517"><ele>134.0</ele><time>2026-04-04T10:48:47.828Z</time></trkpt><trkpt lat="42.15735" lon="14.613785"><ele>134.0</ele><time>2026-04-04T10:48:48.828Z</time></trkpt><trkpt lat="42.15728" lon="14.613655"><ele>134.0</ele><time>2026-04-04T10:48:50.828Z</time></trkpt><trkpt lat="42.1572183" lon="14.6135"><ele>134.0</ele><time>2026-04-04T10:48:52.828Z</time></trkpt><trkpt lat="42.15719" lon="14.6134133"><ele>134.0</ele><time>2026-04-04T10:48:53.829Z</time></trkpt><trkpt lat="42.157165" lon="14.6133283"><ele>134.0</ele><time>2026-04-04T10:48:54.828Z</time></trkpt><trkpt lat="42.1571333" lon="14.61325"><ele>134.0</ele><time>2026-04-04T10:48:55.828Z</time></trkpt><trkpt lat="42.1570667" lon="14.6130933"><ele>134.0</ele><time>2026-04-04T10:48:57.828Z</time></trkpt><trkpt lat="42.1570333" lon="14.6130017"><ele>134.0</ele><time>2026-04-04T10:48:58.828Z</time></trkpt><trkpt lat="42.157" lon="14.6129183"><ele>134.0</ele><time>2026-04-04T10:48:59.828Z</time></trkpt><trkpt lat="42.15697" lon="14.61284"><ele>134.0</ele><time>2026-04-04T10:49:00.828Z</time></trkpt><trkpt lat="42.1569417" lon="14.6127533"><ele>134.0</ele><time>2026-04-04T10:49:01.828Z</time></trkpt><trkpt lat="42.156925" lon="14.6126667"><ele>134.0</ele><time>2026-04-04T10:49:02.828Z</time></trkpt><trkpt lat="42.1569017" lon="14.61258"><ele>134.0</ele><time>2026-04-04T10:49:03.828Z</time></trkpt><trkpt lat="42.1568867" lon="14.6124783"><ele>134.0</ele><time>2026-04-04T10:49:04.829Z</time></trkpt><trkpt lat="42.1568683" lon="14.6123767"><ele>134.0</ele><time>2026-04-04T10:49:05.828Z</time></trkpt><trkpt lat="42.1568417" lon="14.6122783"><ele>134.16666666666666</ele><time>2026-04-04T10:49:06.828Z</time></trkpt><trkpt lat="42.1568117" lon="14.612175"><ele>134.33333333333331</ele><time>2026-04-04T10:49:07.828Z</time></trkpt><trkpt lat="42.1567833" lon="14.6120667"><ele>134.5</ele><time>2026-04-04T10:49:08.829Z</time></trkpt><trkpt lat="42.1567617" lon="14.6119633"><ele>134.66666666666666</ele><time>2026-04-04T10:49:09.828Z</time></trkpt><trkpt lat="42.15674" lon="14.611865"><ele>134.83333333333334</ele><time>2026-04-04T10:49:10.828Z</time></trkpt><trkpt lat="42.1567217" lon="14.6117717"><ele>135.0</ele><time>2026-04-04T10:49:11.828Z</time></trkpt><trkpt lat="42.1566983" lon="14.611675"><ele>135.0</ele><time>2026-04-04T10:49:12.828Z</time></trkpt><trkpt lat="42.156675" lon="14.6115717"><ele>135.0</ele><time>2026-04-04T10:49:13.828Z</time></trkpt><trkpt lat="42.1566567" lon="14.611475"><ele>135.0</ele><time>2026-04-04T10:49:14.828Z</time></trkpt><trkpt lat="42.1566367" lon="14.61138"><ele>135.0</ele><time>2026-04-04T10:49:15.828Z</time></trkpt><trkpt lat="42.1566117" lon="14.6112817"><ele>135.0</ele><time>2026-04-04T10:49:16.828Z</time></trkpt><trkpt lat="42.156585" lon="14.611185"><ele>135.0</ele><time>2026-04-04T10:49:17.828Z</time></trkpt><trkpt lat="42.15656" lon="14.6110867"><ele>134.83333333333334</ele><time>2026-04-04T10:49:18.828Z</time></trkpt><trkpt lat="42.1565367" lon="14.6109833"><ele>134.66666666666666</ele><time>2026-04-04T10:49:19.828Z</time></trkpt><trkpt lat="42.1565133" lon="14.61087"><ele>134.5</ele><time>2026-04-04T10:49:20.828Z</time></trkpt><trkpt lat="42.1564883" lon="14.61077"><ele>134.33333333333331</ele><time>2026-04-04T10:49:21.828Z</time></trkpt><trkpt lat="42.156465" lon="14.6106633"><ele>134.16666666666666</ele><time>2026-04-04T10:49:22.828Z</time></trkpt><trkpt lat="42.1564417" lon="14.61056"><ele>134.0</ele><time>2026-04-04T10:49:23.829Z</time></trkpt><trkpt lat="42.1564317" lon="14.61046"><ele>134.0</ele><time>2026-04-04T10:49:24.829Z</time></trkpt><trkpt lat="42.1564083" lon="14.6103567"><ele>134.0</ele><time>2026-04-04T10:49:25.829Z</time></trkpt><trkpt lat="42.1563833" lon="14.61025"><ele>134.0</ele><time>2026-04-04T10:49:26.828Z</time></trkpt><trkpt lat="42.1563633" lon="14.610145"><ele>134.0</ele><time>2026-04-04T10:49:27.828Z</time></trkpt><trkpt lat="42.15635" lon="14.6100433"><ele>134.0</ele><time>2026-04-04T10:49:28.828Z</time></trkpt><trkpt lat="42.1563267" lon="14.609935"><ele>134.0</ele><time>2026-04-04T10:49:29.828Z</time></trkpt><trkpt lat="42.1563" lon="14.609835"><ele>134.16666666666666</ele><time>2026-04-04T10:49:30.828Z</time></trkpt><trkpt lat="42.15628" lon="14.6097333"><ele>134.33333333333331</ele><time>2026-04-04T10:49:31.828Z</time></trkpt><trkpt lat="42.1562583" lon="14.6096267"><ele>134.5</ele><time>2026-04-04T10:49:32.829Z</time></trkpt><trkpt lat="42.1562317" lon="14.6095217"><ele>134.66666666666666</ele><time>2026-04-04T10:49:33.829Z</time></trkpt><trkpt lat="42.1562033" lon="14.60942"><ele>134.83333333333334</ele><time>2026-04-04T10:49:34.828Z</time></trkpt><trkpt lat="42.1561817" lon="14.6093233"><ele>135.0</ele><time>2026-04-04T10:49:35.828Z</time></trkpt><trkpt lat="42.1561633" lon="14.6092183"><ele>135.33333333333334</ele><time>2026-04-04T10:49:36.828Z</time></trkpt><trkpt lat="42.1561383" lon="14.6091183"><ele>135.66666666666666</ele><time>2026-04-04T10:49:37.828Z</time></trkpt><trkpt lat="42.156115" lon="14.6090117"><ele>136.0</ele><time>2026-04-04T10:49:38.828Z</time></trkpt><trkpt lat="42.1560917" lon="14.6089183"><ele>136.33333333333331</ele><time>2026-04-04T10:49:39.829Z</time></trkpt><trkpt lat="42.1560683" lon="14.6088217"><ele>136.66666666666666</ele><time>2026-04-04T10:49:40.828Z</time></trkpt><trkpt lat="42.1560383" lon="14.6087183"><ele>137.0</ele><time>2026-04-04T10:49:41.828Z</time></trkpt><trkpt lat="42.1560217" lon="14.608625"><ele>137.0</ele><time>2026-04-04T10:49:42.829Z</time></trkpt><trkpt lat="42.1560033" lon="14.60853"><ele>137.0</ele><time>2026-04-04T10:49:43.828Z</time></trkpt><trkpt lat="42.1559833" lon="14.6084383"><ele>137.0</ele><time>2026-04-04T10:49:44.828Z</time></trkpt><trkpt lat="42.1559667" lon="14.6083417"><ele>137.0</ele><time>2026-04-04T10:49:45.828Z</time></trkpt><trkpt lat="42.155945" lon="14.6082417"><ele>137.0</ele><time>2026-04-04T10:49:46.828Z</time></trkpt><trkpt lat="42.15592" lon="14.6081367"><ele>137.0</ele><time>2026-04-04T10:49:47.828Z</time></trkpt><trkpt lat="42.1558983" lon="14.6080317"><ele>137.0</ele><time>2026-04-04T10:49:48.829Z</time></trkpt><trkpt lat="42.1558783" lon="14.6079233"><ele>137.0</ele><time>2026-04-04T10:49:49.828Z</time></trkpt><trkpt lat="42.1558617" lon="14.60782"><ele>137.0</ele><time>2026-04-04T10:49:50.828Z</time></trkpt><trkpt lat="42.1558383" lon="14.60772"><ele>137.0</ele><time>2026-04-04T10:49:51.828Z</time></trkpt><trkpt lat="42.1558117" lon="14.6076183"><ele>137.0</ele><time>2026-04-04T10:49:52.828Z</time></trkpt><trkpt lat="42.1557833" lon="14.6075167"><ele>137.0</ele><time>2026-04-04T10:49:53.828Z</time></trkpt><trkpt lat="42.155765" lon="14.6074167"><ele>136.83333333333331</ele><time>2026-04-04T10:49:54.828Z</time></trkpt><trkpt lat="42.1557417" lon="14.6073183"><ele>136.66666666666666</ele><time>2026-04-04T10:49:55.828Z</time></trkpt><trkpt lat="42.1557183" lon="14.6072133"><ele>136.5</ele><time>2026-04-04T10:49:56.829Z</time></trkpt><trkpt lat="42.1556983" lon="14.6071083"><ele>136.33333333333334</ele><time>2026-04-04T10:49:57.829Z</time></trkpt><trkpt lat="42.1556817" lon="14.607005"><ele>136.16666666666669</ele><time>2026-04-04T10:49:58.829Z</time></trkpt><trkpt lat="42.155655" lon="14.60691"><ele>136.0</ele><time>2026-04-04T10:49:59.828Z</time></trkpt><trkpt lat="42.1556283" lon="14.60681"><ele>136.5</ele><time>2026-04-04T10:50:00.828Z</time></trkpt><trkpt lat="42.1556033" lon="14.6067033"><ele>137.0</ele><time>2026-04-04T10:50:01.828Z</time></trkpt><trkpt lat="42.1555783" lon="14.6066033"><ele>137.5</ele><time>2026-04-04T10:50:02.829Z</time></trkpt><trkpt lat="42.15555" lon="14.606505"><ele>138.0</ele><time>2026-04-04T10:50:03.828Z</time></trkpt><trkpt lat="42.1555283" lon="14.6064083"><ele>138.5</ele><time>2026-04-04T10:50:04.828Z</time></trkpt><trkpt lat="42.155505" lon="14.60631"><ele>139.0</ele><time>2026-04-04T10:50:05.828Z</time></trkpt><trkpt lat="42.155485" lon="14.6062117"><ele>139.14285714285714</ele><time>2026-04-04T10:50:06.828Z</time></trkpt><trkpt lat="42.155465" lon="14.6061117"><ele>139.28571428571428</ele><time>2026-04-04T10:50:07.828Z</time></trkpt><trkpt lat="42.1554417" lon="14.606015"><ele>139.42857142857144</ele><time>2026-04-04T10:50:08.829Z</time></trkpt><trkpt lat="42.155415" lon="14.605925"><ele>139.57142857142856</ele><time>2026-04-04T10:50:09.829Z</time></trkpt><trkpt lat="42.1553983" lon="14.6058283"><ele>139.71428571428572</ele><time>2026-04-04T10:50:10.828Z</time></trkpt><trkpt lat="42.1553817" lon="14.6057283"><ele>139.85714285714286</ele><time>2026-04-04T10:50:11.828Z</time></trkpt><trkpt lat="42.1553667" lon="14.6056317"><ele>140.0</ele><time>2026-04-04T10:50:12.828Z</time></trkpt><trkpt lat="42.1553467" lon="14.6055367"><ele>140.0</ele><time>2026-04-04T10:50:13.828Z</time></trkpt><trkpt lat="42.1553267" lon="14.6054467"><ele>140.0</ele><time>2026-04-04T10:50:14.828Z</time></trkpt><trkpt lat="42.1553017" lon="14.6053483"><ele>140.0</ele><time>2026-04-04T10:50:15.828Z</time></trkpt><trkpt lat="42.1552817" lon="14.6052567"><ele>140.0</ele><time>2026-04-04T10:50:16.828Z</time></trkpt><trkpt lat="42.1552633" lon="14.605165"><ele>140.0</ele><time>2026-04-04T10:50:17.828Z</time></trkpt><trkpt lat="42.1552383" lon="14.605075"><ele>140.0</ele><time>2026-04-04T10:50:18.828Z</time></trkpt><trkpt lat="42.15522" lon="14.6049833"><ele>140.0</ele><time>2026-04-04T10:50:19.829Z</time></trkpt><trkpt lat="42.1552017" lon="14.604895"><ele>140.14285714285714</ele><time>2026-04-04T10:50:20.828Z</time></trkpt><trkpt lat="42.155175" lon="14.6048067"><ele>140.28571428571428</ele><time>2026-04-04T10:50:21.828Z</time></trkpt><trkpt lat="42.155155" lon="14.6047083"><ele>140.42857142857144</ele><time>2026-04-04T10:50:22.829Z</time></trkpt><trkpt lat="42.1551317" lon="14.60461"><ele>140.57142857142856</ele><time>2026-04-04T10:50:23.828Z</time></trkpt><trkpt lat="42.1551117" lon="14.604515"><ele>140.71428571428572</ele><time>2026-04-04T10:50:24.828Z</time></trkpt><trkpt lat="42.1550917" lon="14.60442"><ele>140.85714285714286</ele><time>2026-04-04T10:50:25.828Z</time></trkpt><trkpt lat="42.1550733" lon="14.6043283"><ele>141.0</ele><time>2026-04-04T10:50:26.828Z</time></trkpt><trkpt lat="42.1550583" lon="14.604235"><ele>141.14285714285714</ele><time>2026-04-04T10:50:27.828Z</time></trkpt><trkpt lat="42.15504" lon="14.60414"><ele>141.28571428571428</ele><time>2026-04-04T10:50:28.828Z</time></trkpt><trkpt lat="42.15502" lon="14.60405"><ele>141.42857142857142</ele><time>2026-04-04T10:50:29.828Z</time></trkpt><trkpt lat="42.1549967" lon="14.6039583"><ele>141.57142857142856</ele><time>2026-04-04T10:50:30.828Z</time></trkpt><trkpt lat="42.1549733" lon="14.6038683"><ele>141.7142857142857</ele><time>2026-04-04T10:50:31.828Z</time></trkpt><trkpt lat="42.1549517" lon="14.6037767"><ele>141.85714285714286</ele><time>2026-04-04T10:50:32.828Z</time></trkpt><trkpt lat="42.1549367" lon="14.6036817"><ele>142.0</ele><time>2026-04-04T10:50:33.828Z</time></trkpt><trkpt lat="42.1549133" lon="14.60359"><ele>142.14285714285714</ele><time>2026-04-04T10:50:34.828Z</time></trkpt><trkpt lat="42.154895" lon="14.6035017"><ele>142.28571428571428</ele><time>2026-04-04T10:50:35.828Z</time></trkpt><trkpt lat="42.154875" lon="14.6034133"><ele>142.42857142857142</ele><time>2026-04-04T10:50:36.828Z</time></trkpt><trkpt lat="42.1548517" lon="14.60333"><ele>142.57142857142856</ele><time>2026-04-04T10:50:37.828Z</time></trkpt><trkpt lat="42.1548317" lon="14.6032417"><ele>142.71428571428572</ele><time>2026-04-04T10:50:38.829Z</time></trkpt><trkpt lat="42.1548067" lon="14.6031533"><ele>142.85714285714283</ele><time>2026-04-04T10:50:39.829Z</time></trkpt><trkpt lat="42.154785" lon="14.6030717"><ele>143.0</ele><time>2026-04-04T10:50:40.828Z</time></trkpt><trkpt lat="42.154765" lon="14.602985"><ele>143.42857142857142</ele><time>2026-04-04T10:50:41.828Z</time></trkpt><trkpt lat="42.1547467" lon="14.6028917"><ele>143.85714285714286</ele><time>2026-04-04T10:50:42.828Z</time></trkpt><trkpt lat="42.154725" lon="14.6027967"><ele>144.28571428571428</ele><time>2026-04-04T10:50:43.828Z</time></trkpt><trkpt lat="42.1547067" lon="14.6027"><ele>144.71428571428572</ele><time>2026-04-04T10:50:44.829Z</time></trkpt><trkpt lat="42.1546867" lon="14.6026117"><ele>145.14285714285714</ele><time>2026-04-04T10:50:45.828Z</time></trkpt><trkpt lat="42.1546767" lon="14.6025133"><ele>145.57142857142856</ele><time>2026-04-04T10:50:46.828Z</time></trkpt><trkpt lat="42.1546583" lon="14.6024133"><ele>146.0</ele><time>2026-04-04T10:50:47.828Z</time></trkpt><trkpt lat="42.1546333" lon="14.6023167"><ele>146.0</ele><time>2026-04-04T10:50:48.828Z</time></trkpt><trkpt lat="42.15461" lon="14.6022267"><ele>146.0</ele><time>2026-04-04T10:50:49.828Z</time></trkpt><trkpt lat="42.1545883" lon="14.6021383"><ele>146.0</ele><time>2026-04-04T10:50:50.828Z</time></trkpt><trkpt lat="42.1545683" lon="14.6020517"><ele>146.0</ele><time>2026-04-04T10:50:51.828Z</time></trkpt><trkpt lat="42.1545333" lon="14.6018783"><ele>146.0</ele><time>2026-04-04T10:50:53.828Z</time></trkpt><trkpt lat="42.15451" lon="14.6017867"><ele>146.0</ele><time>2026-04-04T10:50:54.828Z</time></trkpt><trkpt lat="42.154485" lon="14.6016917"><ele>146.14285714285714</ele><time>2026-04-04T10:50:55.829Z</time></trkpt><trkpt lat="42.1544633" lon="14.6016"><ele>146.28571428571428</ele><time>2026-04-04T10:50:56.829Z</time></trkpt><trkpt lat="42.1544417" lon="14.601505"><ele>146.42857142857144</ele><time>2026-04-04T10:50:57.828Z</time></trkpt><trkpt lat="42.1544217" lon="14.601415"><ele>146.57142857142856</ele><time>2026-04-04T10:50:58.828Z</time></trkpt><trkpt lat="42.1544067" lon="14.601325"><ele>146.71428571428572</ele><time>2026-04-04T10:50:59.828Z</time></trkpt><trkpt lat="42.1543867" lon="14.6012333"><ele>146.85714285714286</ele><time>2026-04-04T10:51:00.828Z</time></trkpt><trkpt lat="42.1543633" lon="14.60114"><ele>147.0</ele><time>2026-04-04T10:51:01.828Z</time></trkpt><trkpt lat="42.15434" lon="14.601045"><ele>147.14285714285714</ele><time>2026-04-04T10:51:02.829Z</time></trkpt><trkpt lat="42.1543217" lon="14.6009533"><ele>147.28571428571428</ele><time>2026-04-04T10:51:03.828Z</time></trkpt><trkpt lat="42.1543033" lon="14.60087"><ele>147.42857142857144</ele><time>2026-04-04T10:51:04.829Z</time></trkpt><trkpt lat="42.154285" lon="14.6007883"><ele>147.57142857142856</ele><time>2026-04-04T10:51:05.828Z</time></trkpt><trkpt lat="42.1542717" lon="14.600705"><ele>147.71428571428572</ele><time>2026-04-04T10:51:06.828Z</time></trkpt><trkpt lat="42.1542533" lon="14.60062"><ele>147.85714285714286</ele><time>2026-04-04T10:51:07.828Z</time></trkpt><trkpt lat="42.1542383" lon="14.6005317"><ele>148.0</ele><time>2026-04-04T10:51:08.828Z</time></trkpt><trkpt lat="42.15422" lon="14.6004417"><ele>148.0</ele><time>2026-04-04T10:51:09.828Z</time></trkpt><trkpt lat="42.1542017" lon="14.600355"><ele>148.0</ele><time>2026-04-04T10:51:10.828Z</time></trkpt><trkpt lat="42.1541817" lon="14.6002683"><ele>148.0</ele><time>2026-04-04T10:51:11.828Z</time></trkpt><trkpt lat="42.1541567" lon="14.6001833"><ele>148.0</ele><time>2026-04-04T10:51:12.828Z</time></trkpt><trkpt lat="42.1541317" lon="14.60009"><ele>148.0</ele><time>2026-04-04T10:51:13.828Z</time></trkpt><trkpt lat="42.154115" lon="14.5999967"><ele>148.0</ele><time>2026-04-04T10:51:14.828Z</time></trkpt><trkpt lat="42.154095" lon="14.5999067"><ele>148.0</ele><time>2026-04-04T10:51:15.828Z</time></trkpt><trkpt lat="42.15407" lon="14.5998117"><ele>148.0</ele><time>2026-04-04T10:51:16.828Z</time></trkpt><trkpt lat="42.15405" lon="14.5997233"><ele>148.0</ele><time>2026-04-04T10:51:17.829Z</time></trkpt><trkpt lat="42.15403" lon="14.5996383"><ele>148.0</ele><time>2026-04-04T10:51:18.828Z</time></trkpt><trkpt lat="42.1540133" lon="14.5995533"><ele>148.0</ele><time>2026-04-04T10:51:19.829Z</time></trkpt><trkpt lat="42.15399" lon="14.5994667"><ele>148.0</ele><time>2026-04-04T10:51:20.828Z</time></trkpt><trkpt lat="42.1539683" lon="14.59938"><ele>148.0</ele><time>2026-04-04T10:51:21.828Z</time></trkpt><trkpt lat="42.1539467" lon="14.5992933"><ele>148.0</ele><time>2026-04-04T10:51:22.828Z</time></trkpt><trkpt lat="42.15393" lon="14.599205"><ele>148.57142857142858</ele><time>2026-04-04T10:51:23.828Z</time></trkpt><trkpt lat="42.1539117" lon="14.59912"><ele>149.14285714285714</ele><time>2026-04-04T10:51:24.828Z</time></trkpt><trkpt lat="42.1538883" lon="14.59903"><ele>149.71428571428572</ele><time>2026-04-04T10:51:25.828Z</time></trkpt><trkpt lat="42.15387" lon="14.5989433"><ele>150.28571428571428</ele><time>2026-04-04T10:51:26.829Z</time></trkpt><trkpt lat="42.1538517" lon="14.5988517"><ele>150.85714285714286</ele><time>2026-04-04T10:51:27.829Z</time></trkpt><trkpt lat="42.153835" lon="14.5987617"><ele>151.42857142857142</ele><time>2026-04-04T10:51:28.829Z</time></trkpt><trkpt lat="42.153815" lon="14.598675"><ele>152.0</ele><time>2026-04-04T10:51:29.829Z</time></trkpt><trkpt lat="42.1537967" lon="14.598585"><ele>152.28571428571428</ele><time>2026-04-04T10:51:30.828Z</time></trkpt><trkpt lat="42.153775" lon="14.5984983"><ele>152.57142857142858</ele><time>2026-04-04T10:51:31.828Z</time></trkpt><trkpt lat="42.1537517" lon="14.5984033"><ele>152.85714285714286</ele><time>2026-04-04T10:51:32.828Z</time></trkpt><trkpt lat="42.1537333" lon="14.5983167"><ele>153.14285714285714</ele><time>2026-04-04T10:51:33.829Z</time></trkpt><trkpt lat="42.1537117" lon="14.5982233"><ele>153.42857142857144</ele><time>2026-04-04T10:51:34.828Z</time></trkpt><trkpt lat="42.1536883" lon="14.59814"><ele>153.71428571428572</ele><time>2026-04-04T10:51:35.828Z</time></trkpt><trkpt lat="42.1536667" lon="14.59805"><ele>154.0</ele><time>2026-04-04T10:51:36.828Z</time></trkpt><trkpt lat="42.1536467" lon="14.5979567"><ele>154.0</ele><time>2026-04-04T10:51:37.828Z</time></trkpt><trkpt lat="42.1536267" lon="14.597865"><ele>154.0</ele><time>2026-04-04T10:51:38.828Z</time></trkpt><trkpt lat="42.15361" lon="14.597775"><ele>154.0</ele><time>2026-04-04T10:51:39.828Z</time></trkpt><trkpt lat="42.1535917" lon="14.5976817"><ele>154.0</ele><time>2026-04-04T10:51:40.829Z</time></trkpt><trkpt lat="42.1535767" lon="14.597595"><ele>154.0</ele><time>2026-04-04T10:51:41.828Z</time></trkpt><trkpt lat="42.1535383" lon="14.597445"><ele>154.0</ele><time>2026-04-04T10:51:43.828Z</time></trkpt><trkpt lat="42.1535067" lon="14.597295"><ele>154.0</ele><time>2026-04-04T10:51:45.829Z</time></trkpt><trkpt lat="42.1534867" lon="14.5972117"><ele>154.0</ele><time>2026-04-04T10:51:46.828Z</time></trkpt><trkpt lat="42.1534667" lon="14.5971267"><ele>154.0</ele><time>2026-04-04T10:51:47.828Z</time></trkpt><trkpt lat="42.1534333" lon="14.5969633"><ele>154.0</ele><time>2026-04-04T10:51:49.828Z</time></trkpt><trkpt lat="42.1534067" lon="14.5968767"><ele>154.0</ele><time>2026-04-04T10:51:50.829Z</time></trkpt><trkpt lat="42.1533683" lon="14.59671"><ele>154.0</ele><time>2026-04-04T10:51:52.828Z</time></trkpt><trkpt lat="42.1533483" lon="14.596615"><ele>154.0</ele><time>2026-04-04T10:51:53.828Z</time></trkpt><trkpt lat="42.1533333" lon="14.59651"><ele>154.0</ele><time>2026-04-04T10:51:54.828Z</time></trkpt><trkpt lat="42.1533183" lon="14.596415"><ele>154.0</ele><time>2026-04-04T10:51:55.828Z</time></trkpt><trkpt lat="42.1533" lon="14.596325"><ele>154.0</ele><time>2026-04-04T10:51:56.829Z</time></trkpt><trkpt lat="42.1532733" lon="14.5962333"><ele>154.0</ele><time>2026-04-04T10:51:57.829Z</time></trkpt><trkpt lat="42.1532533" lon="14.596145"><ele>154.0</ele><time>2026-04-04T10:51:58.828Z</time></trkpt><trkpt lat="42.1532333" lon="14.596055"><ele>154.2</ele><time>2026-04-04T10:51:59.828Z</time></trkpt><trkpt lat="42.1532133" lon="14.59597"><ele>154.4</ele><time>2026-04-04T10:52:00.829Z</time></trkpt><trkpt lat="42.15318" lon="14.595815"><ele>154.6</ele><time>2026-04-04T10:52:02.828Z</time></trkpt><trkpt lat="42.1531633" lon="14.59573"><ele>154.8</ele><time>2026-04-04T10:52:03.828Z</time></trkpt><trkpt lat="42.153135" lon="14.595575"><ele>155.0</ele><time>2026-04-04T10:52:05.828Z</time></trkpt><trkpt lat="42.153105" lon="14.5954217"><ele>155.0</ele><time>2026-04-04T10:52:07.828Z</time></trkpt><trkpt lat="42.1530867" lon="14.59534"><ele>155.0</ele><time>2026-04-04T10:52:08.828Z</time></trkpt><trkpt lat="42.1530667" lon="14.595255"><ele>155.0</ele><time>2026-04-04T10:52:09.828Z</time></trkpt><trkpt lat="42.1530167" lon="14.5950883"><ele>155.0</ele><time>2026-04-04T10:52:11.828Z</time></trkpt><trkpt lat="42.1529983" lon="14.595005"><ele>155.0</ele><time>2026-04-04T10:52:12.828Z</time></trkpt><trkpt lat="42.1529783" lon="14.5949133"><ele>155.0</ele><time>2026-04-04T10:52:13.828Z</time></trkpt><trkpt lat="42.15296" lon="14.5948283"><ele>155.28571428571428</ele><time>2026-04-04T10:52:14.829Z</time></trkpt><trkpt lat="42.15294" lon="14.594745"><ele>155.57142857142856</ele><time>2026-04-04T10:52:15.829Z</time></trkpt><trkpt lat="42.1529183" lon="14.59466"><ele>155.85714285714283</ele><time>2026-04-04T10:52:16.828Z</time></trkpt><trkpt lat="42.1528983" lon="14.59457"><ele>156.14285714285714</ele><time>2026-04-04T10:52:17.829Z</time></trkpt><trkpt lat="42.15288" lon="14.5944883"><ele>156.42857142857142</ele><time>2026-04-04T10:52:18.828Z</time></trkpt><trkpt lat="42.1528617" lon="14.5944033"><ele>156.7142857142857</ele><time>2026-04-04T10:52:19.829Z</time></trkpt><trkpt lat="42.1528417" lon="14.5943167"><ele>157.0</ele><time>2026-04-04T10:52:20.828Z</time></trkpt><trkpt lat="42.15281" lon="14.5941533"><ele>157.14285714285714</ele><time>2026-04-04T10:52:22.828Z</time></trkpt><trkpt lat="42.15279" lon="14.59407"><ele>157.28571428571428</ele><time>2026-04-04T10:52:23.828Z</time></trkpt><trkpt lat="42.1527717" lon="14.5939883"><ele>157.42857142857144</ele><time>2026-04-04T10:52:24.829Z</time></trkpt><trkpt lat="42.1527517" lon="14.5939033"><ele>157.57142857142856</ele><time>2026-04-04T10:52:25.828Z</time></trkpt><trkpt lat="42.15273" lon="14.5938217"><ele>157.71428571428572</ele><time>2026-04-04T10:52:26.828Z</time></trkpt><trkpt lat="42.1527117" lon="14.5937383"><ele>157.85714285714286</ele><time>2026-04-04T10:52:27.828Z</time></trkpt><trkpt lat="42.1526917" lon="14.5936533"><ele>158.0</ele><time>2026-04-04T10:52:28.829Z</time></trkpt><trkpt lat="42.1526767" lon="14.59357"><ele>158.66666666666666</ele><time>2026-04-04T10:52:29.828Z</time></trkpt><trkpt lat="42.15265" lon="14.5934117"><ele>159.33333333333331</ele><time>2026-04-04T10:52:31.828Z</time></trkpt><trkpt lat="42.1526317" lon="14.5933233"><ele>160.0</ele><time>2026-04-04T10:52:32.828Z</time></trkpt><trkpt lat="42.1526117" lon="14.5932317"><ele>160.66666666666666</ele><time>2026-04-04T10:52:33.828Z</time></trkpt><trkpt lat="42.1525933" lon="14.59314"><ele>161.33333333333334</ele><time>2026-04-04T10:52:34.828Z</time></trkpt><trkpt lat="42.15257" lon="14.5930567"><ele>162.0</ele><time>2026-04-04T10:52:35.828Z</time></trkpt><trkpt lat="42.1525483" lon="14.5929717"><ele>162.0</ele><time>2026-04-04T10:52:36.828Z</time></trkpt><trkpt lat="42.1525333" lon="14.592885"><ele>162.0</ele><time>2026-04-04T10:52:37.828Z</time></trkpt><trkpt lat="42.1525183" lon="14.5927983"><ele>162.0</ele><time>2026-04-04T10:52:38.828Z</time></trkpt><trkpt lat="42.1525" lon="14.5927133"><ele>162.0</ele><time>2026-04-04T10:52:39.828Z</time></trkpt><trkpt lat="42.1524783" lon="14.59263"><ele>162.0</ele><time>2026-04-04T10:52:40.828Z</time></trkpt><trkpt lat="42.1524583" lon="14.5925483"><ele>162.0</ele><time>2026-04-04T10:52:41.828Z</time></trkpt><trkpt lat="42.1524383" lon="14.592465"><ele>162.0</ele><time>2026-04-04T10:52:42.828Z</time></trkpt><trkpt lat="42.1524083" lon="14.5923167"><ele>162.0</ele><time>2026-04-04T10:52:44.828Z</time></trkpt><trkpt lat="42.1523833" lon="14.5921567"><ele>162.0</ele><time>2026-04-04T10:52:46.828Z</time></trkpt><trkpt lat="42.1523683" lon="14.5920717"><ele>162.0</ele><time>2026-04-04T10:52:47.828Z</time></trkpt><trkpt lat="42.1523483" lon="14.5919883"><ele>162.0</ele><time>2026-04-04T10:52:48.828Z</time></trkpt><trkpt lat="42.15231" lon="14.5918283"><ele>162.0</ele><time>2026-04-04T10:52:50.829Z</time></trkpt><trkpt lat="42.1522833" lon="14.5916717"><ele>162.39999999999998</ele><time>2026-04-04T10:52:52.828Z</time></trkpt><trkpt lat="42.1522733" lon="14.59151"><ele>162.79999999999998</ele><time>2026-04-04T10:52:54.828Z</time></trkpt><trkpt lat="42.152265" lon="14.5913483"><ele>163.2</ele><time>2026-04-04T10:52:56.828Z</time></trkpt><trkpt lat="42.15222" lon="14.59119"><ele>163.6</ele><time>2026-04-04T10:52:58.828Z</time></trkpt><trkpt lat="42.1521783" lon="14.591115"><ele>164.0</ele><time>2026-04-04T10:52:59.828Z</time></trkpt><trkpt lat="42.15214" lon="14.5910467"><ele>164.6</ele><time>2026-04-04T10:53:00.828Z</time></trkpt><trkpt lat="42.1521083" lon="14.5909733"><ele>165.2</ele><time>2026-04-04T10:53:01.828Z</time></trkpt><trkpt lat="42.152055" lon="14.59082"><ele>165.79999999999998</ele><time>2026-04-04T10:53:03.828Z</time></trkpt><trkpt lat="42.1520083" lon="14.5906733"><ele>166.39999999999998</ele><time>2026-04-04T10:53:05.828Z</time></trkpt><trkpt lat="42.15196" lon="14.59053"><ele>167.0</ele><time>2026-04-04T10:53:07.829Z</time></trkpt><trkpt lat="42.1519167" lon="14.59038"><ele>167.6</ele><time>2026-04-04T10:53:09.828Z</time></trkpt><trkpt lat="42.1518767" lon="14.5902433"><ele>168.2</ele><time>2026-04-04T10:53:11.828Z</time></trkpt><trkpt lat="42.1518383" lon="14.59013"><ele>168.8</ele><time>2026-04-04T10:53:13.828Z</time></trkpt><trkpt lat="42.151805" lon="14.5900233"><ele>169.4</ele><time>2026-04-04T10:53:15.828Z</time></trkpt><trkpt lat="42.1517667" lon="14.5899117"><ele>170.0</ele><time>2026-04-04T10:53:17.828Z</time></trkpt><trkpt lat="42.151725" lon="14.58978"><ele>170.0</ele><time>2026-04-04T10:53:19.828Z</time></trkpt><trkpt lat="42.1516783" lon="14.5896367"><ele>170.0</ele><time>2026-04-04T10:53:21.828Z</time></trkpt><trkpt lat="42.151645" lon="14.5895017"><ele>170.0</ele><time>2026-04-04T10:53:23.828Z</time></trkpt><trkpt lat="42.1516083" lon="14.58936"><ele>170.0</ele><time>2026-04-04T10:53:25.828Z</time></trkpt><trkpt lat="42.1515667" lon="14.58922"><ele>170.0</ele><time>2026-04-04T10:53:27.828Z</time></trkpt><trkpt lat="42.15152" lon="14.5890933"><ele>170.6</ele><time>2026-04-04T10:53:29.828Z</time></trkpt><trkpt lat="42.1514833" lon="14.5889617"><ele>171.2</ele><time>2026-04-04T10:53:31.828Z</time></trkpt><trkpt lat="42.1514467" lon="14.5888217"><ele>171.8</ele><time>2026-04-04T10:53:33.828Z</time></trkpt><trkpt lat="42.15141" lon="14.58869"><ele>172.4</ele><time>2026-04-04T10:53:35.828Z</time></trkpt><trkpt lat="42.15137" lon="14.5885617"><ele>173.0</ele><time>2026-04-04T10:53:37.829Z</time></trkpt><trkpt lat="42.1513267" lon="14.58844"><ele>173.8</ele><time>2026-04-04T10:53:39.828Z</time></trkpt><trkpt lat="42.1512783" lon="14.58832"><ele>174.60000000000002</ele><time>2026-04-04T10:53:41.828Z</time></trkpt><trkpt lat="42.1512367" lon="14.588185"><ele>175.39999999999998</ele><time>2026-04-04T10:53:43.828Z</time></trkpt><trkpt lat="42.1512" lon="14.58805"><ele>176.2</ele><time>2026-04-04T10:53:45.828Z</time></trkpt><trkpt lat="42.1511583" lon="14.5879283"><ele>177.0</ele><time>2026-04-04T10:53:47.828Z</time></trkpt><trkpt lat="42.1511183" lon="14.5878017"><ele>177.8</ele><time>2026-04-04T10:53:49.828Z</time></trkpt><trkpt lat="42.1510717" lon="14.5876883"><ele>178.6</ele><time>2026-04-04T10:53:51.828Z</time></trkpt><trkpt lat="42.151035" lon="14.5875683"><ele>179.4</ele><time>2026-04-04T10:53:53.829Z</time></trkpt><trkpt lat="42.1509933" lon="14.5874367"><ele>180.20000000000002</ele><time>2026-04-04T10:53:55.828Z</time></trkpt><trkpt lat="42.150955" lon="14.5873"><ele>181.0</ele><time>2026-04-04T10:53:57.828Z</time></trkpt><trkpt lat="42.1509133" lon="14.5871733"><ele>181.0</ele><time>2026-04-04T10:53:59.828Z</time></trkpt><trkpt lat="42.1508717" lon="14.5870267"><ele>181.0</ele><time>2026-04-04T10:54:01.829Z</time></trkpt><trkpt lat="42.15083" lon="14.586885"><ele>181.0</ele><time>2026-04-04T10:54:03.828Z</time></trkpt><trkpt lat="42.1507983" lon="14.5867267"><ele>181.0</ele><time>2026-04-04T10:54:05.828Z</time></trkpt><trkpt lat="42.1507533" lon="14.58661"><ele>181.0</ele><time>2026-04-04T10:54:07.829Z</time></trkpt><trkpt lat="42.1506917" lon="14.5865217"><ele>182.20000000000002</ele><time>2026-04-04T10:54:09.828Z</time></trkpt><trkpt lat="42.1506483" lon="14.5864567"><ele>183.4</ele><time>2026-04-04T10:54:10.828Z</time></trkpt><trkpt lat="42.15055" lon="14.5863833"><ele>184.6</ele><time>2026-04-04T10:54:12.829Z</time></trkpt><trkpt lat="42.1504933" lon="14.586335"><ele>185.8</ele><time>2026-04-04T10:54:13.828Z</time></trkpt><trkpt lat="42.1503917" lon="14.58626"><ele>187.0</ele><time>2026-04-04T10:54:15.828Z</time></trkpt><trkpt lat="42.1503067" lon="14.5862033"><ele>188.2</ele><time>2026-04-04T10:54:17.828Z</time></trkpt><trkpt lat="42.15022" lon="14.5861733"><ele>189.39999999999998</ele><time>2026-04-04T10:54:19.828Z</time></trkpt><trkpt lat="42.150115" lon="14.5861583"><ele>190.60000000000002</ele><time>2026-04-04T10:54:21.828Z</time></trkpt><trkpt lat="42.15003" lon="14.5861717"><ele>191.8</ele><time>2026-04-04T10:54:23.829Z</time></trkpt><trkpt lat="42.1499333" lon="14.586165"><ele>193.0</ele><time>2026-04-04T10:54:25.828Z</time></trkpt><trkpt lat="42.149805" lon="14.586105"><ele>193.0</ele><time>2026-04-04T10:54:27.828Z</time></trkpt><trkpt lat="42.1497183" lon="14.586025"><ele>193.0</ele><time>2026-04-04T10:54:29.828Z</time></trkpt><trkpt lat="42.1496317" lon="14.5859317"><ele>193.0</ele><time>2026-04-04T10:54:31.828Z</time></trkpt><trkpt lat="42.14954" lon="14.5858417"><ele>193.0</ele><time>2026-04-04T10:54:33.828Z</time></trkpt><trkpt lat="42.1494483" lon="14.5857467"><ele>193.0</ele><time>2026-04-04T10:54:35.828Z</time></trkpt><trkpt lat="42.149385" lon="14.5856533"><ele>193.0</ele><time>2026-04-04T10:54:37.828Z</time></trkpt><trkpt lat="42.1493283" lon="14.58557"><ele>193.0</ele><time>2026-04-04T10:54:39.829Z</time></trkpt><trkpt lat="42.1492583" lon="14.5854833"><ele>193.0</ele><time>2026-04-04T10:54:41.828Z</time></trkpt><trkpt lat="42.149175" lon="14.58539"><ele>193.0</ele><time>2026-04-04T10:54:43.829Z</time></trkpt><trkpt lat="42.1491217" lon="14.58527"><ele>193.0</ele><time>2026-04-04T10:54:45.828Z</time></trkpt><trkpt lat="42.1490833" lon="14.585165"><ele>193.66666666666666</ele><time>2026-04-04T10:54:47.828Z</time></trkpt><trkpt lat="42.1490567" lon="14.58506"><ele>194.33333333333331</ele><time>2026-04-04T10:54:49.828Z</time></trkpt><trkpt lat="42.14906" lon="14.5849633"><ele>195.0</ele><time>2026-04-04T10:54:51.829Z</time></trkpt><trkpt lat="42.1491417" lon="14.584975"><ele>195.66666666666669</ele><time>2026-04-04T10:54:54.828Z</time></trkpt><trkpt lat="42.149195" lon="14.585035"><ele>196.33333333333334</ele><time>2026-04-04T10:54:55.828Z</time></trkpt><trkpt lat="42.14928" lon="14.5850917"><ele>197.0</ele><time>2026-04-04T10:54:57.828Z</time></trkpt><trkpt lat="42.149355" lon="14.5851433"><ele>197.0</ele><time>2026-04-04T10:54:59.829Z</time></trkpt><trkpt lat="42.14942" lon="14.5851933"><ele>197.0</ele><time>2026-04-04T10:55:01.828Z</time></trkpt><trkpt lat="42.1495067" lon="14.5852383"><ele>197.0</ele><time>2026-04-04T10:55:04.829Z</time></trkpt><trkpt lat="42.1496033" lon="14.585245"><ele>197.0</ele><time>2026-04-04T10:55:07.828Z</time></trkpt><trkpt lat="42.1496683" lon="14.5852167"><ele>197.0</ele><time>2026-04-04T10:55:10.828Z</time></trkpt><trkpt lat="42.14977" lon="14.5852967"><ele>197.0</ele><time>2026-04-04T10:56:18.327Z</time></trkpt><trkpt lat="42.1499067" lon="14.5852533"><ele>205.0</ele><time>2026-04-04T10:56:22.827Z</time></trkpt></trkseg></trk></gpx>